<?xml version='1.0' encoding='UTF-8'?><gpx version="1.1" creator="JPX - https://github.com/jenetics/jpx" xmlns="http://www.topografix.com/GPX/1/1"><trk><trkseg><trkpt lat="44.5250305" lon="10.8668284"><ele>133.0</ele><time>2026-04-18T07:13:57.964Z</time></trkpt><trkpt lat="44.5249611" lon="10.8668222"><ele>133.0</ele><time>2026-04-18T07:13:59.965Z</time></trkpt><trkpt lat="44.5249029" lon="10.8667788"><ele>133.0</ele><time>2026-04-18T07:14:01.964Z</time></trkpt><trkpt lat="44.524841" lon="10.8667358"><ele>133.0</ele><time>2026-04-18T07:14:04.965Z</time></trkpt><trkpt lat="44.5247676" lon="10.8667173"><ele>133.0</ele><time>2026-04-18T07:14:25.964Z</time></trkpt><trkpt lat="44.5247239" lon="10.8668096"><ele>133.0</ele><time>2026-04-18T07:14:27.964Z</time></trkpt><trkpt lat="44.5246877" lon="10.8669753"><ele>133.0</ele><time>2026-04-18T07:14:29.964Z</time></trkpt><trkpt lat="44.5246675" lon="10.8670677"><ele>133.0</ele><time>2026-04-18T07:14:30.964Z</time></trkpt><trkpt lat="44.5246463" lon="10.8671638"><ele>133.0</ele><time>2026-04-18T07:14:31.964Z</time></trkpt><trkpt lat="44.5246213" lon="10.8672599"><ele>133.0</ele><time>2026-04-18T07:14:32.965Z</time></trkpt><trkpt lat="44.5245985" lon="10.8673553"><ele>133.0</ele><time>2026-04-18T07:14:33.965Z</time></trkpt><trkpt lat="44.5245767" lon="10.8674502"><ele>133.0</ele><time>2026-04-18T07:14:34.964Z</time></trkpt><trkpt lat="44.5245554" lon="10.8675395"><ele>133.0</ele><time>2026-04-18T07:14:35.964Z</time></trkpt><trkpt lat="44.5245353" lon="10.8676257"><ele>133.57142857142858</ele><time>2026-04-18T07:14:36.964Z</time></trkpt><trkpt lat="44.5245125" lon="10.8677167"><ele>134.14285714285714</ele><time>2026-04-18T07:14:37.964Z</time></trkpt><trkpt lat="44.5244868" lon="10.8678147"><ele>134.71428571428572</ele><time>2026-04-18T07:14:38.965Z</time></trkpt><trkpt lat="44.5244603" lon="10.8679175"><ele>135.28571428571428</ele><time>2026-04-18T07:14:39.965Z</time></trkpt><trkpt lat="44.524438" lon="10.8680192"><ele>135.85714285714286</ele><time>2026-04-18T07:14:40.965Z</time></trkpt><trkpt lat="44.5244177" lon="10.8681206"><ele>136.42857142857144</ele><time>2026-04-18T07:14:41.964Z</time></trkpt><trkpt lat="44.5243977" lon="10.868212"><ele>137.0</ele><time>2026-04-18T07:14:42.965Z</time></trkpt><trkpt lat="44.5243615" lon="10.8683653"><ele>137.0</ele><time>2026-04-18T07:14:44.964Z</time></trkpt><trkpt lat="44.5243265" lon="10.8685088"><ele>137.0</ele><time>2026-04-18T07:14:46.964Z</time></trkpt><trkpt lat="44.524296" lon="10.8686634"><ele>137.0</ele><time>2026-04-18T07:14:48.964Z</time></trkpt><trkpt lat="44.5242635" lon="10.8688265"><ele>137.0</ele><time>2026-04-18T07:14:50.965Z</time></trkpt><trkpt lat="44.5242322" lon="10.8689952"><ele>137.00000000000003</ele><time>2026-04-18T07:14:52.964Z</time></trkpt><trkpt lat="44.5242146" lon="10.8690819"><ele>137.0</ele><time>2026-04-18T07:14:53.964Z</time></trkpt><trkpt lat="44.5242019" lon="10.8691684"><ele>137.0</ele><time>2026-04-18T07:14:54.964Z</time></trkpt><trkpt lat="44.5241864" lon="10.869263"><ele>137.0</ele><time>2026-04-18T07:14:55.964Z</time></trkpt><trkpt lat="44.524178" lon="10.8693584"><ele>137.0</ele><time>2026-04-18T07:14:56.964Z</time></trkpt><trkpt lat="44.5241717" lon="10.869459"><ele>137.00000000000003</ele><time>2026-04-18T07:14:57.965Z</time></trkpt><trkpt lat="44.524167" lon="10.8695671"><ele>137.0</ele><time>2026-04-18T07:14:58.964Z</time></trkpt><trkpt lat="44.5241639" lon="10.8696846"><ele>136.83333333333331</ele><time>2026-04-18T07:14:59.964Z</time></trkpt><trkpt lat="44.5241589" lon="10.8698025"><ele>136.66666666666666</ele><time>2026-04-18T07:15:00.965Z</time></trkpt><trkpt lat="44.5241566" lon="10.8699209"><ele>136.5</ele><time>2026-04-18T07:15:01.964Z</time></trkpt><trkpt lat="44.5241519" lon="10.8700368"><ele>136.33333333333334</ele><time>2026-04-18T07:15:02.964Z</time></trkpt><trkpt lat="44.5241491" lon="10.8701378"><ele>136.16666666666669</ele><time>2026-04-18T07:15:03.964Z</time></trkpt><trkpt lat="44.5241444" lon="10.8702351"><ele>136.0</ele><time>2026-04-18T07:15:04.965Z</time></trkpt><trkpt lat="44.5241402" lon="10.8703283"><ele>135.66666666666669</ele><time>2026-04-18T07:15:05.964Z</time></trkpt><trkpt lat="44.5241386" lon="10.870427"><ele>135.33333333333334</ele><time>2026-04-18T07:15:06.965Z</time></trkpt><trkpt lat="44.5241385" lon="10.8705314"><ele>135.0</ele><time>2026-04-18T07:15:07.964Z</time></trkpt><trkpt lat="44.5241355" lon="10.8706376"><ele>134.66666666666666</ele><time>2026-04-18T07:15:08.964Z</time></trkpt><trkpt lat="44.5241342" lon="10.8707492"><ele>134.33333333333331</ele><time>2026-04-18T07:15:09.964Z</time></trkpt><trkpt lat="44.524134" lon="10.8708635"><ele>134.0</ele><time>2026-04-18T07:15:10.964Z</time></trkpt><trkpt lat="44.5241317" lon="10.8709776"><ele>134.0</ele><time>2026-04-18T07:15:11.964Z</time></trkpt><trkpt lat="44.5241326" lon="10.8710896"><ele>134.0</ele><time>2026-04-18T07:15:12.964Z</time></trkpt><trkpt lat="44.5241343" lon="10.8711819"><ele>134.0</ele><time>2026-04-18T07:15:13.964Z</time></trkpt><trkpt lat="44.5241376" lon="10.8712903"><ele>134.0</ele><time>2026-04-18T07:15:15.965Z</time></trkpt><trkpt lat="44.5241303" lon="10.8714144"><ele>134.0</ele><time>2026-04-18T07:15:18.964Z</time></trkpt><trkpt lat="44.524121" lon="10.8715226"><ele>134.0</ele><time>2026-04-18T07:15:21.964Z</time></trkpt><trkpt lat="44.5240844" lon="10.8716458"><ele>134.0</ele><time>2026-04-18T07:15:27.964Z</time></trkpt><trkpt lat="44.5239912" lon="10.8717514"><ele>134.0</ele><time>2026-04-18T07:15:29.964Z</time></trkpt><trkpt lat="44.5239266" lon="10.871762"><ele>134.0</ele><time>2026-04-18T07:15:30.964Z</time></trkpt><trkpt lat="44.5238519" lon="10.8717267"><ele>134.0</ele><time>2026-04-18T07:15:31.964Z</time></trkpt><trkpt lat="44.5237781" lon="10.8716984"><ele>134.0</ele><time>2026-04-18T07:15:32.965Z</time></trkpt><trkpt lat="44.5236967" lon="10.8716715"><ele>134.0</ele><time>2026-04-18T07:15:33.964Z</time></trkpt><trkpt lat="44.5236119" lon="10.8716413"><ele>135.4</ele><time>2026-04-18T07:15:34.965Z</time></trkpt><trkpt lat="44.5235257" lon="10.8716089"><ele>136.8</ele><time>2026-04-18T07:15:35.964Z</time></trkpt><trkpt lat="44.523436" lon="10.8715716"><ele>138.2</ele><time>2026-04-18T07:15:36.964Z</time></trkpt><trkpt lat="44.5233415" lon="10.8715405"><ele>139.6</ele><time>2026-04-18T07:15:37.965Z</time></trkpt><trkpt lat="44.5232444" lon="10.8715025"><ele>141.0</ele><time>2026-04-18T07:15:38.964Z</time></trkpt><trkpt lat="44.5231466" lon="10.8714687"><ele>141.0</ele><time>2026-04-18T07:15:39.965Z</time></trkpt><trkpt lat="44.5230428" lon="10.8714303"><ele>141.0</ele><time>2026-04-18T07:15:40.964Z</time></trkpt><trkpt lat="44.5229352" lon="10.8713908"><ele>141.0</ele><time>2026-04-18T07:15:41.965Z</time></trkpt><trkpt lat="44.5228335" lon="10.8713495"><ele>141.0</ele><time>2026-04-18T07:15:42.964Z</time></trkpt><trkpt lat="44.5227333" lon="10.8713069"><ele>141.0</ele><time>2026-04-18T07:15:43.965Z</time></trkpt><trkpt lat="44.5226364" lon="10.8712637"><ele>141.8</ele><time>2026-04-18T07:15:44.964Z</time></trkpt><trkpt lat="44.52254" lon="10.8712165"><ele>142.6</ele><time>2026-04-18T07:15:45.965Z</time></trkpt><trkpt lat="44.5224456" lon="10.8711686"><ele>143.4</ele><time>2026-04-18T07:15:46.965Z</time></trkpt><trkpt lat="44.5223538" lon="10.8711246"><ele>144.2</ele><time>2026-04-18T07:15:47.965Z</time></trkpt><trkpt lat="44.5222623" lon="10.8710776"><ele>145.0</ele><time>2026-04-18T07:15:48.964Z</time></trkpt><trkpt lat="44.5221708" lon="10.8710307"><ele>145.0</ele><time>2026-04-18T07:15:49.964Z</time></trkpt><trkpt lat="44.5220786" lon="10.8709887"><ele>145.0</ele><time>2026-04-18T07:15:50.965Z</time></trkpt><trkpt lat="44.5219804" lon="10.8709421"><ele>145.0</ele><time>2026-04-18T07:15:51.965Z</time></trkpt><trkpt lat="44.5218836" lon="10.8708932"><ele>145.0</ele><time>2026-04-18T07:15:52.964Z</time></trkpt><trkpt lat="44.5217866" lon="10.8708451"><ele>145.0</ele><time>2026-04-18T07:15:53.965Z</time></trkpt><trkpt lat="44.5216873" lon="10.8707997"><ele>145.66666666666669</ele><time>2026-04-18T07:15:54.964Z</time></trkpt><trkpt lat="44.5216019" lon="10.8707544"><ele>146.33333333333334</ele><time>2026-04-18T07:15:55.964Z</time></trkpt><trkpt lat="44.5215235" lon="10.8707201"><ele>147.0</ele><time>2026-04-18T07:15:56.965Z</time></trkpt><trkpt lat="44.5214485" lon="10.8706871"><ele>147.66666666666666</ele><time>2026-04-18T07:15:57.964Z</time></trkpt><trkpt lat="44.5213776" lon="10.8706511"><ele>148.33333333333331</ele><time>2026-04-18T07:15:58.964Z</time></trkpt><trkpt lat="44.5213222" lon="10.8705961"><ele>149.0</ele><time>2026-04-18T07:15:59.965Z</time></trkpt><trkpt lat="44.5212951" lon="10.8705121"><ele>149.0</ele><time>2026-04-18T07:16:00.964Z</time></trkpt><trkpt lat="44.5212692" lon="10.87042"><ele>149.0</ele><time>2026-04-18T07:16:01.965Z</time></trkpt><trkpt lat="44.5212352" lon="10.8703231"><ele>149.0</ele><time>2026-04-18T07:16:02.965Z</time></trkpt><trkpt lat="44.5211961" lon="10.8702251"><ele>149.0</ele><time>2026-04-18T07:16:03.965Z</time></trkpt><trkpt lat="44.5211537" lon="10.8701242"><ele>149.0</ele><time>2026-04-18T07:16:04.964Z</time></trkpt><trkpt lat="44.521106" lon="10.8700257"><ele>149.0</ele><time>2026-04-18T07:16:05.964Z</time></trkpt><trkpt lat="44.5210622" lon="10.8699261"><ele>148.33333333333331</ele><time>2026-04-18T07:16:06.965Z</time></trkpt><trkpt lat="44.5210162" lon="10.8698284"><ele>147.66666666666666</ele><time>2026-04-18T07:16:07.964Z</time></trkpt><trkpt lat="44.5209726" lon="10.8697335"><ele>147.0</ele><time>2026-04-18T07:16:08.965Z</time></trkpt><trkpt lat="44.5209303" lon="10.8696389"><ele>146.33333333333334</ele><time>2026-04-18T07:16:09.964Z</time></trkpt><trkpt lat="44.5208872" lon="10.8695476"><ele>145.66666666666669</ele><time>2026-04-18T07:16:10.965Z</time></trkpt><trkpt lat="44.5208462" lon="10.8694576"><ele>145.0</ele><time>2026-04-18T07:16:11.965Z</time></trkpt><trkpt lat="44.5207998" lon="10.8693801"><ele>145.0</ele><time>2026-04-18T07:16:12.964Z</time></trkpt><trkpt lat="44.5207555" lon="10.8693019"><ele>145.0</ele><time>2026-04-18T07:16:13.965Z</time></trkpt><trkpt lat="44.5207072" lon="10.8692267"><ele>145.0</ele><time>2026-04-18T07:16:14.965Z</time></trkpt><trkpt lat="44.5206526" lon="10.8691636"><ele>145.0</ele><time>2026-04-18T07:16:15.965Z</time></trkpt><trkpt lat="44.5205901" lon="10.8691119"><ele>145.0</ele><time>2026-04-18T07:16:16.964Z</time></trkpt><trkpt lat="44.520522" lon="10.8690648"><ele>145.0</ele><time>2026-04-18T07:16:17.964Z</time></trkpt><trkpt lat="44.5204489" lon="10.8690253"><ele>145.0</ele><time>2026-04-18T07:16:18.965Z</time></trkpt><trkpt lat="44.5203756" lon="10.8689959"><ele>144.2</ele><time>2026-04-18T07:16:19.965Z</time></trkpt><trkpt lat="44.5202946" lon="10.8689721"><ele>143.4</ele><time>2026-04-18T07:16:20.965Z</time></trkpt><trkpt lat="44.5202079" lon="10.8689574"><ele>142.6</ele><time>2026-04-18T07:16:21.964Z</time></trkpt><trkpt lat="44.5201156" lon="10.8689485"><ele>141.8</ele><time>2026-04-18T07:16:22.964Z</time></trkpt><trkpt lat="44.5200144" lon="10.8689308"><ele>141.0</ele><time>2026-04-18T07:16:23.965Z</time></trkpt><trkpt lat="44.5199088" lon="10.8689198"><ele>141.0</ele><time>2026-04-18T07:16:24.964Z</time></trkpt><trkpt lat="44.5197961" lon="10.8689039"><ele>141.0</ele><time>2026-04-18T07:16:25.965Z</time></trkpt><trkpt lat="44.5196838" lon="10.868892"><ele>141.0</ele><time>2026-04-18T07:16:26.965Z</time></trkpt><trkpt lat="44.5195752" lon="10.8688753"><ele>141.0</ele><time>2026-04-18T07:16:27.965Z</time></trkpt><trkpt lat="44.5194736" lon="10.8688574"><ele>141.0</ele><time>2026-04-18T07:16:28.964Z</time></trkpt><trkpt lat="44.519374" lon="10.8688403"><ele>142.0</ele><time>2026-04-18T07:16:29.964Z</time></trkpt><trkpt lat="44.519276" lon="10.868826"><ele>143.0</ele><time>2026-04-18T07:16:30.964Z</time></trkpt><trkpt lat="44.5191788" lon="10.8688126"><ele>144.0</ele><time>2026-04-18T07:16:31.965Z</time></trkpt><trkpt lat="44.5190865" lon="10.8687965"><ele>145.0</ele><time>2026-04-18T07:16:32.964Z</time></trkpt><trkpt lat="44.5190037" lon="10.8687691"><ele>146.0</ele><time>2026-04-18T07:16:33.965Z</time></trkpt><trkpt lat="44.518933" lon="10.868707"><ele>146.0</ele><time>2026-04-18T07:16:34.964Z</time></trkpt><trkpt lat="44.5188815" lon="10.8686095"><ele>146.0</ele><time>2026-04-18T07:16:35.964Z</time></trkpt><trkpt lat="44.5188452" lon="10.8684917"><ele>146.0</ele><time>2026-04-18T07:16:36.964Z</time></trkpt><trkpt lat="44.5188119" lon="10.8683579"><ele>146.0</ele><time>2026-04-18T07:16:37.964Z</time></trkpt><trkpt lat="44.5187774" lon="10.8682208"><ele>146.0</ele><time>2026-04-18T07:16:38.964Z</time></trkpt><trkpt lat="44.5187428" lon="10.8680871"><ele>147.66666666666666</ele><time>2026-04-18T07:16:39.965Z</time></trkpt><trkpt lat="44.5187109" lon="10.8679612"><ele>149.33333333333331</ele><time>2026-04-18T07:16:40.964Z</time></trkpt><trkpt lat="44.5186808" lon="10.867843"><ele>151.0</ele><time>2026-04-18T07:16:41.965Z</time></trkpt><trkpt lat="44.5186486" lon="10.8677344"><ele>152.66666666666666</ele><time>2026-04-18T07:16:42.964Z</time></trkpt><trkpt lat="44.5186196" lon="10.8676235"><ele>154.33333333333334</ele><time>2026-04-18T07:16:43.964Z</time></trkpt><trkpt lat="44.518591" lon="10.8675179"><ele>156.0</ele><time>2026-04-18T07:16:44.965Z</time></trkpt><trkpt lat="44.5185673" lon="10.8674306"><ele>156.8</ele><time>2026-04-18T07:16:45.965Z</time></trkpt><trkpt lat="44.5185436" lon="10.8673406"><ele>157.6</ele><time>2026-04-18T07:16:46.964Z</time></trkpt><trkpt lat="44.5184992" lon="10.8672193"><ele>158.4</ele><time>2026-04-18T07:16:48.965Z</time></trkpt><trkpt lat="44.518443" lon="10.8671552"><ele>159.2</ele><time>2026-04-18T07:17:18.964Z</time></trkpt><trkpt lat="44.5183664" lon="10.8672068"><ele>160.0</ele><time>2026-04-18T07:17:20.965Z</time></trkpt><trkpt lat="44.5182482" lon="10.8672761"><ele>160.0</ele><time>2026-04-18T07:17:22.964Z</time></trkpt><trkpt lat="44.5181808" lon="10.8673185"><ele>160.0</ele><time>2026-04-18T07:17:23.964Z</time></trkpt><trkpt lat="44.5181122" lon="10.8673626"><ele>160.0</ele><time>2026-04-18T07:17:24.964Z</time></trkpt><trkpt lat="44.5180441" lon="10.867411"><ele>160.0</ele><time>2026-04-18T07:17:25.965Z</time></trkpt><trkpt lat="44.5179756" lon="10.8674568"><ele>160.0</ele><time>2026-04-18T07:17:26.964Z</time></trkpt><trkpt lat="44.5178995" lon="10.8675003"><ele>160.0</ele><time>2026-04-18T07:17:27.965Z</time></trkpt><trkpt lat="44.5178236" lon="10.867548"><ele>160.2</ele><time>2026-04-18T07:17:28.964Z</time></trkpt><trkpt lat="44.5177427" lon="10.8675965"><ele>160.4</ele><time>2026-04-18T07:17:29.965Z</time></trkpt><trkpt lat="44.5176594" lon="10.8676441"><ele>160.60000000000002</ele><time>2026-04-18T07:17:30.964Z</time></trkpt><trkpt lat="44.5175747" lon="10.8676923"><ele>160.8</ele><time>2026-04-18T07:17:31.965Z</time></trkpt><trkpt lat="44.5174906" lon="10.8677411"><ele>161.0</ele><time>2026-04-18T07:17:32.965Z</time></trkpt><trkpt lat="44.5174059" lon="10.8677825"><ele>161.0</ele><time>2026-04-18T07:17:33.964Z</time></trkpt><trkpt lat="44.5173232" lon="10.8678005"><ele>161.0</ele><time>2026-04-18T07:17:34.964Z</time></trkpt><trkpt lat="44.5172465" lon="10.8677814"><ele>161.0</ele><time>2026-04-18T07:17:35.965Z</time></trkpt><trkpt lat="44.5171657" lon="10.8677405"><ele>161.0</ele><time>2026-04-18T07:17:36.965Z</time></trkpt><trkpt lat="44.5170778" lon="10.8677122"><ele>161.0</ele><time>2026-04-18T07:17:37.964Z</time></trkpt><trkpt lat="44.5169792" lon="10.8677078"><ele>161.0</ele><time>2026-04-18T07:17:38.964Z</time></trkpt><trkpt lat="44.516881" lon="10.8677191"><ele>161.60000000000002</ele><time>2026-04-18T07:17:39.965Z</time></trkpt><trkpt lat="44.516784" lon="10.8677456"><ele>162.2</ele><time>2026-04-18T07:17:40.965Z</time></trkpt><trkpt lat="44.5166897" lon="10.8677722"><ele>162.8</ele><time>2026-04-18T07:17:41.964Z</time></trkpt><trkpt lat="44.5166087" lon="10.8677847"><ele>163.39999999999998</ele><time>2026-04-18T07:17:42.964Z</time></trkpt><trkpt lat="44.5165361" lon="10.8677702"><ele>164.0</ele><time>2026-04-18T07:17:43.965Z</time></trkpt><trkpt lat="44.5164529" lon="10.8676489"><ele>165.0</ele><time>2026-04-18T07:17:45.964Z</time></trkpt><trkpt lat="44.5164364" lon="10.8675543"><ele>166.0</ele><time>2026-04-18T07:17:46.964Z</time></trkpt><trkpt lat="44.5164191" lon="10.8674497"><ele>167.0</ele><time>2026-04-18T07:17:47.964Z</time></trkpt><trkpt lat="44.5163819" lon="10.8673584"><ele>168.0</ele><time>2026-04-18T07:17:48.964Z</time></trkpt><trkpt lat="44.5163247" lon="10.867288"><ele>169.0</ele><time>2026-04-18T07:17:49.964Z</time></trkpt><trkpt lat="44.5162523" lon="10.8672448"><ele>170.0</ele><time>2026-04-18T07:17:50.964Z</time></trkpt><trkpt lat="44.5161658" lon="10.8672306"><ele>170.4</ele><time>2026-04-18T07:17:51.965Z</time></trkpt><trkpt lat="44.5160722" lon="10.8672415"><ele>170.8</ele><time>2026-04-18T07:17:52.964Z</time></trkpt><trkpt lat="44.5159759" lon="10.8672632"><ele>171.2</ele><time>2026-04-18T07:17:53.964Z</time></trkpt><trkpt lat="44.5158799" lon="10.8672888"><ele>171.6</ele><time>2026-04-18T07:17:54.964Z</time></trkpt><trkpt lat="44.515787" lon="10.8673186"><ele>172.0</ele><time>2026-04-18T07:17:55.965Z</time></trkpt><trkpt lat="44.5156944" lon="10.8673475"><ele>172.0</ele><time>2026-04-18T07:17:56.964Z</time></trkpt><trkpt lat="44.5156002" lon="10.8673727"><ele>172.0</ele><time>2026-04-18T07:17:57.965Z</time></trkpt><trkpt lat="44.5155059" lon="10.8673994"><ele>172.0</ele><time>2026-04-18T07:17:58.964Z</time></trkpt><trkpt lat="44.5154105" lon="10.8674282"><ele>172.0</ele><time>2026-04-18T07:17:59.964Z</time></trkpt><trkpt lat="44.5153136" lon="10.8674542"><ele>172.0</ele><time>2026-04-18T07:18:00.965Z</time></trkpt><trkpt lat="44.515213" lon="10.8674776"><ele>172.0</ele><time>2026-04-18T07:18:01.964Z</time></trkpt><trkpt lat="44.5151133" lon="10.8675009"><ele>172.0</ele><time>2026-04-18T07:18:02.965Z</time></trkpt><trkpt lat="44.5150122" lon="10.8675275"><ele>172.0</ele><time>2026-04-18T07:18:03.965Z</time></trkpt><trkpt lat="44.5149139" lon="10.8675547"><ele>172.0</ele><time>2026-04-18T07:18:04.964Z</time></trkpt><trkpt lat="44.5148154" lon="10.8675773"><ele>172.0</ele><time>2026-04-18T07:18:05.965Z</time></trkpt><trkpt lat="44.5147174" lon="10.867601"><ele>172.39999999999998</ele><time>2026-04-18T07:18:06.965Z</time></trkpt><trkpt lat="44.5146195" lon="10.8676235"><ele>172.79999999999998</ele><time>2026-04-18T07:18:07.964Z</time></trkpt><trkpt lat="44.5145214" lon="10.8676393"><ele>173.2</ele><time>2026-04-18T07:18:08.964Z</time></trkpt><trkpt lat="44.5144181" lon="10.8676494"><ele>173.6</ele><time>2026-04-18T07:18:09.965Z</time></trkpt><trkpt lat="44.5143136" lon="10.8676662"><ele>174.0</ele><time>2026-04-18T07:18:10.965Z</time></trkpt><trkpt lat="44.5142116" lon="10.8676844"><ele>174.0</ele><time>2026-04-18T07:18:11.964Z</time></trkpt><trkpt lat="44.5141081" lon="10.86771"><ele>174.0</ele><time>2026-04-18T07:18:12.964Z</time></trkpt><trkpt lat="44.5140039" lon="10.8677268"><ele>174.0</ele><time>2026-04-18T07:18:13.964Z</time></trkpt><trkpt lat="44.5138987" lon="10.8677323"><ele>174.0</ele><time>2026-04-18T07:18:14.964Z</time></trkpt><trkpt lat="44.5137954" lon="10.8677211"><ele>174.0</ele><time>2026-04-18T07:18:15.964Z</time></trkpt><trkpt lat="44.5136938" lon="10.8676984"><ele>174.6</ele><time>2026-04-18T07:18:16.964Z</time></trkpt><trkpt lat="44.5135994" lon="10.8676379"><ele>175.2</ele><time>2026-04-18T07:18:17.965Z</time></trkpt><trkpt lat="44.513503" lon="10.8675721"><ele>175.79999999999998</ele><time>2026-04-18T07:18:18.964Z</time></trkpt><trkpt lat="44.5134063" lon="10.8675079"><ele>176.39999999999998</ele><time>2026-04-18T07:18:19.965Z</time></trkpt><trkpt lat="44.5133154" lon="10.8674406"><ele>177.0</ele><time>2026-04-18T07:18:20.965Z</time></trkpt><trkpt lat="44.5132271" lon="10.8673828"><ele>177.8</ele><time>2026-04-18T07:18:21.964Z</time></trkpt><trkpt lat="44.5131365" lon="10.867321"><ele>178.6</ele><time>2026-04-18T07:18:22.964Z</time></trkpt><trkpt lat="44.5130483" lon="10.8672545"><ele>179.4</ele><time>2026-04-18T07:18:23.964Z</time></trkpt><trkpt lat="44.5129583" lon="10.8671916"><ele>180.20000000000002</ele><time>2026-04-18T07:18:24.965Z</time></trkpt><trkpt lat="44.5128618" lon="10.8671298"><ele>181.0</ele><time>2026-04-18T07:18:25.964Z</time></trkpt><trkpt lat="44.5127663" lon="10.8670645"><ele>182.20000000000002</ele><time>2026-04-18T07:18:26.965Z</time></trkpt><trkpt lat="44.5126705" lon="10.8669977"><ele>183.4</ele><time>2026-04-18T07:18:27.965Z</time></trkpt><trkpt lat="44.5125733" lon="10.8669333"><ele>184.6</ele><time>2026-04-18T07:18:28.964Z</time></trkpt><trkpt lat="44.512486" lon="10.8668678"><ele>185.8</ele><time>2026-04-18T07:18:29.965Z</time></trkpt><trkpt lat="44.5124107" lon="10.8668054"><ele>187.0</ele><time>2026-04-18T07:18:30.965Z</time></trkpt><trkpt lat="44.5123409" lon="10.8667716"><ele>187.0</ele><time>2026-04-18T07:18:31.965Z</time></trkpt><trkpt lat="44.5122691" lon="10.8667761"><ele>187.0</ele><time>2026-04-18T07:18:32.964Z</time></trkpt><trkpt lat="44.5122026" lon="10.8668277"><ele>187.0</ele><time>2026-04-18T07:18:33.964Z</time></trkpt><trkpt lat="44.5121394" lon="10.8669134"><ele>187.0</ele><time>2026-04-18T07:18:34.965Z</time></trkpt><trkpt lat="44.5120732" lon="10.8670069"><ele>187.0</ele><time>2026-04-18T07:18:35.964Z</time></trkpt><trkpt lat="44.5120056" lon="10.8671227"><ele>187.0</ele><time>2026-04-18T07:18:36.964Z</time></trkpt><trkpt lat="44.511945" lon="10.867207"><ele>188.83333333333334</ele><time>2026-04-18T07:18:37.964Z</time></trkpt><trkpt lat="44.511879" lon="10.8672523"><ele>190.66666666666669</ele><time>2026-04-18T07:18:38.964Z</time></trkpt><trkpt lat="44.5118014" lon="10.8672438"><ele>192.5</ele><time>2026-04-18T07:18:39.965Z</time></trkpt><trkpt lat="44.5117361" lon="10.8671789"><ele>194.33333333333334</ele><time>2026-04-18T07:18:40.964Z</time></trkpt><trkpt lat="44.511673" lon="10.867099"><ele>196.16666666666666</ele><time>2026-04-18T07:18:41.964Z</time></trkpt><trkpt lat="44.5116062" lon="10.8670092"><ele>198.0</ele><time>2026-04-18T07:18:42.965Z</time></trkpt><trkpt lat="44.5115437" lon="10.8669177"><ele>198.0</ele><time>2026-04-18T07:18:43.965Z</time></trkpt><trkpt lat="44.5114813" lon="10.8668272"><ele>198.0</ele><time>2026-04-18T07:18:44.965Z</time></trkpt><trkpt lat="44.5114203" lon="10.8667487"><ele>198.0</ele><time>2026-04-18T07:18:45.964Z</time></trkpt><trkpt lat="44.511377" lon="10.8666807"><ele>198.0</ele><time>2026-04-18T07:18:46.965Z</time></trkpt><trkpt lat="44.5113017" lon="10.8666067"><ele>198.0</ele><time>2026-04-18T07:18:48.964Z</time></trkpt><trkpt lat="44.511232" lon="10.8666323"><ele>198.0</ele><time>2026-04-18T07:18:55.965Z</time></trkpt><trkpt lat="44.5111464" lon="10.8667354"><ele>199.8</ele><time>2026-04-18T07:18:57.964Z</time></trkpt><trkpt lat="44.5110972" lon="10.8668249"><ele>201.60000000000002</ele><time>2026-04-18T07:18:58.964Z</time></trkpt><trkpt lat="44.5110334" lon="10.866929"><ele>203.39999999999998</ele><time>2026-04-18T07:18:59.964Z</time></trkpt><trkpt lat="44.5109634" lon="10.8670336"><ele>205.2</ele><time>2026-04-18T07:19:00.964Z</time></trkpt><trkpt lat="44.5108871" lon="10.8671496"><ele>207.0</ele><time>2026-04-18T07:19:01.964Z</time></trkpt><trkpt lat="44.5108044" lon="10.8672749"><ele>207.0</ele><time>2026-04-18T07:19:02.964Z</time></trkpt><trkpt lat="44.5107174" lon="10.867403"><ele>207.0</ele><time>2026-04-18T07:19:03.965Z</time></trkpt><trkpt lat="44.5106313" lon="10.8675284"><ele>207.0</ele><time>2026-04-18T07:19:04.965Z</time></trkpt><trkpt lat="44.510546" lon="10.8676494"><ele>207.0</ele><time>2026-04-18T07:19:05.964Z</time></trkpt><trkpt lat="44.5104634" lon="10.8677672"><ele>207.39999999999998</ele><time>2026-04-18T07:19:06.964Z</time></trkpt><trkpt lat="44.5103923" lon="10.8678674"><ele>207.79999999999998</ele><time>2026-04-18T07:19:07.964Z</time></trkpt><trkpt lat="44.5103236" lon="10.8679632"><ele>208.2</ele><time>2026-04-18T07:19:08.964Z</time></trkpt><trkpt lat="44.5102567" lon="10.8680654"><ele>208.6</ele><time>2026-04-18T07:19:09.965Z</time></trkpt><trkpt lat="44.5101876" lon="10.8681653"><ele>209.0</ele><time>2026-04-18T07:19:10.964Z</time></trkpt><trkpt lat="44.5101258" lon="10.8682606"><ele>209.0</ele><time>2026-04-18T07:19:11.965Z</time></trkpt><trkpt lat="44.5100707" lon="10.8683455"><ele>209.0</ele><time>2026-04-18T07:19:12.964Z</time></trkpt><trkpt lat="44.5100233" lon="10.8684143"><ele>209.0</ele><time>2026-04-18T07:19:13.964Z</time></trkpt><trkpt lat="44.5099809" lon="10.8684808"><ele>209.0</ele><time>2026-04-18T07:19:14.965Z</time></trkpt><trkpt lat="44.5099123" lon="10.8685646"><ele>209.0</ele><time>2026-04-18T07:19:16.965Z</time></trkpt><trkpt lat="44.5098463" lon="10.8685563"><ele>209.0</ele><time>2026-04-18T07:19:19.964Z</time></trkpt><trkpt lat="44.5098063" lon="10.8684772"><ele>209.0</ele><time>2026-04-18T07:19:21.965Z</time></trkpt><trkpt lat="44.5097517" lon="10.8683524"><ele>209.00000000000003</ele><time>2026-04-18T07:19:23.965Z</time></trkpt><trkpt lat="44.5097498" lon="10.8682092"><ele>209.0</ele><time>2026-04-18T07:19:25.965Z</time></trkpt><trkpt lat="44.50977" lon="10.8680458"><ele>209.0</ele><time>2026-04-18T07:19:27.964Z</time></trkpt><trkpt lat="44.5097806" lon="10.8679497"><ele>209.0</ele><time>2026-04-18T07:19:28.964Z</time></trkpt><trkpt lat="44.5097964" lon="10.8678498"><ele>209.00000000000003</ele><time>2026-04-18T07:19:29.964Z</time></trkpt><trkpt lat="44.509814" lon="10.8677514"><ele>209.0</ele><time>2026-04-18T07:19:30.964Z</time></trkpt><trkpt lat="44.5098249" lon="10.8676515"><ele>211.00000000000003</ele><time>2026-04-18T07:19:31.965Z</time></trkpt><trkpt lat="44.5098397" lon="10.8675596"><ele>213.0</ele><time>2026-04-18T07:19:32.964Z</time></trkpt><trkpt lat="44.5099044" lon="10.8673945"><ele>215.0</ele><time>2026-04-18T07:19:34.964Z</time></trkpt><trkpt lat="44.5099307" lon="10.8672956"><ele>217.0</ele><time>2026-04-18T07:19:35.965Z</time></trkpt><trkpt lat="44.5099495" lon="10.8671904"><ele>219.00000000000003</ele><time>2026-04-18T07:19:36.964Z</time></trkpt><trkpt lat="44.5099614" lon="10.8670856"><ele>221.0</ele><time>2026-04-18T07:19:37.964Z</time></trkpt><trkpt lat="44.5099633" lon="10.8669745"><ele>221.00000000000003</ele><time>2026-04-18T07:19:38.965Z</time></trkpt><trkpt lat="44.5099624" lon="10.866862"><ele>221.0</ele><time>2026-04-18T07:19:39.965Z</time></trkpt><trkpt lat="44.5099594" lon="10.8667459"><ele>221.0</ele><time>2026-04-18T07:19:40.964Z</time></trkpt><trkpt lat="44.5099544" lon="10.8666277"><ele>221.0</ele><time>2026-04-18T07:19:41.964Z</time></trkpt><trkpt lat="44.5099507" lon="10.8664982"><ele>221.00000000000003</ele><time>2026-04-18T07:19:42.964Z</time></trkpt><trkpt lat="44.5099476" lon="10.8663623"><ele>221.0</ele><time>2026-04-18T07:19:43.965Z</time></trkpt><trkpt lat="44.509942" lon="10.8662228"><ele>223.0</ele><time>2026-04-18T07:19:44.964Z</time></trkpt><trkpt lat="44.5099396" lon="10.8660849"><ele>225.00000000000003</ele><time>2026-04-18T07:19:45.965Z</time></trkpt><trkpt lat="44.5099373" lon="10.8659273"><ele>227.00000000000003</ele><time>2026-04-18T07:19:46.965Z</time></trkpt><trkpt lat="44.5099321" lon="10.865771"><ele>229.0</ele><time>2026-04-18T07:19:47.964Z</time></trkpt><trkpt lat="44.5099275" lon="10.8656191"><ele>231.0</ele><time>2026-04-18T07:19:48.965Z</time></trkpt><trkpt lat="44.5099274" lon="10.8654701"><ele>232.8</ele><time>2026-04-18T07:19:49.964Z</time></trkpt><trkpt lat="44.509934" lon="10.8653288"><ele>234.60000000000002</ele><time>2026-04-18T07:19:50.964Z</time></trkpt><trkpt lat="44.5099232" lon="10.8651858"><ele>236.4</ele><time>2026-04-18T07:19:51.964Z</time></trkpt><trkpt lat="44.5098997" lon="10.8650435"><ele>238.2</ele><time>2026-04-18T07:19:52.965Z</time></trkpt><trkpt lat="44.5098553" lon="10.8649106"><ele>240.0</ele><time>2026-04-18T07:19:53.965Z</time></trkpt><trkpt lat="44.5097956" lon="10.8647864"><ele>241.2</ele><time>2026-04-18T07:19:54.965Z</time></trkpt><trkpt lat="44.5097348" lon="10.8646702"><ele>242.4</ele><time>2026-04-18T07:19:55.964Z</time></trkpt><trkpt lat="44.5096733" lon="10.8645571"><ele>243.60000000000002</ele><time>2026-04-18T07:19:56.964Z</time></trkpt><trkpt lat="44.5096153" lon="10.8644651"><ele>244.8</ele><time>2026-04-18T07:19:57.964Z</time></trkpt><trkpt lat="44.5095622" lon="10.8643882"><ele>246.0</ele><time>2026-04-18T07:19:58.964Z</time></trkpt><trkpt lat="44.5095013" lon="10.8642997"><ele>248.20000000000002</ele><time>2026-04-18T07:20:00.964Z</time></trkpt><trkpt lat="44.5094383" lon="10.864227"><ele>250.40000000000003</ele><time>2026-04-18T07:20:07.964Z</time></trkpt><trkpt lat="44.5093237" lon="10.8642117"><ele>252.6</ele><time>2026-04-18T07:20:09.965Z</time></trkpt><trkpt lat="44.5092616" lon="10.864142"><ele>254.8</ele><time>2026-04-18T07:20:10.965Z</time></trkpt><trkpt lat="44.509214" lon="10.8640491"><ele>257.0</ele><time>2026-04-18T07:20:11.964Z</time></trkpt><trkpt lat="44.5091687" lon="10.8639318"><ele>257.0</ele><time>2026-04-18T07:20:12.964Z</time></trkpt><trkpt lat="44.5091157" lon="10.8638015"><ele>257.0</ele><time>2026-04-18T07:20:13.964Z</time></trkpt><trkpt lat="44.509049" lon="10.8636551"><ele>257.0</ele><time>2026-04-18T07:20:14.965Z</time></trkpt><trkpt lat="44.5089799" lon="10.863501"><ele>257.0</ele><time>2026-04-18T07:20:15.964Z</time></trkpt><trkpt lat="44.5089152" lon="10.8633278"><ele>256.5</ele><time>2026-04-18T07:20:16.964Z</time></trkpt><trkpt lat="44.5088417" lon="10.8631542"><ele>256.0</ele><time>2026-04-18T07:20:17.964Z</time></trkpt><trkpt lat="44.5087689" lon="10.8629788"><ele>255.5</ele><time>2026-04-18T07:20:18.965Z</time></trkpt><trkpt lat="44.5086925" lon="10.8628043"><ele>255.0</ele><time>2026-04-18T07:20:19.965Z</time></trkpt><trkpt lat="44.5086114" lon="10.8626238"><ele>256.5</ele><time>2026-04-18T07:20:20.965Z</time></trkpt><trkpt lat="44.5085372" lon="10.8624651"><ele>258.0</ele><time>2026-04-18T07:20:21.964Z</time></trkpt><trkpt lat="44.5084582" lon="10.8622959"><ele>259.5</ele><time>2026-04-18T07:20:22.965Z</time></trkpt><trkpt lat="44.5083969" lon="10.8621206"><ele>261.0</ele><time>2026-04-18T07:20:23.964Z</time></trkpt><trkpt lat="44.508345" lon="10.8619406"><ele>262.75</ele><time>2026-04-18T07:20:24.964Z</time></trkpt><trkpt lat="44.5082926" lon="10.8617545"><ele>264.5</ele><time>2026-04-18T07:20:25.964Z</time></trkpt><trkpt lat="44.508237" lon="10.8615758"><ele>266.25</ele><time>2026-04-18T07:20:26.965Z</time></trkpt><trkpt lat="44.508142" lon="10.861417"><ele>268.0</ele><time>2026-04-18T07:20:27.965Z</time></trkpt><trkpt lat="44.5080468" lon="10.8612689"><ele>268.0</ele><time>2026-04-18T07:20:28.964Z</time></trkpt><trkpt lat="44.5079324" lon="10.8611345"><ele>268.0</ele><time>2026-04-18T07:20:29.965Z</time></trkpt><trkpt lat="44.5078009" lon="10.8610222"><ele>268.0</ele><time>2026-04-18T07:20:30.965Z</time></trkpt><trkpt lat="44.5076621" lon="10.8609503"><ele>267.3333333333333</ele><time>2026-04-18T07:20:31.964Z</time></trkpt><trkpt lat="44.5075133" lon="10.8609004"><ele>266.6666666666667</ele><time>2026-04-18T07:20:32.965Z</time></trkpt><trkpt lat="44.5073653" lon="10.8608574"><ele>266.0</ele><time>2026-04-18T07:20:33.964Z</time></trkpt><trkpt lat="44.5072181" lon="10.8608091"><ele>266.0</ele><time>2026-04-18T07:20:34.965Z</time></trkpt><trkpt lat="44.5070782" lon="10.8607627"><ele>266.0</ele><time>2026-04-18T07:20:35.965Z</time></trkpt><trkpt lat="44.5069524" lon="10.8607098"><ele>266.0</ele><time>2026-04-18T07:20:36.965Z</time></trkpt><trkpt lat="44.506835" lon="10.8606332"><ele>266.0</ele><time>2026-04-18T07:20:37.964Z</time></trkpt><trkpt lat="44.5067354" lon="10.8605285"><ele>265.5</ele><time>2026-04-18T07:20:38.965Z</time></trkpt><trkpt lat="44.5066529" lon="10.8603873"><ele>265.0</ele><time>2026-04-18T07:20:39.964Z</time></trkpt><trkpt lat="44.5065795" lon="10.8602259"><ele>264.5</ele><time>2026-04-18T07:20:40.965Z</time></trkpt><trkpt lat="44.5065156" lon="10.8600567"><ele>264.0</ele><time>2026-04-18T07:20:41.964Z</time></trkpt><trkpt lat="44.5064586" lon="10.8598816"><ele>264.0</ele><time>2026-04-18T07:20:42.965Z</time></trkpt><trkpt lat="44.5063977" lon="10.8597133"><ele>264.0</ele><time>2026-04-18T07:20:43.964Z</time></trkpt><trkpt lat="44.506338" lon="10.8595411"><ele>264.0</ele><time>2026-04-18T07:20:44.964Z</time></trkpt><trkpt lat="44.5062647" lon="10.8593882"><ele>264.0</ele><time>2026-04-18T07:20:45.965Z</time></trkpt><trkpt lat="44.5061711" lon="10.859261"><ele>262.75</ele><time>2026-04-18T07:20:46.965Z</time></trkpt><trkpt lat="44.506056" lon="10.8591631"><ele>261.5</ele><time>2026-04-18T07:20:47.964Z</time></trkpt><trkpt lat="44.50592" lon="10.8590941"><ele>260.25</ele><time>2026-04-18T07:20:48.965Z</time></trkpt><trkpt lat="44.5057807" lon="10.8590295"><ele>259.0</ele><time>2026-04-18T07:20:49.964Z</time></trkpt><trkpt lat="44.5056363" lon="10.8589709"><ele>259.0</ele><time>2026-04-18T07:20:50.965Z</time></trkpt><trkpt lat="44.5054901" lon="10.8589151"><ele>259.0</ele><time>2026-04-18T07:20:51.964Z</time></trkpt><trkpt lat="44.505343" lon="10.8588605"><ele>259.0</ele><time>2026-04-18T07:20:52.964Z</time></trkpt><trkpt lat="44.505195" lon="10.8588074"><ele>259.3333333333333</ele><time>2026-04-18T07:20:53.964Z</time></trkpt><trkpt lat="44.5050464" lon="10.8587623"><ele>259.6666666666667</ele><time>2026-04-18T07:20:54.965Z</time></trkpt><trkpt lat="44.5048932" lon="10.858714"><ele>260.0</ele><time>2026-04-18T07:20:55.965Z</time></trkpt><trkpt lat="44.504745" lon="10.858664"><ele>260.0</ele><time>2026-04-18T07:20:56.965Z</time></trkpt><trkpt lat="44.5046057" lon="10.8586124"><ele>260.0</ele><time>2026-04-18T07:20:57.964Z</time></trkpt><trkpt lat="44.5044804" lon="10.8585591"><ele>260.0</ele><time>2026-04-18T07:20:58.964Z</time></trkpt><trkpt lat="44.5043592" lon="10.8585034"><ele>260.0</ele><time>2026-04-18T07:20:59.964Z</time></trkpt><trkpt lat="44.5042442" lon="10.8584464"><ele>260.0</ele><time>2026-04-18T07:21:00.965Z</time></trkpt><trkpt lat="44.504134" lon="10.8583894"><ele>260.0</ele><time>2026-04-18T07:21:01.965Z</time></trkpt><trkpt lat="44.5040252" lon="10.8583297"><ele>260.0</ele><time>2026-04-18T07:21:02.965Z</time></trkpt><trkpt lat="44.5039184" lon="10.8582712"><ele>260.0</ele><time>2026-04-18T07:21:03.964Z</time></trkpt><trkpt lat="44.503816" lon="10.8582142"><ele>260.0</ele><time>2026-04-18T07:21:04.965Z</time></trkpt><trkpt lat="44.5037101" lon="10.8581513"><ele>260.0</ele><time>2026-04-18T07:21:05.965Z</time></trkpt><trkpt lat="44.5036049" lon="10.8580916"><ele>260.0</ele><time>2026-04-18T07:21:06.964Z</time></trkpt><trkpt lat="44.5034998" lon="10.8580294"><ele>260.0</ele><time>2026-04-18T07:21:07.964Z</time></trkpt><trkpt lat="44.5033904" lon="10.8579641"><ele>260.0</ele><time>2026-04-18T07:21:08.965Z</time></trkpt><trkpt lat="44.5032764" lon="10.8579005"><ele>260.0</ele><time>2026-04-18T07:21:09.965Z</time></trkpt><trkpt lat="44.5031626" lon="10.857833"><ele>260.0</ele><time>2026-04-18T07:21:10.965Z</time></trkpt><trkpt lat="44.5030458" lon="10.8577679"><ele>260.0</ele><time>2026-04-18T07:21:11.964Z</time></trkpt><trkpt lat="44.5029264" lon="10.8576945"><ele>260.0</ele><time>2026-04-18T07:21:12.965Z</time></trkpt><trkpt lat="44.5028048" lon="10.8576113"><ele>260.0</ele><time>2026-04-18T07:21:13.965Z</time></trkpt><trkpt lat="44.5026792" lon="10.8575284"><ele>260.0</ele><time>2026-04-18T07:21:14.965Z</time></trkpt><trkpt lat="44.5025558" lon="10.8574369"><ele>260.0</ele><time>2026-04-18T07:21:15.965Z</time></trkpt><trkpt lat="44.5024295" lon="10.8573381"><ele>260.0</ele><time>2026-04-18T07:21:16.965Z</time></trkpt><trkpt lat="44.5022997" lon="10.8572321"><ele>260.0</ele><time>2026-04-18T07:21:17.965Z</time></trkpt><trkpt lat="44.5021702" lon="10.857123"><ele>260.0</ele><time>2026-04-18T07:21:18.964Z</time></trkpt><trkpt lat="44.5020301" lon="10.8570217"><ele>258.0</ele><time>2026-04-18T07:21:19.964Z</time></trkpt><trkpt lat="44.5018833" lon="10.8569372"><ele>256.0</ele><time>2026-04-18T07:21:20.964Z</time></trkpt><trkpt lat="44.5017307" lon="10.8568783"><ele>254.0</ele><time>2026-04-18T07:21:21.964Z</time></trkpt><trkpt lat="44.5015743" lon="10.8568335"><ele>254.0</ele><time>2026-04-18T07:21:22.964Z</time></trkpt><trkpt lat="44.5014155" lon="10.8567921"><ele>254.0</ele><time>2026-04-18T07:21:23.964Z</time></trkpt><trkpt lat="44.5012592" lon="10.8567565"><ele>254.0</ele><time>2026-04-18T07:21:24.964Z</time></trkpt><trkpt lat="44.5011026" lon="10.8567153"><ele>256.0</ele><time>2026-04-18T07:21:25.964Z</time></trkpt><trkpt lat="44.5009463" lon="10.8566691"><ele>258.0</ele><time>2026-04-18T07:21:26.964Z</time></trkpt><trkpt lat="44.5007886" lon="10.8566205"><ele>260.0</ele><time>2026-04-18T07:21:27.965Z</time></trkpt><trkpt lat="44.500636" lon="10.8565694"><ele>260.0</ele><time>2026-04-18T07:21:28.964Z</time></trkpt><trkpt lat="44.5004828" lon="10.8565163"><ele>260.0</ele><time>2026-04-18T07:21:29.964Z</time></trkpt><trkpt lat="44.5003328" lon="10.8564599"><ele>260.0</ele><time>2026-04-18T07:21:30.964Z</time></trkpt><trkpt lat="44.500183" lon="10.8564041"><ele>262.5</ele><time>2026-04-18T07:21:31.965Z</time></trkpt><trkpt lat="44.5000385" lon="10.8563489"><ele>265.0</ele><time>2026-04-18T07:21:32.965Z</time></trkpt><trkpt lat="44.4998903" lon="10.8563129"><ele>267.5</ele><time>2026-04-18T07:21:33.965Z</time></trkpt><trkpt lat="44.4997415" lon="10.8563181"><ele>270.0</ele><time>2026-04-18T07:21:34.964Z</time></trkpt><trkpt lat="44.4995955" lon="10.8563504"><ele>272.6666666666667</ele><time>2026-04-18T07:21:35.964Z</time></trkpt><trkpt lat="44.4994452" lon="10.8563979"><ele>275.33333333333337</ele><time>2026-04-18T07:21:36.965Z</time></trkpt><trkpt lat="44.4992908" lon="10.8564447"><ele>278.0</ele><time>2026-04-18T07:21:37.965Z</time></trkpt><trkpt lat="44.4991321" lon="10.8564794"><ele>278.0</ele><time>2026-04-18T07:21:38.964Z</time></trkpt><trkpt lat="44.4989702" lon="10.8565028"><ele>278.0</ele><time>2026-04-18T07:21:39.964Z</time></trkpt><trkpt lat="44.4988076" lon="10.8565204"><ele>278.0</ele><time>2026-04-18T07:21:40.964Z</time></trkpt><trkpt lat="44.4986475" lon="10.8565329"><ele>279.33333333333337</ele><time>2026-04-18T07:21:41.964Z</time></trkpt><trkpt lat="44.4984838" lon="10.8565382"><ele>280.6666666666667</ele><time>2026-04-18T07:21:42.964Z</time></trkpt><trkpt lat="44.4983217" lon="10.8565294"><ele>282.0</ele><time>2026-04-18T07:21:43.965Z</time></trkpt><trkpt lat="44.4981608" lon="10.8565097"><ele>282.0</ele><time>2026-04-18T07:21:44.964Z</time></trkpt><trkpt lat="44.4979994" lon="10.8564874"><ele>282.0</ele><time>2026-04-18T07:21:45.964Z</time></trkpt><trkpt lat="44.4978368" lon="10.8564657"><ele>282.0</ele><time>2026-04-18T07:21:46.964Z</time></trkpt><trkpt lat="44.4976732" lon="10.8564343"><ele>282.0</ele><time>2026-04-18T07:21:47.964Z</time></trkpt><trkpt lat="44.4975164" lon="10.8563963"><ele>282.0</ele><time>2026-04-18T07:21:48.965Z</time></trkpt><trkpt lat="44.4973697" lon="10.8563419"><ele>282.0</ele><time>2026-04-18T07:21:49.964Z</time></trkpt><trkpt lat="44.4972336" lon="10.8562704"><ele>282.0</ele><time>2026-04-18T07:21:50.964Z</time></trkpt><trkpt lat="44.4971155" lon="10.8561665"><ele>282.0</ele><time>2026-04-18T07:21:51.964Z</time></trkpt><trkpt lat="44.4970155" lon="10.8560228"><ele>282.0</ele><time>2026-04-18T07:21:52.965Z</time></trkpt><trkpt lat="44.4969353" lon="10.8558641"><ele>282.0</ele><time>2026-04-18T07:21:53.964Z</time></trkpt><trkpt lat="44.4968666" lon="10.8557111"><ele>281.0</ele><time>2026-04-18T07:21:54.964Z</time></trkpt><trkpt lat="44.4968026" lon="10.8555703"><ele>280.0</ele><time>2026-04-18T07:21:55.965Z</time></trkpt><trkpt lat="44.4967388" lon="10.8554357"><ele>279.0</ele><time>2026-04-18T07:21:56.965Z</time></trkpt><trkpt lat="44.4966745" lon="10.8553059"><ele>278.0</ele><time>2026-04-18T07:21:57.965Z</time></trkpt><trkpt lat="44.4966122" lon="10.855176"><ele>277.4</ele><time>2026-04-18T07:21:58.964Z</time></trkpt><trkpt lat="44.4965438" lon="10.8550464"><ele>276.8</ele><time>2026-04-18T07:21:59.964Z</time></trkpt><trkpt lat="44.4964753" lon="10.8549257"><ele>276.2</ele><time>2026-04-18T07:22:00.965Z</time></trkpt><trkpt lat="44.4964163" lon="10.8548321"><ele>275.6</ele><time>2026-04-18T07:22:01.964Z</time></trkpt><trkpt lat="44.4963714" lon="10.8547611"><ele>275.0</ele><time>2026-04-18T07:22:02.965Z</time></trkpt><trkpt lat="44.4963002" lon="10.8546895"><ele>275.2</ele><time>2026-04-18T07:22:04.964Z</time></trkpt><trkpt lat="44.4962323" lon="10.8547315"><ele>275.4</ele><time>2026-04-18T07:22:06.964Z</time></trkpt><trkpt lat="44.496142" lon="10.8547875"><ele>275.6</ele><time>2026-04-18T07:22:08.964Z</time></trkpt><trkpt lat="44.4960406" lon="10.8548451"><ele>275.8</ele><time>2026-04-18T07:22:10.964Z</time></trkpt><trkpt lat="44.4959239" lon="10.8549012"><ele>276.0</ele><time>2026-04-18T07:22:12.965Z</time></trkpt><trkpt lat="44.4958524" lon="10.8549126"><ele>276.0</ele><time>2026-04-18T07:22:13.965Z</time></trkpt><trkpt lat="44.4957705" lon="10.8549021"><ele>276.0</ele><time>2026-04-18T07:22:14.965Z</time></trkpt><trkpt lat="44.495677" lon="10.8548799"><ele>276.0</ele><time>2026-04-18T07:22:15.964Z</time></trkpt><trkpt lat="44.4955766" lon="10.8548504"><ele>276.0</ele><time>2026-04-18T07:22:16.964Z</time></trkpt><trkpt lat="44.4954701" lon="10.8548223"><ele>276.0</ele><time>2026-04-18T07:22:17.965Z</time></trkpt><trkpt lat="44.4953662" lon="10.8547942"><ele>273.25</ele><time>2026-04-18T07:22:18.964Z</time></trkpt><trkpt lat="44.4952667" lon="10.8547653"><ele>270.5</ele><time>2026-04-18T07:22:19.964Z</time></trkpt><trkpt lat="44.4951598" lon="10.8547453"><ele>267.75</ele><time>2026-04-18T07:22:20.964Z</time></trkpt><trkpt lat="44.4950402" lon="10.8547584"><ele>265.0</ele><time>2026-04-18T07:22:21.965Z</time></trkpt><trkpt lat="44.4949132" lon="10.8548143"><ele>265.0</ele><time>2026-04-18T07:22:22.965Z</time></trkpt><trkpt lat="44.4947833" lon="10.854886"><ele>265.0</ele><time>2026-04-18T07:22:23.964Z</time></trkpt><trkpt lat="44.4946561" lon="10.8549489"><ele>265.0</ele><time>2026-04-18T07:22:24.964Z</time></trkpt><trkpt lat="44.4945311" lon="10.8550011"><ele>265.0</ele><time>2026-04-18T07:22:25.965Z</time></trkpt><trkpt lat="44.4944175" lon="10.855058"><ele>264.25</ele><time>2026-04-18T07:22:26.965Z</time></trkpt><trkpt lat="44.4943046" lon="10.8551392"><ele>263.5</ele><time>2026-04-18T07:22:27.964Z</time></trkpt><trkpt lat="44.494196" lon="10.8552364"><ele>262.75</ele><time>2026-04-18T07:22:28.964Z</time></trkpt><trkpt lat="44.4940959" lon="10.8553374"><ele>262.0</ele><time>2026-04-18T07:22:29.965Z</time></trkpt><trkpt lat="44.4939955" lon="10.8554425"><ele>262.0</ele><time>2026-04-18T07:22:30.964Z</time></trkpt><trkpt lat="44.4938996" lon="10.8555411"><ele>262.0</ele><time>2026-04-18T07:22:31.964Z</time></trkpt><trkpt lat="44.4937984" lon="10.8556403"><ele>262.0</ele><time>2026-04-18T07:22:32.964Z</time></trkpt><trkpt lat="44.4936999" lon="10.8557506"><ele>262.0</ele><time>2026-04-18T07:22:33.964Z</time></trkpt><trkpt lat="44.493606" lon="10.8558653"><ele>262.6</ele><time>2026-04-18T07:22:34.964Z</time></trkpt><trkpt lat="44.4935254" lon="10.8559634"><ele>263.2</ele><time>2026-04-18T07:22:35.964Z</time></trkpt><trkpt lat="44.4934558" lon="10.8560585"><ele>263.8</ele><time>2026-04-18T07:22:36.964Z</time></trkpt><trkpt lat="44.4934058" lon="10.8561691"><ele>264.4</ele><time>2026-04-18T07:22:37.964Z</time></trkpt><trkpt lat="44.4933889" lon="10.8563017"><ele>265.0</ele><time>2026-04-18T07:22:38.964Z</time></trkpt><trkpt lat="44.4934026" lon="10.8564488"><ele>265.0</ele><time>2026-04-18T07:22:39.965Z</time></trkpt><trkpt lat="44.4934473" lon="10.8566009"><ele>265.0</ele><time>2026-04-18T07:22:40.965Z</time></trkpt><trkpt lat="44.4935154" lon="10.8567538"><ele>265.0</ele><time>2026-04-18T07:22:41.965Z</time></trkpt><trkpt lat="44.49358" lon="10.856909"><ele>265.0</ele><time>2026-04-18T07:22:42.965Z</time></trkpt><trkpt lat="44.4936396" lon="10.8570641"><ele>263.0</ele><time>2026-04-18T07:22:43.964Z</time></trkpt><trkpt lat="44.493701" lon="10.8572275"><ele>261.0</ele><time>2026-04-18T07:22:44.965Z</time></trkpt><trkpt lat="44.4937554" lon="10.8573824"><ele>259.0</ele><time>2026-04-18T07:22:45.964Z</time></trkpt><trkpt lat="44.493811" lon="10.8575342"><ele>257.0</ele><time>2026-04-18T07:22:46.964Z</time></trkpt><trkpt lat="44.493851" lon="10.8577007"><ele>253.2</ele><time>2026-04-18T07:22:47.964Z</time></trkpt><trkpt lat="44.4938877" lon="10.8578576"><ele>249.39999999999998</ele><time>2026-04-18T07:22:48.965Z</time></trkpt><trkpt lat="44.4939226" lon="10.8580028"><ele>245.60000000000002</ele><time>2026-04-18T07:22:49.964Z</time></trkpt><trkpt lat="44.4939486" lon="10.8581424"><ele>241.8</ele><time>2026-04-18T07:22:50.965Z</time></trkpt><trkpt lat="44.4939588" lon="10.8582646"><ele>238.0</ele><time>2026-04-18T07:22:51.965Z</time></trkpt><trkpt lat="44.4939518" lon="10.8583883"><ele>237.2</ele><time>2026-04-18T07:22:52.965Z</time></trkpt><trkpt lat="44.4939241" lon="10.8585229"><ele>236.4</ele><time>2026-04-18T07:22:53.965Z</time></trkpt><trkpt lat="44.4938753" lon="10.8586575"><ele>235.59999999999997</ele><time>2026-04-18T07:22:54.965Z</time></trkpt><trkpt lat="44.4938303" lon="10.8587934"><ele>234.79999999999998</ele><time>2026-04-18T07:22:55.964Z</time></trkpt><trkpt lat="44.4937739" lon="10.8589175"><ele>234.0</ele><time>2026-04-18T07:22:56.964Z</time></trkpt><trkpt lat="44.4937206" lon="10.8590579"><ele>233.79999999999998</ele><time>2026-04-18T07:22:57.964Z</time></trkpt><trkpt lat="44.4936675" lon="10.859202"><ele>233.59999999999997</ele><time>2026-04-18T07:22:58.964Z</time></trkpt><trkpt lat="44.4936196" lon="10.8593432"><ele>233.4</ele><time>2026-04-18T07:22:59.965Z</time></trkpt><trkpt lat="44.493573" lon="10.8594761"><ele>233.2</ele><time>2026-04-18T07:23:00.964Z</time></trkpt><trkpt lat="44.4935301" lon="10.8596007"><ele>233.0</ele><time>2026-04-18T07:23:01.965Z</time></trkpt><trkpt lat="44.4934849" lon="10.859717"><ele>233.0</ele><time>2026-04-18T07:23:02.964Z</time></trkpt><trkpt lat="44.4934431" lon="10.8598294"><ele>233.0</ele><time>2026-04-18T07:23:03.964Z</time></trkpt><trkpt lat="44.4934056" lon="10.8599456"><ele>233.0</ele><time>2026-04-18T07:23:04.964Z</time></trkpt><trkpt lat="44.4933722" lon="10.8600598"><ele>233.0</ele><time>2026-04-18T07:23:05.964Z</time></trkpt><trkpt lat="44.4933397" lon="10.8601829"><ele>233.0</ele><time>2026-04-18T07:23:06.964Z</time></trkpt><trkpt lat="44.4933152" lon="10.8603057"><ele>232.16666666666669</ele><time>2026-04-18T07:23:07.964Z</time></trkpt><trkpt lat="44.4933001" lon="10.8604265"><ele>231.33333333333334</ele><time>2026-04-18T07:23:08.965Z</time></trkpt><trkpt lat="44.4932866" lon="10.8605422"><ele>230.5</ele><time>2026-04-18T07:23:09.964Z</time></trkpt><trkpt lat="44.4932736" lon="10.8606497"><ele>229.66666666666669</ele><time>2026-04-18T07:23:10.965Z</time></trkpt><trkpt lat="44.4932614" lon="10.8607527"><ele>228.83333333333334</ele><time>2026-04-18T07:23:11.964Z</time></trkpt><trkpt lat="44.4932555" lon="10.8608535"><ele>228.0</ele><time>2026-04-18T07:23:12.964Z</time></trkpt><trkpt lat="44.4932417" lon="10.8609678"><ele>226.5</ele><time>2026-04-18T07:23:13.965Z</time></trkpt><trkpt lat="44.4932303" lon="10.8610858"><ele>225.0</ele><time>2026-04-18T07:23:14.964Z</time></trkpt><trkpt lat="44.4932182" lon="10.8612064"><ele>223.5</ele><time>2026-04-18T07:23:15.964Z</time></trkpt><trkpt lat="44.4932101" lon="10.8613266"><ele>222.0</ele><time>2026-04-18T07:23:16.965Z</time></trkpt><trkpt lat="44.4931999" lon="10.8614477"><ele>220.5</ele><time>2026-04-18T07:23:17.964Z</time></trkpt><trkpt lat="44.4931867" lon="10.8615778"><ele>219.0</ele><time>2026-04-18T07:23:18.965Z</time></trkpt><trkpt lat="44.4931755" lon="10.8617106"><ele>216.83333333333334</ele><time>2026-04-18T07:23:19.964Z</time></trkpt><trkpt lat="44.4931617" lon="10.8618331"><ele>214.66666666666669</ele><time>2026-04-18T07:23:20.964Z</time></trkpt><trkpt lat="44.4931455" lon="10.8619451"><ele>212.5</ele><time>2026-04-18T07:23:21.964Z</time></trkpt><trkpt lat="44.4931102" lon="10.862036"><ele>210.33333333333334</ele><time>2026-04-18T07:23:22.964Z</time></trkpt><trkpt lat="44.4930533" lon="10.8620898"><ele>208.16666666666669</ele><time>2026-04-18T07:23:23.964Z</time></trkpt><trkpt lat="44.4929873" lon="10.8620907"><ele>206.0</ele><time>2026-04-18T07:23:24.965Z</time></trkpt><trkpt lat="44.4929121" lon="10.8620533"><ele>205.4</ele><time>2026-04-18T07:23:25.964Z</time></trkpt><trkpt lat="44.4928445" lon="10.8620034"><ele>204.8</ele><time>2026-04-18T07:23:26.964Z</time></trkpt><trkpt lat="44.4927527" lon="10.8619378"><ele>204.20000000000002</ele><time>2026-04-18T07:23:27.965Z</time></trkpt><trkpt lat="44.4926666" lon="10.8618649"><ele>203.60000000000002</ele><time>2026-04-18T07:23:28.964Z</time></trkpt><trkpt lat="44.4925828" lon="10.8617882"><ele>203.0</ele><time>2026-04-18T07:23:29.964Z</time></trkpt><trkpt lat="44.4924978" lon="10.8617283"><ele>203.0</ele><time>2026-04-18T07:23:30.964Z</time></trkpt><trkpt lat="44.4924107" lon="10.8616992"><ele>203.0</ele><time>2026-04-18T07:23:31.964Z</time></trkpt><trkpt lat="44.4923139" lon="10.8617038"><ele>203.0</ele><time>2026-04-18T07:23:32.965Z</time></trkpt><trkpt lat="44.4922152" lon="10.8617405"><ele>203.0</ele><time>2026-04-18T07:23:33.964Z</time></trkpt><trkpt lat="44.4921186" lon="10.8618108"><ele>203.0</ele><time>2026-04-18T07:23:34.964Z</time></trkpt><trkpt lat="44.4920288" lon="10.8618775"><ele>202.8</ele><time>2026-04-18T07:23:35.964Z</time></trkpt><trkpt lat="44.4919388" lon="10.8619413"><ele>202.60000000000002</ele><time>2026-04-18T07:23:36.965Z</time></trkpt><trkpt lat="44.4918453" lon="10.8620082"><ele>202.39999999999998</ele><time>2026-04-18T07:23:37.965Z</time></trkpt><trkpt lat="44.4917649" lon="10.8620856"><ele>202.2</ele><time>2026-04-18T07:23:38.965Z</time></trkpt><trkpt lat="44.4916919" lon="10.8621785"><ele>202.0</ele><time>2026-04-18T07:23:39.964Z</time></trkpt><trkpt lat="44.4916329" lon="10.8622984"><ele>202.0</ele><time>2026-04-18T07:23:40.964Z</time></trkpt><trkpt lat="44.491594" lon="10.862441"><ele>202.0</ele><time>2026-04-18T07:23:41.965Z</time></trkpt><trkpt lat="44.4915614" lon="10.8625887"><ele>202.0</ele><time>2026-04-18T07:23:42.964Z</time></trkpt><trkpt lat="44.4915286" lon="10.8627356"><ele>202.0</ele><time>2026-04-18T07:23:43.964Z</time></trkpt><trkpt lat="44.4914951" lon="10.8628713"><ele>202.0</ele><time>2026-04-18T07:23:44.964Z</time></trkpt><trkpt lat="44.4914718" lon="10.8629895"><ele>199.99999999999997</ele><time>2026-04-18T07:23:45.964Z</time></trkpt><trkpt lat="44.4914536" lon="10.8630947"><ele>198.0</ele><time>2026-04-18T07:23:46.964Z</time></trkpt><trkpt lat="44.4914363" lon="10.8631796"><ele>196.0</ele><time>2026-04-18T07:23:47.964Z</time></trkpt><trkpt lat="44.4914038" lon="10.8633124"><ele>194.0</ele><time>2026-04-18T07:23:49.964Z</time></trkpt><trkpt lat="44.4913685" lon="10.8633995"><ele>192.0</ele><time>2026-04-18T07:23:58.964Z</time></trkpt><trkpt lat="44.4913104" lon="10.8634579"><ele>190.0</ele><time>2026-04-18T07:24:04.964Z</time></trkpt><trkpt lat="44.4911817" lon="10.8633769"><ele>190.0</ele><time>2026-04-18T07:24:06.964Z</time></trkpt><trkpt lat="44.4910593" lon="10.8632857"><ele>190.0</ele><time>2026-04-18T07:24:07.965Z</time></trkpt><trkpt lat="44.4908959" lon="10.8631678"><ele>190.0</ele><time>2026-04-18T07:24:08.965Z</time></trkpt><trkpt lat="44.4907124" lon="10.8630245"><ele>190.0</ele><time>2026-04-18T07:24:09.965Z</time></trkpt><trkpt lat="44.4905274" lon="10.8628746"><ele>190.0</ele><time>2026-04-18T07:24:10.965Z</time></trkpt><trkpt lat="44.4903395" lon="10.8627189"><ele>190.0</ele><time>2026-04-18T07:24:11.965Z</time></trkpt><trkpt lat="44.4901654" lon="10.862573"><ele>189.66666666666669</ele><time>2026-04-18T07:24:12.964Z</time></trkpt><trkpt lat="44.4900064" lon="10.8624396"><ele>189.33333333333334</ele><time>2026-04-18T07:24:13.965Z</time></trkpt><trkpt lat="44.4898611" lon="10.8623218"><ele>189.0</ele><time>2026-04-18T07:24:14.964Z</time></trkpt><trkpt lat="44.4897277" lon="10.8622094"><ele>189.0</ele><time>2026-04-18T07:24:15.964Z</time></trkpt><trkpt lat="44.4896006" lon="10.8621048"><ele>189.0</ele><time>2026-04-18T07:24:16.965Z</time></trkpt><trkpt lat="44.4894774" lon="10.8620036"><ele>189.0</ele><time>2026-04-18T07:24:17.965Z</time></trkpt><trkpt lat="44.4893563" lon="10.8619046"><ele>189.0</ele><time>2026-04-18T07:24:18.964Z</time></trkpt><trkpt lat="44.4892366" lon="10.8618067"><ele>189.0</ele><time>2026-04-18T07:24:19.964Z</time></trkpt><trkpt lat="44.4891174" lon="10.8617095"><ele>189.0</ele><time>2026-04-18T07:24:20.965Z</time></trkpt><trkpt lat="44.4889974" lon="10.8616079"><ele>189.0</ele><time>2026-04-18T07:24:21.964Z</time></trkpt><trkpt lat="44.4888745" lon="10.8615082"><ele>189.0</ele><time>2026-04-18T07:24:22.965Z</time></trkpt><trkpt lat="44.488753" lon="10.861408"><ele>189.5</ele><time>2026-04-18T07:24:23.965Z</time></trkpt><trkpt lat="44.4886295" lon="10.8613081"><ele>190.0</ele><time>2026-04-18T07:24:24.965Z</time></trkpt><trkpt lat="44.488505" lon="10.8612056"><ele>190.5</ele><time>2026-04-18T07:24:25.964Z</time></trkpt><trkpt lat="44.4883891" lon="10.8611098"><ele>191.0</ele><time>2026-04-18T07:24:26.965Z</time></trkpt><trkpt lat="44.4882755" lon="10.8610154"><ele>191.5</ele><time>2026-04-18T07:24:27.965Z</time></trkpt><trkpt lat="44.4881622" lon="10.8609209"><ele>192.0</ele><time>2026-04-18T07:24:28.965Z</time></trkpt><trkpt lat="44.4880478" lon="10.860822"><ele>192.5</ele><time>2026-04-18T07:24:29.964Z</time></trkpt><trkpt lat="44.4879319" lon="10.8607271"><ele>193.0</ele><time>2026-04-18T07:24:30.964Z</time></trkpt><trkpt lat="44.4878141" lon="10.860626"><ele>193.0</ele><time>2026-04-18T07:24:31.965Z</time></trkpt><trkpt lat="44.4876961" lon="10.8605265"><ele>193.0</ele><time>2026-04-18T07:24:32.964Z</time></trkpt><trkpt lat="44.4875747" lon="10.8604274"><ele>193.0</ele><time>2026-04-18T07:24:33.965Z</time></trkpt><trkpt lat="44.4874525" lon="10.8603268"><ele>193.0</ele><time>2026-04-18T07:24:34.964Z</time></trkpt><trkpt lat="44.4873276" lon="10.8602249"><ele>193.0</ele><time>2026-04-18T07:24:35.964Z</time></trkpt><trkpt lat="44.4872051" lon="10.8601201"><ele>193.0</ele><time>2026-04-18T07:24:36.964Z</time></trkpt><trkpt lat="44.4870828" lon="10.8600158"><ele>193.0</ele><time>2026-04-18T07:24:37.965Z</time></trkpt><trkpt lat="44.4869574" lon="10.8599159"><ele>193.0</ele><time>2026-04-18T07:24:38.964Z</time></trkpt><trkpt lat="44.4868356" lon="10.8598136"><ele>194.25</ele><time>2026-04-18T07:24:39.964Z</time></trkpt><trkpt lat="44.4867217" lon="10.8597017"><ele>195.5</ele><time>2026-04-18T07:24:40.964Z</time></trkpt><trkpt lat="44.4866114" lon="10.8595788"><ele>196.75</ele><time>2026-04-18T07:24:41.964Z</time></trkpt><trkpt lat="44.4865073" lon="10.8594424"><ele>198.0</ele><time>2026-04-18T07:24:42.964Z</time></trkpt><trkpt lat="44.4864129" lon="10.8592983"><ele>198.5</ele><time>2026-04-18T07:24:43.964Z</time></trkpt><trkpt lat="44.4863246" lon="10.8591462"><ele>199.0</ele><time>2026-04-18T07:24:44.964Z</time></trkpt><trkpt lat="44.4862346" lon="10.8589865"><ele>199.5</ele><time>2026-04-18T07:24:45.965Z</time></trkpt><trkpt lat="44.4861438" lon="10.8588237"><ele>200.0</ele><time>2026-04-18T07:24:46.964Z</time></trkpt><trkpt lat="44.486057" lon="10.8586609"><ele>200.0</ele><time>2026-04-18T07:24:47.965Z</time></trkpt><trkpt lat="44.4859682" lon="10.8584994"><ele>200.0</ele><time>2026-04-18T07:24:48.964Z</time></trkpt><trkpt lat="44.4858766" lon="10.8583354"><ele>200.0</ele><time>2026-04-18T07:24:49.965Z</time></trkpt><trkpt lat="44.4857854" lon="10.8581684"><ele>200.0</ele><time>2026-04-18T07:24:50.965Z</time></trkpt><trkpt lat="44.485695" lon="10.8580025"><ele>201.0</ele><time>2026-04-18T07:24:51.965Z</time></trkpt><trkpt lat="44.4856052" lon="10.8578327"><ele>202.0</ele><time>2026-04-18T07:24:52.964Z</time></trkpt><trkpt lat="44.4855124" lon="10.8576667"><ele>203.0</ele><time>2026-04-18T07:24:53.965Z</time></trkpt><trkpt lat="44.4854199" lon="10.8575005"><ele>203.0</ele><time>2026-04-18T07:24:54.965Z</time></trkpt><trkpt lat="44.4853264" lon="10.8573343"><ele>203.0</ele><time>2026-04-18T07:24:55.964Z</time></trkpt><trkpt lat="44.4852298" lon="10.857168"><ele>203.0</ele><time>2026-04-18T07:24:56.964Z</time></trkpt><trkpt lat="44.4851282" lon="10.8570151"><ele>203.0</ele><time>2026-04-18T07:24:57.965Z</time></trkpt><trkpt lat="44.4850166" lon="10.8568714"><ele>203.0</ele><time>2026-04-18T07:24:58.965Z</time></trkpt><trkpt lat="44.484897" lon="10.8567369"><ele>203.0</ele><time>2026-04-18T07:24:59.965Z</time></trkpt><trkpt lat="44.484768" lon="10.8566119"><ele>203.66666666666669</ele><time>2026-04-18T07:25:00.964Z</time></trkpt><trkpt lat="44.4846328" lon="10.856503"><ele>204.33333333333331</ele><time>2026-04-18T07:25:01.965Z</time></trkpt><trkpt lat="44.4844917" lon="10.8564091"><ele>205.0</ele><time>2026-04-18T07:25:02.964Z</time></trkpt><trkpt lat="44.4843454" lon="10.8563333"><ele>205.0</ele><time>2026-04-18T07:25:03.965Z</time></trkpt><trkpt lat="44.4841963" lon="10.8562681"><ele>205.0</ele><time>2026-04-18T07:25:04.964Z</time></trkpt><trkpt lat="44.484042" lon="10.856211"><ele>205.0</ele><time>2026-04-18T07:25:05.964Z</time></trkpt><trkpt lat="44.4838856" lon="10.8561589"><ele>205.33333333333331</ele><time>2026-04-18T07:25:06.964Z</time></trkpt><trkpt lat="44.4837301" lon="10.8561082"><ele>205.66666666666669</ele><time>2026-04-18T07:25:07.964Z</time></trkpt><trkpt lat="44.4835747" lon="10.856057"><ele>206.0</ele><time>2026-04-18T07:25:08.964Z</time></trkpt><trkpt lat="44.4834184" lon="10.8560069"><ele>206.0</ele><time>2026-04-18T07:25:09.964Z</time></trkpt><trkpt lat="44.4832591" lon="10.8559567"><ele>206.0</ele><time>2026-04-18T07:25:10.964Z</time></trkpt><trkpt lat="44.4831018" lon="10.8559077"><ele>206.0</ele><time>2026-04-18T07:25:11.964Z</time></trkpt><trkpt lat="44.4829436" lon="10.8558561"><ele>206.66666666666669</ele><time>2026-04-18T07:25:12.964Z</time></trkpt><trkpt lat="44.4827853" lon="10.8558028"><ele>207.33333333333331</ele><time>2026-04-18T07:25:13.965Z</time></trkpt><trkpt lat="44.4826277" lon="10.8557486"><ele>208.0</ele><time>2026-04-18T07:25:14.965Z</time></trkpt><trkpt lat="44.4824696" lon="10.8556954"><ele>208.0</ele><time>2026-04-18T07:25:15.964Z</time></trkpt><trkpt lat="44.4823096" lon="10.8556426"><ele>208.0</ele><time>2026-04-18T07:25:16.965Z</time></trkpt><trkpt lat="44.4821505" lon="10.8555892"><ele>208.0</ele><time>2026-04-18T07:25:17.964Z</time></trkpt><trkpt lat="44.481991" lon="10.8555296"><ele>208.0</ele><time>2026-04-18T07:25:18.964Z</time></trkpt><trkpt lat="44.4818334" lon="10.8554559"><ele>208.0</ele><time>2026-04-18T07:25:19.964Z</time></trkpt><trkpt lat="44.4816782" lon="10.8553721"><ele>208.0</ele><time>2026-04-18T07:25:20.965Z</time></trkpt><trkpt lat="44.4815268" lon="10.8552764"><ele>208.0</ele><time>2026-04-18T07:25:21.964Z</time></trkpt><trkpt lat="44.4813771" lon="10.8551684"><ele>208.0</ele><time>2026-04-18T07:25:22.964Z</time></trkpt><trkpt lat="44.4812316" lon="10.8550465"><ele>208.0</ele><time>2026-04-18T07:25:23.964Z</time></trkpt><trkpt lat="44.4810909" lon="10.854917"><ele>209.0</ele><time>2026-04-18T07:25:24.965Z</time></trkpt><trkpt lat="44.4809533" lon="10.8547759"><ele>210.0</ele><time>2026-04-18T07:25:25.964Z</time></trkpt><trkpt lat="44.4808193" lon="10.8546261"><ele>211.0</ele><time>2026-04-18T07:25:26.964Z</time></trkpt><trkpt lat="44.4806915" lon="10.8544659"><ele>211.0</ele><time>2026-04-18T07:25:27.964Z</time></trkpt><trkpt lat="44.4805699" lon="10.8543003"><ele>211.0</ele><time>2026-04-18T07:25:28.965Z</time></trkpt><trkpt lat="44.4804481" lon="10.8541319"><ele>211.0</ele><time>2026-04-18T07:25:29.964Z</time></trkpt><trkpt lat="44.48033" lon="10.8539633"><ele>212.33333333333331</ele><time>2026-04-18T07:25:30.965Z</time></trkpt><trkpt lat="44.4802086" lon="10.8537958"><ele>213.66666666666669</ele><time>2026-04-18T07:25:31.965Z</time></trkpt><trkpt lat="44.4800882" lon="10.8536283"><ele>215.0</ele><time>2026-04-18T07:25:32.964Z</time></trkpt><trkpt lat="44.4799687" lon="10.85346"><ele>217.0</ele><time>2026-04-18T07:25:33.964Z</time></trkpt><trkpt lat="44.4798507" lon="10.8532901"><ele>219.0</ele><time>2026-04-18T07:25:34.964Z</time></trkpt><trkpt lat="44.4797319" lon="10.85312"><ele>221.0</ele><time>2026-04-18T07:25:35.965Z</time></trkpt><trkpt lat="44.4796105" lon="10.8529512"><ele>220.66666666666669</ele><time>2026-04-18T07:25:36.965Z</time></trkpt><trkpt lat="44.4794912" lon="10.8527824"><ele>220.33333333333331</ele><time>2026-04-18T07:25:37.965Z</time></trkpt><trkpt lat="44.4793698" lon="10.8526131"><ele>220.0</ele><time>2026-04-18T07:25:38.964Z</time></trkpt><trkpt lat="44.4792508" lon="10.8524456"><ele>220.0</ele><time>2026-04-18T07:25:39.964Z</time></trkpt><trkpt lat="44.4791326" lon="10.852274"><ele>220.0</ele><time>2026-04-18T07:25:40.964Z</time></trkpt><trkpt lat="44.4790131" lon="10.852105"><ele>220.0</ele><time>2026-04-18T07:25:41.964Z</time></trkpt><trkpt lat="44.478893" lon="10.8519346"><ele>221.0</ele><time>2026-04-18T07:25:42.965Z</time></trkpt><trkpt lat="44.4787726" lon="10.8517669"><ele>222.0</ele><time>2026-04-18T07:25:43.965Z</time></trkpt><trkpt lat="44.4786505" lon="10.8516037"><ele>223.0</ele><time>2026-04-18T07:25:44.964Z</time></trkpt><trkpt lat="44.478531" lon="10.8514406"><ele>223.0</ele><time>2026-04-18T07:25:45.965Z</time></trkpt><trkpt lat="44.4784053" lon="10.8512823"><ele>223.0</ele><time>2026-04-18T07:25:46.965Z</time></trkpt><trkpt lat="44.4782747" lon="10.851139"><ele>223.0</ele><time>2026-04-18T07:25:47.965Z</time></trkpt><trkpt lat="44.478136" lon="10.8510095"><ele>225.0</ele><time>2026-04-18T07:25:48.965Z</time></trkpt><trkpt lat="44.477988" lon="10.8508918"><ele>227.0</ele><time>2026-04-18T07:25:49.965Z</time></trkpt><trkpt lat="44.4778375" lon="10.850779"><ele>229.0</ele><time>2026-04-18T07:25:50.964Z</time></trkpt><trkpt lat="44.4776862" lon="10.85067"><ele>229.0</ele><time>2026-04-18T07:25:51.964Z</time></trkpt><trkpt lat="44.4775375" lon="10.8505563"><ele>229.0</ele><time>2026-04-18T07:25:52.964Z</time></trkpt><trkpt lat="44.4773906" lon="10.8504419"><ele>229.0</ele><time>2026-04-18T07:25:53.965Z</time></trkpt><trkpt lat="44.4772421" lon="10.8503243"><ele>229.33333333333331</ele><time>2026-04-18T07:25:54.964Z</time></trkpt><trkpt lat="44.4770933" lon="10.8502105"><ele>229.66666666666669</ele><time>2026-04-18T07:25:55.965Z</time></trkpt><trkpt lat="44.4769434" lon="10.8500963"><ele>230.0</ele><time>2026-04-18T07:25:56.964Z</time></trkpt><trkpt lat="44.4767926" lon="10.8499828"><ele>230.0</ele><time>2026-04-18T07:25:57.964Z</time></trkpt><trkpt lat="44.4766454" lon="10.8498689"><ele>230.0</ele><time>2026-04-18T07:25:58.965Z</time></trkpt><trkpt lat="44.4764952" lon="10.8497512"><ele>230.0</ele><time>2026-04-18T07:25:59.965Z</time></trkpt><trkpt lat="44.4763493" lon="10.8496391"><ele>230.0</ele><time>2026-04-18T07:26:00.964Z</time></trkpt><trkpt lat="44.4762027" lon="10.8495259"><ele>230.0</ele><time>2026-04-18T07:26:01.964Z</time></trkpt><trkpt lat="44.4760582" lon="10.8494191"><ele>230.0</ele><time>2026-04-18T07:26:02.965Z</time></trkpt><trkpt lat="44.4759151" lon="10.8493093"><ele>232.0</ele><time>2026-04-18T07:26:03.965Z</time></trkpt><trkpt lat="44.4757706" lon="10.8491972"><ele>234.0</ele><time>2026-04-18T07:26:04.965Z</time></trkpt><trkpt lat="44.4756265" lon="10.8490903"><ele>236.0</ele><time>2026-04-18T07:26:05.964Z</time></trkpt><trkpt lat="44.4754808" lon="10.8489789"><ele>234.33333333333334</ele><time>2026-04-18T07:26:06.965Z</time></trkpt><trkpt lat="44.4753323" lon="10.8488695"><ele>232.66666666666669</ele><time>2026-04-18T07:26:07.965Z</time></trkpt><trkpt lat="44.4751862" lon="10.848756"><ele>231.0</ele><time>2026-04-18T07:26:08.964Z</time></trkpt><trkpt lat="44.4750354" lon="10.848642"><ele>231.0</ele><time>2026-04-18T07:26:09.964Z</time></trkpt><trkpt lat="44.4748869" lon="10.8485254"><ele>231.0</ele><time>2026-04-18T07:26:10.965Z</time></trkpt><trkpt lat="44.4747398" lon="10.8484104"><ele>231.0</ele><time>2026-04-18T07:26:11.964Z</time></trkpt><trkpt lat="44.474589" lon="10.8482942"><ele>230.66666666666669</ele><time>2026-04-18T07:26:12.965Z</time></trkpt><trkpt lat="44.4744356" lon="10.848182"><ele>230.33333333333334</ele><time>2026-04-18T07:26:13.965Z</time></trkpt><trkpt lat="44.474284" lon="10.8480652"><ele>230.0</ele><time>2026-04-18T07:26:14.964Z</time></trkpt><trkpt lat="44.4741318" lon="10.8479492"><ele>230.0</ele><time>2026-04-18T07:26:15.964Z</time></trkpt><trkpt lat="44.47398" lon="10.8478337"><ele>230.0</ele><time>2026-04-18T07:26:16.965Z</time></trkpt><trkpt lat="44.4738278" lon="10.8477236"><ele>230.0</ele><time>2026-04-18T07:26:17.965Z</time></trkpt><trkpt lat="44.4736773" lon="10.8476098"><ele>232.66666666666669</ele><time>2026-04-18T07:26:18.964Z</time></trkpt><trkpt lat="44.4735294" lon="10.8474935"><ele>235.33333333333331</ele><time>2026-04-18T07:26:19.964Z</time></trkpt><trkpt lat="44.4733831" lon="10.8473789"><ele>238.0</ele><time>2026-04-18T07:26:20.964Z</time></trkpt><trkpt lat="44.4732311" lon="10.8472641"><ele>238.0</ele><time>2026-04-18T07:26:21.964Z</time></trkpt><trkpt lat="44.4730825" lon="10.8471461"><ele>238.0</ele><time>2026-04-18T07:26:22.964Z</time></trkpt><trkpt lat="44.4729386" lon="10.8470239"><ele>238.0</ele><time>2026-04-18T07:26:23.964Z</time></trkpt><trkpt lat="44.4727993" lon="10.8468852"><ele>238.66666666666666</ele><time>2026-04-18T07:26:24.965Z</time></trkpt><trkpt lat="44.472668" lon="10.8467351"><ele>239.33333333333331</ele><time>2026-04-18T07:26:25.965Z</time></trkpt><trkpt lat="44.4725418" lon="10.8465737"><ele>240.0</ele><time>2026-04-18T07:26:26.964Z</time></trkpt><trkpt lat="44.4724163" lon="10.8464086"><ele>240.0</ele><time>2026-04-18T07:26:27.964Z</time></trkpt><trkpt lat="44.4722904" lon="10.8462447"><ele>240.0</ele><time>2026-04-18T07:26:28.965Z</time></trkpt><trkpt lat="44.4721678" lon="10.8460758"><ele>240.0</ele><time>2026-04-18T07:26:29.965Z</time></trkpt><trkpt lat="44.4720438" lon="10.8459124"><ele>238.33333333333331</ele><time>2026-04-18T07:26:30.965Z</time></trkpt><trkpt lat="44.4719217" lon="10.8457518"><ele>236.66666666666666</ele><time>2026-04-18T07:26:31.965Z</time></trkpt><trkpt lat="44.4718012" lon="10.8455912"><ele>235.0</ele><time>2026-04-18T07:26:32.965Z</time></trkpt><trkpt lat="44.4716786" lon="10.8454316"><ele>235.0</ele><time>2026-04-18T07:26:33.964Z</time></trkpt><trkpt lat="44.4715561" lon="10.8452697"><ele>235.0</ele><time>2026-04-18T07:26:34.964Z</time></trkpt><trkpt lat="44.4714335" lon="10.8451048"><ele>235.0</ele><time>2026-04-18T07:26:35.964Z</time></trkpt><trkpt lat="44.4713107" lon="10.8449438"><ele>236.33333333333331</ele><time>2026-04-18T07:26:36.964Z</time></trkpt><trkpt lat="44.4711881" lon="10.8447814"><ele>237.66666666666669</ele><time>2026-04-18T07:26:37.964Z</time></trkpt><trkpt lat="44.4710671" lon="10.8446198"><ele>239.0</ele><time>2026-04-18T07:26:38.964Z</time></trkpt><trkpt lat="44.4709461" lon="10.8444597"><ele>239.0</ele><time>2026-04-18T07:26:39.964Z</time></trkpt><trkpt lat="44.4708246" lon="10.8442999"><ele>239.0</ele><time>2026-04-18T07:26:40.964Z</time></trkpt><trkpt lat="44.4706997" lon="10.8441392"><ele>239.0</ele><time>2026-04-18T07:26:41.965Z</time></trkpt><trkpt lat="44.4705768" lon="10.8439798"><ele>240.0</ele><time>2026-04-18T07:26:42.964Z</time></trkpt><trkpt lat="44.4704541" lon="10.8438191"><ele>241.0</ele><time>2026-04-18T07:26:43.964Z</time></trkpt><trkpt lat="44.4703319" lon="10.8436555"><ele>242.0</ele><time>2026-04-18T07:26:44.965Z</time></trkpt><trkpt lat="44.4702085" lon="10.8434959"><ele>243.0</ele><time>2026-04-18T07:26:45.964Z</time></trkpt><trkpt lat="44.4700867" lon="10.8433348"><ele>244.0</ele><time>2026-04-18T07:26:46.964Z</time></trkpt><trkpt lat="44.4699647" lon="10.843172"><ele>245.0</ele><time>2026-04-18T07:26:47.965Z</time></trkpt><trkpt lat="44.4698393" lon="10.8430125"><ele>245.0</ele><time>2026-04-18T07:26:48.964Z</time></trkpt><trkpt lat="44.4697143" lon="10.8428534"><ele>245.0</ele><time>2026-04-18T07:26:49.965Z</time></trkpt><trkpt lat="44.4695936" lon="10.8426908"><ele>245.0</ele><time>2026-04-18T07:26:50.965Z</time></trkpt><trkpt lat="44.4694725" lon="10.8425278"><ele>244.66666666666669</ele><time>2026-04-18T07:26:51.964Z</time></trkpt><trkpt lat="44.4693497" lon="10.8423685"><ele>244.33333333333331</ele><time>2026-04-18T07:26:52.965Z</time></trkpt><trkpt lat="44.4692255" lon="10.8422044"><ele>244.0</ele><time>2026-04-18T07:26:53.964Z</time></trkpt><trkpt lat="44.4691002" lon="10.8420408"><ele>244.0</ele><time>2026-04-18T07:26:54.964Z</time></trkpt><trkpt lat="44.4689764" lon="10.8418729"><ele>244.0</ele><time>2026-04-18T07:26:55.965Z</time></trkpt><trkpt lat="44.4688546" lon="10.8416998"><ele>244.0</ele><time>2026-04-18T07:26:56.965Z</time></trkpt><trkpt lat="44.4687347" lon="10.8415269"><ele>244.33333333333331</ele><time>2026-04-18T07:26:57.965Z</time></trkpt><trkpt lat="44.468614" lon="10.8413529"><ele>244.66666666666669</ele><time>2026-04-18T07:26:58.964Z</time></trkpt><trkpt lat="44.4684948" lon="10.8411811"><ele>245.0</ele><time>2026-04-18T07:26:59.964Z</time></trkpt><trkpt lat="44.468376" lon="10.8410056"><ele>245.66666666666669</ele><time>2026-04-18T07:27:00.964Z</time></trkpt><trkpt lat="44.4682568" lon="10.8408323"><ele>246.33333333333331</ele><time>2026-04-18T07:27:01.964Z</time></trkpt><trkpt lat="44.4681371" lon="10.8406557"><ele>247.0</ele><time>2026-04-18T07:27:02.964Z</time></trkpt><trkpt lat="44.468016" lon="10.8404812"><ele>247.0</ele><time>2026-04-18T07:27:03.965Z</time></trkpt><trkpt lat="44.4678948" lon="10.8403067"><ele>247.0</ele><time>2026-04-18T07:27:04.965Z</time></trkpt><trkpt lat="44.4677745" lon="10.8401301"><ele>247.0</ele><time>2026-04-18T07:27:05.965Z</time></trkpt><trkpt lat="44.4676531" lon="10.8399546"><ele>247.33333333333331</ele><time>2026-04-18T07:27:06.964Z</time></trkpt><trkpt lat="44.4675336" lon="10.8397803"><ele>247.66666666666669</ele><time>2026-04-18T07:27:07.964Z</time></trkpt><trkpt lat="44.4674101" lon="10.839603"><ele>248.0</ele><time>2026-04-18T07:27:08.965Z</time></trkpt><trkpt lat="44.4672863" lon="10.8394282"><ele>248.0</ele><time>2026-04-18T07:27:09.965Z</time></trkpt><trkpt lat="44.4671571" lon="10.8392565"><ele>248.0</ele><time>2026-04-18T07:27:10.964Z</time></trkpt><trkpt lat="44.4670207" lon="10.8390975"><ele>248.0</ele><time>2026-04-18T07:27:11.965Z</time></trkpt><trkpt lat="44.4668791" lon="10.8389553"><ele>248.0</ele><time>2026-04-18T07:27:12.964Z</time></trkpt><trkpt lat="44.4667298" lon="10.8388236"><ele>248.0</ele><time>2026-04-18T07:27:13.964Z</time></trkpt><trkpt lat="44.4665783" lon="10.8387038"><ele>248.0</ele><time>2026-04-18T07:27:14.964Z</time></trkpt><trkpt lat="44.4664193" lon="10.8386017"><ele>248.66666666666669</ele><time>2026-04-18T07:27:15.965Z</time></trkpt><trkpt lat="44.4662567" lon="10.8385085"><ele>249.33333333333331</ele><time>2026-04-18T07:27:16.964Z</time></trkpt><trkpt lat="44.4660901" lon="10.8384263"><ele>250.0</ele><time>2026-04-18T07:27:17.964Z</time></trkpt><trkpt lat="44.4659271" lon="10.8383408"><ele>250.33333333333331</ele><time>2026-04-18T07:27:18.965Z</time></trkpt><trkpt lat="44.4657613" lon="10.8382556"><ele>250.66666666666669</ele><time>2026-04-18T07:27:19.965Z</time></trkpt><trkpt lat="44.465601" lon="10.8381743"><ele>251.0</ele><time>2026-04-18T07:27:20.964Z</time></trkpt><trkpt lat="44.4654429" lon="10.8380923"><ele>251.0</ele><time>2026-04-18T07:27:21.964Z</time></trkpt><trkpt lat="44.4652854" lon="10.8380136"><ele>251.0</ele><time>2026-04-18T07:27:22.964Z</time></trkpt><trkpt lat="44.4651269" lon="10.8379345"><ele>251.0</ele><time>2026-04-18T07:27:23.965Z</time></trkpt><trkpt lat="44.4649672" lon="10.8378559"><ele>251.0</ele><time>2026-04-18T07:27:24.965Z</time></trkpt><trkpt lat="44.4648077" lon="10.8377765"><ele>251.0</ele><time>2026-04-18T07:27:25.964Z</time></trkpt><trkpt lat="44.4646519" lon="10.8376998"><ele>251.0</ele><time>2026-04-18T07:27:26.965Z</time></trkpt><trkpt lat="44.4644952" lon="10.8376189"><ele>253.0</ele><time>2026-04-18T07:27:27.964Z</time></trkpt><trkpt lat="44.4643364" lon="10.837538"><ele>255.0</ele><time>2026-04-18T07:27:28.965Z</time></trkpt><trkpt lat="44.4641764" lon="10.8374549"><ele>257.0</ele><time>2026-04-18T07:27:29.965Z</time></trkpt><trkpt lat="44.4640129" lon="10.8373763"><ele>257.0</ele><time>2026-04-18T07:27:30.964Z</time></trkpt><trkpt lat="44.4638505" lon="10.8372973"><ele>257.0</ele><time>2026-04-18T07:27:31.964Z</time></trkpt><trkpt lat="44.4636917" lon="10.8372178"><ele>257.0</ele><time>2026-04-18T07:27:32.964Z</time></trkpt><trkpt lat="44.4635328" lon="10.837131"><ele>257.33333333333337</ele><time>2026-04-18T07:27:33.964Z</time></trkpt><trkpt lat="44.4633769" lon="10.8370286"><ele>257.6666666666667</ele><time>2026-04-18T07:27:34.964Z</time></trkpt><trkpt lat="44.463229" lon="10.8369089"><ele>258.0</ele><time>2026-04-18T07:27:35.965Z</time></trkpt><trkpt lat="44.4630845" lon="10.8367596"><ele>258.6666666666667</ele><time>2026-04-18T07:27:36.964Z</time></trkpt><trkpt lat="44.4629436" lon="10.8365767"><ele>259.33333333333337</ele><time>2026-04-18T07:27:37.964Z</time></trkpt><trkpt lat="44.4628103" lon="10.8363623"><ele>260.0</ele><time>2026-04-18T07:27:38.965Z</time></trkpt><trkpt lat="44.4626845" lon="10.8361323"><ele>260.6666666666667</ele><time>2026-04-18T07:27:39.964Z</time></trkpt><trkpt lat="44.4625586" lon="10.8358956"><ele>261.3333333333333</ele><time>2026-04-18T07:27:40.964Z</time></trkpt><trkpt lat="44.462437" lon="10.8356574"><ele>262.0</ele><time>2026-04-18T07:27:41.964Z</time></trkpt><trkpt lat="44.4623104" lon="10.8354239"><ele>262.0</ele><time>2026-04-18T07:27:42.964Z</time></trkpt><trkpt lat="44.4621856" lon="10.8351917"><ele>262.0</ele><time>2026-04-18T07:27:43.964Z</time></trkpt><trkpt lat="44.4620622" lon="10.8349608"><ele>262.0</ele><time>2026-04-18T07:27:44.964Z</time></trkpt><trkpt lat="44.46194" lon="10.8347316"><ele>262.0</ele><time>2026-04-18T07:27:45.964Z</time></trkpt><trkpt lat="44.461817" lon="10.8345008"><ele>262.0</ele><time>2026-04-18T07:27:46.964Z</time></trkpt><trkpt lat="44.4616947" lon="10.8342686"><ele>262.0</ele><time>2026-04-18T07:27:47.964Z</time></trkpt><trkpt lat="44.4615729" lon="10.8340393"><ele>262.3333333333333</ele><time>2026-04-18T07:27:48.965Z</time></trkpt><trkpt lat="44.4614499" lon="10.8338111"><ele>262.6666666666667</ele><time>2026-04-18T07:27:49.964Z</time></trkpt><trkpt lat="44.4613316" lon="10.8335868"><ele>263.0</ele><time>2026-04-18T07:27:50.964Z</time></trkpt><trkpt lat="44.4612135" lon="10.8333632"><ele>264.33333333333337</ele><time>2026-04-18T07:27:51.964Z</time></trkpt><trkpt lat="44.4611009" lon="10.8331568"><ele>265.6666666666667</ele><time>2026-04-18T07:27:52.964Z</time></trkpt><trkpt lat="44.4609871" lon="10.8329579"><ele>267.0</ele><time>2026-04-18T07:27:53.964Z</time></trkpt><trkpt lat="44.460868" lon="10.8327665"><ele>267.0</ele><time>2026-04-18T07:27:54.965Z</time></trkpt><trkpt lat="44.4607393" lon="10.832594"><ele>267.0</ele><time>2026-04-18T07:27:55.965Z</time></trkpt><trkpt lat="44.4605986" lon="10.8324391"><ele>267.0</ele><time>2026-04-18T07:27:56.965Z</time></trkpt><trkpt lat="44.4604541" lon="10.8323078"><ele>267.0</ele><time>2026-04-18T07:27:57.964Z</time></trkpt><trkpt lat="44.4603021" lon="10.8321937"><ele>267.0</ele><time>2026-04-18T07:27:58.965Z</time></trkpt><trkpt lat="44.4601415" lon="10.8321018"><ele>267.0</ele><time>2026-04-18T07:27:59.965Z</time></trkpt><trkpt lat="44.4599727" lon="10.8320335"><ele>267.0</ele><time>2026-04-18T07:28:00.964Z</time></trkpt><trkpt lat="44.459796" lon="10.8319868"><ele>267.0</ele><time>2026-04-18T07:28:01.964Z</time></trkpt><trkpt lat="44.459616" lon="10.8319614"><ele>267.0</ele><time>2026-04-18T07:28:02.965Z</time></trkpt><trkpt lat="44.4594354" lon="10.8319556"><ele>268.3333333333333</ele><time>2026-04-18T07:28:03.965Z</time></trkpt><trkpt lat="44.4592518" lon="10.831955"><ele>269.66666666666663</ele><time>2026-04-18T07:28:04.965Z</time></trkpt><trkpt lat="44.4590736" lon="10.8319532"><ele>271.0</ele><time>2026-04-18T07:28:05.964Z</time></trkpt><trkpt lat="44.4588979" lon="10.8319643"><ele>273.0</ele><time>2026-04-18T07:28:06.964Z</time></trkpt><trkpt lat="44.4587223" lon="10.8319827"><ele>275.0</ele><time>2026-04-18T07:28:07.964Z</time></trkpt><trkpt lat="44.4585529" lon="10.8320142"><ele>277.0</ele><time>2026-04-18T07:28:08.964Z</time></trkpt><trkpt lat="44.4583871" lon="10.8320626"><ele>277.0</ele><time>2026-04-18T07:28:09.965Z</time></trkpt><trkpt lat="44.4582297" lon="10.8321253"><ele>277.0</ele><time>2026-04-18T07:28:10.965Z</time></trkpt><trkpt lat="44.4580834" lon="10.8321904"><ele>277.0</ele><time>2026-04-18T07:28:11.964Z</time></trkpt><trkpt lat="44.4579509" lon="10.8322611"><ele>277.75</ele><time>2026-04-18T07:28:12.964Z</time></trkpt><trkpt lat="44.4578308" lon="10.8323366"><ele>278.5</ele><time>2026-04-18T07:28:13.965Z</time></trkpt><trkpt lat="44.4577204" lon="10.8324095"><ele>279.25</ele><time>2026-04-18T07:28:14.965Z</time></trkpt><trkpt lat="44.4576169" lon="10.8324693"><ele>280.0</ele><time>2026-04-18T07:28:15.964Z</time></trkpt><trkpt lat="44.4575307" lon="10.8325182"><ele>280.0</ele><time>2026-04-18T07:28:16.964Z</time></trkpt><trkpt lat="44.457465" lon="10.8325574"><ele>280.0</ele><time>2026-04-18T07:28:17.965Z</time></trkpt><trkpt lat="44.4573674" lon="10.8325722"><ele>280.0</ele><time>2026-04-18T07:28:19.964Z</time></trkpt><trkpt lat="44.4572854" lon="10.8325143"><ele>280.0</ele><time>2026-04-18T07:28:21.965Z</time></trkpt><trkpt lat="44.4571835" lon="10.832438"><ele>280.0</ele><time>2026-04-18T07:28:23.964Z</time></trkpt><trkpt lat="44.4570944" lon="10.8323665"><ele>281.5</ele><time>2026-04-18T07:28:25.964Z</time></trkpt><trkpt lat="44.4570324" lon="10.8323478"><ele>283.0</ele><time>2026-04-18T07:30:13.964Z</time></trkpt><trkpt lat="44.4569566" lon="10.8323587"><ele>284.5</ele><time>2026-04-18T07:30:15.965Z</time></trkpt><trkpt lat="44.4568496" lon="10.8324068"><ele>286.0</ele><time>2026-04-18T07:30:17.964Z</time></trkpt><trkpt lat="44.4567514" lon="10.8324549"><ele>287.5</ele><time>2026-04-18T07:30:19.965Z</time></trkpt><trkpt lat="44.4566616" lon="10.8324871"><ele>289.0</ele><time>2026-04-18T07:30:21.965Z</time></trkpt><trkpt lat="44.4565706" lon="10.8325625"><ele>289.0</ele><time>2026-04-18T07:30:23.965Z</time></trkpt><trkpt lat="44.4564831" lon="10.8326275"><ele>289.0</ele><time>2026-04-18T07:30:25.965Z</time></trkpt><trkpt lat="44.4564085" lon="10.832727"><ele>289.0</ele><time>2026-04-18T07:30:27.964Z</time></trkpt><trkpt lat="44.4563054" lon="10.8328111"><ele>289.0</ele><time>2026-04-18T07:30:29.965Z</time></trkpt><trkpt lat="44.4561867" lon="10.8328276"><ele>289.0</ele><time>2026-04-18T07:30:31.965Z</time></trkpt><trkpt lat="44.4561173" lon="10.8328316"><ele>288.59999999999997</ele><time>2026-04-18T07:30:32.965Z</time></trkpt><trkpt lat="44.4560506" lon="10.8328257"><ele>288.2</ele><time>2026-04-18T07:30:33.965Z</time></trkpt><trkpt lat="44.4559493" lon="10.8328203"><ele>287.79999999999995</ele><time>2026-04-18T07:30:35.964Z</time></trkpt><trkpt lat="44.4558646" lon="10.8329184"><ele>287.4</ele><time>2026-04-18T07:30:37.965Z</time></trkpt><trkpt lat="44.45575" lon="10.8330052"><ele>287.0</ele><time>2026-04-18T07:30:39.965Z</time></trkpt><trkpt lat="44.4556838" lon="10.8330579"><ele>287.0</ele><time>2026-04-18T07:30:40.964Z</time></trkpt><trkpt lat="44.4556144" lon="10.8331114"><ele>287.0</ele><time>2026-04-18T07:30:41.965Z</time></trkpt><trkpt lat="44.4555397" lon="10.8331589"><ele>287.0</ele><time>2026-04-18T07:30:42.964Z</time></trkpt><trkpt lat="44.4554824" lon="10.8332004"><ele>287.0</ele><time>2026-04-18T07:30:43.965Z</time></trkpt><trkpt lat="44.4554226" lon="10.8332381"><ele>287.0</ele><time>2026-04-18T07:30:44.965Z</time></trkpt><trkpt lat="44.455355" lon="10.8332693"><ele>287.0</ele><time>2026-04-18T07:30:45.964Z</time></trkpt><trkpt lat="44.4552862" lon="10.8332943"><ele>287.0</ele><time>2026-04-18T07:30:46.964Z</time></trkpt><trkpt lat="44.455223" lon="10.8333083"><ele>287.0</ele><time>2026-04-18T07:30:47.965Z</time></trkpt><trkpt lat="44.4551544" lon="10.8333295"><ele>287.0</ele><time>2026-04-18T07:30:48.965Z</time></trkpt><trkpt lat="44.4550448" lon="10.8334073"><ele>287.0</ele><time>2026-04-18T07:30:50.964Z</time></trkpt><trkpt lat="44.4549565" lon="10.8335034"><ele>287.0</ele><time>2026-04-18T07:30:52.964Z</time></trkpt><trkpt lat="44.4548936" lon="10.833567"><ele>287.0</ele><time>2026-04-18T07:30:54.964Z</time></trkpt><trkpt lat="44.4547931" lon="10.8336018"><ele>287.0</ele><time>2026-04-18T07:30:56.964Z</time></trkpt><trkpt lat="44.4546659" lon="10.8336045"><ele>287.0</ele><time>2026-04-18T07:30:58.964Z</time></trkpt><trkpt lat="44.4545967" lon="10.8336006"><ele>287.0</ele><time>2026-04-18T07:30:59.964Z</time></trkpt><trkpt lat="44.4545316" lon="10.8335773"><ele>287.0</ele><time>2026-04-18T07:31:00.964Z</time></trkpt><trkpt lat="44.4544354" lon="10.8335617"><ele>287.0</ele><time>2026-04-18T07:31:02.964Z</time></trkpt><trkpt lat="44.4543498" lon="10.8335772"><ele>287.0</ele><time>2026-04-18T07:31:04.965Z</time></trkpt><trkpt lat="44.4542384" lon="10.8335736"><ele>288.0</ele><time>2026-04-18T07:31:06.964Z</time></trkpt><trkpt lat="44.454124" lon="10.8336134"><ele>289.0</ele><time>2026-04-18T07:31:08.965Z</time></trkpt><trkpt lat="44.4540302" lon="10.8336825"><ele>290.0</ele><time>2026-04-18T07:31:10.964Z</time></trkpt><trkpt lat="44.4539052" lon="10.8337424"><ele>291.0</ele><time>2026-04-18T07:31:12.965Z</time></trkpt><trkpt lat="44.4538357" lon="10.8337466"><ele>292.0</ele><time>2026-04-18T07:31:13.965Z</time></trkpt><trkpt lat="44.4537619" lon="10.8337353"><ele>293.0</ele><time>2026-04-18T07:31:14.964Z</time></trkpt><trkpt lat="44.4536842" lon="10.8337101"><ele>294.0</ele><time>2026-04-18T07:31:15.965Z</time></trkpt><trkpt lat="44.4536079" lon="10.833679"><ele>295.0</ele><time>2026-04-18T07:31:16.964Z</time></trkpt><trkpt lat="44.4535245" lon="10.833649"><ele>296.0</ele><time>2026-04-18T07:31:17.964Z</time></trkpt><trkpt lat="44.453437" lon="10.8336156"><ele>297.0</ele><time>2026-04-18T07:31:18.964Z</time></trkpt><trkpt lat="44.4533449" lon="10.8335967"><ele>298.0</ele><time>2026-04-18T07:31:19.965Z</time></trkpt><trkpt lat="44.4532549" lon="10.8335865"><ele>298.0</ele><time>2026-04-18T07:31:20.965Z</time></trkpt><trkpt lat="44.4531623" lon="10.8336002"><ele>298.0</ele><time>2026-04-18T07:31:21.964Z</time></trkpt><trkpt lat="44.453066" lon="10.8336134"><ele>298.0</ele><time>2026-04-18T07:31:22.964Z</time></trkpt><trkpt lat="44.4529763" lon="10.8336172"><ele>298.0</ele><time>2026-04-18T07:31:23.964Z</time></trkpt><trkpt lat="44.4528948" lon="10.8336227"><ele>298.0</ele><time>2026-04-18T07:31:24.964Z</time></trkpt><trkpt lat="44.4528254" lon="10.8336168"><ele>298.0</ele><time>2026-04-18T07:31:25.964Z</time></trkpt><trkpt lat="44.4527147" lon="10.8335638"><ele>298.7142857142857</ele><time>2026-04-18T07:31:27.964Z</time></trkpt><trkpt lat="44.4526395" lon="10.8335"><ele>299.4285714285714</ele><time>2026-04-18T07:31:29.964Z</time></trkpt><trkpt lat="44.4525793" lon="10.8335362"><ele>300.1428571428571</ele><time>2026-04-18T07:31:36.964Z</time></trkpt><trkpt lat="44.4525243" lon="10.833583"><ele>300.85714285714283</ele><time>2026-04-18T07:31:41.965Z</time></trkpt><trkpt lat="44.4524509" lon="10.8335915"><ele>301.57142857142856</ele><time>2026-04-18T07:31:47.964Z</time></trkpt><trkpt lat="44.4524386" lon="10.8337043"><ele>302.2857142857143</ele><time>2026-04-18T07:31:50.965Z</time></trkpt><trkpt lat="44.4524131" lon="10.8337943"><ele>303.0</ele><time>2026-04-18T07:31:52.965Z</time></trkpt><trkpt lat="44.4523544" lon="10.8338614"><ele>303.0</ele><time>2026-04-18T07:31:55.965Z</time></trkpt><trkpt lat="44.452286" lon="10.8339165"><ele>303.0</ele><time>2026-04-18T07:31:57.965Z</time></trkpt><trkpt lat="44.4521815" lon="10.8339876"><ele>303.0</ele><time>2026-04-18T07:31:59.965Z</time></trkpt><trkpt lat="44.4521124" lon="10.8340086"><ele>303.0</ele><time>2026-04-18T07:32:00.965Z</time></trkpt><trkpt lat="44.4520462" lon="10.8340207"><ele>303.0</ele><time>2026-04-18T07:32:01.964Z</time></trkpt><trkpt lat="44.451918" lon="10.8339973"><ele>304.6666666666667</ele><time>2026-04-18T07:32:03.964Z</time></trkpt><trkpt lat="44.4518557" lon="10.833963"><ele>306.3333333333333</ele><time>2026-04-18T07:32:04.965Z</time></trkpt><trkpt lat="44.4517813" lon="10.8339327"><ele>308.0</ele><time>2026-04-18T07:32:05.965Z</time></trkpt><trkpt lat="44.4517095" lon="10.8339074"><ele>309.66666666666663</ele><time>2026-04-18T07:32:06.965Z</time></trkpt><trkpt lat="44.4516328" lon="10.8338892"><ele>311.3333333333333</ele><time>2026-04-18T07:32:07.964Z</time></trkpt><trkpt lat="44.4515589" lon="10.8338776"><ele>313.0</ele><time>2026-04-18T07:32:08.964Z</time></trkpt><trkpt lat="44.4514796" lon="10.8338446"><ele>313.0</ele><time>2026-04-18T07:32:09.964Z</time></trkpt><trkpt lat="44.4514053" lon="10.8338054"><ele>313.0</ele><time>2026-04-18T07:32:10.964Z</time></trkpt><trkpt lat="44.4512767" lon="10.8337719"><ele>313.0</ele><time>2026-04-18T07:32:12.965Z</time></trkpt><trkpt lat="44.4511515" lon="10.8338051"><ele>313.0</ele><time>2026-04-18T07:32:14.965Z</time></trkpt><trkpt lat="44.4510885" lon="10.8338233"><ele>313.0</ele><time>2026-04-18T07:32:15.965Z</time></trkpt><trkpt lat="44.4510226" lon="10.8338489"><ele>313.6</ele><time>2026-04-18T07:32:16.965Z</time></trkpt><trkpt lat="44.4509004" lon="10.8338926"><ele>314.20000000000005</ele><time>2026-04-18T07:32:18.964Z</time></trkpt><trkpt lat="44.4507892" lon="10.8339118"><ele>314.8</ele><time>2026-04-18T07:32:20.964Z</time></trkpt><trkpt lat="44.450687" lon="10.8339478"><ele>315.40000000000003</ele><time>2026-04-18T07:32:22.964Z</time></trkpt><trkpt lat="44.4505853" lon="10.8339683"><ele>316.0</ele><time>2026-04-18T07:32:24.964Z</time></trkpt><trkpt lat="44.4504702" lon="10.8339867"><ele>317.3333333333333</ele><time>2026-04-18T07:32:26.965Z</time></trkpt><trkpt lat="44.4503725" lon="10.8340137"><ele>318.66666666666663</ele><time>2026-04-18T07:32:28.965Z</time></trkpt><trkpt lat="44.4502968" lon="10.8340385"><ele>320.0</ele><time>2026-04-18T07:32:30.964Z</time></trkpt><trkpt lat="44.4502085" lon="10.8340586"><ele>321.3333333333333</ele><time>2026-04-18T07:32:32.964Z</time></trkpt><trkpt lat="44.4500973" lon="10.8340754"><ele>322.6666666666667</ele><time>2026-04-18T07:32:34.964Z</time></trkpt><trkpt lat="44.4500337" lon="10.8340999"><ele>324.0</ele><time>2026-04-18T07:32:35.964Z</time></trkpt><trkpt lat="44.44997" lon="10.8341007"><ele>324.0</ele><time>2026-04-18T07:32:36.964Z</time></trkpt><trkpt lat="44.4498583" lon="10.83411"><ele>324.0</ele><time>2026-04-18T07:32:38.964Z</time></trkpt><trkpt lat="44.4497562" lon="10.8340836"><ele>324.0</ele><time>2026-04-18T07:32:40.965Z</time></trkpt><trkpt lat="44.4496525" lon="10.8340283"><ele>324.0</ele><time>2026-04-18T07:32:42.964Z</time></trkpt><trkpt lat="44.4495782" lon="10.8339982"><ele>324.0</ele><time>2026-04-18T07:32:43.965Z</time></trkpt><trkpt lat="44.4495111" lon="10.8339946"><ele>324.8333333333333</ele><time>2026-04-18T07:32:44.965Z</time></trkpt><trkpt lat="44.4494218" lon="10.8340132"><ele>325.6666666666667</ele><time>2026-04-18T07:32:46.964Z</time></trkpt><trkpt lat="44.4493667" lon="10.8340576"><ele>326.5</ele><time>2026-04-18T07:33:16.964Z</time></trkpt><trkpt lat="44.4493005" lon="10.834085"><ele>327.33333333333337</ele><time>2026-04-18T07:33:18.965Z</time></trkpt><trkpt lat="44.4491947" lon="10.834091"><ele>328.1666666666667</ele><time>2026-04-18T07:33:20.964Z</time></trkpt><trkpt lat="44.4490844" lon="10.8340734"><ele>329.0</ele><time>2026-04-18T07:33:22.964Z</time></trkpt><trkpt lat="44.4489898" lon="10.8340215"><ele>329.0</ele><time>2026-04-18T07:33:24.965Z</time></trkpt><trkpt lat="44.4488952" lon="10.8340312"><ele>329.0</ele><time>2026-04-18T07:33:26.964Z</time></trkpt><trkpt lat="44.4487954" lon="10.8340727"><ele>329.0</ele><time>2026-04-18T07:33:28.964Z</time></trkpt><trkpt lat="44.4486946" lon="10.8340776"><ele>329.0</ele><time>2026-04-18T07:33:30.964Z</time></trkpt><trkpt lat="44.4485877" lon="10.8339935"><ele>329.0</ele><time>2026-04-18T07:33:32.965Z</time></trkpt><trkpt lat="44.4485364" lon="10.8339275"><ele>329.1666666666667</ele><time>2026-04-18T07:33:33.965Z</time></trkpt><trkpt lat="44.4484825" lon="10.8338564"><ele>329.33333333333337</ele><time>2026-04-18T07:33:34.964Z</time></trkpt><trkpt lat="44.4484116" lon="10.8338061"><ele>329.5</ele><time>2026-04-18T07:33:35.965Z</time></trkpt><trkpt lat="44.448334" lon="10.8337822"><ele>329.6666666666667</ele><time>2026-04-18T07:33:36.964Z</time></trkpt><trkpt lat="44.4482583" lon="10.8337499"><ele>329.8333333333333</ele><time>2026-04-18T07:33:37.965Z</time></trkpt><trkpt lat="44.4481767" lon="10.833714"><ele>330.0</ele><time>2026-04-18T07:33:38.965Z</time></trkpt><trkpt lat="44.4481118" lon="10.8336751"><ele>330.0</ele><time>2026-04-18T07:33:39.965Z</time></trkpt><trkpt lat="44.4480583" lon="10.8336044"><ele>330.0</ele><time>2026-04-18T07:33:40.964Z</time></trkpt><trkpt lat="44.4480036" lon="10.8335283"><ele>330.0</ele><time>2026-04-18T07:33:41.964Z</time></trkpt><trkpt lat="44.4479502" lon="10.8334555"><ele>330.0</ele><time>2026-04-18T07:33:42.964Z</time></trkpt><trkpt lat="44.4478541" lon="10.8333387"><ele>330.0</ele><time>2026-04-18T07:33:44.965Z</time></trkpt><trkpt lat="44.447796" lon="10.8332874"><ele>330.0</ele><time>2026-04-18T07:33:45.964Z</time></trkpt><trkpt lat="44.4477289" lon="10.8332633"><ele>331.6666666666667</ele><time>2026-04-18T07:33:46.964Z</time></trkpt><trkpt lat="44.4476587" lon="10.8332413"><ele>333.3333333333333</ele><time>2026-04-18T07:33:47.964Z</time></trkpt><trkpt lat="44.4475828" lon="10.8332259"><ele>335.0</ele><time>2026-04-18T07:33:48.965Z</time></trkpt><trkpt lat="44.4475024" lon="10.8332023"><ele>336.66666666666663</ele><time>2026-04-18T07:33:49.964Z</time></trkpt><trkpt lat="44.4474164" lon="10.833182"><ele>338.3333333333333</ele><time>2026-04-18T07:33:50.965Z</time></trkpt><trkpt lat="44.4473296" lon="10.8331587"><ele>340.0</ele><time>2026-04-18T07:33:51.964Z</time></trkpt><trkpt lat="44.4472421" lon="10.8331363"><ele>340.0</ele><time>2026-04-18T07:33:52.964Z</time></trkpt><trkpt lat="44.4471506" lon="10.8331168"><ele>340.0</ele><time>2026-04-18T07:33:53.965Z</time></trkpt><trkpt lat="44.4470584" lon="10.8330996"><ele>340.0</ele><time>2026-04-18T07:33:54.965Z</time></trkpt><trkpt lat="44.4469708" lon="10.8330595"><ele>340.0</ele><time>2026-04-18T07:33:55.964Z</time></trkpt><trkpt lat="44.4468772" lon="10.833027"><ele>340.0</ele><time>2026-04-18T07:33:56.965Z</time></trkpt><trkpt lat="44.4467915" lon="10.8329949"><ele>340.3333333333333</ele><time>2026-04-18T07:33:57.964Z</time></trkpt><trkpt lat="44.4467029" lon="10.8329692"><ele>340.66666666666663</ele><time>2026-04-18T07:33:58.964Z</time></trkpt><trkpt lat="44.446611" lon="10.8329613"><ele>341.0</ele><time>2026-04-18T07:33:59.964Z</time></trkpt><trkpt lat="44.4465187" lon="10.8329853"><ele>341.3333333333333</ele><time>2026-04-18T07:34:00.964Z</time></trkpt><trkpt lat="44.4464358" lon="10.8330092"><ele>341.6666666666667</ele><time>2026-04-18T07:34:01.964Z</time></trkpt><trkpt lat="44.4463682" lon="10.8330439"><ele>342.0</ele><time>2026-04-18T07:34:02.964Z</time></trkpt><trkpt lat="44.4462962" lon="10.8330913"><ele>343.5</ele><time>2026-04-18T07:34:03.965Z</time></trkpt><trkpt lat="44.4462263" lon="10.8331175"><ele>345.0</ele><time>2026-04-18T07:34:04.965Z</time></trkpt><trkpt lat="44.4461602" lon="10.8331528"><ele>346.5</ele><time>2026-04-18T07:34:05.964Z</time></trkpt><trkpt lat="44.4460737" lon="10.8331976"><ele>348.0</ele><time>2026-04-18T07:34:07.965Z</time></trkpt><trkpt lat="44.4460012" lon="10.8331985"><ele>349.5</ele><time>2026-04-18T07:34:09.965Z</time></trkpt><trkpt lat="44.445924" lon="10.8332135"><ele>351.0</ele><time>2026-04-18T07:34:11.964Z</time></trkpt><trkpt lat="44.4458326" lon="10.8332682"><ele>351.0</ele><time>2026-04-18T07:36:27.965Z</time></trkpt><trkpt lat="44.4457204" lon="10.8333118"><ele>351.0</ele><time>2026-04-18T07:36:29.964Z</time></trkpt><trkpt lat="44.4456536" lon="10.8333343"><ele>351.0</ele><time>2026-04-18T07:36:30.964Z</time></trkpt><trkpt lat="44.4455805" lon="10.8333656"><ele>351.0</ele><time>2026-04-18T07:36:31.964Z</time></trkpt><trkpt lat="44.445505" lon="10.8333925"><ele>351.0</ele><time>2026-04-18T07:36:32.965Z</time></trkpt><trkpt lat="44.445428" lon="10.8334214"><ele>351.0</ele><time>2026-04-18T07:36:33.965Z</time></trkpt><trkpt lat="44.4453475" lon="10.8334512"><ele>350.1666666666667</ele><time>2026-04-18T07:36:34.964Z</time></trkpt><trkpt lat="44.4452702" lon="10.8334886"><ele>349.3333333333333</ele><time>2026-04-18T07:36:35.965Z</time></trkpt><trkpt lat="44.4451895" lon="10.8335238"><ele>348.5</ele><time>2026-04-18T07:36:36.965Z</time></trkpt><trkpt lat="44.4451121" lon="10.8335591"><ele>347.66666666666663</ele><time>2026-04-18T07:36:37.964Z</time></trkpt><trkpt lat="44.4450285" lon="10.833598"><ele>346.8333333333333</ele><time>2026-04-18T07:36:38.964Z</time></trkpt><trkpt lat="44.4449485" lon="10.8336161"><ele>346.0</ele><time>2026-04-18T07:36:39.965Z</time></trkpt><trkpt lat="44.4448683" lon="10.8336089"><ele>346.0</ele><time>2026-04-18T07:36:40.964Z</time></trkpt><trkpt lat="44.4447922" lon="10.833594"><ele>346.0</ele><time>2026-04-18T07:36:41.964Z</time></trkpt><trkpt lat="44.444717" lon="10.833506"><ele>346.0</ele><time>2026-04-18T07:36:42.964Z</time></trkpt><trkpt lat="44.444644" lon="10.8334281"><ele>346.0</ele><time>2026-04-18T07:36:43.965Z</time></trkpt><trkpt lat="44.4445623" lon="10.8333624"><ele>346.0</ele><time>2026-04-18T07:36:44.965Z</time></trkpt><trkpt lat="44.4444794" lon="10.833307"><ele>350.20000000000005</ele><time>2026-04-18T07:36:45.964Z</time></trkpt><trkpt lat="44.4443835" lon="10.8332821"><ele>354.40000000000003</ele><time>2026-04-18T07:36:46.965Z</time></trkpt><trkpt lat="44.4442903" lon="10.8332844"><ele>358.6</ele><time>2026-04-18T07:36:47.965Z</time></trkpt><trkpt lat="44.4441944" lon="10.8333181"><ele>362.8</ele><time>2026-04-18T07:36:48.965Z</time></trkpt><trkpt lat="44.4441055" lon="10.8333724"><ele>367.0</ele><time>2026-04-18T07:36:49.965Z</time></trkpt><trkpt lat="44.4440233" lon="10.8334363"><ele>365.20000000000005</ele><time>2026-04-18T07:36:50.964Z</time></trkpt><trkpt lat="44.4439448" lon="10.8335042"><ele>363.4</ele><time>2026-04-18T07:36:51.964Z</time></trkpt><trkpt lat="44.4438666" lon="10.8335847"><ele>361.6</ele><time>2026-04-18T07:36:52.964Z</time></trkpt><trkpt lat="44.4437875" lon="10.8336627"><ele>359.79999999999995</ele><time>2026-04-18T07:36:53.964Z</time></trkpt><trkpt lat="44.4437186" lon="10.8337407"><ele>358.0</ele><time>2026-04-18T07:36:54.964Z</time></trkpt><trkpt lat="44.4436464" lon="10.8338167"><ele>358.0</ele><time>2026-04-18T07:36:55.964Z</time></trkpt><trkpt lat="44.443519" lon="10.8338651"><ele>358.0</ele><time>2026-04-18T07:36:57.964Z</time></trkpt><trkpt lat="44.4434496" lon="10.8338455"><ele>358.0</ele><time>2026-04-18T07:36:58.965Z</time></trkpt><trkpt lat="44.4433929" lon="10.8337951"><ele>358.0</ele><time>2026-04-18T07:36:59.964Z</time></trkpt><trkpt lat="44.4433447" lon="10.8337288"><ele>358.0</ele><time>2026-04-18T07:37:00.965Z</time></trkpt><trkpt lat="44.4433172" lon="10.8336483"><ele>358.0</ele><time>2026-04-18T07:37:01.965Z</time></trkpt><trkpt lat="44.443308" lon="10.8335583"><ele>359.8333333333333</ele><time>2026-04-18T07:37:02.965Z</time></trkpt><trkpt lat="44.4433008" lon="10.8334596"><ele>361.66666666666663</ele><time>2026-04-18T07:37:03.965Z</time></trkpt><trkpt lat="44.4432978" lon="10.8333653"><ele>363.5</ele><time>2026-04-18T07:37:04.964Z</time></trkpt><trkpt lat="44.4432902" lon="10.8332747"><ele>365.3333333333333</ele><time>2026-04-18T07:37:05.964Z</time></trkpt><trkpt lat="44.4432848" lon="10.8331751"><ele>367.1666666666667</ele><time>2026-04-18T07:37:06.964Z</time></trkpt><trkpt lat="44.4432758" lon="10.8330047"><ele>369.0</ele><time>2026-04-18T07:37:08.964Z</time></trkpt><trkpt lat="44.4432696" lon="10.8329055"><ele>369.0</ele><time>2026-04-18T07:37:09.964Z</time></trkpt><trkpt lat="44.4432659" lon="10.8328049"><ele>369.0</ele><time>2026-04-18T07:37:10.964Z</time></trkpt><trkpt lat="44.4432592" lon="10.8326987"><ele>369.0</ele><time>2026-04-18T07:37:11.964Z</time></trkpt><trkpt lat="44.4432688" lon="10.83259"><ele>369.0</ele><time>2026-04-18T07:37:12.965Z</time></trkpt><trkpt lat="44.4432907" lon="10.8324768"><ele>369.0</ele><time>2026-04-18T07:37:13.964Z</time></trkpt><trkpt lat="44.44332" lon="10.832361"><ele>369.0</ele><time>2026-04-18T07:37:14.964Z</time></trkpt><trkpt lat="44.4433568" lon="10.8322437"><ele>370.6666666666667</ele><time>2026-04-18T07:37:15.964Z</time></trkpt><trkpt lat="44.4433982" lon="10.8321289"><ele>372.3333333333333</ele><time>2026-04-18T07:37:16.964Z</time></trkpt><trkpt lat="44.4434343" lon="10.8320207"><ele>374.0</ele><time>2026-04-18T07:37:17.964Z</time></trkpt><trkpt lat="44.4434522" lon="10.8319308"><ele>375.66666666666663</ele><time>2026-04-18T07:37:18.964Z</time></trkpt><trkpt lat="44.4434446" lon="10.8318293"><ele>377.3333333333333</ele><time>2026-04-18T07:37:19.964Z</time></trkpt><trkpt lat="44.4434242" lon="10.8317371"><ele>379.0</ele><time>2026-04-18T07:37:20.964Z</time></trkpt><trkpt lat="44.4433464" lon="10.8316998"><ele>381.0</ele><time>2026-04-18T07:37:21.965Z</time></trkpt><trkpt lat="44.4432854" lon="10.8316355"><ele>383.0</ele><time>2026-04-18T07:37:22.964Z</time></trkpt><trkpt lat="44.4432503" lon="10.831544"><ele>385.0</ele><time>2026-04-18T07:37:23.965Z</time></trkpt><trkpt lat="44.4432371" lon="10.8314326"><ele>387.0</ele><time>2026-04-18T07:37:24.964Z</time></trkpt><trkpt lat="44.4432422" lon="10.831314"><ele>389.00000000000006</ele><time>2026-04-18T07:37:25.964Z</time></trkpt><trkpt lat="44.4432489" lon="10.8311875"><ele>391.0</ele><time>2026-04-18T07:37:26.965Z</time></trkpt><trkpt lat="44.4432418" lon="10.83106"><ele>392.50000000000006</ele><time>2026-04-18T07:37:27.965Z</time></trkpt><trkpt lat="44.4432154" lon="10.830939"><ele>394.0</ele><time>2026-04-18T07:37:28.964Z</time></trkpt><trkpt lat="44.4431623" lon="10.8308572"><ele>395.5</ele><time>2026-04-18T07:37:29.965Z</time></trkpt><trkpt lat="44.4430843" lon="10.8308089"><ele>397.0</ele><time>2026-04-18T07:37:30.964Z</time></trkpt><trkpt lat="44.4429945" lon="10.8308163"><ele>398.50000000000006</ele><time>2026-04-18T07:37:31.965Z</time></trkpt><trkpt lat="44.4429082" lon="10.8308495"><ele>400.0</ele><time>2026-04-18T07:37:32.965Z</time></trkpt><trkpt lat="44.4428289" lon="10.8308692"><ele>400.00000000000006</ele><time>2026-04-18T07:37:33.965Z</time></trkpt><trkpt lat="44.4427589" lon="10.8308548"><ele>400.0</ele><time>2026-04-18T07:37:34.965Z</time></trkpt><trkpt lat="44.4426916" lon="10.830726"><ele>400.0</ele><time>2026-04-18T07:37:36.965Z</time></trkpt><trkpt lat="44.442692" lon="10.8306226"><ele>400.0</ele><time>2026-04-18T07:37:37.964Z</time></trkpt><trkpt lat="44.4427075" lon="10.8304989"><ele>400.00000000000006</ele><time>2026-04-18T07:37:38.965Z</time></trkpt><trkpt lat="44.4427285" lon="10.8303721"><ele>400.0</ele><time>2026-04-18T07:37:39.965Z</time></trkpt><trkpt lat="44.4427544" lon="10.830253"><ele>400.00000000000006</ele><time>2026-04-18T07:37:40.965Z</time></trkpt><trkpt lat="44.4427886" lon="10.8301471"><ele>400.0</ele><time>2026-04-18T07:37:41.964Z</time></trkpt><trkpt lat="44.4428304" lon="10.83004"><ele>400.0</ele><time>2026-04-18T07:37:42.965Z</time></trkpt><trkpt lat="44.4428767" lon="10.8299449"><ele>400.0</ele><time>2026-04-18T07:37:43.965Z</time></trkpt><trkpt lat="44.4429275" lon="10.8298507"><ele>400.00000000000006</ele><time>2026-04-18T07:37:44.964Z</time></trkpt><trkpt lat="44.4429697" lon="10.8297785"><ele>400.0</ele><time>2026-04-18T07:37:45.964Z</time></trkpt><trkpt lat="44.4430079" lon="10.8296965"><ele>403.00000000000006</ele><time>2026-04-18T07:37:46.964Z</time></trkpt><trkpt lat="44.4430409" lon="10.8296115"><ele>406.0</ele><time>2026-04-18T07:37:47.964Z</time></trkpt><trkpt lat="44.4430775" lon="10.8295323"><ele>409.0</ele><time>2026-04-18T07:37:48.964Z</time></trkpt><trkpt lat="44.443135" lon="10.8294196"><ele>412.0</ele><time>2026-04-18T07:37:50.964Z</time></trkpt><trkpt lat="44.4431384" lon="10.8293273"><ele>415.00000000000006</ele><time>2026-04-18T07:37:52.964Z</time></trkpt><trkpt lat="44.4431071" lon="10.8292257"><ele>418.0</ele><time>2026-04-18T07:37:55.965Z</time></trkpt><trkpt lat="44.4430467" lon="10.8291624"><ele>418.42857142857144</ele><time>2026-04-18T07:37:58.964Z</time></trkpt><trkpt lat="44.4429706" lon="10.8291418"><ele>418.85714285714283</ele><time>2026-04-18T07:38:02.964Z</time></trkpt><trkpt lat="44.4429039" lon="10.8291439"><ele>419.28571428571433</ele><time>2026-04-18T07:38:07.965Z</time></trkpt><trkpt lat="44.442835" lon="10.8291286"><ele>419.7142857142857</ele><time>2026-04-18T07:38:10.964Z</time></trkpt><trkpt lat="44.4427582" lon="10.8290914"><ele>420.14285714285717</ele><time>2026-04-18T07:38:14.965Z</time></trkpt><trkpt lat="44.4426863" lon="10.8290493"><ele>420.5714285714286</ele><time>2026-04-18T07:38:17.965Z</time></trkpt><trkpt lat="44.442628" lon="10.8290097"><ele>421.0</ele><time>2026-04-18T07:38:19.965Z</time></trkpt><trkpt lat="44.4425671" lon="10.8289756"><ele>421.00000000000006</ele><time>2026-04-18T07:38:22.965Z</time></trkpt><trkpt lat="44.4424831" lon="10.8289259"><ele>421.0</ele><time>2026-04-18T07:38:25.965Z</time></trkpt><trkpt lat="44.442416" lon="10.8288727"><ele>421.0</ele><time>2026-04-18T07:38:27.964Z</time></trkpt><trkpt lat="44.4423643" lon="10.8288003"><ele>421.0</ele><time>2026-04-18T07:38:29.964Z</time></trkpt><trkpt lat="44.4423176" lon="10.8287359"><ele>421.00000000000006</ele><time>2026-04-18T07:38:31.964Z</time></trkpt><trkpt lat="44.4422506" lon="10.8286956"><ele>421.0</ele><time>2026-04-18T07:38:35.965Z</time></trkpt><trkpt lat="44.4421795" lon="10.8286714"><ele>420.00000000000006</ele><time>2026-04-18T07:38:39.965Z</time></trkpt><trkpt lat="44.4420988" lon="10.8286782"><ele>419.0</ele><time>2026-04-18T07:39:02.965Z</time></trkpt><trkpt lat="44.4420357" lon="10.8286729"><ele>418.0</ele><time>2026-04-18T07:39:29.964Z</time></trkpt><trkpt lat="44.441967" lon="10.8286413"><ele>417.0</ele><time>2026-04-18T07:39:33.965Z</time></trkpt><trkpt lat="44.4418991" lon="10.8285964"><ele>416.0</ele><time>2026-04-18T07:39:41.965Z</time></trkpt><trkpt lat="44.441856" lon="10.8285234"><ele>415.00000000000006</ele><time>2026-04-18T07:39:44.964Z</time></trkpt><trkpt lat="44.4418395" lon="10.8284305"><ele>414.0</ele><time>2026-04-18T07:39:46.964Z</time></trkpt><trkpt lat="44.4418207" lon="10.8283394"><ele>416.8333333333333</ele><time>2026-04-18T07:41:02.965Z</time></trkpt><trkpt lat="44.4418132" lon="10.8282284"><ele>419.66666666666663</ele><time>2026-04-18T07:41:09.965Z</time></trkpt><trkpt lat="44.4417989" lon="10.8281222"><ele>422.5</ele><time>2026-04-18T07:41:12.964Z</time></trkpt><trkpt lat="44.4418049" lon="10.8280089"><ele>425.3333333333333</ele><time>2026-04-18T07:41:14.965Z</time></trkpt><trkpt lat="44.4417906" lon="10.8278671"><ele>428.16666666666663</ele><time>2026-04-18T07:41:16.965Z</time></trkpt><trkpt lat="44.4418029" lon="10.8277534"><ele>431.0</ele><time>2026-04-18T07:41:18.964Z</time></trkpt><trkpt lat="44.4418724" lon="10.8276974"><ele>433.8333333333333</ele><time>2026-04-18T07:41:20.965Z</time></trkpt><trkpt lat="44.4419532" lon="10.827626"><ele>436.66666666666663</ele><time>2026-04-18T07:41:22.965Z</time></trkpt><trkpt lat="44.4420385" lon="10.8275783"><ele>439.5</ele><time>2026-04-18T07:41:24.965Z</time></trkpt><trkpt lat="44.4421009" lon="10.8275019"><ele>442.33333333333337</ele><time>2026-04-18T07:41:26.965Z</time></trkpt><trkpt lat="44.442116" lon="10.8274019"><ele>445.1666666666667</ele><time>2026-04-18T07:41:28.964Z</time></trkpt><trkpt lat="44.4420841" lon="10.8273202"><ele>448.0</ele><time>2026-04-18T07:41:30.965Z</time></trkpt><trkpt lat="44.442038" lon="10.8272373"><ele>448.0</ele><time>2026-04-18T07:41:32.964Z</time></trkpt><trkpt lat="44.4419773" lon="10.82714"><ele>447.99999999999994</ele><time>2026-04-18T07:41:34.964Z</time></trkpt><trkpt lat="44.4419106" lon="10.8270369"><ele>447.99999999999994</ele><time>2026-04-18T07:41:36.965Z</time></trkpt><trkpt lat="44.4418384" lon="10.8269271"><ele>448.0</ele><time>2026-04-18T07:41:38.964Z</time></trkpt><trkpt lat="44.4417675" lon="10.8268115"><ele>448.0</ele><time>2026-04-18T07:41:40.964Z</time></trkpt><trkpt lat="44.4417345" lon="10.8266868"><ele>450.79999999999995</ele><time>2026-04-18T07:41:42.965Z</time></trkpt><trkpt lat="44.4417039" lon="10.8265667"><ele>453.59999999999997</ele><time>2026-04-18T07:41:44.965Z</time></trkpt><trkpt lat="44.4416697" lon="10.8264646"><ele>456.40000000000003</ele><time>2026-04-18T07:41:46.964Z</time></trkpt><trkpt lat="44.4416312" lon="10.8263585"><ele>459.20000000000005</ele><time>2026-04-18T07:41:48.965Z</time></trkpt><trkpt lat="44.4415795" lon="10.826252"><ele>462.0</ele><time>2026-04-18T07:41:50.965Z</time></trkpt><trkpt lat="44.4415266" lon="10.8261224"><ele>465.5</ele><time>2026-04-18T07:41:52.964Z</time></trkpt><trkpt lat="44.441481" lon="10.8259774"><ele>469.0</ele><time>2026-04-18T07:41:54.964Z</time></trkpt><trkpt lat="44.4414267" lon="10.8258312"><ele>472.5</ele><time>2026-04-18T07:41:56.965Z</time></trkpt><trkpt lat="44.441376" lon="10.8256823"><ele>476.0</ele><time>2026-04-18T07:41:58.964Z</time></trkpt><trkpt lat="44.4413295" lon="10.8255276"><ele>476.0</ele><time>2026-04-18T07:42:00.965Z</time></trkpt><trkpt lat="44.4413151" lon="10.8253732"><ele>476.0</ele><time>2026-04-18T07:42:02.965Z</time></trkpt><trkpt lat="44.4413146" lon="10.8252199"><ele>476.0</ele><time>2026-04-18T07:42:04.965Z</time></trkpt><trkpt lat="44.4413495" lon="10.8251025"><ele>476.0</ele><time>2026-04-18T07:42:06.964Z</time></trkpt><trkpt lat="44.4414154" lon="10.8249782"><ele>476.0</ele><time>2026-04-18T07:42:08.965Z</time></trkpt><trkpt lat="44.4414809" lon="10.8248449"><ele>478.4</ele><time>2026-04-18T07:42:10.965Z</time></trkpt><trkpt lat="44.4415369" lon="10.8247065"><ele>480.8</ele><time>2026-04-18T07:42:12.965Z</time></trkpt><trkpt lat="44.4415687" lon="10.8246287"><ele>483.19999999999993</ele><time>2026-04-18T07:42:13.965Z</time></trkpt><trkpt lat="44.4416211" lon="10.8244884"><ele>485.59999999999997</ele><time>2026-04-18T07:42:15.965Z</time></trkpt><trkpt lat="44.4416561" lon="10.8243453"><ele>488.0</ele><time>2026-04-18T07:42:17.965Z</time></trkpt><trkpt lat="44.4416551" lon="10.8241847"><ele>489.16666666666663</ele><time>2026-04-18T07:42:19.964Z</time></trkpt><trkpt lat="44.4416459" lon="10.8240145"><ele>490.3333333333333</ele><time>2026-04-18T07:42:21.964Z</time></trkpt><trkpt lat="44.4416303" lon="10.8239277"><ele>491.5</ele><time>2026-04-18T07:42:22.965Z</time></trkpt><trkpt lat="44.4416104" lon="10.823841"><ele>492.66666666666663</ele><time>2026-04-18T07:42:23.965Z</time></trkpt><trkpt lat="44.4415889" lon="10.823753"><ele>493.8333333333333</ele><time>2026-04-18T07:42:24.965Z</time></trkpt><trkpt lat="44.4415683" lon="10.8236578"><ele>495.0</ele><time>2026-04-18T07:42:25.964Z</time></trkpt><trkpt lat="44.441547" lon="10.8235603"><ele>496.2857142857142</ele><time>2026-04-18T07:42:26.964Z</time></trkpt><trkpt lat="44.4415321" lon="10.8234582"><ele>497.57142857142856</ele><time>2026-04-18T07:42:27.965Z</time></trkpt><trkpt lat="44.4415159" lon="10.8233533"><ele>498.85714285714283</ele><time>2026-04-18T07:42:28.965Z</time></trkpt><trkpt lat="44.4414983" lon="10.8232544"><ele>500.1428571428571</ele><time>2026-04-18T07:42:29.965Z</time></trkpt><trkpt lat="44.4414831" lon="10.8231674"><ele>501.42857142857144</ele><time>2026-04-18T07:42:30.965Z</time></trkpt><trkpt lat="44.4414655" lon="10.8230741"><ele>502.7142857142857</ele><time>2026-04-18T07:42:31.964Z</time></trkpt><trkpt lat="44.4414484" lon="10.8229838"><ele>504.0</ele><time>2026-04-18T07:42:32.965Z</time></trkpt><trkpt lat="44.4414265" lon="10.8228916"><ele>504.0</ele><time>2026-04-18T07:42:33.964Z</time></trkpt><trkpt lat="44.4414019" lon="10.8228068"><ele>504.0</ele><time>2026-04-18T07:42:34.965Z</time></trkpt><trkpt lat="44.4413853" lon="10.822712"><ele>504.0</ele><time>2026-04-18T07:42:36.965Z</time></trkpt><trkpt lat="44.4414689" lon="10.8227486"><ele>504.0</ele><time>2026-04-18T07:42:39.965Z</time></trkpt><trkpt lat="44.4415234" lon="10.8228139"><ele>504.0</ele><time>2026-04-18T07:42:42.964Z</time></trkpt><trkpt lat="44.441593" lon="10.8228591"><ele>504.0</ele><time>2026-04-18T07:43:09.964Z</time></trkpt><trkpt lat="44.4416994" lon="10.8229021"><ele>504.0</ele><time>2026-04-18T07:43:11.964Z</time></trkpt><trkpt lat="44.4418091" lon="10.8229465"><ele>504.0</ele><time>2026-04-18T07:43:13.964Z</time></trkpt><trkpt lat="44.4419049" lon="10.8229902"><ele>504.0</ele><time>2026-04-18T07:43:15.964Z</time></trkpt><trkpt lat="44.4420082" lon="10.8230618"><ele>504.0</ele><time>2026-04-18T07:43:17.964Z</time></trkpt><trkpt lat="44.4421173" lon="10.8231447"><ele>504.1428571428571</ele><time>2026-04-18T07:43:19.965Z</time></trkpt><trkpt lat="44.4421732" lon="10.823192"><ele>504.2857142857143</ele><time>2026-04-18T07:43:20.964Z</time></trkpt><trkpt lat="44.4422282" lon="10.8232433"><ele>504.42857142857144</ele><time>2026-04-18T07:43:21.964Z</time></trkpt><trkpt lat="44.4422847" lon="10.823297"><ele>504.57142857142856</ele><time>2026-04-18T07:43:22.964Z</time></trkpt><trkpt lat="44.4423495" lon="10.8233529"><ele>504.71428571428567</ele><time>2026-04-18T07:43:23.965Z</time></trkpt><trkpt lat="44.4424174" lon="10.8234112"><ele>504.85714285714283</ele><time>2026-04-18T07:43:24.964Z</time></trkpt><trkpt lat="44.4424891" lon="10.8234752"><ele>505.0</ele><time>2026-04-18T07:43:25.964Z</time></trkpt><trkpt lat="44.442563" lon="10.8235411"><ele>505.0</ele><time>2026-04-18T07:43:26.964Z</time></trkpt><trkpt lat="44.4426428" lon="10.8236038"><ele>505.0</ele><time>2026-04-18T07:43:27.964Z</time></trkpt><trkpt lat="44.4427267" lon="10.8236602"><ele>505.0</ele><time>2026-04-18T07:43:28.964Z</time></trkpt><trkpt lat="44.4428205" lon="10.8237075"><ele>505.0</ele><time>2026-04-18T07:43:29.965Z</time></trkpt><trkpt lat="44.4429198" lon="10.8237589"><ele>505.0</ele><time>2026-04-18T07:43:30.964Z</time></trkpt><trkpt lat="44.443025" lon="10.8238157"><ele>505.75</ele><time>2026-04-18T07:43:31.964Z</time></trkpt><trkpt lat="44.4431336" lon="10.8238781"><ele>506.5</ele><time>2026-04-18T07:43:32.964Z</time></trkpt><trkpt lat="44.4432459" lon="10.8239499"><ele>507.25</ele><time>2026-04-18T07:43:33.965Z</time></trkpt><trkpt lat="44.4433617" lon="10.8240267"><ele>508.0</ele><time>2026-04-18T07:43:34.964Z</time></trkpt><trkpt lat="44.4434791" lon="10.8240984"><ele>508.0</ele><time>2026-04-18T07:43:35.964Z</time></trkpt><trkpt lat="44.4435978" lon="10.8241721"><ele>508.0</ele><time>2026-04-18T07:43:36.965Z</time></trkpt><trkpt lat="44.4437133" lon="10.8242441"><ele>508.0</ele><time>2026-04-18T07:43:37.964Z</time></trkpt><trkpt lat="44.4438282" lon="10.8243137"><ele>508.0</ele><time>2026-04-18T07:43:38.964Z</time></trkpt><trkpt lat="44.4439341" lon="10.8243714"><ele>505.25</ele><time>2026-04-18T07:43:39.964Z</time></trkpt><trkpt lat="44.4440439" lon="10.824416"><ele>502.5</ele><time>2026-04-18T07:43:40.964Z</time></trkpt><trkpt lat="44.4441588" lon="10.8244447"><ele>499.75</ele><time>2026-04-18T07:43:41.965Z</time></trkpt><trkpt lat="44.4442749" lon="10.8244559"><ele>497.0</ele><time>2026-04-18T07:43:42.965Z</time></trkpt><trkpt lat="44.4443858" lon="10.8244507"><ele>497.0</ele><time>2026-04-18T07:43:43.964Z</time></trkpt><trkpt lat="44.4445008" lon="10.8244367"><ele>497.0</ele><time>2026-04-18T07:43:44.964Z</time></trkpt><trkpt lat="44.4446131" lon="10.8244074"><ele>497.0</ele><time>2026-04-18T07:43:45.965Z</time></trkpt><trkpt lat="44.4447232" lon="10.8243836"><ele>497.0</ele><time>2026-04-18T07:43:46.964Z</time></trkpt><trkpt lat="44.4448327" lon="10.8243755"><ele>496.8</ele><time>2026-04-18T07:43:47.965Z</time></trkpt><trkpt lat="44.444937" lon="10.8243907"><ele>496.6</ele><time>2026-04-18T07:43:48.964Z</time></trkpt><trkpt lat="44.4450295" lon="10.8244332"><ele>496.40000000000003</ele><time>2026-04-18T07:43:49.965Z</time></trkpt><trkpt lat="44.4451184" lon="10.8244917"><ele>496.20000000000005</ele><time>2026-04-18T07:43:50.964Z</time></trkpt><trkpt lat="44.4452124" lon="10.8245562"><ele>496.0</ele><time>2026-04-18T07:43:51.964Z</time></trkpt><trkpt lat="44.4453157" lon="10.8246158"><ele>496.0</ele><time>2026-04-18T07:43:52.964Z</time></trkpt><trkpt lat="44.4454265" lon="10.8246694"><ele>496.0</ele><time>2026-04-18T07:43:53.965Z</time></trkpt><trkpt lat="44.4455436" lon="10.8247241"><ele>496.0</ele><time>2026-04-18T07:43:54.965Z</time></trkpt><trkpt lat="44.4456683" lon="10.8247833"><ele>496.0</ele><time>2026-04-18T07:43:55.965Z</time></trkpt><trkpt lat="44.4457966" lon="10.824843"><ele>495.75</ele><time>2026-04-18T07:43:56.964Z</time></trkpt><trkpt lat="44.4459324" lon="10.8248884"><ele>495.5</ele><time>2026-04-18T07:43:57.964Z</time></trkpt><trkpt lat="44.4460703" lon="10.8249027"><ele>495.25</ele><time>2026-04-18T07:43:58.964Z</time></trkpt><trkpt lat="44.4462146" lon="10.8248836"><ele>495.0</ele><time>2026-04-18T07:43:59.965Z</time></trkpt><trkpt lat="44.4463534" lon="10.8248534"><ele>493.75</ele><time>2026-04-18T07:44:00.965Z</time></trkpt><trkpt lat="44.4464778" lon="10.8248189"><ele>492.5</ele><time>2026-04-18T07:44:01.965Z</time></trkpt><trkpt lat="44.4465901" lon="10.8247888"><ele>491.25</ele><time>2026-04-18T07:44:02.964Z</time></trkpt><trkpt lat="44.4466991" lon="10.8247668"><ele>490.0</ele><time>2026-04-18T07:44:03.964Z</time></trkpt><trkpt lat="44.4468029" lon="10.8247745"><ele>490.0</ele><time>2026-04-18T07:44:04.964Z</time></trkpt><trkpt lat="44.4468902" lon="10.8248119"><ele>490.0</ele><time>2026-04-18T07:44:05.965Z</time></trkpt><trkpt lat="44.4469698" lon="10.8248746"><ele>490.0</ele><time>2026-04-18T07:44:06.964Z</time></trkpt><trkpt lat="44.4470489" lon="10.8249564"><ele>490.0</ele><time>2026-04-18T07:44:07.965Z</time></trkpt><trkpt lat="44.4471216" lon="10.8250497"><ele>490.0</ele><time>2026-04-18T07:44:08.964Z</time></trkpt><trkpt lat="44.4471917" lon="10.8251419"><ele>488.2</ele><time>2026-04-18T07:44:09.964Z</time></trkpt><trkpt lat="44.4472601" lon="10.8252172"><ele>486.4</ele><time>2026-04-18T07:44:10.964Z</time></trkpt><trkpt lat="44.44734" lon="10.8252871"><ele>484.6</ele><time>2026-04-18T07:44:11.964Z</time></trkpt><trkpt lat="44.4474431" lon="10.825314"><ele>482.8</ele><time>2026-04-18T07:44:12.964Z</time></trkpt><trkpt lat="44.4475469" lon="10.825333"><ele>481.0</ele><time>2026-04-18T07:44:13.964Z</time></trkpt><trkpt lat="44.4476528" lon="10.8253498"><ele>481.0</ele><time>2026-04-18T07:44:14.964Z</time></trkpt><trkpt lat="44.4477503" lon="10.8253612"><ele>481.0</ele><time>2026-04-18T07:44:15.964Z</time></trkpt><trkpt lat="44.4478435" lon="10.8253621"><ele>481.0</ele><time>2026-04-18T07:44:16.964Z</time></trkpt><trkpt lat="44.4479287" lon="10.8253612"><ele>481.0</ele><time>2026-04-18T07:44:17.964Z</time></trkpt><trkpt lat="44.4480174" lon="10.825363"><ele>481.0</ele><time>2026-04-18T07:44:18.964Z</time></trkpt><trkpt lat="44.4481051" lon="10.8253768"><ele>480.20000000000005</ele><time>2026-04-18T07:44:19.964Z</time></trkpt><trkpt lat="44.4482039" lon="10.8253961"><ele>479.40000000000003</ele><time>2026-04-18T07:44:20.964Z</time></trkpt><trkpt lat="44.4483064" lon="10.8254147"><ele>478.6</ele><time>2026-04-18T07:44:21.965Z</time></trkpt><trkpt lat="44.4484062" lon="10.8254376"><ele>477.8</ele><time>2026-04-18T07:44:22.964Z</time></trkpt><trkpt lat="44.4485079" lon="10.8254641"><ele>477.0</ele><time>2026-04-18T07:44:23.964Z</time></trkpt><trkpt lat="44.4486074" lon="10.8254938"><ele>477.0</ele><time>2026-04-18T07:44:24.965Z</time></trkpt><trkpt lat="44.4487075" lon="10.8255234"><ele>477.00000000000006</ele><time>2026-04-18T07:44:25.964Z</time></trkpt><trkpt lat="44.4488021" lon="10.8255604"><ele>477.00000000000006</ele><time>2026-04-18T07:44:26.964Z</time></trkpt><trkpt lat="44.4488973" lon="10.8256001"><ele>477.0</ele><time>2026-04-18T07:44:27.964Z</time></trkpt><trkpt lat="44.4489944" lon="10.825632"><ele>477.0</ele><time>2026-04-18T07:44:28.965Z</time></trkpt><trkpt lat="44.4490901" lon="10.8256632"><ele>475.6</ele><time>2026-04-18T07:44:29.964Z</time></trkpt><trkpt lat="44.4491891" lon="10.8256907"><ele>474.20000000000005</ele><time>2026-04-18T07:44:30.965Z</time></trkpt><trkpt lat="44.4492811" lon="10.8257011"><ele>472.8</ele><time>2026-04-18T07:44:31.964Z</time></trkpt><trkpt lat="44.4493773" lon="10.8257247"><ele>471.4</ele><time>2026-04-18T07:44:32.965Z</time></trkpt><trkpt lat="44.4494719" lon="10.8257488"><ele>470.0</ele><time>2026-04-18T07:44:33.964Z</time></trkpt><trkpt lat="44.4495484" lon="10.8257459"><ele>469.99999999999994</ele><time>2026-04-18T07:44:34.964Z</time></trkpt><trkpt lat="44.4496224" lon="10.8257591"><ele>470.0</ele><time>2026-04-18T07:44:35.964Z</time></trkpt><trkpt lat="44.4496874" lon="10.8258041"><ele>470.0</ele><time>2026-04-18T07:44:36.965Z</time></trkpt><trkpt lat="44.4497415" lon="10.8258828"><ele>470.0</ele><time>2026-04-18T07:44:37.964Z</time></trkpt><trkpt lat="44.4497818" lon="10.8259842"><ele>469.99999999999994</ele><time>2026-04-18T07:44:38.965Z</time></trkpt><trkpt lat="44.4498276" lon="10.8260889"><ele>470.0</ele><time>2026-04-18T07:44:39.964Z</time></trkpt><trkpt lat="44.4498825" lon="10.8261873"><ele>467.66666666666663</ele><time>2026-04-18T07:44:40.964Z</time></trkpt><trkpt lat="44.4499516" lon="10.8262596"><ele>465.3333333333333</ele><time>2026-04-18T07:44:41.964Z</time></trkpt><trkpt lat="44.4500243" lon="10.8263219"><ele>463.0</ele><time>2026-04-18T07:44:42.964Z</time></trkpt><trkpt lat="44.4500908" lon="10.8263789"><ele>460.66666666666663</ele><time>2026-04-18T07:44:43.964Z</time></trkpt><trkpt lat="44.4501572" lon="10.826438"><ele>458.3333333333333</ele><time>2026-04-18T07:44:44.964Z</time></trkpt><trkpt lat="44.4502197" lon="10.8264966"><ele>456.0</ele><time>2026-04-18T07:44:45.964Z</time></trkpt><trkpt lat="44.4502875" lon="10.8265593"><ele>456.0</ele><time>2026-04-18T07:44:46.965Z</time></trkpt><trkpt lat="44.4503536" lon="10.8266241"><ele>456.0</ele><time>2026-04-18T07:44:47.965Z</time></trkpt><trkpt lat="44.4504222" lon="10.8266931"><ele>456.0</ele><time>2026-04-18T07:44:48.965Z</time></trkpt><trkpt lat="44.4505022" lon="10.8267384"><ele>456.0</ele><time>2026-04-18T07:44:49.964Z</time></trkpt><trkpt lat="44.4505842" lon="10.8267793"><ele>456.0</ele><time>2026-04-18T07:44:50.964Z</time></trkpt><trkpt lat="44.4506628" lon="10.8268091"><ele>456.0</ele><time>2026-04-18T07:44:51.965Z</time></trkpt><trkpt lat="44.4507289" lon="10.826841"><ele>455.0</ele><time>2026-04-18T07:44:52.964Z</time></trkpt><trkpt lat="44.4507924" lon="10.8268659"><ele>454.0</ele><time>2026-04-18T07:44:53.964Z</time></trkpt><trkpt lat="44.4508943" lon="10.8268732"><ele>453.0</ele><time>2026-04-18T07:44:55.965Z</time></trkpt><trkpt lat="44.4509675" lon="10.8267534"><ele>452.0</ele><time>2026-04-18T07:44:57.965Z</time></trkpt><trkpt lat="44.4510044" lon="10.8265721"><ele>451.0</ele><time>2026-04-18T07:44:59.964Z</time></trkpt><trkpt lat="44.4510189" lon="10.8264808"><ele>451.00000000000006</ele><time>2026-04-18T07:45:00.964Z</time></trkpt><trkpt lat="44.4509906" lon="10.8263252"><ele>451.0</ele><time>2026-04-18T07:45:02.964Z</time></trkpt><trkpt lat="44.4509053" lon="10.8261959"><ele>451.0</ele><time>2026-04-18T07:45:04.964Z</time></trkpt><trkpt lat="44.4508576" lon="10.826136"><ele>451.0</ele><time>2026-04-18T07:45:05.964Z</time></trkpt><trkpt lat="44.4508081" lon="10.8260808"><ele>451.00000000000006</ele><time>2026-04-18T07:45:06.965Z</time></trkpt><trkpt lat="44.450754" lon="10.8260347"><ele>451.0</ele><time>2026-04-18T07:45:07.965Z</time></trkpt><trkpt lat="44.4506923" lon="10.8260121"><ele>451.00000000000006</ele><time>2026-04-18T07:45:08.964Z</time></trkpt><trkpt lat="44.4506259" lon="10.8260109"><ele>451.0</ele><time>2026-04-18T07:45:09.964Z</time></trkpt><trkpt lat="44.4505632" lon="10.8260251"><ele>451.0</ele><time>2026-04-18T07:45:10.965Z</time></trkpt><trkpt lat="44.4505002" lon="10.8260332"><ele>451.0</ele><time>2026-04-18T07:45:11.965Z</time></trkpt><trkpt lat="44.4504373" lon="10.8260211"><ele>451.00000000000006</ele><time>2026-04-18T07:45:12.965Z</time></trkpt><trkpt lat="44.4503138" lon="10.8259515"><ele>451.0</ele><time>2026-04-18T07:45:14.964Z</time></trkpt><trkpt lat="44.4502541" lon="10.8259033"><ele>452.1428571428571</ele><time>2026-04-18T07:45:15.964Z</time></trkpt><trkpt lat="44.4502008" lon="10.8258415"><ele>453.28571428571433</ele><time>2026-04-18T07:45:16.964Z</time></trkpt><trkpt lat="44.4501478" lon="10.8257711"><ele>454.42857142857144</ele><time>2026-04-18T07:45:17.965Z</time></trkpt><trkpt lat="44.4501099" lon="10.8256812"><ele>455.57142857142856</ele><time>2026-04-18T07:45:18.964Z</time></trkpt><trkpt lat="44.4500781" lon="10.8255947"><ele>456.71428571428567</ele><time>2026-04-18T07:45:19.965Z</time></trkpt><trkpt lat="44.4500479" lon="10.8255008"><ele>457.8571428571429</ele><time>2026-04-18T07:45:20.964Z</time></trkpt><trkpt lat="44.4500207" lon="10.8254115"><ele>459.0</ele><time>2026-04-18T07:45:21.965Z</time></trkpt><trkpt lat="44.4500005" lon="10.8253192"><ele>459.0</ele><time>2026-04-18T07:45:22.965Z</time></trkpt><trkpt lat="44.4499769" lon="10.8252275"><ele>459.0</ele><time>2026-04-18T07:45:23.965Z</time></trkpt><trkpt lat="44.4499543" lon="10.8251334"><ele>459.0</ele><time>2026-04-18T07:45:24.964Z</time></trkpt><trkpt lat="44.4499262" lon="10.8250452"><ele>459.0</ele><time>2026-04-18T07:45:25.965Z</time></trkpt><trkpt lat="44.449909" lon="10.8249589"><ele>459.0</ele><time>2026-04-18T07:45:26.964Z</time></trkpt><trkpt lat="44.4498774" lon="10.8247968"><ele>459.0</ele><time>2026-04-18T07:45:28.964Z</time></trkpt><trkpt lat="44.4498542" lon="10.824712"><ele>460.5</ele><time>2026-04-18T07:45:29.964Z</time></trkpt><trkpt lat="44.4498245" lon="10.8246325"><ele>462.0</ele><time>2026-04-18T07:45:30.964Z</time></trkpt><trkpt lat="44.4497585" lon="10.8245469"><ele>463.5</ele><time>2026-04-18T07:45:31.965Z</time></trkpt><trkpt lat="44.4496904" lon="10.824479"><ele>465.0</ele><time>2026-04-18T07:45:32.965Z</time></trkpt><trkpt lat="44.4496209" lon="10.8244243"><ele>466.5</ele><time>2026-04-18T07:45:33.965Z</time></trkpt><trkpt lat="44.449554" lon="10.824372"><ele>468.0</ele><time>2026-04-18T07:45:34.964Z</time></trkpt><trkpt lat="44.4494937" lon="10.8243193"><ele>465.14285714285717</ele><time>2026-04-18T07:45:35.965Z</time></trkpt><trkpt lat="44.4494361" lon="10.8242516"><ele>462.28571428571433</ele><time>2026-04-18T07:45:36.965Z</time></trkpt><trkpt lat="44.4493826" lon="10.8241793"><ele>459.42857142857144</ele><time>2026-04-18T07:45:37.965Z</time></trkpt><trkpt lat="44.4493364" lon="10.8241079"><ele>456.57142857142856</ele><time>2026-04-18T07:45:38.964Z</time></trkpt><trkpt lat="44.4492903" lon="10.8240335"><ele>453.7142857142857</ele><time>2026-04-18T07:45:39.965Z</time></trkpt><trkpt lat="44.4492434" lon="10.8239703"><ele>450.8571428571429</ele><time>2026-04-18T07:45:40.964Z</time></trkpt><trkpt lat="44.4491858" lon="10.8239209"><ele>448.0</ele><time>2026-04-18T07:45:41.964Z</time></trkpt><trkpt lat="44.4491427" lon="10.8238556"><ele>448.00000000000006</ele><time>2026-04-18T07:45:42.965Z</time></trkpt><trkpt lat="44.4491112" lon="10.8237658"><ele>448.0</ele><time>2026-04-18T07:45:43.964Z</time></trkpt><trkpt lat="44.4491031" lon="10.8236775"><ele>448.0</ele><time>2026-04-18T07:45:44.965Z</time></trkpt><trkpt lat="44.4490962" lon="10.823529"><ele>448.0</ele><time>2026-04-18T07:45:46.964Z</time></trkpt><trkpt lat="44.4490875" lon="10.8233718"><ele>448.00000000000006</ele><time>2026-04-18T07:45:48.964Z</time></trkpt><trkpt lat="44.4490829" lon="10.8232828"><ele>448.0</ele><time>2026-04-18T07:45:49.965Z</time></trkpt><trkpt lat="44.4490737" lon="10.8231908"><ele>445.83333333333337</ele><time>2026-04-18T07:45:50.964Z</time></trkpt><trkpt lat="44.4490577" lon="10.8230957"><ele>443.6666666666667</ele><time>2026-04-18T07:45:51.964Z</time></trkpt><trkpt lat="44.4490449" lon="10.8230047"><ele>441.5</ele><time>2026-04-18T07:45:52.965Z</time></trkpt><trkpt lat="44.4490435" lon="10.8229003"><ele>439.33333333333337</ele><time>2026-04-18T07:45:53.964Z</time></trkpt><trkpt lat="44.4490531" lon="10.8228018"><ele>437.1666666666667</ele><time>2026-04-18T07:45:54.964Z</time></trkpt><trkpt lat="44.4490661" lon="10.8226365"><ele>435.0</ele><time>2026-04-18T07:45:56.965Z</time></trkpt><trkpt lat="44.4490292" lon="10.822521"><ele>434.8</ele><time>2026-04-18T07:45:58.965Z</time></trkpt><trkpt lat="44.4489584" lon="10.8224323"><ele>434.6</ele><time>2026-04-18T07:46:00.964Z</time></trkpt><trkpt lat="44.4488711" lon="10.8223396"><ele>434.4</ele><time>2026-04-18T07:46:02.965Z</time></trkpt><trkpt lat="44.4487681" lon="10.8222278"><ele>434.2</ele><time>2026-04-18T07:46:04.965Z</time></trkpt><trkpt lat="44.4487133" lon="10.8221658"><ele>434.0</ele><time>2026-04-18T07:46:05.964Z</time></trkpt><trkpt lat="44.4486617" lon="10.8220994"><ele>437.49999999999994</ele><time>2026-04-18T07:46:06.964Z</time></trkpt><trkpt lat="44.4486124" lon="10.8220298"><ele>441.0</ele><time>2026-04-18T07:46:07.964Z</time></trkpt><trkpt lat="44.4485624" lon="10.8219649"><ele>444.5</ele><time>2026-04-18T07:46:08.965Z</time></trkpt><trkpt lat="44.4485117" lon="10.8219007"><ele>448.0</ele><time>2026-04-18T07:46:09.964Z</time></trkpt><trkpt lat="44.4484181" lon="10.8217829"><ele>451.49999999999994</ele><time>2026-04-18T07:46:11.964Z</time></trkpt><trkpt lat="44.4483389" lon="10.8216638"><ele>455.0</ele><time>2026-04-18T07:46:13.965Z</time></trkpt><trkpt lat="44.4483125" lon="10.821525"><ele>456.0</ele><time>2026-04-18T07:46:15.964Z</time></trkpt><trkpt lat="44.4483526" lon="10.8213804"><ele>457.0</ele><time>2026-04-18T07:46:17.965Z</time></trkpt><trkpt lat="44.4484212" lon="10.8212369"><ele>458.0</ele><time>2026-04-18T07:46:19.965Z</time></trkpt><trkpt lat="44.4484616" lon="10.8211175"><ele>459.0</ele><time>2026-04-18T07:46:21.965Z</time></trkpt><trkpt lat="44.4484388" lon="10.8210024"><ele>460.0</ele><time>2026-04-18T07:46:23.965Z</time></trkpt><trkpt lat="44.4483632" lon="10.8209183"><ele>461.50000000000006</ele><time>2026-04-18T07:46:25.965Z</time></trkpt><trkpt lat="44.4482687" lon="10.8208485"><ele>463.0</ele><time>2026-04-18T07:46:27.964Z</time></trkpt><trkpt lat="44.4481965" lon="10.8207834"><ele>464.5</ele><time>2026-04-18T07:46:29.964Z</time></trkpt><trkpt lat="44.448165" lon="10.8206988"><ele>466.0</ele><time>2026-04-18T07:46:52.964Z</time></trkpt><trkpt lat="44.4482077" lon="10.8206318"><ele>467.50000000000006</ele><time>2026-04-18T07:46:56.964Z</time></trkpt><trkpt lat="44.4482645" lon="10.8205838"><ele>469.0</ele><time>2026-04-18T07:47:00.964Z</time></trkpt><trkpt lat="44.4483108" lon="10.8205004"><ele>469.00000000000006</ele><time>2026-04-18T07:47:04.964Z</time></trkpt><trkpt lat="44.4483673" lon="10.8204215"><ele>469.0</ele><time>2026-04-18T07:47:07.964Z</time></trkpt><trkpt lat="44.4484127" lon="10.8203419"><ele>469.0</ele><time>2026-04-18T07:47:10.964Z</time></trkpt><trkpt lat="44.4484566" lon="10.820264"><ele>469.0</ele><time>2026-04-18T07:47:13.964Z</time></trkpt><trkpt lat="44.4484984" lon="10.8201833"><ele>469.00000000000006</ele><time>2026-04-18T07:47:16.965Z</time></trkpt><trkpt lat="44.4485451" lon="10.8200878"><ele>469.0</ele><time>2026-04-18T07:47:19.964Z</time></trkpt><trkpt lat="44.4486021" lon="10.8199832"><ele>467.33333333333337</ele><time>2026-04-18T07:47:22.964Z</time></trkpt><trkpt lat="44.448649" lon="10.8198727"><ele>465.6666666666667</ele><time>2026-04-18T07:47:25.964Z</time></trkpt><trkpt lat="44.448671" lon="10.8197566"><ele>464.0</ele><time>2026-04-18T07:47:28.964Z</time></trkpt><trkpt lat="44.4486718" lon="10.8196592"><ele>462.33333333333337</ele><time>2026-04-18T07:47:31.964Z</time></trkpt><trkpt lat="44.4486692" lon="10.819551"><ele>460.6666666666667</ele><time>2026-04-18T07:47:34.965Z</time></trkpt><trkpt lat="44.4486411" lon="10.8194697"><ele>459.0</ele><time>2026-04-18T07:47:36.965Z</time></trkpt><trkpt lat="44.4486066" lon="10.819385"><ele>456.14285714285717</ele><time>2026-04-18T07:47:38.965Z</time></trkpt><trkpt lat="44.4485992" lon="10.8192974"><ele>453.2857142857143</ele><time>2026-04-18T07:47:40.964Z</time></trkpt><trkpt lat="44.4486259" lon="10.8192035"><ele>450.42857142857144</ele><time>2026-04-18T07:47:42.964Z</time></trkpt><trkpt lat="44.4486492" lon="10.8191095"><ele>447.57142857142856</ele><time>2026-04-18T07:47:44.964Z</time></trkpt><trkpt lat="44.4486742" lon="10.8190123"><ele>444.71428571428567</ele><time>2026-04-18T07:47:46.964Z</time></trkpt><trkpt lat="44.4486922" lon="10.8189017"><ele>441.85714285714283</ele><time>2026-04-18T07:47:48.964Z</time></trkpt><trkpt lat="44.4486979" lon="10.8187928"><ele>439.0</ele><time>2026-04-18T07:47:50.965Z</time></trkpt><trkpt lat="44.448691" lon="10.8186896"><ele>439.00000000000006</ele><time>2026-04-18T07:47:52.964Z</time></trkpt><trkpt lat="44.4486524" lon="10.8186018"><ele>439.0</ele><time>2026-04-18T07:47:54.965Z</time></trkpt><trkpt lat="44.4485614" lon="10.8185537"><ele>439.0</ele><time>2026-04-18T07:47:56.964Z</time></trkpt><trkpt lat="44.4484708" lon="10.8185293"><ele>439.0</ele><time>2026-04-18T07:47:57.965Z</time></trkpt><trkpt lat="44.4484017" lon="10.8185126"><ele>439.00000000000006</ele><time>2026-04-18T07:47:58.964Z</time></trkpt><trkpt lat="44.4483237" lon="10.8185045"><ele>439.0</ele><time>2026-04-18T07:47:59.964Z</time></trkpt><trkpt lat="44.4481902" lon="10.8185029"><ele>439.00000000000006</ele><time>2026-04-18T07:48:01.964Z</time></trkpt><trkpt lat="44.448127" lon="10.8185021"><ele>439.0</ele><time>2026-04-18T07:48:02.965Z</time></trkpt><trkpt lat="44.4480103" lon="10.818519"><ele>439.0</ele><time>2026-04-18T07:48:04.964Z</time></trkpt><trkpt lat="44.4478866" lon="10.8185326"><ele>439.0</ele><time>2026-04-18T07:48:06.964Z</time></trkpt><trkpt lat="44.4478221" lon="10.8185193"><ele>439.00000000000006</ele><time>2026-04-18T07:48:07.964Z</time></trkpt><trkpt lat="44.447758" lon="10.8185028"><ele>439.0</ele><time>2026-04-18T07:48:08.965Z</time></trkpt><trkpt lat="44.4476935" lon="10.8184837"><ele>436.0</ele><time>2026-04-18T07:48:09.965Z</time></trkpt><trkpt lat="44.4475769" lon="10.8184543"><ele>433.0</ele><time>2026-04-18T07:48:11.965Z</time></trkpt><trkpt lat="44.4474794" lon="10.8183976"><ele>430.0</ele><time>2026-04-18T07:48:13.964Z</time></trkpt><trkpt lat="44.4474589" lon="10.818284"><ele>427.0</ele><time>2026-04-18T07:48:15.965Z</time></trkpt><trkpt lat="44.4474867" lon="10.8181437"><ele>424.0</ele><time>2026-04-18T07:48:17.964Z</time></trkpt><trkpt lat="44.4475364" lon="10.8180014"><ele>424.00000000000006</ele><time>2026-04-18T07:48:19.965Z</time></trkpt><trkpt lat="44.4475831" lon="10.8178825"><ele>424.0</ele><time>2026-04-18T07:48:21.965Z</time></trkpt><trkpt lat="44.4476215" lon="10.8177752"><ele>424.0</ele><time>2026-04-18T07:48:24.964Z</time></trkpt><trkpt lat="44.4476057" lon="10.8176767"><ele>424.0</ele><time>2026-04-18T07:48:28.965Z</time></trkpt><trkpt lat="44.4475315" lon="10.8176369"><ele>424.00000000000006</ele><time>2026-04-18T07:48:31.964Z</time></trkpt><trkpt lat="44.447448" lon="10.8175855"><ele>424.0</ele><time>2026-04-18T07:48:33.964Z</time></trkpt><trkpt lat="44.4473794" lon="10.8175398"><ele>422.1666666666667</ele><time>2026-04-18T07:48:35.964Z</time></trkpt><trkpt lat="44.4473199" lon="10.8175021"><ele>420.33333333333337</ele><time>2026-04-18T07:48:37.964Z</time></trkpt><trkpt lat="44.4472474" lon="10.8174688"><ele>418.5</ele><time>2026-04-18T07:48:47.965Z</time></trkpt><trkpt lat="44.4471637" lon="10.8174223"><ele>416.66666666666663</ele><time>2026-04-18T07:48:49.964Z</time></trkpt><trkpt lat="44.4470698" lon="10.8174014"><ele>414.8333333333333</ele><time>2026-04-18T07:48:51.964Z</time></trkpt><trkpt lat="44.4469668" lon="10.8174096"><ele>413.0</ele><time>2026-04-18T07:48:53.964Z</time></trkpt><trkpt lat="44.4468523" lon="10.8174529"><ele>412.99999999999994</ele><time>2026-04-18T07:48:55.964Z</time></trkpt><trkpt lat="44.4467866" lon="10.8174825"><ele>413.0</ele><time>2026-04-18T07:48:56.965Z</time></trkpt><trkpt lat="44.4467203" lon="10.8175168"><ele>413.0</ele><time>2026-04-18T07:48:57.964Z</time></trkpt><trkpt lat="44.446661" lon="10.8175547"><ele>413.0</ele><time>2026-04-18T07:48:58.964Z</time></trkpt><trkpt lat="44.4465517" lon="10.8176074"><ele>412.99999999999994</ele><time>2026-04-18T07:49:00.965Z</time></trkpt><trkpt lat="44.4464418" lon="10.817637"><ele>413.0</ele><time>2026-04-18T07:49:02.964Z</time></trkpt><trkpt lat="44.4463317" lon="10.8176067"><ele>412.99999999999994</ele><time>2026-04-18T07:49:04.965Z</time></trkpt><trkpt lat="44.4462339" lon="10.8175385"><ele>413.0</ele><time>2026-04-18T07:49:06.964Z</time></trkpt><trkpt lat="44.446134" lon="10.8174692"><ele>413.0</ele><time>2026-04-18T07:49:08.964Z</time></trkpt><trkpt lat="44.4460735" lon="10.8174394"><ele>413.0</ele><time>2026-04-18T07:49:09.964Z</time></trkpt><trkpt lat="44.4460115" lon="10.8174055"><ele>412.99999999999994</ele><time>2026-04-18T07:49:10.964Z</time></trkpt><trkpt lat="44.4459512" lon="10.8173721"><ele>413.0</ele><time>2026-04-18T07:49:11.964Z</time></trkpt><trkpt lat="44.4458422" lon="10.8173239"><ele>413.0</ele><time>2026-04-18T07:49:13.965Z</time></trkpt><trkpt lat="44.4457365" lon="10.8172697"><ele>413.0</ele><time>2026-04-18T07:49:15.964Z</time></trkpt><trkpt lat="44.445626" lon="10.8172414"><ele>413.0</ele><time>2026-04-18T07:49:17.964Z</time></trkpt><trkpt lat="44.4454999" lon="10.8172074"><ele>413.0</ele><time>2026-04-18T07:49:19.965Z</time></trkpt><trkpt lat="44.4454333" lon="10.8171849"><ele>413.0</ele><time>2026-04-18T07:49:20.964Z</time></trkpt><trkpt lat="44.4453678" lon="10.8171636"><ele>413.99999999999994</ele><time>2026-04-18T07:49:21.965Z</time></trkpt><trkpt lat="44.4453049" lon="10.8171391"><ele>415.0</ele><time>2026-04-18T07:49:22.965Z</time></trkpt><trkpt lat="44.4452415" lon="10.8171191"><ele>416.0</ele><time>2026-04-18T07:49:23.965Z</time></trkpt><trkpt lat="44.4451722" lon="10.8171042"><ele>417.0</ele><time>2026-04-18T07:49:24.964Z</time></trkpt><trkpt lat="44.4450549" lon="10.8170946"><ele>417.99999999999994</ele><time>2026-04-18T07:49:26.964Z</time></trkpt><trkpt lat="44.444955" lon="10.8170789"><ele>419.0</ele><time>2026-04-18T07:49:28.965Z</time></trkpt><trkpt lat="44.4448712" lon="10.8169908"><ele>418.99999999999994</ele><time>2026-04-18T07:49:30.964Z</time></trkpt><trkpt lat="44.4448301" lon="10.8169218"><ele>419.0</ele><time>2026-04-18T07:49:31.965Z</time></trkpt><trkpt lat="44.4447864" lon="10.8168472"><ele>419.0</ele><time>2026-04-18T07:49:32.964Z</time></trkpt><trkpt lat="44.4447394" lon="10.8167691"><ele>419.0</ele><time>2026-04-18T07:49:33.964Z</time></trkpt><trkpt lat="44.4446937" lon="10.816698"><ele>419.0</ele><time>2026-04-18T07:49:34.965Z</time></trkpt><trkpt lat="44.444642" lon="10.8166313"><ele>418.99999999999994</ele><time>2026-04-18T07:49:35.965Z</time></trkpt><trkpt lat="44.4445887" lon="10.81657"><ele>419.0</ele><time>2026-04-18T07:49:36.965Z</time></trkpt><trkpt lat="44.4444984" lon="10.8164751"><ele>418.8333333333333</ele><time>2026-04-18T07:49:38.965Z</time></trkpt><trkpt lat="44.4444288" lon="10.8164054"><ele>418.66666666666663</ele><time>2026-04-18T07:49:40.964Z</time></trkpt><trkpt lat="44.444367" lon="10.8163564"><ele>418.5</ele><time>2026-04-18T07:49:42.965Z</time></trkpt><trkpt lat="44.444306" lon="10.816297"><ele>418.33333333333337</ele><time>2026-04-18T07:49:44.964Z</time></trkpt><trkpt lat="44.4442328" lon="10.8162297"><ele>418.1666666666667</ele><time>2026-04-18T07:49:46.964Z</time></trkpt><trkpt lat="44.444164" lon="10.816165"><ele>418.0</ele><time>2026-04-18T07:49:48.965Z</time></trkpt><trkpt lat="44.4440912" lon="10.8160899"><ele>418.00000000000006</ele><time>2026-04-18T07:49:50.964Z</time></trkpt><trkpt lat="44.4440295" lon="10.8160301"><ele>418.0</ele><time>2026-04-18T07:49:52.964Z</time></trkpt><trkpt lat="44.4439739" lon="10.8159594"><ele>418.0</ele><time>2026-04-18T07:49:54.964Z</time></trkpt><trkpt lat="44.4439175" lon="10.8158854"><ele>418.0</ele><time>2026-04-18T07:49:56.964Z</time></trkpt><trkpt lat="44.4438627" lon="10.8158101"><ele>418.00000000000006</ele><time>2026-04-18T07:49:58.965Z</time></trkpt><trkpt lat="44.4437829" lon="10.8157326"><ele>418.0</ele><time>2026-04-18T07:50:00.965Z</time></trkpt><trkpt lat="44.4436628" lon="10.8156632"><ele>418.1666666666667</ele><time>2026-04-18T07:50:02.964Z</time></trkpt><trkpt lat="44.4435878" lon="10.8156492"><ele>418.33333333333337</ele><time>2026-04-18T07:50:03.964Z</time></trkpt><trkpt lat="44.4435141" lon="10.8156576"><ele>418.5</ele><time>2026-04-18T07:50:04.965Z</time></trkpt><trkpt lat="44.4434329" lon="10.81566"><ele>418.66666666666663</ele><time>2026-04-18T07:50:05.965Z</time></trkpt><trkpt lat="44.443355" lon="10.8156489"><ele>418.8333333333333</ele><time>2026-04-18T07:50:06.965Z</time></trkpt><trkpt lat="44.4432779" lon="10.8156209"><ele>419.0</ele><time>2026-04-18T07:50:07.965Z</time></trkpt><trkpt lat="44.4432035" lon="10.8155907"><ele>418.99999999999994</ele><time>2026-04-18T07:50:08.965Z</time></trkpt><trkpt lat="44.44312" lon="10.8155881"><ele>419.0</ele><time>2026-04-18T07:50:09.965Z</time></trkpt><trkpt lat="44.4430343" lon="10.8156098"><ele>419.0</ele><time>2026-04-18T07:50:10.965Z</time></trkpt><trkpt lat="44.4429535" lon="10.8156575"><ele>419.0</ele><time>2026-04-18T07:50:11.964Z</time></trkpt><trkpt lat="44.4428828" lon="10.8157186"><ele>418.99999999999994</ele><time>2026-04-18T07:50:12.965Z</time></trkpt><trkpt lat="44.4428155" lon="10.81578"><ele>419.0</ele><time>2026-04-18T07:50:13.964Z</time></trkpt><trkpt lat="44.4427439" lon="10.8158482"><ele>419.8333333333333</ele><time>2026-04-18T07:50:14.965Z</time></trkpt><trkpt lat="44.4426813" lon="10.8159272"><ele>420.66666666666663</ele><time>2026-04-18T07:50:15.964Z</time></trkpt><trkpt lat="44.4426359" lon="10.8160155"><ele>421.5</ele><time>2026-04-18T07:50:16.965Z</time></trkpt><trkpt lat="44.4425969" lon="10.8161145"><ele>422.33333333333337</ele><time>2026-04-18T07:50:17.964Z</time></trkpt><trkpt lat="44.4425663" lon="10.8162188"><ele>423.1666666666667</ele><time>2026-04-18T07:50:18.964Z</time></trkpt><trkpt lat="44.4425305" lon="10.8163231"><ele>424.0</ele><time>2026-04-18T07:50:19.964Z</time></trkpt><trkpt lat="44.4424808" lon="10.8163894"><ele>427.1666666666667</ele><time>2026-04-18T07:50:20.965Z</time></trkpt><trkpt lat="44.4424156" lon="10.8164446"><ele>430.33333333333337</ele><time>2026-04-18T07:50:21.965Z</time></trkpt><trkpt lat="44.4423399" lon="10.8164639"><ele>433.5</ele><time>2026-04-18T07:50:22.964Z</time></trkpt><trkpt lat="44.4422615" lon="10.8164506"><ele>436.66666666666663</ele><time>2026-04-18T07:50:23.964Z</time></trkpt><trkpt lat="44.4421827" lon="10.8164144"><ele>439.8333333333333</ele><time>2026-04-18T07:50:24.965Z</time></trkpt><trkpt lat="44.4421075" lon="10.8163733"><ele>443.0</ele><time>2026-04-18T07:50:25.964Z</time></trkpt><trkpt lat="44.4420299" lon="10.8163293"><ele>443.59999999999997</ele><time>2026-04-18T07:50:26.965Z</time></trkpt><trkpt lat="44.4419582" lon="10.8162977"><ele>444.19999999999993</ele><time>2026-04-18T07:50:27.964Z</time></trkpt><trkpt lat="44.4418945" lon="10.8162647"><ele>444.8</ele><time>2026-04-18T07:50:28.964Z</time></trkpt><trkpt lat="44.4417656" lon="10.8162307"><ele>445.4</ele><time>2026-04-18T07:50:30.964Z</time></trkpt><trkpt lat="44.4416692" lon="10.816204"><ele>446.0</ele><time>2026-04-18T07:50:32.964Z</time></trkpt><trkpt lat="44.4415873" lon="10.8161585"><ele>446.0</ele><time>2026-04-18T07:50:34.964Z</time></trkpt><trkpt lat="44.4415299" lon="10.8160555"><ele>446.0</ele><time>2026-04-18T07:50:51.964Z</time></trkpt><trkpt lat="44.4414544" lon="10.8159875"><ele>446.0</ele><time>2026-04-18T07:50:53.965Z</time></trkpt><trkpt lat="44.4413744" lon="10.8159133"><ele>446.0</ele><time>2026-04-18T07:50:55.965Z</time></trkpt><trkpt lat="44.4412953" lon="10.8158253"><ele>446.0</ele><time>2026-04-18T07:50:57.964Z</time></trkpt><trkpt lat="44.4411687" lon="10.8158266"><ele>441.99999999999994</ele><time>2026-04-18T07:50:59.965Z</time></trkpt><trkpt lat="44.4411001" lon="10.8158588"><ele>438.0</ele><time>2026-04-18T07:51:00.965Z</time></trkpt><trkpt lat="44.4410255" lon="10.8158847"><ele>434.0</ele><time>2026-04-18T07:51:01.964Z</time></trkpt><trkpt lat="44.440949" lon="10.8158878"><ele>430.0</ele><time>2026-04-18T07:51:02.965Z</time></trkpt><trkpt lat="44.4408721" lon="10.8158702"><ele>425.99999999999994</ele><time>2026-04-18T07:51:03.964Z</time></trkpt><trkpt lat="44.4407945" lon="10.8158454"><ele>422.0</ele><time>2026-04-18T07:51:04.964Z</time></trkpt><trkpt lat="44.4407096" lon="10.8158257"><ele>421.99999999999994</ele><time>2026-04-18T07:51:05.965Z</time></trkpt><trkpt lat="44.440626" lon="10.8158087"><ele>422.0</ele><time>2026-04-18T07:51:06.964Z</time></trkpt><trkpt lat="44.4405488" lon="10.815758"><ele>422.0</ele><time>2026-04-18T07:51:07.965Z</time></trkpt><trkpt lat="44.4404829" lon="10.8156798"><ele>422.0</ele><time>2026-04-18T07:51:08.965Z</time></trkpt><trkpt lat="44.4404298" lon="10.8155838"><ele>421.99999999999994</ele><time>2026-04-18T07:51:09.965Z</time></trkpt><trkpt lat="44.4403913" lon="10.8154801"><ele>422.0</ele><time>2026-04-18T07:51:10.964Z</time></trkpt><trkpt lat="44.4403764" lon="10.8153595"><ele>421.40000000000003</ele><time>2026-04-18T07:51:11.965Z</time></trkpt><trkpt lat="44.4403795" lon="10.8152326"><ele>420.8</ele><time>2026-04-18T07:51:12.964Z</time></trkpt><trkpt lat="44.4403952" lon="10.8151097"><ele>420.2</ele><time>2026-04-18T07:51:13.964Z</time></trkpt><trkpt lat="44.4404204" lon="10.8149869"><ele>419.6</ele><time>2026-04-18T07:51:14.965Z</time></trkpt><trkpt lat="44.4404572" lon="10.8148578"><ele>419.0</ele><time>2026-04-18T07:51:15.965Z</time></trkpt><trkpt lat="44.4404964" lon="10.8147408"><ele>417.66666666666663</ele><time>2026-04-18T07:51:16.964Z</time></trkpt><trkpt lat="44.4405365" lon="10.8146496"><ele>416.3333333333333</ele><time>2026-04-18T07:51:17.965Z</time></trkpt><trkpt lat="44.4405975" lon="10.8145283"><ele>415.0</ele><time>2026-04-18T07:51:19.964Z</time></trkpt><trkpt lat="44.4406572" lon="10.8144454"><ele>413.66666666666663</ele><time>2026-04-18T07:53:27.964Z</time></trkpt><trkpt lat="44.4407235" lon="10.8143654"><ele>412.3333333333333</ele><time>2026-04-18T07:53:29.965Z</time></trkpt><trkpt lat="44.4407577" lon="10.8142873"><ele>411.0</ele><time>2026-04-18T07:53:30.964Z</time></trkpt><trkpt lat="44.4407818" lon="10.8141846"><ele>409.20000000000005</ele><time>2026-04-18T07:53:31.964Z</time></trkpt><trkpt lat="44.4408051" lon="10.8140723"><ele>407.40000000000003</ele><time>2026-04-18T07:53:32.964Z</time></trkpt><trkpt lat="44.4408422" lon="10.8139578"><ele>405.6</ele><time>2026-04-18T07:53:33.964Z</time></trkpt><trkpt lat="44.4409024" lon="10.8138387"><ele>403.8</ele><time>2026-04-18T07:53:34.964Z</time></trkpt><trkpt lat="44.4409807" lon="10.8137162"><ele>402.0</ele><time>2026-04-18T07:53:35.965Z</time></trkpt><trkpt lat="44.4410431" lon="10.8135791"><ele>400.6</ele><time>2026-04-18T07:53:36.964Z</time></trkpt><trkpt lat="44.4410871" lon="10.8134444"><ele>399.20000000000005</ele><time>2026-04-18T07:53:37.965Z</time></trkpt><trkpt lat="44.4411318" lon="10.8133141"><ele>397.8</ele><time>2026-04-18T07:53:38.965Z</time></trkpt><trkpt lat="44.4411868" lon="10.8132008"><ele>396.4</ele><time>2026-04-18T07:53:39.964Z</time></trkpt><trkpt lat="44.4412603" lon="10.8131173"><ele>395.0</ele><time>2026-04-18T07:53:40.965Z</time></trkpt><trkpt lat="44.4413527" lon="10.8130816"><ele>395.0</ele><time>2026-04-18T07:53:41.965Z</time></trkpt><trkpt lat="44.4414616" lon="10.8130689"><ele>395.0</ele><time>2026-04-18T07:53:42.965Z</time></trkpt><trkpt lat="44.4415786" lon="10.813059"><ele>395.0</ele><time>2026-04-18T07:53:43.965Z</time></trkpt><trkpt lat="44.4416939" lon="10.8130514"><ele>395.0</ele><time>2026-04-18T07:53:44.964Z</time></trkpt><trkpt lat="44.4417977" lon="10.8130396"><ele>395.0</ele><time>2026-04-18T07:53:45.964Z</time></trkpt><trkpt lat="44.4418991" lon="10.8130322"><ele>395.0</ele><time>2026-04-18T07:53:46.964Z</time></trkpt><trkpt lat="44.4419999" lon="10.8130308"><ele>395.0</ele><time>2026-04-18T07:53:47.965Z</time></trkpt><trkpt lat="44.4420906" lon="10.8130566"><ele>395.0</ele><time>2026-04-18T07:53:48.964Z</time></trkpt><trkpt lat="44.4421812" lon="10.8131005"><ele>395.0</ele><time>2026-04-18T07:53:49.964Z</time></trkpt><trkpt lat="44.442269" lon="10.8131464"><ele>395.0</ele><time>2026-04-18T07:53:50.964Z</time></trkpt><trkpt lat="44.4423692" lon="10.8131907"><ele>396.75</ele><time>2026-04-18T07:53:51.964Z</time></trkpt><trkpt lat="44.4424736" lon="10.813239"><ele>398.5</ele><time>2026-04-18T07:53:52.965Z</time></trkpt><trkpt lat="44.4425682" lon="10.8133111"><ele>400.25</ele><time>2026-04-18T07:53:53.964Z</time></trkpt><trkpt lat="44.4426637" lon="10.8134074"><ele>402.0</ele><time>2026-04-18T07:53:54.964Z</time></trkpt><trkpt lat="44.4427646" lon="10.8135051"><ele>402.0</ele><time>2026-04-18T07:53:55.965Z</time></trkpt><trkpt lat="44.4428717" lon="10.8135921"><ele>402.0</ele><time>2026-04-18T07:53:56.965Z</time></trkpt><trkpt lat="44.4429832" lon="10.8136489"><ele>402.0</ele><time>2026-04-18T07:53:57.965Z</time></trkpt><trkpt lat="44.4430918" lon="10.8136894"><ele>402.0</ele><time>2026-04-18T07:53:58.965Z</time></trkpt><trkpt lat="44.4431953" lon="10.8137165"><ele>399.8</ele><time>2026-04-18T07:53:59.964Z</time></trkpt><trkpt lat="44.4432927" lon="10.8137547"><ele>397.6</ele><time>2026-04-18T07:54:00.964Z</time></trkpt><trkpt lat="44.443375" lon="10.81382"><ele>395.40000000000003</ele><time>2026-04-18T07:54:01.965Z</time></trkpt><trkpt lat="44.4434537" lon="10.8138948"><ele>393.20000000000005</ele><time>2026-04-18T07:54:02.964Z</time></trkpt><trkpt lat="44.4435558" lon="10.813945"><ele>391.0</ele><time>2026-04-18T07:54:03.964Z</time></trkpt><trkpt lat="44.4436703" lon="10.8139554"><ele>391.0</ele><time>2026-04-18T07:54:04.965Z</time></trkpt><trkpt lat="44.4437919" lon="10.8139571"><ele>391.0</ele><time>2026-04-18T07:54:05.964Z</time></trkpt><trkpt lat="44.4439214" lon="10.8139585"><ele>391.0</ele><time>2026-04-18T07:54:06.964Z</time></trkpt><trkpt lat="44.4440536" lon="10.8139428"><ele>391.0</ele><time>2026-04-18T07:54:07.964Z</time></trkpt><trkpt lat="44.444181" lon="10.8139037"><ele>390.8</ele><time>2026-04-18T07:54:08.965Z</time></trkpt><trkpt lat="44.4442942" lon="10.8138492"><ele>390.6</ele><time>2026-04-18T07:54:09.964Z</time></trkpt><trkpt lat="44.4443958" lon="10.8137824"><ele>390.4</ele><time>2026-04-18T07:54:10.964Z</time></trkpt><trkpt lat="44.444487" lon="10.8137103"><ele>390.2</ele><time>2026-04-18T07:54:11.965Z</time></trkpt><trkpt lat="44.4445721" lon="10.8136405"><ele>390.0</ele><time>2026-04-18T07:54:12.964Z</time></trkpt><trkpt lat="44.4446515" lon="10.8135782"><ele>389.5</ele><time>2026-04-18T07:54:13.965Z</time></trkpt><trkpt lat="44.4447261" lon="10.8135323"><ele>389.0</ele><time>2026-04-18T07:54:14.965Z</time></trkpt><trkpt lat="44.4447963" lon="10.8135067"><ele>388.5</ele><time>2026-04-18T07:54:15.964Z</time></trkpt><trkpt lat="44.4448812" lon="10.813455"><ele>388.0</ele><time>2026-04-18T07:54:17.965Z</time></trkpt><trkpt lat="44.4448815" lon="10.8133395"><ele>387.5</ele><time>2026-04-18T07:54:19.965Z</time></trkpt><trkpt lat="44.444823" lon="10.8132098"><ele>387.0</ele><time>2026-04-18T07:54:21.965Z</time></trkpt><trkpt lat="44.4447193" lon="10.8131165"><ele>384.40000000000003</ele><time>2026-04-18T07:54:23.965Z</time></trkpt><trkpt lat="44.4446241" lon="10.8130985"><ele>381.8</ele><time>2026-04-18T07:54:24.964Z</time></trkpt><trkpt lat="44.4445493" lon="10.8130652"><ele>379.2</ele><time>2026-04-18T07:54:25.964Z</time></trkpt><trkpt lat="44.444462" lon="10.8129903"><ele>376.6</ele><time>2026-04-18T07:54:26.964Z</time></trkpt><trkpt lat="44.4443753" lon="10.8129304"><ele>374.0</ele><time>2026-04-18T07:54:27.964Z</time></trkpt><trkpt lat="44.4442845" lon="10.8128603"><ele>374.0</ele><time>2026-04-18T07:54:28.964Z</time></trkpt><trkpt lat="44.4441903" lon="10.8128167"><ele>374.0</ele><time>2026-04-18T07:54:29.964Z</time></trkpt><trkpt lat="44.4441148" lon="10.812788"><ele>374.0</ele><time>2026-04-18T07:54:30.965Z</time></trkpt><trkpt lat="44.4440551" lon="10.8127526"><ele>374.0</ele><time>2026-04-18T07:54:31.964Z</time></trkpt><trkpt lat="44.4440031" lon="10.8126364"><ele>374.0</ele><time>2026-04-18T07:54:33.964Z</time></trkpt><trkpt lat="44.443976" lon="10.8125254"><ele>374.0</ele><time>2026-04-18T07:54:35.964Z</time></trkpt><trkpt lat="44.4439353" lon="10.8124391"><ele>374.0</ele><time>2026-04-18T07:54:38.964Z</time></trkpt><trkpt lat="44.4438595" lon="10.8124207"><ele>374.0</ele><time>2026-04-18T07:54:43.964Z</time></trkpt><trkpt lat="44.4437454" lon="10.8124097"><ele>374.0</ele><time>2026-04-18T07:54:45.965Z</time></trkpt><trkpt lat="44.4436771" lon="10.8124085"><ele>374.0</ele><time>2026-04-18T07:54:46.964Z</time></trkpt><trkpt lat="44.4436022" lon="10.812412"><ele>374.0</ele><time>2026-04-18T07:54:47.964Z</time></trkpt><trkpt lat="44.4435307" lon="10.8124196"><ele>374.0</ele><time>2026-04-18T07:54:48.964Z</time></trkpt><trkpt lat="44.4434622" lon="10.8124214"><ele>374.0</ele><time>2026-04-18T07:54:49.965Z</time></trkpt><trkpt lat="44.4433564" lon="10.8124158"><ele>374.0</ele><time>2026-04-18T07:54:51.965Z</time></trkpt><trkpt lat="44.443263" lon="10.8123679"><ele>374.0</ele><time>2026-04-18T07:54:53.964Z</time></trkpt><trkpt lat="44.4432031" lon="10.8122719"><ele>374.0</ele><time>2026-04-18T07:54:55.964Z</time></trkpt><trkpt lat="44.4431839" lon="10.8121141"><ele>374.0</ele><time>2026-04-18T07:54:57.964Z</time></trkpt><trkpt lat="44.4431927" lon="10.8120237"><ele>374.0</ele><time>2026-04-18T07:54:58.965Z</time></trkpt><trkpt lat="44.4432083" lon="10.8118666"><ele>374.0</ele><time>2026-04-18T07:55:00.965Z</time></trkpt><trkpt lat="44.4432016" lon="10.8117078"><ele>374.0</ele><time>2026-04-18T07:55:02.965Z</time></trkpt><trkpt lat="44.4431613" lon="10.8115624"><ele>374.0</ele><time>2026-04-18T07:55:04.964Z</time></trkpt><trkpt lat="44.4431023" lon="10.8114186"><ele>375.6</ele><time>2026-04-18T07:55:06.965Z</time></trkpt><trkpt lat="44.4430329" lon="10.8112976"><ele>377.2</ele><time>2026-04-18T07:55:08.965Z</time></trkpt><trkpt lat="44.4429505" lon="10.8112156"><ele>378.8</ele><time>2026-04-18T07:55:10.964Z</time></trkpt><trkpt lat="44.4428497" lon="10.8111246"><ele>380.40000000000003</ele><time>2026-04-18T07:55:12.965Z</time></trkpt><trkpt lat="44.4427715" lon="10.8110513"><ele>382.0</ele><time>2026-04-18T07:55:14.964Z</time></trkpt><trkpt lat="44.4426854" lon="10.8110193"><ele>384.3333333333333</ele><time>2026-04-18T07:55:16.964Z</time></trkpt><trkpt lat="44.4426019" lon="10.8109676"><ele>386.66666666666663</ele><time>2026-04-18T07:55:18.964Z</time></trkpt><trkpt lat="44.4425364" lon="10.8109212"><ele>389.0</ele><time>2026-04-18T07:55:20.964Z</time></trkpt><trkpt lat="44.4424789" lon="10.8108626"><ele>391.3333333333333</ele><time>2026-04-18T07:55:26.965Z</time></trkpt><trkpt lat="44.4424225" lon="10.8108094"><ele>393.6666666666667</ele><time>2026-04-18T07:55:29.964Z</time></trkpt><trkpt lat="44.4423711" lon="10.8107033"><ele>396.0</ele><time>2026-04-18T07:55:32.964Z</time></trkpt><trkpt lat="44.4423179" lon="10.8106244"><ele>396.0</ele><time>2026-04-18T07:55:34.964Z</time></trkpt><trkpt lat="44.4422598" lon="10.8105677"><ele>396.0</ele><time>2026-04-18T07:55:36.964Z</time></trkpt><trkpt lat="44.4421856" lon="10.8105462"><ele>396.0</ele><time>2026-04-18T07:55:40.964Z</time></trkpt><trkpt lat="44.4420941" lon="10.8105402"><ele>396.0</ele><time>2026-04-18T07:55:43.965Z</time></trkpt><trkpt lat="44.442019" lon="10.8105317"><ele>396.0</ele><time>2026-04-18T07:55:45.964Z</time></trkpt><trkpt lat="44.4419573" lon="10.810508"><ele>396.0</ele><time>2026-04-18T07:55:47.965Z</time></trkpt><trkpt lat="44.4419092" lon="10.8104416"><ele>396.0</ele><time>2026-04-18T07:55:49.965Z</time></trkpt><trkpt lat="44.4418498" lon="10.8103848"><ele>396.5</ele><time>2026-04-18T07:55:51.965Z</time></trkpt><trkpt lat="44.4417773" lon="10.810392"><ele>397.0</ele><time>2026-04-18T07:55:53.965Z</time></trkpt><trkpt lat="44.4417061" lon="10.8103939"><ele>397.5</ele><time>2026-04-18T07:56:34.965Z</time></trkpt><trkpt lat="44.4416348" lon="10.8103688"><ele>398.0</ele><time>2026-04-18T07:59:16.964Z</time></trkpt><trkpt lat="44.4415692" lon="10.8103951"><ele>398.5</ele><time>2026-04-18T07:59:22.964Z</time></trkpt><trkpt lat="44.4414529" lon="10.8103612"><ele>399.0</ele><time>2026-04-18T08:04:24.964Z</time></trkpt><trkpt lat="44.4413297" lon="10.8103346"><ele>400.0</ele><time>2026-04-18T08:04:26.964Z</time></trkpt><trkpt lat="44.4412671" lon="10.8103004"><ele>401.0</ele><time>2026-04-18T08:04:27.964Z</time></trkpt><trkpt lat="44.441208" lon="10.8102472"><ele>402.0</ele><time>2026-04-18T08:04:28.964Z</time></trkpt><trkpt lat="44.4411482" lon="10.8101915"><ele>403.0</ele><time>2026-04-18T08:04:29.964Z</time></trkpt><trkpt lat="44.4410912" lon="10.8101326"><ele>404.0</ele><time>2026-04-18T08:04:30.965Z</time></trkpt><trkpt lat="44.4410132" lon="10.8100596"><ele>405.0</ele><time>2026-04-18T08:04:32.964Z</time></trkpt><trkpt lat="44.4409395" lon="10.8099968"><ele>407.2</ele><time>2026-04-18T08:04:34.965Z</time></trkpt><trkpt lat="44.440877" lon="10.8099355"><ele>409.4</ele><time>2026-04-18T08:04:36.964Z</time></trkpt><trkpt lat="44.4407916" lon="10.8098418"><ele>411.6</ele><time>2026-04-18T08:04:38.965Z</time></trkpt><trkpt lat="44.4407332" lon="10.8097805"><ele>413.8</ele><time>2026-04-18T08:04:39.965Z</time></trkpt><trkpt lat="44.440661" lon="10.8096962"><ele>416.0</ele><time>2026-04-18T08:04:40.964Z</time></trkpt><trkpt lat="44.4405793" lon="10.8096008"><ele>415.99999999999994</ele><time>2026-04-18T08:04:42.964Z</time></trkpt><trkpt lat="44.4405216" lon="10.8095487"><ele>416.0</ele><time>2026-04-18T08:04:44.964Z</time></trkpt><trkpt lat="44.4405148" lon="10.8094521"><ele>416.0</ele><time>2026-04-18T08:04:47.964Z</time></trkpt><trkpt lat="44.4405447" lon="10.8093457"><ele>416.0</ele><time>2026-04-18T08:06:34.965Z</time></trkpt><trkpt lat="44.4405939" lon="10.8091963"><ele>415.99999999999994</ele><time>2026-04-18T08:06:36.965Z</time></trkpt><trkpt lat="44.440636" lon="10.8091297"><ele>416.0</ele><time>2026-04-18T08:06:37.964Z</time></trkpt><trkpt lat="44.4406871" lon="10.8090756"><ele>417.49999999999994</ele><time>2026-04-18T08:06:38.964Z</time></trkpt><trkpt lat="44.4408002" lon="10.8090237"><ele>419.0</ele><time>2026-04-18T08:06:40.964Z</time></trkpt><trkpt lat="44.4409113" lon="10.8090772"><ele>420.5</ele><time>2026-04-18T08:06:42.964Z</time></trkpt><trkpt lat="44.440961" lon="10.809132"><ele>422.0</ele><time>2026-04-18T08:06:43.965Z</time></trkpt><trkpt lat="44.4410168" lon="10.8091913"><ele>423.49999999999994</ele><time>2026-04-18T08:06:44.965Z</time></trkpt><trkpt lat="44.4410741" lon="10.8092483"><ele>425.0</ele><time>2026-04-18T08:06:45.964Z</time></trkpt><trkpt lat="44.4411516" lon="10.8092964"><ele>423.49999999999994</ele><time>2026-04-18T08:06:46.964Z</time></trkpt><trkpt lat="44.4412291" lon="10.8093413"><ele>422.0</ele><time>2026-04-18T08:06:47.965Z</time></trkpt><trkpt lat="44.4413061" lon="10.8093853"><ele>420.5</ele><time>2026-04-18T08:06:48.964Z</time></trkpt><trkpt lat="44.4413867" lon="10.8094279"><ele>419.0</ele><time>2026-04-18T08:06:49.965Z</time></trkpt><trkpt lat="44.4414607" lon="10.809443"><ele>417.49999999999994</ele><time>2026-04-18T08:06:50.965Z</time></trkpt><trkpt lat="44.44154" lon="10.8094493"><ele>416.0</ele><time>2026-04-18T08:06:51.964Z</time></trkpt><trkpt lat="44.4416182" lon="10.8094642"><ele>415.49999999999994</ele><time>2026-04-18T08:06:52.964Z</time></trkpt><trkpt lat="44.4416906" lon="10.8095031"><ele>415.0</ele><time>2026-04-18T08:06:53.964Z</time></trkpt><trkpt lat="44.4417692" lon="10.809524"><ele>414.5</ele><time>2026-04-18T08:06:54.965Z</time></trkpt><trkpt lat="44.4418403" lon="10.8095631"><ele>414.0</ele><time>2026-04-18T08:06:55.964Z</time></trkpt><trkpt lat="44.4419158" lon="10.8095958"><ele>413.49999999999994</ele><time>2026-04-18T08:06:56.965Z</time></trkpt><trkpt lat="44.4420009" lon="10.809598"><ele>413.0</ele><time>2026-04-18T08:06:57.964Z</time></trkpt><trkpt lat="44.4420734" lon="10.8096061"><ele>413.3333333333333</ele><time>2026-04-18T08:06:58.965Z</time></trkpt><trkpt lat="44.4421464" lon="10.8096067"><ele>413.66666666666663</ele><time>2026-04-18T08:06:59.964Z</time></trkpt><trkpt lat="44.4422326" lon="10.809616"><ele>414.0</ele><time>2026-04-18T08:07:00.965Z</time></trkpt><trkpt lat="44.4423133" lon="10.8096208"><ele>414.33333333333337</ele><time>2026-04-18T08:07:01.964Z</time></trkpt><trkpt lat="44.4423984" lon="10.8096166"><ele>414.6666666666667</ele><time>2026-04-18T08:07:02.965Z</time></trkpt><trkpt lat="44.4424861" lon="10.8096158"><ele>415.0</ele><time>2026-04-18T08:07:03.964Z</time></trkpt><trkpt lat="44.4425754" lon="10.8096135"><ele>415.00000000000006</ele><time>2026-04-18T08:07:04.964Z</time></trkpt><trkpt lat="44.4426634" lon="10.8096165"><ele>415.0</ele><time>2026-04-18T08:07:05.964Z</time></trkpt><trkpt lat="44.442746" lon="10.8096061"><ele>415.0</ele><time>2026-04-18T08:07:06.964Z</time></trkpt><trkpt lat="44.4428295" lon="10.8095702"><ele>415.0</ele><time>2026-04-18T08:07:07.964Z</time></trkpt><trkpt lat="44.4429122" lon="10.8095334"><ele>415.00000000000006</ele><time>2026-04-18T08:07:08.964Z</time></trkpt><trkpt lat="44.4429931" lon="10.8095105"><ele>415.0</ele><time>2026-04-18T08:07:09.964Z</time></trkpt><trkpt lat="44.4430646" lon="10.8094925"><ele>414.83333333333337</ele><time>2026-04-18T08:07:10.965Z</time></trkpt><trkpt lat="44.4431353" lon="10.8094581"><ele>414.6666666666667</ele><time>2026-04-18T08:07:11.964Z</time></trkpt><trkpt lat="44.4431909" lon="10.8094058"><ele>414.5</ele><time>2026-04-18T08:07:12.964Z</time></trkpt><trkpt lat="44.4432581" lon="10.8093451"><ele>414.33333333333337</ele><time>2026-04-18T08:07:13.965Z</time></trkpt><trkpt lat="44.4433192" lon="10.8092811"><ele>414.1666666666667</ele><time>2026-04-18T08:07:14.964Z</time></trkpt><trkpt lat="44.4433818" lon="10.8092106"><ele>414.0</ele><time>2026-04-18T08:07:15.965Z</time></trkpt><trkpt lat="44.4434401" lon="10.8091248"><ele>416.6666666666667</ele><time>2026-04-18T08:07:16.965Z</time></trkpt><trkpt lat="44.4435005" lon="10.8090457"><ele>419.33333333333337</ele><time>2026-04-18T08:07:17.964Z</time></trkpt><trkpt lat="44.4435765" lon="10.808968"><ele>422.0</ele><time>2026-04-18T08:07:18.964Z</time></trkpt><trkpt lat="44.4436518" lon="10.8088966"><ele>424.6666666666667</ele><time>2026-04-18T08:07:19.964Z</time></trkpt><trkpt lat="44.4437323" lon="10.8088284"><ele>427.33333333333337</ele><time>2026-04-18T08:07:20.964Z</time></trkpt><trkpt lat="44.443803" lon="10.8087609"><ele>430.0</ele><time>2026-04-18T08:07:21.965Z</time></trkpt><trkpt lat="44.4438635" lon="10.808687"><ele>430.00000000000006</ele><time>2026-04-18T08:07:22.965Z</time></trkpt><trkpt lat="44.4439123" lon="10.8086013"><ele>430.0</ele><time>2026-04-18T08:07:23.965Z</time></trkpt><trkpt lat="44.4439505" lon="10.8085065"><ele>430.0</ele><time>2026-04-18T08:07:24.964Z</time></trkpt><trkpt lat="44.443996" lon="10.8084127"><ele>430.0</ele><time>2026-04-18T08:07:25.964Z</time></trkpt><trkpt lat="44.4440524" lon="10.808332"><ele>430.00000000000006</ele><time>2026-04-18T08:07:26.964Z</time></trkpt><trkpt lat="44.4441194" lon="10.8082599"><ele>430.0</ele><time>2026-04-18T08:07:27.965Z</time></trkpt><trkpt lat="44.4441867" lon="10.8081939"><ele>434.2</ele><time>2026-04-18T08:07:28.965Z</time></trkpt><trkpt lat="44.444271" lon="10.8081307"><ele>438.4</ele><time>2026-04-18T08:07:29.964Z</time></trkpt><trkpt lat="44.4443542" lon="10.8080733"><ele>442.6</ele><time>2026-04-18T08:07:30.964Z</time></trkpt><trkpt lat="44.4444277" lon="10.8080192"><ele>446.8</ele><time>2026-04-18T08:07:31.964Z</time></trkpt><trkpt lat="44.4444952" lon="10.8078786"><ele>451.0</ele><time>2026-04-18T08:07:33.965Z</time></trkpt><trkpt lat="44.4445333" lon="10.8077963"><ele>451.00000000000006</ele><time>2026-04-18T08:07:34.964Z</time></trkpt><trkpt lat="44.4445316" lon="10.8076937"><ele>451.0</ele><time>2026-04-18T08:07:35.964Z</time></trkpt><trkpt lat="44.4445547" lon="10.8075912"><ele>451.0</ele><time>2026-04-18T08:07:36.965Z</time></trkpt><trkpt lat="44.4445994" lon="10.8075089"><ele>451.0</ele><time>2026-04-18T08:07:37.965Z</time></trkpt><trkpt lat="44.4446684" lon="10.807441"><ele>451.00000000000006</ele><time>2026-04-18T08:07:38.965Z</time></trkpt><trkpt lat="44.4447382" lon="10.8073651"><ele>451.0</ele><time>2026-04-18T08:07:39.965Z</time></trkpt><trkpt lat="44.4448094" lon="10.8072808"><ele>450.0</ele><time>2026-04-18T08:07:40.964Z</time></trkpt><trkpt lat="44.4448784" lon="10.8071923"><ele>449.0</ele><time>2026-04-18T08:07:41.964Z</time></trkpt><trkpt lat="44.4449389" lon="10.8070944"><ele>448.0</ele><time>2026-04-18T08:07:42.964Z</time></trkpt><trkpt lat="44.4449915" lon="10.8069876"><ele>447.0</ele><time>2026-04-18T08:07:43.964Z</time></trkpt><trkpt lat="44.4450518" lon="10.8068746"><ele>446.0</ele><time>2026-04-18T08:07:44.964Z</time></trkpt><trkpt lat="44.4451174" lon="10.8067831"><ele>447.66666666666663</ele><time>2026-04-18T08:07:45.965Z</time></trkpt><trkpt lat="44.4451812" lon="10.8067013"><ele>449.3333333333333</ele><time>2026-04-18T08:07:46.964Z</time></trkpt><trkpt lat="44.4452487" lon="10.8066355"><ele>451.0</ele><time>2026-04-18T08:07:47.965Z</time></trkpt><trkpt lat="44.4453238" lon="10.8065827"><ele>452.66666666666663</ele><time>2026-04-18T08:07:48.964Z</time></trkpt><trkpt lat="44.4454109" lon="10.8065518"><ele>454.3333333333333</ele><time>2026-04-18T08:07:49.965Z</time></trkpt><trkpt lat="44.4454942" lon="10.8065011"><ele>456.0</ele><time>2026-04-18T08:07:50.964Z</time></trkpt><trkpt lat="44.4455751" lon="10.8064476"><ele>456.0</ele><time>2026-04-18T08:07:51.965Z</time></trkpt><trkpt lat="44.4456592" lon="10.8064172"><ele>456.0</ele><time>2026-04-18T08:07:52.965Z</time></trkpt><trkpt lat="44.4457438" lon="10.8064079"><ele>456.0</ele><time>2026-04-18T08:07:53.964Z</time></trkpt><trkpt lat="44.4458321" lon="10.8064127"><ele>456.0</ele><time>2026-04-18T08:07:54.964Z</time></trkpt><trkpt lat="44.4459235" lon="10.8064356"><ele>456.0</ele><time>2026-04-18T08:07:55.965Z</time></trkpt><trkpt lat="44.4460161" lon="10.806468"><ele>456.0</ele><time>2026-04-18T08:07:56.964Z</time></trkpt><trkpt lat="44.4460945" lon="10.8065222"><ele>456.0</ele><time>2026-04-18T08:07:57.964Z</time></trkpt><trkpt lat="44.4461707" lon="10.8065946"><ele>456.0</ele><time>2026-04-18T08:07:58.964Z</time></trkpt><trkpt lat="44.4462473" lon="10.8066663"><ele>456.0</ele><time>2026-04-18T08:07:59.964Z</time></trkpt><trkpt lat="44.4463176" lon="10.8067311"><ele>456.0</ele><time>2026-04-18T08:08:00.964Z</time></trkpt><trkpt lat="44.4463913" lon="10.8067749"><ele>456.0</ele><time>2026-04-18T08:08:01.965Z</time></trkpt><trkpt lat="44.4464659" lon="10.8068142"><ele>456.0</ele><time>2026-04-18T08:08:02.965Z</time></trkpt><trkpt lat="44.4465375" lon="10.8068421"><ele>454.6666666666667</ele><time>2026-04-18T08:08:03.964Z</time></trkpt><trkpt lat="44.4466042" lon="10.8068714"><ele>453.33333333333337</ele><time>2026-04-18T08:08:04.964Z</time></trkpt><trkpt lat="44.4466755" lon="10.8069047"><ele>452.0</ele><time>2026-04-18T08:08:05.964Z</time></trkpt><trkpt lat="44.446745" lon="10.8069446"><ele>450.6666666666667</ele><time>2026-04-18T08:08:06.964Z</time></trkpt><trkpt lat="44.4468068" lon="10.8069781"><ele>449.33333333333337</ele><time>2026-04-18T08:08:07.964Z</time></trkpt><trkpt lat="44.4468942" lon="10.8070063"><ele>448.0</ele><time>2026-04-18T08:08:09.965Z</time></trkpt><trkpt lat="44.4469641" lon="10.8069674"><ele>448.00000000000006</ele><time>2026-04-18T08:08:11.964Z</time></trkpt><trkpt lat="44.4470057" lon="10.806878"><ele>448.0</ele><time>2026-04-18T08:08:13.965Z</time></trkpt><trkpt lat="44.4469686" lon="10.8067838"><ele>448.0</ele><time>2026-04-18T08:08:15.964Z</time></trkpt><trkpt lat="44.4468994" lon="10.8066528"><ele>448.0</ele><time>2026-04-18T08:08:17.965Z</time></trkpt><trkpt lat="44.4468538" lon="10.8065748"><ele>448.00000000000006</ele><time>2026-04-18T08:08:18.964Z</time></trkpt><trkpt lat="44.4468147" lon="10.8064907"><ele>448.0</ele><time>2026-04-18T08:08:19.964Z</time></trkpt><trkpt lat="44.4467751" lon="10.8064035"><ele>450.33333333333337</ele><time>2026-04-18T08:08:20.964Z</time></trkpt><trkpt lat="44.4467266" lon="10.8063223"><ele>452.6666666666667</ele><time>2026-04-18T08:08:21.964Z</time></trkpt><trkpt lat="44.4466629" lon="10.8062584"><ele>455.0</ele><time>2026-04-18T08:08:22.965Z</time></trkpt><trkpt lat="44.4465898" lon="10.8061947"><ele>457.33333333333337</ele><time>2026-04-18T08:08:23.964Z</time></trkpt><trkpt lat="44.4465205" lon="10.8061258"><ele>459.6666666666667</ele><time>2026-04-18T08:08:24.965Z</time></trkpt><trkpt lat="44.4464493" lon="10.8060507"><ele>462.0</ele><time>2026-04-18T08:08:25.965Z</time></trkpt><trkpt lat="44.4463856" lon="10.805986"><ele>462.6666666666667</ele><time>2026-04-18T08:08:26.965Z</time></trkpt><trkpt lat="44.446324" lon="10.8059175"><ele>463.33333333333337</ele><time>2026-04-18T08:08:27.964Z</time></trkpt><trkpt lat="44.4462614" lon="10.805853"><ele>464.0</ele><time>2026-04-18T08:08:28.964Z</time></trkpt><trkpt lat="44.4462156" lon="10.8057835"><ele>464.6666666666667</ele><time>2026-04-18T08:08:29.964Z</time></trkpt><trkpt lat="44.4461449" lon="10.8056846"><ele>465.33333333333337</ele><time>2026-04-18T08:08:31.964Z</time></trkpt><trkpt lat="44.4460863" lon="10.8055726"><ele>466.0</ele><time>2026-04-18T08:08:33.965Z</time></trkpt><trkpt lat="44.4460452" lon="10.8054712"><ele>467.4</ele><time>2026-04-18T08:08:35.964Z</time></trkpt><trkpt lat="44.4459807" lon="10.8053641"><ele>468.8</ele><time>2026-04-18T08:08:37.964Z</time></trkpt><trkpt lat="44.4459015" lon="10.8052544"><ele>470.19999999999993</ele><time>2026-04-18T08:08:39.964Z</time></trkpt><trkpt lat="44.4458365" lon="10.8051601"><ele>471.59999999999997</ele><time>2026-04-18T08:08:41.965Z</time></trkpt><trkpt lat="44.4457636" lon="10.8050629"><ele>473.0</ele><time>2026-04-18T08:08:43.965Z</time></trkpt><trkpt lat="44.4457001" lon="10.8049681"><ele>474.49999999999994</ele><time>2026-04-18T08:08:45.964Z</time></trkpt><trkpt lat="44.4456672" lon="10.8050505"><ele>476.0</ele><time>2026-04-18T08:09:41.964Z</time></trkpt><trkpt lat="44.445595" lon="10.8050466"><ele>477.5</ele><time>2026-04-18T08:09:43.964Z</time></trkpt><trkpt lat="44.445505" lon="10.8050225"><ele>479.0</ele><time>2026-04-18T08:09:45.964Z</time></trkpt><trkpt lat="44.4454148" lon="10.8049992"><ele>480.49999999999994</ele><time>2026-04-18T08:09:47.964Z</time></trkpt><trkpt lat="44.44533" lon="10.8049568"><ele>482.0</ele><time>2026-04-18T08:09:49.964Z</time></trkpt><trkpt lat="44.4452341" lon="10.8049039"><ele>485.40000000000003</ele><time>2026-04-18T08:09:51.964Z</time></trkpt><trkpt lat="44.4451351" lon="10.8048348"><ele>488.80000000000007</ele><time>2026-04-18T08:09:53.965Z</time></trkpt><trkpt lat="44.4450345" lon="10.804759"><ele>492.2</ele><time>2026-04-18T08:09:55.965Z</time></trkpt><trkpt lat="44.4449213" lon="10.8046858"><ele>495.6</ele><time>2026-04-18T08:09:57.964Z</time></trkpt><trkpt lat="44.4448599" lon="10.8046448"><ele>499.0</ele><time>2026-04-18T08:09:58.964Z</time></trkpt><trkpt lat="44.4447941" lon="10.8045977"><ele>499.00000000000006</ele><time>2026-04-18T08:09:59.964Z</time></trkpt><trkpt lat="44.4447306" lon="10.8045504"><ele>499.0</ele><time>2026-04-18T08:10:00.965Z</time></trkpt><trkpt lat="44.444673" lon="10.8045042"><ele>499.0</ele><time>2026-04-18T08:10:01.965Z</time></trkpt><trkpt lat="44.4446154" lon="10.8044678"><ele>499.0</ele><time>2026-04-18T08:10:02.964Z</time></trkpt><trkpt lat="44.444562" lon="10.8044165"><ele>499.00000000000006</ele><time>2026-04-18T08:10:03.965Z</time></trkpt><trkpt lat="44.4444439" lon="10.8043394"><ele>499.0</ele><time>2026-04-18T08:10:05.965Z</time></trkpt><trkpt lat="44.4443784" lon="10.8042946"><ele>503.1666666666667</ele><time>2026-04-18T08:10:06.964Z</time></trkpt><trkpt lat="44.44432" lon="10.8042393"><ele>507.33333333333337</ele><time>2026-04-18T08:10:07.965Z</time></trkpt><trkpt lat="44.4442645" lon="10.8041741"><ele>511.5</ele><time>2026-04-18T08:10:08.964Z</time></trkpt><trkpt lat="44.4442089" lon="10.8041031"><ele>515.6666666666666</ele><time>2026-04-18T08:10:09.964Z</time></trkpt><trkpt lat="44.444145" lon="10.8040287"><ele>519.8333333333333</ele><time>2026-04-18T08:10:10.964Z</time></trkpt><trkpt lat="44.4440824" lon="10.8039371"><ele>524.0</ele><time>2026-04-18T08:10:11.965Z</time></trkpt><trkpt lat="44.4440216" lon="10.803848"><ele>524.0</ele><time>2026-04-18T08:10:12.965Z</time></trkpt><trkpt lat="44.4439543" lon="10.8037631"><ele>524.0</ele><time>2026-04-18T08:10:13.964Z</time></trkpt><trkpt lat="44.4438867" lon="10.8036832"><ele>524.0</ele><time>2026-04-18T08:10:14.964Z</time></trkpt><trkpt lat="44.4438279" lon="10.8036209"><ele>524.0</ele><time>2026-04-18T08:10:15.965Z</time></trkpt><trkpt lat="44.4437698" lon="10.8035627"><ele>524.0</ele><time>2026-04-18T08:10:16.965Z</time></trkpt><trkpt lat="44.4437108" lon="10.8035052"><ele>524.0</ele><time>2026-04-18T08:10:17.964Z</time></trkpt><trkpt lat="44.4436626" lon="10.8034468"><ele>527.6666666666666</ele><time>2026-04-18T08:10:18.964Z</time></trkpt><trkpt lat="44.4435807" lon="10.8033532"><ele>531.3333333333333</ele><time>2026-04-18T08:10:20.965Z</time></trkpt><trkpt lat="44.4435487" lon="10.8032444"><ele>535.0</ele><time>2026-04-18T08:10:23.964Z</time></trkpt><trkpt lat="44.4435393" lon="10.8030814"><ele>538.6666666666666</ele><time>2026-04-18T08:10:25.965Z</time></trkpt><trkpt lat="44.4435249" lon="10.8029936"><ele>542.3333333333334</ele><time>2026-04-18T08:10:34.964Z</time></trkpt><trkpt lat="44.4435108" lon="10.8028995"><ele>546.0</ele><time>2026-04-18T08:10:39.964Z</time></trkpt><trkpt lat="44.4434976" lon="10.8028111"><ele>546.0</ele><time>2026-04-18T08:10:40.964Z</time></trkpt><trkpt lat="44.4434803" lon="10.8026984"><ele>546.0</ele><time>2026-04-18T08:10:41.964Z</time></trkpt><trkpt lat="44.4434568" lon="10.8025071"><ele>546.0</ele><time>2026-04-18T08:10:42.964Z</time></trkpt><trkpt lat="44.4434263" lon="10.8022927"><ele>546.0</ele><time>2026-04-18T08:10:43.965Z</time></trkpt><trkpt lat="44.4433858" lon="10.8020886"><ele>546.6</ele><time>2026-04-18T08:10:44.964Z</time></trkpt><trkpt lat="44.4433412" lon="10.8019208"><ele>547.2</ele><time>2026-04-18T08:10:45.965Z</time></trkpt><trkpt lat="44.4432943" lon="10.8017786"><ele>547.8</ele><time>2026-04-18T08:10:46.964Z</time></trkpt><trkpt lat="44.4432404" lon="10.8016794"><ele>548.4</ele><time>2026-04-18T08:10:47.964Z</time></trkpt><trkpt lat="44.4431718" lon="10.8016256"><ele>549.0</ele><time>2026-04-18T08:10:48.964Z</time></trkpt><trkpt lat="44.4431019" lon="10.8016258"><ele>549.0</ele><time>2026-04-18T08:10:49.964Z</time></trkpt><trkpt lat="44.4430394" lon="10.8016841"><ele>549.0</ele><time>2026-04-18T08:10:50.965Z</time></trkpt><trkpt lat="44.4429921" lon="10.8017951"><ele>549.0</ele><time>2026-04-18T08:10:51.964Z</time></trkpt><trkpt lat="44.4429658" lon="10.8019485"><ele>549.0</ele><time>2026-04-18T08:10:52.964Z</time></trkpt><trkpt lat="44.4429551" lon="10.8021078"><ele>549.0</ele><time>2026-04-18T08:10:53.965Z</time></trkpt><trkpt lat="44.4429376" lon="10.8022415"><ele>549.6666666666666</ele><time>2026-04-18T08:10:54.965Z</time></trkpt><trkpt lat="44.442896" lon="10.8023493"><ele>550.3333333333334</ele><time>2026-04-18T08:10:55.965Z</time></trkpt><trkpt lat="44.4428347" lon="10.802397"><ele>551.0</ele><time>2026-04-18T08:10:56.965Z</time></trkpt><trkpt lat="44.4427714" lon="10.8023779"><ele>551.6666666666667</ele><time>2026-04-18T08:10:57.965Z</time></trkpt><trkpt lat="44.4427254" lon="10.802298"><ele>552.3333333333334</ele><time>2026-04-18T08:10:58.965Z</time></trkpt><trkpt lat="44.4426989" lon="10.8021729"><ele>553.0</ele><time>2026-04-18T08:10:59.965Z</time></trkpt><trkpt lat="44.4426604" lon="10.8020111"><ele>553.0</ele><time>2026-04-18T08:11:00.965Z</time></trkpt><trkpt lat="44.4426141" lon="10.8018406"><ele>553.0</ele><time>2026-04-18T08:11:01.964Z</time></trkpt><trkpt lat="44.4425581" lon="10.8016654"><ele>553.0</ele><time>2026-04-18T08:11:02.965Z</time></trkpt><trkpt lat="44.4424903" lon="10.801504"><ele>553.0</ele><time>2026-04-18T08:11:03.965Z</time></trkpt><trkpt lat="44.4424276" lon="10.8013595"><ele>554.8</ele><time>2026-04-18T08:11:04.964Z</time></trkpt><trkpt lat="44.4423694" lon="10.8012311"><ele>556.5999999999999</ele><time>2026-04-18T08:11:05.964Z</time></trkpt><trkpt lat="44.4423046" lon="10.8011177"><ele>558.4000000000001</ele><time>2026-04-18T08:11:06.964Z</time></trkpt><trkpt lat="44.4422238" lon="10.801055"><ele>560.2</ele><time>2026-04-18T08:11:07.965Z</time></trkpt><trkpt lat="44.4421407" lon="10.8010545"><ele>562.0</ele><time>2026-04-18T08:11:08.965Z</time></trkpt><trkpt lat="44.4420563" lon="10.8011031"><ele>563.5</ele><time>2026-04-18T08:11:09.964Z</time></trkpt><trkpt lat="44.4419711" lon="10.8011674"><ele>565.0</ele><time>2026-04-18T08:11:10.964Z</time></trkpt><trkpt lat="44.4418877" lon="10.8012553"><ele>566.5</ele><time>2026-04-18T08:11:11.964Z</time></trkpt><trkpt lat="44.441807" lon="10.8012902"><ele>568.0</ele><time>2026-04-18T08:11:12.964Z</time></trkpt><trkpt lat="44.4417273" lon="10.8013131"><ele>569.5</ele><time>2026-04-18T08:11:13.964Z</time></trkpt><trkpt lat="44.4416928" lon="10.8012089"><ele>571.0</ele><time>2026-04-18T08:11:14.965Z</time></trkpt><trkpt lat="44.44164" lon="10.801111"><ele>571.0</ele><time>2026-04-18T08:11:15.965Z</time></trkpt><trkpt lat="44.4415746" lon="10.8010011"><ele>571.0</ele><time>2026-04-18T08:11:16.964Z</time></trkpt><trkpt lat="44.4415081" lon="10.8008733"><ele>571.0</ele><time>2026-04-18T08:11:17.964Z</time></trkpt><trkpt lat="44.4414275" lon="10.8007366"><ele>571.0</ele><time>2026-04-18T08:11:18.964Z</time></trkpt><trkpt lat="44.4413538" lon="10.8005856"><ele>575.0</ele><time>2026-04-18T08:11:19.965Z</time></trkpt><trkpt lat="44.4412917" lon="10.8004246"><ele>579.0</ele><time>2026-04-18T08:11:20.965Z</time></trkpt><trkpt lat="44.4412361" lon="10.8002665"><ele>583.0</ele><time>2026-04-18T08:11:21.964Z</time></trkpt><trkpt lat="44.4411918" lon="10.8001069"><ele>587.0</ele><time>2026-04-18T08:11:22.964Z</time></trkpt><trkpt lat="44.4411538" lon="10.7999559"><ele>588.4</ele><time>2026-04-18T08:11:23.965Z</time></trkpt><trkpt lat="44.4411297" lon="10.7998203"><ele>589.8000000000001</ele><time>2026-04-18T08:11:24.964Z</time></trkpt><trkpt lat="44.441131" lon="10.799681"><ele>591.2</ele><time>2026-04-18T08:11:25.964Z</time></trkpt><trkpt lat="44.4411606" lon="10.7995439"><ele>592.6</ele><time>2026-04-18T08:11:26.965Z</time></trkpt><trkpt lat="44.44121" lon="10.7994105"><ele>594.0</ele><time>2026-04-18T08:11:27.965Z</time></trkpt><trkpt lat="44.4412573" lon="10.7992941"><ele>594.0</ele><time>2026-04-18T08:11:28.965Z</time></trkpt><trkpt lat="44.4412939" lon="10.7992022"><ele>594.0</ele><time>2026-04-18T08:11:29.965Z</time></trkpt><trkpt lat="44.4413037" lon="10.7990898"><ele>594.0</ele><time>2026-04-18T08:11:31.964Z</time></trkpt><trkpt lat="44.4412372" lon="10.7991381"><ele>594.0</ele><time>2026-04-18T08:11:34.964Z</time></trkpt><trkpt lat="44.4411758" lon="10.7992738"><ele>594.0</ele><time>2026-04-18T08:11:36.965Z</time></trkpt><trkpt lat="44.4411328" lon="10.799362"><ele>594.0</ele><time>2026-04-18T08:11:37.965Z</time></trkpt><trkpt lat="44.4410774" lon="10.7994596"><ele>594.0</ele><time>2026-04-18T08:11:38.965Z</time></trkpt><trkpt lat="44.441015" lon="10.7995681"><ele>594.0</ele><time>2026-04-18T08:11:39.964Z</time></trkpt><trkpt lat="44.4409544" lon="10.7996783"><ele>594.0</ele><time>2026-04-18T08:11:40.964Z</time></trkpt><trkpt lat="44.4408941" lon="10.7997982"><ele>594.0</ele><time>2026-04-18T08:11:41.964Z</time></trkpt><trkpt lat="44.4408418" lon="10.7999264"><ele>594.0</ele><time>2026-04-18T08:11:42.964Z</time></trkpt><trkpt lat="44.4407923" lon="10.800061"><ele>592.25</ele><time>2026-04-18T08:11:43.964Z</time></trkpt><trkpt lat="44.4407275" lon="10.8001843"><ele>590.5</ele><time>2026-04-18T08:11:44.965Z</time></trkpt><trkpt lat="44.4406475" lon="10.8002969"><ele>588.75</ele><time>2026-04-18T08:11:45.964Z</time></trkpt><trkpt lat="44.4405721" lon="10.8004176"><ele>587.0</ele><time>2026-04-18T08:11:46.964Z</time></trkpt><trkpt lat="44.440501" lon="10.8005457"><ele>591.0</ele><time>2026-04-18T08:11:47.964Z</time></trkpt><trkpt lat="44.4404262" lon="10.8006716"><ele>595.0</ele><time>2026-04-18T08:11:48.964Z</time></trkpt><trkpt lat="44.4403486" lon="10.8007968"><ele>599.0</ele><time>2026-04-18T08:11:49.964Z</time></trkpt><trkpt lat="44.4402643" lon="10.8008941"><ele>603.0</ele><time>2026-04-18T08:11:50.964Z</time></trkpt><trkpt lat="44.4401717" lon="10.8009899"><ele>600.0</ele><time>2026-04-18T08:11:51.964Z</time></trkpt><trkpt lat="44.4400754" lon="10.8010838"><ele>597.0</ele><time>2026-04-18T08:11:52.965Z</time></trkpt><trkpt lat="44.4399821" lon="10.8011831"><ele>594.0</ele><time>2026-04-18T08:11:53.965Z</time></trkpt><trkpt lat="44.4398912" lon="10.8012675"><ele>591.0</ele><time>2026-04-18T08:11:54.964Z</time></trkpt><trkpt lat="44.4397932" lon="10.8013487"><ele>591.0</ele><time>2026-04-18T08:11:55.965Z</time></trkpt><trkpt lat="44.4396922" lon="10.8014157"><ele>591.0</ele><time>2026-04-18T08:11:56.964Z</time></trkpt><trkpt lat="44.4395778" lon="10.8014737"><ele>591.0</ele><time>2026-04-18T08:11:57.964Z</time></trkpt><trkpt lat="44.4394633" lon="10.8015262"><ele>591.0</ele><time>2026-04-18T08:11:58.965Z</time></trkpt><trkpt lat="44.4393425" lon="10.8015742"><ele>593.25</ele><time>2026-04-18T08:11:59.965Z</time></trkpt><trkpt lat="44.4392267" lon="10.8016148"><ele>595.5</ele><time>2026-04-18T08:12:00.965Z</time></trkpt><trkpt lat="44.4391124" lon="10.801651"><ele>597.75</ele><time>2026-04-18T08:12:01.965Z</time></trkpt><trkpt lat="44.4389963" lon="10.8016828"><ele>600.0</ele><time>2026-04-18T08:12:02.965Z</time></trkpt><trkpt lat="44.4388895" lon="10.8016913"><ele>603.8</ele><time>2026-04-18T08:12:03.964Z</time></trkpt><trkpt lat="44.4387906" lon="10.8016609"><ele>607.6</ele><time>2026-04-18T08:12:04.964Z</time></trkpt><trkpt lat="44.4386996" lon="10.8016006"><ele>611.4</ele><time>2026-04-18T08:12:05.964Z</time></trkpt><trkpt lat="44.4386105" lon="10.8015343"><ele>615.2</ele><time>2026-04-18T08:12:06.965Z</time></trkpt><trkpt lat="44.4385238" lon="10.8014863"><ele>619.0</ele><time>2026-04-18T08:12:07.965Z</time></trkpt><trkpt lat="44.4384361" lon="10.8014786"><ele>619.0</ele><time>2026-04-18T08:12:08.965Z</time></trkpt><trkpt lat="44.4383488" lon="10.8015135"><ele>619.0</ele><time>2026-04-18T08:12:09.965Z</time></trkpt><trkpt lat="44.4382628" lon="10.8015774"><ele>619.0</ele><time>2026-04-18T08:12:10.964Z</time></trkpt><trkpt lat="44.4381781" lon="10.8016321"><ele>619.0</ele><time>2026-04-18T08:12:11.964Z</time></trkpt><trkpt lat="44.4380907" lon="10.8016835"><ele>619.0</ele><time>2026-04-18T08:12:12.964Z</time></trkpt><trkpt lat="44.4380086" lon="10.8017426"><ele>618.8</ele><time>2026-04-18T08:12:13.964Z</time></trkpt><trkpt lat="44.4379237" lon="10.8018103"><ele>618.5999999999999</ele><time>2026-04-18T08:12:14.964Z</time></trkpt><trkpt lat="44.4378291" lon="10.8018735"><ele>618.4</ele><time>2026-04-18T08:12:15.964Z</time></trkpt><trkpt lat="44.4377369" lon="10.8019365"><ele>618.1999999999999</ele><time>2026-04-18T08:12:16.964Z</time></trkpt><trkpt lat="44.4376384" lon="10.8019927"><ele>618.0</ele><time>2026-04-18T08:12:17.965Z</time></trkpt><trkpt lat="44.4375423" lon="10.802042"><ele>618.0</ele><time>2026-04-18T08:12:18.964Z</time></trkpt><trkpt lat="44.4374537" lon="10.8020765"><ele>618.0</ele><time>2026-04-18T08:12:19.964Z</time></trkpt><trkpt lat="44.437378" lon="10.8021058"><ele>618.0</ele><time>2026-04-18T08:12:20.965Z</time></trkpt><trkpt lat="44.4373026" lon="10.8021331"><ele>618.0</ele><time>2026-04-18T08:12:21.964Z</time></trkpt><trkpt lat="44.4372368" lon="10.8021668"><ele>618.0</ele><time>2026-04-18T08:12:22.964Z</time></trkpt><trkpt lat="44.4371649" lon="10.8022005"><ele>618.0</ele><time>2026-04-18T08:12:23.964Z</time></trkpt><trkpt lat="44.4370977" lon="10.8021762"><ele>617.1999999999999</ele><time>2026-04-18T08:12:24.965Z</time></trkpt><trkpt lat="44.4370217" lon="10.8021666"><ele>616.4</ele><time>2026-04-18T08:12:25.965Z</time></trkpt><trkpt lat="44.4369454" lon="10.8021257"><ele>615.5999999999999</ele><time>2026-04-18T08:12:26.964Z</time></trkpt><trkpt lat="44.436857" lon="10.8020432"><ele>614.8</ele><time>2026-04-18T08:12:27.965Z</time></trkpt><trkpt lat="44.4367697" lon="10.8019697"><ele>614.0</ele><time>2026-04-18T08:12:28.964Z</time></trkpt><trkpt lat="44.4366888" lon="10.8018932"><ele>616.0</ele><time>2026-04-18T08:12:29.965Z</time></trkpt><trkpt lat="44.4366269" lon="10.8017988"><ele>618.0</ele><time>2026-04-18T08:12:30.965Z</time></trkpt><trkpt lat="44.4365636" lon="10.8017067"><ele>620.0</ele><time>2026-04-18T08:12:31.965Z</time></trkpt><trkpt lat="44.4364897" lon="10.8016221"><ele>622.0</ele><time>2026-04-18T08:12:32.964Z</time></trkpt><trkpt lat="44.4364185" lon="10.8015339"><ele>624.0</ele><time>2026-04-18T08:12:33.965Z</time></trkpt><trkpt lat="44.4363383" lon="10.8014459"><ele>620.2</ele><time>2026-04-18T08:12:34.964Z</time></trkpt><trkpt lat="44.4362576" lon="10.8013635"><ele>616.4</ele><time>2026-04-18T08:12:35.965Z</time></trkpt><trkpt lat="44.4361759" lon="10.8012875"><ele>612.6</ele><time>2026-04-18T08:12:36.965Z</time></trkpt><trkpt lat="44.4360872" lon="10.8012262"><ele>608.8</ele><time>2026-04-18T08:12:37.965Z</time></trkpt><trkpt lat="44.4360034" lon="10.8011946"><ele>605.0</ele><time>2026-04-18T08:12:38.964Z</time></trkpt><trkpt lat="44.4359356" lon="10.8011683"><ele>605.0</ele><time>2026-04-18T08:12:39.965Z</time></trkpt><trkpt lat="44.4358255" lon="10.8011004"><ele>605.0</ele><time>2026-04-18T08:12:41.965Z</time></trkpt><trkpt lat="44.4357632" lon="10.8010249"><ele>605.0</ele><time>2026-04-18T08:12:42.964Z</time></trkpt><trkpt lat="44.4357058" lon="10.8009249"><ele>605.0</ele><time>2026-04-18T08:12:43.964Z</time></trkpt><trkpt lat="44.4356525" lon="10.8008142"><ele>605.0</ele><time>2026-04-18T08:12:44.964Z</time></trkpt><trkpt lat="44.4356018" lon="10.8006945"><ele>606.6</ele><time>2026-04-18T08:12:45.964Z</time></trkpt><trkpt lat="44.4355576" lon="10.8005695"><ele>608.2</ele><time>2026-04-18T08:12:46.964Z</time></trkpt><trkpt lat="44.4355161" lon="10.8004434"><ele>609.8</ele><time>2026-04-18T08:12:47.964Z</time></trkpt><trkpt lat="44.4354776" lon="10.8003141"><ele>611.4</ele><time>2026-04-18T08:12:48.964Z</time></trkpt><trkpt lat="44.4354478" lon="10.8001873"><ele>613.0</ele><time>2026-04-18T08:12:49.965Z</time></trkpt><trkpt lat="44.435413" lon="10.8000735"><ele>614.1666666666667</ele><time>2026-04-18T08:12:50.965Z</time></trkpt><trkpt lat="44.4353591" lon="10.7999837"><ele>615.3333333333334</ele><time>2026-04-18T08:12:51.964Z</time></trkpt><trkpt lat="44.4352894" lon="10.7999221"><ele>616.5</ele><time>2026-04-18T08:12:52.964Z</time></trkpt><trkpt lat="44.4352032" lon="10.7998815"><ele>617.6666666666666</ele><time>2026-04-18T08:12:53.965Z</time></trkpt><trkpt lat="44.435129" lon="10.7998398"><ele>618.8333333333333</ele><time>2026-04-18T08:12:54.964Z</time></trkpt><trkpt lat="44.4350666" lon="10.7998031"><ele>620.0</ele><time>2026-04-18T08:12:55.964Z</time></trkpt><trkpt lat="44.4350072" lon="10.799771"><ele>620.0</ele><time>2026-04-18T08:12:56.964Z</time></trkpt><trkpt lat="44.4349218" lon="10.7997177"><ele>620.0</ele><time>2026-04-18T08:12:58.964Z</time></trkpt><trkpt lat="44.4348652" lon="10.7996754"><ele>620.0</ele><time>2026-04-18T08:13:00.965Z</time></trkpt><trkpt lat="44.4347936" lon="10.7996224"><ele>620.0</ele><time>2026-04-18T08:13:03.965Z</time></trkpt><trkpt lat="44.4347356" lon="10.7995792"><ele>620.0</ele><time>2026-04-18T08:13:06.964Z</time></trkpt><trkpt lat="44.4346471" lon="10.799521"><ele>620.0</ele><time>2026-04-18T08:13:13.965Z</time></trkpt><trkpt lat="44.4345851" lon="10.7994682"><ele>619.8</ele><time>2026-04-18T08:13:14.965Z</time></trkpt><trkpt lat="44.4345199" lon="10.7993968"><ele>619.6</ele><time>2026-04-18T08:13:15.964Z</time></trkpt><trkpt lat="44.4344498" lon="10.7993105"><ele>619.4</ele><time>2026-04-18T08:13:16.965Z</time></trkpt><trkpt lat="44.4343783" lon="10.7992109"><ele>619.2</ele><time>2026-04-18T08:13:17.965Z</time></trkpt><trkpt lat="44.4343124" lon="10.7990973"><ele>619.0</ele><time>2026-04-18T08:13:18.965Z</time></trkpt><trkpt lat="44.4342465" lon="10.7989748"><ele>619.4</ele><time>2026-04-18T08:13:19.964Z</time></trkpt><trkpt lat="44.4341768" lon="10.7988557"><ele>619.8</ele><time>2026-04-18T08:13:20.965Z</time></trkpt><trkpt lat="44.4341086" lon="10.7987394"><ele>620.2</ele><time>2026-04-18T08:13:21.964Z</time></trkpt><trkpt lat="44.434038" lon="10.7986238"><ele>620.6</ele><time>2026-04-18T08:13:22.965Z</time></trkpt><trkpt lat="44.4339635" lon="10.7985075"><ele>621.0</ele><time>2026-04-18T08:13:23.965Z</time></trkpt><trkpt lat="44.4338889" lon="10.7983868"><ele>621.25</ele><time>2026-04-18T08:13:24.964Z</time></trkpt><trkpt lat="44.4338101" lon="10.7982694"><ele>621.5</ele><time>2026-04-18T08:13:25.965Z</time></trkpt><trkpt lat="44.4337328" lon="10.7981571"><ele>621.75</ele><time>2026-04-18T08:13:26.965Z</time></trkpt><trkpt lat="44.433653" lon="10.7980399"><ele>622.0</ele><time>2026-04-18T08:13:27.965Z</time></trkpt><trkpt lat="44.4335736" lon="10.7979186"><ele>622.0</ele><time>2026-04-18T08:13:28.964Z</time></trkpt><trkpt lat="44.433504" lon="10.7977915"><ele>622.0</ele><time>2026-04-18T08:13:29.965Z</time></trkpt><trkpt lat="44.4334412" lon="10.7976565"><ele>622.0</ele><time>2026-04-18T08:13:30.965Z</time></trkpt><trkpt lat="44.433379" lon="10.7975221"><ele>622.0</ele><time>2026-04-18T08:13:31.964Z</time></trkpt><trkpt lat="44.4333267" lon="10.7973683"><ele>623.25</ele><time>2026-04-18T08:13:32.965Z</time></trkpt><trkpt lat="44.4332764" lon="10.79722"><ele>624.5</ele><time>2026-04-18T08:13:33.965Z</time></trkpt><trkpt lat="44.4332176" lon="10.7970785"><ele>625.75</ele><time>2026-04-18T08:13:34.964Z</time></trkpt><trkpt lat="44.4331413" lon="10.7969491"><ele>627.0</ele><time>2026-04-18T08:13:35.964Z</time></trkpt><trkpt lat="44.4330512" lon="10.7968336"><ele>628.75</ele><time>2026-04-18T08:13:36.964Z</time></trkpt><trkpt lat="44.432955" lon="10.7967254"><ele>630.5</ele><time>2026-04-18T08:13:37.964Z</time></trkpt><trkpt lat="44.4328558" lon="10.7966169"><ele>632.25</ele><time>2026-04-18T08:13:38.965Z</time></trkpt><trkpt lat="44.4327539" lon="10.7965103"><ele>634.0</ele><time>2026-04-18T08:13:39.965Z</time></trkpt><trkpt lat="44.4326612" lon="10.7964127"><ele>634.0</ele><time>2026-04-18T08:13:40.965Z</time></trkpt><trkpt lat="44.4325655" lon="10.7963497"><ele>634.0</ele><time>2026-04-18T08:13:41.965Z</time></trkpt><trkpt lat="44.4324801" lon="10.7962804"><ele>634.0</ele><time>2026-04-18T08:13:42.965Z</time></trkpt><trkpt lat="44.4324047" lon="10.7962068"><ele>634.0</ele><time>2026-04-18T08:13:43.964Z</time></trkpt><trkpt lat="44.432333" lon="10.7961173"><ele>634.0</ele><time>2026-04-18T08:13:44.965Z</time></trkpt><trkpt lat="44.4322576" lon="10.7960315"><ele>636.8</ele><time>2026-04-18T08:13:45.964Z</time></trkpt><trkpt lat="44.4321781" lon="10.7959674"><ele>639.5999999999999</ele><time>2026-04-18T08:13:46.964Z</time></trkpt><trkpt lat="44.4321149" lon="10.7959205"><ele>642.4</ele><time>2026-04-18T08:13:47.964Z</time></trkpt><trkpt lat="44.432044" lon="10.7958581"><ele>645.1999999999999</ele><time>2026-04-18T08:13:49.964Z</time></trkpt><trkpt lat="44.4319678" lon="10.7958182"><ele>648.0</ele><time>2026-04-18T08:13:51.965Z</time></trkpt><trkpt lat="44.4318325" lon="10.7957862"><ele>648.0</ele><time>2026-04-18T08:13:53.965Z</time></trkpt><trkpt lat="44.4317527" lon="10.7957531"><ele>648.0</ele><time>2026-04-18T08:13:54.964Z</time></trkpt><trkpt lat="44.4316689" lon="10.7956931"><ele>648.0</ele><time>2026-04-18T08:13:55.964Z</time></trkpt><trkpt lat="44.4315878" lon="10.7956138"><ele>648.0</ele><time>2026-04-18T08:13:56.964Z</time></trkpt><trkpt lat="44.4315103" lon="10.7955292"><ele>648.0</ele><time>2026-04-18T08:13:57.965Z</time></trkpt><trkpt lat="44.431443" lon="10.7954496"><ele>648.0</ele><time>2026-04-18T08:13:58.965Z</time></trkpt><trkpt lat="44.4313901" lon="10.7953818"><ele>648.0</ele><time>2026-04-18T08:13:59.964Z</time></trkpt><trkpt lat="44.4312962" lon="10.7952695"><ele>648.0</ele><time>2026-04-18T08:14:01.964Z</time></trkpt><trkpt lat="44.4311996" lon="10.795164"><ele>648.0</ele><time>2026-04-18T08:14:03.965Z</time></trkpt><trkpt lat="44.4310902" lon="10.7950662"><ele>648.0</ele><time>2026-04-18T08:14:05.964Z</time></trkpt><trkpt lat="44.431032" lon="10.7950194"><ele>649.3333333333334</ele><time>2026-04-18T08:14:06.964Z</time></trkpt><trkpt lat="44.4309709" lon="10.7949667"><ele>650.6666666666666</ele><time>2026-04-18T08:14:07.964Z</time></trkpt><trkpt lat="44.4309005" lon="10.7949141"><ele>652.0</ele><time>2026-04-18T08:14:08.965Z</time></trkpt><trkpt lat="44.4308243" lon="10.7948536"><ele>653.3333333333333</ele><time>2026-04-18T08:14:09.964Z</time></trkpt><trkpt lat="44.4307577" lon="10.7947704"><ele>654.6666666666666</ele><time>2026-04-18T08:14:10.965Z</time></trkpt><trkpt lat="44.4306891" lon="10.794677"><ele>656.0</ele><time>2026-04-18T08:14:11.965Z</time></trkpt><trkpt lat="44.4306217" lon="10.7945778"><ele>656.0</ele><time>2026-04-18T08:14:12.964Z</time></trkpt><trkpt lat="44.4305538" lon="10.7944787"><ele>656.0</ele><time>2026-04-18T08:14:13.964Z</time></trkpt><trkpt lat="44.4304856" lon="10.7943755"><ele>656.0</ele><time>2026-04-18T08:14:14.964Z</time></trkpt><trkpt lat="44.4304182" lon="10.7942682"><ele>656.0</ele><time>2026-04-18T08:14:15.964Z</time></trkpt><trkpt lat="44.4303532" lon="10.7941553"><ele>656.0</ele><time>2026-04-18T08:14:16.964Z</time></trkpt><trkpt lat="44.4302909" lon="10.7940481"><ele>657.3333333333333</ele><time>2026-04-18T08:14:17.964Z</time></trkpt><trkpt lat="44.4302322" lon="10.7939453"><ele>658.6666666666666</ele><time>2026-04-18T08:14:18.964Z</time></trkpt><trkpt lat="44.4301789" lon="10.7938493"><ele>660.0</ele><time>2026-04-18T08:14:19.965Z</time></trkpt><trkpt lat="44.4301499" lon="10.7937505"><ele>661.3333333333334</ele><time>2026-04-18T08:14:20.965Z</time></trkpt><trkpt lat="44.4301297" lon="10.7936523"><ele>662.6666666666667</ele><time>2026-04-18T08:14:21.965Z</time></trkpt><trkpt lat="44.4301194" lon="10.7935343"><ele>664.0</ele><time>2026-04-18T08:14:22.965Z</time></trkpt><trkpt lat="44.4301307" lon="10.7934174"><ele>667.6666666666667</ele><time>2026-04-18T08:14:23.964Z</time></trkpt><trkpt lat="44.4301392" lon="10.7933056"><ele>671.3333333333334</ele><time>2026-04-18T08:14:24.964Z</time></trkpt><trkpt lat="44.4300634" lon="10.7931904"><ele>675.0</ele><time>2026-04-18T08:14:26.965Z</time></trkpt><trkpt lat="44.4299926" lon="10.7931751"><ele>678.6666666666666</ele><time>2026-04-18T08:14:27.964Z</time></trkpt><trkpt lat="44.4299077" lon="10.7931591"><ele>682.3333333333333</ele><time>2026-04-18T08:14:28.964Z</time></trkpt><trkpt lat="44.4298127" lon="10.7931325"><ele>686.0</ele><time>2026-04-18T08:14:29.964Z</time></trkpt><trkpt lat="44.4296781" lon="10.7930992"><ele>684.75</ele><time>2026-04-18T08:14:30.965Z</time></trkpt><trkpt lat="44.4295527" lon="10.793064"><ele>683.5</ele><time>2026-04-18T08:14:31.964Z</time></trkpt><trkpt lat="44.4294387" lon="10.7930361"><ele>682.25</ele><time>2026-04-18T08:14:32.964Z</time></trkpt><trkpt lat="44.4293316" lon="10.7930118"><ele>681.0</ele><time>2026-04-18T08:14:33.964Z</time></trkpt><trkpt lat="44.4292287" lon="10.7929943"><ele>681.0</ele><time>2026-04-18T08:14:34.964Z</time></trkpt><trkpt lat="44.4291309" lon="10.7929821"><ele>681.0</ele><time>2026-04-18T08:14:35.965Z</time></trkpt><trkpt lat="44.4290405" lon="10.7929513"><ele>681.0</ele><time>2026-04-18T08:14:36.964Z</time></trkpt><trkpt lat="44.4289466" lon="10.7929096"><ele>681.0</ele><time>2026-04-18T08:14:37.964Z</time></trkpt><trkpt lat="44.4288525" lon="10.7928713"><ele>681.0</ele><time>2026-04-18T08:14:38.965Z</time></trkpt><trkpt lat="44.4287697" lon="10.7928193"><ele>680.1999999999999</ele><time>2026-04-18T08:14:39.965Z</time></trkpt><trkpt lat="44.4286896" lon="10.7927715"><ele>679.4</ele><time>2026-04-18T08:14:40.964Z</time></trkpt><trkpt lat="44.4286026" lon="10.792735"><ele>678.6</ele><time>2026-04-18T08:14:41.964Z</time></trkpt><trkpt lat="44.428507" lon="10.7927318"><ele>677.8</ele><time>2026-04-18T08:14:42.965Z</time></trkpt><trkpt lat="44.428414" lon="10.7927717"><ele>677.0</ele><time>2026-04-18T08:14:43.964Z</time></trkpt><trkpt lat="44.4283207" lon="10.7928148"><ele>677.0</ele><time>2026-04-18T08:14:44.965Z</time></trkpt><trkpt lat="44.4282255" lon="10.7928586"><ele>677.0</ele><time>2026-04-18T08:14:45.965Z</time></trkpt><trkpt lat="44.4281233" lon="10.7928864"><ele>677.0</ele><time>2026-04-18T08:14:46.965Z</time></trkpt><trkpt lat="44.4280228" lon="10.7929108"><ele>677.0</ele><time>2026-04-18T08:14:47.964Z</time></trkpt><trkpt lat="44.427914" lon="10.7929072"><ele>677.0</ele><time>2026-04-18T08:14:48.964Z</time></trkpt><trkpt lat="44.4278063" lon="10.7928927"><ele>678.6</ele><time>2026-04-18T08:14:49.964Z</time></trkpt><trkpt lat="44.427696" lon="10.7928815"><ele>680.2</ele><time>2026-04-18T08:14:50.965Z</time></trkpt><trkpt lat="44.4275909" lon="10.7928826"><ele>681.8</ele><time>2026-04-18T08:14:51.964Z</time></trkpt><trkpt lat="44.4275003" lon="10.7928982"><ele>683.4</ele><time>2026-04-18T08:14:52.965Z</time></trkpt><trkpt lat="44.4274301" lon="10.7929365"><ele>685.0</ele><time>2026-04-18T08:14:53.965Z</time></trkpt><trkpt lat="44.4273692" lon="10.792999"><ele>685.0</ele><time>2026-04-18T08:14:54.965Z</time></trkpt><trkpt lat="44.4273247" lon="10.7930904"><ele>685.0</ele><time>2026-04-18T08:14:55.964Z</time></trkpt><trkpt lat="44.4272813" lon="10.7931894"><ele>685.0</ele><time>2026-04-18T08:14:56.964Z</time></trkpt><trkpt lat="44.4272237" lon="10.7932843"><ele>685.0</ele><time>2026-04-18T08:14:57.964Z</time></trkpt><trkpt lat="44.4271641" lon="10.7933607"><ele>685.0</ele><time>2026-04-18T08:14:58.964Z</time></trkpt><trkpt lat="44.4270865" lon="10.7933789"><ele>685.0</ele><time>2026-04-18T08:14:59.964Z</time></trkpt><trkpt lat="44.4270033" lon="10.7933925"><ele>687.2</ele><time>2026-04-18T08:15:00.965Z</time></trkpt><trkpt lat="44.426914" lon="10.7933877"><ele>689.4</ele><time>2026-04-18T08:15:01.964Z</time></trkpt><trkpt lat="44.4268206" lon="10.7933918"><ele>691.5999999999999</ele><time>2026-04-18T08:15:02.964Z</time></trkpt><trkpt lat="44.4267236" lon="10.7933983"><ele>693.8</ele><time>2026-04-18T08:15:03.965Z</time></trkpt><trkpt lat="44.4266334" lon="10.793394"><ele>696.0</ele><time>2026-04-18T08:15:04.964Z</time></trkpt><trkpt lat="44.4265322" lon="10.7933881"><ele>696.0</ele><time>2026-04-18T08:15:05.965Z</time></trkpt><trkpt lat="44.4264435" lon="10.7933704"><ele>696.0</ele><time>2026-04-18T08:15:06.964Z</time></trkpt><trkpt lat="44.4263494" lon="10.7933444"><ele>696.0</ele><time>2026-04-18T08:15:07.965Z</time></trkpt><trkpt lat="44.4262524" lon="10.7933069"><ele>696.0</ele><time>2026-04-18T08:15:08.964Z</time></trkpt><trkpt lat="44.4261498" lon="10.793253"><ele>696.0</ele><time>2026-04-18T08:15:09.964Z</time></trkpt><trkpt lat="44.4260483" lon="10.7931937"><ele>696.25</ele><time>2026-04-18T08:15:10.964Z</time></trkpt><trkpt lat="44.4259427" lon="10.7931318"><ele>696.5</ele><time>2026-04-18T08:15:11.964Z</time></trkpt><trkpt lat="44.4258307" lon="10.7930649"><ele>696.75</ele><time>2026-04-18T08:15:12.965Z</time></trkpt><trkpt lat="44.4257245" lon="10.7929794"><ele>697.0</ele><time>2026-04-18T08:15:13.964Z</time></trkpt><trkpt lat="44.4256183" lon="10.7928885"><ele>697.0</ele><time>2026-04-18T08:15:14.964Z</time></trkpt><trkpt lat="44.4255213" lon="10.7928024"><ele>697.0</ele><time>2026-04-18T08:15:15.964Z</time></trkpt><trkpt lat="44.4254253" lon="10.7927065"><ele>697.0</ele><time>2026-04-18T08:15:16.965Z</time></trkpt><trkpt lat="44.4253243" lon="10.7925964"><ele>697.0</ele><time>2026-04-18T08:15:17.965Z</time></trkpt><trkpt lat="44.4252189" lon="10.7924986"><ele>704.75</ele><time>2026-04-18T08:15:18.964Z</time></trkpt><trkpt lat="44.425107" lon="10.7924091"><ele>712.5</ele><time>2026-04-18T08:15:19.965Z</time></trkpt><trkpt lat="44.4249968" lon="10.7923182"><ele>720.25</ele><time>2026-04-18T08:15:20.964Z</time></trkpt><trkpt lat="44.4248865" lon="10.7922177"><ele>728.0</ele><time>2026-04-18T08:15:21.965Z</time></trkpt><trkpt lat="44.4247994" lon="10.7921295"><ele>728.0</ele><time>2026-04-18T08:15:22.964Z</time></trkpt><trkpt lat="44.4247133" lon="10.7920619"><ele>728.0</ele><time>2026-04-18T08:15:23.965Z</time></trkpt><trkpt lat="44.4246176" lon="10.7920206"><ele>728.0</ele><time>2026-04-18T08:15:24.965Z</time></trkpt><trkpt lat="44.4244908" lon="10.7920568"><ele>728.0</ele><time>2026-04-18T08:15:25.964Z</time></trkpt><trkpt lat="44.4243649" lon="10.7920847"><ele>731.0</ele><time>2026-04-18T08:15:26.964Z</time></trkpt><trkpt lat="44.4242423" lon="10.7921226"><ele>734.0</ele><time>2026-04-18T08:15:27.964Z</time></trkpt><trkpt lat="44.4241338" lon="10.7921907"><ele>737.0</ele><time>2026-04-18T08:15:28.965Z</time></trkpt><trkpt lat="44.42403" lon="10.7922945"><ele>740.0</ele><time>2026-04-18T08:15:29.964Z</time></trkpt><trkpt lat="44.4239257" lon="10.7923814"><ele>740.0</ele><time>2026-04-18T08:15:30.964Z</time></trkpt><trkpt lat="44.4238297" lon="10.792433"><ele>740.0</ele><time>2026-04-18T08:15:31.965Z</time></trkpt><trkpt lat="44.4237291" lon="10.7924746"><ele>740.0</ele><time>2026-04-18T08:15:32.964Z</time></trkpt><trkpt lat="44.4236242" lon="10.7924745"><ele>740.0</ele><time>2026-04-18T08:15:33.965Z</time></trkpt><trkpt lat="44.4234986" lon="10.792418"><ele>740.0</ele><time>2026-04-18T08:15:34.964Z</time></trkpt><trkpt lat="44.4233697" lon="10.7923933"><ele>743.0</ele><time>2026-04-18T08:15:35.964Z</time></trkpt><trkpt lat="44.42323" lon="10.7923745"><ele>746.0</ele><time>2026-04-18T08:15:36.964Z</time></trkpt><trkpt lat="44.4231155" lon="10.7923618"><ele>749.0</ele><time>2026-04-18T08:15:37.964Z</time></trkpt><trkpt lat="44.4230034" lon="10.7923427"><ele>752.0</ele><time>2026-04-18T08:15:38.964Z</time></trkpt><trkpt lat="44.4229028" lon="10.7923391"><ele>754.5</ele><time>2026-04-18T08:15:39.964Z</time></trkpt><trkpt lat="44.4228014" lon="10.7923299"><ele>757.0</ele><time>2026-04-18T08:15:40.964Z</time></trkpt><trkpt lat="44.4227094" lon="10.7923565"><ele>759.5</ele><time>2026-04-18T08:15:41.964Z</time></trkpt><trkpt lat="44.4226276" lon="10.7923643"><ele>762.0</ele><time>2026-04-18T08:15:42.964Z</time></trkpt><trkpt lat="44.4225606" lon="10.7923666"><ele>764.5</ele><time>2026-04-18T08:15:43.965Z</time></trkpt><trkpt lat="44.4224583" lon="10.7923471"><ele>767.0</ele><time>2026-04-18T08:15:45.964Z</time></trkpt><trkpt lat="44.4223755" lon="10.7923358"><ele>767.0</ele><time>2026-04-18T08:15:48.964Z</time></trkpt><trkpt lat="44.4223104" lon="10.7923529"><ele>767.0</ele><time>2026-04-18T08:15:51.964Z</time></trkpt><trkpt lat="44.422272" lon="10.7924573"><ele>767.0</ele><time>2026-04-18T08:15:54.965Z</time></trkpt><trkpt lat="44.422205" lon="10.7925881"><ele>767.0</ele><time>2026-04-18T08:15:56.964Z</time></trkpt><trkpt lat="44.4221683" lon="10.7926635"><ele>767.0</ele><time>2026-04-18T08:15:57.964Z</time></trkpt><trkpt lat="44.4221393" lon="10.7927617"><ele>767.0</ele><time>2026-04-18T08:15:58.964Z</time></trkpt><trkpt lat="44.4221247" lon="10.7928488"><ele>769.8</ele><time>2026-04-18T08:15:59.964Z</time></trkpt><trkpt lat="44.4221102" lon="10.7930177"><ele>772.6</ele><time>2026-04-18T08:16:01.965Z</time></trkpt><trkpt lat="44.4221104" lon="10.7931934"><ele>775.4</ele><time>2026-04-18T08:16:03.964Z</time></trkpt><trkpt lat="44.4220693" lon="10.7932944"><ele>778.1999999999999</ele><time>2026-04-18T08:16:05.964Z</time></trkpt><trkpt lat="44.4219978" lon="10.7932439"><ele>781.0</ele><time>2026-04-18T08:16:07.964Z</time></trkpt><trkpt lat="44.4219867" lon="10.7930723"><ele>781.0</ele><time>2026-04-18T08:16:09.965Z</time></trkpt><trkpt lat="44.421993" lon="10.792967"><ele>781.0</ele><time>2026-04-18T08:16:10.964Z</time></trkpt><trkpt lat="44.4219981" lon="10.7928645"><ele>781.0</ele><time>2026-04-18T08:16:11.965Z</time></trkpt><trkpt lat="44.4220107" lon="10.792762"><ele>781.0</ele><time>2026-04-18T08:16:12.964Z</time></trkpt><trkpt lat="44.4220242" lon="10.7926586"><ele>781.0</ele><time>2026-04-18T08:16:13.964Z</time></trkpt><trkpt lat="44.422045" lon="10.7925659"><ele>781.0</ele><time>2026-04-18T08:16:14.964Z</time></trkpt><trkpt lat="44.4220598" lon="10.7924674"><ele>781.0</ele><time>2026-04-18T08:16:15.964Z</time></trkpt><trkpt lat="44.4220824" lon="10.7923689"><ele>779.8333333333333</ele><time>2026-04-18T08:16:16.965Z</time></trkpt><trkpt lat="44.4220954" lon="10.7922713"><ele>778.6666666666666</ele><time>2026-04-18T08:16:17.964Z</time></trkpt><trkpt lat="44.4221104" lon="10.7921676"><ele>777.5</ele><time>2026-04-18T08:16:18.965Z</time></trkpt><trkpt lat="44.4221247" lon="10.7920653"><ele>776.3333333333333</ele><time>2026-04-18T08:16:19.965Z</time></trkpt><trkpt lat="44.4221427" lon="10.7919584"><ele>775.1666666666666</ele><time>2026-04-18T08:16:20.965Z</time></trkpt><trkpt lat="44.4221598" lon="10.791843"><ele>774.0</ele><time>2026-04-18T08:16:21.965Z</time></trkpt><trkpt lat="44.4221732" lon="10.7917169"><ele>774.0</ele><time>2026-04-18T08:16:22.964Z</time></trkpt><trkpt lat="44.4221828" lon="10.791588"><ele>774.0</ele><time>2026-04-18T08:16:23.964Z</time></trkpt><trkpt lat="44.4221949" lon="10.791456"><ele>774.0</ele><time>2026-04-18T08:16:24.964Z</time></trkpt><trkpt lat="44.4222043" lon="10.7913268"><ele>774.0</ele><time>2026-04-18T08:16:25.965Z</time></trkpt><trkpt lat="44.4222198" lon="10.7911917"><ele>774.0</ele><time>2026-04-18T08:16:26.964Z</time></trkpt><trkpt lat="44.4222464" lon="10.7910617"><ele>775.6666666666666</ele><time>2026-04-18T08:16:27.965Z</time></trkpt><trkpt lat="44.4222779" lon="10.7909339"><ele>777.3333333333333</ele><time>2026-04-18T08:16:28.964Z</time></trkpt><trkpt lat="44.422309" lon="10.7908251"><ele>779.0</ele><time>2026-04-18T08:16:29.965Z</time></trkpt><trkpt lat="44.4223425" lon="10.7907367"><ele>780.6666666666666</ele><time>2026-04-18T08:16:30.964Z</time></trkpt><trkpt lat="44.4223943" lon="10.7906071"><ele>782.3333333333333</ele><time>2026-04-18T08:16:32.964Z</time></trkpt><trkpt lat="44.4224372" lon="10.7904962"><ele>784.0</ele><time>2026-04-18T08:16:34.964Z</time></trkpt><trkpt lat="44.4224858" lon="10.7903651"><ele>784.0</ele><time>2026-04-18T08:16:36.964Z</time></trkpt><trkpt lat="44.4225455" lon="10.7902178"><ele>784.0</ele><time>2026-04-18T08:16:38.964Z</time></trkpt><trkpt lat="44.4225756" lon="10.790133"><ele>784.0</ele><time>2026-04-18T08:16:39.965Z</time></trkpt><trkpt lat="44.4226241" lon="10.7899833"><ele>784.0</ele><time>2026-04-18T08:16:41.965Z</time></trkpt><trkpt lat="44.422672" lon="10.78987"><ele>784.0</ele><time>2026-04-18T08:16:43.964Z</time></trkpt><trkpt lat="44.4227195" lon="10.7897654"><ele>785.4999999999999</ele><time>2026-04-18T08:16:46.964Z</time></trkpt><trkpt lat="44.4226696" lon="10.7896744"><ele>787.0</ele><time>2026-04-18T08:16:53.964Z</time></trkpt><trkpt lat="44.422616" lon="10.7896256"><ele>788.5</ele><time>2026-04-18T08:16:54.965Z</time></trkpt><trkpt lat="44.422501" lon="10.7895535"><ele>790.0</ele><time>2026-04-18T08:16:56.964Z</time></trkpt><trkpt lat="44.42244" lon="10.7894955"><ele>791.4999999999999</ele><time>2026-04-18T08:16:57.964Z</time></trkpt><trkpt lat="44.4223766" lon="10.7894505"><ele>793.0</ele><time>2026-04-18T08:16:58.965Z</time></trkpt><trkpt lat="44.4223185" lon="10.7894051"><ele>793.0</ele><time>2026-04-18T08:16:59.964Z</time></trkpt><trkpt lat="44.4222149" lon="10.7893243"><ele>793.0</ele><time>2026-04-18T08:17:01.964Z</time></trkpt><trkpt lat="44.4221232" lon="10.7892525"><ele>793.0</ele><time>2026-04-18T08:17:03.965Z</time></trkpt><trkpt lat="44.4220368" lon="10.7891812"><ele>793.0</ele><time>2026-04-18T08:17:05.965Z</time></trkpt><trkpt lat="44.4219634" lon="10.7891225"><ele>793.0</ele><time>2026-04-18T08:17:07.965Z</time></trkpt><trkpt lat="44.4219136" lon="10.7890521"><ele>792.9999999999999</ele><time>2026-04-18T08:17:09.965Z</time></trkpt><trkpt lat="44.4219897" lon="10.7889368"><ele>793.0</ele><time>2026-04-18T08:17:11.965Z</time></trkpt><trkpt lat="44.4220433" lon="10.7888828"><ele>793.0</ele><time>2026-04-18T08:17:12.964Z</time></trkpt><trkpt lat="44.422124" lon="10.7888577"><ele>793.0</ele><time>2026-04-18T08:17:13.964Z</time></trkpt><trkpt lat="44.422195" lon="10.7888175"><ele>792.9999999999999</ele><time>2026-04-18T08:17:14.964Z</time></trkpt><trkpt lat="44.4222631" lon="10.7887738"><ele>793.0</ele><time>2026-04-18T08:17:15.965Z</time></trkpt><trkpt lat="44.4223388" lon="10.788731"><ele>792.9999999999999</ele><time>2026-04-18T08:17:16.965Z</time></trkpt><trkpt lat="44.4224119" lon="10.7886859"><ele>793.0</ele><time>2026-04-18T08:17:17.965Z</time></trkpt><trkpt lat="44.4224849" lon="10.7886409"><ele>793.0</ele><time>2026-04-18T08:17:18.964Z</time></trkpt><trkpt lat="44.4225513" lon="10.7885994"><ele>793.0</ele><time>2026-04-18T08:17:19.964Z</time></trkpt><trkpt lat="44.4226496" lon="10.7885177"><ele>792.9999999999999</ele><time>2026-04-18T08:17:21.964Z</time></trkpt><trkpt lat="44.4226991" lon="10.7884627"><ele>793.0</ele><time>2026-04-18T08:17:22.965Z</time></trkpt><trkpt lat="44.4227576" lon="10.7883946"><ele>791.4999999999999</ele><time>2026-04-18T08:17:23.964Z</time></trkpt><trkpt lat="44.4228198" lon="10.7883132"><ele>790.0</ele><time>2026-04-18T08:17:24.965Z</time></trkpt><trkpt lat="44.4228787" lon="10.788222"><ele>788.5</ele><time>2026-04-18T08:17:25.964Z</time></trkpt><trkpt lat="44.4229223" lon="10.788123"><ele>787.0</ele><time>2026-04-18T08:17:26.965Z</time></trkpt><trkpt lat="44.4229387" lon="10.7880089"><ele>785.4999999999999</ele><time>2026-04-18T08:17:27.964Z</time></trkpt><trkpt lat="44.422924" lon="10.787895"><ele>784.0</ele><time>2026-04-18T08:17:28.965Z</time></trkpt><trkpt lat="44.4228926" lon="10.7877745"><ele>781.9999999999999</ele><time>2026-04-18T08:17:29.964Z</time></trkpt><trkpt lat="44.4228612" lon="10.7876586"><ele>780.0</ele><time>2026-04-18T08:17:30.964Z</time></trkpt><trkpt lat="44.422825" lon="10.7875522"><ele>778.0</ele><time>2026-04-18T08:17:31.965Z</time></trkpt><trkpt lat="44.4227941" lon="10.7874407"><ele>776.0</ele><time>2026-04-18T08:17:32.964Z</time></trkpt><trkpt lat="44.4227684" lon="10.7873239"><ele>773.9999999999999</ele><time>2026-04-18T08:17:33.965Z</time></trkpt><trkpt lat="44.4227364" lon="10.7872117"><ele>772.0</ele><time>2026-04-18T08:17:34.964Z</time></trkpt><trkpt lat="44.4227055" lon="10.7870965"><ele>772.0</ele><time>2026-04-18T08:17:35.964Z</time></trkpt><trkpt lat="44.4226805" lon="10.7869761"><ele>772.0</ele><time>2026-04-18T08:17:36.965Z</time></trkpt><trkpt lat="44.4226534" lon="10.7868535"><ele>772.0</ele><time>2026-04-18T08:17:37.965Z</time></trkpt><trkpt lat="44.422668" lon="10.7867091"><ele>772.0</ele><time>2026-04-18T08:17:38.964Z</time></trkpt><trkpt lat="44.4226897" lon="10.7865642"><ele>772.0</ele><time>2026-04-18T08:17:39.964Z</time></trkpt><trkpt lat="44.4227245" lon="10.786423"><ele>770.0</ele><time>2026-04-18T08:17:40.964Z</time></trkpt><trkpt lat="44.4227743" lon="10.7862882"><ele>768.0</ele><time>2026-04-18T08:17:41.965Z</time></trkpt><trkpt lat="44.4228392" lon="10.7861653"><ele>766.0</ele><time>2026-04-18T08:17:42.965Z</time></trkpt><trkpt lat="44.4228873" lon="10.7860449"><ele>764.0</ele><time>2026-04-18T08:17:43.964Z</time></trkpt><trkpt lat="44.4229236" lon="10.785914"><ele>762.0</ele><time>2026-04-18T08:17:44.964Z</time></trkpt><trkpt lat="44.4229429" lon="10.7857808"><ele>759.4000000000001</ele><time>2026-04-18T08:17:45.964Z</time></trkpt><trkpt lat="44.4229361" lon="10.7856467"><ele>756.8000000000001</ele><time>2026-04-18T08:17:46.965Z</time></trkpt><trkpt lat="44.4228981" lon="10.7855211"><ele>754.2</ele><time>2026-04-18T08:17:47.965Z</time></trkpt><trkpt lat="44.4228333" lon="10.7854098"><ele>751.6</ele><time>2026-04-18T08:17:48.965Z</time></trkpt><trkpt lat="44.4227587" lon="10.7852918"><ele>749.0</ele><time>2026-04-18T08:17:49.965Z</time></trkpt><trkpt lat="44.4226844" lon="10.7851746"><ele>748.6</ele><time>2026-04-18T08:17:50.964Z</time></trkpt><trkpt lat="44.4226213" lon="10.7850542"><ele>748.2</ele><time>2026-04-18T08:17:51.965Z</time></trkpt><trkpt lat="44.4225562" lon="10.7849312"><ele>747.8000000000001</ele><time>2026-04-18T08:17:52.965Z</time></trkpt><trkpt lat="44.4224974" lon="10.7848157"><ele>747.4000000000001</ele><time>2026-04-18T08:17:53.965Z</time></trkpt><trkpt lat="44.4224335" lon="10.7846987"><ele>747.0</ele><time>2026-04-18T08:17:54.965Z</time></trkpt><trkpt lat="44.4223608" lon="10.7845996"><ele>747.0</ele><time>2026-04-18T08:17:55.964Z</time></trkpt><trkpt lat="44.4222851" lon="10.7845011"><ele>747.0</ele><time>2026-04-18T08:17:56.964Z</time></trkpt><trkpt lat="44.4221996" lon="10.7844254"><ele>747.0</ele><time>2026-04-18T08:17:57.964Z</time></trkpt><trkpt lat="44.4221058" lon="10.7843593"><ele>747.0</ele><time>2026-04-18T08:17:58.964Z</time></trkpt><trkpt lat="44.4220125" lon="10.78429"><ele>747.0</ele><time>2026-04-18T08:17:59.965Z</time></trkpt><trkpt lat="44.4219142" lon="10.7842364"><ele>742.6</ele><time>2026-04-18T08:18:00.964Z</time></trkpt><trkpt lat="44.4218174" lon="10.7841774"><ele>738.2</ele><time>2026-04-18T08:18:01.964Z</time></trkpt><trkpt lat="44.4217305" lon="10.7840978"><ele>733.8</ele><time>2026-04-18T08:18:02.964Z</time></trkpt><trkpt lat="44.4216366" lon="10.7840243"><ele>729.4</ele><time>2026-04-18T08:18:03.965Z</time></trkpt><trkpt lat="44.4215402" lon="10.7839551"><ele>725.0</ele><time>2026-04-18T08:18:04.965Z</time></trkpt><trkpt lat="44.4214468" lon="10.7838922"><ele>725.0</ele><time>2026-04-18T08:18:05.965Z</time></trkpt><trkpt lat="44.4213594" lon="10.7838433"><ele>725.0</ele><time>2026-04-18T08:18:06.964Z</time></trkpt><trkpt lat="44.4212708" lon="10.7838037"><ele>725.0</ele><time>2026-04-18T08:18:07.965Z</time></trkpt><trkpt lat="44.4211818" lon="10.7837803"><ele>725.0</ele><time>2026-04-18T08:18:08.965Z</time></trkpt><trkpt lat="44.4210968" lon="10.7837542"><ele>725.0</ele><time>2026-04-18T08:18:09.964Z</time></trkpt><trkpt lat="44.4210106" lon="10.7837329"><ele>723.3333333333333</ele><time>2026-04-18T08:18:10.965Z</time></trkpt><trkpt lat="44.4209376" lon="10.7837265"><ele>721.6666666666666</ele><time>2026-04-18T08:18:11.964Z</time></trkpt><trkpt lat="44.4208576" lon="10.7837217"><ele>720.0</ele><time>2026-04-18T08:18:12.964Z</time></trkpt><trkpt lat="44.4207732" lon="10.7836929"><ele>718.3333333333334</ele><time>2026-04-18T08:18:13.965Z</time></trkpt><trkpt lat="44.4206929" lon="10.7836578"><ele>716.6666666666667</ele><time>2026-04-18T08:18:14.964Z</time></trkpt><trkpt lat="44.4206107" lon="10.7836153"><ele>715.0</ele><time>2026-04-18T08:18:15.965Z</time></trkpt><trkpt lat="44.4205212" lon="10.7835588"><ele>712.8571428571429</ele><time>2026-04-18T08:18:16.964Z</time></trkpt><trkpt lat="44.4204414" lon="10.7834992"><ele>710.7142857142857</ele><time>2026-04-18T08:18:17.964Z</time></trkpt><trkpt lat="44.4203643" lon="10.783464"><ele>708.5714285714286</ele><time>2026-04-18T08:18:18.964Z</time></trkpt><trkpt lat="44.4202909" lon="10.7834304"><ele>706.4285714285714</ele><time>2026-04-18T08:18:19.965Z</time></trkpt><trkpt lat="44.420228" lon="10.7834009"><ele>704.2857142857142</ele><time>2026-04-18T08:18:20.964Z</time></trkpt><trkpt lat="44.4201656" lon="10.7833771"><ele>702.1428571428571</ele><time>2026-04-18T08:18:21.964Z</time></trkpt><trkpt lat="44.4201029" lon="10.7833527"><ele>700.0</ele><time>2026-04-18T08:18:22.964Z</time></trkpt><trkpt lat="44.4199975" lon="10.7833472"><ele>700.0</ele><time>2026-04-18T08:18:24.965Z</time></trkpt><trkpt lat="44.4199079" lon="10.783316"><ele>700.0</ele><time>2026-04-18T08:18:39.964Z</time></trkpt><trkpt lat="44.4199552" lon="10.7832366"><ele>700.0</ele><time>2026-04-18T08:18:43.964Z</time></trkpt><trkpt lat="44.4200456" lon="10.7832155"><ele>700.0</ele><time>2026-04-18T08:18:45.964Z</time></trkpt><trkpt lat="44.4201335" lon="10.7832161"><ele>700.0</ele><time>2026-04-18T08:18:47.964Z</time></trkpt><trkpt lat="44.4202593" lon="10.7832038"><ele>700.0</ele><time>2026-04-18T08:18:49.964Z</time></trkpt><trkpt lat="44.4203254" lon="10.7831902"><ele>700.0</ele><time>2026-04-18T08:18:50.965Z</time></trkpt><trkpt lat="44.4203955" lon="10.7831848"><ele>700.0</ele><time>2026-04-18T08:18:51.964Z</time></trkpt><trkpt lat="44.4204693" lon="10.7831873"><ele>700.0</ele><time>2026-04-18T08:18:52.965Z</time></trkpt><trkpt lat="44.420539" lon="10.7831775"><ele>700.0</ele><time>2026-04-18T08:18:53.964Z</time></trkpt><trkpt lat="44.4206058" lon="10.783144"><ele>700.0</ele><time>2026-04-18T08:18:54.964Z</time></trkpt><trkpt lat="44.4206677" lon="10.783116"><ele>700.0</ele><time>2026-04-18T08:18:55.964Z</time></trkpt><trkpt lat="44.4207304" lon="10.7830822"><ele>701.5</ele><time>2026-04-18T08:18:56.964Z</time></trkpt><trkpt lat="44.420789" lon="10.783048"><ele>703.0</ele><time>2026-04-18T08:18:57.964Z</time></trkpt><trkpt lat="44.4209084" lon="10.7830078"><ele>704.5</ele><time>2026-04-18T08:18:59.965Z</time></trkpt><trkpt lat="44.4209707" lon="10.7829861"><ele>706.0</ele><time>2026-04-18T08:19:00.965Z</time></trkpt><trkpt lat="44.4210323" lon="10.7829578"><ele>707.5</ele><time>2026-04-18T08:19:01.965Z</time></trkpt><trkpt lat="44.4211495" lon="10.7829492"><ele>709.0</ele><time>2026-04-18T08:19:03.964Z</time></trkpt><trkpt lat="44.421212" lon="10.7829688"><ele>707.6666666666667</ele><time>2026-04-18T08:19:04.964Z</time></trkpt><trkpt lat="44.4213235" lon="10.7829474"><ele>706.3333333333334</ele><time>2026-04-18T08:19:06.964Z</time></trkpt><trkpt lat="44.4213962" lon="10.7829319"><ele>705.0</ele><time>2026-04-18T08:19:08.965Z</time></trkpt><trkpt lat="44.4214612" lon="10.7829207"><ele>703.6666666666666</ele><time>2026-04-18T08:19:10.964Z</time></trkpt><trkpt lat="44.4215277" lon="10.7828403"><ele>702.3333333333333</ele><time>2026-04-18T08:19:13.965Z</time></trkpt><trkpt lat="44.4215864" lon="10.782772"><ele>701.0</ele><time>2026-04-18T08:19:15.964Z</time></trkpt><trkpt lat="44.4216701" lon="10.7826594"><ele>701.0</ele><time>2026-04-18T08:19:17.964Z</time></trkpt><trkpt lat="44.4217815" lon="10.782567"><ele>701.0</ele><time>2026-04-18T08:19:19.965Z</time></trkpt><trkpt lat="44.4218406" lon="10.7825318"><ele>701.0</ele><time>2026-04-18T08:19:20.964Z</time></trkpt><trkpt lat="44.4219424" lon="10.7824756"><ele>701.0</ele><time>2026-04-18T08:19:22.965Z</time></trkpt><trkpt lat="44.4220021" lon="10.782382"><ele>701.0</ele><time>2026-04-18T08:19:24.964Z</time></trkpt><trkpt lat="44.4220088" lon="10.7822889"><ele>701.0</ele><time>2026-04-18T08:19:27.964Z</time></trkpt><trkpt lat="44.4219743" lon="10.782167"><ele>701.0</ele><time>2026-04-18T08:19:31.965Z</time></trkpt><trkpt lat="44.4219584" lon="10.7820741"><ele>701.0</ele><time>2026-04-18T08:19:33.964Z</time></trkpt><trkpt lat="44.4218697" lon="10.7820083"><ele>701.0</ele><time>2026-04-18T08:19:35.964Z</time></trkpt><trkpt lat="44.4217545" lon="10.7819546"><ele>701.0</ele><time>2026-04-18T08:19:37.965Z</time></trkpt><trkpt lat="44.4216401" lon="10.7819377"><ele>701.0</ele><time>2026-04-18T08:19:39.965Z</time></trkpt><trkpt lat="44.4215447" lon="10.7819066"><ele>701.0</ele><time>2026-04-18T08:19:41.964Z</time></trkpt><trkpt lat="44.4214485" lon="10.7818769"><ele>701.0</ele><time>2026-04-18T08:19:43.964Z</time></trkpt><trkpt lat="44.4213628" lon="10.7818211"><ele>701.0</ele><time>2026-04-18T08:19:45.964Z</time></trkpt><trkpt lat="44.4213079" lon="10.781722"><ele>701.0</ele><time>2026-04-18T08:19:47.965Z</time></trkpt><trkpt lat="44.4212905" lon="10.7815663"><ele>701.1666666666666</ele><time>2026-04-18T08:19:49.964Z</time></trkpt><trkpt lat="44.4212835" lon="10.7814759"><ele>701.3333333333333</ele><time>2026-04-18T08:19:50.965Z</time></trkpt><trkpt lat="44.4212557" lon="10.7813045"><ele>701.5</ele><time>2026-04-18T08:19:52.965Z</time></trkpt><trkpt lat="44.4212317" lon="10.7812168"><ele>701.6666666666666</ele><time>2026-04-18T08:19:53.965Z</time></trkpt><trkpt lat="44.4212031" lon="10.7811349"><ele>701.8333333333334</ele><time>2026-04-18T08:19:54.965Z</time></trkpt><trkpt lat="44.4211705" lon="10.7810546"><ele>702.0</ele><time>2026-04-18T08:19:55.964Z</time></trkpt><trkpt lat="44.421118" lon="10.7809036"><ele>702.8333333333334</ele><time>2026-04-18T08:19:57.965Z</time></trkpt><trkpt lat="44.4210947" lon="10.7807908"><ele>703.6666666666666</ele><time>2026-04-18T08:19:59.964Z</time></trkpt><trkpt lat="44.4211192" lon="10.7807096"><ele>704.5</ele><time>2026-04-18T08:20:02.964Z</time></trkpt><trkpt lat="44.4211924" lon="10.7805993"><ele>705.3333333333333</ele><time>2026-04-18T08:20:30.964Z</time></trkpt><trkpt lat="44.421265" lon="10.780523"><ele>706.1666666666666</ele><time>2026-04-18T08:20:31.965Z</time></trkpt><trkpt lat="44.4213452" lon="10.780444"><ele>707.0</ele><time>2026-04-18T08:20:32.964Z</time></trkpt><trkpt lat="44.4214376" lon="10.7803532"><ele>708.75</ele><time>2026-04-18T08:20:33.964Z</time></trkpt><trkpt lat="44.4215357" lon="10.780243"><ele>710.5</ele><time>2026-04-18T08:20:34.965Z</time></trkpt><trkpt lat="44.4216361" lon="10.7801103"><ele>712.25</ele><time>2026-04-18T08:20:35.964Z</time></trkpt><trkpt lat="44.4217332" lon="10.7799876"><ele>714.0</ele><time>2026-04-18T08:20:36.965Z</time></trkpt><trkpt lat="44.4218373" lon="10.7798756"><ele>716.0</ele><time>2026-04-18T08:20:37.964Z</time></trkpt><trkpt lat="44.4219466" lon="10.7797818"><ele>718.0</ele><time>2026-04-18T08:20:38.964Z</time></trkpt><trkpt lat="44.4220452" lon="10.7797317"><ele>720.0</ele><time>2026-04-18T08:20:39.965Z</time></trkpt><trkpt lat="44.4221505" lon="10.7797277"><ele>722.0</ele><time>2026-04-18T08:20:40.964Z</time></trkpt><trkpt lat="44.4222691" lon="10.7797739"><ele>723.0</ele><time>2026-04-18T08:20:41.964Z</time></trkpt><trkpt lat="44.4223911" lon="10.7798014"><ele>724.0</ele><time>2026-04-18T08:20:42.964Z</time></trkpt><trkpt lat="44.4225093" lon="10.7798152"><ele>725.0</ele><time>2026-04-18T08:20:43.964Z</time></trkpt><trkpt lat="44.4226104" lon="10.7798651"><ele>726.0</ele><time>2026-04-18T08:20:44.964Z</time></trkpt><trkpt lat="44.4227241" lon="10.7799489"><ele>726.0</ele><time>2026-04-18T08:20:45.965Z</time></trkpt><trkpt lat="44.4228382" lon="10.7800113"><ele>726.0</ele><time>2026-04-18T08:20:46.965Z</time></trkpt><trkpt lat="44.4229573" lon="10.780073"><ele>726.0</ele><time>2026-04-18T08:20:47.965Z</time></trkpt><trkpt lat="44.423068" lon="10.7801485"><ele>726.0</ele><time>2026-04-18T08:20:48.965Z</time></trkpt><trkpt lat="44.4231608" lon="10.780209"><ele>725.1666666666666</ele><time>2026-04-18T08:20:49.964Z</time></trkpt><trkpt lat="44.4232508" lon="10.7802699"><ele>724.3333333333334</ele><time>2026-04-18T08:20:50.964Z</time></trkpt><trkpt lat="44.4233311" lon="10.7803149"><ele>723.5</ele><time>2026-04-18T08:20:51.965Z</time></trkpt><trkpt lat="44.4234019" lon="10.7803545"><ele>722.6666666666667</ele><time>2026-04-18T08:20:52.964Z</time></trkpt><trkpt lat="44.4234866" lon="10.7803829"><ele>721.8333333333334</ele><time>2026-04-18T08:20:53.965Z</time></trkpt><trkpt lat="44.4235621" lon="10.7803801"><ele>721.0</ele><time>2026-04-18T08:20:54.964Z</time></trkpt><trkpt lat="44.4236496" lon="10.7803324"><ele>721.0</ele><time>2026-04-18T08:20:55.965Z</time></trkpt><trkpt lat="44.4237557" lon="10.7802896"><ele>721.0</ele><time>2026-04-18T08:20:56.964Z</time></trkpt><trkpt lat="44.4238526" lon="10.7802566"><ele>721.0</ele><time>2026-04-18T08:20:57.964Z</time></trkpt><trkpt lat="44.4239587" lon="10.7802025"><ele>721.0</ele><time>2026-04-18T08:20:58.964Z</time></trkpt><trkpt lat="44.4240616" lon="10.780144"><ele>721.0</ele><time>2026-04-18T08:20:59.965Z</time></trkpt><trkpt lat="44.4241678" lon="10.7800644"><ele>724.1999999999999</ele><time>2026-04-18T08:21:00.964Z</time></trkpt><trkpt lat="44.4242638" lon="10.779977"><ele>727.4</ele><time>2026-04-18T08:21:01.965Z</time></trkpt><trkpt lat="44.4243459" lon="10.779881"><ele>730.6</ele><time>2026-04-18T08:21:02.964Z</time></trkpt><trkpt lat="44.424432" lon="10.7797855"><ele>733.8</ele><time>2026-04-18T08:21:03.964Z</time></trkpt><trkpt lat="44.4245361" lon="10.7797219"><ele>737.0</ele><time>2026-04-18T08:21:04.965Z</time></trkpt><trkpt lat="44.4246328" lon="10.7796463"><ele>736.8</ele><time>2026-04-18T08:21:05.964Z</time></trkpt><trkpt lat="44.4247272" lon="10.7795803"><ele>736.6</ele><time>2026-04-18T08:21:06.964Z</time></trkpt><trkpt lat="44.424814" lon="10.7794785"><ele>736.4</ele><time>2026-04-18T08:21:07.964Z</time></trkpt><trkpt lat="44.4249" lon="10.7793849"><ele>736.1999999999999</ele><time>2026-04-18T08:21:08.964Z</time></trkpt><trkpt lat="44.4249841" lon="10.7792952"><ele>736.0</ele><time>2026-04-18T08:21:09.964Z</time></trkpt><trkpt lat="44.4250635" lon="10.779223"><ele>737.0</ele><time>2026-04-18T08:21:10.965Z</time></trkpt><trkpt lat="44.4251404" lon="10.7791558"><ele>738.0</ele><time>2026-04-18T08:21:11.965Z</time></trkpt><trkpt lat="44.4252286" lon="10.7791119"><ele>739.0</ele><time>2026-04-18T08:21:12.965Z</time></trkpt><trkpt lat="44.4253187" lon="10.7790859"><ele>740.0</ele><time>2026-04-18T08:21:13.965Z</time></trkpt><trkpt lat="44.4254013" lon="10.7790443"><ele>741.0</ele><time>2026-04-18T08:21:14.964Z</time></trkpt><trkpt lat="44.4254862" lon="10.778991"><ele>741.6666666666666</ele><time>2026-04-18T08:21:15.965Z</time></trkpt><trkpt lat="44.4255407" lon="10.7789101"><ele>742.3333333333334</ele><time>2026-04-18T08:21:16.964Z</time></trkpt><trkpt lat="44.4256158" lon="10.7788665"><ele>743.0</ele><time>2026-04-18T08:21:17.964Z</time></trkpt><trkpt lat="44.4257004" lon="10.778821"><ele>743.6666666666667</ele><time>2026-04-18T08:21:18.964Z</time></trkpt><trkpt lat="44.4257972" lon="10.7788347"><ele>744.3333333333334</ele><time>2026-04-18T08:21:19.964Z</time></trkpt><trkpt lat="44.4258862" lon="10.7788416"><ele>745.0</ele><time>2026-04-18T08:21:20.964Z</time></trkpt><trkpt lat="44.4259669" lon="10.778857"><ele>745.0</ele><time>2026-04-18T08:21:21.964Z</time></trkpt><trkpt lat="44.426038" lon="10.7788524"><ele>745.0</ele><time>2026-04-18T08:21:22.964Z</time></trkpt><trkpt lat="44.4261081" lon="10.7788292"><ele>745.0</ele><time>2026-04-18T08:21:23.964Z</time></trkpt><trkpt lat="44.4261706" lon="10.7787813"><ele>745.0</ele><time>2026-04-18T08:21:24.965Z</time></trkpt><trkpt lat="44.4262308" lon="10.7787106"><ele>745.0</ele><time>2026-04-18T08:21:25.964Z</time></trkpt><trkpt lat="44.4262881" lon="10.7786294"><ele>745.0</ele><time>2026-04-18T08:21:26.964Z</time></trkpt><trkpt lat="44.4263453" lon="10.7785311"><ele>745.8333333333334</ele><time>2026-04-18T08:21:27.964Z</time></trkpt><trkpt lat="44.4263933" lon="10.7784224"><ele>746.6666666666667</ele><time>2026-04-18T08:21:28.965Z</time></trkpt><trkpt lat="44.4264358" lon="10.7783325"><ele>747.5</ele><time>2026-04-18T08:21:29.965Z</time></trkpt><trkpt lat="44.4264991" lon="10.7782793"><ele>748.3333333333334</ele><time>2026-04-18T08:21:30.965Z</time></trkpt><trkpt lat="44.4265944" lon="10.7782753"><ele>749.1666666666666</ele><time>2026-04-18T08:21:32.965Z</time></trkpt><trkpt lat="44.4266604" lon="10.7782259"><ele>750.0</ele><time>2026-04-18T08:21:35.964Z</time></trkpt><trkpt lat="44.4266346" lon="10.7781419"><ele>750.0</ele><time>2026-04-18T08:21:58.965Z</time></trkpt><trkpt lat="44.4266231" lon="10.7780547"><ele>750.0</ele><time>2026-04-18T08:21:59.964Z</time></trkpt><trkpt lat="44.4266208" lon="10.7779547"><ele>750.0</ele><time>2026-04-18T08:22:00.965Z</time></trkpt><trkpt lat="44.4266269" lon="10.7778524"><ele>750.0</ele><time>2026-04-18T08:22:01.965Z</time></trkpt><trkpt lat="44.4266367" lon="10.777758"><ele>750.0</ele><time>2026-04-18T08:22:02.965Z</time></trkpt><trkpt lat="44.4266579" lon="10.7776736"><ele>750.0</ele><time>2026-04-18T08:22:03.964Z</time></trkpt><trkpt lat="44.4266902" lon="10.7775956"><ele>750.0</ele><time>2026-04-18T08:22:04.964Z</time></trkpt><trkpt lat="44.4267357" lon="10.7775231"><ele>751.5</ele><time>2026-04-18T08:22:05.964Z</time></trkpt><trkpt lat="44.4267985" lon="10.7774629"><ele>753.0</ele><time>2026-04-18T08:22:06.964Z</time></trkpt><trkpt lat="44.426874" lon="10.7774255"><ele>754.5</ele><time>2026-04-18T08:22:07.965Z</time></trkpt><trkpt lat="44.4269446" lon="10.7773784"><ele>756.0</ele><time>2026-04-18T08:22:08.965Z</time></trkpt><trkpt lat="44.4270142" lon="10.7773161"><ele>757.5</ele><time>2026-04-18T08:22:09.965Z</time></trkpt><trkpt lat="44.4270595" lon="10.7772252"><ele>759.0</ele><time>2026-04-18T08:22:10.965Z</time></trkpt><trkpt lat="44.4270961" lon="10.777125"><ele>759.0</ele><time>2026-04-18T08:22:11.964Z</time></trkpt><trkpt lat="44.4270879" lon="10.7769922"><ele>759.0</ele><time>2026-04-18T08:22:12.965Z</time></trkpt><trkpt lat="44.4270892" lon="10.7768646"><ele>759.0</ele><time>2026-04-18T08:22:13.965Z</time></trkpt><trkpt lat="44.4270902" lon="10.776733"><ele>759.0</ele><time>2026-04-18T08:22:14.964Z</time></trkpt><trkpt lat="44.4270918" lon="10.776603"><ele>759.0</ele><time>2026-04-18T08:22:15.964Z</time></trkpt><trkpt lat="44.4271051" lon="10.7764696"><ele>759.0</ele><time>2026-04-18T08:22:16.964Z</time></trkpt><trkpt lat="44.4271505" lon="10.7763641"><ele>759.0</ele><time>2026-04-18T08:22:17.965Z</time></trkpt><trkpt lat="44.4272277" lon="10.7762928"><ele>759.0</ele><time>2026-04-18T08:22:18.965Z</time></trkpt><trkpt lat="44.4273184" lon="10.7762362"><ele>759.0</ele><time>2026-04-18T08:22:19.965Z</time></trkpt><trkpt lat="44.4274186" lon="10.7761799"><ele>759.0</ele><time>2026-04-18T08:22:20.965Z</time></trkpt><trkpt lat="44.4275256" lon="10.7761255"><ele>759.0</ele><time>2026-04-18T08:22:21.965Z</time></trkpt><trkpt lat="44.4276309" lon="10.7760623"><ele>759.0</ele><time>2026-04-18T08:22:22.965Z</time></trkpt><trkpt lat="44.4277256" lon="10.7760017"><ele>759.0</ele><time>2026-04-18T08:22:23.965Z</time></trkpt><trkpt lat="44.4278065" lon="10.7759363"><ele>759.0</ele><time>2026-04-18T08:22:24.964Z</time></trkpt><trkpt lat="44.4278599" lon="10.7758487"><ele>759.0</ele><time>2026-04-18T08:22:25.965Z</time></trkpt><trkpt lat="44.4278708" lon="10.7757516"><ele>760.8333333333334</ele><time>2026-04-18T08:22:26.964Z</time></trkpt><trkpt lat="44.427836" lon="10.77567"><ele>762.6666666666667</ele><time>2026-04-18T08:22:27.964Z</time></trkpt><trkpt lat="44.4277686" lon="10.7756348"><ele>764.5</ele><time>2026-04-18T08:22:28.964Z</time></trkpt><trkpt lat="44.427681" lon="10.7756414"><ele>766.3333333333334</ele><time>2026-04-18T08:22:29.964Z</time></trkpt><trkpt lat="44.4275814" lon="10.775677"><ele>768.1666666666667</ele><time>2026-04-18T08:22:30.964Z</time></trkpt><trkpt lat="44.4274727" lon="10.7757246"><ele>770.0</ele><time>2026-04-18T08:22:31.964Z</time></trkpt><trkpt lat="44.4273571" lon="10.7757533"><ele>770.0</ele><time>2026-04-18T08:22:32.964Z</time></trkpt><trkpt lat="44.4272322" lon="10.7757419"><ele>770.0</ele><time>2026-04-18T08:22:33.964Z</time></trkpt><trkpt lat="44.4271021" lon="10.7757391"><ele>770.0</ele><time>2026-04-18T08:22:34.965Z</time></trkpt><trkpt lat="44.4269737" lon="10.7757838"><ele>770.0</ele><time>2026-04-18T08:22:35.964Z</time></trkpt><trkpt lat="44.4268563" lon="10.7758672"><ele>769.0</ele><time>2026-04-18T08:22:36.964Z</time></trkpt><trkpt lat="44.4267392" lon="10.7759431"><ele>768.0</ele><time>2026-04-18T08:22:37.964Z</time></trkpt><trkpt lat="44.4266105" lon="10.7759775"><ele>767.0</ele><time>2026-04-18T08:22:38.964Z</time></trkpt><trkpt lat="44.4264799" lon="10.7760047"><ele>766.0</ele><time>2026-04-18T08:22:39.964Z</time></trkpt><trkpt lat="44.4263396" lon="10.7760403"><ele>767.5</ele><time>2026-04-18T08:22:40.964Z</time></trkpt><trkpt lat="44.4261986" lon="10.7760924"><ele>769.0</ele><time>2026-04-18T08:22:41.964Z</time></trkpt><trkpt lat="44.4260584" lon="10.7761639"><ele>770.5</ele><time>2026-04-18T08:22:42.964Z</time></trkpt><trkpt lat="44.4259285" lon="10.7762314"><ele>772.0</ele><time>2026-04-18T08:22:43.965Z</time></trkpt><trkpt lat="44.4258051" lon="10.7762991"><ele>772.0</ele><time>2026-04-18T08:22:44.964Z</time></trkpt><trkpt lat="44.4256759" lon="10.7763512"><ele>772.0</ele><time>2026-04-18T08:22:45.964Z</time></trkpt><trkpt lat="44.4255434" lon="10.7763789"><ele>772.0</ele><time>2026-04-18T08:22:46.964Z</time></trkpt><trkpt lat="44.4254073" lon="10.7764027"><ele>772.0</ele><time>2026-04-18T08:22:47.965Z</time></trkpt><trkpt lat="44.4252557" lon="10.7764185"><ele>773.25</ele><time>2026-04-18T08:22:48.964Z</time></trkpt><trkpt lat="44.4251104" lon="10.7764312"><ele>774.5</ele><time>2026-04-18T08:22:49.965Z</time></trkpt><trkpt lat="44.4249658" lon="10.7764417"><ele>775.75</ele><time>2026-04-18T08:22:50.965Z</time></trkpt><trkpt lat="44.4248226" lon="10.7764525"><ele>777.0</ele><time>2026-04-18T08:22:51.964Z</time></trkpt><trkpt lat="44.4246807" lon="10.7764631"><ele>779.0</ele><time>2026-04-18T08:22:52.964Z</time></trkpt><trkpt lat="44.4245429" lon="10.7764703"><ele>781.0</ele><time>2026-04-18T08:22:53.964Z</time></trkpt><trkpt lat="44.4244065" lon="10.77647"><ele>783.0</ele><time>2026-04-18T08:22:54.964Z</time></trkpt><trkpt lat="44.4242748" lon="10.7764585"><ele>785.0</ele><time>2026-04-18T08:22:55.964Z</time></trkpt><trkpt lat="44.4241454" lon="10.7764373"><ele>785.0</ele><time>2026-04-18T08:22:56.964Z</time></trkpt><trkpt lat="44.4240178" lon="10.7764288"><ele>785.0</ele><time>2026-04-18T08:22:57.964Z</time></trkpt><trkpt lat="44.4238894" lon="10.7764504"><ele>785.0</ele><time>2026-04-18T08:22:58.964Z</time></trkpt><trkpt lat="44.4237593" lon="10.7764915"><ele>785.0</ele><time>2026-04-18T08:22:59.964Z</time></trkpt><trkpt lat="44.4236261" lon="10.7765327"><ele>787.75</ele><time>2026-04-18T08:23:00.964Z</time></trkpt><trkpt lat="44.423499" lon="10.7765504"><ele>790.5</ele><time>2026-04-18T08:23:01.964Z</time></trkpt><trkpt lat="44.4233733" lon="10.7765349"><ele>793.25</ele><time>2026-04-18T08:23:02.965Z</time></trkpt><trkpt lat="44.4232507" lon="10.7764873"><ele>796.0</ele><time>2026-04-18T08:23:03.964Z</time></trkpt><trkpt lat="44.4231287" lon="10.7764146"><ele>796.0</ele><time>2026-04-18T08:23:04.965Z</time></trkpt><trkpt lat="44.4230013" lon="10.776342"><ele>796.0</ele><time>2026-04-18T08:23:05.965Z</time></trkpt><trkpt lat="44.4228703" lon="10.7762764"><ele>796.0</ele><time>2026-04-18T08:23:06.964Z</time></trkpt><trkpt lat="44.4227358" lon="10.7762247"><ele>796.0</ele><time>2026-04-18T08:23:07.964Z</time></trkpt><trkpt lat="44.4225986" lon="10.7761816"><ele>796.5</ele><time>2026-04-18T08:23:08.965Z</time></trkpt><trkpt lat="44.4224612" lon="10.776145"><ele>797.0</ele><time>2026-04-18T08:23:09.965Z</time></trkpt><trkpt lat="44.4223283" lon="10.7761078"><ele>797.5</ele><time>2026-04-18T08:23:10.965Z</time></trkpt><trkpt lat="44.4222079" lon="10.7760714"><ele>798.0</ele><time>2026-04-18T08:23:11.965Z</time></trkpt><trkpt lat="44.4221054" lon="10.7760304"><ele>800.1666666666666</ele><time>2026-04-18T08:23:12.964Z</time></trkpt><trkpt lat="44.4220329" lon="10.7759572"><ele>802.3333333333333</ele><time>2026-04-18T08:23:13.964Z</time></trkpt><trkpt lat="44.4220023" lon="10.7758605"><ele>804.5</ele><time>2026-04-18T08:23:14.964Z</time></trkpt><trkpt lat="44.4220243" lon="10.775771"><ele>806.6666666666666</ele><time>2026-04-18T08:23:15.964Z</time></trkpt><trkpt lat="44.4220835" lon="10.7756939"><ele>808.8333333333333</ele><time>2026-04-18T08:23:16.964Z</time></trkpt><trkpt lat="44.4221713" lon="10.7756308"><ele>811.0</ele><time>2026-04-18T08:23:17.964Z</time></trkpt><trkpt lat="44.4222719" lon="10.7755635"><ele>811.0</ele><time>2026-04-18T08:23:18.964Z</time></trkpt><trkpt lat="44.4223801" lon="10.7754873"><ele>811.0</ele><time>2026-04-18T08:23:19.964Z</time></trkpt><trkpt lat="44.4224901" lon="10.7753971"><ele>811.0</ele><time>2026-04-18T08:23:20.964Z</time></trkpt><trkpt lat="44.4226011" lon="10.7752887"><ele>811.0</ele><time>2026-04-18T08:23:21.965Z</time></trkpt><trkpt lat="44.4227108" lon="10.7751763"><ele>810.75</ele><time>2026-04-18T08:23:22.964Z</time></trkpt><trkpt lat="44.4228233" lon="10.7750638"><ele>810.5</ele><time>2026-04-18T08:23:23.964Z</time></trkpt><trkpt lat="44.4229264" lon="10.7749648"><ele>810.25</ele><time>2026-04-18T08:23:24.964Z</time></trkpt><trkpt lat="44.4230281" lon="10.7748694"><ele>810.0</ele><time>2026-04-18T08:23:25.964Z</time></trkpt><trkpt lat="44.4231148" lon="10.7747838"><ele>810.0</ele><time>2026-04-18T08:23:26.965Z</time></trkpt><trkpt lat="44.4231922" lon="10.7747068"><ele>810.0</ele><time>2026-04-18T08:23:27.964Z</time></trkpt><trkpt lat="44.4232577" lon="10.7746133"><ele>810.0</ele><time>2026-04-18T08:23:28.965Z</time></trkpt><trkpt lat="44.4232848" lon="10.7745094"><ele>810.0</ele><time>2026-04-18T08:23:29.964Z</time></trkpt><trkpt lat="44.423316" lon="10.7743412"><ele>810.0</ele><time>2026-04-18T08:23:31.965Z</time></trkpt><trkpt lat="44.4233515" lon="10.774245"><ele>812.0</ele><time>2026-04-18T08:23:32.964Z</time></trkpt><trkpt lat="44.4233767" lon="10.7741396"><ele>814.0</ele><time>2026-04-18T08:23:33.964Z</time></trkpt><trkpt lat="44.4234032" lon="10.7740301"><ele>816.0</ele><time>2026-04-18T08:23:34.965Z</time></trkpt><trkpt lat="44.423424" lon="10.7739224"><ele>818.0</ele><time>2026-04-18T08:23:35.965Z</time></trkpt><trkpt lat="44.4234529" lon="10.7738179"><ele>820.0</ele><time>2026-04-18T08:23:36.964Z</time></trkpt><trkpt lat="44.4234937" lon="10.7737157"><ele>822.0</ele><time>2026-04-18T08:23:37.965Z</time></trkpt><trkpt lat="44.4235356" lon="10.7736118"><ele>823.8333333333334</ele><time>2026-04-18T08:23:38.964Z</time></trkpt><trkpt lat="44.4235749" lon="10.7735161"><ele>825.6666666666667</ele><time>2026-04-18T08:23:39.964Z</time></trkpt><trkpt lat="44.4236207" lon="10.7734219"><ele>827.5</ele><time>2026-04-18T08:23:40.964Z</time></trkpt><trkpt lat="44.4236653" lon="10.7733258"><ele>829.3333333333334</ele><time>2026-04-18T08:23:41.964Z</time></trkpt><trkpt lat="44.4237058" lon="10.7732429"><ele>831.1666666666667</ele><time>2026-04-18T08:23:42.964Z</time></trkpt><trkpt lat="44.4237503" lon="10.7731308"><ele>833.0</ele><time>2026-04-18T08:23:44.964Z</time></trkpt><trkpt lat="44.4237709" lon="10.7729758"><ele>833.0000000000001</ele><time>2026-04-18T08:23:46.964Z</time></trkpt><trkpt lat="44.4237875" lon="10.7728823"><ele>833.0</ele><time>2026-04-18T08:23:47.964Z</time></trkpt><trkpt lat="44.4238147" lon="10.7727816"><ele>833.0</ele><time>2026-04-18T08:23:48.965Z</time></trkpt><trkpt lat="44.4238475" lon="10.7726817"><ele>833.0</ele><time>2026-04-18T08:23:49.965Z</time></trkpt><trkpt lat="44.4238876" lon="10.7725739"><ele>833.0000000000001</ele><time>2026-04-18T08:23:50.964Z</time></trkpt><trkpt lat="44.4239307" lon="10.7724635"><ele>833.0</ele><time>2026-04-18T08:23:51.964Z</time></trkpt><trkpt lat="44.4239706" lon="10.7723586"><ele>836.1666666666667</ele><time>2026-04-18T08:23:52.965Z</time></trkpt><trkpt lat="44.4240094" lon="10.7722673"><ele>839.3333333333334</ele><time>2026-04-18T08:23:53.964Z</time></trkpt><trkpt lat="44.4240454" lon="10.7721713"><ele>842.5</ele><time>2026-04-18T08:23:54.965Z</time></trkpt><trkpt lat="44.4240844" lon="10.7720725"><ele>845.6666666666667</ele><time>2026-04-18T08:23:55.965Z</time></trkpt><trkpt lat="44.424182" lon="10.77194"><ele>848.8333333333334</ele><time>2026-04-18T08:23:57.964Z</time></trkpt><trkpt lat="44.424243" lon="10.771881"><ele>852.0</ele><time>2026-04-18T08:23:58.964Z</time></trkpt><trkpt lat="44.4243211" lon="10.7718082"><ele>852.0</ele><time>2026-04-18T08:23:59.964Z</time></trkpt><trkpt lat="44.4243867" lon="10.7717273"><ele>852.0</ele><time>2026-04-18T08:24:00.964Z</time></trkpt><trkpt lat="44.4244359" lon="10.7716281"><ele>852.0</ele><time>2026-04-18T08:24:01.964Z</time></trkpt><trkpt lat="44.4244892" lon="10.771523"><ele>852.0</ele><time>2026-04-18T08:24:02.965Z</time></trkpt><trkpt lat="44.4245513" lon="10.7714269"><ele>852.0</ele><time>2026-04-18T08:24:03.964Z</time></trkpt><trkpt lat="44.4246114" lon="10.7713492"><ele>852.0</ele><time>2026-04-18T08:24:04.965Z</time></trkpt><trkpt lat="44.4246808" lon="10.7712882"><ele>851.5</ele><time>2026-04-18T08:24:05.965Z</time></trkpt><trkpt lat="44.4247374" lon="10.771202"><ele>851.0</ele><time>2026-04-18T08:24:06.964Z</time></trkpt><trkpt lat="44.4247827" lon="10.7711078"><ele>850.5</ele><time>2026-04-18T08:24:07.964Z</time></trkpt><trkpt lat="44.4248263" lon="10.7710076"><ele>850.0</ele><time>2026-04-18T08:24:08.964Z</time></trkpt><trkpt lat="44.4248886" lon="10.7709251"><ele>849.5</ele><time>2026-04-18T08:24:09.964Z</time></trkpt><trkpt lat="44.4249489" lon="10.770856"><ele>849.0</ele><time>2026-04-18T08:24:10.964Z</time></trkpt><trkpt lat="44.4250122" lon="10.7708022"><ele>849.0</ele><time>2026-04-18T08:24:11.965Z</time></trkpt><trkpt lat="44.4250851" lon="10.7707343"><ele>849.0</ele><time>2026-04-18T08:24:13.965Z</time></trkpt><trkpt lat="44.4251752" lon="10.7706589"><ele>849.0</ele><time>2026-04-18T08:24:15.964Z</time></trkpt><trkpt lat="44.425243" lon="10.7706047"><ele>849.0</ele><time>2026-04-18T08:24:16.964Z</time></trkpt><trkpt lat="44.4253168" lon="10.7705206"><ele>849.0</ele><time>2026-04-18T08:24:17.964Z</time></trkpt><trkpt lat="44.4253893" lon="10.7704218"><ele>849.0</ele><time>2026-04-18T08:24:18.965Z</time></trkpt><trkpt lat="44.4254513" lon="10.770305"><ele>849.0</ele><time>2026-04-18T08:24:19.964Z</time></trkpt><trkpt lat="44.4254999" lon="10.7701706"><ele>849.0</ele><time>2026-04-18T08:24:20.965Z</time></trkpt><trkpt lat="44.4255165" lon="10.7700234"><ele>849.0</ele><time>2026-04-18T08:24:21.964Z</time></trkpt><trkpt lat="44.4255145" lon="10.7698674"><ele>849.0</ele><time>2026-04-18T08:24:22.965Z</time></trkpt><trkpt lat="44.4254944" lon="10.7697155"><ele>848.5</ele><time>2026-04-18T08:24:23.965Z</time></trkpt><trkpt lat="44.4254712" lon="10.7695643"><ele>848.0</ele><time>2026-04-18T08:24:24.965Z</time></trkpt><trkpt lat="44.4254486" lon="10.7694069"><ele>847.5</ele><time>2026-04-18T08:24:25.965Z</time></trkpt><trkpt lat="44.4254297" lon="10.7692472"><ele>847.0</ele><time>2026-04-18T08:24:26.964Z</time></trkpt><trkpt lat="44.4254048" lon="10.7690946"><ele>848.0</ele><time>2026-04-18T08:24:27.964Z</time></trkpt><trkpt lat="44.4253802" lon="10.7689474"><ele>849.0</ele><time>2026-04-18T08:24:28.965Z</time></trkpt><trkpt lat="44.4253553" lon="10.7687955"><ele>850.0</ele><time>2026-04-18T08:24:29.964Z</time></trkpt><trkpt lat="44.425329" lon="10.7686422"><ele>851.0</ele><time>2026-04-18T08:24:30.965Z</time></trkpt><trkpt lat="44.4253021" lon="10.7684946"><ele>852.0</ele><time>2026-04-18T08:24:31.965Z</time></trkpt><trkpt lat="44.4252858" lon="10.7683276"><ele>853.25</ele><time>2026-04-18T08:24:32.964Z</time></trkpt><trkpt lat="44.4252639" lon="10.7681588"><ele>854.5</ele><time>2026-04-18T08:24:33.964Z</time></trkpt><trkpt lat="44.4252415" lon="10.7679905"><ele>855.75</ele><time>2026-04-18T08:24:34.964Z</time></trkpt><trkpt lat="44.4252147" lon="10.767819"><ele>857.0</ele><time>2026-04-18T08:24:35.964Z</time></trkpt><trkpt lat="44.4251897" lon="10.7676586"><ele>857.8</ele><time>2026-04-18T08:24:36.965Z</time></trkpt><trkpt lat="44.4251603" lon="10.7675057"><ele>858.6</ele><time>2026-04-18T08:24:37.965Z</time></trkpt><trkpt lat="44.4251321" lon="10.7673619"><ele>859.3999999999999</ele><time>2026-04-18T08:24:38.964Z</time></trkpt><trkpt lat="44.4251091" lon="10.7672324"><ele>860.1999999999999</ele><time>2026-04-18T08:24:39.965Z</time></trkpt><trkpt lat="44.4250993" lon="10.7671132"><ele>861.0</ele><time>2026-04-18T08:24:40.965Z</time></trkpt><trkpt lat="44.4251156" lon="10.766992"><ele>861.0</ele><time>2026-04-18T08:24:41.964Z</time></trkpt><trkpt lat="44.4251536" lon="10.7668901"><ele>860.9999999999999</ele><time>2026-04-18T08:24:42.964Z</time></trkpt><trkpt lat="44.425198" lon="10.7667906"><ele>860.9999999999999</ele><time>2026-04-18T08:24:43.965Z</time></trkpt><trkpt lat="44.4252504" lon="10.7667126"><ele>861.0</ele><time>2026-04-18T08:24:44.965Z</time></trkpt><trkpt lat="44.42537" lon="10.7666656"><ele>861.0</ele><time>2026-04-18T08:24:46.964Z</time></trkpt><trkpt lat="44.4254439" lon="10.7667258"><ele>862.5999999999999</ele><time>2026-04-18T08:24:47.964Z</time></trkpt><trkpt lat="44.4255234" lon="10.7668001"><ele>864.1999999999999</ele><time>2026-04-18T08:24:48.965Z</time></trkpt><trkpt lat="44.4256061" lon="10.7668757"><ele>865.8000000000001</ele><time>2026-04-18T08:24:49.964Z</time></trkpt><trkpt lat="44.4256934" lon="10.7669443"><ele>867.4000000000001</ele><time>2026-04-18T08:24:50.965Z</time></trkpt><trkpt lat="44.4257822" lon="10.766997"><ele>869.0</ele><time>2026-04-18T08:24:51.964Z</time></trkpt><trkpt lat="44.4258746" lon="10.7670143"><ele>869.0</ele><time>2026-04-18T08:24:52.964Z</time></trkpt><trkpt lat="44.4259684" lon="10.7670002"><ele>869.0000000000001</ele><time>2026-04-18T08:24:53.965Z</time></trkpt><trkpt lat="44.4260684" lon="10.7669745"><ele>869.0000000000001</ele><time>2026-04-18T08:24:54.964Z</time></trkpt><trkpt lat="44.4261646" lon="10.7669485"><ele>869.0</ele><time>2026-04-18T08:24:55.965Z</time></trkpt><trkpt lat="44.4262549" lon="10.766919"><ele>869.0</ele><time>2026-04-18T08:24:56.964Z</time></trkpt><trkpt lat="44.4263409" lon="10.7668757"><ele>869.0000000000001</ele><time>2026-04-18T08:24:57.964Z</time></trkpt><trkpt lat="44.426403" lon="10.7667948"><ele>869.0</ele><time>2026-04-18T08:24:58.965Z</time></trkpt><trkpt lat="44.4264651" lon="10.7667245"><ele>869.0</ele><time>2026-04-18T08:24:59.965Z</time></trkpt><trkpt lat="44.4265153" lon="10.7666329"><ele>869.0</ele><time>2026-04-18T08:25:00.965Z</time></trkpt><trkpt lat="44.4265478" lon="10.7665187"><ele>869.0000000000001</ele><time>2026-04-18T08:25:01.964Z</time></trkpt><trkpt lat="44.4265642" lon="10.7663968"><ele>869.0</ele><time>2026-04-18T08:25:02.965Z</time></trkpt><trkpt lat="44.4265745" lon="10.7662632"><ele>869.0</ele><time>2026-04-18T08:25:03.964Z</time></trkpt><trkpt lat="44.4265787" lon="10.7661261"><ele>869.0000000000001</ele><time>2026-04-18T08:25:04.964Z</time></trkpt><trkpt lat="44.4265796" lon="10.7659945"><ele>869.0000000000001</ele><time>2026-04-18T08:25:05.964Z</time></trkpt><trkpt lat="44.4265794" lon="10.765861"><ele>869.0</ele><time>2026-04-18T08:25:06.965Z</time></trkpt><trkpt lat="44.4265751" lon="10.7657287"><ele>869.0</ele><time>2026-04-18T08:25:07.964Z</time></trkpt><trkpt lat="44.4265674" lon="10.7655952"><ele>869.4000000000001</ele><time>2026-04-18T08:25:08.964Z</time></trkpt><trkpt lat="44.4265521" lon="10.765459"><ele>869.8000000000001</ele><time>2026-04-18T08:25:09.964Z</time></trkpt><trkpt lat="44.4265348" lon="10.7653266"><ele>870.1999999999999</ele><time>2026-04-18T08:25:10.964Z</time></trkpt><trkpt lat="44.4264998" lon="10.7651982"><ele>870.5999999999999</ele><time>2026-04-18T08:25:11.965Z</time></trkpt><trkpt lat="44.4264593" lon="10.7650764"><ele>871.0</ele><time>2026-04-18T08:25:12.965Z</time></trkpt><trkpt lat="44.4264254" lon="10.7649537"><ele>871.4999999999999</ele><time>2026-04-18T08:25:13.964Z</time></trkpt><trkpt lat="44.4263927" lon="10.7648286"><ele>872.0</ele><time>2026-04-18T08:25:14.964Z</time></trkpt><trkpt lat="44.4263691" lon="10.7647112"><ele>872.5</ele><time>2026-04-18T08:25:15.965Z</time></trkpt><trkpt lat="44.4263285" lon="10.7645435"><ele>873.0</ele><time>2026-04-18T08:25:17.965Z</time></trkpt><trkpt lat="44.4263099" lon="10.7644579"><ele>873.4999999999999</ele><time>2026-04-18T08:25:18.965Z</time></trkpt><trkpt lat="44.4262833" lon="10.7643599"><ele>874.0</ele><time>2026-04-18T08:25:19.965Z</time></trkpt><trkpt lat="44.4262477" lon="10.7642523"><ele>874.9999999999999</ele><time>2026-04-18T08:25:20.964Z</time></trkpt><trkpt lat="44.4262172" lon="10.7641441"><ele>876.0</ele><time>2026-04-18T08:25:21.964Z</time></trkpt><trkpt lat="44.4261849" lon="10.7640397"><ele>877.0</ele><time>2026-04-18T08:25:22.965Z</time></trkpt><trkpt lat="44.4261556" lon="10.7639292"><ele>878.0</ele><time>2026-04-18T08:25:23.965Z</time></trkpt><trkpt lat="44.4261044" lon="10.76382"><ele>878.9999999999999</ele><time>2026-04-18T08:25:24.965Z</time></trkpt><trkpt lat="44.4260486" lon="10.7637183"><ele>880.0</ele><time>2026-04-18T08:25:25.964Z</time></trkpt><trkpt lat="44.4259927" lon="10.7636101"><ele>879.6</ele><time>2026-04-18T08:25:26.964Z</time></trkpt><trkpt lat="44.4259279" lon="10.7634948"><ele>879.2</ele><time>2026-04-18T08:25:27.964Z</time></trkpt><trkpt lat="44.4258604" lon="10.7633735"><ele>878.8</ele><time>2026-04-18T08:25:28.964Z</time></trkpt><trkpt lat="44.4257947" lon="10.7632533"><ele>878.4</ele><time>2026-04-18T08:25:29.964Z</time></trkpt><trkpt lat="44.4257282" lon="10.7631164"><ele>878.0</ele><time>2026-04-18T08:25:30.965Z</time></trkpt><trkpt lat="44.4256594" lon="10.7629828"><ele>878.0</ele><time>2026-04-18T08:25:31.964Z</time></trkpt><trkpt lat="44.4256036" lon="10.7628447"><ele>878.0</ele><time>2026-04-18T08:25:32.965Z</time></trkpt><trkpt lat="44.4255552" lon="10.7627236"><ele>878.0</ele><time>2026-04-18T08:25:33.964Z</time></trkpt><trkpt lat="44.4254939" lon="10.762594"><ele>878.0</ele><time>2026-04-18T08:25:34.964Z</time></trkpt><trkpt lat="44.4254388" lon="10.7624825"><ele>878.0</ele><time>2026-04-18T08:25:35.964Z</time></trkpt><trkpt lat="44.4253964" lon="10.7623649"><ele>875.8</ele><time>2026-04-18T08:25:36.965Z</time></trkpt><trkpt lat="44.4253568" lon="10.7622469"><ele>873.5999999999999</ele><time>2026-04-18T08:25:37.965Z</time></trkpt><trkpt lat="44.4253288" lon="10.7621248"><ele>871.4000000000001</ele><time>2026-04-18T08:25:38.965Z</time></trkpt><trkpt lat="44.4253167" lon="10.7619924"><ele>869.2</ele><time>2026-04-18T08:25:39.964Z</time></trkpt><trkpt lat="44.4253135" lon="10.761865"><ele>867.0</ele><time>2026-04-18T08:25:40.965Z</time></trkpt><trkpt lat="44.4253106" lon="10.7617426"><ele>865.8333333333334</ele><time>2026-04-18T08:25:41.964Z</time></trkpt><trkpt lat="44.4253313" lon="10.7616346"><ele>864.6666666666667</ele><time>2026-04-18T08:25:42.964Z</time></trkpt><trkpt lat="44.4253708" lon="10.7615377"><ele>863.5</ele><time>2026-04-18T08:25:43.965Z</time></trkpt><trkpt lat="44.4254253" lon="10.7614428"><ele>862.3333333333334</ele><time>2026-04-18T08:25:44.964Z</time></trkpt><trkpt lat="44.4254901" lon="10.7613465"><ele>861.1666666666667</ele><time>2026-04-18T08:25:45.965Z</time></trkpt><trkpt lat="44.4255634" lon="10.7612523"><ele>860.0</ele><time>2026-04-18T08:25:46.964Z</time></trkpt><trkpt lat="44.4256344" lon="10.7611742"><ele>862.4</ele><time>2026-04-18T08:25:47.965Z</time></trkpt><trkpt lat="44.4256922" lon="10.7610783"><ele>864.8</ele><time>2026-04-18T08:25:48.964Z</time></trkpt><trkpt lat="44.4257254" lon="10.7609618"><ele>867.2</ele><time>2026-04-18T08:25:49.964Z</time></trkpt><trkpt lat="44.425737" lon="10.7608267"><ele>869.6</ele><time>2026-04-18T08:25:50.964Z</time></trkpt><trkpt lat="44.4257358" lon="10.7606841"><ele>872.0</ele><time>2026-04-18T08:25:51.964Z</time></trkpt><trkpt lat="44.4257235" lon="10.7605452"><ele>872.0</ele><time>2026-04-18T08:25:52.965Z</time></trkpt><trkpt lat="44.425713" lon="10.760406"><ele>872.0</ele><time>2026-04-18T08:25:53.964Z</time></trkpt><trkpt lat="44.4257033" lon="10.7602654"><ele>872.0</ele><time>2026-04-18T08:25:54.964Z</time></trkpt><trkpt lat="44.4256938" lon="10.760126"><ele>872.0</ele><time>2026-04-18T08:25:55.965Z</time></trkpt><trkpt lat="44.4256888" lon="10.7599875"><ele>872.0</ele><time>2026-04-18T08:25:56.965Z</time></trkpt><trkpt lat="44.4256848" lon="10.7598563"><ele>871.8333333333334</ele><time>2026-04-18T08:25:57.964Z</time></trkpt><trkpt lat="44.4256883" lon="10.7597353"><ele>871.6666666666667</ele><time>2026-04-18T08:25:58.964Z</time></trkpt><trkpt lat="44.4256848" lon="10.7596287"><ele>871.5</ele><time>2026-04-18T08:25:59.964Z</time></trkpt><trkpt lat="44.4256784" lon="10.7595198"><ele>871.3333333333333</ele><time>2026-04-18T08:26:00.965Z</time></trkpt><trkpt lat="44.4256715" lon="10.7594001"><ele>871.1666666666666</ele><time>2026-04-18T08:26:01.965Z</time></trkpt><trkpt lat="44.4256877" lon="10.7592905"><ele>871.0</ele><time>2026-04-18T08:26:02.964Z</time></trkpt><trkpt lat="44.4257198" lon="10.7592013"><ele>870.6666666666666</ele><time>2026-04-18T08:26:03.964Z</time></trkpt><trkpt lat="44.4257628" lon="10.7591174"><ele>870.3333333333333</ele><time>2026-04-18T08:26:04.964Z</time></trkpt><trkpt lat="44.425793" lon="10.759019"><ele>870.0</ele><time>2026-04-18T08:26:05.964Z</time></trkpt><trkpt lat="44.4258011" lon="10.7589116"><ele>869.6666666666667</ele><time>2026-04-18T08:26:06.964Z</time></trkpt><trkpt lat="44.4258101" lon="10.7588095"><ele>869.3333333333334</ele><time>2026-04-18T08:26:07.964Z</time></trkpt><trkpt lat="44.425768" lon="10.7586842"><ele>869.0</ele><time>2026-04-18T08:26:08.965Z</time></trkpt><trkpt lat="44.4257216" lon="10.7585733"><ele>868.8000000000001</ele><time>2026-04-18T08:26:09.965Z</time></trkpt><trkpt lat="44.425676" lon="10.7584476"><ele>868.6000000000001</ele><time>2026-04-18T08:26:10.965Z</time></trkpt><trkpt lat="44.4256381" lon="10.7583175"><ele>868.4</ele><time>2026-04-18T08:26:11.965Z</time></trkpt><trkpt lat="44.4256149" lon="10.7581673"><ele>868.2</ele><time>2026-04-18T08:26:12.965Z</time></trkpt><trkpt lat="44.4255896" lon="10.7580247"><ele>868.0</ele><time>2026-04-18T08:26:13.965Z</time></trkpt><trkpt lat="44.4255995" lon="10.75787"><ele>868.0</ele><time>2026-04-18T08:26:14.964Z</time></trkpt><trkpt lat="44.4256" lon="10.7577303"><ele>868.0</ele><time>2026-04-18T08:26:15.964Z</time></trkpt><trkpt lat="44.4256254" lon="10.757609"><ele>868.0</ele><time>2026-04-18T08:26:16.965Z</time></trkpt><trkpt lat="44.4256595" lon="10.7574901"><ele>868.0</ele><time>2026-04-18T08:26:17.964Z</time></trkpt><trkpt lat="44.4257005" lon="10.7573717"><ele>868.0</ele><time>2026-04-18T08:26:18.965Z</time></trkpt><trkpt lat="44.4257474" lon="10.7572519"><ele>868.6666666666666</ele><time>2026-04-18T08:26:19.964Z</time></trkpt><trkpt lat="44.4257851" lon="10.7571313"><ele>869.3333333333333</ele><time>2026-04-18T08:26:20.965Z</time></trkpt><trkpt lat="44.4258276" lon="10.7570066"><ele>870.0</ele><time>2026-04-18T08:26:21.964Z</time></trkpt><trkpt lat="44.4258718" lon="10.7568877"><ele>870.6666666666667</ele><time>2026-04-18T08:26:22.965Z</time></trkpt><trkpt lat="44.4259098" lon="10.7567857"><ele>871.3333333333334</ele><time>2026-04-18T08:26:23.964Z</time></trkpt><trkpt lat="44.4259511" lon="10.7567125"><ele>872.0</ele><time>2026-04-18T08:26:24.965Z</time></trkpt><trkpt lat="44.4260122" lon="10.756582"><ele>872.0</ele><time>2026-04-18T08:26:26.964Z</time></trkpt><trkpt lat="44.4260473" lon="10.7564974"><ele>872.0</ele><time>2026-04-18T08:26:27.965Z</time></trkpt><trkpt lat="44.4260921" lon="10.756347"><ele>872.0</ele><time>2026-04-18T08:26:29.965Z</time></trkpt><trkpt lat="44.4261332" lon="10.7562032"><ele>872.0</ele><time>2026-04-18T08:26:31.965Z</time></trkpt><trkpt lat="44.4261659" lon="10.7560586"><ele>872.0</ele><time>2026-04-18T08:26:33.964Z</time></trkpt><trkpt lat="44.4261975" lon="10.7559203"><ele>872.2</ele><time>2026-04-18T08:26:35.964Z</time></trkpt><trkpt lat="44.42622" lon="10.7558363"><ele>872.4000000000001</ele><time>2026-04-18T08:26:36.964Z</time></trkpt><trkpt lat="44.4262591" lon="10.7556824"><ele>872.5999999999999</ele><time>2026-04-18T08:26:38.964Z</time></trkpt><trkpt lat="44.426293" lon="10.7555564"><ele>872.8</ele><time>2026-04-18T08:26:40.964Z</time></trkpt><trkpt lat="44.4263293" lon="10.7554258"><ele>873.0</ele><time>2026-04-18T08:26:42.964Z</time></trkpt><trkpt lat="44.4263534" lon="10.7552976"><ele>871.8333333333334</ele><time>2026-04-18T08:26:44.964Z</time></trkpt><trkpt lat="44.4264136" lon="10.7551374"><ele>870.6666666666667</ele><time>2026-04-18T08:26:46.965Z</time></trkpt><trkpt lat="44.4264439" lon="10.755055"><ele>869.5</ele><time>2026-04-18T08:26:47.965Z</time></trkpt><trkpt lat="44.4264749" lon="10.7549741"><ele>868.3333333333334</ele><time>2026-04-18T08:26:48.964Z</time></trkpt><trkpt lat="44.4264996" lon="10.7548735"><ele>867.1666666666667</ele><time>2026-04-18T08:26:49.964Z</time></trkpt><trkpt lat="44.4265214" lon="10.7547743"><ele>866.0</ele><time>2026-04-18T08:26:50.965Z</time></trkpt><trkpt lat="44.4265388" lon="10.7546662"><ele>866.0000000000001</ele><time>2026-04-18T08:26:51.964Z</time></trkpt><trkpt lat="44.4265651" lon="10.7545512"><ele>866.0</ele><time>2026-04-18T08:26:52.964Z</time></trkpt><trkpt lat="44.4266058" lon="10.7544199"><ele>866.0</ele><time>2026-04-18T08:26:53.964Z</time></trkpt><trkpt lat="44.4266443" lon="10.7543023"><ele>866.0</ele><time>2026-04-18T08:26:54.964Z</time></trkpt><trkpt lat="44.4266741" lon="10.7541827"><ele>866.0000000000001</ele><time>2026-04-18T08:26:55.965Z</time></trkpt><trkpt lat="44.4267009" lon="10.7540826"><ele>866.0</ele><time>2026-04-18T08:26:56.965Z</time></trkpt><trkpt lat="44.4267262" lon="10.7539732"><ele>864.6666666666667</ele><time>2026-04-18T08:26:57.965Z</time></trkpt><trkpt lat="44.4267428" lon="10.7538669"><ele>863.3333333333334</ele><time>2026-04-18T08:26:58.964Z</time></trkpt><trkpt lat="44.4267628" lon="10.7537712"><ele>862.0</ele><time>2026-04-18T08:26:59.964Z</time></trkpt><trkpt lat="44.4267774" lon="10.7536736"><ele>860.6666666666667</ele><time>2026-04-18T08:27:00.964Z</time></trkpt><trkpt lat="44.4267938" lon="10.7535881"><ele>859.3333333333334</ele><time>2026-04-18T08:27:01.964Z</time></trkpt><trkpt lat="44.4268207" lon="10.7534673"><ele>858.0</ele><time>2026-04-18T08:27:03.965Z</time></trkpt><trkpt lat="44.4268678" lon="10.7533614"><ele>856.7142857142858</ele><time>2026-04-18T08:27:05.964Z</time></trkpt><trkpt lat="44.4268821" lon="10.7532748"><ele>855.4285714285714</ele><time>2026-04-18T08:27:35.964Z</time></trkpt><trkpt lat="44.4269143" lon="10.7531732"><ele>854.1428571428571</ele><time>2026-04-18T08:27:36.964Z</time></trkpt><trkpt lat="44.4269499" lon="10.7530775"><ele>852.8571428571429</ele><time>2026-04-18T08:27:37.965Z</time></trkpt><trkpt lat="44.4269787" lon="10.7529804"><ele>851.5714285714286</ele><time>2026-04-18T08:27:38.964Z</time></trkpt><trkpt lat="44.4269956" lon="10.7528727"><ele>850.2857142857143</ele><time>2026-04-18T08:27:39.965Z</time></trkpt><trkpt lat="44.4270092" lon="10.7527705"><ele>849.0</ele><time>2026-04-18T08:27:40.964Z</time></trkpt><trkpt lat="44.4270191" lon="10.752679"><ele>848.0</ele><time>2026-04-18T08:27:41.965Z</time></trkpt><trkpt lat="44.4270478" lon="10.7525292"><ele>847.0</ele><time>2026-04-18T08:27:43.965Z</time></trkpt><trkpt lat="44.4270878" lon="10.7524085"><ele>846.0</ele><time>2026-04-18T08:27:45.965Z</time></trkpt><trkpt lat="44.4271381" lon="10.7522963"><ele>845.0</ele><time>2026-04-18T08:27:47.965Z</time></trkpt><trkpt lat="44.4271849" lon="10.752187"><ele>844.0</ele><time>2026-04-18T08:27:49.964Z</time></trkpt><trkpt lat="44.4272212" lon="10.7520735"><ele>843.8571428571429</ele><time>2026-04-18T08:27:51.964Z</time></trkpt><trkpt lat="44.4272558" lon="10.7519939"><ele>843.7142857142858</ele><time>2026-04-18T08:27:52.964Z</time></trkpt><trkpt lat="44.4272945" lon="10.7519107"><ele>843.5714285714286</ele><time>2026-04-18T08:27:53.965Z</time></trkpt><trkpt lat="44.427335" lon="10.7518178"><ele>843.4285714285714</ele><time>2026-04-18T08:27:54.964Z</time></trkpt><trkpt lat="44.4273695" lon="10.7517206"><ele>843.2857142857142</ele><time>2026-04-18T08:27:55.965Z</time></trkpt><trkpt lat="44.4273966" lon="10.7516241"><ele>843.1428571428571</ele><time>2026-04-18T08:27:56.965Z</time></trkpt><trkpt lat="44.427429" lon="10.7515324"><ele>843.0</ele><time>2026-04-18T08:27:57.965Z</time></trkpt><trkpt lat="44.4274641" lon="10.7514377"><ele>843.0</ele><time>2026-04-18T08:27:58.964Z</time></trkpt><trkpt lat="44.4275107" lon="10.7512904"><ele>843.0</ele><time>2026-04-18T08:28:00.965Z</time></trkpt><trkpt lat="44.4275467" lon="10.751145"><ele>843.0</ele><time>2026-04-18T08:28:02.964Z</time></trkpt><trkpt lat="44.4276063" lon="10.7510176"><ele>843.0</ele><time>2026-04-18T08:28:04.964Z</time></trkpt><trkpt lat="44.4276989" lon="10.7508958"><ele>841.1666666666666</ele><time>2026-04-18T08:28:06.965Z</time></trkpt><trkpt lat="44.4277667" lon="10.7508089"><ele>839.3333333333333</ele><time>2026-04-18T08:28:07.964Z</time></trkpt><trkpt lat="44.4278258" lon="10.7507129"><ele>837.5</ele><time>2026-04-18T08:28:08.964Z</time></trkpt><trkpt lat="44.4278942" lon="10.7506228"><ele>835.6666666666666</ele><time>2026-04-18T08:28:09.964Z</time></trkpt><trkpt lat="44.4279492" lon="10.7505377"><ele>833.8333333333333</ele><time>2026-04-18T08:28:10.964Z</time></trkpt><trkpt lat="44.4280106" lon="10.7504592"><ele>832.0</ele><time>2026-04-18T08:28:11.965Z</time></trkpt><trkpt lat="44.4280723" lon="10.7503937"><ele>831.9999999999999</ele><time>2026-04-18T08:28:12.965Z</time></trkpt><trkpt lat="44.4281263" lon="10.7503305"><ele>832.0</ele><time>2026-04-18T08:28:13.965Z</time></trkpt><trkpt lat="44.4282004" lon="10.7502759"><ele>832.0</ele><time>2026-04-18T08:28:14.964Z</time></trkpt><trkpt lat="44.4282683" lon="10.7502131"><ele>832.0</ele><time>2026-04-18T08:28:15.965Z</time></trkpt><trkpt lat="44.4283246" lon="10.750167"><ele>831.9999999999999</ele><time>2026-04-18T08:28:16.964Z</time></trkpt><trkpt lat="44.4284002" lon="10.7501143"><ele>832.0</ele><time>2026-04-18T08:28:18.965Z</time></trkpt><trkpt lat="44.4284776" lon="10.7500683"><ele>828.4000000000001</ele><time>2026-04-18T08:28:20.965Z</time></trkpt><trkpt lat="44.4285604" lon="10.7500133"><ele>824.8000000000001</ele><time>2026-04-18T08:28:22.964Z</time></trkpt><trkpt lat="44.4286414" lon="10.7499532"><ele>821.2</ele><time>2026-04-18T08:28:24.965Z</time></trkpt><trkpt lat="44.428728" lon="10.7498853"><ele>817.6</ele><time>2026-04-18T08:28:26.964Z</time></trkpt><trkpt lat="44.4287978" lon="10.749838"><ele>814.0</ele><time>2026-04-18T08:28:28.964Z</time></trkpt><trkpt lat="44.4288855" lon="10.7497642"><ele>814.0</ele><time>2026-04-18T08:28:30.965Z</time></trkpt><trkpt lat="44.4289795" lon="10.749707"><ele>814.0</ele><time>2026-04-18T08:28:32.965Z</time></trkpt><trkpt lat="44.429083" lon="10.7496721"><ele>814.0</ele><time>2026-04-18T08:28:34.964Z</time></trkpt><trkpt lat="44.4291942" lon="10.7496278"><ele>814.0</ele><time>2026-04-18T08:28:36.964Z</time></trkpt><trkpt lat="44.4293066" lon="10.7496148"><ele>814.0</ele><time>2026-04-18T08:28:38.964Z</time></trkpt><trkpt lat="44.4293849" lon="10.7496967"><ele>813.9999999999999</ele><time>2026-04-18T08:28:40.964Z</time></trkpt><trkpt lat="44.4294126" lon="10.7498619"><ele>814.0</ele><time>2026-04-18T08:28:42.964Z</time></trkpt><trkpt lat="44.4294136" lon="10.7499892"><ele>814.0</ele><time>2026-04-18T08:28:44.965Z</time></trkpt><trkpt lat="44.4294681" lon="10.7500631"><ele>814.0</ele><time>2026-04-18T08:28:46.964Z</time></trkpt><trkpt lat="44.4295399" lon="10.7500241"><ele>813.9999999999999</ele><time>2026-04-18T08:28:50.964Z</time></trkpt><trkpt lat="44.4295433" lon="10.7499344"><ele>814.0</ele><time>2026-04-18T08:29:21.965Z</time></trkpt><trkpt lat="44.4295415" lon="10.749759"><ele>814.0</ele><time>2026-04-18T08:29:23.964Z</time></trkpt><trkpt lat="44.4295418" lon="10.7495941"><ele>814.0</ele><time>2026-04-18T08:29:25.965Z</time></trkpt><trkpt lat="44.4295462" lon="10.7495049"><ele>814.0</ele><time>2026-04-18T08:29:26.965Z</time></trkpt><trkpt lat="44.4295788" lon="10.7493519"><ele>814.0</ele><time>2026-04-18T08:29:28.965Z</time></trkpt><trkpt lat="44.4295413" lon="10.7491959"><ele>814.0</ele><time>2026-04-18T08:29:30.965Z</time></trkpt><trkpt lat="44.4294857" lon="10.7491351"><ele>809.4000000000001</ele><time>2026-04-18T08:29:31.965Z</time></trkpt><trkpt lat="44.4293904" lon="10.7490555"><ele>804.8</ele><time>2026-04-18T08:29:33.964Z</time></trkpt><trkpt lat="44.4292824" lon="10.7489811"><ele>800.2</ele><time>2026-04-18T08:29:35.964Z</time></trkpt><trkpt lat="44.4292249" lon="10.748935"><ele>795.5999999999999</ele><time>2026-04-18T08:29:36.964Z</time></trkpt><trkpt lat="44.4291649" lon="10.7488916"><ele>791.0</ele><time>2026-04-18T08:29:37.965Z</time></trkpt><trkpt lat="44.4290431" lon="10.7488312"><ele>791.0</ele><time>2026-04-18T08:29:39.964Z</time></trkpt><trkpt lat="44.4289178" lon="10.7487661"><ele>791.0</ele><time>2026-04-18T08:29:41.965Z</time></trkpt><trkpt lat="44.4288124" lon="10.7487298"><ele>791.0</ele><time>2026-04-18T08:29:43.964Z</time></trkpt><trkpt lat="44.4287484" lon="10.7487051"><ele>791.0</ele><time>2026-04-18T08:29:44.965Z</time></trkpt><trkpt lat="44.4286835" lon="10.7486803"><ele>791.0</ele><time>2026-04-18T08:29:45.964Z</time></trkpt><trkpt lat="44.4285844" lon="10.7486363"><ele>786.6666666666667</ele><time>2026-04-18T08:29:47.965Z</time></trkpt><trkpt lat="44.4285427" lon="10.7485398"><ele>782.3333333333334</ele><time>2026-04-18T08:29:49.964Z</time></trkpt><trkpt lat="44.4285332" lon="10.7484479"><ele>778.0</ele><time>2026-04-18T08:29:51.965Z</time></trkpt><trkpt lat="44.4286048" lon="10.7483516"><ele>773.6666666666667</ele><time>2026-04-18T08:29:53.964Z</time></trkpt><trkpt lat="44.4286557" lon="10.7482986"><ele>769.3333333333334</ele><time>2026-04-18T08:29:54.964Z</time></trkpt><trkpt lat="44.4287483" lon="10.7481985"><ele>765.0</ele><time>2026-04-18T08:29:56.964Z</time></trkpt><trkpt lat="44.4288294" lon="10.7480591"><ele>765.0</ele><time>2026-04-18T08:29:58.965Z</time></trkpt><trkpt lat="44.4288691" lon="10.7479891"><ele>765.0</ele><time>2026-04-18T08:29:59.964Z</time></trkpt><trkpt lat="44.4289283" lon="10.7478365"><ele>765.0</ele><time>2026-04-18T08:30:01.964Z</time></trkpt><trkpt lat="44.4289412" lon="10.7476722"><ele>765.0</ele><time>2026-04-18T08:30:03.964Z</time></trkpt><trkpt lat="44.4289358" lon="10.7475051"><ele>765.0</ele><time>2026-04-18T08:30:05.964Z</time></trkpt><trkpt lat="44.4288864" lon="10.7473412"><ele>760.8333333333334</ele><time>2026-04-18T08:30:07.964Z</time></trkpt><trkpt lat="44.4288626" lon="10.7472575"><ele>756.6666666666666</ele><time>2026-04-18T08:30:08.964Z</time></trkpt><trkpt lat="44.4288386" lon="10.7470916"><ele>752.5</ele><time>2026-04-18T08:30:10.964Z</time></trkpt><trkpt lat="44.4288274" lon="10.7469996"><ele>748.3333333333333</ele><time>2026-04-18T08:30:11.965Z</time></trkpt><trkpt lat="44.4288282" lon="10.7469026"><ele>744.1666666666666</ele><time>2026-04-18T08:30:12.965Z</time></trkpt><trkpt lat="44.4288276" lon="10.7467949"><ele>740.0</ele><time>2026-04-18T08:30:13.964Z</time></trkpt><trkpt lat="44.4288257" lon="10.7467016"><ele>738.0</ele><time>2026-04-18T08:30:14.965Z</time></trkpt><trkpt lat="44.4287848" lon="10.746583"><ele>736.0</ele><time>2026-04-18T08:30:16.965Z</time></trkpt><trkpt lat="44.4286776" lon="10.7465541"><ele>734.0</ele><time>2026-04-18T08:30:18.964Z</time></trkpt><trkpt lat="44.4286115" lon="10.7465668"><ele>732.0</ele><time>2026-04-18T08:30:19.965Z</time></trkpt><trkpt lat="44.4285037" lon="10.7466102"><ele>730.0</ele><time>2026-04-18T08:30:21.964Z</time></trkpt><trkpt lat="44.4284296" lon="10.7466632"><ele>730.0</ele><time>2026-04-18T08:30:23.965Z</time></trkpt><trkpt lat="44.4283614" lon="10.7466613"><ele>730.0</ele><time>2026-04-18T08:30:25.964Z</time></trkpt><trkpt lat="44.4283535" lon="10.7465576"><ele>730.0</ele><time>2026-04-18T08:30:28.965Z</time></trkpt><trkpt lat="44.4283925" lon="10.7464647"><ele>730.0</ele><time>2026-04-18T08:31:05.965Z</time></trkpt><trkpt lat="44.4284612" lon="10.7463544"><ele>730.0</ele><time>2026-04-18T08:31:07.964Z</time></trkpt><trkpt lat="44.4285143" lon="10.7462924"><ele>730.0</ele><time>2026-04-18T08:31:08.964Z</time></trkpt><trkpt lat="44.4285771" lon="10.7462263"><ele>730.0</ele><time>2026-04-18T08:31:09.964Z</time></trkpt><trkpt lat="44.428649" lon="10.7461509"><ele>730.0</ele><time>2026-04-18T08:31:10.964Z</time></trkpt><trkpt lat="44.4287236" lon="10.7460678"><ele>730.0</ele><time>2026-04-18T08:31:11.964Z</time></trkpt><trkpt lat="44.4287861" lon="10.7459754"><ele>730.0</ele><time>2026-04-18T08:31:12.964Z</time></trkpt><trkpt lat="44.4288487" lon="10.7458819"><ele>730.0</ele><time>2026-04-18T08:31:13.964Z</time></trkpt><trkpt lat="44.4289056" lon="10.7457858"><ele>727.0</ele><time>2026-04-18T08:31:14.965Z</time></trkpt><trkpt lat="44.4289661" lon="10.7456985"><ele>724.0</ele><time>2026-04-18T08:31:15.964Z</time></trkpt><trkpt lat="44.4290194" lon="10.7456198"><ele>721.0</ele><time>2026-04-18T08:31:16.964Z</time></trkpt><trkpt lat="44.4290695" lon="10.745552"><ele>718.0</ele><time>2026-04-18T08:31:17.964Z</time></trkpt><trkpt lat="44.4291541" lon="10.7454616"><ele>715.0</ele><time>2026-04-18T08:31:19.965Z</time></trkpt><trkpt lat="44.4292122" lon="10.7454197"><ele>712.0</ele><time>2026-04-18T08:31:21.964Z</time></trkpt><trkpt lat="44.4292641" lon="10.7453083"><ele>711.2</ele><time>2026-04-18T08:31:25.965Z</time></trkpt><trkpt lat="44.4292711" lon="10.7451468"><ele>710.4000000000001</ele><time>2026-04-18T08:31:27.965Z</time></trkpt><trkpt lat="44.4292746" lon="10.7450559"><ele>709.5999999999999</ele><time>2026-04-18T08:31:28.964Z</time></trkpt><trkpt lat="44.4292817" lon="10.7448806"><ele>708.8</ele><time>2026-04-18T08:31:30.964Z</time></trkpt><trkpt lat="44.4292973" lon="10.7447215"><ele>708.0</ele><time>2026-04-18T08:31:32.965Z</time></trkpt><trkpt lat="44.4293044" lon="10.7446124"><ele>708.0</ele><time>2026-04-18T08:31:34.964Z</time></trkpt><trkpt lat="44.4292273" lon="10.7446368"><ele>708.0</ele><time>2026-04-18T08:31:37.965Z</time></trkpt><trkpt lat="44.4292003" lon="10.7447634"><ele>708.0</ele><time>2026-04-18T08:31:39.965Z</time></trkpt><trkpt lat="44.4291512" lon="10.7449013"><ele>708.0</ele><time>2026-04-18T08:31:41.964Z</time></trkpt><trkpt lat="44.4290823" lon="10.7449199"><ele>708.0</ele><time>2026-04-18T08:31:42.964Z</time></trkpt><trkpt lat="44.4289457" lon="10.7449348"><ele>708.0</ele><time>2026-04-18T08:31:44.964Z</time></trkpt><trkpt lat="44.4288629" lon="10.7449393"><ele>708.0</ele><time>2026-04-18T08:31:45.964Z</time></trkpt><trkpt lat="44.4287828" lon="10.7449498"><ele>708.0</ele><time>2026-04-18T08:31:46.965Z</time></trkpt><trkpt lat="44.4287025" lon="10.7449606"><ele>708.0</ele><time>2026-04-18T08:31:47.965Z</time></trkpt><trkpt lat="44.4286238" lon="10.7449777"><ele>708.0</ele><time>2026-04-18T08:31:48.964Z</time></trkpt><trkpt lat="44.4285498" lon="10.7450008"><ele>708.0</ele><time>2026-04-18T08:31:49.964Z</time></trkpt><trkpt lat="44.4284778" lon="10.7450383"><ele>708.5999999999999</ele><time>2026-04-18T08:31:50.965Z</time></trkpt><trkpt lat="44.4284065" lon="10.7450944"><ele>709.1999999999999</ele><time>2026-04-18T08:31:51.965Z</time></trkpt><trkpt lat="44.4283358" lon="10.7451737"><ele>709.8</ele><time>2026-04-18T08:31:52.964Z</time></trkpt><trkpt lat="44.4282677" lon="10.7452594"><ele>710.4</ele><time>2026-04-18T08:31:53.965Z</time></trkpt><trkpt lat="44.4281847" lon="10.7453353"><ele>711.0</ele><time>2026-04-18T08:31:54.965Z</time></trkpt><trkpt lat="44.4280916" lon="10.7453942"><ele>711.0</ele><time>2026-04-18T08:31:55.965Z</time></trkpt><trkpt lat="44.4279876" lon="10.7454296"><ele>711.0</ele><time>2026-04-18T08:31:56.964Z</time></trkpt><trkpt lat="44.427884" lon="10.74543"><ele>711.0</ele><time>2026-04-18T08:31:57.965Z</time></trkpt><trkpt lat="44.4277792" lon="10.7453964"><ele>711.0</ele><time>2026-04-18T08:31:58.964Z</time></trkpt><trkpt lat="44.4276792" lon="10.74533"><ele>711.0</ele><time>2026-04-18T08:31:59.965Z</time></trkpt><trkpt lat="44.4275874" lon="10.7452486"><ele>706.4</ele><time>2026-04-18T08:32:00.964Z</time></trkpt><trkpt lat="44.4274882" lon="10.7451859"><ele>701.8</ele><time>2026-04-18T08:32:01.964Z</time></trkpt><trkpt lat="44.4273838" lon="10.7451502"><ele>697.1999999999999</ele><time>2026-04-18T08:32:02.965Z</time></trkpt><trkpt lat="44.4272815" lon="10.7451427"><ele>692.5999999999999</ele><time>2026-04-18T08:32:03.964Z</time></trkpt><trkpt lat="44.4271871" lon="10.7451628"><ele>688.0</ele><time>2026-04-18T08:32:04.964Z</time></trkpt><trkpt lat="44.4270912" lon="10.7452162"><ele>688.0</ele><time>2026-04-18T08:32:05.964Z</time></trkpt><trkpt lat="44.4269869" lon="10.7452831"><ele>688.0</ele><time>2026-04-18T08:32:06.964Z</time></trkpt><trkpt lat="44.426876" lon="10.7453425"><ele>688.0</ele><time>2026-04-18T08:32:07.965Z</time></trkpt><trkpt lat="44.4267648" lon="10.7453864"><ele>688.0</ele><time>2026-04-18T08:32:08.964Z</time></trkpt><trkpt lat="44.4266533" lon="10.745421"><ele>688.0</ele><time>2026-04-18T08:32:09.964Z</time></trkpt><trkpt lat="44.4265458" lon="10.7454438"><ele>688.0</ele><time>2026-04-18T08:32:10.964Z</time></trkpt><trkpt lat="44.4264407" lon="10.7454506"><ele>688.0</ele><time>2026-04-18T08:32:11.965Z</time></trkpt><trkpt lat="44.4263396" lon="10.7454296"><ele>688.0</ele><time>2026-04-18T08:32:12.964Z</time></trkpt><trkpt lat="44.4262598" lon="10.7453813"><ele>688.0</ele><time>2026-04-18T08:32:13.964Z</time></trkpt><trkpt lat="44.4262008" lon="10.7453171"><ele>686.5999999999999</ele><time>2026-04-18T08:32:14.964Z</time></trkpt><trkpt lat="44.4261325" lon="10.7452159"><ele>685.1999999999999</ele><time>2026-04-18T08:32:16.964Z</time></trkpt><trkpt lat="44.4260345" lon="10.7451604"><ele>683.8</ele><time>2026-04-18T08:32:19.965Z</time></trkpt><trkpt lat="44.4259245" lon="10.7450921"><ele>682.4</ele><time>2026-04-18T08:32:21.965Z</time></trkpt><trkpt lat="44.4258567" lon="10.7450819"><ele>681.0</ele><time>2026-04-18T08:32:22.965Z</time></trkpt><trkpt lat="44.4257896" lon="10.7450949"><ele>681.0</ele><time>2026-04-18T08:32:23.964Z</time></trkpt><trkpt lat="44.4257207" lon="10.745129"><ele>681.0</ele><time>2026-04-18T08:32:24.964Z</time></trkpt><trkpt lat="44.4256454" lon="10.7451718"><ele>681.0</ele><time>2026-04-18T08:32:25.964Z</time></trkpt><trkpt lat="44.4255682" lon="10.7452145"><ele>681.0</ele><time>2026-04-18T08:32:26.965Z</time></trkpt><trkpt lat="44.4254763" lon="10.7452652"><ele>681.0</ele><time>2026-04-18T08:32:27.964Z</time></trkpt><trkpt lat="44.4253926" lon="10.745329"><ele>681.0</ele><time>2026-04-18T08:32:28.964Z</time></trkpt><trkpt lat="44.4253175" lon="10.7454132"><ele>678.0</ele><time>2026-04-18T08:32:29.965Z</time></trkpt><trkpt lat="44.4252547" lon="10.74552"><ele>675.0</ele><time>2026-04-18T08:32:30.964Z</time></trkpt><trkpt lat="44.4252092" lon="10.7456494"><ele>672.0</ele><time>2026-04-18T08:32:31.965Z</time></trkpt><trkpt lat="44.4251657" lon="10.7457885"><ele>669.0</ele><time>2026-04-18T08:32:32.965Z</time></trkpt><trkpt lat="44.4251234" lon="10.745934"><ele>666.0</ele><time>2026-04-18T08:32:33.964Z</time></trkpt><trkpt lat="44.4250797" lon="10.7460799"><ele>666.0</ele><time>2026-04-18T08:32:34.965Z</time></trkpt><trkpt lat="44.4250375" lon="10.7462261"><ele>666.0</ele><time>2026-04-18T08:32:35.965Z</time></trkpt><trkpt lat="44.424994" lon="10.7463775"><ele>666.0</ele><time>2026-04-18T08:32:36.964Z</time></trkpt><trkpt lat="44.4249491" lon="10.7465283"><ele>666.0</ele><time>2026-04-18T08:32:37.964Z</time></trkpt><trkpt lat="44.424903" lon="10.746678"><ele>666.0</ele><time>2026-04-18T08:32:38.964Z</time></trkpt><trkpt lat="44.4248522" lon="10.7468248"><ele>666.0</ele><time>2026-04-18T08:32:39.964Z</time></trkpt><trkpt lat="44.424789" lon="10.7469555"><ele>666.0</ele><time>2026-04-18T08:32:40.965Z</time></trkpt><trkpt lat="44.4247143" lon="10.747055"><ele>666.0</ele><time>2026-04-18T08:32:41.964Z</time></trkpt><trkpt lat="44.4246254" lon="10.7471293"><ele>666.0</ele><time>2026-04-18T08:32:42.965Z</time></trkpt><trkpt lat="44.4245338" lon="10.7471924"><ele>664.5999999999999</ele><time>2026-04-18T08:32:43.964Z</time></trkpt><trkpt lat="44.4244457" lon="10.7472669"><ele>663.2</ele><time>2026-04-18T08:32:44.964Z</time></trkpt><trkpt lat="44.4243736" lon="10.7473541"><ele>661.8</ele><time>2026-04-18T08:32:45.965Z</time></trkpt><trkpt lat="44.4243195" lon="10.7474524"><ele>660.4000000000001</ele><time>2026-04-18T08:32:46.964Z</time></trkpt><trkpt lat="44.4242785" lon="10.7475564"><ele>659.0</ele><time>2026-04-18T08:32:47.965Z</time></trkpt><trkpt lat="44.4242372" lon="10.7476728"><ele>661.6</ele><time>2026-04-18T08:32:48.964Z</time></trkpt><trkpt lat="44.4241931" lon="10.7477986"><ele>664.2</ele><time>2026-04-18T08:32:49.965Z</time></trkpt><trkpt lat="44.4241533" lon="10.7479302"><ele>666.8000000000001</ele><time>2026-04-18T08:32:50.965Z</time></trkpt><trkpt lat="44.424105" lon="10.7480714"><ele>669.4000000000001</ele><time>2026-04-18T08:32:51.964Z</time></trkpt><trkpt lat="44.4240502" lon="10.74821"><ele>672.0</ele><time>2026-04-18T08:32:52.964Z</time></trkpt><trkpt lat="44.4239998" lon="10.7483582"><ele>672.0</ele><time>2026-04-18T08:32:53.965Z</time></trkpt><trkpt lat="44.4239441" lon="10.7485013"><ele>672.0</ele><time>2026-04-18T08:32:54.965Z</time></trkpt><trkpt lat="44.423892" lon="10.7486458"><ele>672.0</ele><time>2026-04-18T08:32:55.964Z</time></trkpt><trkpt lat="44.4238345" lon="10.7487904"><ele>672.0</ele><time>2026-04-18T08:32:56.965Z</time></trkpt><trkpt lat="44.4237714" lon="10.7489324"><ele>670.25</ele><time>2026-04-18T08:32:57.965Z</time></trkpt><trkpt lat="44.4236991" lon="10.7490638"><ele>668.5</ele><time>2026-04-18T08:32:58.964Z</time></trkpt><trkpt lat="44.4236126" lon="10.7491704"><ele>666.75</ele><time>2026-04-18T08:32:59.964Z</time></trkpt><trkpt lat="44.4235121" lon="10.7492308"><ele>665.0</ele><time>2026-04-18T08:33:00.965Z</time></trkpt><trkpt lat="44.4233976" lon="10.7492591"><ele>665.0</ele><time>2026-04-18T08:33:01.964Z</time></trkpt><trkpt lat="44.4232769" lon="10.7492723"><ele>665.0</ele><time>2026-04-18T08:33:02.964Z</time></trkpt><trkpt lat="44.4231543" lon="10.7492694"><ele>665.0</ele><time>2026-04-18T08:33:03.964Z</time></trkpt><trkpt lat="44.4230378" lon="10.749247"><ele>665.0</ele><time>2026-04-18T08:33:04.964Z</time></trkpt><trkpt lat="44.4229228" lon="10.749211"><ele>664.6</ele><time>2026-04-18T08:33:05.965Z</time></trkpt><trkpt lat="44.4228205" lon="10.7491722"><ele>664.2</ele><time>2026-04-18T08:33:06.964Z</time></trkpt><trkpt lat="44.4227152" lon="10.7491475"><ele>663.8</ele><time>2026-04-18T08:33:07.965Z</time></trkpt><trkpt lat="44.4226014" lon="10.7491399"><ele>663.4</ele><time>2026-04-18T08:33:08.965Z</time></trkpt><trkpt lat="44.4224836" lon="10.7491445"><ele>663.0</ele><time>2026-04-18T08:33:09.964Z</time></trkpt><trkpt lat="44.4223585" lon="10.7491612"><ele>663.0</ele><time>2026-04-18T08:33:10.964Z</time></trkpt><trkpt lat="44.4222378" lon="10.7491823"><ele>663.0</ele><time>2026-04-18T08:33:11.965Z</time></trkpt><trkpt lat="44.4221167" lon="10.7492074"><ele>663.0</ele><time>2026-04-18T08:33:12.965Z</time></trkpt><trkpt lat="44.4220053" lon="10.7492311"><ele>663.0</ele><time>2026-04-18T08:33:13.964Z</time></trkpt><trkpt lat="44.4219087" lon="10.7492546"><ele>662.4285714285713</ele><time>2026-04-18T08:33:14.965Z</time></trkpt><trkpt lat="44.421821" lon="10.7492706"><ele>661.8571428571429</ele><time>2026-04-18T08:33:15.964Z</time></trkpt><trkpt lat="44.4217459" lon="10.7492635"><ele>661.2857142857142</ele><time>2026-04-18T08:33:16.965Z</time></trkpt><trkpt lat="44.4216812" lon="10.7492283"><ele>660.7142857142857</ele><time>2026-04-18T08:33:17.964Z</time></trkpt><trkpt lat="44.4216207" lon="10.7491845"><ele>660.1428571428571</ele><time>2026-04-18T08:33:18.964Z</time></trkpt><trkpt lat="44.4215519" lon="10.7491481"><ele>659.5714285714286</ele><time>2026-04-18T08:33:19.964Z</time></trkpt><trkpt lat="44.4214795" lon="10.7491251"><ele>659.0</ele><time>2026-04-18T08:33:20.964Z</time></trkpt><trkpt lat="44.4214101" lon="10.7491038"><ele>659.0</ele><time>2026-04-18T08:33:21.965Z</time></trkpt><trkpt lat="44.4213417" lon="10.7490834"><ele>659.0</ele><time>2026-04-18T08:33:22.964Z</time></trkpt><trkpt lat="44.4212709" lon="10.7490661"><ele>659.0</ele><time>2026-04-18T08:33:23.964Z</time></trkpt><trkpt lat="44.4212046" lon="10.7490594"><ele>659.0</ele><time>2026-04-18T08:33:24.964Z</time></trkpt><trkpt lat="44.4210984" lon="10.7490816"><ele>659.0</ele><time>2026-04-18T08:33:26.965Z</time></trkpt><trkpt lat="44.4210323" lon="10.7492171"><ele>659.0</ele><time>2026-04-18T08:33:28.965Z</time></trkpt><trkpt lat="44.4210033" lon="10.7493058"><ele>657.3333333333333</ele><time>2026-04-18T08:33:29.964Z</time></trkpt><trkpt lat="44.4209717" lon="10.7493992"><ele>655.6666666666666</ele><time>2026-04-18T08:33:30.964Z</time></trkpt><trkpt lat="44.4209318" lon="10.7494978"><ele>654.0</ele><time>2026-04-18T08:33:31.964Z</time></trkpt><trkpt lat="44.4209026" lon="10.7496055"><ele>652.3333333333334</ele><time>2026-04-18T08:33:32.964Z</time></trkpt><trkpt lat="44.420878" lon="10.7497199"><ele>650.6666666666667</ele><time>2026-04-18T08:33:33.965Z</time></trkpt><trkpt lat="44.4208548" lon="10.7498313"><ele>649.0</ele><time>2026-04-18T08:33:34.964Z</time></trkpt><trkpt lat="44.4208418" lon="10.7499545"><ele>649.0</ele><time>2026-04-18T08:33:35.965Z</time></trkpt><trkpt lat="44.4208323" lon="10.7500809"><ele>649.0</ele><time>2026-04-18T08:33:36.964Z</time></trkpt><trkpt lat="44.4208245" lon="10.7502132"><ele>649.0</ele><time>2026-04-18T08:33:37.965Z</time></trkpt><trkpt lat="44.4208232" lon="10.7503378"><ele>649.0</ele><time>2026-04-18T08:33:38.964Z</time></trkpt><trkpt lat="44.420825" lon="10.7504663"><ele>649.0</ele><time>2026-04-18T08:33:39.964Z</time></trkpt><trkpt lat="44.4208259" lon="10.7506003"><ele>648.8333333333334</ele><time>2026-04-18T08:33:40.964Z</time></trkpt><trkpt lat="44.4208195" lon="10.7507227"><ele>648.6666666666667</ele><time>2026-04-18T08:33:41.964Z</time></trkpt><trkpt lat="44.4208017" lon="10.75083"><ele>648.5</ele><time>2026-04-18T08:33:42.964Z</time></trkpt><trkpt lat="44.4207806" lon="10.7509337"><ele>648.3333333333334</ele><time>2026-04-18T08:33:43.965Z</time></trkpt><trkpt lat="44.4207536" lon="10.751027"><ele>648.1666666666666</ele><time>2026-04-18T08:33:44.964Z</time></trkpt><trkpt lat="44.4207249" lon="10.7511083"><ele>648.0</ele><time>2026-04-18T08:33:45.964Z</time></trkpt><trkpt lat="44.4206649" lon="10.7511579"><ele>648.0</ele><time>2026-04-18T08:33:46.965Z</time></trkpt><trkpt lat="44.4206032" lon="10.751222"><ele>648.0</ele><time>2026-04-18T08:33:47.965Z</time></trkpt><trkpt lat="44.4205156" lon="10.7512995"><ele>648.0</ele><time>2026-04-18T08:33:48.964Z</time></trkpt><trkpt lat="44.4204282" lon="10.7513619"><ele>648.0</ele><time>2026-04-18T08:33:49.964Z</time></trkpt><trkpt lat="44.4203334" lon="10.7514324"><ele>648.0</ele><time>2026-04-18T08:33:50.965Z</time></trkpt><trkpt lat="44.4202361" lon="10.751527"><ele>642.75</ele><time>2026-04-18T08:33:51.965Z</time></trkpt><trkpt lat="44.4201392" lon="10.7516149"><ele>637.5</ele><time>2026-04-18T08:33:52.964Z</time></trkpt><trkpt lat="44.4200324" lon="10.7517007"><ele>632.25</ele><time>2026-04-18T08:33:53.965Z</time></trkpt><trkpt lat="44.4199318" lon="10.7517821"><ele>627.0</ele><time>2026-04-18T08:33:54.965Z</time></trkpt><trkpt lat="44.419838" lon="10.7518467"><ele>626.4</ele><time>2026-04-18T08:33:55.964Z</time></trkpt><trkpt lat="44.4197467" lon="10.7519093"><ele>625.8000000000001</ele><time>2026-04-18T08:33:56.965Z</time></trkpt><trkpt lat="44.4196765" lon="10.7520025"><ele>625.2</ele><time>2026-04-18T08:33:57.965Z</time></trkpt><trkpt lat="44.4196206" lon="10.7521048"><ele>624.6</ele><time>2026-04-18T08:33:58.965Z</time></trkpt><trkpt lat="44.4195754" lon="10.7522205"><ele>624.0</ele><time>2026-04-18T08:33:59.964Z</time></trkpt><trkpt lat="44.419544" lon="10.7523229"><ele>622.1666666666666</ele><time>2026-04-18T08:34:00.964Z</time></trkpt><trkpt lat="44.4195252" lon="10.7524285"><ele>620.3333333333334</ele><time>2026-04-18T08:34:01.965Z</time></trkpt><trkpt lat="44.4195283" lon="10.7525335"><ele>618.5</ele><time>2026-04-18T08:34:02.965Z</time></trkpt><trkpt lat="44.4195362" lon="10.752639"><ele>616.6666666666667</ele><time>2026-04-18T08:34:03.964Z</time></trkpt><trkpt lat="44.4195879" lon="10.7527679"><ele>614.8333333333334</ele><time>2026-04-18T08:34:04.964Z</time></trkpt><trkpt lat="44.4196299" lon="10.7528891"><ele>613.0</ele><time>2026-04-18T08:34:05.964Z</time></trkpt><trkpt lat="44.4196732" lon="10.7530154"><ele>613.0</ele><time>2026-04-18T08:34:06.965Z</time></trkpt><trkpt lat="44.4197109" lon="10.753148"><ele>613.0</ele><time>2026-04-18T08:34:07.964Z</time></trkpt><trkpt lat="44.4197477" lon="10.7532751"><ele>613.0</ele><time>2026-04-18T08:34:08.964Z</time></trkpt><trkpt lat="44.4197776" lon="10.7533842"><ele>613.0</ele><time>2026-04-18T08:34:09.964Z</time></trkpt><trkpt lat="44.4198147" lon="10.7534844"><ele>613.0</ele><time>2026-04-18T08:34:10.964Z</time></trkpt><trkpt lat="44.4198605" lon="10.7535786"><ele>613.0</ele><time>2026-04-18T08:34:11.965Z</time></trkpt><trkpt lat="44.4199283" lon="10.7536802"><ele>611.0</ele><time>2026-04-18T08:34:12.965Z</time></trkpt><trkpt lat="44.4200005" lon="10.753797"><ele>609.0</ele><time>2026-04-18T08:34:13.965Z</time></trkpt><trkpt lat="44.4200656" lon="10.7539121"><ele>607.0</ele><time>2026-04-18T08:34:14.964Z</time></trkpt><trkpt lat="44.4201217" lon="10.754"><ele>605.0</ele><time>2026-04-18T08:34:15.964Z</time></trkpt><trkpt lat="44.4201616" lon="10.7540805"><ele>603.0</ele><time>2026-04-18T08:34:16.964Z</time></trkpt><trkpt lat="44.420188" lon="10.7541687"><ele>601.0</ele><time>2026-04-18T08:34:17.964Z</time></trkpt><trkpt lat="44.4201866" lon="10.7542612"><ele>601.0</ele><time>2026-04-18T08:34:18.964Z</time></trkpt><trkpt lat="44.420162" lon="10.754368"><ele>601.0</ele><time>2026-04-18T08:34:19.964Z</time></trkpt><trkpt lat="44.4201199" lon="10.7544941"><ele>601.0</ele><time>2026-04-18T08:34:20.964Z</time></trkpt><trkpt lat="44.4200848" lon="10.7546361"><ele>601.0</ele><time>2026-04-18T08:34:21.965Z</time></trkpt><trkpt lat="44.4200492" lon="10.7547686"><ele>601.0</ele><time>2026-04-18T08:34:22.964Z</time></trkpt><trkpt lat="44.420014" lon="10.7549017"><ele>601.6</ele><time>2026-04-18T08:34:23.964Z</time></trkpt><trkpt lat="44.4199399" lon="10.7550109"><ele>602.2</ele><time>2026-04-18T08:34:24.964Z</time></trkpt><trkpt lat="44.4198711" lon="10.7551186"><ele>602.8</ele><time>2026-04-18T08:34:25.965Z</time></trkpt><trkpt lat="44.4198017" lon="10.7552208"><ele>603.4</ele><time>2026-04-18T08:34:26.964Z</time></trkpt><trkpt lat="44.4197248" lon="10.7553052"><ele>604.0</ele><time>2026-04-18T08:34:27.964Z</time></trkpt><trkpt lat="44.4196622" lon="10.7553726"><ele>599.6</ele><time>2026-04-18T08:34:28.965Z</time></trkpt><trkpt lat="44.4196173" lon="10.7554454"><ele>595.2</ele><time>2026-04-18T08:34:29.965Z</time></trkpt><trkpt lat="44.4195874" lon="10.7556385"><ele>590.8000000000001</ele><time>2026-04-18T08:34:31.965Z</time></trkpt><trkpt lat="44.4195822" lon="10.7557603"><ele>586.4</ele><time>2026-04-18T08:34:32.964Z</time></trkpt><trkpt lat="44.419573" lon="10.7558736"><ele>582.0</ele><time>2026-04-18T08:34:33.964Z</time></trkpt><trkpt lat="44.4195254" lon="10.7559716"><ele>584.4</ele><time>2026-04-18T08:34:34.964Z</time></trkpt><trkpt lat="44.4194825" lon="10.7560554"><ele>586.8000000000001</ele><time>2026-04-18T08:34:35.964Z</time></trkpt><trkpt lat="44.4194313" lon="10.7561375"><ele>589.2</ele><time>2026-04-18T08:34:36.964Z</time></trkpt><trkpt lat="44.4193561" lon="10.756201"><ele>591.6</ele><time>2026-04-18T08:34:37.964Z</time></trkpt><trkpt lat="44.4192625" lon="10.7562491"><ele>594.0</ele><time>2026-04-18T08:34:38.965Z</time></trkpt><trkpt lat="44.4191623" lon="10.756317"><ele>594.0</ele><time>2026-04-18T08:34:39.965Z</time></trkpt><trkpt lat="44.419074" lon="10.7563831"><ele>594.0</ele><time>2026-04-18T08:34:40.964Z</time></trkpt><trkpt lat="44.4189907" lon="10.7564371"><ele>594.0</ele><time>2026-04-18T08:34:41.964Z</time></trkpt><trkpt lat="44.4189016" lon="10.7564941"><ele>594.0</ele><time>2026-04-18T08:34:42.964Z</time></trkpt><trkpt lat="44.4188162" lon="10.7565343"><ele>594.0</ele><time>2026-04-18T08:34:43.965Z</time></trkpt><trkpt lat="44.4187335" lon="10.7565698"><ele>590.1666666666666</ele><time>2026-04-18T08:34:44.964Z</time></trkpt><trkpt lat="44.4186565" lon="10.7565905"><ele>586.3333333333334</ele><time>2026-04-18T08:34:45.965Z</time></trkpt><trkpt lat="44.4185777" lon="10.7565946"><ele>582.5</ele><time>2026-04-18T08:34:46.965Z</time></trkpt><trkpt lat="44.4185028" lon="10.7566179"><ele>578.6666666666667</ele><time>2026-04-18T08:34:47.964Z</time></trkpt><trkpt lat="44.4184394" lon="10.7566773"><ele>574.8333333333334</ele><time>2026-04-18T08:34:48.964Z</time></trkpt><trkpt lat="44.4183832" lon="10.7567606"><ele>571.0</ele><time>2026-04-18T08:34:49.964Z</time></trkpt><trkpt lat="44.4183319" lon="10.7568647"><ele>572.6</ele><time>2026-04-18T08:34:50.964Z</time></trkpt><trkpt lat="44.418276" lon="10.756982"><ele>574.2</ele><time>2026-04-18T08:34:51.965Z</time></trkpt><trkpt lat="44.4182234" lon="10.7571258"><ele>575.8</ele><time>2026-04-18T08:34:52.964Z</time></trkpt><trkpt lat="44.4181673" lon="10.7572551"><ele>577.4</ele><time>2026-04-18T08:34:53.964Z</time></trkpt><trkpt lat="44.4181057" lon="10.7573852"><ele>579.0</ele><time>2026-04-18T08:34:54.965Z</time></trkpt><trkpt lat="44.4180516" lon="10.7575118"><ele>579.0</ele><time>2026-04-18T08:34:55.965Z</time></trkpt><trkpt lat="44.4180029" lon="10.7576507"><ele>579.0</ele><time>2026-04-18T08:34:56.965Z</time></trkpt><trkpt lat="44.4179603" lon="10.7577912"><ele>579.0</ele><time>2026-04-18T08:34:57.965Z</time></trkpt><trkpt lat="44.4179206" lon="10.7579239"><ele>579.0</ele><time>2026-04-18T08:34:58.964Z</time></trkpt><trkpt lat="44.4178742" lon="10.7580395"><ele>579.0</ele><time>2026-04-18T08:34:59.965Z</time></trkpt><trkpt lat="44.4178323" lon="10.7581288"><ele>577.0</ele><time>2026-04-18T08:35:00.964Z</time></trkpt><trkpt lat="44.4177698" lon="10.7582569"><ele>575.0</ele><time>2026-04-18T08:35:02.964Z</time></trkpt><trkpt lat="44.4177426" lon="10.758349"><ele>573.0</ele><time>2026-04-18T08:35:04.964Z</time></trkpt><trkpt lat="44.4176989" lon="10.758419"><ele>571.0</ele><time>2026-04-18T08:36:19.964Z</time></trkpt><trkpt lat="44.4176406" lon="10.758518"><ele>569.0</ele><time>2026-04-18T08:36:21.964Z</time></trkpt><trkpt lat="44.4175809" lon="10.7585813"><ele>567.0</ele><time>2026-04-18T08:36:23.965Z</time></trkpt><trkpt lat="44.4175092" lon="10.7586509"><ele>567.0</ele><time>2026-04-18T08:36:25.964Z</time></trkpt><trkpt lat="44.4174357" lon="10.7587178"><ele>567.0</ele><time>2026-04-18T08:36:27.965Z</time></trkpt><trkpt lat="44.4173671" lon="10.7587864"><ele>567.0</ele><time>2026-04-18T08:36:29.964Z</time></trkpt><trkpt lat="44.4172969" lon="10.7588804"><ele>567.0</ele><time>2026-04-18T08:36:31.965Z</time></trkpt><trkpt lat="44.4172298" lon="10.7589785"><ele>567.0</ele><time>2026-04-18T08:36:33.965Z</time></trkpt><trkpt lat="44.4171695" lon="10.7590869"><ele>563.8333333333334</ele><time>2026-04-18T08:36:35.964Z</time></trkpt><trkpt lat="44.4171175" lon="10.7592084"><ele>560.6666666666666</ele><time>2026-04-18T08:36:37.964Z</time></trkpt><trkpt lat="44.4170509" lon="10.7593337"><ele>557.5</ele><time>2026-04-18T08:36:39.965Z</time></trkpt><trkpt lat="44.4170113" lon="10.7594052"><ele>554.3333333333333</ele><time>2026-04-18T08:36:40.965Z</time></trkpt><trkpt lat="44.4169745" lon="10.75948"><ele>551.1666666666666</ele><time>2026-04-18T08:36:41.964Z</time></trkpt><trkpt lat="44.4169393" lon="10.7595596"><ele>548.0</ele><time>2026-04-18T08:36:42.965Z</time></trkpt><trkpt lat="44.4169113" lon="10.7596519"><ele>548.0</ele><time>2026-04-18T08:36:43.964Z</time></trkpt><trkpt lat="44.4168886" lon="10.7597506"><ele>548.0</ele><time>2026-04-18T08:36:44.965Z</time></trkpt><trkpt lat="44.4168685" lon="10.7598526"><ele>548.0</ele><time>2026-04-18T08:36:45.964Z</time></trkpt><trkpt lat="44.4168537" lon="10.7599565"><ele>548.0</ele><time>2026-04-18T08:36:46.964Z</time></trkpt><trkpt lat="44.4168435" lon="10.7600615"><ele>548.0</ele><time>2026-04-18T08:36:47.964Z</time></trkpt><trkpt lat="44.4168286" lon="10.7601665"><ele>548.0</ele><time>2026-04-18T08:36:48.965Z</time></trkpt><trkpt lat="44.4168072" lon="10.7602646"><ele>549.5</ele><time>2026-04-18T08:36:49.964Z</time></trkpt><trkpt lat="44.4167811" lon="10.7603611"><ele>551.0</ele><time>2026-04-18T08:36:50.965Z</time></trkpt><trkpt lat="44.4167437" lon="10.7604485"><ele>552.5</ele><time>2026-04-18T08:36:51.965Z</time></trkpt><trkpt lat="44.4167019" lon="10.7605393"><ele>554.0</ele><time>2026-04-18T08:36:52.964Z</time></trkpt><trkpt lat="44.4166563" lon="10.7606268"><ele>555.5</ele><time>2026-04-18T08:36:53.964Z</time></trkpt><trkpt lat="44.4166034" lon="10.7607173"><ele>557.0</ele><time>2026-04-18T08:36:54.964Z</time></trkpt><trkpt lat="44.4165469" lon="10.7608"><ele>557.0</ele><time>2026-04-18T08:36:55.965Z</time></trkpt><trkpt lat="44.4164941" lon="10.7608787"><ele>557.0</ele><time>2026-04-18T08:36:56.964Z</time></trkpt><trkpt lat="44.4164416" lon="10.7609625"><ele>557.0</ele><time>2026-04-18T08:36:57.964Z</time></trkpt><trkpt lat="44.4163918" lon="10.7610664"><ele>557.0</ele><time>2026-04-18T08:36:58.964Z</time></trkpt><trkpt lat="44.4163412" lon="10.7611783"><ele>557.0</ele><time>2026-04-18T08:36:59.964Z</time></trkpt><trkpt lat="44.4162801" lon="10.7612882"><ele>557.0</ele><time>2026-04-18T08:37:00.965Z</time></trkpt><trkpt lat="44.4162181" lon="10.7614092"><ele>552.2</ele><time>2026-04-18T08:37:01.965Z</time></trkpt><trkpt lat="44.4161637" lon="10.761555"><ele>547.4000000000001</ele><time>2026-04-18T08:37:02.965Z</time></trkpt><trkpt lat="44.4161133" lon="10.7616963"><ele>542.5999999999999</ele><time>2026-04-18T08:37:03.965Z</time></trkpt><trkpt lat="44.4160652" lon="10.7618254"><ele>537.8</ele><time>2026-04-18T08:37:04.965Z</time></trkpt><trkpt lat="44.4160089" lon="10.7619364"><ele>533.0</ele><time>2026-04-18T08:37:05.965Z</time></trkpt><trkpt lat="44.4159588" lon="10.7620542"><ele>533.0</ele><time>2026-04-18T08:37:06.964Z</time></trkpt><trkpt lat="44.4159249" lon="10.7621916"><ele>533.0</ele><time>2026-04-18T08:37:07.964Z</time></trkpt><trkpt lat="44.4159006" lon="10.762341"><ele>533.0</ele><time>2026-04-18T08:37:08.964Z</time></trkpt><trkpt lat="44.4158817" lon="10.7624678"><ele>533.0</ele><time>2026-04-18T08:37:09.964Z</time></trkpt><trkpt lat="44.4158468" lon="10.7625863"><ele>533.0</ele><time>2026-04-18T08:37:10.965Z</time></trkpt><trkpt lat="44.4157848" lon="10.7627134"><ele>533.4</ele><time>2026-04-18T08:37:11.965Z</time></trkpt><trkpt lat="44.415728" lon="10.7628438"><ele>533.8</ele><time>2026-04-18T08:37:12.965Z</time></trkpt><trkpt lat="44.4156774" lon="10.7629588"><ele>534.2</ele><time>2026-04-18T08:37:13.964Z</time></trkpt><trkpt lat="44.4156136" lon="10.7630598"><ele>534.6</ele><time>2026-04-18T08:37:14.965Z</time></trkpt><trkpt lat="44.4155522" lon="10.7631544"><ele>535.0</ele><time>2026-04-18T08:37:15.964Z</time></trkpt><trkpt lat="44.415482" lon="10.7632352"><ele>531.0</ele><time>2026-04-18T08:37:16.964Z</time></trkpt><trkpt lat="44.4154008" lon="10.763291"><ele>527.0</ele><time>2026-04-18T08:37:17.965Z</time></trkpt><trkpt lat="44.4153034" lon="10.7633277"><ele>523.0</ele><time>2026-04-18T08:37:18.964Z</time></trkpt><trkpt lat="44.4152149" lon="10.7633588"><ele>519.0</ele><time>2026-04-18T08:37:19.965Z</time></trkpt><trkpt lat="44.4151364" lon="10.7634201"><ele>515.0</ele><time>2026-04-18T08:37:20.965Z</time></trkpt><trkpt lat="44.4150656" lon="10.7635119"><ele>516.2</ele><time>2026-04-18T08:37:21.965Z</time></trkpt><trkpt lat="44.4149967" lon="10.7636138"><ele>517.4</ele><time>2026-04-18T08:37:22.964Z</time></trkpt><trkpt lat="44.4149213" lon="10.7637094"><ele>518.6</ele><time>2026-04-18T08:37:23.965Z</time></trkpt><trkpt lat="44.4148546" lon="10.7638139"><ele>519.8</ele><time>2026-04-18T08:37:24.964Z</time></trkpt><trkpt lat="44.4147913" lon="10.7639126"><ele>521.0</ele><time>2026-04-18T08:37:25.964Z</time></trkpt><trkpt lat="44.4147131" lon="10.7639922"><ele>522.6</ele><time>2026-04-18T08:37:26.964Z</time></trkpt><trkpt lat="44.4146194" lon="10.7640523"><ele>524.2</ele><time>2026-04-18T08:37:27.964Z</time></trkpt><trkpt lat="44.4145282" lon="10.7640941"><ele>525.8</ele><time>2026-04-18T08:37:28.964Z</time></trkpt><trkpt lat="44.4144358" lon="10.7641524"><ele>527.4</ele><time>2026-04-18T08:37:29.964Z</time></trkpt><trkpt lat="44.4143501" lon="10.7642189"><ele>529.0</ele><time>2026-04-18T08:37:30.965Z</time></trkpt><trkpt lat="44.4142576" lon="10.764277"><ele>529.0</ele><time>2026-04-18T08:37:31.965Z</time></trkpt><trkpt lat="44.4141638" lon="10.7643355"><ele>529.0</ele><time>2026-04-18T08:37:32.964Z</time></trkpt><trkpt lat="44.4140885" lon="10.7644129"><ele>529.0</ele><time>2026-04-18T08:37:33.964Z</time></trkpt><trkpt lat="44.4140187" lon="10.7645067"><ele>529.0</ele><time>2026-04-18T08:37:34.965Z</time></trkpt><trkpt lat="44.4139419" lon="10.7645933"><ele>529.0</ele><time>2026-04-18T08:37:35.965Z</time></trkpt><trkpt lat="44.4138591" lon="10.7646545"><ele>531.8</ele><time>2026-04-18T08:37:36.964Z</time></trkpt><trkpt lat="44.4137757" lon="10.7646811"><ele>534.5999999999999</ele><time>2026-04-18T08:37:37.965Z</time></trkpt><trkpt lat="44.4136852" lon="10.7646853"><ele>537.4</ele><time>2026-04-18T08:37:38.964Z</time></trkpt><trkpt lat="44.4135909" lon="10.7646854"><ele>540.1999999999999</ele><time>2026-04-18T08:37:39.965Z</time></trkpt><trkpt lat="44.413498" lon="10.7647004"><ele>543.0</ele><time>2026-04-18T08:37:40.965Z</time></trkpt><trkpt lat="44.4134099" lon="10.7647343"><ele>543.0</ele><time>2026-04-18T08:37:41.964Z</time></trkpt><trkpt lat="44.4133268" lon="10.7647864"><ele>543.0</ele><time>2026-04-18T08:37:42.964Z</time></trkpt><trkpt lat="44.4132456" lon="10.7648433"><ele>543.0</ele><time>2026-04-18T08:37:43.964Z</time></trkpt><trkpt lat="44.4131702" lon="10.7648697"><ele>543.0</ele><time>2026-04-18T08:37:44.965Z</time></trkpt><trkpt lat="44.4130776" lon="10.7648194"><ele>543.0</ele><time>2026-04-18T08:37:46.965Z</time></trkpt><trkpt lat="44.4130605" lon="10.7646771"><ele>543.0</ele><time>2026-04-18T08:37:48.965Z</time></trkpt><trkpt lat="44.4130806" lon="10.7645826"><ele>543.0</ele><time>2026-04-18T08:37:49.965Z</time></trkpt><trkpt lat="44.4131179" lon="10.7644697"><ele>543.0</ele><time>2026-04-18T08:37:50.965Z</time></trkpt><trkpt lat="44.4131669" lon="10.7643517"><ele>543.0</ele><time>2026-04-18T08:37:51.965Z</time></trkpt><trkpt lat="44.4132067" lon="10.764225"><ele>543.0</ele><time>2026-04-18T08:37:52.964Z</time></trkpt><trkpt lat="44.4132295" lon="10.7640986"><ele>543.0</ele><time>2026-04-18T08:37:53.965Z</time></trkpt><trkpt lat="44.4132346" lon="10.7639895"><ele>544.4</ele><time>2026-04-18T08:37:54.964Z</time></trkpt><trkpt lat="44.4132185" lon="10.7638736"><ele>545.8</ele><time>2026-04-18T08:37:55.964Z</time></trkpt><trkpt lat="44.4131987" lon="10.7637407"><ele>547.2</ele><time>2026-04-18T08:37:56.965Z</time></trkpt><trkpt lat="44.4131669" lon="10.7636181"><ele>548.6</ele><time>2026-04-18T08:37:57.964Z</time></trkpt><trkpt lat="44.4131128" lon="10.7634976"><ele>550.0</ele><time>2026-04-18T08:37:58.964Z</time></trkpt><trkpt lat="44.4130346" lon="10.7633893"><ele>553.1666666666667</ele><time>2026-04-18T08:37:59.964Z</time></trkpt><trkpt lat="44.4129786" lon="10.7632919"><ele>556.3333333333334</ele><time>2026-04-18T08:38:00.964Z</time></trkpt><trkpt lat="44.4129209" lon="10.7632395"><ele>559.5</ele><time>2026-04-18T08:38:01.965Z</time></trkpt><trkpt lat="44.4128026" lon="10.7632538"><ele>562.6666666666666</ele><time>2026-04-18T08:38:03.964Z</time></trkpt><trkpt lat="44.4127412" lon="10.7632989"><ele>565.8333333333333</ele><time>2026-04-18T08:38:04.964Z</time></trkpt><trkpt lat="44.412673" lon="10.7633696"><ele>569.0</ele><time>2026-04-18T08:38:05.965Z</time></trkpt><trkpt lat="44.412614" lon="10.7634421"><ele>569.0</ele><time>2026-04-18T08:38:06.965Z</time></trkpt><trkpt lat="44.4125541" lon="10.7634962"><ele>569.0</ele><time>2026-04-18T08:38:07.964Z</time></trkpt><trkpt lat="44.4124423" lon="10.7635088"><ele>569.0</ele><time>2026-04-18T08:38:09.964Z</time></trkpt><trkpt lat="44.4123733" lon="10.7634593"><ele>569.0</ele><time>2026-04-18T08:38:10.965Z</time></trkpt><trkpt lat="44.4122876" lon="10.7634025"><ele>569.0</ele><time>2026-04-18T08:38:11.964Z</time></trkpt><trkpt lat="44.4121983" lon="10.7633557"><ele>572.0</ele><time>2026-04-18T08:38:12.964Z</time></trkpt><trkpt lat="44.4121079" lon="10.7633342"><ele>575.0</ele><time>2026-04-18T08:38:13.965Z</time></trkpt><trkpt lat="44.4120206" lon="10.763333"><ele>578.0</ele><time>2026-04-18T08:38:14.964Z</time></trkpt><trkpt lat="44.4119373" lon="10.7633411"><ele>581.0</ele><time>2026-04-18T08:38:15.965Z</time></trkpt><trkpt lat="44.4118496" lon="10.7633345"><ele>584.0</ele><time>2026-04-18T08:38:16.964Z</time></trkpt><trkpt lat="44.4117589" lon="10.7632858"><ele>587.0</ele><time>2026-04-18T08:38:17.965Z</time></trkpt><trkpt lat="44.4116624" lon="10.7632376"><ele>587.0</ele><time>2026-04-18T08:38:18.965Z</time></trkpt><trkpt lat="44.4115664" lon="10.7631787"><ele>587.0</ele><time>2026-04-18T08:38:19.964Z</time></trkpt><trkpt lat="44.4114718" lon="10.7631376"><ele>587.0</ele><time>2026-04-18T08:38:20.965Z</time></trkpt><trkpt lat="44.4113854" lon="10.7631034"><ele>587.0</ele><time>2026-04-18T08:38:21.964Z</time></trkpt><trkpt lat="44.411317" lon="10.7631182"><ele>587.0</ele><time>2026-04-18T08:38:22.964Z</time></trkpt><trkpt lat="44.4112428" lon="10.7631487"><ele>587.0</ele><time>2026-04-18T08:38:23.964Z</time></trkpt><trkpt lat="44.4111642" lon="10.763186"><ele>588.8333333333333</ele><time>2026-04-18T08:38:24.965Z</time></trkpt><trkpt lat="44.4110747" lon="10.7631963"><ele>590.6666666666666</ele><time>2026-04-18T08:38:25.965Z</time></trkpt><trkpt lat="44.4109806" lon="10.7632027"><ele>592.5</ele><time>2026-04-18T08:38:26.964Z</time></trkpt><trkpt lat="44.4109002" lon="10.7632326"><ele>594.3333333333334</ele><time>2026-04-18T08:38:27.965Z</time></trkpt><trkpt lat="44.4108321" lon="10.7632925"><ele>596.1666666666667</ele><time>2026-04-18T08:38:28.965Z</time></trkpt><trkpt lat="44.4107601" lon="10.7633685"><ele>598.0</ele><time>2026-04-18T08:38:29.965Z</time></trkpt><trkpt lat="44.4106666" lon="10.7634407"><ele>598.0</ele><time>2026-04-18T08:38:30.964Z</time></trkpt><trkpt lat="44.4105598" lon="10.7635263"><ele>598.0</ele><time>2026-04-18T08:38:31.965Z</time></trkpt><trkpt lat="44.4104543" lon="10.763619"><ele>598.0</ele><time>2026-04-18T08:38:32.965Z</time></trkpt><trkpt lat="44.4103478" lon="10.7636906"><ele>598.0</ele><time>2026-04-18T08:38:33.965Z</time></trkpt><trkpt lat="44.4102295" lon="10.7637243"><ele>599.5</ele><time>2026-04-18T08:38:34.965Z</time></trkpt><trkpt lat="44.4101103" lon="10.7637182"><ele>601.0</ele><time>2026-04-18T08:38:35.964Z</time></trkpt><trkpt lat="44.409987" lon="10.7636976"><ele>602.5</ele><time>2026-04-18T08:38:36.965Z</time></trkpt><trkpt lat="44.4098645" lon="10.7636669"><ele>604.0</ele><time>2026-04-18T08:38:37.964Z</time></trkpt><trkpt lat="44.4097345" lon="10.7636249"><ele>606.25</ele><time>2026-04-18T08:38:38.965Z</time></trkpt><trkpt lat="44.4096076" lon="10.7635855"><ele>608.5</ele><time>2026-04-18T08:38:39.964Z</time></trkpt><trkpt lat="44.4094799" lon="10.7635565"><ele>610.75</ele><time>2026-04-18T08:38:40.964Z</time></trkpt><trkpt lat="44.4093598" lon="10.7635327"><ele>613.0</ele><time>2026-04-18T08:38:41.964Z</time></trkpt><trkpt lat="44.4092366" lon="10.7635156"><ele>613.0</ele><time>2026-04-18T08:38:42.964Z</time></trkpt><trkpt lat="44.4091137" lon="10.7634872"><ele>613.0</ele><time>2026-04-18T08:38:43.965Z</time></trkpt><trkpt lat="44.4090043" lon="10.7634547"><ele>613.0</ele><time>2026-04-18T08:38:44.964Z</time></trkpt><trkpt lat="44.4089148" lon="10.7634272"><ele>613.0</ele><time>2026-04-18T08:38:45.964Z</time></trkpt><trkpt lat="44.4088301" lon="10.7634197"><ele>613.0</ele><time>2026-04-18T08:38:46.964Z</time></trkpt><trkpt lat="44.4087438" lon="10.7634349"><ele>615.1999999999999</ele><time>2026-04-18T08:38:47.964Z</time></trkpt><trkpt lat="44.4086695" lon="10.7634855"><ele>617.4</ele><time>2026-04-18T08:38:48.964Z</time></trkpt><trkpt lat="44.4085837" lon="10.7635432"><ele>619.5999999999999</ele><time>2026-04-18T08:38:49.964Z</time></trkpt><trkpt lat="44.4084891" lon="10.7635882"><ele>621.8</ele><time>2026-04-18T08:38:50.965Z</time></trkpt><trkpt lat="44.408389" lon="10.7636331"><ele>624.0</ele><time>2026-04-18T08:38:51.965Z</time></trkpt><trkpt lat="44.4082823" lon="10.7636871"><ele>624.3333333333334</ele><time>2026-04-18T08:38:52.965Z</time></trkpt><trkpt lat="44.4081817" lon="10.763743"><ele>624.6666666666666</ele><time>2026-04-18T08:38:53.965Z</time></trkpt><trkpt lat="44.4080997" lon="10.7638039"><ele>625.0</ele><time>2026-04-18T08:38:54.965Z</time></trkpt><trkpt lat="44.4080371" lon="10.763887"><ele>625.3333333333333</ele><time>2026-04-18T08:38:55.965Z</time></trkpt><trkpt lat="44.4080028" lon="10.7639709"><ele>625.6666666666666</ele><time>2026-04-18T08:38:56.964Z</time></trkpt><trkpt lat="44.4079777" lon="10.7640638"><ele>626.0</ele><time>2026-04-18T08:38:58.965Z</time></trkpt><trkpt lat="44.4080395" lon="10.7641439"><ele>626.0</ele><time>2026-04-18T08:39:25.965Z</time></trkpt><trkpt lat="44.4081077" lon="10.7641839"><ele>626.0</ele><time>2026-04-18T08:39:26.965Z</time></trkpt><trkpt lat="44.4081858" lon="10.7642634"><ele>626.0</ele><time>2026-04-18T08:39:27.964Z</time></trkpt><trkpt lat="44.4082666" lon="10.7643693"><ele>626.0</ele><time>2026-04-18T08:39:28.964Z</time></trkpt><trkpt lat="44.4083336" lon="10.7644913"><ele>626.0</ele><time>2026-04-18T08:39:29.965Z</time></trkpt><trkpt lat="44.4083821" lon="10.7646255"><ele>625.8</ele><time>2026-04-18T08:39:30.964Z</time></trkpt><trkpt lat="44.4084189" lon="10.7647608"><ele>625.6</ele><time>2026-04-18T08:39:31.965Z</time></trkpt><trkpt lat="44.4084386" lon="10.7648991"><ele>625.4</ele><time>2026-04-18T08:39:32.964Z</time></trkpt><trkpt lat="44.4084352" lon="10.7650463"><ele>625.2</ele><time>2026-04-18T08:39:33.964Z</time></trkpt><trkpt lat="44.4084146" lon="10.7651942"><ele>625.0</ele><time>2026-04-18T08:39:34.965Z</time></trkpt><trkpt lat="44.4083852" lon="10.7653364"><ele>624.4</ele><time>2026-04-18T08:39:35.964Z</time></trkpt><trkpt lat="44.4083542" lon="10.7654816"><ele>623.8</ele><time>2026-04-18T08:39:36.965Z</time></trkpt><trkpt lat="44.4083265" lon="10.7656206"><ele>623.2</ele><time>2026-04-18T08:39:37.964Z</time></trkpt><trkpt lat="44.4083113" lon="10.7657584"><ele>622.6</ele><time>2026-04-18T08:39:38.964Z</time></trkpt><trkpt lat="44.4083108" lon="10.7658989"><ele>622.0</ele><time>2026-04-18T08:39:39.964Z</time></trkpt><trkpt lat="44.4083177" lon="10.7660336"><ele>620.8000000000001</ele><time>2026-04-18T08:39:40.965Z</time></trkpt><trkpt lat="44.4083331" lon="10.7661683"><ele>619.6</ele><time>2026-04-18T08:39:41.965Z</time></trkpt><trkpt lat="44.4083509" lon="10.7663023"><ele>618.4000000000001</ele><time>2026-04-18T08:39:42.965Z</time></trkpt><trkpt lat="44.4083788" lon="10.766437"><ele>617.2</ele><time>2026-04-18T08:39:43.965Z</time></trkpt><trkpt lat="44.4084207" lon="10.766565"><ele>616.0</ele><time>2026-04-18T08:39:44.965Z</time></trkpt><trkpt lat="44.4084832" lon="10.7666831"><ele>616.0</ele><time>2026-04-18T08:39:45.964Z</time></trkpt><trkpt lat="44.4085584" lon="10.7667988"><ele>616.0</ele><time>2026-04-18T08:39:46.964Z</time></trkpt><trkpt lat="44.408643" lon="10.7669103"><ele>616.0</ele><time>2026-04-18T08:39:47.964Z</time></trkpt><trkpt lat="44.4087354" lon="10.7670247"><ele>616.0</ele><time>2026-04-18T08:39:48.964Z</time></trkpt><trkpt lat="44.4088285" lon="10.7671484"><ele>614.25</ele><time>2026-04-18T08:39:49.964Z</time></trkpt><trkpt lat="44.4089188" lon="10.7672776"><ele>612.5</ele><time>2026-04-18T08:39:50.964Z</time></trkpt><trkpt lat="44.4090121" lon="10.7674102"><ele>610.75</ele><time>2026-04-18T08:39:51.965Z</time></trkpt><trkpt lat="44.4091089" lon="10.7675429"><ele>609.0</ele><time>2026-04-18T08:39:52.964Z</time></trkpt><trkpt lat="44.4092106" lon="10.7676593"><ele>610.75</ele><time>2026-04-18T08:39:53.965Z</time></trkpt><trkpt lat="44.4093186" lon="10.7677632"><ele>612.5</ele><time>2026-04-18T08:39:54.964Z</time></trkpt><trkpt lat="44.4094195" lon="10.7678553"><ele>614.25</ele><time>2026-04-18T08:39:55.965Z</time></trkpt><trkpt lat="44.4095198" lon="10.7679392"><ele>616.0</ele><time>2026-04-18T08:39:56.965Z</time></trkpt><trkpt lat="44.4096177" lon="10.7680155"><ele>615.5</ele><time>2026-04-18T08:39:57.964Z</time></trkpt><trkpt lat="44.4097126" lon="10.768092"><ele>615.0</ele><time>2026-04-18T08:39:58.965Z</time></trkpt><trkpt lat="44.4098092" lon="10.7681681"><ele>614.5</ele><time>2026-04-18T08:39:59.964Z</time></trkpt><trkpt lat="44.4099086" lon="10.7682497"><ele>614.0</ele><time>2026-04-18T08:40:00.965Z</time></trkpt><trkpt lat="44.4100099" lon="10.7683382"><ele>614.0</ele><time>2026-04-18T08:40:01.965Z</time></trkpt><trkpt lat="44.410111" lon="10.7684318"><ele>614.0</ele><time>2026-04-18T08:40:02.964Z</time></trkpt><trkpt lat="44.4102158" lon="10.7685289"><ele>614.0</ele><time>2026-04-18T08:40:03.964Z</time></trkpt><trkpt lat="44.4103162" lon="10.7686319"><ele>614.0</ele><time>2026-04-18T08:40:04.964Z</time></trkpt><trkpt lat="44.410414" lon="10.7687339"><ele>615.5</ele><time>2026-04-18T08:40:05.964Z</time></trkpt><trkpt lat="44.4105124" lon="10.7688387"><ele>617.0</ele><time>2026-04-18T08:40:06.965Z</time></trkpt><trkpt lat="44.4106083" lon="10.7689452"><ele>618.5</ele><time>2026-04-18T08:40:07.964Z</time></trkpt><trkpt lat="44.4106891" lon="10.7690648"><ele>620.0</ele><time>2026-04-18T08:40:08.964Z</time></trkpt><trkpt lat="44.4107583" lon="10.7691981"><ele>620.0</ele><time>2026-04-18T08:40:09.964Z</time></trkpt><trkpt lat="44.4108241" lon="10.7693415"><ele>620.0</ele><time>2026-04-18T08:40:10.965Z</time></trkpt><trkpt lat="44.4108864" lon="10.7694865"><ele>620.0</ele><time>2026-04-18T08:40:11.964Z</time></trkpt><trkpt lat="44.4109482" lon="10.7696344"><ele>620.0</ele><time>2026-04-18T08:40:12.964Z</time></trkpt><trkpt lat="44.4110067" lon="10.7697823"><ele>623.25</ele><time>2026-04-18T08:40:13.965Z</time></trkpt><trkpt lat="44.4110594" lon="10.769941"><ele>626.5</ele><time>2026-04-18T08:40:14.964Z</time></trkpt><trkpt lat="44.4111063" lon="10.770102"><ele>629.75</ele><time>2026-04-18T08:40:15.964Z</time></trkpt><trkpt lat="44.4111519" lon="10.7702478"><ele>633.0</ele><time>2026-04-18T08:40:16.964Z</time></trkpt><trkpt lat="44.4112067" lon="10.7703929"><ele>632.5</ele><time>2026-04-18T08:40:17.964Z</time></trkpt><trkpt lat="44.4112747" lon="10.770532"><ele>632.0</ele><time>2026-04-18T08:40:18.965Z</time></trkpt><trkpt lat="44.4113445" lon="10.7706706"><ele>631.5</ele><time>2026-04-18T08:40:19.964Z</time></trkpt><trkpt lat="44.411419" lon="10.7708"><ele>631.0</ele><time>2026-04-18T08:40:20.964Z</time></trkpt><trkpt lat="44.411498" lon="10.7709173"><ele>634.5</ele><time>2026-04-18T08:40:21.965Z</time></trkpt><trkpt lat="44.4115754" lon="10.7710283"><ele>638.0</ele><time>2026-04-18T08:40:22.965Z</time></trkpt><trkpt lat="44.4116501" lon="10.7711491"><ele>641.5</ele><time>2026-04-18T08:40:23.965Z</time></trkpt><trkpt lat="44.4117157" lon="10.7712802"><ele>645.0</ele><time>2026-04-18T08:40:24.964Z</time></trkpt><trkpt lat="44.4117785" lon="10.771418"><ele>645.0</ele><time>2026-04-18T08:40:25.965Z</time></trkpt><trkpt lat="44.4118413" lon="10.7715605"><ele>645.0</ele><time>2026-04-18T08:40:26.965Z</time></trkpt><trkpt lat="44.4119056" lon="10.7716993"><ele>645.0</ele><time>2026-04-18T08:40:27.964Z</time></trkpt><trkpt lat="44.41197" lon="10.7718368"><ele>645.0</ele><time>2026-04-18T08:40:28.964Z</time></trkpt><trkpt lat="44.4120348" lon="10.7719722"><ele>646.0</ele><time>2026-04-18T08:40:29.965Z</time></trkpt><trkpt lat="44.412098" lon="10.7721103"><ele>647.0</ele><time>2026-04-18T08:40:30.964Z</time></trkpt><trkpt lat="44.4121617" lon="10.7722552"><ele>648.0</ele><time>2026-04-18T08:40:31.965Z</time></trkpt><trkpt lat="44.412227" lon="10.7724071"><ele>649.0</ele><time>2026-04-18T08:40:32.964Z</time></trkpt><trkpt lat="44.4122862" lon="10.7725559"><ele>650.75</ele><time>2026-04-18T08:40:33.964Z</time></trkpt><trkpt lat="44.4123218" lon="10.772705"><ele>652.5</ele><time>2026-04-18T08:40:34.964Z</time></trkpt><trkpt lat="44.4123509" lon="10.7728644"><ele>654.25</ele><time>2026-04-18T08:40:35.964Z</time></trkpt><trkpt lat="44.4123796" lon="10.7730279"><ele>656.0</ele><time>2026-04-18T08:40:36.965Z</time></trkpt><trkpt lat="44.4124143" lon="10.7731882"><ele>656.0</ele><time>2026-04-18T08:40:37.965Z</time></trkpt><trkpt lat="44.4124516" lon="10.7733388"><ele>656.0</ele><time>2026-04-18T08:40:38.964Z</time></trkpt><trkpt lat="44.4124924" lon="10.7734773"><ele>656.0</ele><time>2026-04-18T08:40:39.964Z</time></trkpt><trkpt lat="44.4125279" lon="10.7736208"><ele>656.0</ele><time>2026-04-18T08:40:40.964Z</time></trkpt><trkpt lat="44.4125436" lon="10.7737686"><ele>656.0</ele><time>2026-04-18T08:40:41.965Z</time></trkpt><trkpt lat="44.4125504" lon="10.7738908"><ele>657.8</ele><time>2026-04-18T08:40:42.964Z</time></trkpt><trkpt lat="44.4125852" lon="10.7739998"><ele>659.5999999999999</ele><time>2026-04-18T08:40:43.965Z</time></trkpt><trkpt lat="44.4126566" lon="10.7740699"><ele>661.4</ele><time>2026-04-18T08:40:44.964Z</time></trkpt><trkpt lat="44.4127421" lon="10.7741065"><ele>663.2</ele><time>2026-04-18T08:40:45.965Z</time></trkpt><trkpt lat="44.4128367" lon="10.7741377"><ele>665.0</ele><time>2026-04-18T08:40:46.964Z</time></trkpt><trkpt lat="44.4129339" lon="10.7741917"><ele>664.2</ele><time>2026-04-18T08:40:47.965Z</time></trkpt><trkpt lat="44.4130285" lon="10.7742653"><ele>663.4</ele><time>2026-04-18T08:40:48.965Z</time></trkpt><trkpt lat="44.4131164" lon="10.7743419"><ele>662.5999999999999</ele><time>2026-04-18T08:40:49.964Z</time></trkpt><trkpt lat="44.4131913" lon="10.7744247"><ele>661.8</ele><time>2026-04-18T08:40:50.964Z</time></trkpt><trkpt lat="44.4132471" lon="10.7745163"><ele>661.0</ele><time>2026-04-18T08:40:51.965Z</time></trkpt><trkpt lat="44.4132754" lon="10.7746197"><ele>661.0</ele><time>2026-04-18T08:40:52.964Z</time></trkpt><trkpt lat="44.4132858" lon="10.7747484"><ele>661.0</ele><time>2026-04-18T08:40:53.965Z</time></trkpt><trkpt lat="44.4132848" lon="10.7748955"><ele>661.0</ele><time>2026-04-18T08:40:54.964Z</time></trkpt><trkpt lat="44.4132796" lon="10.7750585"><ele>661.0</ele><time>2026-04-18T08:40:55.965Z</time></trkpt><trkpt lat="44.4132704" lon="10.7752393"><ele>661.0</ele><time>2026-04-18T08:40:56.965Z</time></trkpt><trkpt lat="44.413258" lon="10.7754262"><ele>661.25</ele><time>2026-04-18T08:40:57.964Z</time></trkpt><trkpt lat="44.4132461" lon="10.7756255"><ele>661.5</ele><time>2026-04-18T08:40:58.965Z</time></trkpt><trkpt lat="44.4132351" lon="10.7758255"><ele>661.75</ele><time>2026-04-18T08:40:59.964Z</time></trkpt><trkpt lat="44.413223" lon="10.7760242"><ele>662.0</ele><time>2026-04-18T08:41:00.965Z</time></trkpt><trkpt lat="44.4132119" lon="10.7762194"><ele>662.75</ele><time>2026-04-18T08:41:01.964Z</time></trkpt><trkpt lat="44.4132038" lon="10.7764166"><ele>663.5</ele><time>2026-04-18T08:41:02.964Z</time></trkpt><trkpt lat="44.4132012" lon="10.7765805"><ele>664.25</ele><time>2026-04-18T08:41:03.964Z</time></trkpt><trkpt lat="44.4131872" lon="10.7767336"><ele>665.0</ele><time>2026-04-18T08:41:04.964Z</time></trkpt><trkpt lat="44.413154" lon="10.7768682"><ele>663.8</ele><time>2026-04-18T08:41:05.964Z</time></trkpt><trkpt lat="44.4130986" lon="10.7769874"><ele>662.6</ele><time>2026-04-18T08:41:06.965Z</time></trkpt><trkpt lat="44.4130245" lon="10.7770972"><ele>661.4000000000001</ele><time>2026-04-18T08:41:07.965Z</time></trkpt><trkpt lat="44.4129342" lon="10.7771907"><ele>660.2</ele><time>2026-04-18T08:41:08.964Z</time></trkpt><trkpt lat="44.4128399" lon="10.7772845"><ele>659.0</ele><time>2026-04-18T08:41:09.964Z</time></trkpt><trkpt lat="44.4127427" lon="10.7773681"><ele>662.2</ele><time>2026-04-18T08:41:10.965Z</time></trkpt><trkpt lat="44.4126479" lon="10.7774382"><ele>665.4000000000001</ele><time>2026-04-18T08:41:11.964Z</time></trkpt><trkpt lat="44.4125546" lon="10.7774798"><ele>668.6</ele><time>2026-04-18T08:41:12.964Z</time></trkpt><trkpt lat="44.4124568" lon="10.7775043"><ele>671.8</ele><time>2026-04-18T08:41:13.965Z</time></trkpt><trkpt lat="44.4123569" lon="10.7775061"><ele>675.0</ele><time>2026-04-18T08:41:14.965Z</time></trkpt><trkpt lat="44.4122545" lon="10.7774782"><ele>675.0</ele><time>2026-04-18T08:41:15.963Z</time></trkpt><trkpt lat="44.4121589" lon="10.7774407"><ele>675.0</ele><time>2026-04-18T08:41:16.965Z</time></trkpt><trkpt lat="44.4120651" lon="10.7774292"><ele>675.0</ele><time>2026-04-18T08:41:17.964Z</time></trkpt><trkpt lat="44.4119727" lon="10.7774512"><ele>675.0</ele><time>2026-04-18T08:41:18.964Z</time></trkpt><trkpt lat="44.4118934" lon="10.7775051"><ele>675.0</ele><time>2026-04-18T08:41:19.964Z</time></trkpt><trkpt lat="44.4118302" lon="10.7775708"><ele>675.4</ele><time>2026-04-18T08:41:20.964Z</time></trkpt><trkpt lat="44.4117752" lon="10.7776495"><ele>675.8</ele><time>2026-04-18T08:41:21.964Z</time></trkpt><trkpt lat="44.4117227" lon="10.7777426"><ele>676.2</ele><time>2026-04-18T08:41:22.964Z</time></trkpt><trkpt lat="44.4116693" lon="10.7778541"><ele>676.6</ele><time>2026-04-18T08:41:23.964Z</time></trkpt><trkpt lat="44.4116186" lon="10.7779785"><ele>677.0</ele><time>2026-04-18T08:41:24.965Z</time></trkpt><trkpt lat="44.4115663" lon="10.7781101"><ele>677.0</ele><time>2026-04-18T08:41:25.964Z</time></trkpt><trkpt lat="44.4115064" lon="10.7782342"><ele>677.0</ele><time>2026-04-18T08:41:26.965Z</time></trkpt><trkpt lat="44.4114332" lon="10.7783392"><ele>677.0</ele><time>2026-04-18T08:41:27.965Z</time></trkpt><trkpt lat="44.4113428" lon="10.7784284"><ele>677.0</ele><time>2026-04-18T08:41:28.964Z</time></trkpt><trkpt lat="44.4112393" lon="10.7785049"><ele>677.0</ele><time>2026-04-18T08:41:29.964Z</time></trkpt><trkpt lat="44.4111486" lon="10.7785947"><ele>678.4000000000001</ele><time>2026-04-18T08:41:30.964Z</time></trkpt><trkpt lat="44.4110831" lon="10.778711"><ele>679.8000000000001</ele><time>2026-04-18T08:41:31.965Z</time></trkpt><trkpt lat="44.4110299" lon="10.7788356"><ele>681.2</ele><time>2026-04-18T08:41:32.964Z</time></trkpt><trkpt lat="44.4109668" lon="10.7789465"><ele>682.6</ele><time>2026-04-18T08:41:33.965Z</time></trkpt><trkpt lat="44.4108898" lon="10.779034"><ele>684.0</ele><time>2026-04-18T08:41:34.964Z</time></trkpt><trkpt lat="44.4107977" lon="10.7790895"><ele>684.0</ele><time>2026-04-18T08:41:35.964Z</time></trkpt><trkpt lat="44.4106949" lon="10.7791322"><ele>684.0</ele><time>2026-04-18T08:41:36.964Z</time></trkpt><trkpt lat="44.4105932" lon="10.7791808"><ele>684.0</ele><time>2026-04-18T08:41:37.964Z</time></trkpt><trkpt lat="44.4105073" lon="10.7792505"><ele>684.0</ele><time>2026-04-18T08:41:38.965Z</time></trkpt><trkpt lat="44.4104376" lon="10.7793543"><ele>684.0</ele><time>2026-04-18T08:41:39.964Z</time></trkpt><trkpt lat="44.4103867" lon="10.7794791"><ele>687.75</ele><time>2026-04-18T08:41:40.964Z</time></trkpt><trkpt lat="44.4103531" lon="10.7796138"><ele>691.5</ele><time>2026-04-18T08:41:41.965Z</time></trkpt><trkpt lat="44.4103203" lon="10.779761"><ele>695.25</ele><time>2026-04-18T08:41:42.964Z</time></trkpt><trkpt lat="44.4102883" lon="10.7799207"><ele>699.0</ele><time>2026-04-18T08:41:43.964Z</time></trkpt><trkpt lat="44.4102574" lon="10.7800831"><ele>698.5</ele><time>2026-04-18T08:41:44.964Z</time></trkpt><trkpt lat="44.4102236" lon="10.7802508"><ele>698.0</ele><time>2026-04-18T08:41:45.964Z</time></trkpt><trkpt lat="44.4101932" lon="10.780418"><ele>697.5</ele><time>2026-04-18T08:41:46.964Z</time></trkpt><trkpt lat="44.4101607" lon="10.7805702"><ele>697.0</ele><time>2026-04-18T08:41:47.965Z</time></trkpt><trkpt lat="44.4101228" lon="10.7807038"><ele>697.0</ele><time>2026-04-18T08:41:48.964Z</time></trkpt><trkpt lat="44.4100635" lon="10.7808121"><ele>697.0</ele><time>2026-04-18T08:41:49.964Z</time></trkpt><trkpt lat="44.4099841" lon="10.7808906"><ele>697.0</ele><time>2026-04-18T08:41:50.965Z</time></trkpt><trkpt lat="44.4098935" lon="10.7809597"><ele>697.0</ele><time>2026-04-18T08:41:51.965Z</time></trkpt><trkpt lat="44.4098102" lon="10.7810455"><ele>697.0</ele><time>2026-04-18T08:41:52.965Z</time></trkpt><trkpt lat="44.4097523" lon="10.7811605"><ele>696.4000000000001</ele><time>2026-04-18T08:41:53.964Z</time></trkpt><trkpt lat="44.4097232" lon="10.781291"><ele>695.8000000000001</ele><time>2026-04-18T08:41:54.964Z</time></trkpt><trkpt lat="44.4097249" lon="10.7814373"><ele>695.2</ele><time>2026-04-18T08:41:55.964Z</time></trkpt><trkpt lat="44.4097394" lon="10.7815952"><ele>694.6</ele><time>2026-04-18T08:41:56.965Z</time></trkpt><trkpt lat="44.4097696" lon="10.7817573"><ele>694.0</ele><time>2026-04-18T08:41:57.965Z</time></trkpt><trkpt lat="44.4098227" lon="10.7819156"><ele>695.5</ele><time>2026-04-18T08:41:58.965Z</time></trkpt><trkpt lat="44.4098914" lon="10.782061"><ele>697.0</ele><time>2026-04-18T08:41:59.965Z</time></trkpt><trkpt lat="44.4099737" lon="10.782202"><ele>698.5</ele><time>2026-04-18T08:42:00.965Z</time></trkpt><trkpt lat="44.4100557" lon="10.7823413"><ele>700.0</ele><time>2026-04-18T08:42:01.964Z</time></trkpt><trkpt lat="44.4101334" lon="10.7824731"><ele>700.0</ele><time>2026-04-18T08:42:02.965Z</time></trkpt><trkpt lat="44.4102066" lon="10.7826022"><ele>700.0</ele><time>2026-04-18T08:42:03.965Z</time></trkpt><trkpt lat="44.4102701" lon="10.7827127"><ele>700.0</ele><time>2026-04-18T08:42:04.965Z</time></trkpt><trkpt lat="44.410345" lon="10.7827807"><ele>700.0</ele><time>2026-04-18T08:42:05.964Z</time></trkpt><trkpt lat="44.4104296" lon="10.7828119"><ele>700.0</ele><time>2026-04-18T08:42:06.964Z</time></trkpt><trkpt lat="44.4105236" lon="10.7828132"><ele>702.8</ele><time>2026-04-18T08:42:07.964Z</time></trkpt><trkpt lat="44.4106178" lon="10.7828396"><ele>705.6</ele><time>2026-04-18T08:42:08.964Z</time></trkpt><trkpt lat="44.4107118" lon="10.7828953"><ele>708.4000000000001</ele><time>2026-04-18T08:42:09.964Z</time></trkpt><trkpt lat="44.4108108" lon="10.7829687"><ele>711.2</ele><time>2026-04-18T08:42:10.965Z</time></trkpt><trkpt lat="44.4109099" lon="10.783044"><ele>714.0</ele><time>2026-04-18T08:42:11.965Z</time></trkpt><trkpt lat="44.4110131" lon="10.783096"><ele>714.0</ele><time>2026-04-18T08:42:12.964Z</time></trkpt><trkpt lat="44.4111111" lon="10.7831426"><ele>714.0</ele><time>2026-04-18T08:42:13.964Z</time></trkpt><trkpt lat="44.4112074" lon="10.7831367"><ele>714.0</ele><time>2026-04-18T08:42:14.964Z</time></trkpt><trkpt lat="44.4112755" lon="10.7831867"><ele>714.0</ele><time>2026-04-18T08:42:15.964Z</time></trkpt><trkpt lat="44.411337" lon="10.7832386"><ele>714.0</ele><time>2026-04-18T08:42:16.964Z</time></trkpt><trkpt lat="44.4113171" lon="10.7833619"><ele>714.0</ele><time>2026-04-18T08:42:17.964Z</time></trkpt><trkpt lat="44.4113287" lon="10.7834562"><ele>715.5</ele><time>2026-04-18T08:42:18.965Z</time></trkpt><trkpt lat="44.4112907" lon="10.7835917"><ele>717.0</ele><time>2026-04-18T08:42:19.964Z</time></trkpt><trkpt lat="44.4112904" lon="10.7837152"><ele>718.5</ele><time>2026-04-18T08:42:20.965Z</time></trkpt><trkpt lat="44.4112772" lon="10.7838412"><ele>720.0</ele><time>2026-04-18T08:42:21.965Z</time></trkpt><trkpt lat="44.4113084" lon="10.7839427"><ele>721.5</ele><time>2026-04-18T08:42:22.965Z</time></trkpt><trkpt lat="44.4113592" lon="10.7840325"><ele>723.0</ele><time>2026-04-18T08:42:23.964Z</time></trkpt><trkpt lat="44.4114345" lon="10.7840883"><ele>723.0</ele><time>2026-04-18T08:42:24.964Z</time></trkpt><trkpt lat="44.4115211" lon="10.7840962"><ele>723.0</ele><time>2026-04-18T08:42:25.964Z</time></trkpt><trkpt lat="44.411611" lon="10.7841013"><ele>723.0</ele><time>2026-04-18T08:42:26.965Z</time></trkpt><trkpt lat="44.4116812" lon="10.7841355"><ele>723.0</ele><time>2026-04-18T08:42:27.964Z</time></trkpt><trkpt lat="44.4116883" lon="10.7842698"><ele>723.0</ele><time>2026-04-18T08:42:29.964Z</time></trkpt><trkpt lat="44.4115597" lon="10.7843895"><ele>724.2</ele><time>2026-04-18T08:42:31.964Z</time></trkpt><trkpt lat="44.4114932" lon="10.7844804"><ele>725.4</ele><time>2026-04-18T08:42:32.964Z</time></trkpt><trkpt lat="44.4114398" lon="10.784601"><ele>726.6</ele><time>2026-04-18T08:42:33.965Z</time></trkpt><trkpt lat="44.4113961" lon="10.7847425"><ele>727.8000000000001</ele><time>2026-04-18T08:42:34.964Z</time></trkpt><trkpt lat="44.4113555" lon="10.7848945"><ele>729.0</ele><time>2026-04-18T08:42:35.965Z</time></trkpt><trkpt lat="44.4113139" lon="10.7850432"><ele>731.25</ele><time>2026-04-18T08:42:36.964Z</time></trkpt><trkpt lat="44.411243" lon="10.7852064"><ele>733.5</ele><time>2026-04-18T08:42:37.964Z</time></trkpt><trkpt lat="44.4111788" lon="10.7853618"><ele>735.75</ele><time>2026-04-18T08:42:38.965Z</time></trkpt><trkpt lat="44.4111058" lon="10.7855161"><ele>738.0</ele><time>2026-04-18T08:42:39.965Z</time></trkpt><trkpt lat="44.4110439" lon="10.7856656"><ele>738.0</ele><time>2026-04-18T08:42:40.965Z</time></trkpt><trkpt lat="44.4109836" lon="10.7857915"><ele>738.0</ele><time>2026-04-18T08:42:41.965Z</time></trkpt><trkpt lat="44.4109286" lon="10.7859233"><ele>738.0</ele><time>2026-04-18T08:42:42.964Z</time></trkpt><trkpt lat="44.4108892" lon="10.7860614"><ele>738.0</ele><time>2026-04-18T08:42:43.964Z</time></trkpt><trkpt lat="44.410856" lon="10.7861968"><ele>738.0</ele><time>2026-04-18T08:42:44.964Z</time></trkpt><trkpt lat="44.4108309" lon="10.7863232"><ele>738.2</ele><time>2026-04-18T08:42:45.964Z</time></trkpt><trkpt lat="44.410804" lon="10.7864153"><ele>738.4</ele><time>2026-04-18T08:42:46.965Z</time></trkpt><trkpt lat="44.4107594" lon="10.7865403"><ele>738.6</ele><time>2026-04-18T08:42:48.964Z</time></trkpt><trkpt lat="44.410708" lon="10.7866441"><ele>738.8000000000001</ele><time>2026-04-18T08:42:50.964Z</time></trkpt><trkpt lat="44.4106062" lon="10.7867322"><ele>739.0</ele><time>2026-04-18T08:42:52.965Z</time></trkpt><trkpt lat="44.4105076" lon="10.7867575"><ele>741.4000000000001</ele><time>2026-04-18T08:42:54.964Z</time></trkpt><trkpt lat="44.4104379" lon="10.7867338"><ele>743.8</ele><time>2026-04-18T08:42:56.964Z</time></trkpt><trkpt lat="44.4103675" lon="10.7866026"><ele>746.2</ele><time>2026-04-18T08:42:58.965Z</time></trkpt><trkpt lat="44.4103188" lon="10.7864997"><ele>748.5999999999999</ele><time>2026-04-18T08:42:59.964Z</time></trkpt><trkpt lat="44.4102518" lon="10.7863881"><ele>751.0</ele><time>2026-04-18T08:43:00.964Z</time></trkpt><trkpt lat="44.410175" lon="10.7862819"><ele>751.0</ele><time>2026-04-18T08:43:01.964Z</time></trkpt><trkpt lat="44.4100859" lon="10.7862009"><ele>751.0</ele><time>2026-04-18T08:43:02.964Z</time></trkpt><trkpt lat="44.409996" lon="10.7861325"><ele>751.0</ele><time>2026-04-18T08:43:03.964Z</time></trkpt><trkpt lat="44.4098763" lon="10.7861257"><ele>751.0</ele><time>2026-04-18T08:43:04.964Z</time></trkpt><trkpt lat="44.4097656" lon="10.7860928"><ele>751.0</ele><time>2026-04-18T08:43:05.965Z</time></trkpt><trkpt lat="44.4096367" lon="10.7860726"><ele>753.5</ele><time>2026-04-18T08:43:06.965Z</time></trkpt><trkpt lat="44.4095115" lon="10.7860594"><ele>756.0</ele><time>2026-04-18T08:43:07.965Z</time></trkpt><trkpt lat="44.4093894" lon="10.7860326"><ele>758.5</ele><time>2026-04-18T08:43:08.965Z</time></trkpt><trkpt lat="44.4092699" lon="10.7860497"><ele>761.0</ele><time>2026-04-18T08:43:09.964Z</time></trkpt><trkpt lat="44.409162" lon="10.7860926"><ele>761.0</ele><time>2026-04-18T08:43:10.964Z</time></trkpt><trkpt lat="44.4090575" lon="10.7861605"><ele>761.0</ele><time>2026-04-18T08:43:11.964Z</time></trkpt><trkpt lat="44.4089524" lon="10.7862265"><ele>761.0</ele><time>2026-04-18T08:43:12.965Z</time></trkpt><trkpt lat="44.4088391" lon="10.7862758"><ele>761.0</ele><time>2026-04-18T08:43:13.964Z</time></trkpt><trkpt lat="44.4087171" lon="10.7863074"><ele>762.0</ele><time>2026-04-18T08:43:14.965Z</time></trkpt><trkpt lat="44.4085908" lon="10.7863228"><ele>763.0</ele><time>2026-04-18T08:43:15.965Z</time></trkpt><trkpt lat="44.4084605" lon="10.7863314"><ele>764.0</ele><time>2026-04-18T08:43:16.964Z</time></trkpt><trkpt lat="44.4083265" lon="10.7863329"><ele>765.0</ele><time>2026-04-18T08:43:17.964Z</time></trkpt><trkpt lat="44.408189" lon="10.7863359"><ele>765.0</ele><time>2026-04-18T08:43:18.964Z</time></trkpt><trkpt lat="44.4080552" lon="10.786338"><ele>765.0</ele><time>2026-04-18T08:43:19.964Z</time></trkpt><trkpt lat="44.4079204" lon="10.7863403"><ele>765.0</ele><time>2026-04-18T08:43:20.965Z</time></trkpt><trkpt lat="44.4077843" lon="10.7863355"><ele>765.0</ele><time>2026-04-18T08:43:21.964Z</time></trkpt><trkpt lat="44.4076496" lon="10.7863186"><ele>765.75</ele><time>2026-04-18T08:43:22.964Z</time></trkpt><trkpt lat="44.407515" lon="10.7862899"><ele>766.5</ele><time>2026-04-18T08:43:23.965Z</time></trkpt><trkpt lat="44.40738" lon="10.7862501"><ele>767.25</ele><time>2026-04-18T08:43:24.965Z</time></trkpt><trkpt lat="44.4072478" lon="10.7862024"><ele>768.0</ele><time>2026-04-18T08:43:25.964Z</time></trkpt><trkpt lat="44.4071175" lon="10.786157"><ele>768.5</ele><time>2026-04-18T08:43:26.964Z</time></trkpt><trkpt lat="44.4069897" lon="10.7861239"><ele>769.0</ele><time>2026-04-18T08:43:27.964Z</time></trkpt><trkpt lat="44.4068639" lon="10.7861204"><ele>769.5</ele><time>2026-04-18T08:43:28.964Z</time></trkpt><trkpt lat="44.4067397" lon="10.7861495"><ele>770.0</ele><time>2026-04-18T08:43:29.965Z</time></trkpt><trkpt lat="44.4066238" lon="10.7862025"><ele>770.0</ele><time>2026-04-18T08:43:30.965Z</time></trkpt><trkpt lat="44.4065116" lon="10.786265"><ele>770.0</ele><time>2026-04-18T08:43:31.964Z</time></trkpt><trkpt lat="44.4063957" lon="10.7863045"><ele>770.0</ele><time>2026-04-18T08:43:32.964Z</time></trkpt><trkpt lat="44.4062818" lon="10.7863057"><ele>770.0</ele><time>2026-04-18T08:43:33.964Z</time></trkpt><trkpt lat="44.4061739" lon="10.7862638"><ele>769.25</ele><time>2026-04-18T08:43:34.964Z</time></trkpt><trkpt lat="44.4060704" lon="10.7861863"><ele>768.5</ele><time>2026-04-18T08:43:35.965Z</time></trkpt><trkpt lat="44.405974" lon="10.7860729"><ele>767.75</ele><time>2026-04-18T08:43:36.965Z</time></trkpt><trkpt lat="44.4058869" lon="10.785936"><ele>767.0</ele><time>2026-04-18T08:43:37.964Z</time></trkpt><trkpt lat="44.4058017" lon="10.785797"><ele>767.0</ele><time>2026-04-18T08:43:38.964Z</time></trkpt><trkpt lat="44.4057093" lon="10.7856553"><ele>767.0</ele><time>2026-04-18T08:43:39.964Z</time></trkpt><trkpt lat="44.4056185" lon="10.7855103"><ele>767.0</ele><time>2026-04-18T08:43:40.965Z</time></trkpt><trkpt lat="44.4055455" lon="10.7853524"><ele>767.0</ele><time>2026-04-18T08:43:41.965Z</time></trkpt><trkpt lat="44.4054937" lon="10.785189"><ele>770.0</ele><time>2026-04-18T08:43:42.964Z</time></trkpt><trkpt lat="44.4054531" lon="10.7850358"><ele>773.0</ele><time>2026-04-18T08:43:43.964Z</time></trkpt><trkpt lat="44.4053938" lon="10.7849026"><ele>776.0</ele><time>2026-04-18T08:43:44.964Z</time></trkpt><trkpt lat="44.4053166" lon="10.7847859"><ele>779.0</ele><time>2026-04-18T08:43:45.964Z</time></trkpt><trkpt lat="44.4052331" lon="10.7846751"><ele>779.0</ele><time>2026-04-18T08:43:46.965Z</time></trkpt><trkpt lat="44.4051172" lon="10.7845914"><ele>779.0</ele><time>2026-04-18T08:43:47.964Z</time></trkpt><trkpt lat="44.4050199" lon="10.7844867"><ele>779.0</ele><time>2026-04-18T08:43:48.965Z</time></trkpt><trkpt lat="44.4049447" lon="10.7843529"><ele>779.0</ele><time>2026-04-18T08:43:49.965Z</time></trkpt><trkpt lat="44.4048919" lon="10.7841898"><ele>778.5</ele><time>2026-04-18T08:43:50.965Z</time></trkpt><trkpt lat="44.4048503" lon="10.7840142"><ele>778.0</ele><time>2026-04-18T08:43:51.964Z</time></trkpt><trkpt lat="44.4048168" lon="10.7838245"><ele>777.5</ele><time>2026-04-18T08:43:52.965Z</time></trkpt><trkpt lat="44.4047921" lon="10.7836286"><ele>777.0</ele><time>2026-04-18T08:43:53.964Z</time></trkpt><trkpt lat="44.4047745" lon="10.7834249"><ele>777.0</ele><time>2026-04-18T08:43:54.964Z</time></trkpt><trkpt lat="44.4047717" lon="10.7832211"><ele>777.0</ele><time>2026-04-18T08:43:55.964Z</time></trkpt><trkpt lat="44.4047787" lon="10.7830306"><ele>777.0</ele><time>2026-04-18T08:43:56.965Z</time></trkpt><trkpt lat="44.404781" lon="10.7828443"><ele>777.0</ele><time>2026-04-18T08:43:57.965Z</time></trkpt><trkpt lat="44.4047761" lon="10.7826582"><ele>778.25</ele><time>2026-04-18T08:43:58.964Z</time></trkpt><trkpt lat="44.4047658" lon="10.7824675"><ele>779.5</ele><time>2026-04-18T08:43:59.965Z</time></trkpt><trkpt lat="44.4047429" lon="10.7822782"><ele>780.75</ele><time>2026-04-18T08:44:00.964Z</time></trkpt><trkpt lat="44.4047158" lon="10.782091"><ele>782.0</ele><time>2026-04-18T08:44:01.964Z</time></trkpt><trkpt lat="44.4047084" lon="10.7819042"><ele>782.75</ele><time>2026-04-18T08:44:02.965Z</time></trkpt><trkpt lat="44.4047288" lon="10.7817171"><ele>783.5</ele><time>2026-04-18T08:44:03.965Z</time></trkpt><trkpt lat="44.4047621" lon="10.7815236"><ele>784.25</ele><time>2026-04-18T08:44:04.964Z</time></trkpt><trkpt lat="44.4047965" lon="10.7813484"><ele>785.0</ele><time>2026-04-18T08:44:05.964Z</time></trkpt><trkpt lat="44.4048344" lon="10.7811939"><ele>785.0</ele><time>2026-04-18T08:44:06.964Z</time></trkpt><trkpt lat="44.4048683" lon="10.7810456"><ele>785.0</ele><time>2026-04-18T08:44:07.964Z</time></trkpt><trkpt lat="44.4048666" lon="10.7808973"><ele>785.0</ele><time>2026-04-18T08:44:08.965Z</time></trkpt><trkpt lat="44.4048709" lon="10.7807518"><ele>785.0</ele><time>2026-04-18T08:44:09.964Z</time></trkpt><trkpt lat="44.4048512" lon="10.7805865"><ele>785.0</ele><time>2026-04-18T08:44:10.964Z</time></trkpt><trkpt lat="44.4048325" lon="10.7804047"><ele>786.0</ele><time>2026-04-18T08:44:11.965Z</time></trkpt><trkpt lat="44.404841" lon="10.7802323"><ele>787.0</ele><time>2026-04-18T08:44:12.964Z</time></trkpt><trkpt lat="44.4048623" lon="10.7800522"><ele>788.0</ele><time>2026-04-18T08:44:13.964Z</time></trkpt><trkpt lat="44.4049117" lon="10.7798897"><ele>789.0</ele><time>2026-04-18T08:44:14.964Z</time></trkpt><trkpt lat="44.404962" lon="10.7797363"><ele>790.0</ele><time>2026-04-18T08:44:15.965Z</time></trkpt><trkpt lat="44.4050133" lon="10.7796035"><ele>791.0</ele><time>2026-04-18T08:44:16.964Z</time></trkpt><trkpt lat="44.4050538" lon="10.7794538"><ele>792.0</ele><time>2026-04-18T08:44:17.964Z</time></trkpt><trkpt lat="44.4050624" lon="10.7792963"><ele>793.0</ele><time>2026-04-18T08:44:18.965Z</time></trkpt><trkpt lat="44.4050276" lon="10.7791417"><ele>793.5</ele><time>2026-04-18T08:44:19.965Z</time></trkpt><trkpt lat="44.4049591" lon="10.7790031"><ele>794.0</ele><time>2026-04-18T08:44:20.964Z</time></trkpt><trkpt lat="44.4048715" lon="10.778886"><ele>794.5</ele><time>2026-04-18T08:44:21.965Z</time></trkpt><trkpt lat="44.4047849" lon="10.7787827"><ele>795.0</ele><time>2026-04-18T08:44:22.965Z</time></trkpt><trkpt lat="44.4047091" lon="10.7786929"><ele>796.0</ele><time>2026-04-18T08:44:23.965Z</time></trkpt><trkpt lat="44.4046454" lon="10.7786086"><ele>797.0</ele><time>2026-04-18T08:44:24.965Z</time></trkpt><trkpt lat="44.4045931" lon="10.7785385"><ele>798.0</ele><time>2026-04-18T08:44:25.964Z</time></trkpt><trkpt lat="44.4045494" lon="10.7784712"><ele>799.0</ele><time>2026-04-18T08:44:26.964Z</time></trkpt><trkpt lat="44.4044833" lon="10.7783556"><ele>800.0</ele><time>2026-04-18T08:44:28.964Z</time></trkpt><trkpt lat="44.4044859" lon="10.7782611"><ele>801.0</ele><time>2026-04-18T08:44:30.964Z</time></trkpt><trkpt lat="44.4045559" lon="10.7781809"><ele>800.0</ele><time>2026-04-18T08:44:32.964Z</time></trkpt><trkpt lat="44.4046707" lon="10.7780748"><ele>799.0</ele><time>2026-04-18T08:44:34.964Z</time></trkpt><trkpt lat="44.4047369" lon="10.7780182"><ele>798.0</ele><time>2026-04-18T08:44:35.964Z</time></trkpt><trkpt lat="44.4048078" lon="10.7779578"><ele>797.0</ele><time>2026-04-18T08:44:36.964Z</time></trkpt><trkpt lat="44.4048761" lon="10.7778939"><ele>796.0</ele><time>2026-04-18T08:44:37.964Z</time></trkpt><trkpt lat="44.4049349" lon="10.7778289"><ele>795.9999999999999</ele><time>2026-04-18T08:44:38.964Z</time></trkpt><trkpt lat="44.4049883" lon="10.7777544"><ele>796.0</ele><time>2026-04-18T08:44:39.965Z</time></trkpt><trkpt lat="44.4050331" lon="10.7776755"><ele>796.0</ele><time>2026-04-18T08:44:40.965Z</time></trkpt><trkpt lat="44.4050709" lon="10.7775891"><ele>796.0</ele><time>2026-04-18T08:44:41.965Z</time></trkpt><trkpt lat="44.4051075" lon="10.7774909"><ele>795.9999999999999</ele><time>2026-04-18T08:44:42.965Z</time></trkpt><trkpt lat="44.4051501" lon="10.7773934"><ele>796.0</ele><time>2026-04-18T08:44:43.964Z</time></trkpt><trkpt lat="44.4051942" lon="10.7772981"><ele>795.8</ele><time>2026-04-18T08:44:44.964Z</time></trkpt><trkpt lat="44.4052404" lon="10.777194"><ele>795.5999999999999</ele><time>2026-04-18T08:44:45.965Z</time></trkpt><trkpt lat="44.4052869" lon="10.7770844"><ele>795.4</ele><time>2026-04-18T08:44:46.964Z</time></trkpt><trkpt lat="44.4053349" lon="10.7769616"><ele>795.2</ele><time>2026-04-18T08:44:47.964Z</time></trkpt><trkpt lat="44.405383" lon="10.7768383"><ele>795.0</ele><time>2026-04-18T08:44:48.965Z</time></trkpt><trkpt lat="44.4054324" lon="10.7767175"><ele>794.1666666666666</ele><time>2026-04-18T08:44:49.965Z</time></trkpt><trkpt lat="44.4054847" lon="10.7766107"><ele>793.3333333333333</ele><time>2026-04-18T08:44:50.965Z</time></trkpt><trkpt lat="44.4055362" lon="10.7765155"><ele>792.5</ele><time>2026-04-18T08:44:51.965Z</time></trkpt><trkpt lat="44.4055808" lon="10.77643"><ele>791.6666666666666</ele><time>2026-04-18T08:44:52.965Z</time></trkpt><trkpt lat="44.4056277" lon="10.7763477"><ele>790.8333333333333</ele><time>2026-04-18T08:44:53.964Z</time></trkpt><trkpt lat="44.4057049" lon="10.7762233"><ele>790.0</ele><time>2026-04-18T08:44:55.964Z</time></trkpt><trkpt lat="44.4057853" lon="10.7761591"><ele>790.0</ele><time>2026-04-18T08:44:57.964Z</time></trkpt><trkpt lat="44.4058845" lon="10.7761299"><ele>790.0</ele><time>2026-04-18T08:44:59.965Z</time></trkpt><trkpt lat="44.4059831" lon="10.7761745"><ele>790.0</ele><time>2026-04-18T08:45:01.965Z</time></trkpt><trkpt lat="44.4060939" lon="10.7762588"><ele>790.0</ele><time>2026-04-18T08:45:03.964Z</time></trkpt><trkpt lat="44.406159" lon="10.776298"><ele>790.0</ele><time>2026-04-18T08:45:04.965Z</time></trkpt><trkpt lat="44.4062329" lon="10.7763301"><ele>789.9999999999999</ele><time>2026-04-18T08:45:05.964Z</time></trkpt><trkpt lat="44.4063125" lon="10.776361"><ele>790.0</ele><time>2026-04-18T08:45:06.964Z</time></trkpt><trkpt lat="44.4063881" lon="10.7763865"><ele>790.0</ele><time>2026-04-18T08:45:07.964Z</time></trkpt><trkpt lat="44.4064576" lon="10.776411"><ele>790.0</ele><time>2026-04-18T08:45:08.964Z</time></trkpt><trkpt lat="44.4065224" lon="10.7764401"><ele>789.9999999999999</ele><time>2026-04-18T08:45:09.964Z</time></trkpt><trkpt lat="44.4066071" lon="10.7765588"><ele>790.0</ele><time>2026-04-18T08:45:11.964Z</time></trkpt><trkpt lat="44.4066377" lon="10.7766479"><ele>789.1666666666666</ele><time>2026-04-18T08:45:12.964Z</time></trkpt><trkpt lat="44.4066754" lon="10.7767481"><ele>788.3333333333333</ele><time>2026-04-18T08:45:13.964Z</time></trkpt><trkpt lat="44.4067088" lon="10.7768504"><ele>787.5</ele><time>2026-04-18T08:45:14.964Z</time></trkpt><trkpt lat="44.4067388" lon="10.7769443"><ele>786.6666666666667</ele><time>2026-04-18T08:45:15.964Z</time></trkpt><trkpt lat="44.4067685" lon="10.777035"><ele>785.8333333333334</ele><time>2026-04-18T08:45:16.964Z</time></trkpt><trkpt lat="44.4067942" lon="10.7771202"><ele>785.0</ele><time>2026-04-18T08:45:17.964Z</time></trkpt><trkpt lat="44.4068919" lon="10.7772375"><ele>784.2</ele><time>2026-04-18T08:45:19.964Z</time></trkpt><trkpt lat="44.4069705" lon="10.7772701"><ele>783.4</ele><time>2026-04-18T08:45:20.965Z</time></trkpt><trkpt lat="44.4070608" lon="10.7772832"><ele>782.5999999999999</ele><time>2026-04-18T08:45:21.964Z</time></trkpt><trkpt lat="44.4071577" lon="10.7772884"><ele>781.8</ele><time>2026-04-18T08:45:22.964Z</time></trkpt><trkpt lat="44.4072501" lon="10.7772936"><ele>781.0</ele><time>2026-04-18T08:45:23.964Z</time></trkpt><trkpt lat="44.4073454" lon="10.7772899"><ele>779.8</ele><time>2026-04-18T08:45:24.964Z</time></trkpt><trkpt lat="44.4074417" lon="10.7772776"><ele>778.5999999999999</ele><time>2026-04-18T08:45:25.964Z</time></trkpt><trkpt lat="44.4075394" lon="10.7772562"><ele>777.4</ele><time>2026-04-18T08:45:26.964Z</time></trkpt><trkpt lat="44.4076273" lon="10.7772355"><ele>776.2</ele><time>2026-04-18T08:45:27.964Z</time></trkpt><trkpt lat="44.4077155" lon="10.7772121"><ele>775.0</ele><time>2026-04-18T08:45:28.964Z</time></trkpt><trkpt lat="44.4078054" lon="10.7771867"><ele>775.0</ele><time>2026-04-18T08:45:29.964Z</time></trkpt><trkpt lat="44.4078936" lon="10.7771541"><ele>775.0</ele><time>2026-04-18T08:45:30.964Z</time></trkpt><trkpt lat="44.4079622" lon="10.7771304"><ele>775.0</ele><time>2026-04-18T08:45:31.965Z</time></trkpt><trkpt lat="44.408066" lon="10.7770671"><ele>775.0</ele><time>2026-04-18T08:45:33.965Z</time></trkpt><trkpt lat="44.4081334" lon="10.7769919"><ele>775.0</ele><time>2026-04-18T08:45:35.965Z</time></trkpt><trkpt lat="44.4082069" lon="10.7769087"><ele>774.6</ele><time>2026-04-18T08:45:37.964Z</time></trkpt><trkpt lat="44.408286" lon="10.7767649"><ele>774.2</ele><time>2026-04-18T08:45:39.964Z</time></trkpt><trkpt lat="44.4083161" lon="10.7766836"><ele>773.8</ele><time>2026-04-18T08:45:40.965Z</time></trkpt><trkpt lat="44.4083332" lon="10.7765827"><ele>773.4</ele><time>2026-04-18T08:45:41.964Z</time></trkpt><trkpt lat="44.4083553" lon="10.7764775"><ele>773.0</ele><time>2026-04-18T08:45:42.965Z</time></trkpt><trkpt lat="44.4083699" lon="10.7762815"><ele>773.0000000000001</ele><time>2026-04-18T08:45:44.964Z</time></trkpt><trkpt lat="44.4083781" lon="10.7761881"><ele>773.0</ele><time>2026-04-18T08:45:45.964Z</time></trkpt><trkpt lat="44.4083883" lon="10.7760959"><ele>773.0</ele><time>2026-04-18T08:45:46.965Z</time></trkpt><trkpt lat="44.4084032" lon="10.7760006"><ele>773.0</ele><time>2026-04-18T08:45:47.965Z</time></trkpt><trkpt lat="44.4084164" lon="10.7759023"><ele>773.0000000000001</ele><time>2026-04-18T08:45:48.964Z</time></trkpt><trkpt lat="44.4084132" lon="10.7757245"><ele>773.0</ele><time>2026-04-18T08:45:50.965Z</time></trkpt><trkpt lat="44.408415" lon="10.775635"><ele>771.8</ele><time>2026-04-18T08:45:51.964Z</time></trkpt><trkpt lat="44.4084355" lon="10.7754909"><ele>770.5999999999999</ele><time>2026-04-18T08:45:53.964Z</time></trkpt><trkpt lat="44.4084956" lon="10.7753973"><ele>769.4000000000001</ele><time>2026-04-18T08:45:55.965Z</time></trkpt><trkpt lat="44.4085932" lon="10.7753564"><ele>768.2</ele><time>2026-04-18T08:45:57.965Z</time></trkpt><trkpt lat="44.4086994" lon="10.7754024"><ele>767.0</ele><time>2026-04-18T08:45:59.965Z</time></trkpt><trkpt lat="44.4087806" lon="10.7755102"><ele>763.3333333333333</ele><time>2026-04-18T08:46:01.964Z</time></trkpt><trkpt lat="44.4088527" lon="10.7755822"><ele>759.6666666666666</ele><time>2026-04-18T08:46:03.964Z</time></trkpt><trkpt lat="44.4089243" lon="10.7755575"><ele>756.0</ele><time>2026-04-18T08:46:05.964Z</time></trkpt><trkpt lat="44.4089923" lon="10.7754639"><ele>752.3333333333334</ele><time>2026-04-18T08:46:07.964Z</time></trkpt><trkpt lat="44.4090511" lon="10.7754101"><ele>748.6666666666667</ele><time>2026-04-18T08:46:08.964Z</time></trkpt><trkpt lat="44.4091639" lon="10.7753536"><ele>745.0</ele><time>2026-04-18T08:46:10.964Z</time></trkpt><trkpt lat="44.4092455" lon="10.7752809"><ele>745.0</ele><time>2026-04-18T08:46:12.964Z</time></trkpt><trkpt lat="44.4092758" lon="10.7751934"><ele>745.0</ele><time>2026-04-18T08:46:14.964Z</time></trkpt><trkpt lat="44.4093034" lon="10.7750834"><ele>745.0</ele><time>2026-04-18T08:46:17.964Z</time></trkpt><trkpt lat="44.4093086" lon="10.7749774"><ele>745.0</ele><time>2026-04-18T08:46:19.965Z</time></trkpt><trkpt lat="44.4093038" lon="10.7748618"><ele>745.0</ele><time>2026-04-18T08:46:21.965Z</time></trkpt><trkpt lat="44.4092828" lon="10.7747078"><ele>745.0</ele><time>2026-04-18T08:46:23.965Z</time></trkpt><trkpt lat="44.4092709" lon="10.7746172"><ele>743.4</ele><time>2026-04-18T08:46:24.965Z</time></trkpt><trkpt lat="44.4092565" lon="10.7745265"><ele>741.8</ele><time>2026-04-18T08:46:25.965Z</time></trkpt><trkpt lat="44.4092413" lon="10.77436"><ele>740.2</ele><time>2026-04-18T08:46:27.964Z</time></trkpt><trkpt lat="44.4092791" lon="10.774219"><ele>738.6</ele><time>2026-04-18T08:46:29.964Z</time></trkpt><trkpt lat="44.4093144" lon="10.7740927"><ele>737.0</ele><time>2026-04-18T08:46:31.964Z</time></trkpt><trkpt lat="44.4093106" lon="10.7739816"><ele>735.3333333333333</ele><time>2026-04-18T08:46:33.964Z</time></trkpt><trkpt lat="44.4092945" lon="10.7738835"><ele>733.6666666666666</ele><time>2026-04-18T08:46:35.965Z</time></trkpt><trkpt lat="44.4092822" lon="10.7737746"><ele>732.0</ele><time>2026-04-18T08:46:38.965Z</time></trkpt><trkpt lat="44.4092716" lon="10.773659"><ele>730.3333333333334</ele><time>2026-04-18T08:46:42.965Z</time></trkpt><trkpt lat="44.4092762" lon="10.773555"><ele>728.6666666666667</ele><time>2026-04-18T08:46:46.964Z</time></trkpt><trkpt lat="44.4092883" lon="10.7734644"><ele>727.0</ele><time>2026-04-18T08:46:49.964Z</time></trkpt><trkpt lat="44.4092656" lon="10.7733566"><ele>724.6666666666667</ele><time>2026-04-18T08:46:52.964Z</time></trkpt><trkpt lat="44.4092488" lon="10.773226"><ele>722.3333333333334</ele><time>2026-04-18T08:46:55.964Z</time></trkpt><trkpt lat="44.4092503" lon="10.7731184"><ele>720.0</ele><time>2026-04-18T08:46:57.965Z</time></trkpt><trkpt lat="44.4092537" lon="10.7730175"><ele>717.6666666666666</ele><time>2026-04-18T08:46:59.965Z</time></trkpt><trkpt lat="44.4092463" lon="10.7729233"><ele>715.3333333333333</ele><time>2026-04-18T08:47:01.965Z</time></trkpt><trkpt lat="44.4092138" lon="10.7728282"><ele>713.0</ele><time>2026-04-18T08:47:03.965Z</time></trkpt><trkpt lat="44.4091655" lon="10.7727428"><ele>711.0</ele><time>2026-04-18T08:47:05.965Z</time></trkpt><trkpt lat="44.4091145" lon="10.7726577"><ele>709.0</ele><time>2026-04-18T08:47:07.964Z</time></trkpt><trkpt lat="44.4090739" lon="10.7725702"><ele>707.0</ele><time>2026-04-18T08:47:09.964Z</time></trkpt><trkpt lat="44.4090433" lon="10.7724658"><ele>705.0</ele><time>2026-04-18T08:47:11.965Z</time></trkpt><trkpt lat="44.4090086" lon="10.7723438"><ele>703.0</ele><time>2026-04-18T08:47:13.964Z</time></trkpt><trkpt lat="44.4089504" lon="10.7722427"><ele>701.0</ele><time>2026-04-18T08:47:15.964Z</time></trkpt><trkpt lat="44.4088674" lon="10.7721383"><ele>699.6666666666666</ele><time>2026-04-18T08:47:17.964Z</time></trkpt><trkpt lat="44.4087994" lon="10.7720323"><ele>698.3333333333333</ele><time>2026-04-18T08:47:19.965Z</time></trkpt><trkpt lat="44.4087347" lon="10.7719805"><ele>697.0</ele><time>2026-04-18T08:47:21.965Z</time></trkpt><trkpt lat="44.408668" lon="10.772001"><ele>695.6666666666666</ele><time>2026-04-18T08:47:23.964Z</time></trkpt><trkpt lat="44.408563" lon="10.772043"><ele>694.3333333333334</ele><time>2026-04-18T08:47:25.965Z</time></trkpt><trkpt lat="44.4084993" lon="10.7720582"><ele>693.0</ele><time>2026-04-18T08:47:26.964Z</time></trkpt><trkpt lat="44.4083794" lon="10.7720717"><ele>693.0</ele><time>2026-04-18T08:47:28.965Z</time></trkpt><trkpt lat="44.4082752" lon="10.7721048"><ele>693.0</ele><time>2026-04-18T08:47:30.964Z</time></trkpt><trkpt lat="44.4081772" lon="10.7721489"><ele>693.0</ele><time>2026-04-18T08:47:32.964Z</time></trkpt><trkpt lat="44.4080833" lon="10.7721511"><ele>693.0</ele><time>2026-04-18T08:47:34.964Z</time></trkpt><trkpt lat="44.4080086" lon="10.7720729"><ele>693.0</ele><time>2026-04-18T08:47:36.964Z</time></trkpt><trkpt lat="44.4079646" lon="10.7719262"><ele>691.8571428571429</ele><time>2026-04-18T08:47:38.964Z</time></trkpt><trkpt lat="44.4079452" lon="10.771839"><ele>690.7142857142858</ele><time>2026-04-18T08:47:39.964Z</time></trkpt><trkpt lat="44.4079207" lon="10.7717454"><ele>689.5714285714286</ele><time>2026-04-18T08:47:40.965Z</time></trkpt><trkpt lat="44.4078986" lon="10.771651"><ele>688.4285714285714</ele><time>2026-04-18T08:47:41.964Z</time></trkpt><trkpt lat="44.4078749" lon="10.7715596"><ele>687.2857142857143</ele><time>2026-04-18T08:47:42.964Z</time></trkpt><trkpt lat="44.4078495" lon="10.7714657"><ele>686.1428571428571</ele><time>2026-04-18T08:47:43.965Z</time></trkpt><trkpt lat="44.4078272" lon="10.7713752"><ele>685.0</ele><time>2026-04-18T08:47:44.964Z</time></trkpt><trkpt lat="44.4077974" lon="10.771231"><ele>685.0</ele><time>2026-04-18T08:47:46.964Z</time></trkpt><trkpt lat="44.4077681" lon="10.7711184"><ele>685.0</ele><time>2026-04-18T08:47:48.964Z</time></trkpt><trkpt lat="44.4077274" lon="10.7710447"><ele>685.0</ele><time>2026-04-18T08:47:50.964Z</time></trkpt><trkpt lat="44.4076951" lon="10.7709543"><ele>685.0</ele><time>2026-04-18T08:47:52.965Z</time></trkpt><trkpt lat="44.4076787" lon="10.7708529"><ele>685.0</ele><time>2026-04-18T08:47:55.965Z</time></trkpt><trkpt lat="44.4076587" lon="10.7707636"><ele>685.0</ele><time>2026-04-18T08:47:57.964Z</time></trkpt><trkpt lat="44.4076085" lon="10.7706558"><ele>683.0</ele><time>2026-04-18T08:47:59.964Z</time></trkpt><trkpt lat="44.4075646" lon="10.7705308"><ele>681.0</ele><time>2026-04-18T08:48:01.964Z</time></trkpt><trkpt lat="44.4075057" lon="10.7703843"><ele>679.0</ele><time>2026-04-18T08:48:03.965Z</time></trkpt><trkpt lat="44.4074217" lon="10.7702542"><ele>677.0</ele><time>2026-04-18T08:48:05.964Z</time></trkpt><trkpt lat="44.4073412" lon="10.7701254"><ele>675.5</ele><time>2026-04-18T08:48:07.965Z</time></trkpt><trkpt lat="44.4072677" lon="10.7699929"><ele>674.0</ele><time>2026-04-18T08:48:09.965Z</time></trkpt><trkpt lat="44.4072002" lon="10.7698712"><ele>672.5</ele><time>2026-04-18T08:48:11.965Z</time></trkpt><trkpt lat="44.407113" lon="10.7697605"><ele>671.0</ele><time>2026-04-18T08:48:13.965Z</time></trkpt><trkpt lat="44.4070173" lon="10.7696644"><ele>674.0</ele><time>2026-04-18T08:48:15.964Z</time></trkpt><trkpt lat="44.4069161" lon="10.7695972"><ele>677.0</ele><time>2026-04-18T08:48:17.964Z</time></trkpt><trkpt lat="44.4068268" lon="10.769552"><ele>680.0</ele><time>2026-04-18T08:48:19.964Z</time></trkpt><trkpt lat="44.4067397" lon="10.7695478"><ele>683.0</ele><time>2026-04-18T08:48:21.964Z</time></trkpt><trkpt lat="44.406668" lon="10.7695761"><ele>686.0</ele><time>2026-04-18T08:48:23.965Z</time></trkpt><trkpt lat="44.4065702" lon="10.7696178"><ele>686.0</ele><time>2026-04-18T08:48:25.964Z</time></trkpt><trkpt lat="44.4064509" lon="10.7696534"><ele>686.0</ele><time>2026-04-18T08:48:27.964Z</time></trkpt><trkpt lat="44.406386" lon="10.7696794"><ele>686.0</ele><time>2026-04-18T08:48:28.964Z</time></trkpt><trkpt lat="44.4063171" lon="10.7696973"><ele>686.0</ele><time>2026-04-18T08:48:29.965Z</time></trkpt><trkpt lat="44.406249" lon="10.7697144"><ele>686.0</ele><time>2026-04-18T08:48:30.965Z</time></trkpt><trkpt lat="44.4061768" lon="10.7697373"><ele>686.0</ele><time>2026-04-18T08:48:31.965Z</time></trkpt><trkpt lat="44.4061103" lon="10.7697561"><ele>685.8571428571429</ele><time>2026-04-18T08:48:32.964Z</time></trkpt><trkpt lat="44.4060395" lon="10.7697779"><ele>685.7142857142858</ele><time>2026-04-18T08:48:33.964Z</time></trkpt><trkpt lat="44.4059736" lon="10.769793"><ele>685.5714285714286</ele><time>2026-04-18T08:48:34.965Z</time></trkpt><trkpt lat="44.4059073" lon="10.7698135"><ele>685.4285714285714</ele><time>2026-04-18T08:48:35.964Z</time></trkpt><trkpt lat="44.4058178" lon="10.7698718"><ele>685.2857142857143</ele><time>2026-04-18T08:48:37.965Z</time></trkpt><trkpt lat="44.4057507" lon="10.7698909"><ele>685.1428571428571</ele><time>2026-04-18T08:48:39.964Z</time></trkpt><trkpt lat="44.4056861" lon="10.7698481"><ele>685.0</ele><time>2026-04-18T08:48:41.965Z</time></trkpt><trkpt lat="44.4055861" lon="10.7697506"><ele>688.2</ele><time>2026-04-18T08:48:43.964Z</time></trkpt><trkpt lat="44.4054678" lon="10.7697041"><ele>691.4</ele><time>2026-04-18T08:48:45.964Z</time></trkpt><trkpt lat="44.4054021" lon="10.7696743"><ele>694.5999999999999</ele><time>2026-04-18T08:48:46.964Z</time></trkpt><trkpt lat="44.4053361" lon="10.7696516"><ele>697.8</ele><time>2026-04-18T08:48:47.964Z</time></trkpt><trkpt lat="44.4052084" lon="10.769651"><ele>701.0</ele><time>2026-04-18T08:48:49.964Z</time></trkpt><trkpt lat="44.4050905" lon="10.7696482"><ele>701.0</ele><time>2026-04-18T08:48:51.965Z</time></trkpt><trkpt lat="44.4050302" lon="10.769618"><ele>701.0</ele><time>2026-04-18T08:48:52.964Z</time></trkpt><trkpt lat="44.4049649" lon="10.7695479"><ele>701.0</ele><time>2026-04-18T08:48:53.964Z</time></trkpt><trkpt lat="44.4049049" lon="10.7694705"><ele>701.0</ele><time>2026-04-18T08:48:54.964Z</time></trkpt><trkpt lat="44.4048507" lon="10.7693982"><ele>701.0</ele><time>2026-04-18T08:48:55.964Z</time></trkpt><trkpt lat="44.4047995" lon="10.7693274"><ele>701.0</ele><time>2026-04-18T08:48:56.965Z</time></trkpt><trkpt lat="44.4047452" lon="10.7692634"><ele>701.0</ele><time>2026-04-18T08:48:57.965Z</time></trkpt><trkpt lat="44.4046926" lon="10.7691985"><ele>699.1999999999999</ele><time>2026-04-18T08:48:58.965Z</time></trkpt><trkpt lat="44.4046115" lon="10.7690695"><ele>697.4</ele><time>2026-04-18T08:49:00.965Z</time></trkpt><trkpt lat="44.4045729" lon="10.7689981"><ele>695.6</ele><time>2026-04-18T08:49:01.964Z</time></trkpt><trkpt lat="44.4045343" lon="10.7689232"><ele>693.8</ele><time>2026-04-18T08:49:02.964Z</time></trkpt><trkpt lat="44.4044445" lon="10.7688256"><ele>692.0</ele><time>2026-04-18T08:49:04.964Z</time></trkpt><trkpt lat="44.4043548" lon="10.7687718"><ele>692.0</ele><time>2026-04-18T08:49:06.965Z</time></trkpt><trkpt lat="44.404268" lon="10.7687349"><ele>692.0</ele><time>2026-04-18T08:49:08.965Z</time></trkpt><trkpt lat="44.4041833" lon="10.768672"><ele>692.0</ele><time>2026-04-18T08:49:10.964Z</time></trkpt><trkpt lat="44.4040764" lon="10.7685769"><ele>692.0</ele><time>2026-04-18T08:49:12.965Z</time></trkpt><trkpt lat="44.4040225" lon="10.768526"><ele>692.0</ele><time>2026-04-18T08:49:13.964Z</time></trkpt><trkpt lat="44.403973" lon="10.7684622"><ele>692.0</ele><time>2026-04-18T08:49:14.965Z</time></trkpt><trkpt lat="44.4039221" lon="10.7684068"><ele>690.1666666666666</ele><time>2026-04-18T08:49:15.965Z</time></trkpt><trkpt lat="44.4038566" lon="10.7683481"><ele>688.3333333333333</ele><time>2026-04-18T08:49:17.965Z</time></trkpt><trkpt lat="44.4037793" lon="10.7683336"><ele>686.5</ele><time>2026-04-18T08:53:15.964Z</time></trkpt><trkpt lat="44.4037035" lon="10.76833"><ele>684.6666666666666</ele><time>2026-04-18T08:53:19.964Z</time></trkpt><trkpt lat="44.4036367" lon="10.7683202"><ele>682.8333333333334</ele><time>2026-04-18T08:53:22.964Z</time></trkpt><trkpt lat="44.4035628" lon="10.7683079"><ele>681.0</ele><time>2026-04-18T08:53:25.965Z</time></trkpt><trkpt lat="44.4034834" lon="10.7682977"><ele>681.0</ele><time>2026-04-18T08:53:29.965Z</time></trkpt><trkpt lat="44.4033993" lon="10.7682851"><ele>681.0</ele><time>2026-04-18T08:53:33.964Z</time></trkpt><trkpt lat="44.4033144" lon="10.7682741"><ele>681.0</ele><time>2026-04-18T08:53:37.964Z</time></trkpt><trkpt lat="44.4032142" lon="10.7682571"><ele>681.0</ele><time>2026-04-18T08:53:40.965Z</time></trkpt><trkpt lat="44.4031414" lon="10.7682604"><ele>681.0</ele><time>2026-04-18T08:53:42.964Z</time></trkpt><trkpt lat="44.4030552" lon="10.7682616"><ele>681.0</ele><time>2026-04-18T08:53:45.964Z</time></trkpt><trkpt lat="44.4029873" lon="10.7682576"><ele>681.0000000000001</ele><time>2026-04-18T08:53:48.964Z</time></trkpt><trkpt lat="44.4029581" lon="10.768176"><ele>681.0</ele><time>2026-04-18T08:57:13.964Z</time></trkpt><trkpt lat="44.4030012" lon="10.7681005"><ele>681.0</ele><time>2026-04-18T08:57:16.964Z</time></trkpt><trkpt lat="44.4030345" lon="10.7679944"><ele>681.0</ele><time>2026-04-18T08:57:19.965Z</time></trkpt><trkpt lat="44.4030147" lon="10.7679095"><ele>681.0</ele><time>2026-04-18T08:57:21.965Z</time></trkpt><trkpt lat="44.4029294" lon="10.7678807"><ele>681.0000000000001</ele><time>2026-04-18T08:57:24.965Z</time></trkpt><trkpt lat="44.402994" lon="10.7678976"><ele>681.0</ele><time>2026-04-18T09:00:17.965Z</time></trkpt><trkpt lat="44.4030443" lon="10.7679522"><ele>681.0000000000001</ele><time>2026-04-18T09:02:19.964Z</time></trkpt><trkpt lat="44.4030598" lon="10.768038"><ele>681.0</ele><time>2026-04-18T09:02:30.965Z</time></trkpt><trkpt lat="44.4030298" lon="10.7679447"><ele>681.0</ele><time>2026-04-18T09:02:43.964Z</time></trkpt><trkpt lat="44.4030139" lon="10.7678564"><ele>681.0</ele><time>2026-04-18T09:02:48.965Z</time></trkpt><trkpt lat="44.4030479" lon="10.7679483"><ele>681.0</ele><time>2026-04-18T09:04:33.964Z</time></trkpt><trkpt lat="44.4030562" lon="10.7680543"><ele>681.0000000000001</ele><time>2026-04-18T09:04:36.964Z</time></trkpt><trkpt lat="44.4030064" lon="10.7681148"><ele>681.0</ele><time>2026-04-18T09:04:40.964Z</time></trkpt><trkpt lat="44.4030357" lon="10.767996"><ele>681.0000000000001</ele><time>2026-04-18T09:06:30.964Z</time></trkpt><trkpt lat="44.4030074" lon="10.7679091"><ele>681.0</ele><time>2026-04-18T09:06:32.965Z</time></trkpt><trkpt lat="44.4029461" lon="10.7678844"><ele>681.0</ele><time>2026-04-18T09:06:34.964Z</time></trkpt><trkpt lat="44.4028791" lon="10.7679015"><ele>681.0</ele><time>2026-04-18T09:06:38.965Z</time></trkpt><trkpt lat="44.4028049" lon="10.7679027"><ele>681.0</ele><time>2026-04-18T09:12:22.965Z</time></trkpt><trkpt lat="44.4027333" lon="10.7678736"><ele>681.0000000000001</ele><time>2026-04-18T09:12:34.964Z</time></trkpt><trkpt lat="44.4026664" lon="10.7679153"><ele>681.0</ele><time>2026-04-18T09:12:51.964Z</time></trkpt><trkpt lat="44.4025957" lon="10.7679447"><ele>682.8333333333334</ele><time>2026-04-18T09:12:56.965Z</time></trkpt><trkpt lat="44.4025187" lon="10.7679782"><ele>684.6666666666666</ele><time>2026-04-18T09:12:59.964Z</time></trkpt><trkpt lat="44.4024526" lon="10.767975"><ele>686.5</ele><time>2026-04-18T09:13:01.964Z</time></trkpt><trkpt lat="44.4023537" lon="10.7679125"><ele>688.3333333333333</ele><time>2026-04-18T09:13:03.965Z</time></trkpt><trkpt lat="44.4022585" lon="10.7678544"><ele>690.1666666666666</ele><time>2026-04-18T09:13:05.964Z</time></trkpt><trkpt lat="44.402192" lon="10.7677937"><ele>692.0</ele><time>2026-04-18T09:13:08.965Z</time></trkpt><trkpt lat="44.4021222" lon="10.7676981"><ele>694.1666666666666</ele><time>2026-04-18T09:13:11.965Z</time></trkpt><trkpt lat="44.4020847" lon="10.767581"><ele>696.3333333333333</ele><time>2026-04-18T09:13:13.965Z</time></trkpt><trkpt lat="44.4020346" lon="10.7674887"><ele>698.5</ele><time>2026-04-18T09:13:15.964Z</time></trkpt><trkpt lat="44.4019971" lon="10.7673758"><ele>700.6666666666666</ele><time>2026-04-18T09:13:17.964Z</time></trkpt><trkpt lat="44.4019605" lon="10.7672649"><ele>702.8333333333334</ele><time>2026-04-18T09:13:19.965Z</time></trkpt><trkpt lat="44.4019492" lon="10.7671401"><ele>705.0</ele><time>2026-04-18T09:13:21.964Z</time></trkpt><trkpt lat="44.4019507" lon="10.7669901"><ele>706.8333333333334</ele><time>2026-04-18T09:13:23.964Z</time></trkpt><trkpt lat="44.4019495" lon="10.7668557"><ele>708.6666666666666</ele><time>2026-04-18T09:13:25.964Z</time></trkpt><trkpt lat="44.4019405" lon="10.7667285"><ele>710.5</ele><time>2026-04-18T09:13:27.964Z</time></trkpt><trkpt lat="44.4019291" lon="10.7666117"><ele>712.3333333333333</ele><time>2026-04-18T09:13:29.964Z</time></trkpt><trkpt lat="44.4019269" lon="10.7664902"><ele>714.1666666666666</ele><time>2026-04-18T09:13:31.964Z</time></trkpt><trkpt lat="44.4019438" lon="10.7663802"><ele>716.0</ele><time>2026-04-18T09:13:33.965Z</time></trkpt><trkpt lat="44.4019666" lon="10.7662699"><ele>716.0</ele><time>2026-04-18T09:13:35.964Z</time></trkpt><trkpt lat="44.401991" lon="10.7661513"><ele>716.0</ele><time>2026-04-18T09:13:37.964Z</time></trkpt><trkpt lat="44.401985" lon="10.7660552"><ele>716.0</ele><time>2026-04-18T09:13:39.965Z</time></trkpt><trkpt lat="44.4019529" lon="10.7659551"><ele>716.0</ele><time>2026-04-18T09:13:41.965Z</time></trkpt><trkpt lat="44.4019181" lon="10.7658505"><ele>716.0</ele><time>2026-04-18T09:13:43.965Z</time></trkpt><trkpt lat="44.4018779" lon="10.765762"><ele>716.0</ele><time>2026-04-18T09:17:52.964Z</time></trkpt><trkpt lat="44.401792" lon="10.7657771"><ele>715.5999999999999</ele><time>2026-04-18T09:17:55.964Z</time></trkpt><trkpt lat="44.4017248" lon="10.7657508"><ele>715.2</ele><time>2026-04-18T09:17:59.964Z</time></trkpt><trkpt lat="44.4017357" lon="10.765638"><ele>714.8</ele><time>2026-04-18T09:18:02.965Z</time></trkpt><trkpt lat="44.4017231" lon="10.7655084"><ele>714.4000000000001</ele><time>2026-04-18T09:18:04.964Z</time></trkpt><trkpt lat="44.4016989" lon="10.7653631"><ele>714.0</ele><time>2026-04-18T09:18:06.964Z</time></trkpt><trkpt lat="44.4016666" lon="10.7651924"><ele>714.0</ele><time>2026-04-18T09:18:08.965Z</time></trkpt><trkpt lat="44.401647" lon="10.7650974"><ele>714.0</ele><time>2026-04-18T09:18:09.965Z</time></trkpt><trkpt lat="44.4016237" lon="10.7649945"><ele>714.0</ele><time>2026-04-18T09:18:10.964Z</time></trkpt><trkpt lat="44.4015902" lon="10.7648784"><ele>714.0</ele><time>2026-04-18T09:18:11.964Z</time></trkpt><trkpt lat="44.4015608" lon="10.7647699"><ele>714.0</ele><time>2026-04-18T09:18:12.964Z</time></trkpt><trkpt lat="44.4015288" lon="10.7646627"><ele>714.0</ele><time>2026-04-18T09:18:13.965Z</time></trkpt><trkpt lat="44.4015022" lon="10.7645604"><ele>714.0</ele><time>2026-04-18T09:18:14.965Z</time></trkpt><trkpt lat="44.4014825" lon="10.764454"><ele>714.0</ele><time>2026-04-18T09:18:15.965Z</time></trkpt><trkpt lat="44.4014696" lon="10.764342"><ele>714.0</ele><time>2026-04-18T09:18:16.964Z</time></trkpt><trkpt lat="44.4014683" lon="10.7642291"><ele>714.0</ele><time>2026-04-18T09:18:17.964Z</time></trkpt><trkpt lat="44.4014748" lon="10.7641313"><ele>714.0</ele><time>2026-04-18T09:18:18.964Z</time></trkpt><trkpt lat="44.4014712" lon="10.7640252"><ele>714.0</ele><time>2026-04-18T09:18:19.965Z</time></trkpt><trkpt lat="44.4014507" lon="10.763913"><ele>712.1666666666666</ele><time>2026-04-18T09:18:20.965Z</time></trkpt><trkpt lat="44.4014371" lon="10.7638058"><ele>710.3333333333334</ele><time>2026-04-18T09:18:21.965Z</time></trkpt><trkpt lat="44.4014237" lon="10.7636941"><ele>708.5</ele><time>2026-04-18T09:18:22.964Z</time></trkpt><trkpt lat="44.4014097" lon="10.7635885"><ele>706.6666666666667</ele><time>2026-04-18T09:18:23.965Z</time></trkpt><trkpt lat="44.4013968" lon="10.7634883"><ele>704.8333333333334</ele><time>2026-04-18T09:18:24.964Z</time></trkpt><trkpt lat="44.401374" lon="10.7633902"><ele>703.0</ele><time>2026-04-18T09:18:25.964Z</time></trkpt><trkpt lat="44.4013395" lon="10.7632988"><ele>700.3333333333334</ele><time>2026-04-18T09:18:26.964Z</time></trkpt><trkpt lat="44.4012926" lon="10.7632074"><ele>697.6666666666667</ele><time>2026-04-18T09:18:27.964Z</time></trkpt><trkpt lat="44.4012431" lon="10.7631249"><ele>695.0</ele><time>2026-04-18T09:18:28.964Z</time></trkpt><trkpt lat="44.4011974" lon="10.7630345"><ele>692.3333333333334</ele><time>2026-04-18T09:18:29.964Z</time></trkpt><trkpt lat="44.4011657" lon="10.762942"><ele>689.6666666666666</ele><time>2026-04-18T09:18:30.964Z</time></trkpt><trkpt lat="44.4011524" lon="10.7628411"><ele>687.0</ele><time>2026-04-18T09:18:31.964Z</time></trkpt><trkpt lat="44.4011433" lon="10.7627325"><ele>686.0</ele><time>2026-04-18T09:18:32.964Z</time></trkpt><trkpt lat="44.4011343" lon="10.7626304"><ele>685.0</ele><time>2026-04-18T09:18:33.964Z</time></trkpt><trkpt lat="44.4011158" lon="10.7625353"><ele>684.0</ele><time>2026-04-18T09:18:34.965Z</time></trkpt><trkpt lat="44.4011009" lon="10.7624368"><ele>683.0</ele><time>2026-04-18T09:18:35.965Z</time></trkpt><trkpt lat="44.401089" lon="10.7623361"><ele>682.0</ele><time>2026-04-18T09:18:36.965Z</time></trkpt><trkpt lat="44.4010724" lon="10.7622445"><ele>681.0</ele><time>2026-04-18T09:18:37.965Z</time></trkpt><trkpt lat="44.4010611" lon="10.7621517"><ele>680.0</ele><time>2026-04-18T09:18:38.965Z</time></trkpt><trkpt lat="44.4010486" lon="10.7620627"><ele>680.0</ele><time>2026-04-18T09:18:39.965Z</time></trkpt><trkpt lat="44.4010404" lon="10.7619674"><ele>680.0</ele><time>2026-04-18T09:18:40.964Z</time></trkpt><trkpt lat="44.4010306" lon="10.761872"><ele>680.0</ele><time>2026-04-18T09:18:41.965Z</time></trkpt><trkpt lat="44.4010236" lon="10.7617731"><ele>680.0</ele><time>2026-04-18T09:18:42.964Z</time></trkpt><trkpt lat="44.4010134" lon="10.7616761"><ele>680.0</ele><time>2026-04-18T09:18:43.965Z</time></trkpt><trkpt lat="44.4009925" lon="10.7615837"><ele>680.0</ele><time>2026-04-18T09:18:44.965Z</time></trkpt><trkpt lat="44.4009761" lon="10.7614867"><ele>680.0</ele><time>2026-04-18T09:18:45.964Z</time></trkpt><trkpt lat="44.4009634" lon="10.7613895"><ele>678.8571428571429</ele><time>2026-04-18T09:18:46.964Z</time></trkpt><trkpt lat="44.4009536" lon="10.7612985"><ele>677.7142857142857</ele><time>2026-04-18T09:18:47.964Z</time></trkpt><trkpt lat="44.4009394" lon="10.7612076"><ele>676.5714285714286</ele><time>2026-04-18T09:18:48.964Z</time></trkpt><trkpt lat="44.4009295" lon="10.7611158"><ele>675.4285714285714</ele><time>2026-04-18T09:18:49.965Z</time></trkpt><trkpt lat="44.4009199" lon="10.7610192"><ele>674.2857142857142</ele><time>2026-04-18T09:18:50.964Z</time></trkpt><trkpt lat="44.4009178" lon="10.7609272"><ele>673.1428571428571</ele><time>2026-04-18T09:18:51.964Z</time></trkpt><trkpt lat="44.4009191" lon="10.7607673"><ele>672.0</ele><time>2026-04-18T09:18:53.965Z</time></trkpt><trkpt lat="44.4008726" lon="10.7606525"><ele>670.4000000000001</ele><time>2026-04-18T09:18:55.964Z</time></trkpt><trkpt lat="44.4007794" lon="10.7605542"><ele>668.8000000000001</ele><time>2026-04-18T09:18:57.964Z</time></trkpt><trkpt lat="44.4006786" lon="10.7604988"><ele>667.2</ele><time>2026-04-18T09:18:59.964Z</time></trkpt><trkpt lat="44.4006038" lon="10.760389"><ele>665.6</ele><time>2026-04-18T09:19:01.965Z</time></trkpt><trkpt lat="44.4005549" lon="10.7602974"><ele>664.0</ele><time>2026-04-18T09:19:03.965Z</time></trkpt><trkpt lat="44.4005088" lon="10.7602156"><ele>662.5</ele><time>2026-04-18T09:19:05.965Z</time></trkpt><trkpt lat="44.400443" lon="10.7601467"><ele>661.0</ele><time>2026-04-18T09:19:08.964Z</time></trkpt><trkpt lat="44.4003592" lon="10.7601299"><ele>659.5</ele><time>2026-04-18T09:19:10.964Z</time></trkpt><trkpt lat="44.4002959" lon="10.7601234"><ele>658.0</ele><time>2026-04-18T09:19:12.964Z</time></trkpt><trkpt lat="44.4002226" lon="10.7601086"><ele>656.5</ele><time>2026-04-18T09:19:20.965Z</time></trkpt><trkpt lat="44.4001353" lon="10.7600874"><ele>655.0</ele><time>2026-04-18T09:19:22.965Z</time></trkpt><trkpt lat="44.4000483" lon="10.7600601"><ele>655.0</ele><time>2026-04-18T09:19:24.965Z</time></trkpt><trkpt lat="44.3999701" lon="10.7600328"><ele>655.0</ele><time>2026-04-18T09:19:26.965Z</time></trkpt><trkpt lat="44.3998809" lon="10.7600025"><ele>655.0</ele><time>2026-04-18T09:19:28.965Z</time></trkpt><trkpt lat="44.3998085" lon="10.759964"><ele>655.0</ele><time>2026-04-18T09:19:30.964Z</time></trkpt><trkpt lat="44.3997811" lon="10.759836"><ele>655.0</ele><time>2026-04-18T09:19:32.964Z</time></trkpt><trkpt lat="44.3997761" lon="10.7596941"><ele>655.0</ele><time>2026-04-18T09:19:34.965Z</time></trkpt><trkpt lat="44.3997494" lon="10.7595872"><ele>655.0</ele><time>2026-04-18T09:19:36.964Z</time></trkpt><trkpt lat="44.3996866" lon="10.7595221"><ele>655.0</ele><time>2026-04-18T09:19:38.964Z</time></trkpt><trkpt lat="44.3996226" lon="10.7595018"><ele>655.0</ele><time>2026-04-18T09:19:41.964Z</time></trkpt><trkpt lat="44.3996855" lon="10.7595571"><ele>655.0</ele><time>2026-04-18T09:45:46.965Z</time></trkpt><trkpt lat="44.3997416" lon="10.7596054"><ele>655.0</ele><time>2026-04-18T09:45:54.965Z</time></trkpt><trkpt lat="44.399678" lon="10.7595643"><ele>655.0</ele><time>2026-04-18T09:57:14.964Z</time></trkpt><trkpt lat="44.3996147" lon="10.7595242"><ele>655.0</ele><time>2026-04-18T09:57:19.964Z</time></trkpt><trkpt lat="44.3995745" lon="10.7595939"><ele>655.0</ele><time>2026-04-18T10:00:58.964Z</time></trkpt><trkpt lat="44.3996059" lon="10.7597129"><ele>655.0</ele><time>2026-04-18T10:01:00.965Z</time></trkpt><trkpt lat="44.3996739" lon="10.7598169"><ele>655.0</ele><time>2026-04-18T10:01:02.964Z</time></trkpt><trkpt lat="44.3997397" lon="10.7598949"><ele>655.0</ele><time>2026-04-18T10:01:04.965Z</time></trkpt><trkpt lat="44.3997252" lon="10.7600268"><ele>655.0</ele><time>2026-04-18T10:01:06.964Z</time></trkpt><trkpt lat="44.3996884" lon="10.7601124"><ele>655.0</ele><time>2026-04-18T10:01:07.965Z</time></trkpt><trkpt lat="44.3996291" lon="10.7601869"><ele>656.2</ele><time>2026-04-18T10:01:08.964Z</time></trkpt><trkpt lat="44.3995683" lon="10.7602564"><ele>657.4</ele><time>2026-04-18T10:01:09.965Z</time></trkpt><trkpt lat="44.3994795" lon="10.7603037"><ele>658.5999999999999</ele><time>2026-04-18T10:01:10.965Z</time></trkpt><trkpt lat="44.3993929" lon="10.7603616"><ele>659.8</ele><time>2026-04-18T10:01:11.965Z</time></trkpt><trkpt lat="44.3993005" lon="10.760415"><ele>661.0</ele><time>2026-04-18T10:01:12.964Z</time></trkpt><trkpt lat="44.3992063" lon="10.7604633"><ele>661.0</ele><time>2026-04-18T10:01:13.965Z</time></trkpt><trkpt lat="44.399107" lon="10.7605162"><ele>661.0</ele><time>2026-04-18T10:01:14.964Z</time></trkpt><trkpt lat="44.3990041" lon="10.7605665"><ele>661.0</ele><time>2026-04-18T10:01:15.965Z</time></trkpt><trkpt lat="44.3988985" lon="10.7606155"><ele>661.0</ele><time>2026-04-18T10:01:16.965Z</time></trkpt><trkpt lat="44.398791" lon="10.7606419"><ele>661.0</ele><time>2026-04-18T10:01:17.964Z</time></trkpt><trkpt lat="44.3986839" lon="10.7606406"><ele>660.8</ele><time>2026-04-18T10:01:18.965Z</time></trkpt><trkpt lat="44.3985773" lon="10.7606187"><ele>660.5999999999999</ele><time>2026-04-18T10:01:19.964Z</time></trkpt><trkpt lat="44.3984702" lon="10.7605952"><ele>660.4</ele><time>2026-04-18T10:01:20.964Z</time></trkpt><trkpt lat="44.3983568" lon="10.7605685"><ele>660.2</ele><time>2026-04-18T10:01:21.965Z</time></trkpt><trkpt lat="44.3982436" lon="10.760549"><ele>660.0</ele><time>2026-04-18T10:01:22.964Z</time></trkpt><trkpt lat="44.3981249" lon="10.7605556"><ele>660.0</ele><time>2026-04-18T10:01:23.965Z</time></trkpt><trkpt lat="44.3980074" lon="10.7605952"><ele>660.0</ele><time>2026-04-18T10:01:24.964Z</time></trkpt><trkpt lat="44.397893" lon="10.7606552"><ele>660.0</ele><time>2026-04-18T10:01:25.965Z</time></trkpt><trkpt lat="44.3977799" lon="10.7607222"><ele>660.0</ele><time>2026-04-18T10:01:26.965Z</time></trkpt><trkpt lat="44.3976581" lon="10.7607707"><ele>660.75</ele><time>2026-04-18T10:01:27.965Z</time></trkpt><trkpt lat="44.3975323" lon="10.7607658"><ele>661.5</ele><time>2026-04-18T10:01:28.965Z</time></trkpt><trkpt lat="44.3974087" lon="10.7607334"><ele>662.25</ele><time>2026-04-18T10:01:29.965Z</time></trkpt><trkpt lat="44.3972895" lon="10.7606835"><ele>663.0</ele><time>2026-04-18T10:01:30.964Z</time></trkpt><trkpt lat="44.3971671" lon="10.7606126"><ele>663.75</ele><time>2026-04-18T10:01:31.965Z</time></trkpt><trkpt lat="44.3970625" lon="10.7605069"><ele>664.5</ele><time>2026-04-18T10:01:32.964Z</time></trkpt><trkpt lat="44.3969628" lon="10.7603855"><ele>665.25</ele><time>2026-04-18T10:01:33.964Z</time></trkpt><trkpt lat="44.3968576" lon="10.7602674"><ele>666.0</ele><time>2026-04-18T10:01:34.965Z</time></trkpt><trkpt lat="44.3967441" lon="10.760165"><ele>666.0</ele><time>2026-04-18T10:01:35.964Z</time></trkpt><trkpt lat="44.3966258" lon="10.7600782"><ele>666.0</ele><time>2026-04-18T10:01:36.965Z</time></trkpt><trkpt lat="44.3965064" lon="10.760003"><ele>666.0</ele><time>2026-04-18T10:01:37.964Z</time></trkpt><trkpt lat="44.3963803" lon="10.7599513"><ele>666.0</ele><time>2026-04-18T10:01:38.964Z</time></trkpt><trkpt lat="44.3962502" lon="10.7599299"><ele>668.25</ele><time>2026-04-18T10:01:39.964Z</time></trkpt><trkpt lat="44.3961148" lon="10.759915"><ele>670.5</ele><time>2026-04-18T10:01:40.965Z</time></trkpt><trkpt lat="44.3959791" lon="10.7599075"><ele>672.75</ele><time>2026-04-18T10:01:41.964Z</time></trkpt><trkpt lat="44.3958432" lon="10.7598906"><ele>675.0</ele><time>2026-04-18T10:01:42.964Z</time></trkpt><trkpt lat="44.3957168" lon="10.7598737"><ele>675.0</ele><time>2026-04-18T10:01:43.964Z</time></trkpt><trkpt lat="44.3956089" lon="10.7598568"><ele>675.0</ele><time>2026-04-18T10:01:44.965Z</time></trkpt><trkpt lat="44.3955141" lon="10.7598484"><ele>675.0</ele><time>2026-04-18T10:01:45.965Z</time></trkpt><trkpt lat="44.3954392" lon="10.7598591"><ele>675.0</ele><time>2026-04-18T10:01:46.965Z</time></trkpt><trkpt lat="44.3953864" lon="10.7599147"><ele>675.0</ele><time>2026-04-18T10:01:47.964Z</time></trkpt><trkpt lat="44.3953726" lon="10.7600043"><ele>675.0</ele><time>2026-04-18T10:01:48.964Z</time></trkpt><trkpt lat="44.3954067" lon="10.7600957"><ele>676.0</ele><time>2026-04-18T10:01:49.964Z</time></trkpt><trkpt lat="44.3954776" lon="10.7601591"><ele>677.0</ele><time>2026-04-18T10:01:50.964Z</time></trkpt><trkpt lat="44.3955758" lon="10.7602134"><ele>678.0</ele><time>2026-04-18T10:01:51.965Z</time></trkpt><trkpt lat="44.3956914" lon="10.7602733"><ele>679.0</ele><time>2026-04-18T10:01:52.964Z</time></trkpt><trkpt lat="44.3958108" lon="10.7603568"><ele>680.0</ele><time>2026-04-18T10:01:53.964Z</time></trkpt><trkpt lat="44.39593" lon="10.7604696"><ele>679.25</ele><time>2026-04-18T10:01:54.964Z</time></trkpt><trkpt lat="44.3960534" lon="10.7605881"><ele>678.5</ele><time>2026-04-18T10:01:55.964Z</time></trkpt><trkpt lat="44.3961795" lon="10.7607035"><ele>677.75</ele><time>2026-04-18T10:01:56.965Z</time></trkpt><trkpt lat="44.3963095" lon="10.7607998"><ele>677.0</ele><time>2026-04-18T10:01:57.964Z</time></trkpt><trkpt lat="44.3964305" lon="10.7608916"><ele>677.0</ele><time>2026-04-18T10:01:58.964Z</time></trkpt><trkpt lat="44.3964902" lon="10.7609904"><ele>677.0</ele><time>2026-04-18T10:01:59.965Z</time></trkpt><trkpt lat="44.3965237" lon="10.7611108"><ele>677.0</ele><time>2026-04-18T10:02:00.964Z</time></trkpt><trkpt lat="44.3965182" lon="10.7612209"><ele>677.0</ele><time>2026-04-18T10:02:01.964Z</time></trkpt><trkpt lat="44.3964866" lon="10.7613233"><ele>677.0</ele><time>2026-04-18T10:02:02.964Z</time></trkpt><trkpt lat="44.3964282" lon="10.7614252"><ele>677.0</ele><time>2026-04-18T10:02:03.964Z</time></trkpt><trkpt lat="44.3963501" lon="10.7614925"><ele>681.4000000000001</ele><time>2026-04-18T10:02:04.965Z</time></trkpt><trkpt lat="44.3962524" lon="10.7615061"><ele>685.8000000000001</ele><time>2026-04-18T10:02:05.964Z</time></trkpt><trkpt lat="44.396148" lon="10.7614755"><ele>690.2</ele><time>2026-04-18T10:02:06.964Z</time></trkpt><trkpt lat="44.3960399" lon="10.7614186"><ele>694.6</ele><time>2026-04-18T10:02:07.964Z</time></trkpt><trkpt lat="44.395929" lon="10.7613676"><ele>699.0</ele><time>2026-04-18T10:02:08.965Z</time></trkpt><trkpt lat="44.3958112" lon="10.7613402"><ele>699.0</ele><time>2026-04-18T10:02:09.964Z</time></trkpt><trkpt lat="44.3956962" lon="10.7613565"><ele>699.0</ele><time>2026-04-18T10:02:10.964Z</time></trkpt><trkpt lat="44.3955798" lon="10.761414"><ele>699.0</ele><time>2026-04-18T10:02:11.965Z</time></trkpt><trkpt lat="44.395459" lon="10.7614855"><ele>699.0</ele><time>2026-04-18T10:02:12.965Z</time></trkpt><trkpt lat="44.3953325" lon="10.761556"><ele>700.5</ele><time>2026-04-18T10:02:13.965Z</time></trkpt><trkpt lat="44.3951966" lon="10.7616003"><ele>702.0</ele><time>2026-04-18T10:02:14.964Z</time></trkpt><trkpt lat="44.3950622" lon="10.7616037"><ele>703.5</ele><time>2026-04-18T10:02:15.964Z</time></trkpt><trkpt lat="44.3949377" lon="10.7616074"><ele>705.0</ele><time>2026-04-18T10:02:16.964Z</time></trkpt><trkpt lat="44.3948259" lon="10.7616512"><ele>705.0</ele><time>2026-04-18T10:02:17.965Z</time></trkpt><trkpt lat="44.3947269" lon="10.7617418"><ele>705.0</ele><time>2026-04-18T10:02:18.964Z</time></trkpt><trkpt lat="44.3946469" lon="10.7618755"><ele>705.0</ele><time>2026-04-18T10:02:19.964Z</time></trkpt><trkpt lat="44.3945696" lon="10.7620169"><ele>705.0</ele><time>2026-04-18T10:02:20.965Z</time></trkpt><trkpt lat="44.3944835" lon="10.7621422"><ele>708.75</ele><time>2026-04-18T10:02:21.964Z</time></trkpt><trkpt lat="44.3943866" lon="10.762217"><ele>712.5</ele><time>2026-04-18T10:02:22.965Z</time></trkpt><trkpt lat="44.3942827" lon="10.7622391"><ele>716.25</ele><time>2026-04-18T10:02:23.965Z</time></trkpt><trkpt lat="44.3941641" lon="10.762198"><ele>720.0</ele><time>2026-04-18T10:02:24.965Z</time></trkpt><trkpt lat="44.3940357" lon="10.7621415"><ele>720.0</ele><time>2026-04-18T10:02:25.965Z</time></trkpt><trkpt lat="44.3939011" lon="10.7620669"><ele>720.0</ele><time>2026-04-18T10:02:26.965Z</time></trkpt><trkpt lat="44.3937692" lon="10.7619773"><ele>720.0</ele><time>2026-04-18T10:02:27.964Z</time></trkpt><trkpt lat="44.39363" lon="10.7618852"><ele>720.0</ele><time>2026-04-18T10:02:28.965Z</time></trkpt><trkpt lat="44.3934917" lon="10.7617879"><ele>719.0</ele><time>2026-04-18T10:02:29.964Z</time></trkpt><trkpt lat="44.3933566" lon="10.7616703"><ele>718.0</ele><time>2026-04-18T10:02:30.964Z</time></trkpt><trkpt lat="44.3932436" lon="10.7615208"><ele>717.0</ele><time>2026-04-18T10:02:31.964Z</time></trkpt><trkpt lat="44.3931457" lon="10.7613676"><ele>717.0</ele><time>2026-04-18T10:02:32.965Z</time></trkpt><trkpt lat="44.3930704" lon="10.7612332"><ele>717.0</ele><time>2026-04-18T10:02:33.964Z</time></trkpt><trkpt lat="44.3929917" lon="10.761112"><ele>717.0</ele><time>2026-04-18T10:02:34.964Z</time></trkpt><trkpt lat="44.3928873" lon="10.7610249"><ele>717.0</ele><time>2026-04-18T10:02:35.965Z</time></trkpt><trkpt lat="44.3927688" lon="10.7609537"><ele>718.0</ele><time>2026-04-18T10:02:36.964Z</time></trkpt><trkpt lat="44.3926553" lon="10.760882"><ele>719.0</ele><time>2026-04-18T10:02:37.964Z</time></trkpt><trkpt lat="44.3925433" lon="10.7608522"><ele>720.0</ele><time>2026-04-18T10:02:38.965Z</time></trkpt><trkpt lat="44.3924358" lon="10.7608852"><ele>721.0</ele><time>2026-04-18T10:02:39.964Z</time></trkpt><trkpt lat="44.3923285" lon="10.7609547"><ele>723.0</ele><time>2026-04-18T10:02:40.964Z</time></trkpt><trkpt lat="44.3922173" lon="10.7610462"><ele>725.0</ele><time>2026-04-18T10:02:41.964Z</time></trkpt><trkpt lat="44.3920964" lon="10.7611451"><ele>727.0</ele><time>2026-04-18T10:02:42.964Z</time></trkpt><trkpt lat="44.3919742" lon="10.7612524"><ele>729.0</ele><time>2026-04-18T10:02:43.964Z</time></trkpt><trkpt lat="44.3918605" lon="10.7613424"><ele>729.0</ele><time>2026-04-18T10:02:44.964Z</time></trkpt><trkpt lat="44.391741" lon="10.7614237"><ele>729.0</ele><time>2026-04-18T10:02:45.965Z</time></trkpt><trkpt lat="44.3915989" lon="10.7614689"><ele>729.0</ele><time>2026-04-18T10:02:46.964Z</time></trkpt><trkpt lat="44.3914605" lon="10.7615256"><ele>729.0</ele><time>2026-04-18T10:02:47.965Z</time></trkpt><trkpt lat="44.3913308" lon="10.7615881"><ele>729.8000000000001</ele><time>2026-04-18T10:02:48.965Z</time></trkpt><trkpt lat="44.3912172" lon="10.7616642"><ele>730.6</ele><time>2026-04-18T10:02:49.965Z</time></trkpt><trkpt lat="44.3911156" lon="10.7617385"><ele>731.4</ele><time>2026-04-18T10:02:50.965Z</time></trkpt><trkpt lat="44.3910198" lon="10.7617918"><ele>732.2</ele><time>2026-04-18T10:02:51.964Z</time></trkpt><trkpt lat="44.3909267" lon="10.7617867"><ele>733.0</ele><time>2026-04-18T10:02:52.965Z</time></trkpt><trkpt lat="44.3908525" lon="10.7617205"><ele>733.0</ele><time>2026-04-18T10:02:53.964Z</time></trkpt><trkpt lat="44.3907908" lon="10.7616114"><ele>733.0</ele><time>2026-04-18T10:02:54.964Z</time></trkpt><trkpt lat="44.3907328" lon="10.7614667"><ele>733.0</ele><time>2026-04-18T10:02:55.964Z</time></trkpt><trkpt lat="44.3906669" lon="10.7613085"><ele>733.0</ele><time>2026-04-18T10:02:56.965Z</time></trkpt><trkpt lat="44.3906029" lon="10.7611474"><ele>733.5999999999999</ele><time>2026-04-18T10:02:57.965Z</time></trkpt><trkpt lat="44.3905421" lon="10.7610139"><ele>734.1999999999999</ele><time>2026-04-18T10:02:58.965Z</time></trkpt><trkpt lat="44.3904696" lon="10.7609121"><ele>734.8</ele><time>2026-04-18T10:02:59.964Z</time></trkpt><trkpt lat="44.3903876" lon="10.7608616"><ele>735.4</ele><time>2026-04-18T10:03:00.965Z</time></trkpt><trkpt lat="44.3903063" lon="10.7608677"><ele>736.0</ele><time>2026-04-18T10:03:01.964Z</time></trkpt><trkpt lat="44.3902245" lon="10.7609093"><ele>737.8</ele><time>2026-04-18T10:03:02.964Z</time></trkpt><trkpt lat="44.3901393" lon="10.760969"><ele>739.5999999999999</ele><time>2026-04-18T10:03:03.964Z</time></trkpt><trkpt lat="44.3900508" lon="10.7610464"><ele>741.4</ele><time>2026-04-18T10:03:04.965Z</time></trkpt><trkpt lat="44.389958" lon="10.7611469"><ele>743.2</ele><time>2026-04-18T10:03:05.965Z</time></trkpt><trkpt lat="44.3898596" lon="10.76125"><ele>745.0</ele><time>2026-04-18T10:03:06.964Z</time></trkpt><trkpt lat="44.3897608" lon="10.7613432"><ele>747.25</ele><time>2026-04-18T10:03:07.965Z</time></trkpt><trkpt lat="44.3896597" lon="10.7614368"><ele>749.5</ele><time>2026-04-18T10:03:08.964Z</time></trkpt><trkpt lat="44.3895684" lon="10.761541"><ele>751.75</ele><time>2026-04-18T10:03:09.965Z</time></trkpt><trkpt lat="44.3894717" lon="10.7616516"><ele>754.0</ele><time>2026-04-18T10:03:10.964Z</time></trkpt><trkpt lat="44.3893674" lon="10.7617452"><ele>754.0</ele><time>2026-04-18T10:03:11.965Z</time></trkpt><trkpt lat="44.3892628" lon="10.7618351"><ele>754.0</ele><time>2026-04-18T10:03:12.964Z</time></trkpt><trkpt lat="44.3891685" lon="10.7619052"><ele>754.0</ele><time>2026-04-18T10:03:13.964Z</time></trkpt><trkpt lat="44.3890797" lon="10.7620048"><ele>754.0</ele><time>2026-04-18T10:03:14.964Z</time></trkpt><trkpt lat="44.3890131" lon="10.7621249"><ele>755.4000000000001</ele><time>2026-04-18T10:03:15.965Z</time></trkpt><trkpt lat="44.3889633" lon="10.7622544"><ele>756.8</ele><time>2026-04-18T10:03:16.964Z</time></trkpt><trkpt lat="44.3888893" lon="10.7623535"><ele>758.2</ele><time>2026-04-18T10:03:17.964Z</time></trkpt><trkpt lat="44.3887945" lon="10.7624298"><ele>759.5999999999999</ele><time>2026-04-18T10:03:18.964Z</time></trkpt><trkpt lat="44.3887151" lon="10.7625256"><ele>761.0</ele><time>2026-04-18T10:03:19.964Z</time></trkpt><trkpt lat="44.3886495" lon="10.7626516"><ele>764.5</ele><time>2026-04-18T10:03:20.965Z</time></trkpt><trkpt lat="44.3885815" lon="10.7627755"><ele>768.0</ele><time>2026-04-18T10:03:21.964Z</time></trkpt><trkpt lat="44.3884934" lon="10.7628766"><ele>771.5</ele><time>2026-04-18T10:03:22.964Z</time></trkpt><trkpt lat="44.3883951" lon="10.7629573"><ele>775.0</ele><time>2026-04-18T10:03:23.964Z</time></trkpt><trkpt lat="44.3882923" lon="10.7630283"><ele>775.0</ele><time>2026-04-18T10:03:24.964Z</time></trkpt><trkpt lat="44.3881803" lon="10.7630825"><ele>775.0</ele><time>2026-04-18T10:03:25.964Z</time></trkpt><trkpt lat="44.3880627" lon="10.7631326"><ele>775.0</ele><time>2026-04-18T10:03:26.964Z</time></trkpt><trkpt lat="44.3879504" lon="10.763183"><ele>775.0</ele><time>2026-04-18T10:03:27.965Z</time></trkpt><trkpt lat="44.3878436" lon="10.7632398"><ele>776.75</ele><time>2026-04-18T10:03:28.964Z</time></trkpt><trkpt lat="44.3877365" lon="10.7632845"><ele>778.5</ele><time>2026-04-18T10:03:29.965Z</time></trkpt><trkpt lat="44.3876219" lon="10.7633241"><ele>780.25</ele><time>2026-04-18T10:03:30.965Z</time></trkpt><trkpt lat="44.3875038" lon="10.7633473"><ele>782.0</ele><time>2026-04-18T10:03:31.964Z</time></trkpt><trkpt lat="44.3873798" lon="10.7633541"><ele>782.0</ele><time>2026-04-18T10:03:32.964Z</time></trkpt><trkpt lat="44.3872495" lon="10.7633521"><ele>782.0</ele><time>2026-04-18T10:03:33.964Z</time></trkpt><trkpt lat="44.3871195" lon="10.7633545"><ele>782.0</ele><time>2026-04-18T10:03:34.965Z</time></trkpt><trkpt lat="44.3869884" lon="10.7633564"><ele>782.0</ele><time>2026-04-18T10:03:35.965Z</time></trkpt><trkpt lat="44.3868726" lon="10.7633604"><ele>783.0</ele><time>2026-04-18T10:03:36.965Z</time></trkpt><trkpt lat="44.3867651" lon="10.7633663"><ele>784.0</ele><time>2026-04-18T10:03:37.964Z</time></trkpt><trkpt lat="44.3866568" lon="10.7633768"><ele>785.0</ele><time>2026-04-18T10:03:38.965Z</time></trkpt><trkpt lat="44.3865527" lon="10.7634068"><ele>786.0</ele><time>2026-04-18T10:03:39.965Z</time></trkpt><trkpt lat="44.3864673" lon="10.763455"><ele>787.0</ele><time>2026-04-18T10:03:40.965Z</time></trkpt><trkpt lat="44.3863923" lon="10.7635086"><ele>786.3333333333333</ele><time>2026-04-18T10:03:41.964Z</time></trkpt><trkpt lat="44.3863238" lon="10.7635571"><ele>785.6666666666666</ele><time>2026-04-18T10:03:42.964Z</time></trkpt><trkpt lat="44.3862656" lon="10.7635976"><ele>785.0</ele><time>2026-04-18T10:03:43.964Z</time></trkpt><trkpt lat="44.3861871" lon="10.7636665"><ele>784.3333333333333</ele><time>2026-04-18T10:03:45.964Z</time></trkpt><trkpt lat="44.3861903" lon="10.7637555"><ele>783.6666666666666</ele><time>2026-04-18T10:03:47.964Z</time></trkpt><trkpt lat="44.3862808" lon="10.7638189"><ele>783.0</ele><time>2026-04-18T10:03:49.964Z</time></trkpt><trkpt lat="44.3863887" lon="10.7638697"><ele>783.0</ele><time>2026-04-18T10:03:51.965Z</time></trkpt><trkpt lat="44.3864994" lon="10.7639263"><ele>783.0</ele><time>2026-04-18T10:03:53.965Z</time></trkpt><trkpt lat="44.3866025" lon="10.7640061"><ele>783.0</ele><time>2026-04-18T10:03:55.965Z</time></trkpt><trkpt lat="44.3866539" lon="10.7640588"><ele>783.0</ele><time>2026-04-18T10:03:56.965Z</time></trkpt><trkpt lat="44.3867024" lon="10.7641159"><ele>783.0</ele><time>2026-04-18T10:03:57.965Z</time></trkpt><trkpt lat="44.3867533" lon="10.7641744"><ele>783.0</ele><time>2026-04-18T10:03:58.965Z</time></trkpt><trkpt lat="44.3868359" lon="10.764301"><ele>781.3333333333334</ele><time>2026-04-18T10:04:00.965Z</time></trkpt><trkpt lat="44.3868807" lon="10.7643714"><ele>779.6666666666667</ele><time>2026-04-18T10:04:01.965Z</time></trkpt><trkpt lat="44.3869316" lon="10.7644466"><ele>778.0</ele><time>2026-04-18T10:04:02.965Z</time></trkpt><trkpt lat="44.3869835" lon="10.7645194"><ele>776.3333333333334</ele><time>2026-04-18T10:04:03.965Z</time></trkpt><trkpt lat="44.3870391" lon="10.7645968"><ele>774.6666666666667</ele><time>2026-04-18T10:04:04.964Z</time></trkpt><trkpt lat="44.3870896" lon="10.7646595"><ele>773.0</ele><time>2026-04-18T10:04:05.965Z</time></trkpt><trkpt lat="44.3871682" lon="10.7647907"><ele>773.0000000000001</ele><time>2026-04-18T10:04:07.965Z</time></trkpt><trkpt lat="44.3871929" lon="10.7649503"><ele>773.0</ele><time>2026-04-18T10:04:09.965Z</time></trkpt><trkpt lat="44.3871892" lon="10.7650447"><ele>773.0</ele><time>2026-04-18T10:04:10.965Z</time></trkpt><trkpt lat="44.3871762" lon="10.7651406"><ele>773.0</ele><time>2026-04-18T10:04:11.964Z</time></trkpt><trkpt lat="44.3871582" lon="10.7652391"><ele>773.0000000000001</ele><time>2026-04-18T10:04:12.965Z</time></trkpt><trkpt lat="44.3871307" lon="10.7653417"><ele>773.0</ele><time>2026-04-18T10:04:13.965Z</time></trkpt><trkpt lat="44.3870961" lon="10.7654361"><ele>772.1428571428571</ele><time>2026-04-18T10:04:14.965Z</time></trkpt><trkpt lat="44.3870694" lon="10.765521"><ele>771.2857142857142</ele><time>2026-04-18T10:04:15.965Z</time></trkpt><trkpt lat="44.387058" lon="10.7656078"><ele>770.4285714285714</ele><time>2026-04-18T10:04:16.964Z</time></trkpt><trkpt lat="44.3870571" lon="10.7657039"><ele>769.5714285714286</ele><time>2026-04-18T10:04:17.964Z</time></trkpt><trkpt lat="44.3870511" lon="10.7658073"><ele>768.7142857142858</ele><time>2026-04-18T10:04:18.965Z</time></trkpt><trkpt lat="44.3870434" lon="10.7659185"><ele>767.8571428571429</ele><time>2026-04-18T10:04:19.965Z</time></trkpt><trkpt lat="44.3870387" lon="10.7660252"><ele>767.0</ele><time>2026-04-18T10:04:20.964Z</time></trkpt><trkpt lat="44.3870363" lon="10.7661392"><ele>766.2857142857143</ele><time>2026-04-18T10:04:21.964Z</time></trkpt><trkpt lat="44.3870368" lon="10.7662564"><ele>765.5714285714287</ele><time>2026-04-18T10:04:22.965Z</time></trkpt><trkpt lat="44.3870363" lon="10.7663709"><ele>764.8571428571429</ele><time>2026-04-18T10:04:23.964Z</time></trkpt><trkpt lat="44.3870358" lon="10.7664765"><ele>764.1428571428571</ele><time>2026-04-18T10:04:24.964Z</time></trkpt><trkpt lat="44.3870334" lon="10.7665724"><ele>763.4285714285714</ele><time>2026-04-18T10:04:25.965Z</time></trkpt><trkpt lat="44.3870218" lon="10.7666648"><ele>762.7142857142857</ele><time>2026-04-18T10:04:26.964Z</time></trkpt><trkpt lat="44.387009" lon="10.7667549"><ele>762.0</ele><time>2026-04-18T10:04:27.964Z</time></trkpt><trkpt lat="44.3869935" lon="10.7668544"><ele>761.1666666666666</ele><time>2026-04-18T10:04:28.965Z</time></trkpt><trkpt lat="44.3869782" lon="10.7669572"><ele>760.3333333333334</ele><time>2026-04-18T10:04:29.964Z</time></trkpt><trkpt lat="44.3869698" lon="10.7670593"><ele>759.5</ele><time>2026-04-18T10:04:30.964Z</time></trkpt><trkpt lat="44.3869577" lon="10.7671567"><ele>758.6666666666667</ele><time>2026-04-18T10:04:31.964Z</time></trkpt><trkpt lat="44.3869531" lon="10.767323"><ele>757.8333333333334</ele><time>2026-04-18T10:04:33.964Z</time></trkpt><trkpt lat="44.3869737" lon="10.7674584"><ele>757.0</ele><time>2026-04-18T10:04:35.964Z</time></trkpt><trkpt lat="44.3870232" lon="10.7675481"><ele>757.0</ele><time>2026-04-18T10:04:38.965Z</time></trkpt><trkpt lat="44.3870304" lon="10.7676357"><ele>757.0</ele><time>2026-04-18T10:04:45.964Z</time></trkpt><trkpt lat="44.3869879" lon="10.7677072"><ele>757.0</ele><time>2026-04-18T10:04:48.964Z</time></trkpt><trkpt lat="44.3869132" lon="10.767816"><ele>757.0</ele><time>2026-04-18T10:04:50.965Z</time></trkpt><trkpt lat="44.3868628" lon="10.7678829"><ele>757.0</ele><time>2026-04-18T10:04:51.964Z</time></trkpt><trkpt lat="44.3868132" lon="10.7679498"><ele>757.0</ele><time>2026-04-18T10:04:52.965Z</time></trkpt><trkpt lat="44.3867664" lon="10.7680352"><ele>758.5</ele><time>2026-04-18T10:04:53.965Z</time></trkpt><trkpt lat="44.386723" lon="10.768124"><ele>760.0</ele><time>2026-04-18T10:04:54.964Z</time></trkpt><trkpt lat="44.3866775" lon="10.7682093"><ele>761.5</ele><time>2026-04-18T10:04:55.964Z</time></trkpt><trkpt lat="44.3866355" lon="10.7682949"><ele>763.0</ele><time>2026-04-18T10:04:56.965Z</time></trkpt><trkpt lat="44.386591" lon="10.7684075"><ele>764.5</ele><time>2026-04-18T10:04:57.965Z</time></trkpt><trkpt lat="44.3865588" lon="10.7685148"><ele>766.0</ele><time>2026-04-18T10:04:58.965Z</time></trkpt><trkpt lat="44.3865285" lon="10.7686224"><ele>767.3333333333334</ele><time>2026-04-18T10:04:59.964Z</time></trkpt><trkpt lat="44.3864995" lon="10.768705"><ele>768.6666666666667</ele><time>2026-04-18T10:05:00.965Z</time></trkpt><trkpt lat="44.3864082" lon="10.7687959"><ele>770.0</ele><time>2026-04-18T10:05:02.964Z</time></trkpt><trkpt lat="44.3863406" lon="10.7688157"><ele>771.3333333333334</ele><time>2026-04-18T10:05:03.964Z</time></trkpt><trkpt lat="44.3862644" lon="10.7688342"><ele>772.6666666666666</ele><time>2026-04-18T10:05:04.964Z</time></trkpt><trkpt lat="44.3861958" lon="10.7688484"><ele>774.0</ele><time>2026-04-18T10:05:05.964Z</time></trkpt><trkpt lat="44.3861339" lon="10.7688663"><ele>774.0</ele><time>2026-04-18T10:05:06.964Z</time></trkpt><trkpt lat="44.3860266" lon="10.7689332"><ele>774.0</ele><time>2026-04-18T10:05:08.964Z</time></trkpt><trkpt lat="44.3859593" lon="10.7690549"><ele>774.0</ele><time>2026-04-18T10:05:10.964Z</time></trkpt><trkpt lat="44.3859349" lon="10.7691758"><ele>774.0</ele><time>2026-04-18T10:05:12.965Z</time></trkpt><trkpt lat="44.3859708" lon="10.7692658"><ele>774.0</ele><time>2026-04-18T10:05:14.965Z</time></trkpt><trkpt lat="44.3860823" lon="10.769351"><ele>773.2</ele><time>2026-04-18T10:05:16.965Z</time></trkpt><trkpt lat="44.3861543" lon="10.7694039"><ele>772.4000000000001</ele><time>2026-04-18T10:05:17.964Z</time></trkpt><trkpt lat="44.3862302" lon="10.7694713"><ele>771.6</ele><time>2026-04-18T10:05:18.965Z</time></trkpt><trkpt lat="44.3863197" lon="10.7695402"><ele>770.8</ele><time>2026-04-18T10:05:19.965Z</time></trkpt><trkpt lat="44.3864215" lon="10.7696044"><ele>770.0</ele><time>2026-04-18T10:05:20.964Z</time></trkpt><trkpt lat="44.3865198" lon="10.7696637"><ele>772.75</ele><time>2026-04-18T10:05:21.964Z</time></trkpt><trkpt lat="44.3866248" lon="10.7697171"><ele>775.5</ele><time>2026-04-18T10:05:22.964Z</time></trkpt><trkpt lat="44.3867363" lon="10.7697685"><ele>778.25</ele><time>2026-04-18T10:05:23.965Z</time></trkpt><trkpt lat="44.3868511" lon="10.7698181"><ele>781.0</ele><time>2026-04-18T10:05:24.964Z</time></trkpt><trkpt lat="44.3869692" lon="10.7698741"><ele>781.0</ele><time>2026-04-18T10:05:25.965Z</time></trkpt><trkpt lat="44.387091" lon="10.7699364"><ele>781.0</ele><time>2026-04-18T10:05:26.965Z</time></trkpt><trkpt lat="44.3872131" lon="10.7700025"><ele>781.0</ele><time>2026-04-18T10:05:27.965Z</time></trkpt><trkpt lat="44.3873217" lon="10.770063"><ele>781.0</ele><time>2026-04-18T10:05:28.964Z</time></trkpt><trkpt lat="44.3874268" lon="10.7701222"><ele>781.0</ele><time>2026-04-18T10:05:29.965Z</time></trkpt><trkpt lat="44.3875356" lon="10.7701801"><ele>781.0</ele><time>2026-04-18T10:05:30.964Z</time></trkpt><trkpt lat="44.3876492" lon="10.7702264"><ele>781.0</ele><time>2026-04-18T10:05:31.964Z</time></trkpt><trkpt lat="44.3877698" lon="10.7702577"><ele>781.0</ele><time>2026-04-18T10:05:32.965Z</time></trkpt><trkpt lat="44.3878985" lon="10.770274"><ele>779.5</ele><time>2026-04-18T10:05:33.965Z</time></trkpt><trkpt lat="44.388029" lon="10.7702891"><ele>778.0</ele><time>2026-04-18T10:05:34.964Z</time></trkpt><trkpt lat="44.3881662" lon="10.7703091"><ele>776.5</ele><time>2026-04-18T10:05:35.965Z</time></trkpt><trkpt lat="44.38831" lon="10.7703343"><ele>775.0</ele><time>2026-04-18T10:05:36.964Z</time></trkpt><trkpt lat="44.3884547" lon="10.7703729"><ele>775.0</ele><time>2026-04-18T10:05:37.964Z</time></trkpt><trkpt lat="44.3885991" lon="10.7704283"><ele>775.0</ele><time>2026-04-18T10:05:38.964Z</time></trkpt><trkpt lat="44.388742" lon="10.7704984"><ele>775.0</ele><time>2026-04-18T10:05:39.964Z</time></trkpt><trkpt lat="44.3888827" lon="10.7705804"><ele>774.0</ele><time>2026-04-18T10:05:40.965Z</time></trkpt><trkpt lat="44.3890236" lon="10.7706762"><ele>773.0</ele><time>2026-04-18T10:05:41.965Z</time></trkpt><trkpt lat="44.3891624" lon="10.7707804"><ele>772.0</ele><time>2026-04-18T10:05:42.965Z</time></trkpt><trkpt lat="44.3893065" lon="10.7708918"><ele>772.0</ele><time>2026-04-18T10:05:43.965Z</time></trkpt><trkpt lat="44.3894538" lon="10.7710071"><ele>772.0</ele><time>2026-04-18T10:05:44.964Z</time></trkpt><trkpt lat="44.3896015" lon="10.7711295"><ele>772.0</ele><time>2026-04-18T10:05:45.964Z</time></trkpt><trkpt lat="44.3897495" lon="10.7712599"><ele>769.3333333333333</ele><time>2026-04-18T10:05:46.964Z</time></trkpt><trkpt lat="44.3899001" lon="10.7713951"><ele>766.6666666666666</ele><time>2026-04-18T10:05:47.965Z</time></trkpt><trkpt lat="44.3900457" lon="10.7715308"><ele>764.0</ele><time>2026-04-18T10:05:48.965Z</time></trkpt><trkpt lat="44.3901914" lon="10.7716703"><ele>764.0</ele><time>2026-04-18T10:05:49.965Z</time></trkpt><trkpt lat="44.390331" lon="10.7718139"><ele>764.0</ele><time>2026-04-18T10:05:50.965Z</time></trkpt><trkpt lat="44.3904656" lon="10.77197"><ele>764.0</ele><time>2026-04-18T10:05:51.964Z</time></trkpt><trkpt lat="44.3905843" lon="10.7721238"><ele>764.6666666666666</ele><time>2026-04-18T10:05:52.964Z</time></trkpt><trkpt lat="44.3906926" lon="10.7722758"><ele>765.3333333333334</ele><time>2026-04-18T10:05:53.964Z</time></trkpt><trkpt lat="44.3907937" lon="10.772429"><ele>766.0</ele><time>2026-04-18T10:05:54.964Z</time></trkpt><trkpt lat="44.3908919" lon="10.772585"><ele>766.6666666666667</ele><time>2026-04-18T10:05:55.964Z</time></trkpt><trkpt lat="44.3909942" lon="10.7727424"><ele>767.3333333333334</ele><time>2026-04-18T10:05:56.964Z</time></trkpt><trkpt lat="44.3911003" lon="10.7729"><ele>768.0</ele><time>2026-04-18T10:05:57.964Z</time></trkpt><trkpt lat="44.3912127" lon="10.7730611"><ele>768.0</ele><time>2026-04-18T10:05:58.965Z</time></trkpt><trkpt lat="44.3913246" lon="10.7732255"><ele>768.0</ele><time>2026-04-18T10:05:59.964Z</time></trkpt><trkpt lat="44.391432" lon="10.7733793"><ele>768.0</ele><time>2026-04-18T10:06:00.964Z</time></trkpt><trkpt lat="44.3915329" lon="10.7735162"><ele>768.4</ele><time>2026-04-18T10:06:01.964Z</time></trkpt><trkpt lat="44.391616" lon="10.7736338"><ele>768.8</ele><time>2026-04-18T10:06:02.964Z</time></trkpt><trkpt lat="44.3916725" lon="10.7737317"><ele>769.2</ele><time>2026-04-18T10:06:03.964Z</time></trkpt><trkpt lat="44.3917011" lon="10.7738336"><ele>769.6</ele><time>2026-04-18T10:06:04.965Z</time></trkpt><trkpt lat="44.3917018" lon="10.7739352"><ele>770.0</ele><time>2026-04-18T10:06:05.964Z</time></trkpt><trkpt lat="44.3916447" lon="10.7740404"><ele>770.0</ele><time>2026-04-18T10:06:06.964Z</time></trkpt><trkpt lat="44.3915928" lon="10.7741637"><ele>770.0</ele><time>2026-04-18T10:06:07.965Z</time></trkpt><trkpt lat="44.3915323" lon="10.7743016"><ele>770.0</ele><time>2026-04-18T10:06:08.964Z</time></trkpt><trkpt lat="44.3914709" lon="10.7744381"><ele>770.0</ele><time>2026-04-18T10:06:09.964Z</time></trkpt><trkpt lat="44.3914017" lon="10.7745879"><ele>770.0</ele><time>2026-04-18T10:06:10.965Z</time></trkpt><trkpt lat="44.3913385" lon="10.7747421"><ele>770.0</ele><time>2026-04-18T10:06:11.964Z</time></trkpt><trkpt lat="44.391266" lon="10.7748848"><ele>770.0</ele><time>2026-04-18T10:06:12.964Z</time></trkpt><trkpt lat="44.3911947" lon="10.7750223"><ele>770.0</ele><time>2026-04-18T10:06:13.965Z</time></trkpt><trkpt lat="44.3911411" lon="10.7751578"><ele>769.25</ele><time>2026-04-18T10:06:14.964Z</time></trkpt><trkpt lat="44.3910973" lon="10.7753182"><ele>768.5</ele><time>2026-04-18T10:06:15.965Z</time></trkpt><trkpt lat="44.3910638" lon="10.7754907"><ele>767.75</ele><time>2026-04-18T10:06:16.965Z</time></trkpt><trkpt lat="44.3910293" lon="10.7756575"><ele>767.0</ele><time>2026-04-18T10:06:17.964Z</time></trkpt><trkpt lat="44.3909968" lon="10.7758172"><ele>767.0</ele><time>2026-04-18T10:06:18.965Z</time></trkpt><trkpt lat="44.3909558" lon="10.7759743"><ele>767.0</ele><time>2026-04-18T10:06:19.965Z</time></trkpt><trkpt lat="44.3909061" lon="10.7761378"><ele>767.0</ele><time>2026-04-18T10:06:20.964Z</time></trkpt><trkpt lat="44.3908388" lon="10.7762969"><ele>767.0</ele><time>2026-04-18T10:06:21.965Z</time></trkpt><trkpt lat="44.3907667" lon="10.7764639"><ele>765.5</ele><time>2026-04-18T10:06:22.964Z</time></trkpt><trkpt lat="44.3906911" lon="10.7766218"><ele>764.0</ele><time>2026-04-18T10:06:23.964Z</time></trkpt><trkpt lat="44.3906259" lon="10.7767773"><ele>762.5</ele><time>2026-04-18T10:06:24.964Z</time></trkpt><trkpt lat="44.3905563" lon="10.7769312"><ele>761.0</ele><time>2026-04-18T10:06:25.965Z</time></trkpt><trkpt lat="44.3904846" lon="10.7770909"><ele>757.75</ele><time>2026-04-18T10:06:26.965Z</time></trkpt><trkpt lat="44.390415" lon="10.7772477"><ele>754.5</ele><time>2026-04-18T10:06:27.964Z</time></trkpt><trkpt lat="44.3903529" lon="10.7774039"><ele>751.25</ele><time>2026-04-18T10:06:28.964Z</time></trkpt><trkpt lat="44.3903028" lon="10.7775603"><ele>748.0</ele><time>2026-04-18T10:06:29.964Z</time></trkpt><trkpt lat="44.3902685" lon="10.7777298"><ele>746.5</ele><time>2026-04-18T10:06:30.964Z</time></trkpt><trkpt lat="44.390253" lon="10.7779048"><ele>745.0</ele><time>2026-04-18T10:06:31.965Z</time></trkpt><trkpt lat="44.3902598" lon="10.778079"><ele>743.5</ele><time>2026-04-18T10:06:32.965Z</time></trkpt><trkpt lat="44.3902796" lon="10.778253"><ele>742.0</ele><time>2026-04-18T10:06:33.965Z</time></trkpt><trkpt lat="44.3903055" lon="10.7784195"><ele>741.0</ele><time>2026-04-18T10:06:34.965Z</time></trkpt><trkpt lat="44.390339" lon="10.7785731"><ele>740.0</ele><time>2026-04-18T10:06:35.964Z</time></trkpt><trkpt lat="44.390388" lon="10.7787181"><ele>739.0</ele><time>2026-04-18T10:06:36.965Z</time></trkpt><trkpt lat="44.3904627" lon="10.7788414"><ele>738.0</ele><time>2026-04-18T10:06:37.964Z</time></trkpt><trkpt lat="44.3905599" lon="10.77894"><ele>738.0</ele><time>2026-04-18T10:06:38.964Z</time></trkpt><trkpt lat="44.3906695" lon="10.7790313"><ele>738.0</ele><time>2026-04-18T10:06:39.965Z</time></trkpt><trkpt lat="44.3907749" lon="10.7791269"><ele>738.0</ele><time>2026-04-18T10:06:40.964Z</time></trkpt><trkpt lat="44.3908622" lon="10.7792529"><ele>738.0</ele><time>2026-04-18T10:06:41.964Z</time></trkpt><trkpt lat="44.3909359" lon="10.779376"><ele>735.5999999999999</ele><time>2026-04-18T10:06:42.965Z</time></trkpt><trkpt lat="44.3910134" lon="10.779495"><ele>733.1999999999999</ele><time>2026-04-18T10:06:43.965Z</time></trkpt><trkpt lat="44.3910858" lon="10.7795995"><ele>730.8</ele><time>2026-04-18T10:06:44.964Z</time></trkpt><trkpt lat="44.3911501" lon="10.7796944"><ele>728.4</ele><time>2026-04-18T10:06:45.965Z</time></trkpt><trkpt lat="44.3912035" lon="10.7797783"><ele>726.0</ele><time>2026-04-18T10:06:46.964Z</time></trkpt><trkpt lat="44.3912441" lon="10.7798581"><ele>726.0</ele><time>2026-04-18T10:06:47.964Z</time></trkpt><trkpt lat="44.3912365" lon="10.7800089"><ele>726.0</ele><time>2026-04-18T10:06:49.964Z</time></trkpt><trkpt lat="44.3911828" lon="10.7800806"><ele>726.0</ele><time>2026-04-18T10:06:50.964Z</time></trkpt><trkpt lat="44.3911098" lon="10.7801537"><ele>726.0</ele><time>2026-04-18T10:06:51.964Z</time></trkpt><trkpt lat="44.3910268" lon="10.7802302"><ele>726.0</ele><time>2026-04-18T10:06:52.965Z</time></trkpt><trkpt lat="44.3909384" lon="10.7803035"><ele>724.8</ele><time>2026-04-18T10:06:53.965Z</time></trkpt><trkpt lat="44.3908518" lon="10.7803666"><ele>723.5999999999999</ele><time>2026-04-18T10:06:54.965Z</time></trkpt><trkpt lat="44.3907617" lon="10.780398"><ele>722.4</ele><time>2026-04-18T10:06:55.964Z</time></trkpt><trkpt lat="44.3906646" lon="10.7804025"><ele>721.2</ele><time>2026-04-18T10:06:56.964Z</time></trkpt><trkpt lat="44.3905578" lon="10.7803925"><ele>720.0</ele><time>2026-04-18T10:06:57.965Z</time></trkpt><trkpt lat="44.3904509" lon="10.7803662"><ele>719.2</ele><time>2026-04-18T10:06:58.965Z</time></trkpt><trkpt lat="44.3903362" lon="10.7803301"><ele>718.4</ele><time>2026-04-18T10:06:59.964Z</time></trkpt><trkpt lat="44.3902281" lon="10.7802875"><ele>717.5999999999999</ele><time>2026-04-18T10:07:00.964Z</time></trkpt><trkpt lat="44.3901292" lon="10.7802476"><ele>716.8</ele><time>2026-04-18T10:07:01.964Z</time></trkpt><trkpt lat="44.3900333" lon="10.780206"><ele>716.0</ele><time>2026-04-18T10:07:02.964Z</time></trkpt><trkpt lat="44.3899395" lon="10.7801539"><ele>717.6666666666666</ele><time>2026-04-18T10:07:03.965Z</time></trkpt><trkpt lat="44.3898485" lon="10.7800987"><ele>719.3333333333333</ele><time>2026-04-18T10:07:04.964Z</time></trkpt><trkpt lat="44.3897597" lon="10.7800393"><ele>721.0</ele><time>2026-04-18T10:07:05.964Z</time></trkpt><trkpt lat="44.3896981" lon="10.7799753"><ele>722.6666666666666</ele><time>2026-04-18T10:07:06.965Z</time></trkpt><trkpt lat="44.3896352" lon="10.7799278"><ele>724.3333333333334</ele><time>2026-04-18T10:07:07.965Z</time></trkpt><trkpt lat="44.3895708" lon="10.7799162"><ele>726.0</ele><time>2026-04-18T10:07:08.965Z</time></trkpt><trkpt lat="44.389525" lon="10.7799812"><ele>726.8</ele><time>2026-04-18T10:07:09.964Z</time></trkpt><trkpt lat="44.389493" lon="10.780077"><ele>727.5999999999999</ele><time>2026-04-18T10:07:10.964Z</time></trkpt><trkpt lat="44.3894405" lon="10.7801833"><ele>728.4</ele><time>2026-04-18T10:07:11.964Z</time></trkpt><trkpt lat="44.3893751" lon="10.7802665"><ele>729.2</ele><time>2026-04-18T10:07:12.965Z</time></trkpt><trkpt lat="44.3892978" lon="10.7803365"><ele>730.0</ele><time>2026-04-18T10:07:13.965Z</time></trkpt><trkpt lat="44.3892081" lon="10.780404"><ele>727.2</ele><time>2026-04-18T10:07:14.964Z</time></trkpt><trkpt lat="44.3891209" lon="10.7804573"><ele>724.4</ele><time>2026-04-18T10:07:15.964Z</time></trkpt><trkpt lat="44.3890366" lon="10.7804994"><ele>721.5999999999999</ele><time>2026-04-18T10:07:16.965Z</time></trkpt><trkpt lat="44.3889433" lon="10.7805169"><ele>718.8</ele><time>2026-04-18T10:07:17.965Z</time></trkpt><trkpt lat="44.388847" lon="10.7804969"><ele>716.0</ele><time>2026-04-18T10:07:18.965Z</time></trkpt><trkpt lat="44.3887454" lon="10.7804513"><ele>716.0</ele><time>2026-04-18T10:07:19.964Z</time></trkpt><trkpt lat="44.3886293" lon="10.7804093"><ele>716.0</ele><time>2026-04-18T10:07:20.965Z</time></trkpt><trkpt lat="44.3885025" lon="10.7803976"><ele>716.0</ele><time>2026-04-18T10:07:21.965Z</time></trkpt><trkpt lat="44.3883749" lon="10.7803756"><ele>716.0</ele><time>2026-04-18T10:07:22.964Z</time></trkpt><trkpt lat="44.3882522" lon="10.7803194"><ele>716.0</ele><time>2026-04-18T10:07:23.965Z</time></trkpt><trkpt lat="44.3881232" lon="10.7802692"><ele>716.0</ele><time>2026-04-18T10:07:24.964Z</time></trkpt><trkpt lat="44.387986" lon="10.780232"><ele>716.0</ele><time>2026-04-18T10:07:25.964Z</time></trkpt><trkpt lat="44.3878506" lon="10.7801931"><ele>716.0</ele><time>2026-04-18T10:07:26.965Z</time></trkpt><trkpt lat="44.3877316" lon="10.7801384"><ele>719.0</ele><time>2026-04-18T10:07:27.964Z</time></trkpt><trkpt lat="44.3876045" lon="10.7800942"><ele>722.0</ele><time>2026-04-18T10:07:28.964Z</time></trkpt><trkpt lat="44.3874824" lon="10.7800621"><ele>725.0</ele><time>2026-04-18T10:07:29.964Z</time></trkpt><trkpt lat="44.3873713" lon="10.7800102"><ele>728.0</ele><time>2026-04-18T10:07:30.965Z</time></trkpt><trkpt lat="44.3872741" lon="10.7799568"><ele>728.0</ele><time>2026-04-18T10:07:31.964Z</time></trkpt><trkpt lat="44.3871902" lon="10.779887"><ele>728.0</ele><time>2026-04-18T10:07:32.964Z</time></trkpt><trkpt lat="44.3871251" lon="10.7797844"><ele>728.0</ele><time>2026-04-18T10:07:33.965Z</time></trkpt><trkpt lat="44.3870739" lon="10.7796748"><ele>728.0</ele><time>2026-04-18T10:07:34.964Z</time></trkpt><trkpt lat="44.3870253" lon="10.7795643"><ele>728.0</ele><time>2026-04-18T10:07:35.964Z</time></trkpt><trkpt lat="44.3869566" lon="10.7794952"><ele>726.6666666666666</ele><time>2026-04-18T10:07:36.964Z</time></trkpt><trkpt lat="44.3868802" lon="10.7794845"><ele>725.3333333333333</ele><time>2026-04-18T10:07:37.964Z</time></trkpt><trkpt lat="44.386811" lon="10.7795129"><ele>724.0</ele><time>2026-04-18T10:07:38.964Z</time></trkpt><trkpt lat="44.3867272" lon="10.7795415"><ele>722.6666666666666</ele><time>2026-04-18T10:07:39.964Z</time></trkpt><trkpt lat="44.3866363" lon="10.77955"><ele>721.3333333333334</ele><time>2026-04-18T10:07:40.964Z</time></trkpt><trkpt lat="44.3865417" lon="10.7795506"><ele>720.0</ele><time>2026-04-18T10:07:41.964Z</time></trkpt><trkpt lat="44.386445" lon="10.7795562"><ele>720.0</ele><time>2026-04-18T10:07:42.965Z</time></trkpt><trkpt lat="44.3863455" lon="10.7795571"><ele>720.0</ele><time>2026-04-18T10:07:43.965Z</time></trkpt><trkpt lat="44.3862381" lon="10.7795578"><ele>720.0</ele><time>2026-04-18T10:07:44.964Z</time></trkpt><trkpt lat="44.3861252" lon="10.7795554"><ele>720.0</ele><time>2026-04-18T10:07:45.965Z</time></trkpt><trkpt lat="44.3860083" lon="10.7795513"><ele>720.0</ele><time>2026-04-18T10:07:46.964Z</time></trkpt><trkpt lat="44.3858951" lon="10.7795412"><ele>720.2</ele><time>2026-04-18T10:07:47.965Z</time></trkpt><trkpt lat="44.3857808" lon="10.7795334"><ele>720.4</ele><time>2026-04-18T10:07:48.965Z</time></trkpt><trkpt lat="44.3856748" lon="10.7795231"><ele>720.5999999999999</ele><time>2026-04-18T10:07:49.964Z</time></trkpt><trkpt lat="44.3855735" lon="10.7795113"><ele>720.8</ele><time>2026-04-18T10:07:50.965Z</time></trkpt><trkpt lat="44.3854719" lon="10.7795001"><ele>721.0</ele><time>2026-04-18T10:07:51.965Z</time></trkpt><trkpt lat="44.3853737" lon="10.779488"><ele>721.0</ele><time>2026-04-18T10:07:52.964Z</time></trkpt><trkpt lat="44.3852657" lon="10.7794507"><ele>721.0</ele><time>2026-04-18T10:07:53.965Z</time></trkpt><trkpt lat="44.3851619" lon="10.7794077"><ele>721.0</ele><time>2026-04-18T10:07:54.964Z</time></trkpt><trkpt lat="44.3850599" lon="10.7793652"><ele>721.0</ele><time>2026-04-18T10:07:55.965Z</time></trkpt><trkpt lat="44.3849704" lon="10.779325"><ele>721.0</ele><time>2026-04-18T10:07:56.964Z</time></trkpt><trkpt lat="44.3848811" lon="10.779277"><ele>721.4</ele><time>2026-04-18T10:07:57.964Z</time></trkpt><trkpt lat="44.3848069" lon="10.7792003"><ele>721.8</ele><time>2026-04-18T10:07:58.964Z</time></trkpt><trkpt lat="44.3847312" lon="10.7791226"><ele>722.1999999999999</ele><time>2026-04-18T10:07:59.964Z</time></trkpt><trkpt lat="44.3846532" lon="10.7790332"><ele>722.5999999999999</ele><time>2026-04-18T10:08:00.964Z</time></trkpt><trkpt lat="44.384579" lon="10.7789494"><ele>723.0</ele><time>2026-04-18T10:08:01.965Z</time></trkpt><trkpt lat="44.3845122" lon="10.7788691"><ele>723.0</ele><time>2026-04-18T10:08:02.964Z</time></trkpt><trkpt lat="44.3844467" lon="10.7787864"><ele>723.0</ele><time>2026-04-18T10:08:03.964Z</time></trkpt><trkpt lat="44.3843791" lon="10.7786963"><ele>723.0</ele><time>2026-04-18T10:08:04.964Z</time></trkpt><trkpt lat="44.3842982" lon="10.7786175"><ele>723.0</ele><time>2026-04-18T10:08:05.965Z</time></trkpt><trkpt lat="44.3842113" lon="10.7785406"><ele>723.0</ele><time>2026-04-18T10:08:06.964Z</time></trkpt><trkpt lat="44.384115" lon="10.7784776"><ele>723.2</ele><time>2026-04-18T10:08:07.964Z</time></trkpt><trkpt lat="44.384023" lon="10.7784123"><ele>723.4</ele><time>2026-04-18T10:08:08.964Z</time></trkpt><trkpt lat="44.3839371" lon="10.7783415"><ele>723.6</ele><time>2026-04-18T10:08:09.965Z</time></trkpt><trkpt lat="44.3838613" lon="10.7782623"><ele>723.8000000000001</ele><time>2026-04-18T10:08:10.964Z</time></trkpt><trkpt lat="44.3837913" lon="10.7781934"><ele>724.0</ele><time>2026-04-18T10:08:11.964Z</time></trkpt><trkpt lat="44.3837238" lon="10.7781509"><ele>722.8333333333334</ele><time>2026-04-18T10:08:12.964Z</time></trkpt><trkpt lat="44.3836604" lon="10.7781563"><ele>721.6666666666667</ele><time>2026-04-18T10:08:13.964Z</time></trkpt><trkpt lat="44.3835915" lon="10.778182"><ele>720.5</ele><time>2026-04-18T10:08:14.965Z</time></trkpt><trkpt lat="44.3835049" lon="10.7782102"><ele>719.3333333333334</ele><time>2026-04-18T10:08:15.964Z</time></trkpt><trkpt lat="44.3834152" lon="10.7782365"><ele>718.1666666666666</ele><time>2026-04-18T10:08:16.965Z</time></trkpt><trkpt lat="44.3833293" lon="10.7782541"><ele>717.0</ele><time>2026-04-18T10:08:17.965Z</time></trkpt><trkpt lat="44.3832468" lon="10.778267"><ele>717.0</ele><time>2026-04-18T10:08:18.965Z</time></trkpt><trkpt lat="44.3831626" lon="10.7782774"><ele>717.0</ele><time>2026-04-18T10:08:19.964Z</time></trkpt><trkpt lat="44.3830757" lon="10.7782854"><ele>717.0</ele><time>2026-04-18T10:08:20.965Z</time></trkpt><trkpt lat="44.38299" lon="10.7783178"><ele>717.0</ele><time>2026-04-18T10:08:21.964Z</time></trkpt><trkpt lat="44.3829096" lon="10.7783786"><ele>717.0</ele><time>2026-04-18T10:08:22.965Z</time></trkpt><trkpt lat="44.3828323" lon="10.7784639"><ele>714.6</ele><time>2026-04-18T10:08:23.965Z</time></trkpt><trkpt lat="44.3827551" lon="10.7785503"><ele>712.2</ele><time>2026-04-18T10:08:24.965Z</time></trkpt><trkpt lat="44.3826743" lon="10.7786295"><ele>709.8</ele><time>2026-04-18T10:08:25.964Z</time></trkpt><trkpt lat="44.3825951" lon="10.7786986"><ele>707.4</ele><time>2026-04-18T10:08:26.965Z</time></trkpt><trkpt lat="44.3825157" lon="10.778762"><ele>705.0</ele><time>2026-04-18T10:08:27.964Z</time></trkpt><trkpt lat="44.3824467" lon="10.7788303"><ele>705.0</ele><time>2026-04-18T10:08:28.965Z</time></trkpt><trkpt lat="44.3823894" lon="10.7789061"><ele>705.0</ele><time>2026-04-18T10:08:29.965Z</time></trkpt><trkpt lat="44.3823423" lon="10.7790007"><ele>705.0</ele><time>2026-04-18T10:08:30.965Z</time></trkpt><trkpt lat="44.3823057" lon="10.7791307"><ele>705.0</ele><time>2026-04-18T10:08:31.964Z</time></trkpt><trkpt lat="44.3822715" lon="10.7792509"><ele>705.0</ele><time>2026-04-18T10:08:32.965Z</time></trkpt><trkpt lat="44.3822348" lon="10.7793766"><ele>704.0</ele><time>2026-04-18T10:08:33.964Z</time></trkpt><trkpt lat="44.3821959" lon="10.7794962"><ele>703.0</ele><time>2026-04-18T10:08:34.964Z</time></trkpt><trkpt lat="44.3821539" lon="10.7796179"><ele>702.0</ele><time>2026-04-18T10:08:35.964Z</time></trkpt><trkpt lat="44.3821092" lon="10.7797424"><ele>701.0</ele><time>2026-04-18T10:08:36.965Z</time></trkpt><trkpt lat="44.3820642" lon="10.7798708"><ele>700.0</ele><time>2026-04-18T10:08:37.965Z</time></trkpt><trkpt lat="44.3820187" lon="10.7800031"><ele>698.8</ele><time>2026-04-18T10:08:38.965Z</time></trkpt><trkpt lat="44.3819788" lon="10.780151"><ele>697.6</ele><time>2026-04-18T10:08:39.964Z</time></trkpt><trkpt lat="44.3819352" lon="10.7802898"><ele>696.4000000000001</ele><time>2026-04-18T10:08:40.964Z</time></trkpt><trkpt lat="44.3818899" lon="10.7804316"><ele>695.2</ele><time>2026-04-18T10:08:41.965Z</time></trkpt><trkpt lat="44.3818261" lon="10.7805682"><ele>694.0</ele><time>2026-04-18T10:08:42.965Z</time></trkpt><trkpt lat="44.3817688" lon="10.7806909"><ele>693.0</ele><time>2026-04-18T10:08:43.964Z</time></trkpt><trkpt lat="44.3817032" lon="10.7808151"><ele>692.0</ele><time>2026-04-18T10:08:44.964Z</time></trkpt><trkpt lat="44.3816275" lon="10.7809158"><ele>691.0</ele><time>2026-04-18T10:08:45.964Z</time></trkpt><trkpt lat="44.3815482" lon="10.7809972"><ele>690.0</ele><time>2026-04-18T10:08:46.965Z</time></trkpt><trkpt lat="44.3814639" lon="10.78106"><ele>689.0</ele><time>2026-04-18T10:08:47.964Z</time></trkpt><trkpt lat="44.3813856" lon="10.7811064"><ele>686.8333333333333</ele><time>2026-04-18T10:08:48.965Z</time></trkpt><trkpt lat="44.3813169" lon="10.7811406"><ele>684.6666666666666</ele><time>2026-04-18T10:08:49.964Z</time></trkpt><trkpt lat="44.3812233" lon="10.7811789"><ele>682.5</ele><time>2026-04-18T10:08:51.964Z</time></trkpt><trkpt lat="44.3811588" lon="10.7811932"><ele>680.3333333333334</ele><time>2026-04-18T10:09:19.964Z</time></trkpt><trkpt lat="44.3810786" lon="10.7812328"><ele>678.1666666666667</ele><time>2026-04-18T10:09:21.964Z</time></trkpt><trkpt lat="44.3809934" lon="10.7812678"><ele>676.0</ele><time>2026-04-18T10:09:23.965Z</time></trkpt><trkpt lat="44.3809103" lon="10.7812816"><ele>676.0</ele><time>2026-04-18T10:09:25.965Z</time></trkpt><trkpt lat="44.3808308" lon="10.7812945"><ele>676.0</ele><time>2026-04-18T10:09:27.964Z</time></trkpt><trkpt lat="44.380751" lon="10.7812997"><ele>676.0</ele><time>2026-04-18T10:09:29.964Z</time></trkpt><trkpt lat="44.3806687" lon="10.7812955"><ele>676.0</ele><time>2026-04-18T10:09:31.965Z</time></trkpt><trkpt lat="44.380571" lon="10.7813207"><ele>676.0</ele><time>2026-04-18T10:09:33.964Z</time></trkpt><trkpt lat="44.380481" lon="10.7813607"><ele>676.0</ele><time>2026-04-18T10:09:35.964Z</time></trkpt><trkpt lat="44.3803848" lon="10.7813843"><ele>674.1999999999999</ele><time>2026-04-18T10:09:37.964Z</time></trkpt><trkpt lat="44.3803022" lon="10.7813683"><ele>672.4</ele><time>2026-04-18T10:09:39.964Z</time></trkpt><trkpt lat="44.3802648" lon="10.78124"><ele>670.6</ele><time>2026-04-18T10:09:41.965Z</time></trkpt><trkpt lat="44.380281" lon="10.7810791"><ele>668.8</ele><time>2026-04-18T10:09:43.965Z</time></trkpt><trkpt lat="44.3802883" lon="10.780908"><ele>667.0</ele><time>2026-04-18T10:09:45.964Z</time></trkpt><trkpt lat="44.3802765" lon="10.7807463"><ele>667.0</ele><time>2026-04-18T10:09:47.964Z</time></trkpt><trkpt lat="44.3802181" lon="10.7806284"><ele>667.0</ele><time>2026-04-18T10:09:49.964Z</time></trkpt><trkpt lat="44.380123" lon="10.7806035"><ele>667.0</ele><time>2026-04-18T10:09:51.964Z</time></trkpt><trkpt lat="44.3800054" lon="10.7806098"><ele>667.0</ele><time>2026-04-18T10:09:53.964Z</time></trkpt><trkpt lat="44.3798866" lon="10.7806202"><ele>667.0</ele><time>2026-04-18T10:09:55.965Z</time></trkpt><trkpt lat="44.3797615" lon="10.7806269"><ele>665.0</ele><time>2026-04-18T10:09:57.965Z</time></trkpt><trkpt lat="44.3796415" lon="10.7806644"><ele>663.0</ele><time>2026-04-18T10:09:59.964Z</time></trkpt><trkpt lat="44.3795692" lon="10.7807064"><ele>661.0</ele><time>2026-04-18T10:10:00.964Z</time></trkpt><trkpt lat="44.3795006" lon="10.7807386"><ele>659.0</ele><time>2026-04-18T10:10:01.964Z</time></trkpt><trkpt lat="44.3794331" lon="10.7807661"><ele>657.0</ele><time>2026-04-18T10:10:02.964Z</time></trkpt><trkpt lat="44.3793272" lon="10.7807219"><ele>657.0</ele><time>2026-04-18T10:10:04.964Z</time></trkpt><trkpt lat="44.3792873" lon="10.7806464"><ele>657.0</ele><time>2026-04-18T10:10:05.964Z</time></trkpt><trkpt lat="44.3792516" lon="10.7805575"><ele>657.0</ele><time>2026-04-18T10:10:06.964Z</time></trkpt><trkpt lat="44.379172" lon="10.7804546"><ele>657.0</ele><time>2026-04-18T10:10:08.965Z</time></trkpt><trkpt lat="44.3790464" lon="10.780479"><ele>657.0</ele><time>2026-04-18T10:10:10.964Z</time></trkpt><trkpt lat="44.3789756" lon="10.780507"><ele>657.0</ele><time>2026-04-18T10:10:11.964Z</time></trkpt><trkpt lat="44.3789144" lon="10.7805665"><ele>654.8333333333334</ele><time>2026-04-18T10:10:12.965Z</time></trkpt><trkpt lat="44.3788468" lon="10.7806403"><ele>652.6666666666666</ele><time>2026-04-18T10:10:13.965Z</time></trkpt><trkpt lat="44.3787806" lon="10.78071"><ele>650.5</ele><time>2026-04-18T10:10:14.964Z</time></trkpt><trkpt lat="44.3787127" lon="10.7807894"><ele>648.3333333333333</ele><time>2026-04-18T10:10:15.964Z</time></trkpt><trkpt lat="44.3786508" lon="10.7808598"><ele>646.1666666666666</ele><time>2026-04-18T10:10:16.964Z</time></trkpt><trkpt lat="44.3785935" lon="10.7809337"><ele>644.0</ele><time>2026-04-18T10:10:17.965Z</time></trkpt><trkpt lat="44.3785284" lon="10.78099"><ele>642.0</ele><time>2026-04-18T10:10:18.964Z</time></trkpt><trkpt lat="44.378445" lon="10.7810334"><ele>640.0</ele><time>2026-04-18T10:10:19.964Z</time></trkpt><trkpt lat="44.3783559" lon="10.7810646"><ele>638.0</ele><time>2026-04-18T10:10:20.965Z</time></trkpt><trkpt lat="44.3782612" lon="10.7810941"><ele>636.0</ele><time>2026-04-18T10:10:21.964Z</time></trkpt><trkpt lat="44.3781666" lon="10.7811191"><ele>634.0</ele><time>2026-04-18T10:10:22.965Z</time></trkpt><trkpt lat="44.3780653" lon="10.7811496"><ele>631.6</ele><time>2026-04-18T10:10:23.965Z</time></trkpt><trkpt lat="44.3779629" lon="10.7811709"><ele>629.2</ele><time>2026-04-18T10:10:24.965Z</time></trkpt><trkpt lat="44.3778596" lon="10.7811919"><ele>626.8000000000001</ele><time>2026-04-18T10:10:25.964Z</time></trkpt><trkpt lat="44.3777539" lon="10.7812145"><ele>624.4</ele><time>2026-04-18T10:10:26.965Z</time></trkpt><trkpt lat="44.3776484" lon="10.7812385"><ele>622.0</ele><time>2026-04-18T10:10:27.965Z</time></trkpt><trkpt lat="44.3775437" lon="10.7812622"><ele>622.0</ele><time>2026-04-18T10:10:28.965Z</time></trkpt><trkpt lat="44.3774485" lon="10.7812904"><ele>622.0</ele><time>2026-04-18T10:10:29.965Z</time></trkpt><trkpt lat="44.3773569" lon="10.7813365"><ele>622.0</ele><time>2026-04-18T10:10:30.964Z</time></trkpt><trkpt lat="44.3772776" lon="10.7814024"><ele>622.0</ele><time>2026-04-18T10:10:31.965Z</time></trkpt><trkpt lat="44.3772028" lon="10.7814775"><ele>622.0</ele><time>2026-04-18T10:10:32.965Z</time></trkpt><trkpt lat="44.3771247" lon="10.7815474"><ele>618.8333333333334</ele><time>2026-04-18T10:10:33.965Z</time></trkpt><trkpt lat="44.3770412" lon="10.7816011"><ele>615.6666666666667</ele><time>2026-04-18T10:10:34.965Z</time></trkpt><trkpt lat="44.3769507" lon="10.7816196"><ele>612.5</ele><time>2026-04-18T10:10:35.965Z</time></trkpt><trkpt lat="44.3768556" lon="10.781611"><ele>609.3333333333334</ele><time>2026-04-18T10:10:36.964Z</time></trkpt><trkpt lat="44.3767709" lon="10.7815982"><ele>606.1666666666666</ele><time>2026-04-18T10:10:37.964Z</time></trkpt><trkpt lat="44.3766929" lon="10.781599"><ele>603.0</ele><time>2026-04-18T10:10:38.964Z</time></trkpt><trkpt lat="44.3766221" lon="10.7816334"><ele>603.0</ele><time>2026-04-18T10:10:39.964Z</time></trkpt><trkpt lat="44.3765485" lon="10.7817107"><ele>603.0</ele><time>2026-04-18T10:10:40.964Z</time></trkpt><trkpt lat="44.3764633" lon="10.7818093"><ele>603.0</ele><time>2026-04-18T10:10:41.964Z</time></trkpt><trkpt lat="44.3763716" lon="10.781904"><ele>603.0</ele><time>2026-04-18T10:10:42.964Z</time></trkpt><trkpt lat="44.3762897" lon="10.7820222"><ele>603.0</ele><time>2026-04-18T10:10:43.965Z</time></trkpt><trkpt lat="44.3762096" lon="10.7821416"><ele>598.8</ele><time>2026-04-18T10:10:44.964Z</time></trkpt><trkpt lat="44.3761374" lon="10.7822479"><ele>594.5999999999999</ele><time>2026-04-18T10:10:45.964Z</time></trkpt><trkpt lat="44.3760753" lon="10.7823469"><ele>590.4000000000001</ele><time>2026-04-18T10:10:46.964Z</time></trkpt><trkpt lat="44.3760155" lon="10.7824535"><ele>586.2</ele><time>2026-04-18T10:10:47.964Z</time></trkpt><trkpt lat="44.375954" lon="10.7825628"><ele>582.0</ele><time>2026-04-18T10:10:48.965Z</time></trkpt><trkpt lat="44.3758868" lon="10.7826772"><ele>579.2</ele><time>2026-04-18T10:10:49.965Z</time></trkpt><trkpt lat="44.3758155" lon="10.7827935"><ele>576.4000000000001</ele><time>2026-04-18T10:10:50.964Z</time></trkpt><trkpt lat="44.3757453" lon="10.7828918"><ele>573.5999999999999</ele><time>2026-04-18T10:10:51.964Z</time></trkpt><trkpt lat="44.3756802" lon="10.782975"><ele>570.8</ele><time>2026-04-18T10:10:52.965Z</time></trkpt><trkpt lat="44.3756284" lon="10.7830456"><ele>568.0</ele><time>2026-04-18T10:10:53.964Z</time></trkpt><trkpt lat="44.3755408" lon="10.7831528"><ele>568.0</ele><time>2026-04-18T10:10:55.965Z</time></trkpt><trkpt lat="44.3755072" lon="10.783268"><ele>568.0</ele><time>2026-04-18T10:10:57.965Z</time></trkpt><trkpt lat="44.3755516" lon="10.7833786"><ele>568.0</ele><time>2026-04-18T10:10:59.965Z</time></trkpt><trkpt lat="44.3756619" lon="10.7834721"><ele>568.0</ele><time>2026-04-18T10:11:01.964Z</time></trkpt><trkpt lat="44.3757451" lon="10.7835234"><ele>568.0</ele><time>2026-04-18T10:11:02.965Z</time></trkpt><trkpt lat="44.3758214" lon="10.7835746"><ele>566.8333333333334</ele><time>2026-04-18T10:11:03.964Z</time></trkpt><trkpt lat="44.3758788" lon="10.7836298"><ele>565.6666666666667</ele><time>2026-04-18T10:11:04.964Z</time></trkpt><trkpt lat="44.3759312" lon="10.7836878"><ele>564.5</ele><time>2026-04-18T10:11:05.965Z</time></trkpt><trkpt lat="44.3759747" lon="10.7837532"><ele>563.3333333333334</ele><time>2026-04-18T10:11:06.964Z</time></trkpt><trkpt lat="44.3760489" lon="10.783865"><ele>562.1666666666666</ele><time>2026-04-18T10:11:08.965Z</time></trkpt><trkpt lat="44.3761173" lon="10.7840038"><ele>561.0</ele><time>2026-04-18T10:11:10.964Z</time></trkpt><trkpt lat="44.3761475" lon="10.784085"><ele>561.0</ele><time>2026-04-18T10:11:11.965Z</time></trkpt><trkpt lat="44.3761684" lon="10.784185"><ele>561.0</ele><time>2026-04-18T10:11:12.964Z</time></trkpt><trkpt lat="44.3761883" lon="10.7843073"><ele>561.0</ele><time>2026-04-18T10:11:13.965Z</time></trkpt><trkpt lat="44.3761988" lon="10.7844385"><ele>561.0</ele><time>2026-04-18T10:11:14.965Z</time></trkpt><trkpt lat="44.3762032" lon="10.7845694"><ele>561.0</ele><time>2026-04-18T10:11:15.965Z</time></trkpt><trkpt lat="44.3762159" lon="10.7847044"><ele>561.0</ele><time>2026-04-18T10:11:16.964Z</time></trkpt><trkpt lat="44.376242" lon="10.7848307"><ele>561.0</ele><time>2026-04-18T10:11:17.965Z</time></trkpt><trkpt lat="44.3762625" lon="10.7849428"><ele>561.0</ele><time>2026-04-18T10:11:18.964Z</time></trkpt><trkpt lat="44.3762705" lon="10.7850489"><ele>561.0</ele><time>2026-04-18T10:11:19.965Z</time></trkpt><trkpt lat="44.3762702" lon="10.7851515"><ele>561.0</ele><time>2026-04-18T10:11:20.964Z</time></trkpt><trkpt lat="44.3762645" lon="10.7852512"><ele>561.0</ele><time>2026-04-18T10:11:21.964Z</time></trkpt><trkpt lat="44.3762677" lon="10.7853661"><ele>561.0</ele><time>2026-04-18T10:11:22.965Z</time></trkpt><trkpt lat="44.3762816" lon="10.7854739"><ele>562.0</ele><time>2026-04-18T10:11:23.964Z</time></trkpt><trkpt lat="44.3763053" lon="10.785568"><ele>563.0</ele><time>2026-04-18T10:11:24.964Z</time></trkpt><trkpt lat="44.3763308" lon="10.7856534"><ele>564.0</ele><time>2026-04-18T10:11:25.964Z</time></trkpt><trkpt lat="44.3763802" lon="10.7857409"><ele>565.0</ele><time>2026-04-18T10:11:26.964Z</time></trkpt><trkpt lat="44.3764329" lon="10.7858142"><ele>566.0</ele><time>2026-04-18T10:11:27.964Z</time></trkpt><trkpt lat="44.3764861" lon="10.7858772"><ele>567.0</ele><time>2026-04-18T10:11:28.965Z</time></trkpt><trkpt lat="44.3765767" lon="10.7859566"><ele>567.2</ele><time>2026-04-18T10:11:30.965Z</time></trkpt><trkpt lat="44.3766563" lon="10.7860739"><ele>567.4000000000001</ele><time>2026-04-18T10:11:32.964Z</time></trkpt><trkpt lat="44.3767172" lon="10.7861673"><ele>567.5999999999999</ele><time>2026-04-18T10:11:34.965Z</time></trkpt><trkpt lat="44.3767811" lon="10.786246"><ele>567.8</ele><time>2026-04-18T10:11:37.964Z</time></trkpt><trkpt lat="44.3768435" lon="10.7863101"><ele>568.0</ele><time>2026-04-18T10:11:39.965Z</time></trkpt><trkpt lat="44.376891" lon="10.7864121"><ele>568.0</ele><time>2026-04-18T10:11:42.964Z</time></trkpt><trkpt lat="44.3769409" lon="10.786505"><ele>568.0</ele><time>2026-04-18T10:11:44.964Z</time></trkpt><trkpt lat="44.3770145" lon="10.7866182"><ele>568.0</ele><time>2026-04-18T10:11:46.965Z</time></trkpt><trkpt lat="44.3770972" lon="10.7867333"><ele>568.0</ele><time>2026-04-18T10:11:48.964Z</time></trkpt><trkpt lat="44.3771877" lon="10.7868556"><ele>568.0</ele><time>2026-04-18T10:11:50.964Z</time></trkpt><trkpt lat="44.3772323" lon="10.7869198"><ele>569.5</ele><time>2026-04-18T10:11:51.964Z</time></trkpt><trkpt lat="44.3772777" lon="10.7869914"><ele>571.0</ele><time>2026-04-18T10:11:52.965Z</time></trkpt><trkpt lat="44.3773182" lon="10.7870632"><ele>572.5</ele><time>2026-04-18T10:11:53.965Z</time></trkpt><trkpt lat="44.3773559" lon="10.7871456"><ele>574.0</ele><time>2026-04-18T10:11:54.964Z</time></trkpt><trkpt lat="44.3773827" lon="10.7872337"><ele>575.5</ele><time>2026-04-18T10:11:55.965Z</time></trkpt><trkpt lat="44.3774011" lon="10.7873205"><ele>577.0</ele><time>2026-04-18T10:11:56.964Z</time></trkpt><trkpt lat="44.3774108" lon="10.7874882"><ele>577.0</ele><time>2026-04-18T10:11:58.965Z</time></trkpt><trkpt lat="44.3773748" lon="10.7876674"><ele>577.0</ele><time>2026-04-18T10:12:00.964Z</time></trkpt><trkpt lat="44.377356" lon="10.7877607"><ele>577.0</ele><time>2026-04-18T10:12:01.965Z</time></trkpt><trkpt lat="44.3773328" lon="10.7878476"><ele>577.0</ele><time>2026-04-18T10:12:02.964Z</time></trkpt><trkpt lat="44.3773144" lon="10.787933"><ele>577.0</ele><time>2026-04-18T10:12:03.964Z</time></trkpt><trkpt lat="44.3772915" lon="10.788022"><ele>577.0</ele><time>2026-04-18T10:12:04.964Z</time></trkpt><trkpt lat="44.3772642" lon="10.7881865"><ele>580.3333333333334</ele><time>2026-04-18T10:12:06.964Z</time></trkpt><trkpt lat="44.3772537" lon="10.7882752"><ele>583.6666666666667</ele><time>2026-04-18T10:12:07.965Z</time></trkpt><trkpt lat="44.3772428" lon="10.7883689"><ele>587.0</ele><time>2026-04-18T10:12:08.964Z</time></trkpt><trkpt lat="44.3771941" lon="10.7884888"><ele>590.3333333333334</ele><time>2026-04-18T10:12:10.965Z</time></trkpt><trkpt lat="44.3771238" lon="10.7884741"><ele>593.6666666666666</ele><time>2026-04-18T10:12:12.964Z</time></trkpt><trkpt lat="44.3770588" lon="10.7884656"><ele>597.0</ele><time>2026-04-18T10:14:10.965Z</time></trkpt><trkpt lat="44.3769608" lon="10.7884514"><ele>598.2</ele><time>2026-04-18T10:14:12.965Z</time></trkpt><trkpt lat="44.3768411" lon="10.7884527"><ele>599.4000000000001</ele><time>2026-04-18T10:14:14.965Z</time></trkpt><trkpt lat="44.3767756" lon="10.7884544"><ele>600.5999999999999</ele><time>2026-04-18T10:14:15.965Z</time></trkpt><trkpt lat="44.3766774" lon="10.7885217"><ele>601.8</ele><time>2026-04-18T10:14:17.965Z</time></trkpt><trkpt lat="44.3766481" lon="10.7886504"><ele>603.0</ele><time>2026-04-18T10:14:19.965Z</time></trkpt><trkpt lat="44.3766664" lon="10.7887846"><ele>605.3333333333334</ele><time>2026-04-18T10:14:21.964Z</time></trkpt><trkpt lat="44.3767053" lon="10.7889542"><ele>607.6666666666666</ele><time>2026-04-18T10:14:23.964Z</time></trkpt><trkpt lat="44.3767258" lon="10.7890492"><ele>610.0</ele><time>2026-04-18T10:14:24.965Z</time></trkpt><trkpt lat="44.3767523" lon="10.7891569"><ele>612.3333333333333</ele><time>2026-04-18T10:14:25.964Z</time></trkpt><trkpt lat="44.3767771" lon="10.7892673"><ele>614.6666666666666</ele><time>2026-04-18T10:14:26.964Z</time></trkpt><trkpt lat="44.3767963" lon="10.7893749"><ele>617.0</ele><time>2026-04-18T10:14:27.964Z</time></trkpt><trkpt lat="44.3768156" lon="10.7894851"><ele>619.8000000000001</ele><time>2026-04-18T10:14:28.965Z</time></trkpt><trkpt lat="44.3768324" lon="10.7895947"><ele>622.6</ele><time>2026-04-18T10:14:29.965Z</time></trkpt><trkpt lat="44.3768385" lon="10.7896928"><ele>625.4000000000001</ele><time>2026-04-18T10:14:30.964Z</time></trkpt><trkpt lat="44.3768436" lon="10.7897844"><ele>628.2</ele><time>2026-04-18T10:14:31.965Z</time></trkpt><trkpt lat="44.3768533" lon="10.7899576"><ele>631.0</ele><time>2026-04-18T10:14:33.964Z</time></trkpt><trkpt lat="44.376909" lon="10.7901024"><ele>633.6</ele><time>2026-04-18T10:14:35.964Z</time></trkpt><trkpt lat="44.3769579" lon="10.7902422"><ele>636.2</ele><time>2026-04-18T10:14:37.964Z</time></trkpt><trkpt lat="44.3769587" lon="10.7904007"><ele>638.8000000000001</ele><time>2026-04-18T10:14:39.964Z</time></trkpt><trkpt lat="44.3769813" lon="10.790544"><ele>641.4000000000001</ele><time>2026-04-18T10:14:41.965Z</time></trkpt><trkpt lat="44.3770125" lon="10.7906743"><ele>644.0</ele><time>2026-04-18T10:14:43.965Z</time></trkpt><trkpt lat="44.3769831" lon="10.7908017"><ele>644.0</ele><time>2026-04-18T10:14:45.964Z</time></trkpt><trkpt lat="44.3769467" lon="10.7908739"><ele>644.0</ele><time>2026-04-18T10:14:46.964Z</time></trkpt><trkpt lat="44.3768987" lon="10.7909575"><ele>644.0</ele><time>2026-04-18T10:14:47.964Z</time></trkpt><trkpt lat="44.3768534" lon="10.7910451"><ele>644.0</ele><time>2026-04-18T10:14:48.964Z</time></trkpt><trkpt lat="44.3768209" lon="10.7911384"><ele>644.0</ele><time>2026-04-18T10:14:49.964Z</time></trkpt><trkpt lat="44.3767915" lon="10.7912358"><ele>644.0</ele><time>2026-04-18T10:14:50.964Z</time></trkpt><trkpt lat="44.3767733" lon="10.7913391"><ele>644.0</ele><time>2026-04-18T10:14:51.965Z</time></trkpt><trkpt lat="44.3767591" lon="10.7914582"><ele>645.3333333333333</ele><time>2026-04-18T10:14:52.964Z</time></trkpt><trkpt lat="44.3767494" lon="10.7915793"><ele>646.6666666666666</ele><time>2026-04-18T10:14:53.964Z</time></trkpt><trkpt lat="44.3767392" lon="10.7916998"><ele>648.0</ele><time>2026-04-18T10:14:54.964Z</time></trkpt><trkpt lat="44.3767298" lon="10.7918197"><ele>649.3333333333334</ele><time>2026-04-18T10:14:55.965Z</time></trkpt><trkpt lat="44.3767219" lon="10.7919431"><ele>650.6666666666667</ele><time>2026-04-18T10:14:56.964Z</time></trkpt><trkpt lat="44.3766997" lon="10.7920684"><ele>652.0</ele><time>2026-04-18T10:14:57.965Z</time></trkpt><trkpt lat="44.376665" lon="10.7921861"><ele>653.4000000000001</ele><time>2026-04-18T10:14:58.964Z</time></trkpt><trkpt lat="44.3766096" lon="10.7922888"><ele>654.8000000000001</ele><time>2026-04-18T10:14:59.965Z</time></trkpt><trkpt lat="44.3765359" lon="10.7923794"><ele>656.2</ele><time>2026-04-18T10:15:00.965Z</time></trkpt><trkpt lat="44.3764454" lon="10.7924467"><ele>657.6</ele><time>2026-04-18T10:15:01.965Z</time></trkpt><trkpt lat="44.3763463" lon="10.792486"><ele>659.0</ele><time>2026-04-18T10:15:02.965Z</time></trkpt><trkpt lat="44.3762422" lon="10.7925"><ele>659.1666666666666</ele><time>2026-04-18T10:15:03.964Z</time></trkpt><trkpt lat="44.3761448" lon="10.7924895"><ele>659.3333333333333</ele><time>2026-04-18T10:15:04.964Z</time></trkpt><trkpt lat="44.376049" lon="10.7924591"><ele>659.5</ele><time>2026-04-18T10:15:05.964Z</time></trkpt><trkpt lat="44.3759575" lon="10.7924312"><ele>659.6666666666666</ele><time>2026-04-18T10:15:06.965Z</time></trkpt><trkpt lat="44.3758779" lon="10.7924283"><ele>659.8333333333334</ele><time>2026-04-18T10:15:07.965Z</time></trkpt><trkpt lat="44.3758032" lon="10.792463"><ele>660.0</ele><time>2026-04-18T10:15:08.964Z</time></trkpt><trkpt lat="44.3757305" lon="10.7925324"><ele>660.0</ele><time>2026-04-18T10:15:09.965Z</time></trkpt><trkpt lat="44.3756579" lon="10.7926204"><ele>660.0</ele><time>2026-04-18T10:15:10.964Z</time></trkpt><trkpt lat="44.3755847" lon="10.7927178"><ele>660.0</ele><time>2026-04-18T10:15:11.964Z</time></trkpt><trkpt lat="44.3755105" lon="10.7928244"><ele>660.0</ele><time>2026-04-18T10:15:12.965Z</time></trkpt><trkpt lat="44.3754324" lon="10.7929316"><ele>660.0</ele><time>2026-04-18T10:15:13.965Z</time></trkpt><trkpt lat="44.3753531" lon="10.7930396"><ele>663.0</ele><time>2026-04-18T10:15:14.965Z</time></trkpt><trkpt lat="44.3752715" lon="10.7931375"><ele>666.0</ele><time>2026-04-18T10:15:15.964Z</time></trkpt><trkpt lat="44.3751799" lon="10.7932001"><ele>669.0</ele><time>2026-04-18T10:15:16.965Z</time></trkpt><trkpt lat="44.3750748" lon="10.7932326"><ele>672.0</ele><time>2026-04-18T10:15:17.964Z</time></trkpt><trkpt lat="44.3749675" lon="10.7932573"><ele>675.0</ele><time>2026-04-18T10:15:18.964Z</time></trkpt><trkpt lat="44.3748504" lon="10.7932888"><ele>675.0</ele><time>2026-04-18T10:15:19.965Z</time></trkpt><trkpt lat="44.3747364" lon="10.7933057"><ele>675.0</ele><time>2026-04-18T10:15:20.965Z</time></trkpt><trkpt lat="44.3746403" lon="10.7933053"><ele>675.0</ele><time>2026-04-18T10:15:21.964Z</time></trkpt><trkpt lat="44.3745548" lon="10.7933067"><ele>675.0</ele><time>2026-04-18T10:15:22.964Z</time></trkpt><trkpt lat="44.3744874" lon="10.7933231"><ele>675.0</ele><time>2026-04-18T10:15:23.964Z</time></trkpt><trkpt lat="44.374394" lon="10.7934478"><ele>675.0</ele><time>2026-04-18T10:15:25.964Z</time></trkpt><trkpt lat="44.3743712" lon="10.7935589"><ele>675.0</ele><time>2026-04-18T10:15:26.964Z</time></trkpt><trkpt lat="44.3743588" lon="10.7936983"><ele>675.0</ele><time>2026-04-18T10:15:27.965Z</time></trkpt><trkpt lat="44.3743459" lon="10.7938465"><ele>675.0</ele><time>2026-04-18T10:15:28.965Z</time></trkpt><trkpt lat="44.3743335" lon="10.7940058"><ele>675.0</ele><time>2026-04-18T10:15:29.964Z</time></trkpt><trkpt lat="44.3743264" lon="10.7941634"><ele>675.0</ele><time>2026-04-18T10:15:30.965Z</time></trkpt><trkpt lat="44.3743144" lon="10.7943155"><ele>675.0</ele><time>2026-04-18T10:15:31.965Z</time></trkpt><trkpt lat="44.3742951" lon="10.7944637"><ele>675.0</ele><time>2026-04-18T10:15:32.964Z</time></trkpt><trkpt lat="44.3742685" lon="10.7946161"><ele>675.0</ele><time>2026-04-18T10:15:33.964Z</time></trkpt><trkpt lat="44.3742261" lon="10.7947672"><ele>675.0</ele><time>2026-04-18T10:15:34.965Z</time></trkpt><trkpt lat="44.3741678" lon="10.7949145"><ele>675.5</ele><time>2026-04-18T10:15:35.965Z</time></trkpt><trkpt lat="44.3740845" lon="10.7950474"><ele>676.0</ele><time>2026-04-18T10:15:36.965Z</time></trkpt><trkpt lat="44.3739791" lon="10.7951367"><ele>676.5</ele><time>2026-04-18T10:15:37.964Z</time></trkpt><trkpt lat="44.3738666" lon="10.7951998"><ele>677.0</ele><time>2026-04-18T10:15:38.965Z</time></trkpt><trkpt lat="44.3737611" lon="10.7952521"><ele>677.0</ele><time>2026-04-18T10:15:39.965Z</time></trkpt><trkpt lat="44.3736578" lon="10.7953364"><ele>677.0</ele><time>2026-04-18T10:15:40.964Z</time></trkpt><trkpt lat="44.3735615" lon="10.7954351"><ele>677.0</ele><time>2026-04-18T10:15:41.965Z</time></trkpt><trkpt lat="44.3734697" lon="10.7955465"><ele>677.0</ele><time>2026-04-18T10:15:42.964Z</time></trkpt><trkpt lat="44.3733965" lon="10.7956868"><ele>677.0</ele><time>2026-04-18T10:15:43.965Z</time></trkpt><trkpt lat="44.3733397" lon="10.7958426"><ele>677.0</ele><time>2026-04-18T10:15:44.964Z</time></trkpt><trkpt lat="44.3732909" lon="10.7959951"><ele>677.0</ele><time>2026-04-18T10:15:45.964Z</time></trkpt><trkpt lat="44.3732468" lon="10.7961449"><ele>677.0</ele><time>2026-04-18T10:15:46.964Z</time></trkpt><trkpt lat="44.3731901" lon="10.7962847"><ele>676.75</ele><time>2026-04-18T10:15:47.965Z</time></trkpt><trkpt lat="44.3731178" lon="10.7964199"><ele>676.5</ele><time>2026-04-18T10:15:48.965Z</time></trkpt><trkpt lat="44.3730322" lon="10.7965508"><ele>676.25</ele><time>2026-04-18T10:15:49.964Z</time></trkpt><trkpt lat="44.3729418" lon="10.7966827"><ele>676.0</ele><time>2026-04-18T10:15:50.964Z</time></trkpt><trkpt lat="44.3728491" lon="10.7968219"><ele>678.25</ele><time>2026-04-18T10:15:51.965Z</time></trkpt><trkpt lat="44.3727588" lon="10.7969642"><ele>680.5</ele><time>2026-04-18T10:15:52.964Z</time></trkpt><trkpt lat="44.3726663" lon="10.7971077"><ele>682.75</ele><time>2026-04-18T10:15:53.964Z</time></trkpt><trkpt lat="44.3725726" lon="10.7972422"><ele>685.0</ele><time>2026-04-18T10:15:54.965Z</time></trkpt><trkpt lat="44.3724766" lon="10.7973683"><ele>685.0</ele><time>2026-04-18T10:15:55.964Z</time></trkpt><trkpt lat="44.3723775" lon="10.7974892"><ele>685.0</ele><time>2026-04-18T10:15:56.965Z</time></trkpt><trkpt lat="44.3722791" lon="10.7976044"><ele>685.0</ele><time>2026-04-18T10:15:57.964Z</time></trkpt><trkpt lat="44.3721815" lon="10.7977053"><ele>685.0</ele><time>2026-04-18T10:15:58.964Z</time></trkpt><trkpt lat="44.3720775" lon="10.7978072"><ele>687.0</ele><time>2026-04-18T10:15:59.965Z</time></trkpt><trkpt lat="44.3719775" lon="10.7979046"><ele>689.0</ele><time>2026-04-18T10:16:00.965Z</time></trkpt><trkpt lat="44.3718765" lon="10.7980097"><ele>691.0</ele><time>2026-04-18T10:16:01.964Z</time></trkpt><trkpt lat="44.3717841" lon="10.7981233"><ele>693.0</ele><time>2026-04-18T10:16:02.964Z</time></trkpt><trkpt lat="44.3717045" lon="10.7982555"><ele>693.0</ele><time>2026-04-18T10:16:03.964Z</time></trkpt><trkpt lat="44.3716438" lon="10.7984068"><ele>693.0</ele><time>2026-04-18T10:16:04.964Z</time></trkpt><trkpt lat="44.371604" lon="10.7985674"><ele>693.0</ele><time>2026-04-18T10:16:05.964Z</time></trkpt><trkpt lat="44.3715731" lon="10.7987354"><ele>693.0</ele><time>2026-04-18T10:16:06.964Z</time></trkpt><trkpt lat="44.3715399" lon="10.7989022"><ele>695.0</ele><time>2026-04-18T10:16:07.964Z</time></trkpt><trkpt lat="44.3715084" lon="10.7990707"><ele>697.0</ele><time>2026-04-18T10:16:08.965Z</time></trkpt><trkpt lat="44.3714727" lon="10.799241"><ele>699.0</ele><time>2026-04-18T10:16:09.964Z</time></trkpt><trkpt lat="44.3714254" lon="10.7994066"><ele>701.0</ele><time>2026-04-18T10:16:10.964Z</time></trkpt><trkpt lat="44.3713633" lon="10.7995625"><ele>701.8</ele><time>2026-04-18T10:16:11.965Z</time></trkpt><trkpt lat="44.3713015" lon="10.7997049"><ele>702.5999999999999</ele><time>2026-04-18T10:16:12.964Z</time></trkpt><trkpt lat="44.3712522" lon="10.7998428"><ele>703.4</ele><time>2026-04-18T10:16:13.964Z</time></trkpt><trkpt lat="44.3712312" lon="10.7999883"><ele>704.2</ele><time>2026-04-18T10:16:14.964Z</time></trkpt><trkpt lat="44.3712434" lon="10.8001417"><ele>705.0</ele><time>2026-04-18T10:16:15.964Z</time></trkpt><trkpt lat="44.3712841" lon="10.8003039"><ele>705.5</ele><time>2026-04-18T10:16:16.964Z</time></trkpt><trkpt lat="44.3713273" lon="10.8004716"><ele>706.0</ele><time>2026-04-18T10:16:17.965Z</time></trkpt><trkpt lat="44.3713745" lon="10.8006374"><ele>706.5</ele><time>2026-04-18T10:16:18.965Z</time></trkpt><trkpt lat="44.3714363" lon="10.8007851"><ele>707.0</ele><time>2026-04-18T10:16:19.964Z</time></trkpt><trkpt lat="44.3715104" lon="10.800909"><ele>709.25</ele><time>2026-04-18T10:16:20.964Z</time></trkpt><trkpt lat="44.3716005" lon="10.801004"><ele>711.5</ele><time>2026-04-18T10:16:21.964Z</time></trkpt><trkpt lat="44.3717031" lon="10.801078"><ele>713.75</ele><time>2026-04-18T10:16:22.964Z</time></trkpt><trkpt lat="44.3718106" lon="10.8011438"><ele>716.0</ele><time>2026-04-18T10:16:23.964Z</time></trkpt><trkpt lat="44.3719195" lon="10.8012138"><ele>716.0</ele><time>2026-04-18T10:16:24.964Z</time></trkpt><trkpt lat="44.3720308" lon="10.8012915"><ele>716.0</ele><time>2026-04-18T10:16:25.964Z</time></trkpt><trkpt lat="44.3721489" lon="10.8013719"><ele>716.0</ele><time>2026-04-18T10:16:26.965Z</time></trkpt><trkpt lat="44.3722673" lon="10.8014526"><ele>716.0</ele><time>2026-04-18T10:16:27.965Z</time></trkpt><trkpt lat="44.3723869" lon="10.8015376"><ele>716.5</ele><time>2026-04-18T10:16:28.964Z</time></trkpt><trkpt lat="44.3725072" lon="10.801623"><ele>717.0</ele><time>2026-04-18T10:16:29.965Z</time></trkpt><trkpt lat="44.3726311" lon="10.8017068"><ele>717.5</ele><time>2026-04-18T10:16:30.965Z</time></trkpt><trkpt lat="44.3727599" lon="10.8017785"><ele>718.0</ele><time>2026-04-18T10:16:31.964Z</time></trkpt><trkpt lat="44.372893" lon="10.8018215"><ele>718.75</ele><time>2026-04-18T10:16:32.964Z</time></trkpt><trkpt lat="44.3730301" lon="10.8018312"><ele>719.5</ele><time>2026-04-18T10:16:33.964Z</time></trkpt><trkpt lat="44.3731672" lon="10.8018124"><ele>720.25</ele><time>2026-04-18T10:16:34.965Z</time></trkpt><trkpt lat="44.3733049" lon="10.8017741"><ele>721.0</ele><time>2026-04-18T10:16:35.964Z</time></trkpt><trkpt lat="44.3734392" lon="10.8017371"><ele>721.0</ele><time>2026-04-18T10:16:36.964Z</time></trkpt><trkpt lat="44.3735707" lon="10.8016969"><ele>721.0</ele><time>2026-04-18T10:16:37.964Z</time></trkpt><trkpt lat="44.3736955" lon="10.8016595"><ele>721.0</ele><time>2026-04-18T10:16:38.965Z</time></trkpt><trkpt lat="44.3738111" lon="10.8016299"><ele>721.0</ele><time>2026-04-18T10:16:39.965Z</time></trkpt><trkpt lat="44.3739156" lon="10.8016112"><ele>721.5999999999999</ele><time>2026-04-18T10:16:40.964Z</time></trkpt><trkpt lat="44.3739957" lon="10.8016081"><ele>722.2</ele><time>2026-04-18T10:16:41.964Z</time></trkpt><trkpt lat="44.3740825" lon="10.8016861"><ele>722.8</ele><time>2026-04-18T10:16:43.964Z</time></trkpt><trkpt lat="44.3741009" lon="10.8018481"><ele>723.4000000000001</ele><time>2026-04-18T10:16:45.964Z</time></trkpt><trkpt lat="44.3741049" lon="10.8019713"><ele>724.0</ele><time>2026-04-18T10:16:46.965Z</time></trkpt><trkpt lat="44.3740963" lon="10.8021157"><ele>723.75</ele><time>2026-04-18T10:16:47.964Z</time></trkpt><trkpt lat="44.374061" lon="10.8022693"><ele>723.5</ele><time>2026-04-18T10:16:48.964Z</time></trkpt><trkpt lat="44.3739939" lon="10.8024237"><ele>723.25</ele><time>2026-04-18T10:16:49.964Z</time></trkpt><trkpt lat="44.373895" lon="10.8025398"><ele>723.0</ele><time>2026-04-18T10:16:50.964Z</time></trkpt><trkpt lat="44.3737661" lon="10.802637"><ele>725.25</ele><time>2026-04-18T10:16:51.965Z</time></trkpt><trkpt lat="44.3736305" lon="10.8027241"><ele>727.5</ele><time>2026-04-18T10:16:52.965Z</time></trkpt><trkpt lat="44.3735144" lon="10.8028042"><ele>729.75</ele><time>2026-04-18T10:16:53.965Z</time></trkpt><trkpt lat="44.3734182" lon="10.8028829"><ele>732.0</ele><time>2026-04-18T10:16:54.965Z</time></trkpt><trkpt lat="44.3733442" lon="10.8029793"><ele>732.0</ele><time>2026-04-18T10:16:55.965Z</time></trkpt><trkpt lat="44.3733072" lon="10.803109"><ele>732.0</ele><time>2026-04-18T10:16:56.965Z</time></trkpt><trkpt lat="44.3733144" lon="10.8032518"><ele>732.0</ele><time>2026-04-18T10:16:57.965Z</time></trkpt><trkpt lat="44.3733534" lon="10.8033971"><ele>732.0</ele><time>2026-04-18T10:16:58.964Z</time></trkpt><trkpt lat="44.3734142" lon="10.8035357"><ele>732.0</ele><time>2026-04-18T10:16:59.964Z</time></trkpt><trkpt lat="44.373469" lon="10.8036665"><ele>732.2</ele><time>2026-04-18T10:17:00.964Z</time></trkpt><trkpt lat="44.373513" lon="10.8037839"><ele>732.4000000000001</ele><time>2026-04-18T10:17:01.965Z</time></trkpt><trkpt lat="44.3735288" lon="10.8038785"><ele>732.5999999999999</ele><time>2026-04-18T10:17:02.964Z</time></trkpt><trkpt lat="44.3734531" lon="10.8039903"><ele>732.8</ele><time>2026-04-18T10:17:04.964Z</time></trkpt><trkpt lat="44.3733743" lon="10.8039974"><ele>733.0</ele><time>2026-04-18T10:17:05.964Z</time></trkpt><trkpt lat="44.3732751" lon="10.8039826"><ele>733.0</ele><time>2026-04-18T10:17:06.964Z</time></trkpt><trkpt lat="44.3731561" lon="10.8039588"><ele>733.0</ele><time>2026-04-18T10:17:07.965Z</time></trkpt><trkpt lat="44.3730227" lon="10.8039237"><ele>733.0</ele><time>2026-04-18T10:17:08.964Z</time></trkpt><trkpt lat="44.3728816" lon="10.8038802"><ele>733.0</ele><time>2026-04-18T10:17:09.964Z</time></trkpt><trkpt lat="44.3727335" lon="10.8038375"><ele>732.0</ele><time>2026-04-18T10:17:10.964Z</time></trkpt><trkpt lat="44.3725883" lon="10.8037941"><ele>731.0</ele><time>2026-04-18T10:17:11.964Z</time></trkpt><trkpt lat="44.3724419" lon="10.8037476"><ele>730.0</ele><time>2026-04-18T10:17:12.964Z</time></trkpt><trkpt lat="44.3722901" lon="10.8037045"><ele>730.6666666666667</ele><time>2026-04-18T10:17:13.964Z</time></trkpt><trkpt lat="44.3721346" lon="10.8036506"><ele>731.3333333333334</ele><time>2026-04-18T10:17:14.964Z</time></trkpt><trkpt lat="44.3719853" lon="10.8035767"><ele>732.0</ele><time>2026-04-18T10:17:15.964Z</time></trkpt><trkpt lat="44.3718357" lon="10.8034955"><ele>732.0</ele><time>2026-04-18T10:17:16.964Z</time></trkpt><trkpt lat="44.3716887" lon="10.8034207"><ele>732.0</ele><time>2026-04-18T10:17:17.964Z</time></trkpt><trkpt lat="44.3715521" lon="10.8033483"><ele>732.0</ele><time>2026-04-18T10:17:18.965Z</time></trkpt><trkpt lat="44.3714237" lon="10.8032795"><ele>732.0</ele><time>2026-04-18T10:17:19.965Z</time></trkpt><trkpt lat="44.3712959" lon="10.8032156"><ele>731.25</ele><time>2026-04-18T10:17:20.965Z</time></trkpt><trkpt lat="44.3711716" lon="10.8031572"><ele>730.5</ele><time>2026-04-18T10:17:21.965Z</time></trkpt><trkpt lat="44.3710562" lon="10.8030956"><ele>729.75</ele><time>2026-04-18T10:17:22.964Z</time></trkpt><trkpt lat="44.3709488" lon="10.8030304"><ele>729.0</ele><time>2026-04-18T10:17:23.964Z</time></trkpt><trkpt lat="44.3708381" lon="10.8029753"><ele>729.0</ele><time>2026-04-18T10:17:24.964Z</time></trkpt><trkpt lat="44.3707357" lon="10.8029171"><ele>729.0</ele><time>2026-04-18T10:17:25.965Z</time></trkpt><trkpt lat="44.370638" lon="10.8028635"><ele>729.0</ele><time>2026-04-18T10:17:26.965Z</time></trkpt><trkpt lat="44.3705452" lon="10.8028108"><ele>729.0</ele><time>2026-04-18T10:17:27.965Z</time></trkpt><trkpt lat="44.3704471" lon="10.8027532"><ele>729.0</ele><time>2026-04-18T10:17:28.964Z</time></trkpt><trkpt lat="44.3703415" lon="10.802691"><ele>729.0</ele><time>2026-04-18T10:17:29.965Z</time></trkpt><trkpt lat="44.3702342" lon="10.8026185"><ele>729.0</ele><time>2026-04-18T10:17:30.965Z</time></trkpt><trkpt lat="44.3701247" lon="10.8025409"><ele>729.0</ele><time>2026-04-18T10:17:31.964Z</time></trkpt><trkpt lat="44.3700062" lon="10.8024645"><ele>729.0</ele><time>2026-04-18T10:17:32.964Z</time></trkpt><trkpt lat="44.3698841" lon="10.8023951"><ele>729.0</ele><time>2026-04-18T10:17:33.964Z</time></trkpt><trkpt lat="44.3697638" lon="10.802331"><ele>729.0</ele><time>2026-04-18T10:17:34.965Z</time></trkpt><trkpt lat="44.3696366" lon="10.8022752"><ele>729.0</ele><time>2026-04-18T10:17:35.964Z</time></trkpt><trkpt lat="44.3695097" lon="10.8022244"><ele>729.0</ele><time>2026-04-18T10:17:36.965Z</time></trkpt><trkpt lat="44.3693844" lon="10.8021772"><ele>729.0</ele><time>2026-04-18T10:17:37.964Z</time></trkpt><trkpt lat="44.3692546" lon="10.8021306"><ele>729.0</ele><time>2026-04-18T10:17:38.965Z</time></trkpt><trkpt lat="44.369127" lon="10.8020876"><ele>729.0</ele><time>2026-04-18T10:17:39.964Z</time></trkpt><trkpt lat="44.3689963" lon="10.8020625"><ele>729.0</ele><time>2026-04-18T10:17:40.965Z</time></trkpt><trkpt lat="44.3688629" lon="10.8020546"><ele>728.0</ele><time>2026-04-18T10:17:41.965Z</time></trkpt><trkpt lat="44.3687313" lon="10.8020515"><ele>727.0</ele><time>2026-04-18T10:17:42.964Z</time></trkpt><trkpt lat="44.3685952" lon="10.8020534"><ele>726.0</ele><time>2026-04-18T10:17:43.965Z</time></trkpt><trkpt lat="44.3684592" lon="10.8020513"><ele>725.0</ele><time>2026-04-18T10:17:44.965Z</time></trkpt><trkpt lat="44.3683233" lon="10.8020414"><ele>725.0</ele><time>2026-04-18T10:17:45.964Z</time></trkpt><trkpt lat="44.3681873" lon="10.8020351"><ele>725.0</ele><time>2026-04-18T10:17:46.964Z</time></trkpt><trkpt lat="44.3680496" lon="10.8020304"><ele>725.0</ele><time>2026-04-18T10:17:47.964Z</time></trkpt><trkpt lat="44.3679145" lon="10.8020258"><ele>725.0</ele><time>2026-04-18T10:17:48.964Z</time></trkpt><trkpt lat="44.3677786" lon="10.8020186"><ele>725.25</ele><time>2026-04-18T10:17:49.964Z</time></trkpt><trkpt lat="44.3676402" lon="10.8020008"><ele>725.5</ele><time>2026-04-18T10:17:50.964Z</time></trkpt><trkpt lat="44.3675046" lon="10.8019586"><ele>725.75</ele><time>2026-04-18T10:17:51.965Z</time></trkpt><trkpt lat="44.3673718" lon="10.8018992"><ele>726.0</ele><time>2026-04-18T10:17:52.965Z</time></trkpt><trkpt lat="44.3672343" lon="10.8018213"><ele>728.3333333333334</ele><time>2026-04-18T10:17:53.964Z</time></trkpt><trkpt lat="44.367094" lon="10.8017374"><ele>730.6666666666667</ele><time>2026-04-18T10:17:54.964Z</time></trkpt><trkpt lat="44.3669557" lon="10.8016508"><ele>733.0</ele><time>2026-04-18T10:17:55.964Z</time></trkpt><trkpt lat="44.3668169" lon="10.8015538"><ele>733.0</ele><time>2026-04-18T10:17:56.964Z</time></trkpt><trkpt lat="44.3666793" lon="10.801457"><ele>733.0</ele><time>2026-04-18T10:17:57.964Z</time></trkpt><trkpt lat="44.3665415" lon="10.8013824"><ele>733.0</ele><time>2026-04-18T10:17:58.964Z</time></trkpt><trkpt lat="44.3664" lon="10.8013317"><ele>733.0</ele><time>2026-04-18T10:17:59.965Z</time></trkpt><trkpt lat="44.3662598" lon="10.8012992"><ele>733.25</ele><time>2026-04-18T10:18:00.964Z</time></trkpt><trkpt lat="44.3661266" lon="10.8012549"><ele>733.5</ele><time>2026-04-18T10:18:01.965Z</time></trkpt><trkpt lat="44.3659972" lon="10.8011955"><ele>733.75</ele><time>2026-04-18T10:18:02.964Z</time></trkpt><trkpt lat="44.365877" lon="10.8011201"><ele>734.0</ele><time>2026-04-18T10:18:03.965Z</time></trkpt><trkpt lat="44.3657564" lon="10.8010316"><ele>734.5</ele><time>2026-04-18T10:18:04.964Z</time></trkpt><trkpt lat="44.365641" lon="10.8009262"><ele>735.0</ele><time>2026-04-18T10:18:05.965Z</time></trkpt><trkpt lat="44.3655189" lon="10.8008154"><ele>735.5</ele><time>2026-04-18T10:18:06.965Z</time></trkpt><trkpt lat="44.3653993" lon="10.8006993"><ele>736.0</ele><time>2026-04-18T10:18:07.965Z</time></trkpt><trkpt lat="44.3652831" lon="10.8005791"><ele>736.75</ele><time>2026-04-18T10:18:08.964Z</time></trkpt><trkpt lat="44.3651647" lon="10.800461"><ele>737.5</ele><time>2026-04-18T10:18:09.965Z</time></trkpt><trkpt lat="44.3650458" lon="10.8003502"><ele>738.25</ele><time>2026-04-18T10:18:10.965Z</time></trkpt><trkpt lat="44.3649298" lon="10.8002393"><ele>739.0</ele><time>2026-04-18T10:18:11.965Z</time></trkpt><trkpt lat="44.3648226" lon="10.8001264"><ele>739.5</ele><time>2026-04-18T10:18:12.965Z</time></trkpt><trkpt lat="44.364721" lon="10.8000179"><ele>740.0</ele><time>2026-04-18T10:18:13.964Z</time></trkpt><trkpt lat="44.3646194" lon="10.7999096"><ele>740.5</ele><time>2026-04-18T10:18:14.965Z</time></trkpt><trkpt lat="44.3645241" lon="10.7998006"><ele>741.0</ele><time>2026-04-18T10:18:15.965Z</time></trkpt><trkpt lat="44.3644316" lon="10.7996941"><ele>741.5999999999999</ele><time>2026-04-18T10:18:16.965Z</time></trkpt><trkpt lat="44.3643461" lon="10.7995952"><ele>742.2</ele><time>2026-04-18T10:18:17.965Z</time></trkpt><trkpt lat="44.36426" lon="10.7995009"><ele>742.8</ele><time>2026-04-18T10:18:18.965Z</time></trkpt><trkpt lat="44.3641777" lon="10.7994146"><ele>743.4000000000001</ele><time>2026-04-18T10:18:19.964Z</time></trkpt><trkpt lat="44.3640887" lon="10.7993194"><ele>744.0</ele><time>2026-04-18T10:18:20.965Z</time></trkpt><trkpt lat="44.3639927" lon="10.799237"><ele>744.4000000000001</ele><time>2026-04-18T10:18:21.964Z</time></trkpt><trkpt lat="44.3638967" lon="10.7991519"><ele>744.8</ele><time>2026-04-18T10:18:22.965Z</time></trkpt><trkpt lat="44.3638121" lon="10.7990781"><ele>745.2</ele><time>2026-04-18T10:18:23.964Z</time></trkpt><trkpt lat="44.3637265" lon="10.7990085"><ele>745.5999999999999</ele><time>2026-04-18T10:18:24.965Z</time></trkpt><trkpt lat="44.3636516" lon="10.7989397"><ele>746.0</ele><time>2026-04-18T10:18:25.964Z</time></trkpt><trkpt lat="44.3635867" lon="10.7988495"><ele>747.0</ele><time>2026-04-18T10:18:26.964Z</time></trkpt><trkpt lat="44.3635268" lon="10.7987476"><ele>748.0</ele><time>2026-04-18T10:18:27.964Z</time></trkpt><trkpt lat="44.3634497" lon="10.7986601"><ele>749.0</ele><time>2026-04-18T10:18:28.964Z</time></trkpt><trkpt lat="44.3633658" lon="10.7985972"><ele>750.0</ele><time>2026-04-18T10:18:29.964Z</time></trkpt><trkpt lat="44.3632865" lon="10.7985482"><ele>751.0</ele><time>2026-04-18T10:18:30.965Z</time></trkpt><trkpt lat="44.3632176" lon="10.7985056"><ele>751.0</ele><time>2026-04-18T10:18:31.964Z</time></trkpt><trkpt lat="44.3631135" lon="10.7984452"><ele>751.0</ele><time>2026-04-18T10:18:33.965Z</time></trkpt><trkpt lat="44.3630391" lon="10.7983934"><ele>751.0</ele><time>2026-04-18T10:18:35.964Z</time></trkpt><trkpt lat="44.362977" lon="10.7983425"><ele>751.0</ele><time>2026-04-18T10:18:37.964Z</time></trkpt><trkpt lat="44.3628997" lon="10.7982402"><ele>751.0</ele><time>2026-04-18T10:18:39.965Z</time></trkpt><trkpt lat="44.3628191" lon="10.7981063"><ele>751.0</ele><time>2026-04-18T10:18:41.965Z</time></trkpt><trkpt lat="44.3627773" lon="10.7980298"><ele>751.0</ele><time>2026-04-18T10:18:42.965Z</time></trkpt><trkpt lat="44.3627335" lon="10.7979455"><ele>751.0</ele><time>2026-04-18T10:18:43.964Z</time></trkpt><trkpt lat="44.3627034" lon="10.7978452"><ele>751.0</ele><time>2026-04-18T10:18:44.965Z</time></trkpt><trkpt lat="44.3626813" lon="10.7977303"><ele>751.0</ele><time>2026-04-18T10:18:45.964Z</time></trkpt><trkpt lat="44.3626583" lon="10.7976052"><ele>751.0</ele><time>2026-04-18T10:18:46.965Z</time></trkpt><trkpt lat="44.362625" lon="10.7974741"><ele>751.5</ele><time>2026-04-18T10:18:47.964Z</time></trkpt><trkpt lat="44.3625845" lon="10.797334"><ele>752.0</ele><time>2026-04-18T10:18:48.964Z</time></trkpt><trkpt lat="44.362541" lon="10.7971872"><ele>752.5</ele><time>2026-04-18T10:18:49.965Z</time></trkpt><trkpt lat="44.3624942" lon="10.7970267"><ele>753.0</ele><time>2026-04-18T10:18:50.965Z</time></trkpt><trkpt lat="44.3624458" lon="10.7968636"><ele>753.25</ele><time>2026-04-18T10:18:51.964Z</time></trkpt><trkpt lat="44.3624026" lon="10.7967078"><ele>753.5</ele><time>2026-04-18T10:18:52.964Z</time></trkpt><trkpt lat="44.3623572" lon="10.796546"><ele>753.75</ele><time>2026-04-18T10:18:53.965Z</time></trkpt><trkpt lat="44.3623103" lon="10.7963848"><ele>754.0</ele><time>2026-04-18T10:18:54.965Z</time></trkpt><trkpt lat="44.3622666" lon="10.7962237"><ele>754.0</ele><time>2026-04-18T10:18:55.964Z</time></trkpt><trkpt lat="44.362222" lon="10.796062"><ele>754.0</ele><time>2026-04-18T10:18:56.964Z</time></trkpt><trkpt lat="44.3621819" lon="10.7959027"><ele>754.0</ele><time>2026-04-18T10:18:57.965Z</time></trkpt><trkpt lat="44.3621439" lon="10.7957379"><ele>754.0</ele><time>2026-04-18T10:18:58.965Z</time></trkpt><trkpt lat="44.3621023" lon="10.7955722"><ele>752.5</ele><time>2026-04-18T10:18:59.964Z</time></trkpt><trkpt lat="44.362058" lon="10.7954056"><ele>751.0</ele><time>2026-04-18T10:19:00.965Z</time></trkpt><trkpt lat="44.3620108" lon="10.7952452"><ele>749.5</ele><time>2026-04-18T10:19:01.964Z</time></trkpt><trkpt lat="44.3619414" lon="10.7950675"><ele>748.0</ele><time>2026-04-18T10:19:02.964Z</time></trkpt><trkpt lat="44.3618546" lon="10.7948931"><ele>748.0</ele><time>2026-04-18T10:19:03.964Z</time></trkpt><trkpt lat="44.3617591" lon="10.7947122"><ele>748.0</ele><time>2026-04-18T10:19:04.964Z</time></trkpt><trkpt lat="44.3616658" lon="10.7945317"><ele>748.0</ele><time>2026-04-18T10:19:05.965Z</time></trkpt><trkpt lat="44.3615811" lon="10.7943628"><ele>748.5999999999999</ele><time>2026-04-18T10:19:06.964Z</time></trkpt><trkpt lat="44.3615064" lon="10.7942108"><ele>749.1999999999999</ele><time>2026-04-18T10:19:07.964Z</time></trkpt><trkpt lat="44.3614433" lon="10.7940771"><ele>749.8</ele><time>2026-04-18T10:19:08.964Z</time></trkpt><trkpt lat="44.3613955" lon="10.7939596"><ele>750.4</ele><time>2026-04-18T10:19:09.965Z</time></trkpt><trkpt lat="44.3613497" lon="10.7938472"><ele>751.0</ele><time>2026-04-18T10:19:10.964Z</time></trkpt><trkpt lat="44.3612831" lon="10.793748"><ele>751.0</ele><time>2026-04-18T10:19:11.964Z</time></trkpt><trkpt lat="44.3612023" lon="10.7936479"><ele>751.0</ele><time>2026-04-18T10:19:12.964Z</time></trkpt><trkpt lat="44.3611144" lon="10.7935443"><ele>751.0</ele><time>2026-04-18T10:19:13.964Z</time></trkpt><trkpt lat="44.3610238" lon="10.793446"><ele>751.0</ele><time>2026-04-18T10:19:14.965Z</time></trkpt><trkpt lat="44.3608959" lon="10.7933907"><ele>750.5</ele><time>2026-04-18T10:19:15.965Z</time></trkpt><trkpt lat="44.3607686" lon="10.7933339"><ele>750.0</ele><time>2026-04-18T10:19:16.964Z</time></trkpt><trkpt lat="44.3606318" lon="10.7932684"><ele>749.5</ele><time>2026-04-18T10:19:17.964Z</time></trkpt><trkpt lat="44.3605038" lon="10.7932045"><ele>749.0</ele><time>2026-04-18T10:19:18.965Z</time></trkpt><trkpt lat="44.3603802" lon="10.7931388"><ele>747.5</ele><time>2026-04-18T10:19:19.965Z</time></trkpt><trkpt lat="44.360264" lon="10.793075"><ele>746.0</ele><time>2026-04-18T10:19:20.964Z</time></trkpt><trkpt lat="44.3601487" lon="10.7930081"><ele>744.5</ele><time>2026-04-18T10:19:21.964Z</time></trkpt><trkpt lat="44.3600511" lon="10.792931"><ele>743.0</ele><time>2026-04-18T10:19:22.964Z</time></trkpt><trkpt lat="44.3599731" lon="10.7928467"><ele>743.0</ele><time>2026-04-18T10:19:23.964Z</time></trkpt><trkpt lat="44.3599262" lon="10.7927511"><ele>743.0</ele><time>2026-04-18T10:19:24.964Z</time></trkpt><trkpt lat="44.3598884" lon="10.7926496"><ele>743.0</ele><time>2026-04-18T10:19:25.965Z</time></trkpt><trkpt lat="44.3598904" lon="10.7925053"><ele>743.0</ele><time>2026-04-18T10:19:26.964Z</time></trkpt><trkpt lat="44.3598575" lon="10.7923786"><ele>743.0</ele><time>2026-04-18T10:19:27.964Z</time></trkpt><trkpt lat="44.3597972" lon="10.7922619"><ele>742.0</ele><time>2026-04-18T10:19:28.964Z</time></trkpt><trkpt lat="44.3597195" lon="10.792147"><ele>741.0</ele><time>2026-04-18T10:19:29.964Z</time></trkpt><trkpt lat="44.3596293" lon="10.792023"><ele>740.0</ele><time>2026-04-18T10:19:30.964Z</time></trkpt><trkpt lat="44.3595442" lon="10.7919014"><ele>739.0</ele><time>2026-04-18T10:19:31.964Z</time></trkpt><trkpt lat="44.3594619" lon="10.791777"><ele>735.25</ele><time>2026-04-18T10:19:32.964Z</time></trkpt><trkpt lat="44.359376" lon="10.7916612"><ele>731.5</ele><time>2026-04-18T10:19:33.964Z</time></trkpt><trkpt lat="44.3592828" lon="10.791569"><ele>727.75</ele><time>2026-04-18T10:19:34.964Z</time></trkpt><trkpt lat="44.3591827" lon="10.7914941"><ele>724.0</ele><time>2026-04-18T10:19:35.964Z</time></trkpt><trkpt lat="44.3590898" lon="10.7914247"><ele>724.0</ele><time>2026-04-18T10:19:36.965Z</time></trkpt><trkpt lat="44.358993" lon="10.7913682"><ele>724.0</ele><time>2026-04-18T10:19:37.965Z</time></trkpt><trkpt lat="44.3588897" lon="10.7913426"><ele>724.0</ele><time>2026-04-18T10:19:38.964Z</time></trkpt><trkpt lat="44.358786" lon="10.7913436"><ele>724.0</ele><time>2026-04-18T10:19:39.964Z</time></trkpt><trkpt lat="44.3586863" lon="10.7913452"><ele>724.0</ele><time>2026-04-18T10:19:40.964Z</time></trkpt><trkpt lat="44.3585976" lon="10.7913162"><ele>722.2</ele><time>2026-04-18T10:19:41.964Z</time></trkpt><trkpt lat="44.3585119" lon="10.7912471"><ele>720.4000000000001</ele><time>2026-04-18T10:19:42.964Z</time></trkpt><trkpt lat="44.3584304" lon="10.7911499"><ele>718.6</ele><time>2026-04-18T10:19:43.964Z</time></trkpt><trkpt lat="44.3583476" lon="10.7910579"><ele>716.8</ele><time>2026-04-18T10:19:44.964Z</time></trkpt><trkpt lat="44.3582598" lon="10.7909818"><ele>715.0</ele><time>2026-04-18T10:19:45.964Z</time></trkpt><trkpt lat="44.3581676" lon="10.7909111"><ele>713.2</ele><time>2026-04-18T10:19:46.965Z</time></trkpt><trkpt lat="44.3580716" lon="10.7908436"><ele>711.4</ele><time>2026-04-18T10:19:47.965Z</time></trkpt><trkpt lat="44.3579806" lon="10.7907883"><ele>709.5999999999999</ele><time>2026-04-18T10:19:48.965Z</time></trkpt><trkpt lat="44.3578913" lon="10.7907451"><ele>707.8</ele><time>2026-04-18T10:19:49.964Z</time></trkpt><trkpt lat="44.3578086" lon="10.7906795"><ele>706.0</ele><time>2026-04-18T10:19:50.964Z</time></trkpt><trkpt lat="44.3577288" lon="10.7905954"><ele>703.5999999999999</ele><time>2026-04-18T10:19:51.964Z</time></trkpt><trkpt lat="44.3576377" lon="10.790526"><ele>701.2</ele><time>2026-04-18T10:19:52.964Z</time></trkpt><trkpt lat="44.3575455" lon="10.7904546"><ele>698.8</ele><time>2026-04-18T10:19:53.964Z</time></trkpt><trkpt lat="44.3574558" lon="10.7903729"><ele>696.4000000000001</ele><time>2026-04-18T10:19:54.965Z</time></trkpt><trkpt lat="44.3573691" lon="10.7902787"><ele>694.0</ele><time>2026-04-18T10:19:55.965Z</time></trkpt><trkpt lat="44.3572855" lon="10.7901731"><ele>691.6</ele><time>2026-04-18T10:19:56.965Z</time></trkpt><trkpt lat="44.3572152" lon="10.7900575"><ele>689.2</ele><time>2026-04-18T10:19:57.965Z</time></trkpt><trkpt lat="44.3571528" lon="10.78994"><ele>686.8000000000001</ele><time>2026-04-18T10:19:58.965Z</time></trkpt><trkpt lat="44.3570944" lon="10.7898268"><ele>684.4000000000001</ele><time>2026-04-18T10:19:59.965Z</time></trkpt><trkpt lat="44.3570449" lon="10.7897124"><ele>682.0</ele><time>2026-04-18T10:20:00.964Z</time></trkpt><trkpt lat="44.356996" lon="10.7896009"><ele>680.0</ele><time>2026-04-18T10:20:01.965Z</time></trkpt><trkpt lat="44.3569457" lon="10.7894973"><ele>678.0</ele><time>2026-04-18T10:20:02.965Z</time></trkpt><trkpt lat="44.3568993" lon="10.789399"><ele>676.0</ele><time>2026-04-18T10:20:03.965Z</time></trkpt><trkpt lat="44.3568564" lon="10.7893073"><ele>674.0</ele><time>2026-04-18T10:20:04.964Z</time></trkpt><trkpt lat="44.3568178" lon="10.789226"><ele>672.0</ele><time>2026-04-18T10:20:05.964Z</time></trkpt><trkpt lat="44.3567828" lon="10.7891487"><ele>670.0</ele><time>2026-04-18T10:20:06.964Z</time></trkpt><trkpt lat="44.3567212" lon="10.789034"><ele>668.8571428571428</ele><time>2026-04-18T10:20:08.964Z</time></trkpt><trkpt lat="44.3566834" lon="10.7889627"><ele>667.7142857142857</ele><time>2026-04-18T10:20:10.964Z</time></trkpt><trkpt lat="44.3566331" lon="10.7888838"><ele>666.5714285714286</ele><time>2026-04-18T10:21:00.965Z</time></trkpt><trkpt lat="44.3565719" lon="10.7888329"><ele>665.4285714285713</ele><time>2026-04-18T10:21:02.964Z</time></trkpt><trkpt lat="44.3565138" lon="10.7887965"><ele>664.2857142857142</ele><time>2026-04-18T10:21:04.964Z</time></trkpt><trkpt lat="44.3564462" lon="10.7887491"><ele>663.1428571428571</ele><time>2026-04-18T10:21:06.964Z</time></trkpt><trkpt lat="44.3563656" lon="10.7886981"><ele>662.0</ele><time>2026-04-18T10:21:08.964Z</time></trkpt><trkpt lat="44.3562729" lon="10.7886595"><ele>659.4000000000001</ele><time>2026-04-18T10:21:10.964Z</time></trkpt><trkpt lat="44.3561764" lon="10.7886191"><ele>656.8000000000001</ele><time>2026-04-18T10:21:12.965Z</time></trkpt><trkpt lat="44.3560976" lon="10.7885167"><ele>654.2</ele><time>2026-04-18T10:21:14.965Z</time></trkpt><trkpt lat="44.3560451" lon="10.7884078"><ele>651.6</ele><time>2026-04-18T10:21:16.965Z</time></trkpt><trkpt lat="44.3560004" lon="10.7882772"><ele>649.0</ele><time>2026-04-18T10:21:18.965Z</time></trkpt><trkpt lat="44.3559983" lon="10.7881876"><ele>648.5</ele><time>2026-04-18T10:21:19.964Z</time></trkpt><trkpt lat="44.3559882" lon="10.7880935"><ele>648.0</ele><time>2026-04-18T10:21:20.964Z</time></trkpt><trkpt lat="44.3559684" lon="10.787985"><ele>647.5</ele><time>2026-04-18T10:21:21.964Z</time></trkpt><trkpt lat="44.355929" lon="10.787872"><ele>647.0</ele><time>2026-04-18T10:21:22.964Z</time></trkpt><trkpt lat="44.3558723" lon="10.7877586"><ele>646.5</ele><time>2026-04-18T10:21:23.965Z</time></trkpt><trkpt lat="44.3558084" lon="10.7876396"><ele>646.0</ele><time>2026-04-18T10:21:24.965Z</time></trkpt><trkpt lat="44.3557412" lon="10.7875186"><ele>643.5999999999999</ele><time>2026-04-18T10:21:25.964Z</time></trkpt><trkpt lat="44.3556726" lon="10.7874"><ele>641.1999999999999</ele><time>2026-04-18T10:21:26.964Z</time></trkpt><trkpt lat="44.3555989" lon="10.7872912"><ele>638.8</ele><time>2026-04-18T10:21:27.964Z</time></trkpt><trkpt lat="44.3555205" lon="10.7871879"><ele>636.4</ele><time>2026-04-18T10:21:28.965Z</time></trkpt><trkpt lat="44.3554435" lon="10.7870875"><ele>634.0</ele><time>2026-04-18T10:21:29.964Z</time></trkpt><trkpt lat="44.3553699" lon="10.786975"><ele>631.5</ele><time>2026-04-18T10:21:30.965Z</time></trkpt><trkpt lat="44.3553045" lon="10.7868465"><ele>629.0</ele><time>2026-04-18T10:21:31.965Z</time></trkpt><trkpt lat="44.3552402" lon="10.786709"><ele>626.5</ele><time>2026-04-18T10:21:32.964Z</time></trkpt><trkpt lat="44.3551831" lon="10.7865702"><ele>624.0</ele><time>2026-04-18T10:21:33.964Z</time></trkpt><trkpt lat="44.3551259" lon="10.7864353"><ele>622.4</ele><time>2026-04-18T10:21:34.964Z</time></trkpt><trkpt lat="44.3550724" lon="10.78631"><ele>620.8</ele><time>2026-04-18T10:21:35.964Z</time></trkpt><trkpt lat="44.3550215" lon="10.7861996"><ele>619.2</ele><time>2026-04-18T10:21:36.965Z</time></trkpt><trkpt lat="44.3549796" lon="10.7861072"><ele>617.6</ele><time>2026-04-18T10:21:37.964Z</time></trkpt><trkpt lat="44.3549367" lon="10.7859578"><ele>616.0</ele><time>2026-04-18T10:21:39.964Z</time></trkpt><trkpt lat="44.3549899" lon="10.7858771"><ele>615.0</ele><time>2026-04-18T10:21:41.964Z</time></trkpt><trkpt lat="44.3551031" lon="10.785884"><ele>614.0</ele><time>2026-04-18T10:21:43.965Z</time></trkpt><trkpt lat="44.3551734" lon="10.7858922"><ele>613.0</ele><time>2026-04-18T10:21:44.964Z</time></trkpt><trkpt lat="44.3552487" lon="10.7859058"><ele>612.0</ele><time>2026-04-18T10:21:45.964Z</time></trkpt><trkpt lat="44.3553285" lon="10.7859186"><ele>611.0</ele><time>2026-04-18T10:21:46.965Z</time></trkpt><trkpt lat="44.3554076" lon="10.7859285"><ele>610.0</ele><time>2026-04-18T10:21:47.964Z</time></trkpt><trkpt lat="44.355484" lon="10.7859319"><ele>608.4</ele><time>2026-04-18T10:21:48.965Z</time></trkpt><trkpt lat="44.3555927" lon="10.785934"><ele>606.8</ele><time>2026-04-18T10:21:50.965Z</time></trkpt><trkpt lat="44.3556717" lon="10.7859287"><ele>605.2</ele><time>2026-04-18T10:21:52.964Z</time></trkpt><trkpt lat="44.355733" lon="10.785849"><ele>603.6</ele><time>2026-04-18T10:21:56.964Z</time></trkpt><trkpt lat="44.355744" lon="10.7857325"><ele>602.0</ele><time>2026-04-18T10:21:59.964Z</time></trkpt><trkpt lat="44.3557225" lon="10.7856023"><ele>602.0</ele><time>2026-04-18T10:22:02.964Z</time></trkpt><trkpt lat="44.355687" lon="10.7854837"><ele>602.0</ele><time>2026-04-18T10:22:04.964Z</time></trkpt><trkpt lat="44.3556288" lon="10.7853752"><ele>602.0</ele><time>2026-04-18T10:22:06.964Z</time></trkpt><trkpt lat="44.3555634" lon="10.7852607"><ele>602.0</ele><time>2026-04-18T10:22:08.964Z</time></trkpt><trkpt lat="44.3554886" lon="10.7851426"><ele>602.0</ele><time>2026-04-18T10:22:10.964Z</time></trkpt><trkpt lat="44.3554475" lon="10.7850722"><ele>602.0</ele><time>2026-04-18T10:22:11.964Z</time></trkpt><trkpt lat="44.3554131" lon="10.7849972"><ele>602.0</ele><time>2026-04-18T10:22:12.965Z</time></trkpt><trkpt lat="44.3553717" lon="10.7849014"><ele>602.0</ele><time>2026-04-18T10:22:14.965Z</time></trkpt><trkpt lat="44.3552913" lon="10.7848287"><ele>602.0</ele><time>2026-04-18T10:22:17.964Z</time></trkpt><trkpt lat="44.3552127" lon="10.7847426"><ele>602.0</ele><time>2026-04-18T10:22:19.964Z</time></trkpt><trkpt lat="44.3551277" lon="10.7846255"><ele>602.0</ele><time>2026-04-18T10:22:21.964Z</time></trkpt><trkpt lat="44.3550284" lon="10.7845384"><ele>602.0</ele><time>2026-04-18T10:22:23.964Z</time></trkpt><trkpt lat="44.3549455" lon="10.7844073"><ele>602.0</ele><time>2026-04-18T10:22:25.964Z</time></trkpt><trkpt lat="44.354889" lon="10.7842619"><ele>602.0</ele><time>2026-04-18T10:22:27.965Z</time></trkpt><trkpt lat="44.3547846" lon="10.7841681"><ele>598.8333333333333</ele><time>2026-04-18T10:22:29.964Z</time></trkpt><trkpt lat="44.3547154" lon="10.7841099"><ele>595.6666666666666</ele><time>2026-04-18T10:22:30.964Z</time></trkpt><trkpt lat="44.3546433" lon="10.7840399"><ele>592.5</ele><time>2026-04-18T10:22:31.964Z</time></trkpt><trkpt lat="44.3545835" lon="10.7839849"><ele>589.3333333333334</ele><time>2026-04-18T10:22:32.965Z</time></trkpt><trkpt lat="44.3545294" lon="10.7839377"><ele>586.1666666666667</ele><time>2026-04-18T10:22:33.965Z</time></trkpt><trkpt lat="44.3544369" lon="10.7839242"><ele>583.0</ele><time>2026-04-18T10:22:35.964Z</time></trkpt><trkpt lat="44.3543581" lon="10.7840474"><ele>583.4</ele><time>2026-04-18T10:22:37.964Z</time></trkpt><trkpt lat="44.3543029" lon="10.7841388"><ele>583.8</ele><time>2026-04-18T10:22:38.965Z</time></trkpt><trkpt lat="44.3542448" lon="10.7842262"><ele>584.2</ele><time>2026-04-18T10:22:39.964Z</time></trkpt><trkpt lat="44.3541811" lon="10.7843226"><ele>584.6</ele><time>2026-04-18T10:22:40.964Z</time></trkpt><trkpt lat="44.3541057" lon="10.7844127"><ele>585.0</ele><time>2026-04-18T10:22:41.965Z</time></trkpt><trkpt lat="44.3540372" lon="10.7845005"><ele>585.0</ele><time>2026-04-18T10:22:42.964Z</time></trkpt><trkpt lat="44.3539643" lon="10.7845952"><ele>585.0</ele><time>2026-04-18T10:22:43.964Z</time></trkpt><trkpt lat="44.3538853" lon="10.7846813"><ele>585.0</ele><time>2026-04-18T10:22:44.964Z</time></trkpt><trkpt lat="44.3538128" lon="10.784757"><ele>585.0</ele><time>2026-04-18T10:22:45.964Z</time></trkpt><trkpt lat="44.3537441" lon="10.7848257"><ele>585.0</ele><time>2026-04-18T10:22:46.965Z</time></trkpt><trkpt lat="44.3536846" lon="10.7848856"><ele>585.0</ele><time>2026-04-18T10:22:47.965Z</time></trkpt><trkpt lat="44.3536253" lon="10.7849429"><ele>582.1666666666666</ele><time>2026-04-18T10:22:48.965Z</time></trkpt><trkpt lat="44.3535694" lon="10.7850064"><ele>579.3333333333334</ele><time>2026-04-18T10:22:49.964Z</time></trkpt><trkpt lat="44.3535119" lon="10.7850698"><ele>576.5</ele><time>2026-04-18T10:22:50.964Z</time></trkpt><trkpt lat="44.3534557" lon="10.7851368"><ele>573.6666666666667</ele><time>2026-04-18T10:22:51.965Z</time></trkpt><trkpt lat="44.353399" lon="10.7852198"><ele>570.8333333333334</ele><time>2026-04-18T10:22:52.965Z</time></trkpt><trkpt lat="44.3533402" lon="10.7853007"><ele>568.0</ele><time>2026-04-18T10:22:53.964Z</time></trkpt><trkpt lat="44.3532834" lon="10.7853842"><ele>568.0</ele><time>2026-04-18T10:22:54.964Z</time></trkpt><trkpt lat="44.3532321" lon="10.7854801"><ele>568.0</ele><time>2026-04-18T10:22:55.965Z</time></trkpt><trkpt lat="44.3531915" lon="10.78558"><ele>568.0</ele><time>2026-04-18T10:22:56.965Z</time></trkpt><trkpt lat="44.3531571" lon="10.7856877"><ele>568.0</ele><time>2026-04-18T10:22:57.964Z</time></trkpt><trkpt lat="44.353138" lon="10.7857995"><ele>568.0</ele><time>2026-04-18T10:22:58.964Z</time></trkpt><trkpt lat="44.3531295" lon="10.7859087"><ele>568.0</ele><time>2026-04-18T10:22:59.964Z</time></trkpt><trkpt lat="44.3531283" lon="10.7860339"><ele>569.0</ele><time>2026-04-18T10:23:00.964Z</time></trkpt><trkpt lat="44.3531232" lon="10.7861768"><ele>570.0</ele><time>2026-04-18T10:23:01.964Z</time></trkpt><trkpt lat="44.3531209" lon="10.7862993"><ele>571.0</ele><time>2026-04-18T10:23:02.965Z</time></trkpt><trkpt lat="44.3531175" lon="10.7864196"><ele>572.0</ele><time>2026-04-18T10:23:03.965Z</time></trkpt><trkpt lat="44.3530851" lon="10.7865065"><ele>573.0</ele><time>2026-04-18T10:23:04.965Z</time></trkpt><trkpt lat="44.3530444" lon="10.7865863"><ele>574.0</ele><time>2026-04-18T10:23:05.965Z</time></trkpt><trkpt lat="44.3529866" lon="10.7866673"><ele>571.5</ele><time>2026-04-18T10:23:06.964Z</time></trkpt><trkpt lat="44.3529257" lon="10.7867511"><ele>569.0</ele><time>2026-04-18T10:23:07.964Z</time></trkpt><trkpt lat="44.3528593" lon="10.7868332"><ele>566.5</ele><time>2026-04-18T10:23:08.965Z</time></trkpt><trkpt lat="44.3527908" lon="10.7869182"><ele>564.0</ele><time>2026-04-18T10:23:09.964Z</time></trkpt><trkpt lat="44.3527247" lon="10.7870054"><ele>561.5</ele><time>2026-04-18T10:23:10.965Z</time></trkpt><trkpt lat="44.3526618" lon="10.7870976"><ele>559.0</ele><time>2026-04-18T10:23:11.964Z</time></trkpt><trkpt lat="44.3525997" lon="10.7871803"><ele>559.0</ele><time>2026-04-18T10:23:12.965Z</time></trkpt><trkpt lat="44.3525413" lon="10.7872572"><ele>559.0</ele><time>2026-04-18T10:23:13.964Z</time></trkpt><trkpt lat="44.3524838" lon="10.787327"><ele>559.0</ele><time>2026-04-18T10:23:14.965Z</time></trkpt><trkpt lat="44.3524337" lon="10.7873941"><ele>559.0</ele><time>2026-04-18T10:23:15.964Z</time></trkpt><trkpt lat="44.3523854" lon="10.7874593"><ele>559.0</ele><time>2026-04-18T10:23:16.964Z</time></trkpt><trkpt lat="44.3523077" lon="10.7875663"><ele>559.0</ele><time>2026-04-18T10:23:18.964Z</time></trkpt><trkpt lat="44.3522274" lon="10.7876732"><ele>557.0</ele><time>2026-04-18T10:23:20.965Z</time></trkpt><trkpt lat="44.352182" lon="10.7877407"><ele>555.0</ele><time>2026-04-18T10:23:21.964Z</time></trkpt><trkpt lat="44.3521271" lon="10.787889"><ele>553.0</ele><time>2026-04-18T10:23:23.964Z</time></trkpt><trkpt lat="44.3520907" lon="10.7880594"><ele>551.0</ele><time>2026-04-18T10:23:25.964Z</time></trkpt><trkpt lat="44.3520755" lon="10.7881488"><ele>549.0</ele><time>2026-04-18T10:23:26.965Z</time></trkpt><trkpt lat="44.3520568" lon="10.7882436"><ele>547.0</ele><time>2026-04-18T10:23:27.964Z</time></trkpt><trkpt lat="44.3520364" lon="10.7883455"><ele>547.0</ele><time>2026-04-18T10:23:28.964Z</time></trkpt><trkpt lat="44.3520146" lon="10.7884497"><ele>547.0</ele><time>2026-04-18T10:23:29.964Z</time></trkpt><trkpt lat="44.3519937" lon="10.7885612"><ele>547.0</ele><time>2026-04-18T10:23:30.964Z</time></trkpt><trkpt lat="44.3519683" lon="10.7886549"><ele>547.0</ele><time>2026-04-18T10:23:31.965Z</time></trkpt><trkpt lat="44.3519464" lon="10.7887543"><ele>547.0</ele><time>2026-04-18T10:23:32.965Z</time></trkpt><trkpt lat="44.3519182" lon="10.7888739"><ele>547.0</ele><time>2026-04-18T10:23:34.965Z</time></trkpt><trkpt lat="44.3519001" lon="10.788983"><ele>548.4</ele><time>2026-04-18T10:23:36.964Z</time></trkpt><trkpt lat="44.3518889" lon="10.7891426"><ele>549.8000000000001</ele><time>2026-04-18T10:23:38.964Z</time></trkpt><trkpt lat="44.351873" lon="10.7893134"><ele>551.2</ele><time>2026-04-18T10:23:40.965Z</time></trkpt><trkpt lat="44.3518234" lon="10.7894348"><ele>552.6</ele><time>2026-04-18T10:23:42.964Z</time></trkpt><trkpt lat="44.3517348" lon="10.7894855"><ele>554.0</ele><time>2026-04-18T10:23:44.964Z</time></trkpt><trkpt lat="44.3516236" lon="10.7894313"><ele>554.0</ele><time>2026-04-18T10:23:46.964Z</time></trkpt><trkpt lat="44.3515039" lon="10.7893572"><ele>554.0</ele><time>2026-04-18T10:23:48.965Z</time></trkpt><trkpt lat="44.3514335" lon="10.7893348"><ele>554.0</ele><time>2026-04-18T10:23:49.965Z</time></trkpt><trkpt lat="44.3513632" lon="10.789314"><ele>554.0</ele><time>2026-04-18T10:23:50.964Z</time></trkpt><trkpt lat="44.3512935" lon="10.7892831"><ele>554.0</ele><time>2026-04-18T10:23:51.965Z</time></trkpt><trkpt lat="44.3512254" lon="10.7892443"><ele>554.0</ele><time>2026-04-18T10:23:52.964Z</time></trkpt><trkpt lat="44.3511198" lon="10.7892076"><ele>554.3333333333333</ele><time>2026-04-18T10:23:54.965Z</time></trkpt><trkpt lat="44.3510869" lon="10.7891179"><ele>554.6666666666666</ele><time>2026-04-18T10:23:57.964Z</time></trkpt><trkpt lat="44.3511066" lon="10.7890012"><ele>555.0</ele><time>2026-04-18T10:23:59.965Z</time></trkpt><trkpt lat="44.3511059" lon="10.7888264"><ele>555.3333333333334</ele><time>2026-04-18T10:24:01.964Z</time></trkpt><trkpt lat="44.3510883" lon="10.7887265"><ele>555.6666666666667</ele><time>2026-04-18T10:24:02.965Z</time></trkpt><trkpt lat="44.351061" lon="10.7886288"><ele>556.0</ele><time>2026-04-18T10:24:03.964Z</time></trkpt><trkpt lat="44.3510297" lon="10.7885325"><ele>554.4285714285714</ele><time>2026-04-18T10:24:04.964Z</time></trkpt><trkpt lat="44.3510087" lon="10.7884418"><ele>552.8571428571429</ele><time>2026-04-18T10:24:05.964Z</time></trkpt><trkpt lat="44.3509938" lon="10.7883515"><ele>551.2857142857143</ele><time>2026-04-18T10:24:06.964Z</time></trkpt><trkpt lat="44.3509933" lon="10.7882614"><ele>549.7142857142858</ele><time>2026-04-18T10:24:07.964Z</time></trkpt><trkpt lat="44.3510003" lon="10.7881659"><ele>548.1428571428572</ele><time>2026-04-18T10:24:08.964Z</time></trkpt><trkpt lat="44.3510061" lon="10.788071"><ele>546.5714285714286</ele><time>2026-04-18T10:24:09.965Z</time></trkpt><trkpt lat="44.350961" lon="10.787945"><ele>545.0</ele><time>2026-04-18T10:24:11.964Z</time></trkpt><trkpt lat="44.3508464" lon="10.7878563"><ele>545.0</ele><time>2026-04-18T10:24:13.964Z</time></trkpt><trkpt lat="44.3507748" lon="10.7878095"><ele>545.0</ele><time>2026-04-18T10:24:14.964Z</time></trkpt><trkpt lat="44.3506845" lon="10.7877651"><ele>545.0</ele><time>2026-04-18T10:24:15.964Z</time></trkpt><trkpt lat="44.3506063" lon="10.7877281"><ele>545.0</ele><time>2026-04-18T10:24:16.964Z</time></trkpt><trkpt lat="44.3505142" lon="10.7876894"><ele>545.0</ele><time>2026-04-18T10:24:17.965Z</time></trkpt><trkpt lat="44.3504277" lon="10.7876471"><ele>545.0</ele><time>2026-04-18T10:24:18.964Z</time></trkpt><trkpt lat="44.3503454" lon="10.7876158"><ele>542.6</ele><time>2026-04-18T10:24:19.965Z</time></trkpt><trkpt lat="44.3502778" lon="10.7875895"><ele>540.2</ele><time>2026-04-18T10:24:20.964Z</time></trkpt><trkpt lat="44.3501668" lon="10.7875256"><ele>537.8</ele><time>2026-04-18T10:24:22.964Z</time></trkpt><trkpt lat="44.3500486" lon="10.7874567"><ele>535.4</ele><time>2026-04-18T10:24:24.965Z</time></trkpt><trkpt lat="44.3499852" lon="10.7874201"><ele>533.0</ele><time>2026-04-18T10:24:25.964Z</time></trkpt><trkpt lat="44.3499243" lon="10.7873718"><ele>533.0</ele><time>2026-04-18T10:24:26.964Z</time></trkpt><trkpt lat="44.3498617" lon="10.7873356"><ele>533.0</ele><time>2026-04-18T10:24:27.964Z</time></trkpt><trkpt lat="44.3497978" lon="10.7873004"><ele>533.0</ele><time>2026-04-18T10:24:28.964Z</time></trkpt><trkpt lat="44.3497271" lon="10.7872699"><ele>533.0</ele><time>2026-04-18T10:24:29.965Z</time></trkpt><trkpt lat="44.3496574" lon="10.7872348"><ele>533.0</ele><time>2026-04-18T10:24:30.965Z</time></trkpt><trkpt lat="44.3495499" lon="10.7871647"><ele>533.0</ele><time>2026-04-18T10:24:32.964Z</time></trkpt><trkpt lat="44.3494524" lon="10.7870748"><ele>531.1999999999999</ele><time>2026-04-18T10:24:34.964Z</time></trkpt><trkpt lat="44.3493879" lon="10.7869769"><ele>529.4</ele><time>2026-04-18T10:24:36.964Z</time></trkpt><trkpt lat="44.3493816" lon="10.7868278"><ele>527.5999999999999</ele><time>2026-04-18T10:24:38.965Z</time></trkpt><trkpt lat="44.3494188" lon="10.7866579"><ele>525.8</ele><time>2026-04-18T10:24:40.965Z</time></trkpt><trkpt lat="44.3494425" lon="10.7865761"><ele>524.0</ele><time>2026-04-18T10:24:41.965Z</time></trkpt><trkpt lat="44.3494722" lon="10.7864952"><ele>523.7142857142858</ele><time>2026-04-18T10:24:42.965Z</time></trkpt><trkpt lat="44.3495028" lon="10.786414"><ele>523.4285714285714</ele><time>2026-04-18T10:24:43.964Z</time></trkpt><trkpt lat="44.3495426" lon="10.7863407"><ele>523.1428571428571</ele><time>2026-04-18T10:24:44.965Z</time></trkpt><trkpt lat="44.3495877" lon="10.7862766"><ele>522.8571428571429</ele><time>2026-04-18T10:24:45.964Z</time></trkpt><trkpt lat="44.3496432" lon="10.7862214"><ele>522.5714285714286</ele><time>2026-04-18T10:24:46.964Z</time></trkpt><trkpt lat="44.3497033" lon="10.7861709"><ele>522.2857142857143</ele><time>2026-04-18T10:24:47.964Z</time></trkpt><trkpt lat="44.3497693" lon="10.7861239"><ele>522.0</ele><time>2026-04-18T10:24:48.965Z</time></trkpt><trkpt lat="44.3498302" lon="10.7860872"><ele>522.5714285714286</ele><time>2026-04-18T10:24:49.964Z</time></trkpt><trkpt lat="44.349893" lon="10.7860524"><ele>523.1428571428571</ele><time>2026-04-18T10:24:50.964Z</time></trkpt><trkpt lat="44.3499551" lon="10.7860272"><ele>523.7142857142857</ele><time>2026-04-18T10:24:51.964Z</time></trkpt><trkpt lat="44.3500174" lon="10.7859928"><ele>524.2857142857142</ele><time>2026-04-18T10:24:52.964Z</time></trkpt><trkpt lat="44.3500814" lon="10.785956"><ele>524.8571428571428</ele><time>2026-04-18T10:24:53.965Z</time></trkpt><trkpt lat="44.3501477" lon="10.785912"><ele>525.4285714285714</ele><time>2026-04-18T10:24:54.964Z</time></trkpt><trkpt lat="44.3502085" lon="10.7858603"><ele>526.0</ele><time>2026-04-18T10:24:55.964Z</time></trkpt><trkpt lat="44.3502703" lon="10.7857911"><ele>524.8333333333334</ele><time>2026-04-18T10:24:56.965Z</time></trkpt><trkpt lat="44.3503251" lon="10.7857199"><ele>523.6666666666667</ele><time>2026-04-18T10:24:57.965Z</time></trkpt><trkpt lat="44.3503763" lon="10.7856565"><ele>522.5</ele><time>2026-04-18T10:24:58.964Z</time></trkpt><trkpt lat="44.3504323" lon="10.7855943"><ele>521.3333333333334</ele><time>2026-04-18T10:24:59.964Z</time></trkpt><trkpt lat="44.3504899" lon="10.7855483"><ele>520.1666666666666</ele><time>2026-04-18T10:25:00.964Z</time></trkpt><trkpt lat="44.3505868" lon="10.7854532"><ele>519.0</ele><time>2026-04-18T10:25:02.965Z</time></trkpt><trkpt lat="44.3506624" lon="10.7853491"><ele>519.0</ele><time>2026-04-18T10:25:04.965Z</time></trkpt><trkpt lat="44.3507554" lon="10.7852702"><ele>519.0</ele><time>2026-04-18T10:25:06.965Z</time></trkpt><trkpt lat="44.3508419" lon="10.7851855"><ele>519.0</ele><time>2026-04-18T10:25:08.965Z</time></trkpt><trkpt lat="44.3509273" lon="10.7851947"><ele>519.0</ele><time>2026-04-18T10:25:10.964Z</time></trkpt><trkpt lat="44.3510043" lon="10.785289"><ele>519.0</ele><time>2026-04-18T10:25:12.964Z</time></trkpt><trkpt lat="44.3510676" lon="10.7854269"><ele>519.0</ele><time>2026-04-18T10:25:14.964Z</time></trkpt><trkpt lat="44.3511341" lon="10.785451"><ele>519.0</ele><time>2026-04-18T10:25:17.965Z</time></trkpt><trkpt lat="44.3511884" lon="10.7853978"><ele>519.0</ele><time>2026-04-18T10:25:27.965Z</time></trkpt><trkpt lat="44.3512144" lon="10.7852494"><ele>519.0</ele><time>2026-04-18T10:25:29.964Z</time></trkpt><trkpt lat="44.3512308" lon="10.7851535"><ele>519.0</ele><time>2026-04-18T10:25:30.964Z</time></trkpt><trkpt lat="44.3512521" lon="10.7850577"><ele>519.0</ele><time>2026-04-18T10:25:31.965Z</time></trkpt><trkpt lat="44.351283" lon="10.7849702"><ele>519.0</ele><time>2026-04-18T10:25:32.964Z</time></trkpt><trkpt lat="44.3513281" lon="10.7848965"><ele>519.0</ele><time>2026-04-18T10:25:33.964Z</time></trkpt><trkpt lat="44.3513916" lon="10.7848057"><ele>519.0</ele><time>2026-04-18T10:25:35.964Z</time></trkpt><trkpt lat="44.351453" lon="10.7847585"><ele>519.0</ele><time>2026-04-18T10:26:27.965Z</time></trkpt><trkpt lat="44.3515035" lon="10.7846505"><ele>519.0</ele><time>2026-04-18T10:26:36.965Z</time></trkpt><trkpt lat="44.3515394" lon="10.7845655"><ele>519.0</ele><time>2026-04-18T10:26:38.965Z</time></trkpt><trkpt lat="44.3515974" lon="10.7845086"><ele>519.0</ele><time>2026-04-18T10:26:41.965Z</time></trkpt><trkpt lat="44.351685" lon="10.784484"><ele>519.0</ele><time>2026-04-18T10:26:58.964Z</time></trkpt><trkpt lat="44.3517982" lon="10.7844349"><ele>519.0</ele><time>2026-04-18T10:27:00.965Z</time></trkpt><trkpt lat="44.351907" lon="10.7843771"><ele>519.0</ele><time>2026-04-18T10:27:02.964Z</time></trkpt><trkpt lat="44.3520199" lon="10.7843074"><ele>519.0</ele><time>2026-04-18T10:27:04.964Z</time></trkpt><trkpt lat="44.3521141" lon="10.7841979"><ele>519.5</ele><time>2026-04-18T10:27:06.964Z</time></trkpt><trkpt lat="44.3521503" lon="10.7841229"><ele>520.0</ele><time>2026-04-18T10:27:07.964Z</time></trkpt><trkpt lat="44.3521902" lon="10.7840426"><ele>520.5</ele><time>2026-04-18T10:27:08.965Z</time></trkpt><trkpt lat="44.3522229" lon="10.7839573"><ele>521.0</ele><time>2026-04-18T10:27:09.965Z</time></trkpt><trkpt lat="44.3522452" lon="10.7837869"><ele>521.5</ele><time>2026-04-18T10:27:11.964Z</time></trkpt><trkpt lat="44.3522696" lon="10.7836225"><ele>522.0</ele><time>2026-04-18T10:27:13.965Z</time></trkpt><trkpt lat="44.3522698" lon="10.7835262"><ele>521.1428571428571</ele><time>2026-04-18T10:27:14.965Z</time></trkpt><trkpt lat="44.3522672" lon="10.7834275"><ele>520.2857142857142</ele><time>2026-04-18T10:27:15.965Z</time></trkpt><trkpt lat="44.3522625" lon="10.7833211"><ele>519.4285714285713</ele><time>2026-04-18T10:27:16.965Z</time></trkpt><trkpt lat="44.352262" lon="10.7832269"><ele>518.5714285714286</ele><time>2026-04-18T10:27:17.964Z</time></trkpt><trkpt lat="44.3522607" lon="10.7831369"><ele>517.7142857142857</ele><time>2026-04-18T10:27:18.965Z</time></trkpt><trkpt lat="44.3522786" lon="10.7829911"><ele>516.8571428571428</ele><time>2026-04-18T10:27:20.965Z</time></trkpt><trkpt lat="44.3523026" lon="10.7829075"><ele>516.0</ele><time>2026-04-18T10:27:21.964Z</time></trkpt><trkpt lat="44.3523352" lon="10.7828133"><ele>516.0</ele><time>2026-04-18T10:27:22.965Z</time></trkpt><trkpt lat="44.3523749" lon="10.7827112"><ele>516.0</ele><time>2026-04-18T10:27:23.964Z</time></trkpt><trkpt lat="44.3524189" lon="10.7826052"><ele>516.0</ele><time>2026-04-18T10:27:24.964Z</time></trkpt><trkpt lat="44.352461" lon="10.7825176"><ele>516.0</ele><time>2026-04-18T10:27:25.965Z</time></trkpt><trkpt lat="44.3524913" lon="10.7824331"><ele>516.0</ele><time>2026-04-18T10:27:26.965Z</time></trkpt><trkpt lat="44.3525171" lon="10.7823507"><ele>516.0</ele><time>2026-04-18T10:27:27.965Z</time></trkpt><trkpt lat="44.3524868" lon="10.7821991"><ele>516.1666666666666</ele><time>2026-04-18T10:27:29.965Z</time></trkpt><trkpt lat="44.3524602" lon="10.7820681"><ele>516.3333333333334</ele><time>2026-04-18T10:27:31.964Z</time></trkpt><trkpt lat="44.3524328" lon="10.7819854"><ele>516.5</ele><time>2026-04-18T10:27:32.964Z</time></trkpt><trkpt lat="44.3523957" lon="10.7819028"><ele>516.6666666666667</ele><time>2026-04-18T10:27:33.964Z</time></trkpt><trkpt lat="44.3523264" lon="10.7818088"><ele>516.8333333333334</ele><time>2026-04-18T10:27:35.965Z</time></trkpt><trkpt lat="44.3522535" lon="10.7818231"><ele>517.0</ele><time>2026-04-18T10:27:37.965Z</time></trkpt><trkpt lat="44.3521629" lon="10.781928"><ele>517.0</ele><time>2026-04-18T10:27:39.965Z</time></trkpt><trkpt lat="44.3521026" lon="10.7819973"><ele>517.0</ele><time>2026-04-18T10:27:40.965Z</time></trkpt><trkpt lat="44.3520217" lon="10.7820779"><ele>517.0</ele><time>2026-04-18T10:27:41.964Z</time></trkpt><trkpt lat="44.3519283" lon="10.7821619"><ele>517.0</ele><time>2026-04-18T10:27:42.964Z</time></trkpt><trkpt lat="44.3518278" lon="10.7822577"><ele>517.0</ele><time>2026-04-18T10:27:43.964Z</time></trkpt><trkpt lat="44.3517345" lon="10.7823302"><ele>517.0</ele><time>2026-04-18T10:27:44.965Z</time></trkpt><trkpt lat="44.3516112" lon="10.7824117"><ele>517.0</ele><time>2026-04-18T10:27:45.964Z</time></trkpt><trkpt lat="44.351459" lon="10.7825145"><ele>517.0</ele><time>2026-04-18T10:27:46.964Z</time></trkpt><trkpt lat="44.3513004" lon="10.7826293"><ele>520.25</ele><time>2026-04-18T10:27:47.965Z</time></trkpt><trkpt lat="44.3511764" lon="10.7827214"><ele>523.5</ele><time>2026-04-18T10:27:48.965Z</time></trkpt><trkpt lat="44.3510613" lon="10.7827931"><ele>526.75</ele><time>2026-04-18T10:27:49.965Z</time></trkpt><trkpt lat="44.3509482" lon="10.7828338"><ele>530.0</ele><time>2026-04-18T10:27:50.965Z</time></trkpt><trkpt lat="44.3508328" lon="10.7828348"><ele>530.0</ele><time>2026-04-18T10:27:51.965Z</time></trkpt><trkpt lat="44.3507178" lon="10.7828149"><ele>530.0</ele><time>2026-04-18T10:27:52.964Z</time></trkpt><trkpt lat="44.3506051" lon="10.7827818"><ele>530.0</ele><time>2026-04-18T10:27:53.965Z</time></trkpt><trkpt lat="44.3505052" lon="10.7827201"><ele>530.0</ele><time>2026-04-18T10:27:54.965Z</time></trkpt><trkpt lat="44.3504192" lon="10.7826199"><ele>532.0</ele><time>2026-04-18T10:27:55.964Z</time></trkpt><trkpt lat="44.3503495" lon="10.7824961"><ele>534.0</ele><time>2026-04-18T10:27:56.964Z</time></trkpt><trkpt lat="44.350314" lon="10.7823807"><ele>536.0</ele><time>2026-04-18T10:27:57.965Z</time></trkpt><trkpt lat="44.3503208" lon="10.7822575"><ele>538.0</ele><time>2026-04-18T10:27:58.964Z</time></trkpt><trkpt lat="44.3503592" lon="10.7821509"><ele>540.0</ele><time>2026-04-18T10:27:59.965Z</time></trkpt><trkpt lat="44.3504139" lon="10.7820596"><ele>540.0</ele><time>2026-04-18T10:28:00.965Z</time></trkpt><trkpt lat="44.3504664" lon="10.7819566"><ele>540.0</ele><time>2026-04-18T10:28:01.964Z</time></trkpt><trkpt lat="44.3504933" lon="10.7818288"><ele>540.0</ele><time>2026-04-18T10:28:02.964Z</time></trkpt><trkpt lat="44.3504838" lon="10.7816997"><ele>540.0</ele><time>2026-04-18T10:28:03.964Z</time></trkpt><trkpt lat="44.3504489" lon="10.7815498"><ele>540.0</ele><time>2026-04-18T10:28:04.964Z</time></trkpt><trkpt lat="44.3503958" lon="10.7814097"><ele>541.2</ele><time>2026-04-18T10:28:05.965Z</time></trkpt><trkpt lat="44.3503421" lon="10.7812722"><ele>542.4</ele><time>2026-04-18T10:28:06.964Z</time></trkpt><trkpt lat="44.3503047" lon="10.7811313"><ele>543.6</ele><time>2026-04-18T10:28:07.964Z</time></trkpt><trkpt lat="44.3502768" lon="10.7809851"><ele>544.8</ele><time>2026-04-18T10:28:08.964Z</time></trkpt><trkpt lat="44.3502425" lon="10.7808321"><ele>546.0</ele><time>2026-04-18T10:28:09.965Z</time></trkpt><trkpt lat="44.3502055" lon="10.7806738"><ele>547.75</ele><time>2026-04-18T10:28:10.964Z</time></trkpt><trkpt lat="44.3501747" lon="10.7805094"><ele>549.5</ele><time>2026-04-18T10:28:11.964Z</time></trkpt><trkpt lat="44.3501717" lon="10.7803405"><ele>551.25</ele><time>2026-04-18T10:28:12.964Z</time></trkpt><trkpt lat="44.3501883" lon="10.7801637"><ele>553.0</ele><time>2026-04-18T10:28:13.964Z</time></trkpt><trkpt lat="44.3501961" lon="10.7799801"><ele>555.3333333333334</ele><time>2026-04-18T10:28:14.965Z</time></trkpt><trkpt lat="44.3501818" lon="10.7797791"><ele>557.6666666666666</ele><time>2026-04-18T10:28:15.964Z</time></trkpt><trkpt lat="44.3501462" lon="10.7795632"><ele>560.0</ele><time>2026-04-18T10:28:16.965Z</time></trkpt><trkpt lat="44.3501153" lon="10.7793522"><ele>563.25</ele><time>2026-04-18T10:28:17.964Z</time></trkpt><trkpt lat="44.3501083" lon="10.7791678"><ele>566.5</ele><time>2026-04-18T10:28:18.964Z</time></trkpt><trkpt lat="44.3501232" lon="10.7789905"><ele>569.75</ele><time>2026-04-18T10:28:19.965Z</time></trkpt><trkpt lat="44.350156" lon="10.7788116"><ele>573.0</ele><time>2026-04-18T10:28:20.964Z</time></trkpt><trkpt lat="44.3501964" lon="10.7786349"><ele>575.75</ele><time>2026-04-18T10:28:21.964Z</time></trkpt><trkpt lat="44.3502274" lon="10.7784676"><ele>578.5</ele><time>2026-04-18T10:28:22.964Z</time></trkpt><trkpt lat="44.3502337" lon="10.7782946"><ele>581.25</ele><time>2026-04-18T10:28:23.964Z</time></trkpt><trkpt lat="44.350221" lon="10.7781144"><ele>584.0</ele><time>2026-04-18T10:28:24.964Z</time></trkpt><trkpt lat="44.3502275" lon="10.77794"><ele>584.0</ele><time>2026-04-18T10:28:25.964Z</time></trkpt><trkpt lat="44.3502362" lon="10.7777782"><ele>584.0</ele><time>2026-04-18T10:28:26.964Z</time></trkpt><trkpt lat="44.3502318" lon="10.7776482"><ele>584.0</ele><time>2026-04-18T10:28:27.964Z</time></trkpt><trkpt lat="44.350206" lon="10.7775465"><ele>584.0</ele><time>2026-04-18T10:28:28.965Z</time></trkpt><trkpt lat="44.3501454" lon="10.7774761"><ele>584.0</ele><time>2026-04-18T10:28:29.964Z</time></trkpt><trkpt lat="44.3500593" lon="10.7774583"><ele>585.75</ele><time>2026-04-18T10:28:30.964Z</time></trkpt><trkpt lat="44.3499569" lon="10.7774789"><ele>587.5</ele><time>2026-04-18T10:28:31.964Z</time></trkpt><trkpt lat="44.3498379" lon="10.7775138"><ele>589.25</ele><time>2026-04-18T10:28:32.965Z</time></trkpt><trkpt lat="44.3497054" lon="10.7775587"><ele>591.0</ele><time>2026-04-18T10:28:33.964Z</time></trkpt><trkpt lat="44.349568" lon="10.7776065"><ele>593.75</ele><time>2026-04-18T10:28:34.965Z</time></trkpt><trkpt lat="44.3494323" lon="10.7776474"><ele>596.5</ele><time>2026-04-18T10:28:35.964Z</time></trkpt><trkpt lat="44.3492934" lon="10.7776827"><ele>599.25</ele><time>2026-04-18T10:28:36.964Z</time></trkpt><trkpt lat="44.3491623" lon="10.7777188"><ele>602.0</ele><time>2026-04-18T10:28:37.964Z</time></trkpt><trkpt lat="44.3490416" lon="10.7777526"><ele>602.0</ele><time>2026-04-18T10:28:38.964Z</time></trkpt><trkpt lat="44.3489385" lon="10.7777812"><ele>602.0</ele><time>2026-04-18T10:28:39.964Z</time></trkpt><trkpt lat="44.3488497" lon="10.7778047"><ele>602.0</ele><time>2026-04-18T10:28:40.964Z</time></trkpt><trkpt lat="44.3487672" lon="10.7778037"><ele>602.0</ele><time>2026-04-18T10:28:41.964Z</time></trkpt><trkpt lat="44.3486896" lon="10.7777551"><ele>602.0</ele><time>2026-04-18T10:28:42.964Z</time></trkpt><trkpt lat="44.3485988" lon="10.7776928"><ele>606.4</ele><time>2026-04-18T10:28:43.964Z</time></trkpt><trkpt lat="44.3485037" lon="10.7776179"><ele>610.8000000000001</ele><time>2026-04-18T10:28:44.964Z</time></trkpt><trkpt lat="44.3484055" lon="10.777539"><ele>615.2</ele><time>2026-04-18T10:28:45.964Z</time></trkpt><trkpt lat="44.3483035" lon="10.7774715"><ele>619.6</ele><time>2026-04-18T10:28:46.965Z</time></trkpt><trkpt lat="44.3482022" lon="10.7774289"><ele>624.0</ele><time>2026-04-18T10:28:47.964Z</time></trkpt><trkpt lat="44.3481107" lon="10.7773965"><ele>625.4</ele><time>2026-04-18T10:28:48.965Z</time></trkpt><trkpt lat="44.348026" lon="10.7773643"><ele>626.8</ele><time>2026-04-18T10:28:49.964Z</time></trkpt><trkpt lat="44.3479588" lon="10.7773192"><ele>628.2</ele><time>2026-04-18T10:28:50.965Z</time></trkpt><trkpt lat="44.3478775" lon="10.7772253"><ele>629.6</ele><time>2026-04-18T10:28:52.965Z</time></trkpt><trkpt lat="44.347828" lon="10.777145"><ele>631.0</ele><time>2026-04-18T10:28:55.964Z</time></trkpt><trkpt lat="44.3477964" lon="10.7770035"><ele>631.0</ele><time>2026-04-18T10:28:57.964Z</time></trkpt><trkpt lat="44.3477868" lon="10.7769041"><ele>631.0</ele><time>2026-04-18T10:28:58.964Z</time></trkpt><trkpt lat="44.3477626" lon="10.7767998"><ele>631.0</ele><time>2026-04-18T10:28:59.965Z</time></trkpt><trkpt lat="44.3477142" lon="10.7766822"><ele>631.0</ele><time>2026-04-18T10:29:00.965Z</time></trkpt><trkpt lat="44.3476489" lon="10.7765568"><ele>631.0</ele><time>2026-04-18T10:29:01.965Z</time></trkpt><trkpt lat="44.3475855" lon="10.7764248"><ele>632.4</ele><time>2026-04-18T10:29:02.964Z</time></trkpt><trkpt lat="44.3475362" lon="10.7762818"><ele>633.8</ele><time>2026-04-18T10:29:03.964Z</time></trkpt><trkpt lat="44.3474905" lon="10.7761219"><ele>635.1999999999999</ele><time>2026-04-18T10:29:04.964Z</time></trkpt><trkpt lat="44.347469" lon="10.7759817"><ele>636.6</ele><time>2026-04-18T10:29:05.964Z</time></trkpt><trkpt lat="44.3474799" lon="10.7758412"><ele>638.0</ele><time>2026-04-18T10:29:06.965Z</time></trkpt><trkpt lat="44.3475231" lon="10.7756989"><ele>638.75</ele><time>2026-04-18T10:29:07.965Z</time></trkpt><trkpt lat="44.3475772" lon="10.775542"><ele>639.5</ele><time>2026-04-18T10:29:08.964Z</time></trkpt><trkpt lat="44.3476303" lon="10.7753546"><ele>640.25</ele><time>2026-04-18T10:29:09.964Z</time></trkpt><trkpt lat="44.3476738" lon="10.7751704"><ele>641.0</ele><time>2026-04-18T10:29:10.965Z</time></trkpt><trkpt lat="44.3477087" lon="10.7749766"><ele>642.5</ele><time>2026-04-18T10:29:11.965Z</time></trkpt><trkpt lat="44.3477056" lon="10.7747909"><ele>644.0</ele><time>2026-04-18T10:29:12.964Z</time></trkpt><trkpt lat="44.3476838" lon="10.7746099"><ele>645.5</ele><time>2026-04-18T10:29:13.965Z</time></trkpt><trkpt lat="44.3476509" lon="10.7744223"><ele>647.0</ele><time>2026-04-18T10:29:14.964Z</time></trkpt><trkpt lat="44.3476176" lon="10.7742263"><ele>649.25</ele><time>2026-04-18T10:29:15.965Z</time></trkpt><trkpt lat="44.3475869" lon="10.7740366"><ele>651.5</ele><time>2026-04-18T10:29:16.964Z</time></trkpt><trkpt lat="44.3475719" lon="10.7738635"><ele>653.75</ele><time>2026-04-18T10:29:17.965Z</time></trkpt><trkpt lat="44.347586" lon="10.7737032"><ele>656.0</ele><time>2026-04-18T10:29:18.964Z</time></trkpt><trkpt lat="44.3476219" lon="10.7735434"><ele>657.75</ele><time>2026-04-18T10:29:19.965Z</time></trkpt><trkpt lat="44.3476629" lon="10.7733776"><ele>659.5</ele><time>2026-04-18T10:29:20.964Z</time></trkpt><trkpt lat="44.3477279" lon="10.773236"><ele>661.25</ele><time>2026-04-18T10:29:21.964Z</time></trkpt><trkpt lat="44.3478048" lon="10.7731197"><ele>663.0</ele><time>2026-04-18T10:29:22.964Z</time></trkpt><trkpt lat="44.3478633" lon="10.773017"><ele>663.0</ele><time>2026-04-18T10:29:23.964Z</time></trkpt><trkpt lat="44.3479021" lon="10.7729077"><ele>663.0</ele><time>2026-04-18T10:29:24.965Z</time></trkpt><trkpt lat="44.3479118" lon="10.7727981"><ele>663.0</ele><time>2026-04-18T10:29:25.964Z</time></trkpt><trkpt lat="44.3478842" lon="10.772694"><ele>663.0</ele><time>2026-04-18T10:29:26.965Z</time></trkpt><trkpt lat="44.3478153" lon="10.7726253"><ele>663.0</ele><time>2026-04-18T10:29:27.964Z</time></trkpt><trkpt lat="44.3477267" lon="10.772593"><ele>663.0</ele><time>2026-04-18T10:29:28.965Z</time></trkpt><trkpt lat="44.3476226" lon="10.7725612"><ele>664.5</ele><time>2026-04-18T10:29:29.964Z</time></trkpt><trkpt lat="44.3475096" lon="10.7725058"><ele>666.0</ele><time>2026-04-18T10:29:30.964Z</time></trkpt><trkpt lat="44.3473906" lon="10.7724312"><ele>667.5</ele><time>2026-04-18T10:29:31.964Z</time></trkpt><trkpt lat="44.3472854" lon="10.7723663"><ele>669.0</ele><time>2026-04-18T10:29:32.964Z</time></trkpt><trkpt lat="44.3471949" lon="10.7723001"><ele>670.0</ele><time>2026-04-18T10:29:33.964Z</time></trkpt><trkpt lat="44.3471296" lon="10.7722232"><ele>671.0</ele><time>2026-04-18T10:29:34.965Z</time></trkpt><trkpt lat="44.347127" lon="10.7720321"><ele>672.0</ele><time>2026-04-18T10:29:36.965Z</time></trkpt><trkpt lat="44.3471624" lon="10.7719042"><ele>673.0</ele><time>2026-04-18T10:29:37.964Z</time></trkpt><trkpt lat="44.3472218" lon="10.7717307"><ele>673.0</ele><time>2026-04-18T10:29:38.964Z</time></trkpt><trkpt lat="44.3472726" lon="10.7715549"><ele>673.0</ele><time>2026-04-18T10:29:39.964Z</time></trkpt><trkpt lat="44.3472974" lon="10.7713954"><ele>673.0</ele><time>2026-04-18T10:29:40.964Z</time></trkpt><trkpt lat="44.3472996" lon="10.7712406"><ele>673.0</ele><time>2026-04-18T10:29:41.965Z</time></trkpt><trkpt lat="44.3472816" lon="10.7710897"><ele>674.75</ele><time>2026-04-18T10:29:42.965Z</time></trkpt><trkpt lat="44.3472357" lon="10.7709474"><ele>676.5</ele><time>2026-04-18T10:29:43.964Z</time></trkpt><trkpt lat="44.3471619" lon="10.7707951"><ele>678.25</ele><time>2026-04-18T10:29:44.964Z</time></trkpt><trkpt lat="44.3470759" lon="10.7706116"><ele>680.0</ele><time>2026-04-18T10:29:45.964Z</time></trkpt><trkpt lat="44.3469969" lon="10.7704475"><ele>685.6666666666666</ele><time>2026-04-18T10:29:46.964Z</time></trkpt><trkpt lat="44.3469196" lon="10.7702736"><ele>691.3333333333334</ele><time>2026-04-18T10:29:47.964Z</time></trkpt><trkpt lat="44.3468525" lon="10.7700959"><ele>697.0</ele><time>2026-04-18T10:29:48.964Z</time></trkpt><trkpt lat="44.3467786" lon="10.7698842"><ele>698.75</ele><time>2026-04-18T10:29:49.965Z</time></trkpt><trkpt lat="44.3467107" lon="10.7696877"><ele>700.5</ele><time>2026-04-18T10:29:50.964Z</time></trkpt><trkpt lat="44.3466517" lon="10.7695251"><ele>702.25</ele><time>2026-04-18T10:29:51.964Z</time></trkpt><trkpt lat="44.3466016" lon="10.7693913"><ele>704.0</ele><time>2026-04-18T10:29:52.964Z</time></trkpt><trkpt lat="44.3465566" lon="10.7692972"><ele>705.1666666666666</ele><time>2026-04-18T10:29:53.965Z</time></trkpt><trkpt lat="44.3465036" lon="10.7692144"><ele>706.3333333333333</ele><time>2026-04-18T10:29:54.965Z</time></trkpt><trkpt lat="44.3464167" lon="10.7692096"><ele>707.5</ele><time>2026-04-18T10:29:55.964Z</time></trkpt><trkpt lat="44.3463325" lon="10.7692091"><ele>708.6666666666666</ele><time>2026-04-18T10:29:56.965Z</time></trkpt><trkpt lat="44.3462396" lon="10.7692036"><ele>709.8333333333334</ele><time>2026-04-18T10:29:57.964Z</time></trkpt><trkpt lat="44.3461494" lon="10.7691889"><ele>711.0</ele><time>2026-04-18T10:29:58.965Z</time></trkpt><trkpt lat="44.3461144" lon="10.7690862"><ele>712.6666666666666</ele><time>2026-04-18T10:29:59.964Z</time></trkpt><trkpt lat="44.3460913" lon="10.7689982"><ele>714.3333333333334</ele><time>2026-04-18T10:30:00.965Z</time></trkpt><trkpt lat="44.3460935" lon="10.7688833"><ele>716.0</ele><time>2026-04-18T10:30:01.964Z</time></trkpt><trkpt lat="44.3460945" lon="10.7687603"><ele>717.6666666666667</ele><time>2026-04-18T10:30:02.965Z</time></trkpt><trkpt lat="44.3460914" lon="10.7686401"><ele>719.3333333333334</ele><time>2026-04-18T10:30:03.964Z</time></trkpt><trkpt lat="44.3460873" lon="10.7685193"><ele>721.0</ele><time>2026-04-18T10:30:04.964Z</time></trkpt><trkpt lat="44.3460747" lon="10.7683984"><ele>722.6666666666667</ele><time>2026-04-18T10:30:05.964Z</time></trkpt><trkpt lat="44.3460557" lon="10.7682773"><ele>724.3333333333334</ele><time>2026-04-18T10:30:06.965Z</time></trkpt><trkpt lat="44.3460363" lon="10.7681516"><ele>726.0</ele><time>2026-04-18T10:30:07.964Z</time></trkpt><trkpt lat="44.3460365" lon="10.7680216"><ele>727.6666666666666</ele><time>2026-04-18T10:30:08.965Z</time></trkpt><trkpt lat="44.3460504" lon="10.767902"><ele>729.3333333333333</ele><time>2026-04-18T10:30:09.964Z</time></trkpt><trkpt lat="44.3460485" lon="10.7677992"><ele>731.0</ele><time>2026-04-18T10:30:10.965Z</time></trkpt><trkpt lat="44.3460372" lon="10.767628"><ele>731.1666666666666</ele><time>2026-04-18T10:30:12.964Z</time></trkpt><trkpt lat="44.3460618" lon="10.7675425"><ele>731.3333333333333</ele><time>2026-04-18T10:30:13.964Z</time></trkpt><trkpt lat="44.346106" lon="10.7673933"><ele>731.5</ele><time>2026-04-18T10:30:15.964Z</time></trkpt><trkpt lat="44.3461196" lon="10.7672437"><ele>731.6666666666666</ele><time>2026-04-18T10:30:17.964Z</time></trkpt><trkpt lat="44.3460771" lon="10.7671774"><ele>731.8333333333334</ele><time>2026-04-18T10:30:18.964Z</time></trkpt><trkpt lat="44.3460229" lon="10.7671262"><ele>732.0</ele><time>2026-04-18T10:30:19.964Z</time></trkpt><trkpt lat="44.3459555" lon="10.7670927"><ele>732.0</ele><time>2026-04-18T10:30:20.964Z</time></trkpt><trkpt lat="44.3458783" lon="10.7670695"><ele>732.0</ele><time>2026-04-18T10:30:21.964Z</time></trkpt><trkpt lat="44.3457905" lon="10.7670448"><ele>732.0</ele><time>2026-04-18T10:30:22.964Z</time></trkpt><trkpt lat="44.3456948" lon="10.7670099"><ele>732.0</ele><time>2026-04-18T10:30:23.964Z</time></trkpt><trkpt lat="44.3455981" lon="10.7669649"><ele>732.0</ele><time>2026-04-18T10:30:24.964Z</time></trkpt><trkpt lat="44.3455052" lon="10.7669104"><ele>729.8</ele><time>2026-04-18T10:30:25.964Z</time></trkpt><trkpt lat="44.3454139" lon="10.7668484"><ele>727.6</ele><time>2026-04-18T10:30:26.965Z</time></trkpt><trkpt lat="44.3453308" lon="10.7667774"><ele>725.4</ele><time>2026-04-18T10:30:27.965Z</time></trkpt><trkpt lat="44.345259" lon="10.7666973"><ele>723.1999999999999</ele><time>2026-04-18T10:30:28.965Z</time></trkpt><trkpt lat="44.3451745" lon="10.766622"><ele>721.0</ele><time>2026-04-18T10:30:29.965Z</time></trkpt><trkpt lat="44.345084" lon="10.7665431"><ele>721.0</ele><time>2026-04-18T10:30:30.965Z</time></trkpt><trkpt lat="44.3449967" lon="10.7664633"><ele>721.0</ele><time>2026-04-18T10:30:31.965Z</time></trkpt><trkpt lat="44.344909" lon="10.7663842"><ele>721.0</ele><time>2026-04-18T10:30:32.965Z</time></trkpt><trkpt lat="44.3448232" lon="10.766318"><ele>721.0</ele><time>2026-04-18T10:30:33.965Z</time></trkpt><trkpt lat="44.3447368" lon="10.7662669"><ele>721.0</ele><time>2026-04-18T10:30:34.964Z</time></trkpt><trkpt lat="44.3446427" lon="10.7662323"><ele>720.0</ele><time>2026-04-18T10:30:35.964Z</time></trkpt><trkpt lat="44.3445435" lon="10.7662041"><ele>719.0</ele><time>2026-04-18T10:30:36.964Z</time></trkpt><trkpt lat="44.3444338" lon="10.7661794"><ele>718.0</ele><time>2026-04-18T10:30:37.965Z</time></trkpt><trkpt lat="44.3443247" lon="10.7661673"><ele>717.0</ele><time>2026-04-18T10:30:38.964Z</time></trkpt><trkpt lat="44.3442097" lon="10.766147"><ele>716.0</ele><time>2026-04-18T10:30:39.964Z</time></trkpt><trkpt lat="44.3440959" lon="10.7661178"><ele>716.0</ele><time>2026-04-18T10:30:40.964Z</time></trkpt><trkpt lat="44.3439809" lon="10.7660782"><ele>716.0</ele><time>2026-04-18T10:30:41.965Z</time></trkpt><trkpt lat="44.3438787" lon="10.7660416"><ele>716.0</ele><time>2026-04-18T10:30:42.964Z</time></trkpt><trkpt lat="44.3438009" lon="10.7659918"><ele>716.0</ele><time>2026-04-18T10:30:43.965Z</time></trkpt><trkpt lat="44.3437321" lon="10.7659192"><ele>716.0</ele><time>2026-04-18T10:30:44.965Z</time></trkpt><trkpt lat="44.3436819" lon="10.7658242"><ele>714.1999999999999</ele><time>2026-04-18T10:30:45.965Z</time></trkpt><trkpt lat="44.3436428" lon="10.7657153"><ele>712.4</ele><time>2026-04-18T10:30:46.964Z</time></trkpt><trkpt lat="44.3435985" lon="10.7656082"><ele>710.6</ele><time>2026-04-18T10:30:47.965Z</time></trkpt><trkpt lat="44.3435466" lon="10.7655115"><ele>708.8</ele><time>2026-04-18T10:30:48.965Z</time></trkpt><trkpt lat="44.3434746" lon="10.7654226"><ele>707.0</ele><time>2026-04-18T10:30:49.965Z</time></trkpt><trkpt lat="44.3434089" lon="10.7653294"><ele>707.0</ele><time>2026-04-18T10:30:50.965Z</time></trkpt><trkpt lat="44.3433645" lon="10.7652161"><ele>707.0</ele><time>2026-04-18T10:30:51.964Z</time></trkpt><trkpt lat="44.3433296" lon="10.7650877"><ele>707.0</ele><time>2026-04-18T10:30:52.965Z</time></trkpt><trkpt lat="44.3432933" lon="10.7649691"><ele>707.0</ele><time>2026-04-18T10:30:53.964Z</time></trkpt><trkpt lat="44.3432394" lon="10.7648523"><ele>707.0</ele><time>2026-04-18T10:30:54.964Z</time></trkpt><trkpt lat="44.343179" lon="10.7647394"><ele>706.4000000000001</ele><time>2026-04-18T10:30:55.964Z</time></trkpt><trkpt lat="44.3431055" lon="10.764653"><ele>705.8000000000001</ele><time>2026-04-18T10:30:56.965Z</time></trkpt><trkpt lat="44.343023" lon="10.7645653"><ele>705.2</ele><time>2026-04-18T10:30:57.965Z</time></trkpt><trkpt lat="44.342932" lon="10.7644983"><ele>704.6</ele><time>2026-04-18T10:30:58.964Z</time></trkpt><trkpt lat="44.3428375" lon="10.7644267"><ele>704.0</ele><time>2026-04-18T10:30:59.965Z</time></trkpt><trkpt lat="44.3427198" lon="10.7643793"><ele>698.0</ele><time>2026-04-18T10:31:00.964Z</time></trkpt><trkpt lat="44.3426002" lon="10.7643434"><ele>692.0</ele><time>2026-04-18T10:31:01.965Z</time></trkpt><trkpt lat="44.3424797" lon="10.7642863"><ele>686.0</ele><time>2026-04-18T10:31:02.964Z</time></trkpt><trkpt lat="44.3423703" lon="10.7642066"><ele>680.0</ele><time>2026-04-18T10:31:03.964Z</time></trkpt><trkpt lat="44.3422794" lon="10.7641273"><ele>680.0</ele><time>2026-04-18T10:31:04.965Z</time></trkpt><trkpt lat="44.3422252" lon="10.7640266"><ele>680.0</ele><time>2026-04-18T10:31:05.964Z</time></trkpt><trkpt lat="44.3421672" lon="10.7639276"><ele>680.0</ele><time>2026-04-18T10:31:06.965Z</time></trkpt><trkpt lat="44.342101" lon="10.7638182"><ele>680.0</ele><time>2026-04-18T10:31:07.964Z</time></trkpt><trkpt lat="44.3420236" lon="10.7637447"><ele>680.0</ele><time>2026-04-18T10:31:08.964Z</time></trkpt><trkpt lat="44.3419258" lon="10.7636856"><ele>678.5</ele><time>2026-04-18T10:31:09.964Z</time></trkpt><trkpt lat="44.3418045" lon="10.7636272"><ele>677.0</ele><time>2026-04-18T10:31:10.964Z</time></trkpt><trkpt lat="44.3416636" lon="10.7635494"><ele>675.5</ele><time>2026-04-18T10:31:11.964Z</time></trkpt><trkpt lat="44.3415377" lon="10.763472"><ele>674.0</ele><time>2026-04-18T10:31:12.964Z</time></trkpt><trkpt lat="44.3414209" lon="10.7633875"><ele>677.75</ele><time>2026-04-18T10:31:13.964Z</time></trkpt><trkpt lat="44.3413312" lon="10.7632758"><ele>681.5</ele><time>2026-04-18T10:31:14.964Z</time></trkpt><trkpt lat="44.3412508" lon="10.7631272"><ele>685.25</ele><time>2026-04-18T10:31:15.964Z</time></trkpt><trkpt lat="44.3411754" lon="10.762945"><ele>689.0</ele><time>2026-04-18T10:31:16.964Z</time></trkpt><trkpt lat="44.3411288" lon="10.7627726"><ele>690.8000000000001</ele><time>2026-04-18T10:31:17.964Z</time></trkpt><trkpt lat="44.3411059" lon="10.7626147"><ele>692.6</ele><time>2026-04-18T10:31:18.964Z</time></trkpt><trkpt lat="44.3410915" lon="10.7624797"><ele>694.4</ele><time>2026-04-18T10:31:19.964Z</time></trkpt><trkpt lat="44.3410813" lon="10.7623421"><ele>696.2</ele><time>2026-04-18T10:31:20.964Z</time></trkpt><trkpt lat="44.341076" lon="10.7621854"><ele>698.0</ele><time>2026-04-18T10:31:21.964Z</time></trkpt><trkpt lat="44.3410741" lon="10.7620444"><ele>698.0</ele><time>2026-04-18T10:31:22.965Z</time></trkpt><trkpt lat="44.3411043" lon="10.7619028"><ele>698.0</ele><time>2026-04-18T10:31:23.965Z</time></trkpt><trkpt lat="44.3411626" lon="10.7617465"><ele>698.0</ele><time>2026-04-18T10:31:24.964Z</time></trkpt><trkpt lat="44.3412261" lon="10.7615758"><ele>698.0</ele><time>2026-04-18T10:31:25.965Z</time></trkpt><trkpt lat="44.3412882" lon="10.7613936"><ele>698.25</ele><time>2026-04-18T10:31:26.964Z</time></trkpt><trkpt lat="44.3413659" lon="10.7612343"><ele>698.5</ele><time>2026-04-18T10:31:27.964Z</time></trkpt><trkpt lat="44.3414382" lon="10.7610883"><ele>698.75</ele><time>2026-04-18T10:31:28.965Z</time></trkpt><trkpt lat="44.3414924" lon="10.7609296"><ele>699.0</ele><time>2026-04-18T10:31:29.965Z</time></trkpt><trkpt lat="44.3415354" lon="10.7607634"><ele>696.0</ele><time>2026-04-18T10:31:30.964Z</time></trkpt><trkpt lat="44.341557" lon="10.7605722"><ele>693.0</ele><time>2026-04-18T10:31:31.964Z</time></trkpt><trkpt lat="44.3415742" lon="10.7603661"><ele>690.0</ele><time>2026-04-18T10:31:32.965Z</time></trkpt><trkpt lat="44.341593" lon="10.7601718"><ele>687.0</ele><time>2026-04-18T10:31:33.965Z</time></trkpt><trkpt lat="44.3416195" lon="10.7599897"><ele>687.0</ele><time>2026-04-18T10:31:34.965Z</time></trkpt><trkpt lat="44.3416648" lon="10.7598071"><ele>687.0</ele><time>2026-04-18T10:31:35.964Z</time></trkpt><trkpt lat="44.3417202" lon="10.7596308"><ele>687.0</ele><time>2026-04-18T10:31:36.964Z</time></trkpt><trkpt lat="44.3417814" lon="10.7594604"><ele>687.0</ele><time>2026-04-18T10:31:37.964Z</time></trkpt><trkpt lat="44.3418472" lon="10.759297"><ele>690.75</ele><time>2026-04-18T10:31:38.964Z</time></trkpt><trkpt lat="44.3419296" lon="10.7591483"><ele>694.5</ele><time>2026-04-18T10:31:39.964Z</time></trkpt><trkpt lat="44.3420177" lon="10.7590157"><ele>698.25</ele><time>2026-04-18T10:31:40.965Z</time></trkpt><trkpt lat="44.3421012" lon="10.7588769"><ele>702.0</ele><time>2026-04-18T10:31:41.964Z</time></trkpt><trkpt lat="44.3421579" lon="10.7587283"><ele>702.0</ele><time>2026-04-18T10:31:42.965Z</time></trkpt><trkpt lat="44.3422016" lon="10.7586011"><ele>702.0</ele><time>2026-04-18T10:31:43.964Z</time></trkpt><trkpt lat="44.3422263" lon="10.7584894"><ele>702.0</ele><time>2026-04-18T10:31:44.965Z</time></trkpt><trkpt lat="44.3422438" lon="10.7583763"><ele>702.0</ele><time>2026-04-18T10:31:45.965Z</time></trkpt><trkpt lat="44.3422576" lon="10.7582469"><ele>702.0</ele><time>2026-04-18T10:31:46.964Z</time></trkpt><trkpt lat="44.3422615" lon="10.7581367"><ele>702.0</ele><time>2026-04-18T10:31:47.965Z</time></trkpt><trkpt lat="44.3422446" lon="10.7580357"><ele>702.8</ele><time>2026-04-18T10:31:48.964Z</time></trkpt><trkpt lat="44.3422059" lon="10.7579345"><ele>703.6</ele><time>2026-04-18T10:31:49.964Z</time></trkpt><trkpt lat="44.3421529" lon="10.7578165"><ele>704.4</ele><time>2026-04-18T10:31:50.965Z</time></trkpt><trkpt lat="44.3421082" lon="10.7576778"><ele>705.1999999999999</ele><time>2026-04-18T10:31:51.964Z</time></trkpt><trkpt lat="44.342072" lon="10.7575324"><ele>706.0</ele><time>2026-04-18T10:31:52.965Z</time></trkpt><trkpt lat="44.3420278" lon="10.7573955"><ele>702.5</ele><time>2026-04-18T10:31:53.964Z</time></trkpt><trkpt lat="44.3419642" lon="10.7572606"><ele>699.0</ele><time>2026-04-18T10:31:54.965Z</time></trkpt><trkpt lat="44.341889" lon="10.7571311"><ele>695.5</ele><time>2026-04-18T10:31:55.964Z</time></trkpt><trkpt lat="44.3418122" lon="10.7570031"><ele>692.0</ele><time>2026-04-18T10:31:56.965Z</time></trkpt><trkpt lat="44.3417381" lon="10.7568744"><ele>689.0</ele><time>2026-04-18T10:31:57.964Z</time></trkpt><trkpt lat="44.3416741" lon="10.7567427"><ele>686.0</ele><time>2026-04-18T10:31:58.965Z</time></trkpt><trkpt lat="44.3416158" lon="10.7566195"><ele>683.0</ele><time>2026-04-18T10:31:59.965Z</time></trkpt><trkpt lat="44.3415729" lon="10.756504"><ele>680.0</ele><time>2026-04-18T10:32:00.964Z</time></trkpt><trkpt lat="44.3415551" lon="10.7563739"><ele>677.0</ele><time>2026-04-18T10:32:01.965Z</time></trkpt><trkpt lat="44.3415569" lon="10.7562161"><ele>677.0</ele><time>2026-04-18T10:32:02.965Z</time></trkpt><trkpt lat="44.3415749" lon="10.7560553"><ele>677.0</ele><time>2026-04-18T10:32:03.964Z</time></trkpt><trkpt lat="44.3415874" lon="10.755903"><ele>677.0</ele><time>2026-04-18T10:32:04.965Z</time></trkpt><trkpt lat="44.3415789" lon="10.7557421"><ele>677.0</ele><time>2026-04-18T10:32:05.964Z</time></trkpt><trkpt lat="44.3415579" lon="10.7555823"><ele>674.25</ele><time>2026-04-18T10:32:06.965Z</time></trkpt><trkpt lat="44.3415303" lon="10.7554209"><ele>671.5</ele><time>2026-04-18T10:32:07.965Z</time></trkpt><trkpt lat="44.3415058" lon="10.7552549"><ele>668.75</ele><time>2026-04-18T10:32:08.964Z</time></trkpt><trkpt lat="44.3414847" lon="10.7550874"><ele>666.0</ele><time>2026-04-18T10:32:09.965Z</time></trkpt><trkpt lat="44.3414615" lon="10.7549274"><ele>666.75</ele><time>2026-04-18T10:32:10.964Z</time></trkpt><trkpt lat="44.3414279" lon="10.7547675"><ele>667.5</ele><time>2026-04-18T10:32:11.965Z</time></trkpt><trkpt lat="44.3413805" lon="10.7546011"><ele>668.25</ele><time>2026-04-18T10:32:12.965Z</time></trkpt><trkpt lat="44.3413349" lon="10.7544404"><ele>669.0</ele><time>2026-04-18T10:32:13.965Z</time></trkpt><trkpt lat="44.3412981" lon="10.7542785"><ele>667.25</ele><time>2026-04-18T10:32:14.964Z</time></trkpt><trkpt lat="44.3412516" lon="10.7541166"><ele>665.5</ele><time>2026-04-18T10:32:15.964Z</time></trkpt><trkpt lat="44.3411995" lon="10.7539679"><ele>663.75</ele><time>2026-04-18T10:32:16.965Z</time></trkpt><trkpt lat="44.3411525" lon="10.7538185"><ele>662.0</ele><time>2026-04-18T10:32:17.964Z</time></trkpt><trkpt lat="44.3411196" lon="10.7536649"><ele>660.0</ele><time>2026-04-18T10:32:18.964Z</time></trkpt><trkpt lat="44.3410982" lon="10.7535262"><ele>658.0</ele><time>2026-04-18T10:32:19.965Z</time></trkpt><trkpt lat="44.3410712" lon="10.7533737"><ele>656.0</ele><time>2026-04-18T10:32:20.964Z</time></trkpt><trkpt lat="44.3410377" lon="10.7532249"><ele>654.0</ele><time>2026-04-18T10:32:21.964Z</time></trkpt><trkpt lat="44.3410046" lon="10.7530896"><ele>652.0</ele><time>2026-04-18T10:32:22.965Z</time></trkpt><trkpt lat="44.3409758" lon="10.7529594"><ele>652.0</ele><time>2026-04-18T10:32:23.964Z</time></trkpt><trkpt lat="44.3409596" lon="10.7528371"><ele>652.0</ele><time>2026-04-18T10:32:24.964Z</time></trkpt><trkpt lat="44.3409522" lon="10.7527251"><ele>652.0</ele><time>2026-04-18T10:32:25.965Z</time></trkpt><trkpt lat="44.340951" lon="10.7526239"><ele>652.0</ele><time>2026-04-18T10:32:26.964Z</time></trkpt><trkpt lat="44.3409525" lon="10.752448"><ele>652.0</ele><time>2026-04-18T10:32:28.964Z</time></trkpt><trkpt lat="44.3409274" lon="10.7523591"><ele>652.0</ele><time>2026-04-18T10:32:29.965Z</time></trkpt><trkpt lat="44.3408838" lon="10.7522715"><ele>651.5</ele><time>2026-04-18T10:32:30.965Z</time></trkpt><trkpt lat="44.3408332" lon="10.7521828"><ele>651.0</ele><time>2026-04-18T10:32:31.964Z</time></trkpt><trkpt lat="44.3407805" lon="10.7520951"><ele>650.5</ele><time>2026-04-18T10:32:32.965Z</time></trkpt><trkpt lat="44.3407331" lon="10.7520111"><ele>650.0</ele><time>2026-04-18T10:32:33.964Z</time></trkpt><trkpt lat="44.3406913" lon="10.7519321"><ele>649.5</ele><time>2026-04-18T10:32:34.965Z</time></trkpt><trkpt lat="44.3406555" lon="10.7518578"><ele>649.0</ele><time>2026-04-18T10:32:35.964Z</time></trkpt><trkpt lat="44.3405883" lon="10.7517121"><ele>649.6</ele><time>2026-04-18T10:32:37.964Z</time></trkpt><trkpt lat="44.3405023" lon="10.7515972"><ele>650.2</ele><time>2026-04-18T10:32:39.964Z</time></trkpt><trkpt lat="44.3404263" lon="10.7515484"><ele>650.8000000000001</ele><time>2026-04-18T10:32:41.965Z</time></trkpt><trkpt lat="44.3403545" lon="10.7515033"><ele>651.4000000000001</ele><time>2026-04-18T10:32:43.965Z</time></trkpt><trkpt lat="44.3402839" lon="10.7514049"><ele>652.0</ele><time>2026-04-18T10:32:45.964Z</time></trkpt><trkpt lat="44.3402091" lon="10.7512937"><ele>652.0</ele><time>2026-04-18T10:32:47.965Z</time></trkpt><trkpt lat="44.3401395" lon="10.7511705"><ele>652.0</ele><time>2026-04-18T10:32:49.964Z</time></trkpt><trkpt lat="44.3400671" lon="10.7510287"><ele>652.0</ele><time>2026-04-18T10:32:51.965Z</time></trkpt><trkpt lat="44.3400208" lon="10.7508851"><ele>652.0</ele><time>2026-04-18T10:32:53.965Z</time></trkpt><trkpt lat="44.3399608" lon="10.7507449"><ele>649.5</ele><time>2026-04-18T10:32:55.965Z</time></trkpt><trkpt lat="44.3399261" lon="10.7506672"><ele>647.0</ele><time>2026-04-18T10:32:56.964Z</time></trkpt><trkpt lat="44.33989" lon="10.7505922"><ele>644.5</ele><time>2026-04-18T10:32:57.964Z</time></trkpt><trkpt lat="44.3398155" lon="10.7504524"><ele>642.0</ele><time>2026-04-18T10:32:59.964Z</time></trkpt><trkpt lat="44.3397683" lon="10.7503932"><ele>639.5</ele><time>2026-04-18T10:33:00.965Z</time></trkpt><trkpt lat="44.3396793" lon="10.7502623"><ele>637.0</ele><time>2026-04-18T10:33:02.965Z</time></trkpt><trkpt lat="44.3396239" lon="10.7501243"><ele>634.0</ele><time>2026-04-18T10:33:04.965Z</time></trkpt><trkpt lat="44.3395858" lon="10.7499717"><ele>631.0</ele><time>2026-04-18T10:33:06.965Z</time></trkpt><trkpt lat="44.3395476" lon="10.7498287"><ele>628.0</ele><time>2026-04-18T10:33:08.965Z</time></trkpt><trkpt lat="44.3395138" lon="10.7497439"><ele>625.0</ele><time>2026-04-18T10:33:09.964Z</time></trkpt><trkpt lat="44.3394637" lon="10.7496052"><ele>622.0</ele><time>2026-04-18T10:33:11.964Z</time></trkpt><trkpt lat="44.3394182" lon="10.7494661"><ele>621.8000000000001</ele><time>2026-04-18T10:33:13.964Z</time></trkpt><trkpt lat="44.3393739" lon="10.7493591"><ele>621.6</ele><time>2026-04-18T10:33:15.964Z</time></trkpt><trkpt lat="44.339301" lon="10.7493016"><ele>621.4000000000001</ele><time>2026-04-18T10:33:18.964Z</time></trkpt><trkpt lat="44.339225" lon="10.7492292"><ele>621.2</ele><time>2026-04-18T10:33:21.965Z</time></trkpt><trkpt lat="44.3392166" lon="10.7491142"><ele>621.0</ele><time>2026-04-18T10:33:23.965Z</time></trkpt><trkpt lat="44.3392854" lon="10.7489924"><ele>621.0</ele><time>2026-04-18T10:33:25.965Z</time></trkpt><trkpt lat="44.3393395" lon="10.7488592"><ele>621.0</ele><time>2026-04-18T10:33:27.965Z</time></trkpt><trkpt lat="44.3393986" lon="10.7487266"><ele>621.0</ele><time>2026-04-18T10:33:29.964Z</time></trkpt><trkpt lat="44.339454" lon="10.7485953"><ele>621.0</ele><time>2026-04-18T10:33:31.964Z</time></trkpt><trkpt lat="44.3394376" lon="10.7484918"><ele>621.0</ele><time>2026-04-18T10:33:33.964Z</time></trkpt><trkpt lat="44.3393618" lon="10.7484382"><ele>622.8333333333334</ele><time>2026-04-18T10:33:42.964Z</time></trkpt><trkpt lat="44.3393267" lon="10.7483243"><ele>624.6666666666666</ele><time>2026-04-18T10:33:44.965Z</time></trkpt><trkpt lat="44.3393053" lon="10.7481462"><ele>626.5</ele><time>2026-04-18T10:33:46.964Z</time></trkpt><trkpt lat="44.3392982" lon="10.7480436"><ele>628.3333333333333</ele><time>2026-04-18T10:33:47.964Z</time></trkpt><trkpt lat="44.3392994" lon="10.7479506"><ele>630.1666666666666</ele><time>2026-04-18T10:33:48.964Z</time></trkpt><trkpt lat="44.3392567" lon="10.747851"><ele>632.0</ele><time>2026-04-18T10:33:50.965Z</time></trkpt><trkpt lat="44.3391961" lon="10.7478048"><ele>632.0</ele><time>2026-04-18T10:34:29.964Z</time></trkpt><trkpt lat="44.3390919" lon="10.7477129"><ele>632.0</ele><time>2026-04-18T10:34:32.964Z</time></trkpt><trkpt lat="44.3389816" lon="10.7476851"><ele>632.0</ele><time>2026-04-18T10:34:34.965Z</time></trkpt><trkpt lat="44.3389083" lon="10.747642"><ele>632.0</ele><time>2026-04-18T10:34:35.965Z</time></trkpt><trkpt lat="44.3388466" lon="10.7475992"><ele>632.0</ele><time>2026-04-18T10:34:36.965Z</time></trkpt><trkpt lat="44.3387866" lon="10.7475608"><ele>633.6666666666666</ele><time>2026-04-18T10:34:37.964Z</time></trkpt><trkpt lat="44.3387272" lon="10.7475189"><ele>635.3333333333333</ele><time>2026-04-18T10:34:38.964Z</time></trkpt><trkpt lat="44.3386578" lon="10.7474604"><ele>637.0</ele><time>2026-04-18T10:34:39.964Z</time></trkpt><trkpt lat="44.33859" lon="10.747414"><ele>638.6666666666666</ele><time>2026-04-18T10:34:40.964Z</time></trkpt><trkpt lat="44.3385185" lon="10.7473308"><ele>640.3333333333334</ele><time>2026-04-18T10:34:41.965Z</time></trkpt><trkpt lat="44.3384395" lon="10.7472749"><ele>642.0</ele><time>2026-04-18T10:34:42.964Z</time></trkpt><trkpt lat="44.3383686" lon="10.7472172"><ele>642.0</ele><time>2026-04-18T10:34:43.964Z</time></trkpt><trkpt lat="44.338297" lon="10.7471606"><ele>642.0</ele><time>2026-04-18T10:34:44.965Z</time></trkpt><trkpt lat="44.3382295" lon="10.7470793"><ele>642.0</ele><time>2026-04-18T10:34:45.965Z</time></trkpt><trkpt lat="44.3381876" lon="10.7469944"><ele>642.0</ele><time>2026-04-18T10:34:46.965Z</time></trkpt><trkpt lat="44.338141" lon="10.7469169"><ele>642.0</ele><time>2026-04-18T10:34:47.964Z</time></trkpt><trkpt lat="44.3380773" lon="10.7467549"><ele>642.8333333333334</ele><time>2026-04-18T10:34:49.965Z</time></trkpt><trkpt lat="44.3380483" lon="10.7466688"><ele>643.6666666666666</ele><time>2026-04-18T10:34:50.964Z</time></trkpt><trkpt lat="44.3380191" lon="10.7465766"><ele>644.5</ele><time>2026-04-18T10:34:51.964Z</time></trkpt><trkpt lat="44.3379625" lon="10.7464689"><ele>645.3333333333333</ele><time>2026-04-18T10:34:52.964Z</time></trkpt><trkpt lat="44.3379169" lon="10.74637"><ele>646.1666666666666</ele><time>2026-04-18T10:34:53.965Z</time></trkpt><trkpt lat="44.337883" lon="10.7462842"><ele>647.0</ele><time>2026-04-18T10:34:54.964Z</time></trkpt><trkpt lat="44.3378379" lon="10.7461988"><ele>647.0</ele><time>2026-04-18T10:34:55.964Z</time></trkpt><trkpt lat="44.3377995" lon="10.7461223"><ele>647.0</ele><time>2026-04-18T10:34:56.964Z</time></trkpt><trkpt lat="44.3377088" lon="10.7460092"><ele>647.0</ele><time>2026-04-18T10:34:58.964Z</time></trkpt><trkpt lat="44.3376501" lon="10.7459447"><ele>647.0</ele><time>2026-04-18T10:34:59.964Z</time></trkpt><trkpt lat="44.3375966" lon="10.7458845"><ele>647.0</ele><time>2026-04-18T10:35:00.965Z</time></trkpt><trkpt lat="44.3375342" lon="10.7458324"><ele>647.0</ele><time>2026-04-18T10:35:01.964Z</time></trkpt><trkpt lat="44.3374679" lon="10.7457768"><ele>646.1428571428571</ele><time>2026-04-18T10:35:02.964Z</time></trkpt><trkpt lat="44.3374121" lon="10.745708"><ele>645.2857142857143</ele><time>2026-04-18T10:35:03.965Z</time></trkpt><trkpt lat="44.3373683" lon="10.7456387"><ele>644.4285714285714</ele><time>2026-04-18T10:35:04.964Z</time></trkpt><trkpt lat="44.3373256" lon="10.745555"><ele>643.5714285714286</ele><time>2026-04-18T10:35:05.965Z</time></trkpt><trkpt lat="44.3372797" lon="10.7454759"><ele>642.7142857142857</ele><time>2026-04-18T10:35:06.965Z</time></trkpt><trkpt lat="44.3372347" lon="10.7453908"><ele>641.8571428571429</ele><time>2026-04-18T10:35:07.965Z</time></trkpt><trkpt lat="44.3372009" lon="10.7453039"><ele>641.0</ele><time>2026-04-18T10:35:08.964Z</time></trkpt><trkpt lat="44.3371687" lon="10.7452099"><ele>639.0</ele><time>2026-04-18T10:35:09.965Z</time></trkpt><trkpt lat="44.3371405" lon="10.7451155"><ele>637.0</ele><time>2026-04-18T10:35:10.964Z</time></trkpt><trkpt lat="44.3371061" lon="10.7450273"><ele>635.0</ele><time>2026-04-18T10:35:11.965Z</time></trkpt><trkpt lat="44.3370735" lon="10.7449362"><ele>633.0</ele><time>2026-04-18T10:35:12.964Z</time></trkpt><trkpt lat="44.3370242" lon="10.7448072"><ele>631.0</ele><time>2026-04-18T10:35:14.964Z</time></trkpt><trkpt lat="44.3369815" lon="10.7447206"><ele>629.0</ele><time>2026-04-18T10:35:16.964Z</time></trkpt><trkpt lat="44.3369666" lon="10.7446281"><ele>629.0</ele><time>2026-04-18T10:35:18.965Z</time></trkpt><trkpt lat="44.3369621" lon="10.7444932"><ele>629.0</ele><time>2026-04-18T10:35:20.965Z</time></trkpt><trkpt lat="44.3370322" lon="10.7443769"><ele>629.0</ele><time>2026-04-18T10:35:22.964Z</time></trkpt><trkpt lat="44.3371231" lon="10.7442813"><ele>629.0</ele><time>2026-04-18T10:35:24.964Z</time></trkpt><trkpt lat="44.3371711" lon="10.7441371"><ele>629.0</ele><time>2026-04-18T10:35:26.964Z</time></trkpt><trkpt lat="44.3371305" lon="10.7439814"><ele>626.8333333333333</ele><time>2026-04-18T10:35:28.965Z</time></trkpt><trkpt lat="44.33709" lon="10.7438336"><ele>624.6666666666666</ele><time>2026-04-18T10:35:30.965Z</time></trkpt><trkpt lat="44.3370219" lon="10.7436822"><ele>622.5</ele><time>2026-04-18T10:35:32.964Z</time></trkpt><trkpt lat="44.3369781" lon="10.7436141"><ele>620.3333333333334</ele><time>2026-04-18T10:35:33.964Z</time></trkpt><trkpt lat="44.3369203" lon="10.7435581"><ele>618.1666666666667</ele><time>2026-04-18T10:35:34.965Z</time></trkpt><trkpt lat="44.3368652" lon="10.7435016"><ele>616.0</ele><time>2026-04-18T10:35:35.964Z</time></trkpt><trkpt lat="44.336806" lon="10.7434538"><ele>613.3333333333334</ele><time>2026-04-18T10:35:36.965Z</time></trkpt><trkpt lat="44.3367447" lon="10.7434076"><ele>610.6666666666667</ele><time>2026-04-18T10:35:37.964Z</time></trkpt><trkpt lat="44.3366231" lon="10.7433823"><ele>608.0</ele><time>2026-04-18T10:35:39.965Z</time></trkpt><trkpt lat="44.3365598" lon="10.7433923"><ele>605.3333333333334</ele><time>2026-04-18T10:35:40.965Z</time></trkpt><trkpt lat="44.3364911" lon="10.7434004"><ele>602.6666666666666</ele><time>2026-04-18T10:35:41.964Z</time></trkpt><trkpt lat="44.3364137" lon="10.7433858"><ele>600.0</ele><time>2026-04-18T10:35:42.964Z</time></trkpt><trkpt lat="44.3363327" lon="10.7433791"><ele>599.2</ele><time>2026-04-18T10:35:43.964Z</time></trkpt><trkpt lat="44.3362597" lon="10.7433818"><ele>598.4</ele><time>2026-04-18T10:35:44.965Z</time></trkpt><trkpt lat="44.3361627" lon="10.743329"><ele>597.6</ele><time>2026-04-18T10:35:46.964Z</time></trkpt><trkpt lat="44.3360804" lon="10.7432241"><ele>596.8</ele><time>2026-04-18T10:35:48.964Z</time></trkpt><trkpt lat="44.3360351" lon="10.743158"><ele>596.0</ele><time>2026-04-18T10:35:49.965Z</time></trkpt><trkpt lat="44.3360182" lon="10.7430182"><ele>596.0</ele><time>2026-04-18T10:35:51.964Z</time></trkpt><trkpt lat="44.3360254" lon="10.742846"><ele>596.0</ele><time>2026-04-18T10:35:53.964Z</time></trkpt><trkpt lat="44.3360348" lon="10.7426571"><ele>596.0</ele><time>2026-04-18T10:35:55.965Z</time></trkpt><trkpt lat="44.3360441" lon="10.7425614"><ele>596.0</ele><time>2026-04-18T10:35:56.965Z</time></trkpt><trkpt lat="44.3360507" lon="10.742462"><ele>596.0</ele><time>2026-04-18T10:35:57.965Z</time></trkpt><trkpt lat="44.33606" lon="10.742361"><ele>594.1666666666666</ele><time>2026-04-18T10:35:58.964Z</time></trkpt><trkpt lat="44.3360721" lon="10.7422618"><ele>592.3333333333333</ele><time>2026-04-18T10:35:59.965Z</time></trkpt><trkpt lat="44.3360815" lon="10.7421522"><ele>590.5</ele><time>2026-04-18T10:36:00.965Z</time></trkpt><trkpt lat="44.3360887" lon="10.7420393"><ele>588.6666666666666</ele><time>2026-04-18T10:36:01.964Z</time></trkpt><trkpt lat="44.336101" lon="10.7419109"><ele>586.8333333333334</ele><time>2026-04-18T10:36:02.965Z</time></trkpt><trkpt lat="44.3361198" lon="10.7417937"><ele>585.0</ele><time>2026-04-18T10:36:03.965Z</time></trkpt><trkpt lat="44.3361405" lon="10.7416815"><ele>583.3333333333334</ele><time>2026-04-18T10:36:04.965Z</time></trkpt><trkpt lat="44.3361511" lon="10.7415761"><ele>581.6666666666666</ele><time>2026-04-18T10:36:05.964Z</time></trkpt><trkpt lat="44.3361614" lon="10.7414563"><ele>580.0</ele><time>2026-04-18T10:36:06.965Z</time></trkpt><trkpt lat="44.3361706" lon="10.7413446"><ele>578.3333333333333</ele><time>2026-04-18T10:36:07.964Z</time></trkpt><trkpt lat="44.3361809" lon="10.7412247"><ele>576.6666666666666</ele><time>2026-04-18T10:36:08.965Z</time></trkpt><trkpt lat="44.3361873" lon="10.7411261"><ele>575.0</ele><time>2026-04-18T10:36:09.964Z</time></trkpt><trkpt lat="44.3362076" lon="10.7410277"><ele>573.8333333333333</ele><time>2026-04-18T10:36:10.964Z</time></trkpt><trkpt lat="44.3362394" lon="10.7408687"><ele>572.6666666666666</ele><time>2026-04-18T10:36:12.964Z</time></trkpt><trkpt lat="44.336257" lon="10.7407746"><ele>571.5</ele><time>2026-04-18T10:36:14.964Z</time></trkpt><trkpt lat="44.3362874" lon="10.7406842"><ele>570.3333333333334</ele><time>2026-04-18T10:36:17.964Z</time></trkpt><trkpt lat="44.336282" lon="10.7405898"><ele>569.1666666666667</ele><time>2026-04-18T10:36:19.964Z</time></trkpt><trkpt lat="44.3362037" lon="10.7405632"><ele>568.0</ele><time>2026-04-18T10:36:37.964Z</time></trkpt><trkpt lat="44.3361443" lon="10.7405144"><ele>568.0</ele><time>2026-04-18T10:36:38.964Z</time></trkpt><trkpt lat="44.3360784" lon="10.7404492"><ele>568.0</ele><time>2026-04-18T10:36:39.965Z</time></trkpt><trkpt lat="44.3360035" lon="10.7403793"><ele>568.0</ele><time>2026-04-18T10:36:40.964Z</time></trkpt><trkpt lat="44.3359031" lon="10.7403021"><ele>568.0</ele><time>2026-04-18T10:36:41.964Z</time></trkpt><trkpt lat="44.3357929" lon="10.7402541"><ele>568.0</ele><time>2026-04-18T10:36:42.964Z</time></trkpt><trkpt lat="44.3356768" lon="10.7402386"><ele>568.0</ele><time>2026-04-18T10:36:43.964Z</time></trkpt><trkpt lat="44.3355613" lon="10.7402623"><ele>568.0</ele><time>2026-04-18T10:36:44.965Z</time></trkpt><trkpt lat="44.3354453" lon="10.7403167"><ele>568.0</ele><time>2026-04-18T10:36:45.964Z</time></trkpt><trkpt lat="44.3353399" lon="10.7403748"><ele>568.0</ele><time>2026-04-18T10:36:46.964Z</time></trkpt><trkpt lat="44.3352394" lon="10.7404213"><ele>567.8333333333334</ele><time>2026-04-18T10:36:47.964Z</time></trkpt><trkpt lat="44.3351491" lon="10.7404464"><ele>567.6666666666667</ele><time>2026-04-18T10:36:48.965Z</time></trkpt><trkpt lat="44.335066" lon="10.7404436"><ele>567.5</ele><time>2026-04-18T10:36:49.964Z</time></trkpt><trkpt lat="44.3350053" lon="10.7403913"><ele>567.3333333333334</ele><time>2026-04-18T10:36:50.965Z</time></trkpt><trkpt lat="44.3349821" lon="10.7403034"><ele>567.1666666666666</ele><time>2026-04-18T10:36:51.965Z</time></trkpt><trkpt lat="44.3349912" lon="10.7401995"><ele>567.0</ele><time>2026-04-18T10:36:52.965Z</time></trkpt><trkpt lat="44.3350317" lon="10.7400871"><ele>567.0</ele><time>2026-04-18T10:36:53.964Z</time></trkpt><trkpt lat="44.3350918" lon="10.739953"><ele>567.0</ele><time>2026-04-18T10:36:54.964Z</time></trkpt><trkpt lat="44.3351574" lon="10.7398056"><ele>567.0</ele><time>2026-04-18T10:36:55.965Z</time></trkpt><trkpt lat="44.3352191" lon="10.7396612"><ele>567.0</ele><time>2026-04-18T10:36:56.964Z</time></trkpt><trkpt lat="44.3352591" lon="10.7395295"><ele>567.0</ele><time>2026-04-18T10:36:57.964Z</time></trkpt><trkpt lat="44.3352746" lon="10.7393918"><ele>567.0</ele><time>2026-04-18T10:36:58.965Z</time></trkpt><trkpt lat="44.3352542" lon="10.7392421"><ele>567.0</ele><time>2026-04-18T10:36:59.964Z</time></trkpt><trkpt lat="44.3352155" lon="10.7390863"><ele>567.0</ele><time>2026-04-18T10:37:00.965Z</time></trkpt><trkpt lat="44.3351654" lon="10.7389222"><ele>568.0</ele><time>2026-04-18T10:37:01.965Z</time></trkpt><trkpt lat="44.335101" lon="10.7387574"><ele>569.0</ele><time>2026-04-18T10:37:02.964Z</time></trkpt><trkpt lat="44.3350205" lon="10.7385901"><ele>570.0</ele><time>2026-04-18T10:37:03.965Z</time></trkpt><trkpt lat="44.3349294" lon="10.7384182"><ele>571.0</ele><time>2026-04-18T10:37:04.965Z</time></trkpt><trkpt lat="44.3348368" lon="10.7382499"><ele>571.3333333333334</ele><time>2026-04-18T10:37:05.965Z</time></trkpt><trkpt lat="44.3347424" lon="10.738082"><ele>571.6666666666666</ele><time>2026-04-18T10:37:06.965Z</time></trkpt><trkpt lat="44.3346438" lon="10.7379113"><ele>572.0</ele><time>2026-04-18T10:37:07.965Z</time></trkpt><trkpt lat="44.3345575" lon="10.7377572"><ele>573.0</ele><time>2026-04-18T10:37:08.964Z</time></trkpt><trkpt lat="44.3344803" lon="10.7376265"><ele>574.0</ele><time>2026-04-18T10:37:09.964Z</time></trkpt><trkpt lat="44.3344033" lon="10.7375296"><ele>575.0</ele><time>2026-04-18T10:37:10.965Z</time></trkpt><trkpt lat="44.3343193" lon="10.737488"><ele>576.0</ele><time>2026-04-18T10:37:11.964Z</time></trkpt><trkpt lat="44.3342464" lon="10.7375086"><ele>577.0</ele><time>2026-04-18T10:37:12.965Z</time></trkpt><trkpt lat="44.3341945" lon="10.7375841"><ele>577.0</ele><time>2026-04-18T10:37:13.965Z</time></trkpt><trkpt lat="44.3341689" lon="10.7377087"><ele>577.0</ele><time>2026-04-18T10:37:14.965Z</time></trkpt><trkpt lat="44.3341594" lon="10.7378668"><ele>577.0</ele><time>2026-04-18T10:37:15.964Z</time></trkpt><trkpt lat="44.3341535" lon="10.7380611"><ele>577.0</ele><time>2026-04-18T10:37:16.965Z</time></trkpt><trkpt lat="44.3341515" lon="10.7382891"><ele>579.5</ele><time>2026-04-18T10:37:17.964Z</time></trkpt><trkpt lat="44.3341504" lon="10.7384895"><ele>582.0</ele><time>2026-04-18T10:37:18.964Z</time></trkpt><trkpt lat="44.3341491" lon="10.7386713"><ele>584.5</ele><time>2026-04-18T10:37:19.964Z</time></trkpt><trkpt lat="44.3341468" lon="10.7388485"><ele>587.0</ele><time>2026-04-18T10:37:20.965Z</time></trkpt><trkpt lat="44.3341416" lon="10.7390231"><ele>587.2</ele><time>2026-04-18T10:37:21.964Z</time></trkpt><trkpt lat="44.3341371" lon="10.7391955"><ele>587.4000000000001</ele><time>2026-04-18T10:37:22.965Z</time></trkpt><trkpt lat="44.3341271" lon="10.7393531"><ele>587.5999999999999</ele><time>2026-04-18T10:37:23.965Z</time></trkpt><trkpt lat="44.3340956" lon="10.7394837"><ele>587.8</ele><time>2026-04-18T10:37:24.964Z</time></trkpt><trkpt lat="44.3340367" lon="10.7395822"><ele>588.0</ele><time>2026-04-18T10:37:25.965Z</time></trkpt><trkpt lat="44.3339569" lon="10.739646"><ele>590.4</ele><time>2026-04-18T10:37:26.965Z</time></trkpt><trkpt lat="44.3338623" lon="10.7396704"><ele>592.8</ele><time>2026-04-18T10:37:27.964Z</time></trkpt><trkpt lat="44.3337604" lon="10.7396416"><ele>595.2</ele><time>2026-04-18T10:37:28.965Z</time></trkpt><trkpt lat="44.3336678" lon="10.739563"><ele>597.6</ele><time>2026-04-18T10:37:29.964Z</time></trkpt><trkpt lat="44.3335691" lon="10.7394456"><ele>600.0</ele><time>2026-04-18T10:37:30.964Z</time></trkpt><trkpt lat="44.3334669" lon="10.7393093"><ele>600.3333333333334</ele><time>2026-04-18T10:37:31.965Z</time></trkpt><trkpt lat="44.3333639" lon="10.7391622"><ele>600.6666666666667</ele><time>2026-04-18T10:37:32.965Z</time></trkpt><trkpt lat="44.3332548" lon="10.739013"><ele>601.0</ele><time>2026-04-18T10:37:33.965Z</time></trkpt><trkpt lat="44.3331406" lon="10.7388707"><ele>603.0</ele><time>2026-04-18T10:37:34.965Z</time></trkpt><trkpt lat="44.3330231" lon="10.738744"><ele>605.0</ele><time>2026-04-18T10:37:35.965Z</time></trkpt><trkpt lat="44.3329007" lon="10.7386254"><ele>607.0</ele><time>2026-04-18T10:37:36.965Z</time></trkpt><trkpt lat="44.3327815" lon="10.7385151"><ele>609.0</ele><time>2026-04-18T10:37:37.964Z</time></trkpt><trkpt lat="44.3326687" lon="10.7384115"><ele>609.75</ele><time>2026-04-18T10:37:38.965Z</time></trkpt><trkpt lat="44.3325585" lon="10.7383129"><ele>610.5</ele><time>2026-04-18T10:37:39.964Z</time></trkpt><trkpt lat="44.3324558" lon="10.7382657"><ele>611.25</ele><time>2026-04-18T10:37:40.964Z</time></trkpt><trkpt lat="44.3323532" lon="10.7382738"><ele>612.0</ele><time>2026-04-18T10:37:41.964Z</time></trkpt><trkpt lat="44.3322472" lon="10.738317"><ele>615.0</ele><time>2026-04-18T10:37:42.964Z</time></trkpt><trkpt lat="44.3321433" lon="10.7383873"><ele>618.0</ele><time>2026-04-18T10:37:43.964Z</time></trkpt><trkpt lat="44.3320339" lon="10.7384693"><ele>621.0</ele><time>2026-04-18T10:37:44.964Z</time></trkpt><trkpt lat="44.3319411" lon="10.7385566"><ele>624.0</ele><time>2026-04-18T10:37:45.965Z</time></trkpt><trkpt lat="44.3318766" lon="10.7386706"><ele>625.75</ele><time>2026-04-18T10:37:46.964Z</time></trkpt><trkpt lat="44.3318406" lon="10.7388108"><ele>627.5</ele><time>2026-04-18T10:37:47.965Z</time></trkpt><trkpt lat="44.3318343" lon="10.7389722"><ele>629.25</ele><time>2026-04-18T10:37:48.964Z</time></trkpt><trkpt lat="44.3318584" lon="10.7391473"><ele>631.0</ele><time>2026-04-18T10:37:49.965Z</time></trkpt><trkpt lat="44.3319072" lon="10.7393319"><ele>634.25</ele><time>2026-04-18T10:37:50.965Z</time></trkpt><trkpt lat="44.3319716" lon="10.739521"><ele>637.5</ele><time>2026-04-18T10:37:51.964Z</time></trkpt><trkpt lat="44.332037" lon="10.73971"><ele>640.75</ele><time>2026-04-18T10:37:52.964Z</time></trkpt><trkpt lat="44.3320919" lon="10.7398878"><ele>644.0</ele><time>2026-04-18T10:37:53.964Z</time></trkpt><trkpt lat="44.3321324" lon="10.7400704"><ele>646.5</ele><time>2026-04-18T10:37:54.965Z</time></trkpt><trkpt lat="44.33216" lon="10.7402518"><ele>649.0</ele><time>2026-04-18T10:37:55.965Z</time></trkpt><trkpt lat="44.332176" lon="10.7404385"><ele>651.5</ele><time>2026-04-18T10:37:56.965Z</time></trkpt><trkpt lat="44.332192" lon="10.7406267"><ele>654.0</ele><time>2026-04-18T10:37:57.965Z</time></trkpt><trkpt lat="44.3322293" lon="10.7408139"><ele>649.5</ele><time>2026-04-18T10:37:58.964Z</time></trkpt><trkpt lat="44.3322827" lon="10.7409992"><ele>645.0</ele><time>2026-04-18T10:37:59.965Z</time></trkpt><trkpt lat="44.3323463" lon="10.7411724"><ele>640.5</ele><time>2026-04-18T10:38:00.964Z</time></trkpt><trkpt lat="44.3324178" lon="10.7413301"><ele>636.0</ele><time>2026-04-18T10:38:01.965Z</time></trkpt><trkpt lat="44.3324691" lon="10.7414692"><ele>636.0</ele><time>2026-04-18T10:38:02.964Z</time></trkpt><trkpt lat="44.3325218" lon="10.741604"><ele>636.0</ele><time>2026-04-18T10:38:03.964Z</time></trkpt><trkpt lat="44.3325511" lon="10.7417245"><ele>636.0</ele><time>2026-04-18T10:38:04.965Z</time></trkpt><trkpt lat="44.3325473" lon="10.7418376"><ele>636.0</ele><time>2026-04-18T10:38:05.964Z</time></trkpt><trkpt lat="44.3325158" lon="10.7419434"><ele>636.0</ele><time>2026-04-18T10:38:06.965Z</time></trkpt><trkpt lat="44.332475" lon="10.7420589"><ele>637.8</ele><time>2026-04-18T10:38:07.964Z</time></trkpt><trkpt lat="44.3324257" lon="10.7421815"><ele>639.6</ele><time>2026-04-18T10:38:08.965Z</time></trkpt><trkpt lat="44.3323671" lon="10.7423158"><ele>641.4</ele><time>2026-04-18T10:38:09.965Z</time></trkpt><trkpt lat="44.3323015" lon="10.7424509"><ele>643.2</ele><time>2026-04-18T10:38:10.964Z</time></trkpt><trkpt lat="44.3322342" lon="10.7425852"><ele>645.0</ele><time>2026-04-18T10:38:11.964Z</time></trkpt><trkpt lat="44.3321659" lon="10.7427152"><ele>649.6</ele><time>2026-04-18T10:38:12.965Z</time></trkpt><trkpt lat="44.3320991" lon="10.742832"><ele>654.2</ele><time>2026-04-18T10:38:13.965Z</time></trkpt><trkpt lat="44.3320123" lon="10.7429227"><ele>658.8</ele><time>2026-04-18T10:38:14.964Z</time></trkpt><trkpt lat="44.3319155" lon="10.7429896"><ele>663.4</ele><time>2026-04-18T10:38:15.965Z</time></trkpt><trkpt lat="44.3318106" lon="10.7430509"><ele>668.0</ele><time>2026-04-18T10:38:16.965Z</time></trkpt><trkpt lat="44.3317024" lon="10.7431152"><ele>668.0</ele><time>2026-04-18T10:38:17.965Z</time></trkpt><trkpt lat="44.3315979" lon="10.7431746"><ele>668.0</ele><time>2026-04-18T10:38:18.964Z</time></trkpt><trkpt lat="44.3314953" lon="10.7432261"><ele>668.0</ele><time>2026-04-18T10:38:19.964Z</time></trkpt><trkpt lat="44.3314027" lon="10.7432535"><ele>668.0</ele><time>2026-04-18T10:38:20.965Z</time></trkpt><trkpt lat="44.3313257" lon="10.7432374"><ele>668.0</ele><time>2026-04-18T10:38:21.965Z</time></trkpt><trkpt lat="44.3312602" lon="10.7430734"><ele>671.8</ele><time>2026-04-18T10:38:23.965Z</time></trkpt><trkpt lat="44.3312664" lon="10.7429415"><ele>675.5999999999999</ele><time>2026-04-18T10:38:24.964Z</time></trkpt><trkpt lat="44.331282" lon="10.742787"><ele>679.4000000000001</ele><time>2026-04-18T10:38:25.965Z</time></trkpt><trkpt lat="44.3312965" lon="10.7426269"><ele>683.2</ele><time>2026-04-18T10:38:26.964Z</time></trkpt><trkpt lat="44.3313069" lon="10.7424604"><ele>687.0</ele><time>2026-04-18T10:38:27.964Z</time></trkpt><trkpt lat="44.331304" lon="10.7422912"><ele>687.0</ele><time>2026-04-18T10:38:28.965Z</time></trkpt><trkpt lat="44.3312924" lon="10.7421105"><ele>687.0</ele><time>2026-04-18T10:38:29.964Z</time></trkpt><trkpt lat="44.3312657" lon="10.7419286"><ele>687.0</ele><time>2026-04-18T10:38:30.964Z</time></trkpt><trkpt lat="44.3312382" lon="10.7417448"><ele>687.0</ele><time>2026-04-18T10:38:31.964Z</time></trkpt><trkpt lat="44.331209" lon="10.7415606"><ele>686.8</ele><time>2026-04-18T10:38:32.964Z</time></trkpt><trkpt lat="44.3311776" lon="10.7413902"><ele>686.6</ele><time>2026-04-18T10:38:33.965Z</time></trkpt><trkpt lat="44.3311561" lon="10.7412404"><ele>686.4</ele><time>2026-04-18T10:38:34.964Z</time></trkpt><trkpt lat="44.33112" lon="10.7411144"><ele>686.1999999999999</ele><time>2026-04-18T10:38:35.965Z</time></trkpt><trkpt lat="44.3310656" lon="10.7410251"><ele>686.0</ele><time>2026-04-18T10:38:36.964Z</time></trkpt><trkpt lat="44.3310045" lon="10.7409381"><ele>684.75</ele><time>2026-04-18T10:38:37.964Z</time></trkpt><trkpt lat="44.3309233" lon="10.7408825"><ele>683.5</ele><time>2026-04-18T10:38:38.964Z</time></trkpt><trkpt lat="44.3307708" lon="10.740905"><ele>682.25</ele><time>2026-04-18T10:38:39.965Z</time></trkpt><trkpt lat="44.3306406" lon="10.7408853"><ele>681.0</ele><time>2026-04-18T10:38:40.964Z</time></trkpt><trkpt lat="44.3305036" lon="10.7408749"><ele>684.25</ele><time>2026-04-18T10:38:41.965Z</time></trkpt><trkpt lat="44.3303725" lon="10.7408638"><ele>687.5</ele><time>2026-04-18T10:38:42.965Z</time></trkpt><trkpt lat="44.3302466" lon="10.7408464"><ele>690.75</ele><time>2026-04-18T10:38:43.964Z</time></trkpt><trkpt lat="44.3301175" lon="10.7408127"><ele>694.0</ele><time>2026-04-18T10:38:44.964Z</time></trkpt><trkpt lat="44.330022" lon="10.740755"><ele>694.0</ele><time>2026-04-18T10:38:45.964Z</time></trkpt><trkpt lat="44.3299234" lon="10.7406868"><ele>694.0</ele><time>2026-04-18T10:38:46.964Z</time></trkpt><trkpt lat="44.3298819" lon="10.740528"><ele>694.0</ele><time>2026-04-18T10:38:47.965Z</time></trkpt><trkpt lat="44.3298236" lon="10.7403557"><ele>694.0</ele><time>2026-04-18T10:38:48.965Z</time></trkpt><trkpt lat="44.3297634" lon="10.7401703"><ele>697.0</ele><time>2026-04-18T10:38:49.964Z</time></trkpt><trkpt lat="44.3297104" lon="10.7400081"><ele>700.0</ele><time>2026-04-18T10:38:50.965Z</time></trkpt><trkpt lat="44.3296551" lon="10.7398641"><ele>703.0</ele><time>2026-04-18T10:38:51.964Z</time></trkpt><trkpt lat="44.3295896" lon="10.7397391"><ele>706.0</ele><time>2026-04-18T10:38:52.965Z</time></trkpt><trkpt lat="44.3295038" lon="10.7396539"><ele>706.0</ele><time>2026-04-18T10:38:53.964Z</time></trkpt><trkpt lat="44.3294019" lon="10.739619"><ele>706.0</ele><time>2026-04-18T10:38:54.964Z</time></trkpt><trkpt lat="44.3292879" lon="10.7396144"><ele>706.0</ele><time>2026-04-18T10:38:55.964Z</time></trkpt><trkpt lat="44.3291664" lon="10.7396096"><ele>706.0</ele><time>2026-04-18T10:38:56.964Z</time></trkpt><trkpt lat="44.3290367" lon="10.7396062"><ele>706.0</ele><time>2026-04-18T10:38:57.964Z</time></trkpt><trkpt lat="44.3289125" lon="10.7395995"><ele>706.0</ele><time>2026-04-18T10:38:58.965Z</time></trkpt><trkpt lat="44.3288057" lon="10.7395894"><ele>706.0</ele><time>2026-04-18T10:38:59.964Z</time></trkpt><trkpt lat="44.3287155" lon="10.7395356"><ele>706.0</ele><time>2026-04-18T10:39:00.964Z</time></trkpt><trkpt lat="44.3286601" lon="10.7394307"><ele>706.0</ele><time>2026-04-18T10:39:01.965Z</time></trkpt><trkpt lat="44.3286394" lon="10.7392954"><ele>710.0</ele><time>2026-04-18T10:39:02.964Z</time></trkpt><trkpt lat="44.3286293" lon="10.739131"><ele>714.0</ele><time>2026-04-18T10:39:03.964Z</time></trkpt><trkpt lat="44.328618" lon="10.7389554"><ele>718.0</ele><time>2026-04-18T10:39:04.964Z</time></trkpt><trkpt lat="44.3286077" lon="10.7387801"><ele>722.0</ele><time>2026-04-18T10:39:05.965Z</time></trkpt><trkpt lat="44.3286077" lon="10.7386086"><ele>723.0</ele><time>2026-04-18T10:39:06.965Z</time></trkpt><trkpt lat="44.3286156" lon="10.7384291"><ele>724.0</ele><time>2026-04-18T10:39:07.964Z</time></trkpt><trkpt lat="44.3286391" lon="10.738251"><ele>725.0</ele><time>2026-04-18T10:39:08.964Z</time></trkpt><trkpt lat="44.3286762" lon="10.7380786"><ele>726.0</ele><time>2026-04-18T10:39:09.964Z</time></trkpt><trkpt lat="44.328712" lon="10.7379224"><ele>726.0</ele><time>2026-04-18T10:39:10.964Z</time></trkpt><trkpt lat="44.3287451" lon="10.7377803"><ele>726.0</ele><time>2026-04-18T10:39:11.965Z</time></trkpt><trkpt lat="44.328776" lon="10.73765"><ele>726.0</ele><time>2026-04-18T10:39:12.964Z</time></trkpt><trkpt lat="44.3287882" lon="10.7375349"><ele>726.0</ele><time>2026-04-18T10:39:13.964Z</time></trkpt><trkpt lat="44.3287673" lon="10.7374311"><ele>726.0</ele><time>2026-04-18T10:39:14.964Z</time></trkpt><trkpt lat="44.328714" lon="10.737351"><ele>726.0</ele><time>2026-04-18T10:39:15.965Z</time></trkpt><trkpt lat="44.328631" lon="10.7372894"><ele>724.75</ele><time>2026-04-18T10:39:16.964Z</time></trkpt><trkpt lat="44.3285251" lon="10.7372264"><ele>723.5</ele><time>2026-04-18T10:39:17.964Z</time></trkpt><trkpt lat="44.3284001" lon="10.7371614"><ele>722.25</ele><time>2026-04-18T10:39:18.965Z</time></trkpt><trkpt lat="44.3282744" lon="10.7371004"><ele>721.0</ele><time>2026-04-18T10:39:19.964Z</time></trkpt><trkpt lat="44.3281552" lon="10.7370256"><ele>721.0</ele><time>2026-04-18T10:39:20.965Z</time></trkpt><trkpt lat="44.3280376" lon="10.7369232"><ele>721.0</ele><time>2026-04-18T10:39:21.965Z</time></trkpt><trkpt lat="44.3279194" lon="10.736801"><ele>721.0</ele><time>2026-04-18T10:39:22.964Z</time></trkpt><trkpt lat="44.3277997" lon="10.7366687"><ele>721.0</ele><time>2026-04-18T10:39:23.964Z</time></trkpt><trkpt lat="44.3276857" lon="10.7365364"><ele>721.0</ele><time>2026-04-18T10:39:24.965Z</time></trkpt><trkpt lat="44.3276022" lon="10.7364038"><ele>721.0</ele><time>2026-04-18T10:39:25.965Z</time></trkpt><trkpt lat="44.3275153" lon="10.7362823"><ele>721.0</ele><time>2026-04-18T10:39:26.965Z</time></trkpt><trkpt lat="44.3274395" lon="10.7361719"><ele>721.0</ele><time>2026-04-18T10:39:27.965Z</time></trkpt><trkpt lat="44.3273573" lon="10.7360807"><ele>719.75</ele><time>2026-04-18T10:39:28.964Z</time></trkpt><trkpt lat="44.3272553" lon="10.7360132"><ele>718.5</ele><time>2026-04-18T10:39:29.965Z</time></trkpt><trkpt lat="44.3271453" lon="10.7359437"><ele>717.25</ele><time>2026-04-18T10:39:30.965Z</time></trkpt><trkpt lat="44.3270098" lon="10.7358828"><ele>716.0</ele><time>2026-04-18T10:39:31.964Z</time></trkpt><trkpt lat="44.3268885" lon="10.7358173"><ele>716.0</ele><time>2026-04-18T10:39:32.965Z</time></trkpt><trkpt lat="44.3267805" lon="10.7357408"><ele>716.0</ele><time>2026-04-18T10:39:33.965Z</time></trkpt><trkpt lat="44.3266807" lon="10.7356569"><ele>716.0</ele><time>2026-04-18T10:39:34.965Z</time></trkpt><trkpt lat="44.326569" lon="10.7355797"><ele>716.0</ele><time>2026-04-18T10:39:35.964Z</time></trkpt><trkpt lat="44.3264466" lon="10.7355155"><ele>719.0</ele><time>2026-04-18T10:39:36.965Z</time></trkpt><trkpt lat="44.3263294" lon="10.7354468"><ele>722.0</ele><time>2026-04-18T10:39:37.964Z</time></trkpt><trkpt lat="44.3262143" lon="10.7353773"><ele>725.0</ele><time>2026-04-18T10:39:38.964Z</time></trkpt><trkpt lat="44.3260974" lon="10.7353156"><ele>728.0</ele><time>2026-04-18T10:39:39.965Z</time></trkpt><trkpt lat="44.3259804" lon="10.7352597"><ele>728.0</ele><time>2026-04-18T10:39:40.964Z</time></trkpt><trkpt lat="44.3258628" lon="10.735226"><ele>728.0</ele><time>2026-04-18T10:39:41.964Z</time></trkpt><trkpt lat="44.3257535" lon="10.7352162"><ele>728.0</ele><time>2026-04-18T10:39:42.964Z</time></trkpt><trkpt lat="44.3256503" lon="10.7351888"><ele>728.0</ele><time>2026-04-18T10:39:43.964Z</time></trkpt><trkpt lat="44.3255452" lon="10.7351541"><ele>728.0</ele><time>2026-04-18T10:39:44.965Z</time></trkpt><trkpt lat="44.3254676" lon="10.7350225"><ele>724.4</ele><time>2026-04-18T10:39:45.965Z</time></trkpt><trkpt lat="44.3254029" lon="10.7348961"><ele>720.8</ele><time>2026-04-18T10:39:46.965Z</time></trkpt><trkpt lat="44.3253684" lon="10.7347557"><ele>717.2</ele><time>2026-04-18T10:39:47.964Z</time></trkpt><trkpt lat="44.3253167" lon="10.7346384"><ele>713.6</ele><time>2026-04-18T10:39:48.964Z</time></trkpt><trkpt lat="44.3252402" lon="10.734562"><ele>710.0</ele><time>2026-04-18T10:39:49.965Z</time></trkpt><trkpt lat="44.3251586" lon="10.7345121"><ele>710.0</ele><time>2026-04-18T10:39:50.965Z</time></trkpt><trkpt lat="44.3250438" lon="10.7345119"><ele>710.0</ele><time>2026-04-18T10:39:51.965Z</time></trkpt><trkpt lat="44.3249157" lon="10.7345327"><ele>710.0</ele><time>2026-04-18T10:39:52.964Z</time></trkpt><trkpt lat="44.3247767" lon="10.7345487"><ele>710.0</ele><time>2026-04-18T10:39:53.965Z</time></trkpt><trkpt lat="44.3246366" lon="10.7345575"><ele>713.0</ele><time>2026-04-18T10:39:54.964Z</time></trkpt><trkpt lat="44.3244858" lon="10.7345526"><ele>716.0</ele><time>2026-04-18T10:39:55.965Z</time></trkpt><trkpt lat="44.3243397" lon="10.7345296"><ele>719.0</ele><time>2026-04-18T10:39:56.964Z</time></trkpt><trkpt lat="44.3241965" lon="10.734483"><ele>722.0</ele><time>2026-04-18T10:39:57.964Z</time></trkpt><trkpt lat="44.3240616" lon="10.7344249"><ele>723.4000000000001</ele><time>2026-04-18T10:39:58.965Z</time></trkpt><trkpt lat="44.3239453" lon="10.7343592"><ele>724.8000000000001</ele><time>2026-04-18T10:39:59.965Z</time></trkpt><trkpt lat="44.3238575" lon="10.7342841"><ele>726.2</ele><time>2026-04-18T10:40:00.964Z</time></trkpt><trkpt lat="44.3237933" lon="10.734181"><ele>727.6</ele><time>2026-04-18T10:40:01.964Z</time></trkpt><trkpt lat="44.3237537" lon="10.7340472"><ele>729.0</ele><time>2026-04-18T10:40:02.964Z</time></trkpt><trkpt lat="44.3237424" lon="10.7338903"><ele>729.0</ele><time>2026-04-18T10:40:03.964Z</time></trkpt><trkpt lat="44.3237467" lon="10.7337157"><ele>729.0</ele><time>2026-04-18T10:40:04.964Z</time></trkpt><trkpt lat="44.3237498" lon="10.7335353"><ele>729.0</ele><time>2026-04-18T10:40:05.964Z</time></trkpt><trkpt lat="44.3237539" lon="10.7333695"><ele>729.0</ele><time>2026-04-18T10:40:06.964Z</time></trkpt><trkpt lat="44.3237357" lon="10.7332322"><ele>727.2</ele><time>2026-04-18T10:40:07.965Z</time></trkpt><trkpt lat="44.3236883" lon="10.7331282"><ele>725.4000000000001</ele><time>2026-04-18T10:40:08.965Z</time></trkpt><trkpt lat="44.3236132" lon="10.7330952"><ele>723.6</ele><time>2026-04-18T10:40:09.964Z</time></trkpt><trkpt lat="44.3235266" lon="10.7331309"><ele>721.8</ele><time>2026-04-18T10:40:10.964Z</time></trkpt><trkpt lat="44.3234574" lon="10.7332278"><ele>720.0</ele><time>2026-04-18T10:40:11.965Z</time></trkpt><trkpt lat="44.3234176" lon="10.7333643"><ele>720.0</ele><time>2026-04-18T10:40:12.965Z</time></trkpt><trkpt lat="44.323393" lon="10.7335213"><ele>720.0</ele><time>2026-04-18T10:40:13.964Z</time></trkpt><trkpt lat="44.3233734" lon="10.7336819"><ele>720.0</ele><time>2026-04-18T10:40:14.965Z</time></trkpt><trkpt lat="44.3233515" lon="10.7338276"><ele>720.0</ele><time>2026-04-18T10:40:15.964Z</time></trkpt><trkpt lat="44.323333" lon="10.733949"><ele>720.0</ele><time>2026-04-18T10:40:16.964Z</time></trkpt><trkpt lat="44.3232844" lon="10.7340309"><ele>721.8</ele><time>2026-04-18T10:40:17.964Z</time></trkpt><trkpt lat="44.3232156" lon="10.7340569"><ele>723.6</ele><time>2026-04-18T10:40:18.965Z</time></trkpt><trkpt lat="44.323143" lon="10.7340756"><ele>725.4000000000001</ele><time>2026-04-18T10:40:19.964Z</time></trkpt><trkpt lat="44.3230386" lon="10.7340168"><ele>727.2</ele><time>2026-04-18T10:40:20.965Z</time></trkpt><trkpt lat="44.3229315" lon="10.7339747"><ele>729.0</ele><time>2026-04-18T10:40:21.965Z</time></trkpt><trkpt lat="44.3228129" lon="10.7339161"><ele>735.5</ele><time>2026-04-18T10:40:22.965Z</time></trkpt><trkpt lat="44.3226854" lon="10.7338433"><ele>742.0</ele><time>2026-04-18T10:40:23.964Z</time></trkpt><trkpt lat="44.3225612" lon="10.733758"><ele>748.5</ele><time>2026-04-18T10:40:24.964Z</time></trkpt><trkpt lat="44.3224405" lon="10.7336629"><ele>755.0</ele><time>2026-04-18T10:40:25.964Z</time></trkpt><trkpt lat="44.3223191" lon="10.7335656"><ele>757.5</ele><time>2026-04-18T10:40:26.965Z</time></trkpt><trkpt lat="44.3221963" lon="10.733464"><ele>760.0</ele><time>2026-04-18T10:40:27.964Z</time></trkpt><trkpt lat="44.3220741" lon="10.733371"><ele>762.5</ele><time>2026-04-18T10:40:28.964Z</time></trkpt><trkpt lat="44.3219492" lon="10.7332825"><ele>765.0</ele><time>2026-04-18T10:40:29.964Z</time></trkpt><trkpt lat="44.3218243" lon="10.7332071"><ele>765.0</ele><time>2026-04-18T10:40:30.964Z</time></trkpt><trkpt lat="44.3217017" lon="10.7331273"><ele>765.0</ele><time>2026-04-18T10:40:31.965Z</time></trkpt><trkpt lat="44.3215803" lon="10.7330724"><ele>765.0</ele><time>2026-04-18T10:40:32.964Z</time></trkpt><trkpt lat="44.3214703" lon="10.7330138"><ele>765.0</ele><time>2026-04-18T10:40:33.965Z</time></trkpt><trkpt lat="44.3213816" lon="10.7329496"><ele>768.4</ele><time>2026-04-18T10:40:34.964Z</time></trkpt><trkpt lat="44.321303" lon="10.732907"><ele>771.8</ele><time>2026-04-18T10:40:35.964Z</time></trkpt><trkpt lat="44.3212211" lon="10.7329173"><ele>775.2</ele><time>2026-04-18T10:40:36.964Z</time></trkpt><trkpt lat="44.3211376" lon="10.7329701"><ele>778.6</ele><time>2026-04-18T10:40:37.965Z</time></trkpt><trkpt lat="44.3210375" lon="10.7330273"><ele>782.0</ele><time>2026-04-18T10:40:38.965Z</time></trkpt><trkpt lat="44.320928" lon="10.7330434"><ele>782.0</ele><time>2026-04-18T10:40:39.964Z</time></trkpt><trkpt lat="44.3208064" lon="10.7330317"><ele>782.0</ele><time>2026-04-18T10:40:40.964Z</time></trkpt><trkpt lat="44.3206838" lon="10.7329972"><ele>782.0</ele><time>2026-04-18T10:40:41.965Z</time></trkpt><trkpt lat="44.3205706" lon="10.7329414"><ele>782.0</ele><time>2026-04-18T10:40:42.965Z</time></trkpt><trkpt lat="44.32047" lon="10.7328826"><ele>780.0</ele><time>2026-04-18T10:40:43.965Z</time></trkpt><trkpt lat="44.3203648" lon="10.732826"><ele>778.0</ele><time>2026-04-18T10:40:44.964Z</time></trkpt><trkpt lat="44.3202606" lon="10.7327699"><ele>776.0</ele><time>2026-04-18T10:40:45.965Z</time></trkpt><trkpt lat="44.3201539" lon="10.7327274"><ele>774.0</ele><time>2026-04-18T10:40:46.964Z</time></trkpt><trkpt lat="44.3200365" lon="10.732706"><ele>774.0</ele><time>2026-04-18T10:40:47.964Z</time></trkpt><trkpt lat="44.3199141" lon="10.732709"><ele>774.0</ele><time>2026-04-18T10:40:48.964Z</time></trkpt><trkpt lat="44.3197862" lon="10.7327075"><ele>774.0</ele><time>2026-04-18T10:40:49.964Z</time></trkpt><trkpt lat="44.3196537" lon="10.7326911"><ele>774.0</ele><time>2026-04-18T10:40:50.964Z</time></trkpt><trkpt lat="44.3195167" lon="10.7326737"><ele>776.5</ele><time>2026-04-18T10:40:51.965Z</time></trkpt><trkpt lat="44.3193755" lon="10.7326487"><ele>779.0</ele><time>2026-04-18T10:40:52.964Z</time></trkpt><trkpt lat="44.3192348" lon="10.7326074"><ele>781.5</ele><time>2026-04-18T10:40:53.965Z</time></trkpt><trkpt lat="44.3190982" lon="10.7325523"><ele>784.0</ele><time>2026-04-18T10:40:54.965Z</time></trkpt><trkpt lat="44.3189669" lon="10.7324942"><ele>784.6</ele><time>2026-04-18T10:40:55.964Z</time></trkpt><trkpt lat="44.3188503" lon="10.7324424"><ele>785.2</ele><time>2026-04-18T10:40:56.965Z</time></trkpt><trkpt lat="44.3187471" lon="10.7324159"><ele>785.8000000000001</ele><time>2026-04-18T10:40:57.965Z</time></trkpt><trkpt lat="44.3186492" lon="10.7324181"><ele>786.4000000000001</ele><time>2026-04-18T10:40:58.965Z</time></trkpt><trkpt lat="44.3185584" lon="10.7324614"><ele>787.0</ele><time>2026-04-18T10:40:59.965Z</time></trkpt><trkpt lat="44.3184864" lon="10.7325503"><ele>787.0</ele><time>2026-04-18T10:41:00.964Z</time></trkpt><trkpt lat="44.3184211" lon="10.7326645"><ele>787.0</ele><time>2026-04-18T10:41:01.965Z</time></trkpt><trkpt lat="44.3183503" lon="10.73278"><ele>787.0</ele><time>2026-04-18T10:41:02.965Z</time></trkpt><trkpt lat="44.3182698" lon="10.732875"><ele>787.0</ele><time>2026-04-18T10:41:03.965Z</time></trkpt><trkpt lat="44.318172" lon="10.7329521"><ele>787.0</ele><time>2026-04-18T10:41:04.964Z</time></trkpt><trkpt lat="44.3180663" lon="10.7330046"><ele>790.2</ele><time>2026-04-18T10:41:05.964Z</time></trkpt><trkpt lat="44.3179597" lon="10.7330493"><ele>793.4000000000001</ele><time>2026-04-18T10:41:06.964Z</time></trkpt><trkpt lat="44.3178536" lon="10.7331042"><ele>796.5999999999999</ele><time>2026-04-18T10:41:07.964Z</time></trkpt><trkpt lat="44.3177546" lon="10.7331655"><ele>799.8</ele><time>2026-04-18T10:41:08.965Z</time></trkpt><trkpt lat="44.3176629" lon="10.7332189"><ele>803.0</ele><time>2026-04-18T10:41:09.965Z</time></trkpt><trkpt lat="44.317579" lon="10.733242"><ele>803.0</ele><time>2026-04-18T10:41:10.965Z</time></trkpt><trkpt lat="44.3175026" lon="10.7332103"><ele>803.0</ele><time>2026-04-18T10:41:11.965Z</time></trkpt><trkpt lat="44.3174344" lon="10.7331346"><ele>803.0</ele><time>2026-04-18T10:41:12.965Z</time></trkpt><trkpt lat="44.3173783" lon="10.7330104"><ele>803.0</ele><time>2026-04-18T10:41:13.964Z</time></trkpt><trkpt lat="44.3173082" lon="10.7329013"><ele>803.0</ele><time>2026-04-18T10:41:14.965Z</time></trkpt><trkpt lat="44.3172396" lon="10.732808"><ele>801.5</ele><time>2026-04-18T10:41:15.964Z</time></trkpt><trkpt lat="44.3171669" lon="10.7327104"><ele>800.0</ele><time>2026-04-18T10:41:16.965Z</time></trkpt><trkpt lat="44.3170608" lon="10.7326498"><ele>798.5</ele><time>2026-04-18T10:41:17.964Z</time></trkpt><trkpt lat="44.3169495" lon="10.7325803"><ele>797.0</ele><time>2026-04-18T10:41:18.965Z</time></trkpt><trkpt lat="44.3168335" lon="10.7325087"><ele>797.0</ele><time>2026-04-18T10:41:19.964Z</time></trkpt><trkpt lat="44.3167136" lon="10.7324517"><ele>797.0</ele><time>2026-04-18T10:41:20.964Z</time></trkpt><trkpt lat="44.3165852" lon="10.7324105"><ele>797.0</ele><time>2026-04-18T10:41:21.964Z</time></trkpt><trkpt lat="44.3164489" lon="10.7323786"><ele>797.0</ele><time>2026-04-18T10:41:22.964Z</time></trkpt><trkpt lat="44.3163151" lon="10.7323339"><ele>799.0</ele><time>2026-04-18T10:41:23.964Z</time></trkpt><trkpt lat="44.3161762" lon="10.73229"><ele>801.0</ele><time>2026-04-18T10:41:24.964Z</time></trkpt><trkpt lat="44.3160379" lon="10.7322508"><ele>803.0</ele><time>2026-04-18T10:41:25.964Z</time></trkpt><trkpt lat="44.3158989" lon="10.7322001"><ele>805.0</ele><time>2026-04-18T10:41:26.964Z</time></trkpt><trkpt lat="44.3157653" lon="10.7321169"><ele>805.0</ele><time>2026-04-18T10:41:27.964Z</time></trkpt><trkpt lat="44.315636" lon="10.7320314"><ele>805.0</ele><time>2026-04-18T10:41:28.964Z</time></trkpt><trkpt lat="44.3155036" lon="10.7319768"><ele>805.0</ele><time>2026-04-18T10:41:29.964Z</time></trkpt><trkpt lat="44.3153836" lon="10.7319413"><ele>805.0</ele><time>2026-04-18T10:41:30.965Z</time></trkpt><trkpt lat="44.3152739" lon="10.7319176"><ele>804.0</ele><time>2026-04-18T10:41:31.965Z</time></trkpt><trkpt lat="44.3151746" lon="10.7319121"><ele>803.0</ele><time>2026-04-18T10:41:32.964Z</time></trkpt><trkpt lat="44.3150837" lon="10.7319361"><ele>802.0</ele><time>2026-04-18T10:41:33.964Z</time></trkpt><trkpt lat="44.3149981" lon="10.731997"><ele>801.0</ele><time>2026-04-18T10:41:34.965Z</time></trkpt><trkpt lat="44.3149084" lon="10.7320942"><ele>800.0</ele><time>2026-04-18T10:41:35.965Z</time></trkpt><trkpt lat="44.3148072" lon="10.7322059"><ele>795.0</ele><time>2026-04-18T10:41:36.964Z</time></trkpt><trkpt lat="44.3146952" lon="10.732327"><ele>790.0</ele><time>2026-04-18T10:41:37.964Z</time></trkpt><trkpt lat="44.3145655" lon="10.7324332"><ele>785.0</ele><time>2026-04-18T10:41:38.964Z</time></trkpt><trkpt lat="44.3144179" lon="10.7325191"><ele>785.0</ele><time>2026-04-18T10:41:39.965Z</time></trkpt><trkpt lat="44.3142573" lon="10.7325671"><ele>785.0</ele><time>2026-04-18T10:41:40.965Z</time></trkpt><trkpt lat="44.314098" lon="10.7325989"><ele>785.0</ele><time>2026-04-18T10:41:41.965Z</time></trkpt><trkpt lat="44.3139467" lon="10.7326412"><ele>784.25</ele><time>2026-04-18T10:41:42.964Z</time></trkpt><trkpt lat="44.313801" lon="10.7326803"><ele>783.5</ele><time>2026-04-18T10:41:43.965Z</time></trkpt><trkpt lat="44.3136528" lon="10.7326883"><ele>782.75</ele><time>2026-04-18T10:41:44.965Z</time></trkpt><trkpt lat="44.3135071" lon="10.7326659"><ele>782.0</ele><time>2026-04-18T10:41:45.965Z</time></trkpt><trkpt lat="44.3133724" lon="10.7325917"><ele>782.0</ele><time>2026-04-18T10:41:46.964Z</time></trkpt><trkpt lat="44.3132469" lon="10.7324883"><ele>782.0</ele><time>2026-04-18T10:41:47.965Z</time></trkpt><trkpt lat="44.3131217" lon="10.73238"><ele>782.0</ele><time>2026-04-18T10:41:48.964Z</time></trkpt><trkpt lat="44.3130053" lon="10.7322586"><ele>782.0</ele><time>2026-04-18T10:41:49.964Z</time></trkpt><trkpt lat="44.3129101" lon="10.7321222"><ele>782.75</ele><time>2026-04-18T10:41:50.965Z</time></trkpt><trkpt lat="44.3128227" lon="10.7319777"><ele>783.5</ele><time>2026-04-18T10:41:51.964Z</time></trkpt><trkpt lat="44.3127346" lon="10.7318392"><ele>784.25</ele><time>2026-04-18T10:41:52.964Z</time></trkpt><trkpt lat="44.3126517" lon="10.7317048"><ele>785.0</ele><time>2026-04-18T10:41:53.965Z</time></trkpt><trkpt lat="44.3125741" lon="10.7315739"><ele>783.8</ele><time>2026-04-18T10:41:54.964Z</time></trkpt><trkpt lat="44.3124991" lon="10.7314507"><ele>782.6</ele><time>2026-04-18T10:41:55.965Z</time></trkpt><trkpt lat="44.3124298" lon="10.7313298"><ele>781.4000000000001</ele><time>2026-04-18T10:41:56.965Z</time></trkpt><trkpt lat="44.3123584" lon="10.7312177"><ele>780.2</ele><time>2026-04-18T10:41:57.964Z</time></trkpt><trkpt lat="44.3122802" lon="10.7311097"><ele>779.0</ele><time>2026-04-18T10:41:58.964Z</time></trkpt><trkpt lat="44.3121948" lon="10.7310225"><ele>778.25</ele><time>2026-04-18T10:41:59.964Z</time></trkpt><trkpt lat="44.3120954" lon="10.7309637"><ele>777.5</ele><time>2026-04-18T10:42:00.965Z</time></trkpt><trkpt lat="44.3119869" lon="10.7309299"><ele>776.75</ele><time>2026-04-18T10:42:01.964Z</time></trkpt><trkpt lat="44.3118734" lon="10.7309042"><ele>776.0</ele><time>2026-04-18T10:42:02.965Z</time></trkpt><trkpt lat="44.3117541" lon="10.7308763"><ele>776.0</ele><time>2026-04-18T10:42:03.964Z</time></trkpt><trkpt lat="44.3116354" lon="10.7308403"><ele>776.0</ele><time>2026-04-18T10:42:04.964Z</time></trkpt><trkpt lat="44.3115116" lon="10.7307957"><ele>776.0</ele><time>2026-04-18T10:42:05.964Z</time></trkpt><trkpt lat="44.3113997" lon="10.730722"><ele>776.0</ele><time>2026-04-18T10:42:06.965Z</time></trkpt><trkpt lat="44.3113035" lon="10.7306276"><ele>776.4</ele><time>2026-04-18T10:42:07.965Z</time></trkpt><trkpt lat="44.3112125" lon="10.7305394"><ele>776.8</ele><time>2026-04-18T10:42:08.965Z</time></trkpt><trkpt lat="44.3111086" lon="10.7304915"><ele>777.1999999999999</ele><time>2026-04-18T10:42:09.964Z</time></trkpt><trkpt lat="44.3110015" lon="10.7304808"><ele>777.5999999999999</ele><time>2026-04-18T10:42:10.965Z</time></trkpt><trkpt lat="44.3109101" lon="10.7304804"><ele>778.0</ele><time>2026-04-18T10:42:11.964Z</time></trkpt><trkpt lat="44.3108374" lon="10.7305493"><ele>778.0</ele><time>2026-04-18T10:42:12.964Z</time></trkpt><trkpt lat="44.3107611" lon="10.730581"><ele>778.0</ele><time>2026-04-18T10:42:13.964Z</time></trkpt><trkpt lat="44.3106768" lon="10.7305729"><ele>778.0</ele><time>2026-04-18T10:42:14.964Z</time></trkpt><trkpt lat="44.3105831" lon="10.7305564"><ele>778.0</ele><time>2026-04-18T10:42:15.965Z</time></trkpt><trkpt lat="44.3104853" lon="10.7305294"><ele>778.0</ele><time>2026-04-18T10:42:16.964Z</time></trkpt><trkpt lat="44.3103841" lon="10.7304933"><ele>780.4</ele><time>2026-04-18T10:42:17.965Z</time></trkpt><trkpt lat="44.3102956" lon="10.7304546"><ele>782.8</ele><time>2026-04-18T10:42:18.964Z</time></trkpt><trkpt lat="44.3101951" lon="10.73041"><ele>785.2</ele><time>2026-04-18T10:42:19.964Z</time></trkpt><trkpt lat="44.3100962" lon="10.7303953"><ele>787.6</ele><time>2026-04-18T10:42:20.965Z</time></trkpt><trkpt lat="44.3100016" lon="10.7303855"><ele>790.0</ele><time>2026-04-18T10:42:21.965Z</time></trkpt><trkpt lat="44.3099107" lon="10.7303786"><ele>789.9999999999999</ele><time>2026-04-18T10:42:22.965Z</time></trkpt><trkpt lat="44.3098241" lon="10.7303814"><ele>790.0</ele><time>2026-04-18T10:42:23.964Z</time></trkpt><trkpt lat="44.3097372" lon="10.730371"><ele>790.0</ele><time>2026-04-18T10:42:24.965Z</time></trkpt><trkpt lat="44.3096535" lon="10.7303654"><ele>790.0</ele><time>2026-04-18T10:42:25.964Z</time></trkpt><trkpt lat="44.3095744" lon="10.7303629"><ele>789.9999999999999</ele><time>2026-04-18T10:42:26.965Z</time></trkpt><trkpt lat="44.3095078" lon="10.7303588"><ele>790.0</ele><time>2026-04-18T10:42:27.964Z</time></trkpt><trkpt lat="44.3094424" lon="10.7303577"><ele>793.0</ele><time>2026-04-18T10:42:28.965Z</time></trkpt><trkpt lat="44.3093222" lon="10.7303612"><ele>796.0</ele><time>2026-04-18T10:42:30.964Z</time></trkpt><trkpt lat="44.3092123" lon="10.7303623"><ele>799.0</ele><time>2026-04-18T10:42:32.964Z</time></trkpt><trkpt lat="44.3091263" lon="10.7303662"><ele>802.0</ele><time>2026-04-18T10:42:34.965Z</time></trkpt><trkpt lat="44.3090309" lon="10.7303682"><ele>805.0</ele><time>2026-04-18T10:42:36.965Z</time></trkpt><trkpt lat="44.3089136" lon="10.7303871"><ele>806.8333333333333</ele><time>2026-04-18T10:42:38.965Z</time></trkpt><trkpt lat="44.3088443" lon="10.7304034"><ele>808.6666666666666</ele><time>2026-04-18T10:42:39.964Z</time></trkpt><trkpt lat="44.3087779" lon="10.7303979"><ele>810.5</ele><time>2026-04-18T10:42:40.965Z</time></trkpt><trkpt lat="44.3086604" lon="10.7303852"><ele>812.3333333333333</ele><time>2026-04-18T10:42:42.965Z</time></trkpt><trkpt lat="44.3085915" lon="10.7303976"><ele>814.1666666666666</ele><time>2026-04-18T10:42:44.964Z</time></trkpt><trkpt lat="44.3085241" lon="10.7304105"><ele>816.0</ele><time>2026-04-18T10:42:47.965Z</time></trkpt><trkpt lat="44.3085211" lon="10.7305474"><ele>816.0</ele><time>2026-04-18T10:42:50.965Z</time></trkpt><trkpt lat="44.3085682" lon="10.7306648"><ele>816.0</ele><time>2026-04-18T10:42:51.965Z</time></trkpt><trkpt lat="44.3086174" lon="10.7307727"><ele>816.0</ele><time>2026-04-18T10:42:52.964Z</time></trkpt><trkpt lat="44.3086718" lon="10.7308945"><ele>816.0</ele><time>2026-04-18T10:42:53.964Z</time></trkpt><trkpt lat="44.3087314" lon="10.7310347"><ele>816.0</ele><time>2026-04-18T10:42:54.965Z</time></trkpt><trkpt lat="44.3088037" lon="10.7311673"><ele>814.5999999999999</ele><time>2026-04-18T10:42:55.965Z</time></trkpt><trkpt lat="44.3089008" lon="10.7312721"><ele>813.2</ele><time>2026-04-18T10:42:56.964Z</time></trkpt><trkpt lat="44.3090071" lon="10.7313324"><ele>811.8</ele><time>2026-04-18T10:42:57.964Z</time></trkpt><trkpt lat="44.3091014" lon="10.731384"><ele>810.4000000000001</ele><time>2026-04-18T10:42:58.964Z</time></trkpt><trkpt lat="44.3091837" lon="10.7314517"><ele>809.0</ele><time>2026-04-18T10:42:59.964Z</time></trkpt><trkpt lat="44.3092342" lon="10.7315545"><ele>809.0</ele><time>2026-04-18T10:43:00.965Z</time></trkpt><trkpt lat="44.3092439" lon="10.7316608"><ele>809.0</ele><time>2026-04-18T10:43:01.964Z</time></trkpt><trkpt lat="44.3092174" lon="10.7317697"><ele>809.0</ele><time>2026-04-18T10:43:02.964Z</time></trkpt><trkpt lat="44.3091634" lon="10.7318919"><ele>809.0</ele><time>2026-04-18T10:43:03.964Z</time></trkpt><trkpt lat="44.3090967" lon="10.7320254"><ele>809.0</ele><time>2026-04-18T10:43:04.965Z</time></trkpt><trkpt lat="44.3090175" lon="10.7321712"><ele>809.5</ele><time>2026-04-18T10:43:05.964Z</time></trkpt><trkpt lat="44.3089444" lon="10.732326"><ele>810.0</ele><time>2026-04-18T10:43:06.965Z</time></trkpt><trkpt lat="44.3088875" lon="10.7324939"><ele>810.5</ele><time>2026-04-18T10:43:07.964Z</time></trkpt><trkpt lat="44.308857" lon="10.7326758"><ele>811.0</ele><time>2026-04-18T10:43:08.964Z</time></trkpt><trkpt lat="44.3088473" lon="10.7328741"><ele>817.25</ele><time>2026-04-18T10:43:09.965Z</time></trkpt><trkpt lat="44.308837" lon="10.7330698"><ele>823.5</ele><time>2026-04-18T10:43:10.964Z</time></trkpt><trkpt lat="44.3088452" lon="10.7332763"><ele>829.75</ele><time>2026-04-18T10:43:11.964Z</time></trkpt><trkpt lat="44.3088438" lon="10.7334793"><ele>836.0</ele><time>2026-04-18T10:43:12.964Z</time></trkpt><trkpt lat="44.3088484" lon="10.7336787"><ele>836.0</ele><time>2026-04-18T10:43:13.964Z</time></trkpt><trkpt lat="44.3088504" lon="10.7338691"><ele>836.0</ele><time>2026-04-18T10:43:14.964Z</time></trkpt><trkpt lat="44.3088239" lon="10.7340523"><ele>836.0</ele><time>2026-04-18T10:43:15.965Z</time></trkpt><trkpt lat="44.3087835" lon="10.7342419"><ele>836.0</ele><time>2026-04-18T10:43:16.964Z</time></trkpt><trkpt lat="44.3087315" lon="10.7344343"><ele>836.75</ele><time>2026-04-18T10:43:17.964Z</time></trkpt><trkpt lat="44.3086804" lon="10.7346146"><ele>837.5</ele><time>2026-04-18T10:43:18.964Z</time></trkpt><trkpt lat="44.3086309" lon="10.7347821"><ele>838.25</ele><time>2026-04-18T10:43:19.965Z</time></trkpt><trkpt lat="44.3086114" lon="10.7349643"><ele>839.0</ele><time>2026-04-18T10:43:20.964Z</time></trkpt><trkpt lat="44.3086225" lon="10.73515"><ele>839.75</ele><time>2026-04-18T10:43:21.965Z</time></trkpt><trkpt lat="44.3086526" lon="10.7353453"><ele>840.5</ele><time>2026-04-18T10:43:22.964Z</time></trkpt><trkpt lat="44.3086897" lon="10.7355488"><ele>841.25</ele><time>2026-04-18T10:43:23.964Z</time></trkpt><trkpt lat="44.308718" lon="10.7357472"><ele>842.0</ele><time>2026-04-18T10:43:24.964Z</time></trkpt><trkpt lat="44.3087445" lon="10.7359281"><ele>842.6666666666667</ele><time>2026-04-18T10:43:25.964Z</time></trkpt><trkpt lat="44.3087691" lon="10.7360855"><ele>843.3333333333334</ele><time>2026-04-18T10:43:26.965Z</time></trkpt><trkpt lat="44.3087847" lon="10.7362222"><ele>844.0</ele><time>2026-04-18T10:43:27.965Z</time></trkpt><trkpt lat="44.3087634" lon="10.7363377"><ele>844.6666666666667</ele><time>2026-04-18T10:43:28.965Z</time></trkpt><trkpt lat="44.3087087" lon="10.7363984"><ele>845.3333333333334</ele><time>2026-04-18T10:43:29.964Z</time></trkpt><trkpt lat="44.3086409" lon="10.7363774"><ele>846.0</ele><time>2026-04-18T10:43:30.965Z</time></trkpt><trkpt lat="44.3085897" lon="10.7362949"><ele>846.0</ele><time>2026-04-18T10:43:31.965Z</time></trkpt><trkpt lat="44.3085569" lon="10.7361664"><ele>846.0</ele><time>2026-04-18T10:43:32.965Z</time></trkpt><trkpt lat="44.3085296" lon="10.7359986"><ele>846.0</ele><time>2026-04-18T10:43:33.964Z</time></trkpt><trkpt lat="44.3084976" lon="10.7358212"><ele>846.0</ele><time>2026-04-18T10:43:34.964Z</time></trkpt><trkpt lat="44.3084546" lon="10.7356177"><ele>844.6666666666667</ele><time>2026-04-18T10:43:35.964Z</time></trkpt><trkpt lat="44.308411" lon="10.7353948"><ele>843.3333333333334</ele><time>2026-04-18T10:43:36.964Z</time></trkpt><trkpt lat="44.3083615" lon="10.7351675"><ele>842.0</ele><time>2026-04-18T10:43:37.965Z</time></trkpt><trkpt lat="44.3083008" lon="10.7349333"><ele>841.0</ele><time>2026-04-18T10:43:38.964Z</time></trkpt><trkpt lat="44.3082319" lon="10.734702"><ele>840.0</ele><time>2026-04-18T10:43:39.964Z</time></trkpt><trkpt lat="44.3081701" lon="10.7344799"><ele>839.0</ele><time>2026-04-18T10:43:40.964Z</time></trkpt><trkpt lat="44.3081252" lon="10.7342688"><ele>838.0</ele><time>2026-04-18T10:43:41.965Z</time></trkpt><trkpt lat="44.3080987" lon="10.7340573"><ele>837.0</ele><time>2026-04-18T10:43:42.964Z</time></trkpt><trkpt lat="44.3081012" lon="10.7338395"><ele>836.0</ele><time>2026-04-18T10:43:43.965Z</time></trkpt><trkpt lat="44.3081118" lon="10.733617"><ele>836.6666666666667</ele><time>2026-04-18T10:43:44.964Z</time></trkpt><trkpt lat="44.3081122" lon="10.7333937"><ele>837.3333333333333</ele><time>2026-04-18T10:43:45.965Z</time></trkpt><trkpt lat="44.3081167" lon="10.7331757"><ele>838.0</ele><time>2026-04-18T10:43:46.964Z</time></trkpt><trkpt lat="44.3081466" lon="10.7329745"><ele>838.0</ele><time>2026-04-18T10:43:47.964Z</time></trkpt><trkpt lat="44.3081793" lon="10.7327837"><ele>838.0</ele><time>2026-04-18T10:43:48.965Z</time></trkpt><trkpt lat="44.3082187" lon="10.7326303"><ele>838.0</ele><time>2026-04-18T10:43:49.965Z</time></trkpt><trkpt lat="44.3082135" lon="10.7324757"><ele>838.0</ele><time>2026-04-18T10:43:50.964Z</time></trkpt><trkpt lat="44.308161" lon="10.7323488"><ele>840.5</ele><time>2026-04-18T10:43:51.964Z</time></trkpt><trkpt lat="44.3080714" lon="10.7322464"><ele>843.0</ele><time>2026-04-18T10:43:52.965Z</time></trkpt><trkpt lat="44.3079684" lon="10.7321612"><ele>845.5</ele><time>2026-04-18T10:43:53.964Z</time></trkpt><trkpt lat="44.307866" lon="10.7320815"><ele>848.0</ele><time>2026-04-18T10:43:54.965Z</time></trkpt><trkpt lat="44.307763" lon="10.7320052"><ele>848.0000000000001</ele><time>2026-04-18T10:43:55.964Z</time></trkpt><trkpt lat="44.3076646" lon="10.7319424"><ele>848.0</ele><time>2026-04-18T10:43:56.964Z</time></trkpt><trkpt lat="44.3075762" lon="10.7318818"><ele>848.0</ele><time>2026-04-18T10:43:57.965Z</time></trkpt><trkpt lat="44.3074946" lon="10.7318392"><ele>848.0</ele><time>2026-04-18T10:43:58.965Z</time></trkpt><trkpt lat="44.307427" lon="10.7318191"><ele>848.0000000000001</ele><time>2026-04-18T10:43:59.965Z</time></trkpt><trkpt lat="44.3073462" lon="10.7318249"><ele>848.0</ele><time>2026-04-18T10:44:01.964Z</time></trkpt><trkpt lat="44.3072886" lon="10.7318608"><ele>848.0</ele><time>2026-04-18T10:44:10.964Z</time></trkpt><trkpt lat="44.3072807" lon="10.7320308"><ele>848.0</ele><time>2026-04-18T10:44:13.964Z</time></trkpt><trkpt lat="44.3073218" lon="10.7321434"><ele>848.0</ele><time>2026-04-18T10:44:14.965Z</time></trkpt><trkpt lat="44.30737" lon="10.7322804"><ele>848.0</ele><time>2026-04-18T10:44:15.965Z</time></trkpt><trkpt lat="44.3074314" lon="10.7324338"><ele>848.0</ele><time>2026-04-18T10:44:16.965Z</time></trkpt><trkpt lat="44.3075052" lon="10.7326045"><ele>847.25</ele><time>2026-04-18T10:44:17.965Z</time></trkpt><trkpt lat="44.3075839" lon="10.7327831"><ele>846.5</ele><time>2026-04-18T10:44:18.965Z</time></trkpt><trkpt lat="44.3076592" lon="10.7329612"><ele>845.75</ele><time>2026-04-18T10:44:19.965Z</time></trkpt><trkpt lat="44.3077258" lon="10.7331448"><ele>845.0</ele><time>2026-04-18T10:44:20.964Z</time></trkpt><trkpt lat="44.3077852" lon="10.7333322"><ele>845.0</ele><time>2026-04-18T10:44:21.964Z</time></trkpt><trkpt lat="44.307805" lon="10.7335294"><ele>845.0</ele><time>2026-04-18T10:44:22.964Z</time></trkpt><trkpt lat="44.307815" lon="10.7336803"><ele>845.0</ele><time>2026-04-18T10:44:23.965Z</time></trkpt><trkpt lat="44.3078191" lon="10.733794"><ele>845.0</ele><time>2026-04-18T10:44:24.964Z</time></trkpt><trkpt lat="44.3078203" lon="10.7338961"><ele>845.0</ele><time>2026-04-18T10:44:25.965Z</time></trkpt><trkpt lat="44.3078114" lon="10.7340604"><ele>844.8</ele><time>2026-04-18T10:44:27.965Z</time></trkpt><trkpt lat="44.3077325" lon="10.7341612"><ele>844.6</ele><time>2026-04-18T10:44:29.964Z</time></trkpt><trkpt lat="44.3076786" lon="10.7342099"><ele>844.4000000000001</ele><time>2026-04-18T10:44:30.965Z</time></trkpt><trkpt lat="44.3076228" lon="10.7342874"><ele>844.2</ele><time>2026-04-18T10:44:31.964Z</time></trkpt><trkpt lat="44.3075671" lon="10.734416"><ele>844.0</ele><time>2026-04-18T10:44:32.964Z</time></trkpt><trkpt lat="44.3075091" lon="10.7345329"><ele>844.6</ele><time>2026-04-18T10:44:33.965Z</time></trkpt><trkpt lat="44.3074526" lon="10.7346419"><ele>845.2</ele><time>2026-04-18T10:44:34.964Z</time></trkpt><trkpt lat="44.3074015" lon="10.7347559"><ele>845.8000000000001</ele><time>2026-04-18T10:44:35.965Z</time></trkpt><trkpt lat="44.3073567" lon="10.7348861"><ele>846.4000000000001</ele><time>2026-04-18T10:44:36.965Z</time></trkpt><trkpt lat="44.3073174" lon="10.7350316"><ele>847.0</ele><time>2026-04-18T10:44:37.965Z</time></trkpt><trkpt lat="44.3072837" lon="10.7351922"><ele>847.4000000000001</ele><time>2026-04-18T10:44:38.964Z</time></trkpt><trkpt lat="44.3072574" lon="10.7353559"><ele>847.8000000000001</ele><time>2026-04-18T10:44:39.964Z</time></trkpt><trkpt lat="44.3072376" lon="10.7355088"><ele>848.2</ele><time>2026-04-18T10:44:40.965Z</time></trkpt><trkpt lat="44.3072149" lon="10.7356507"><ele>848.6</ele><time>2026-04-18T10:44:41.964Z</time></trkpt><trkpt lat="44.307185" lon="10.7357807"><ele>849.0</ele><time>2026-04-18T10:44:42.964Z</time></trkpt><trkpt lat="44.3071549" lon="10.7359112"><ele>846.5</ele><time>2026-04-18T10:44:43.964Z</time></trkpt><trkpt lat="44.3071298" lon="10.7360374"><ele>844.0</ele><time>2026-04-18T10:44:44.965Z</time></trkpt><trkpt lat="44.3071104" lon="10.7361612"><ele>841.5</ele><time>2026-04-18T10:44:45.964Z</time></trkpt><trkpt lat="44.307096" lon="10.7362751"><ele>839.0</ele><time>2026-04-18T10:44:46.964Z</time></trkpt><trkpt lat="44.3070789" lon="10.7363793"><ele>836.5</ele><time>2026-04-18T10:44:47.965Z</time></trkpt><trkpt lat="44.3069977" lon="10.7364328"><ele>834.0</ele><time>2026-04-18T10:44:48.964Z</time></trkpt><trkpt lat="44.3069169" lon="10.7364714"><ele>834.0</ele><time>2026-04-18T10:44:49.964Z</time></trkpt><trkpt lat="44.3068266" lon="10.7365175"><ele>834.0</ele><time>2026-04-18T10:44:50.965Z</time></trkpt><trkpt lat="44.3067398" lon="10.7365893"><ele>834.0</ele><time>2026-04-18T10:44:51.965Z</time></trkpt><trkpt lat="44.3066545" lon="10.7366752"><ele>834.0</ele><time>2026-04-18T10:44:52.964Z</time></trkpt><trkpt lat="44.3065658" lon="10.7367612"><ele>834.0</ele><time>2026-04-18T10:44:53.965Z</time></trkpt><trkpt lat="44.3064722" lon="10.7368393"><ele>833.2</ele><time>2026-04-18T10:44:54.965Z</time></trkpt><trkpt lat="44.3063822" lon="10.7369222"><ele>832.4000000000001</ele><time>2026-04-18T10:44:55.965Z</time></trkpt><trkpt lat="44.3063054" lon="10.7370128"><ele>831.6</ele><time>2026-04-18T10:44:56.964Z</time></trkpt><trkpt lat="44.3062351" lon="10.7370982"><ele>830.8</ele><time>2026-04-18T10:44:57.964Z</time></trkpt><trkpt lat="44.3061569" lon="10.7371749"><ele>830.0</ele><time>2026-04-18T10:44:58.965Z</time></trkpt><trkpt lat="44.3060672" lon="10.7372485"><ele>830.0</ele><time>2026-04-18T10:44:59.964Z</time></trkpt><trkpt lat="44.3059648" lon="10.7373243"><ele>830.0</ele><time>2026-04-18T10:45:00.964Z</time></trkpt><trkpt lat="44.3058646" lon="10.7374"><ele>830.0</ele><time>2026-04-18T10:45:01.964Z</time></trkpt><trkpt lat="44.3057745" lon="10.7374379"><ele>830.0</ele><time>2026-04-18T10:45:02.965Z</time></trkpt><trkpt lat="44.305697" lon="10.7374739"><ele>830.0</ele><time>2026-04-18T10:45:03.965Z</time></trkpt><trkpt lat="44.3055938" lon="10.7374223"><ele>830.0</ele><time>2026-04-18T10:45:05.965Z</time></trkpt><trkpt lat="44.3055623" lon="10.7373434"><ele>830.0</ele><time>2026-04-18T10:45:06.964Z</time></trkpt><trkpt lat="44.3055555" lon="10.7372458"><ele>830.0</ele><time>2026-04-18T10:45:07.964Z</time></trkpt><trkpt lat="44.3055773" lon="10.7371502"><ele>830.0</ele><time>2026-04-18T10:45:08.964Z</time></trkpt><trkpt lat="44.3056178" lon="10.7370644"><ele>830.0</ele><time>2026-04-18T10:45:09.965Z</time></trkpt><trkpt lat="44.3056593" lon="10.7369769"><ele>830.0</ele><time>2026-04-18T10:45:10.964Z</time></trkpt><trkpt lat="44.3057144" lon="10.7368799"><ele>830.0</ele><time>2026-04-18T10:45:11.964Z</time></trkpt><trkpt lat="44.3057716" lon="10.7367884"><ele>829.1666666666667</ele><time>2026-04-18T10:45:12.964Z</time></trkpt><trkpt lat="44.3058414" lon="10.7367048"><ele>828.3333333333334</ele><time>2026-04-18T10:45:13.964Z</time></trkpt><trkpt lat="44.3059092" lon="10.7366392"><ele>827.5</ele><time>2026-04-18T10:45:14.965Z</time></trkpt><trkpt lat="44.305967" lon="10.7365748"><ele>826.6666666666667</ele><time>2026-04-18T10:45:15.964Z</time></trkpt><trkpt lat="44.306007" lon="10.7365032"><ele>825.8333333333334</ele><time>2026-04-18T10:45:16.964Z</time></trkpt><trkpt lat="44.3059566" lon="10.7363654"><ele>825.0</ele><time>2026-04-18T10:45:18.964Z</time></trkpt><trkpt lat="44.305885" lon="10.7363228"><ele>825.0</ele><time>2026-04-18T10:45:19.964Z</time></trkpt><trkpt lat="44.3057952" lon="10.7363022"><ele>825.0</ele><time>2026-04-18T10:45:20.965Z</time></trkpt><trkpt lat="44.3057013" lon="10.7363117"><ele>825.0</ele><time>2026-04-18T10:45:21.964Z</time></trkpt><trkpt lat="44.3056128" lon="10.7363508"><ele>825.0</ele><time>2026-04-18T10:45:22.964Z</time></trkpt><trkpt lat="44.3055302" lon="10.7364062"><ele>825.0</ele><time>2026-04-18T10:45:23.965Z</time></trkpt><trkpt lat="44.3054557" lon="10.7364742"><ele>822.6</ele><time>2026-04-18T10:45:24.964Z</time></trkpt><trkpt lat="44.3053802" lon="10.7365468"><ele>820.2</ele><time>2026-04-18T10:45:25.964Z</time></trkpt><trkpt lat="44.3052979" lon="10.7366214"><ele>817.8</ele><time>2026-04-18T10:45:26.965Z</time></trkpt><trkpt lat="44.3052183" lon="10.736694"><ele>815.4</ele><time>2026-04-18T10:45:27.965Z</time></trkpt><trkpt lat="44.3051366" lon="10.7367751"><ele>813.0</ele><time>2026-04-18T10:45:28.964Z</time></trkpt><trkpt lat="44.305064" lon="10.7368651"><ele>814.2</ele><time>2026-04-18T10:45:29.965Z</time></trkpt><trkpt lat="44.3049873" lon="10.7369679"><ele>815.4</ele><time>2026-04-18T10:45:30.964Z</time></trkpt><trkpt lat="44.3049101" lon="10.7370708"><ele>816.6</ele><time>2026-04-18T10:45:31.965Z</time></trkpt><trkpt lat="44.3048378" lon="10.7371902"><ele>817.8000000000001</ele><time>2026-04-18T10:45:32.964Z</time></trkpt><trkpt lat="44.3047712" lon="10.7373222"><ele>819.0</ele><time>2026-04-18T10:45:33.964Z</time></trkpt><trkpt lat="44.3047157" lon="10.7374531"><ele>815.2</ele><time>2026-04-18T10:45:34.965Z</time></trkpt><trkpt lat="44.3046608" lon="10.7375795"><ele>811.4000000000001</ele><time>2026-04-18T10:45:35.964Z</time></trkpt><trkpt lat="44.3046051" lon="10.7377122"><ele>807.6</ele><time>2026-04-18T10:45:36.965Z</time></trkpt><trkpt lat="44.3045445" lon="10.737844"><ele>803.8</ele><time>2026-04-18T10:45:37.964Z</time></trkpt><trkpt lat="44.3044843" lon="10.7379594"><ele>800.0</ele><time>2026-04-18T10:45:38.964Z</time></trkpt><trkpt lat="44.3044265" lon="10.7380677"><ele>800.0000000000001</ele><time>2026-04-18T10:45:39.964Z</time></trkpt><trkpt lat="44.3043792" lon="10.7381611"><ele>800.0</ele><time>2026-04-18T10:45:40.964Z</time></trkpt><trkpt lat="44.3043525" lon="10.7382613"><ele>800.0</ele><time>2026-04-18T10:45:41.965Z</time></trkpt><trkpt lat="44.3043547" lon="10.7383679"><ele>800.0</ele><time>2026-04-18T10:45:42.965Z</time></trkpt><trkpt lat="44.30438" lon="10.7384814"><ele>800.0000000000001</ele><time>2026-04-18T10:45:43.964Z</time></trkpt><trkpt lat="44.3044181" lon="10.7386151"><ele>800.0</ele><time>2026-04-18T10:45:44.965Z</time></trkpt><trkpt lat="44.304444" lon="10.738772"><ele>797.75</ele><time>2026-04-18T10:45:45.964Z</time></trkpt><trkpt lat="44.3044534" lon="10.7389523"><ele>795.5</ele><time>2026-04-18T10:45:46.965Z</time></trkpt><trkpt lat="44.3044615" lon="10.7391486"><ele>793.25</ele><time>2026-04-18T10:45:47.964Z</time></trkpt><trkpt lat="44.3044809" lon="10.7393596"><ele>791.0</ele><time>2026-04-18T10:45:48.964Z</time></trkpt><trkpt lat="44.3045048" lon="10.7395827"><ele>788.5</ele><time>2026-04-18T10:45:49.965Z</time></trkpt><trkpt lat="44.3045196" lon="10.7397952"><ele>786.0</ele><time>2026-04-18T10:45:50.965Z</time></trkpt><trkpt lat="44.3045266" lon="10.7400034"><ele>783.5</ele><time>2026-04-18T10:45:51.964Z</time></trkpt><trkpt lat="44.3045301" lon="10.7401994"><ele>781.0</ele><time>2026-04-18T10:45:52.964Z</time></trkpt><trkpt lat="44.304532" lon="10.7403825"><ele>780.1999999999999</ele><time>2026-04-18T10:45:53.964Z</time></trkpt><trkpt lat="44.3045315" lon="10.7405497"><ele>779.4</ele><time>2026-04-18T10:45:54.964Z</time></trkpt><trkpt lat="44.3045285" lon="10.7406966"><ele>778.6</ele><time>2026-04-18T10:45:55.964Z</time></trkpt><trkpt lat="44.3045234" lon="10.740833"><ele>777.8</ele><time>2026-04-18T10:45:56.964Z</time></trkpt><trkpt lat="44.3045104" lon="10.7409616"><ele>777.0</ele><time>2026-04-18T10:45:57.964Z</time></trkpt><trkpt lat="44.3044861" lon="10.7410826"><ele>776.1666666666666</ele><time>2026-04-18T10:45:58.964Z</time></trkpt><trkpt lat="44.3044517" lon="10.7411955"><ele>775.3333333333333</ele><time>2026-04-18T10:45:59.964Z</time></trkpt><trkpt lat="44.3044113" lon="10.7412981"><ele>774.5</ele><time>2026-04-18T10:46:00.965Z</time></trkpt><trkpt lat="44.3043743" lon="10.7413827"><ele>773.6666666666666</ele><time>2026-04-18T10:46:01.965Z</time></trkpt><trkpt lat="44.3043327" lon="10.7414657"><ele>772.8333333333333</ele><time>2026-04-18T10:46:02.964Z</time></trkpt><trkpt lat="44.304285" lon="10.741542"><ele>772.0</ele><time>2026-04-18T10:46:03.964Z</time></trkpt><trkpt lat="44.3042381" lon="10.7416329"><ele>771.9999999999999</ele><time>2026-04-18T10:46:04.965Z</time></trkpt><trkpt lat="44.3042022" lon="10.7417349"><ele>772.0</ele><time>2026-04-18T10:46:05.965Z</time></trkpt><trkpt lat="44.3041757" lon="10.741847"><ele>772.0</ele><time>2026-04-18T10:46:06.964Z</time></trkpt><trkpt lat="44.3041622" lon="10.7419601"><ele>772.0</ele><time>2026-04-18T10:46:07.964Z</time></trkpt><trkpt lat="44.3041599" lon="10.7420751"><ele>771.9999999999999</ele><time>2026-04-18T10:46:08.965Z</time></trkpt><trkpt lat="44.3041507" lon="10.7421925"><ele>772.0</ele><time>2026-04-18T10:46:09.965Z</time></trkpt><trkpt lat="44.3041328" lon="10.7423013"><ele>770.6666666666666</ele><time>2026-04-18T10:46:10.964Z</time></trkpt><trkpt lat="44.3040838" lon="10.7423978"><ele>769.3333333333333</ele><time>2026-04-18T10:46:11.965Z</time></trkpt><trkpt lat="44.3040159" lon="10.7424506"><ele>768.0</ele><time>2026-04-18T10:46:12.964Z</time></trkpt><trkpt lat="44.303953" lon="10.742512"><ele>766.6666666666666</ele><time>2026-04-18T10:46:13.964Z</time></trkpt><trkpt lat="44.3038994" lon="10.7425846"><ele>765.3333333333333</ele><time>2026-04-18T10:46:14.964Z</time></trkpt><trkpt lat="44.3038548" lon="10.74266"><ele>764.0</ele><time>2026-04-18T10:46:15.965Z</time></trkpt><trkpt lat="44.3037655" lon="10.742776"><ele>761.0</ele><time>2026-04-18T10:46:17.964Z</time></trkpt><trkpt lat="44.3036827" lon="10.7428513"><ele>758.0</ele><time>2026-04-18T10:46:19.965Z</time></trkpt><trkpt lat="44.3035787" lon="10.7429115"><ele>755.0</ele><time>2026-04-18T10:46:21.964Z</time></trkpt><trkpt lat="44.3035222" lon="10.742955"><ele>752.0</ele><time>2026-04-18T10:46:22.964Z</time></trkpt><trkpt lat="44.3034641" lon="10.7430352"><ele>749.0</ele><time>2026-04-18T10:46:23.965Z</time></trkpt><trkpt lat="44.3034032" lon="10.7430981"><ele>746.0</ele><time>2026-04-18T10:46:24.965Z</time></trkpt><trkpt lat="44.3033366" lon="10.7431805"><ele>746.0</ele><time>2026-04-18T10:46:25.965Z</time></trkpt><trkpt lat="44.303283" lon="10.7432522"><ele>746.0</ele><time>2026-04-18T10:46:26.964Z</time></trkpt><trkpt lat="44.303229" lon="10.7433271"><ele>746.0</ele><time>2026-04-18T10:46:27.965Z</time></trkpt><trkpt lat="44.3031808" lon="10.7434166"><ele>746.0</ele><time>2026-04-18T10:46:28.964Z</time></trkpt><trkpt lat="44.3031327" lon="10.7434935"><ele>746.0</ele><time>2026-04-18T10:46:29.964Z</time></trkpt><trkpt lat="44.3030528" lon="10.7435769"><ele>746.0</ele><time>2026-04-18T10:46:31.964Z</time></trkpt><trkpt lat="44.3029575" lon="10.7436705"><ele>742.5714285714286</ele><time>2026-04-18T10:46:33.964Z</time></trkpt><trkpt lat="44.3028916" lon="10.7437214"><ele>739.1428571428571</ele><time>2026-04-18T10:46:34.965Z</time></trkpt><trkpt lat="44.3028252" lon="10.7436952"><ele>735.7142857142858</ele><time>2026-04-18T10:46:35.965Z</time></trkpt><trkpt lat="44.3027562" lon="10.7437018"><ele>732.2857142857142</ele><time>2026-04-18T10:46:36.964Z</time></trkpt><trkpt lat="44.3026848" lon="10.7436964"><ele>728.8571428571428</ele><time>2026-04-18T10:46:37.964Z</time></trkpt><trkpt lat="44.3026161" lon="10.7437027"><ele>725.4285714285714</ele><time>2026-04-18T10:46:38.964Z</time></trkpt><trkpt lat="44.3025447" lon="10.743711"><ele>722.0</ele><time>2026-04-18T10:46:39.965Z</time></trkpt><trkpt lat="44.302476" lon="10.7437186"><ele>722.0</ele><time>2026-04-18T10:46:40.965Z</time></trkpt><trkpt lat="44.3023415" lon="10.7437468"><ele>722.0</ele><time>2026-04-18T10:46:42.965Z</time></trkpt><trkpt lat="44.3022644" lon="10.7437692"><ele>722.0</ele><time>2026-04-18T10:46:43.965Z</time></trkpt><trkpt lat="44.3021872" lon="10.7437898"><ele>722.0</ele><time>2026-04-18T10:46:44.964Z</time></trkpt><trkpt lat="44.3021184" lon="10.7438089"><ele>722.0</ele><time>2026-04-18T10:46:45.964Z</time></trkpt><trkpt lat="44.302055" lon="10.7438389"><ele>722.0</ele><time>2026-04-18T10:46:46.964Z</time></trkpt><trkpt lat="44.3019445" lon="10.7438909"><ele>717.0</ele><time>2026-04-18T10:46:48.965Z</time></trkpt><trkpt lat="44.3018385" lon="10.7439506"><ele>712.0</ele><time>2026-04-18T10:46:50.964Z</time></trkpt><trkpt lat="44.3017331" lon="10.7439722"><ele>707.0</ele><time>2026-04-18T10:46:52.964Z</time></trkpt><trkpt lat="44.3016163" lon="10.7439943"><ele>702.0</ele><time>2026-04-18T10:46:54.965Z</time></trkpt><trkpt lat="44.3014944" lon="10.744031"><ele>702.0</ele><time>2026-04-18T10:46:56.964Z</time></trkpt><trkpt lat="44.3014319" lon="10.7440451"><ele>702.0</ele><time>2026-04-18T10:46:57.965Z</time></trkpt><trkpt lat="44.3013324" lon="10.7440743"><ele>702.0</ele><time>2026-04-18T10:46:59.964Z</time></trkpt><trkpt lat="44.3012648" lon="10.744092"><ele>702.0</ele><time>2026-04-18T10:47:01.964Z</time></trkpt><trkpt lat="44.3012401" lon="10.7441948"><ele>702.0</ele><time>2026-04-18T10:47:05.964Z</time></trkpt><trkpt lat="44.3013002" lon="10.7442786"><ele>702.0</ele><time>2026-04-18T10:47:07.965Z</time></trkpt><trkpt lat="44.301347" lon="10.7443411"><ele>700.3333333333334</ele><time>2026-04-18T10:47:08.964Z</time></trkpt><trkpt lat="44.3013944" lon="10.7444103"><ele>698.6666666666666</ele><time>2026-04-18T10:47:09.965Z</time></trkpt><trkpt lat="44.3014556" lon="10.7444726"><ele>697.0</ele><time>2026-04-18T10:47:10.965Z</time></trkpt><trkpt lat="44.3015223" lon="10.7445452"><ele>695.3333333333333</ele><time>2026-04-18T10:47:11.965Z</time></trkpt><trkpt lat="44.3015885" lon="10.7446271"><ele>693.6666666666666</ele><time>2026-04-18T10:47:12.964Z</time></trkpt><trkpt lat="44.3016452" lon="10.7447176"><ele>692.0</ele><time>2026-04-18T10:47:13.964Z</time></trkpt><trkpt lat="44.3016978" lon="10.7448114"><ele>692.0</ele><time>2026-04-18T10:47:14.964Z</time></trkpt><trkpt lat="44.3017397" lon="10.7448947"><ele>692.0</ele><time>2026-04-18T10:47:15.965Z</time></trkpt><trkpt lat="44.3018092" lon="10.7450019"><ele>692.0</ele><time>2026-04-18T10:47:17.964Z</time></trkpt><trkpt lat="44.3018622" lon="10.7450535"><ele>692.0</ele><time>2026-04-18T10:47:20.965Z</time></trkpt><trkpt lat="44.3018139" lon="10.7449919"><ele>692.0</ele><time>2026-04-18T10:47:47.965Z</time></trkpt><trkpt lat="44.3017464" lon="10.7449077"><ele>692.0</ele><time>2026-04-18T10:47:49.964Z</time></trkpt><trkpt lat="44.3016648" lon="10.7447657"><ele>692.0</ele><time>2026-04-18T10:47:51.964Z</time></trkpt><trkpt lat="44.3016267" lon="10.7446821"><ele>692.0</ele><time>2026-04-18T10:47:52.965Z</time></trkpt><trkpt lat="44.30158" lon="10.7446061"><ele>692.0</ele><time>2026-04-18T10:47:53.965Z</time></trkpt><trkpt lat="44.3015277" lon="10.7445364"><ele>692.0</ele><time>2026-04-18T10:47:54.965Z</time></trkpt><trkpt lat="44.3014706" lon="10.7444757"><ele>692.0</ele><time>2026-04-18T10:47:55.965Z</time></trkpt><trkpt lat="44.3014114" lon="10.7444199"><ele>692.0</ele><time>2026-04-18T10:47:56.965Z</time></trkpt><trkpt lat="44.3013575" lon="10.7443527"><ele>692.0</ele><time>2026-04-18T10:47:57.965Z</time></trkpt><trkpt lat="44.3013076" lon="10.744289"><ele>691.5</ele><time>2026-04-18T10:47:58.965Z</time></trkpt><trkpt lat="44.3012494" lon="10.7442125"><ele>691.0</ele><time>2026-04-18T10:48:00.964Z</time></trkpt><trkpt lat="44.3012277" lon="10.7441227"><ele>690.5</ele><time>2026-04-18T10:48:32.965Z</time></trkpt><trkpt lat="44.3012013" lon="10.7442412"><ele>690.0</ele><time>2026-04-18T10:48:40.964Z</time></trkpt><trkpt lat="44.3012708" lon="10.7443668"><ele>689.5</ele><time>2026-04-18T10:48:42.964Z</time></trkpt><trkpt lat="44.3013119" lon="10.7444471"><ele>689.0</ele><time>2026-04-18T10:48:43.965Z</time></trkpt><trkpt lat="44.3013661" lon="10.7445254"><ele>689.5</ele><time>2026-04-18T10:48:44.964Z</time></trkpt><trkpt lat="44.3014151" lon="10.7446018"><ele>690.0</ele><time>2026-04-18T10:48:45.965Z</time></trkpt><trkpt lat="44.3014622" lon="10.7446828"><ele>690.5</ele><time>2026-04-18T10:48:46.965Z</time></trkpt><trkpt lat="44.3014957" lon="10.7447856"><ele>691.0</ele><time>2026-04-18T10:48:47.965Z</time></trkpt><trkpt lat="44.3015366" lon="10.7448918"><ele>691.5</ele><time>2026-04-18T10:48:48.964Z</time></trkpt><trkpt lat="44.3015728" lon="10.7449893"><ele>692.0</ele><time>2026-04-18T10:48:49.965Z</time></trkpt><trkpt lat="44.3016094" lon="10.7450879"><ele>692.0</ele><time>2026-04-18T10:48:50.965Z</time></trkpt><trkpt lat="44.3016458" lon="10.7451798"><ele>692.0</ele><time>2026-04-18T10:48:51.965Z</time></trkpt><trkpt lat="44.3016824" lon="10.7452687"><ele>692.0</ele><time>2026-04-18T10:48:52.964Z</time></trkpt><trkpt lat="44.3017162" lon="10.7453688"><ele>692.0</ele><time>2026-04-18T10:48:53.964Z</time></trkpt><trkpt lat="44.3017451" lon="10.7454786"><ele>692.0</ele><time>2026-04-18T10:48:54.965Z</time></trkpt><trkpt lat="44.3017833" lon="10.7455757"><ele>692.0</ele><time>2026-04-18T10:48:55.964Z</time></trkpt><trkpt lat="44.3018121" lon="10.7456715"><ele>689.0</ele><time>2026-04-18T10:48:56.964Z</time></trkpt><trkpt lat="44.3018222" lon="10.7457618"><ele>686.0</ele><time>2026-04-18T10:48:57.965Z</time></trkpt><trkpt lat="44.301832" lon="10.7458534"><ele>683.0</ele><time>2026-04-18T10:48:58.964Z</time></trkpt><trkpt lat="44.3018408" lon="10.7459416"><ele>680.0</ele><time>2026-04-18T10:48:59.965Z</time></trkpt><trkpt lat="44.3019359" lon="10.7460591"><ele>677.0</ele><time>2026-04-18T10:49:01.965Z</time></trkpt><trkpt lat="44.3019908" lon="10.7461221"><ele>674.0</ele><time>2026-04-18T10:49:02.964Z</time></trkpt><trkpt lat="44.3020495" lon="10.7461893"><ele>673.0</ele><time>2026-04-18T10:49:03.964Z</time></trkpt><trkpt lat="44.3021142" lon="10.7462603"><ele>672.0</ele><time>2026-04-18T10:49:04.965Z</time></trkpt><trkpt lat="44.3021846" lon="10.7463284"><ele>671.0</ele><time>2026-04-18T10:49:05.964Z</time></trkpt><trkpt lat="44.302246" lon="10.7463952"><ele>670.0</ele><time>2026-04-18T10:49:06.965Z</time></trkpt><trkpt lat="44.3022992" lon="10.7464607"><ele>669.0</ele><time>2026-04-18T10:49:07.964Z</time></trkpt><trkpt lat="44.3023988" lon="10.7465532"><ele>668.0</ele><time>2026-04-18T10:49:09.965Z</time></trkpt><trkpt lat="44.302482" lon="10.7466031"><ele>668.0</ele><time>2026-04-18T10:49:11.965Z</time></trkpt><trkpt lat="44.3024861" lon="10.7467021"><ele>668.0</ele><time>2026-04-18T10:49:12.964Z</time></trkpt><trkpt lat="44.3024984" lon="10.7467982"><ele>668.0</ele><time>2026-04-18T10:49:13.965Z</time></trkpt><trkpt lat="44.302508" lon="10.7469115"><ele>668.0</ele><time>2026-04-18T10:49:14.965Z</time></trkpt><trkpt lat="44.3025252" lon="10.7470343"><ele>668.0</ele><time>2026-04-18T10:49:15.965Z</time></trkpt><trkpt lat="44.302549" lon="10.747157"><ele>668.0</ele><time>2026-04-18T10:49:16.965Z</time></trkpt><trkpt lat="44.3026021" lon="10.7472763"><ele>666.0</ele><time>2026-04-18T10:49:17.964Z</time></trkpt><trkpt lat="44.3026555" lon="10.7473679"><ele>664.0</ele><time>2026-04-18T10:49:18.964Z</time></trkpt><trkpt lat="44.3027076" lon="10.7474637"><ele>662.0</ele><time>2026-04-18T10:49:19.965Z</time></trkpt><trkpt lat="44.3027348" lon="10.747574"><ele>660.0</ele><time>2026-04-18T10:49:20.965Z</time></trkpt><trkpt lat="44.3027701" lon="10.7477048"><ele>658.0</ele><time>2026-04-18T10:49:21.965Z</time></trkpt><trkpt lat="44.302811" lon="10.7478381"><ele>659.2</ele><time>2026-04-18T10:49:22.964Z</time></trkpt><trkpt lat="44.3028585" lon="10.7479763"><ele>660.4</ele><time>2026-04-18T10:49:23.965Z</time></trkpt><trkpt lat="44.3029102" lon="10.7481119"><ele>661.6</ele><time>2026-04-18T10:49:24.964Z</time></trkpt><trkpt lat="44.3029682" lon="10.74823"><ele>662.8000000000001</ele><time>2026-04-18T10:49:25.965Z</time></trkpt><trkpt lat="44.3030256" lon="10.7483347"><ele>664.0</ele><time>2026-04-18T10:49:26.965Z</time></trkpt><trkpt lat="44.3030824" lon="10.748438"><ele>664.0</ele><time>2026-04-18T10:49:27.965Z</time></trkpt><trkpt lat="44.3031493" lon="10.748529"><ele>664.0</ele><time>2026-04-18T10:49:28.964Z</time></trkpt><trkpt lat="44.3032241" lon="10.7486171"><ele>664.0</ele><time>2026-04-18T10:49:29.965Z</time></trkpt><trkpt lat="44.3032975" lon="10.7486942"><ele>664.0</ele><time>2026-04-18T10:49:30.965Z</time></trkpt><trkpt lat="44.3033827" lon="10.7487639"><ele>664.0</ele><time>2026-04-18T10:49:31.964Z</time></trkpt><trkpt lat="44.303472" lon="10.7488278"><ele>661.4000000000001</ele><time>2026-04-18T10:49:32.964Z</time></trkpt><trkpt lat="44.3035621" lon="10.7489053"><ele>658.8</ele><time>2026-04-18T10:49:33.964Z</time></trkpt><trkpt lat="44.3036497" lon="10.7489838"><ele>656.2</ele><time>2026-04-18T10:49:34.964Z</time></trkpt><trkpt lat="44.3037299" lon="10.7490636"><ele>653.5999999999999</ele><time>2026-04-18T10:49:35.964Z</time></trkpt><trkpt lat="44.3038008" lon="10.7491286"><ele>651.0</ele><time>2026-04-18T10:49:36.964Z</time></trkpt><trkpt lat="44.3038748" lon="10.7491698"><ele>650.6666666666666</ele><time>2026-04-18T10:49:37.964Z</time></trkpt><trkpt lat="44.3039312" lon="10.7492152"><ele>650.3333333333334</ele><time>2026-04-18T10:49:38.963Z</time></trkpt><trkpt lat="44.3039722" lon="10.7492847"><ele>650.0</ele><time>2026-04-18T10:49:39.964Z</time></trkpt><trkpt lat="44.304015" lon="10.7494593"><ele>649.6666666666667</ele><time>2026-04-18T10:49:41.965Z</time></trkpt><trkpt lat="44.3040255" lon="10.7495814"><ele>649.3333333333334</ele><time>2026-04-18T10:49:42.965Z</time></trkpt><trkpt lat="44.3040328" lon="10.7496998"><ele>649.0</ele><time>2026-04-18T10:49:43.964Z</time></trkpt><trkpt lat="44.304046" lon="10.7498045"><ele>649.0</ele><time>2026-04-18T10:49:44.965Z</time></trkpt><trkpt lat="44.3040678" lon="10.7499671"><ele>649.0</ele><time>2026-04-18T10:49:46.965Z</time></trkpt><trkpt lat="44.3040796" lon="10.7501229"><ele>649.0</ele><time>2026-04-18T10:49:48.965Z</time></trkpt><trkpt lat="44.3040995" lon="10.7502129"><ele>649.0</ele><time>2026-04-18T10:49:49.964Z</time></trkpt><trkpt lat="44.3041195" lon="10.7503154"><ele>649.0</ele><time>2026-04-18T10:49:50.964Z</time></trkpt><trkpt lat="44.304141" lon="10.7504207"><ele>647.3333333333334</ele><time>2026-04-18T10:49:51.965Z</time></trkpt><trkpt lat="44.3041774" lon="10.7505154"><ele>645.6666666666667</ele><time>2026-04-18T10:49:52.964Z</time></trkpt><trkpt lat="44.3042268" lon="10.7505932"><ele>644.0</ele><time>2026-04-18T10:49:53.965Z</time></trkpt><trkpt lat="44.3042738" lon="10.7506701"><ele>642.3333333333334</ele><time>2026-04-18T10:49:54.964Z</time></trkpt><trkpt lat="44.3043" lon="10.7507509"><ele>640.6666666666666</ele><time>2026-04-18T10:49:55.964Z</time></trkpt><trkpt lat="44.3042743" lon="10.7509281"><ele>639.0</ele><time>2026-04-18T10:49:57.965Z</time></trkpt><trkpt lat="44.3042556" lon="10.7510287"><ele>638.3333333333334</ele><time>2026-04-18T10:49:58.964Z</time></trkpt><trkpt lat="44.3042417" lon="10.7511327"><ele>637.6666666666666</ele><time>2026-04-18T10:49:59.965Z</time></trkpt><trkpt lat="44.3042364" lon="10.7512531"><ele>637.0</ele><time>2026-04-18T10:50:00.964Z</time></trkpt><trkpt lat="44.3042262" lon="10.7513659"><ele>636.3333333333333</ele><time>2026-04-18T10:50:01.964Z</time></trkpt><trkpt lat="44.3042155" lon="10.751474"><ele>635.6666666666666</ele><time>2026-04-18T10:50:02.965Z</time></trkpt><trkpt lat="44.3042053" lon="10.7515793"><ele>635.0</ele><time>2026-04-18T10:50:03.965Z</time></trkpt><trkpt lat="44.3041944" lon="10.7516781"><ele>634.9999999999999</ele><time>2026-04-18T10:50:04.965Z</time></trkpt><trkpt lat="44.3041856" lon="10.7517707"><ele>635.0</ele><time>2026-04-18T10:50:05.964Z</time></trkpt><trkpt lat="44.3041813" lon="10.7518621"><ele>635.0</ele><time>2026-04-18T10:50:06.965Z</time></trkpt><trkpt lat="44.3041652" lon="10.7519538"><ele>635.0</ele><time>2026-04-18T10:50:07.964Z</time></trkpt><trkpt lat="44.304149" lon="10.7520446"><ele>635.0</ele><time>2026-04-18T10:50:08.964Z</time></trkpt><trkpt lat="44.3041286" lon="10.7521304"><ele>634.9999999999999</ele><time>2026-04-18T10:50:09.964Z</time></trkpt><trkpt lat="44.3041078" lon="10.7522438"><ele>635.0</ele><time>2026-04-18T10:50:11.965Z</time></trkpt><trkpt lat="44.3040751" lon="10.752322"><ele>635.6</ele><time>2026-04-18T10:50:14.965Z</time></trkpt><trkpt lat="44.3039953" lon="10.7522268"><ele>636.2</ele><time>2026-04-18T10:50:17.965Z</time></trkpt><trkpt lat="44.3038908" lon="10.7522085"><ele>636.8</ele><time>2026-04-18T10:50:19.964Z</time></trkpt><trkpt lat="44.3038213" lon="10.7522402"><ele>637.4</ele><time>2026-04-18T10:50:20.964Z</time></trkpt><trkpt lat="44.3037426" lon="10.7522864"><ele>638.0</ele><time>2026-04-18T10:50:21.964Z</time></trkpt><trkpt lat="44.3036655" lon="10.7523362"><ele>635.1999999999999</ele><time>2026-04-18T10:50:22.964Z</time></trkpt><trkpt lat="44.3035893" lon="10.7524023"><ele>632.4</ele><time>2026-04-18T10:50:23.964Z</time></trkpt><trkpt lat="44.3035103" lon="10.7524684"><ele>629.5999999999999</ele><time>2026-04-18T10:50:24.965Z</time></trkpt><trkpt lat="44.303424" lon="10.752532"><ele>626.8</ele><time>2026-04-18T10:50:25.965Z</time></trkpt><trkpt lat="44.3033409" lon="10.7526048"><ele>624.0</ele><time>2026-04-18T10:50:26.964Z</time></trkpt><trkpt lat="44.3032591" lon="10.7526705"><ele>625.0</ele><time>2026-04-18T10:50:27.964Z</time></trkpt><trkpt lat="44.3031793" lon="10.7527454"><ele>626.0</ele><time>2026-04-18T10:50:28.964Z</time></trkpt><trkpt lat="44.3031027" lon="10.7528182"><ele>627.0</ele><time>2026-04-18T10:50:29.964Z</time></trkpt><trkpt lat="44.3030293" lon="10.7528889"><ele>628.0</ele><time>2026-04-18T10:50:30.965Z</time></trkpt><trkpt lat="44.3029572" lon="10.752967"><ele>629.0</ele><time>2026-04-18T10:50:31.965Z</time></trkpt><trkpt lat="44.3028971" lon="10.7530576"><ele>625.0</ele><time>2026-04-18T10:50:32.964Z</time></trkpt><trkpt lat="44.3028413" lon="10.7531517"><ele>621.0</ele><time>2026-04-18T10:50:33.965Z</time></trkpt><trkpt lat="44.3027887" lon="10.7532492"><ele>617.0</ele><time>2026-04-18T10:50:34.964Z</time></trkpt><trkpt lat="44.3027363" lon="10.7533433"><ele>613.0</ele><time>2026-04-18T10:50:35.964Z</time></trkpt><trkpt lat="44.3026661" lon="10.7534123"><ele>609.0</ele><time>2026-04-18T10:50:36.965Z</time></trkpt><trkpt lat="44.3025866" lon="10.7534526"><ele>605.0</ele><time>2026-04-18T10:50:37.964Z</time></trkpt><trkpt lat="44.3025062" lon="10.7534676"><ele>605.0</ele><time>2026-04-18T10:50:38.964Z</time></trkpt><trkpt lat="44.3024241" lon="10.7534645"><ele>605.0</ele><time>2026-04-18T10:50:39.964Z</time></trkpt><trkpt lat="44.3023531" lon="10.7534475"><ele>605.0</ele><time>2026-04-18T10:50:40.964Z</time></trkpt><trkpt lat="44.3022857" lon="10.7534111"><ele>605.0</ele><time>2026-04-18T10:50:41.964Z</time></trkpt><trkpt lat="44.3022189" lon="10.7533652"><ele>605.0</ele><time>2026-04-18T10:50:42.964Z</time></trkpt><trkpt lat="44.3021456" lon="10.7533089"><ele>605.0</ele><time>2026-04-18T10:50:43.964Z</time></trkpt><trkpt lat="44.3020812" lon="10.7532571"><ele>601.6666666666666</ele><time>2026-04-18T10:50:44.965Z</time></trkpt><trkpt lat="44.3020126" lon="10.7532267"><ele>598.3333333333333</ele><time>2026-04-18T10:50:45.964Z</time></trkpt><trkpt lat="44.3019454" lon="10.7532397"><ele>595.0</ele><time>2026-04-18T10:50:46.964Z</time></trkpt><trkpt lat="44.3018748" lon="10.7532863"><ele>591.6666666666666</ele><time>2026-04-18T10:50:47.965Z</time></trkpt><trkpt lat="44.3017996" lon="10.7533602"><ele>588.3333333333334</ele><time>2026-04-18T10:50:48.964Z</time></trkpt><trkpt lat="44.3017278" lon="10.7534468"><ele>585.0</ele><time>2026-04-18T10:50:49.964Z</time></trkpt><trkpt lat="44.3016484" lon="10.7535447"><ele>584.0</ele><time>2026-04-18T10:50:50.964Z</time></trkpt><trkpt lat="44.3015664" lon="10.7536389"><ele>583.0</ele><time>2026-04-18T10:50:51.964Z</time></trkpt><trkpt lat="44.3014827" lon="10.7537336"><ele>582.0</ele><time>2026-04-18T10:50:52.964Z</time></trkpt><trkpt lat="44.3014002" lon="10.7538263"><ele>581.0</ele><time>2026-04-18T10:50:53.964Z</time></trkpt><trkpt lat="44.3013262" lon="10.7539022"><ele>580.0</ele><time>2026-04-18T10:50:54.964Z</time></trkpt><trkpt lat="44.3012656" lon="10.7539683"><ele>576.8333333333334</ele><time>2026-04-18T10:50:55.964Z</time></trkpt><trkpt lat="44.3012118" lon="10.7540208"><ele>573.6666666666667</ele><time>2026-04-18T10:50:56.964Z</time></trkpt><trkpt lat="44.3011164" lon="10.7540441"><ele>570.5</ele><time>2026-04-18T10:50:58.964Z</time></trkpt><trkpt lat="44.3010597" lon="10.7539682"><ele>567.3333333333334</ele><time>2026-04-18T10:51:00.964Z</time></trkpt><trkpt lat="44.301034" lon="10.7538176"><ele>564.1666666666666</ele><time>2026-04-18T10:51:02.964Z</time></trkpt><trkpt lat="44.3010211" lon="10.7536954"><ele>561.0</ele><time>2026-04-18T10:51:03.964Z</time></trkpt><trkpt lat="44.3010073" lon="10.7535646"><ele>561.8</ele><time>2026-04-18T10:51:04.965Z</time></trkpt><trkpt lat="44.3009927" lon="10.7534262"><ele>562.6</ele><time>2026-04-18T10:51:05.965Z</time></trkpt><trkpt lat="44.3009746" lon="10.7532874"><ele>563.4</ele><time>2026-04-18T10:51:06.965Z</time></trkpt><trkpt lat="44.3009567" lon="10.7531467"><ele>564.2</ele><time>2026-04-18T10:51:07.965Z</time></trkpt><trkpt lat="44.3009328" lon="10.7530266"><ele>565.0</ele><time>2026-04-18T10:51:08.964Z</time></trkpt><trkpt lat="44.3008893" lon="10.7529161"><ele>565.0</ele><time>2026-04-18T10:51:09.965Z</time></trkpt><trkpt lat="44.3008271" lon="10.7528128"><ele>565.0</ele><time>2026-04-18T10:51:10.964Z</time></trkpt><trkpt lat="44.3007766" lon="10.7527228"><ele>565.0</ele><time>2026-04-18T10:51:11.965Z</time></trkpt><trkpt lat="44.300747" lon="10.7526278"><ele>565.0</ele><time>2026-04-18T10:51:12.965Z</time></trkpt><trkpt lat="44.3007164" lon="10.7525055"><ele>565.0</ele><time>2026-04-18T10:51:13.964Z</time></trkpt><trkpt lat="44.3006661" lon="10.7523731"><ele>564.1666666666667</ele><time>2026-04-18T10:51:14.964Z</time></trkpt><trkpt lat="44.3006217" lon="10.7522576"><ele>563.3333333333334</ele><time>2026-04-18T10:51:15.964Z</time></trkpt><trkpt lat="44.3006016" lon="10.7521531"><ele>562.5</ele><time>2026-04-18T10:51:16.965Z</time></trkpt><trkpt lat="44.300556" lon="10.7520607"><ele>561.6666666666666</ele><time>2026-04-18T10:51:17.964Z</time></trkpt><trkpt lat="44.3005087" lon="10.7519665"><ele>560.8333333333333</ele><time>2026-04-18T10:51:18.965Z</time></trkpt><trkpt lat="44.3004279" lon="10.7519589"><ele>560.0</ele><time>2026-04-18T10:51:19.965Z</time></trkpt><trkpt lat="44.3003436" lon="10.7519177"><ele>561.4</ele><time>2026-04-18T10:51:20.965Z</time></trkpt><trkpt lat="44.3002569" lon="10.7518707"><ele>562.8</ele><time>2026-04-18T10:51:21.964Z</time></trkpt><trkpt lat="44.3001914" lon="10.7518167"><ele>564.2</ele><time>2026-04-18T10:51:22.964Z</time></trkpt><trkpt lat="44.3001372" lon="10.7516617"><ele>565.6</ele><time>2026-04-18T10:51:24.964Z</time></trkpt><trkpt lat="44.3001013" lon="10.7515568"><ele>567.0</ele><time>2026-04-18T10:51:25.964Z</time></trkpt><trkpt lat="44.3000683" lon="10.7514576"><ele>567.0</ele><time>2026-04-18T10:51:26.964Z</time></trkpt><trkpt lat="44.3000335" lon="10.7513472"><ele>567.0</ele><time>2026-04-18T10:51:27.965Z</time></trkpt><trkpt lat="44.3000044" lon="10.7512282"><ele>567.0</ele><time>2026-04-18T10:51:28.965Z</time></trkpt><trkpt lat="44.2999882" lon="10.7510896"><ele>567.0</ele><time>2026-04-18T10:51:29.965Z</time></trkpt><trkpt lat="44.2999816" lon="10.7509478"><ele>567.0</ele><time>2026-04-18T10:51:30.965Z</time></trkpt><trkpt lat="44.2999572" lon="10.7508199"><ele>566.6</ele><time>2026-04-18T10:51:31.964Z</time></trkpt><trkpt lat="44.2999062" lon="10.7506962"><ele>566.2</ele><time>2026-04-18T10:51:32.964Z</time></trkpt><trkpt lat="44.2998385" lon="10.7505811"><ele>565.8</ele><time>2026-04-18T10:51:33.965Z</time></trkpt><trkpt lat="44.299757" lon="10.7504862"><ele>565.4</ele><time>2026-04-18T10:51:34.965Z</time></trkpt><trkpt lat="44.2996577" lon="10.7504304"><ele>565.0</ele><time>2026-04-18T10:51:35.965Z</time></trkpt><trkpt lat="44.299557" lon="10.7503761"><ele>565.0</ele><time>2026-04-18T10:51:36.964Z</time></trkpt><trkpt lat="44.2994715" lon="10.7503157"><ele>565.0</ele><time>2026-04-18T10:51:37.964Z</time></trkpt><trkpt lat="44.2993997" lon="10.7502696"><ele>565.0</ele><time>2026-04-18T10:51:38.965Z</time></trkpt><trkpt lat="44.2993361" lon="10.7502553"><ele>565.0</ele><time>2026-04-18T10:51:39.965Z</time></trkpt><trkpt lat="44.2992458" lon="10.7503063"><ele>565.0</ele><time>2026-04-18T10:51:41.965Z</time></trkpt><trkpt lat="44.2992183" lon="10.7504313"><ele>565.0</ele><time>2026-04-18T10:51:42.964Z</time></trkpt><trkpt lat="44.2991815" lon="10.7505571"><ele>565.0</ele><time>2026-04-18T10:51:43.965Z</time></trkpt><trkpt lat="44.2991444" lon="10.7507127"><ele>565.0</ele><time>2026-04-18T10:51:44.964Z</time></trkpt><trkpt lat="44.2990971" lon="10.7508666"><ele>565.0</ele><time>2026-04-18T10:51:45.965Z</time></trkpt><trkpt lat="44.2990313" lon="10.7510045"><ele>565.0</ele><time>2026-04-18T10:51:46.964Z</time></trkpt><trkpt lat="44.2989629" lon="10.7511224"><ele>563.6666666666667</ele><time>2026-04-18T10:51:47.964Z</time></trkpt><trkpt lat="44.2988995" lon="10.7512186"><ele>562.3333333333334</ele><time>2026-04-18T10:51:48.965Z</time></trkpt><trkpt lat="44.2988614" lon="10.7512904"><ele>561.0</ele><time>2026-04-18T10:51:49.965Z</time></trkpt><trkpt lat="44.2988294" lon="10.7514557"><ele>559.6666666666666</ele><time>2026-04-18T10:51:51.965Z</time></trkpt><trkpt lat="44.2988406" lon="10.7515672"><ele>558.3333333333333</ele><time>2026-04-18T10:51:52.964Z</time></trkpt><trkpt lat="44.2988831" lon="10.7516754"><ele>557.0</ele><time>2026-04-18T10:51:53.964Z</time></trkpt><trkpt lat="44.2989438" lon="10.75179"><ele>555.6</ele><time>2026-04-18T10:51:54.965Z</time></trkpt><trkpt lat="44.2989982" lon="10.7519114"><ele>554.2</ele><time>2026-04-18T10:51:55.964Z</time></trkpt><trkpt lat="44.2990244" lon="10.7520476"><ele>552.8</ele><time>2026-04-18T10:51:56.965Z</time></trkpt><trkpt lat="44.2990184" lon="10.7521978"><ele>551.4</ele><time>2026-04-18T10:51:57.964Z</time></trkpt><trkpt lat="44.2989912" lon="10.752355"><ele>550.0</ele><time>2026-04-18T10:51:58.965Z</time></trkpt><trkpt lat="44.2989556" lon="10.7525198"><ele>550.0</ele><time>2026-04-18T10:51:59.964Z</time></trkpt><trkpt lat="44.2989248" lon="10.752676"><ele>550.0</ele><time>2026-04-18T10:52:00.964Z</time></trkpt><trkpt lat="44.2988932" lon="10.7528222"><ele>550.0</ele><time>2026-04-18T10:52:01.965Z</time></trkpt><trkpt lat="44.2988648" lon="10.7529588"><ele>550.0</ele><time>2026-04-18T10:52:02.965Z</time></trkpt><trkpt lat="44.2988537" lon="10.7530974"><ele>550.0</ele><time>2026-04-18T10:52:03.964Z</time></trkpt><trkpt lat="44.2988678" lon="10.7532305"><ele>548.4</ele><time>2026-04-18T10:52:04.964Z</time></trkpt><trkpt lat="44.2989107" lon="10.7533615"><ele>546.8</ele><time>2026-04-18T10:52:05.965Z</time></trkpt><trkpt lat="44.2989783" lon="10.7534842"><ele>545.2</ele><time>2026-04-18T10:52:06.964Z</time></trkpt><trkpt lat="44.2990624" lon="10.753596"><ele>543.6</ele><time>2026-04-18T10:52:07.964Z</time></trkpt><trkpt lat="44.2991359" lon="10.7536977"><ele>542.0</ele><time>2026-04-18T10:52:08.964Z</time></trkpt><trkpt lat="44.2991872" lon="10.7538171"><ele>541.2</ele><time>2026-04-18T10:52:09.965Z</time></trkpt><trkpt lat="44.2992125" lon="10.7539439"><ele>540.4000000000001</ele><time>2026-04-18T10:52:10.965Z</time></trkpt><trkpt lat="44.2992052" lon="10.754074"><ele>539.5999999999999</ele><time>2026-04-18T10:52:11.965Z</time></trkpt><trkpt lat="44.2991754" lon="10.7542083"><ele>538.8</ele><time>2026-04-18T10:52:12.964Z</time></trkpt><trkpt lat="44.2991239" lon="10.7543498"><ele>538.0</ele><time>2026-04-18T10:52:13.965Z</time></trkpt><trkpt lat="44.2990581" lon="10.7544901"><ele>536.25</ele><time>2026-04-18T10:52:14.965Z</time></trkpt><trkpt lat="44.2989903" lon="10.7546211"><ele>534.5</ele><time>2026-04-18T10:52:15.964Z</time></trkpt><trkpt lat="44.2989066" lon="10.7547268"><ele>532.75</ele><time>2026-04-18T10:52:16.964Z</time></trkpt><trkpt lat="44.2988084" lon="10.7548231"><ele>531.0</ele><time>2026-04-18T10:52:17.965Z</time></trkpt><trkpt lat="44.2987134" lon="10.7549115"><ele>529.25</ele><time>2026-04-18T10:52:18.964Z</time></trkpt><trkpt lat="44.2986112" lon="10.7549772"><ele>527.5</ele><time>2026-04-18T10:52:19.965Z</time></trkpt><trkpt lat="44.298523" lon="10.7550729"><ele>525.75</ele><time>2026-04-18T10:52:20.964Z</time></trkpt><trkpt lat="44.2984465" lon="10.755184"><ele>524.0</ele><time>2026-04-18T10:52:21.964Z</time></trkpt><trkpt lat="44.2983704" lon="10.7553132"><ele>522.8</ele><time>2026-04-18T10:52:22.965Z</time></trkpt><trkpt lat="44.2983006" lon="10.7554463"><ele>521.5999999999999</ele><time>2026-04-18T10:52:23.964Z</time></trkpt><trkpt lat="44.2982307" lon="10.7555756"><ele>520.4</ele><time>2026-04-18T10:52:24.965Z</time></trkpt><trkpt lat="44.2981681" lon="10.7557063"><ele>519.1999999999999</ele><time>2026-04-18T10:52:25.964Z</time></trkpt><trkpt lat="44.2981126" lon="10.7558177"><ele>518.0</ele><time>2026-04-18T10:52:26.965Z</time></trkpt><trkpt lat="44.2980528" lon="10.7559215"><ele>516.8333333333333</ele><time>2026-04-18T10:52:27.964Z</time></trkpt><trkpt lat="44.2979822" lon="10.7559966"><ele>515.6666666666666</ele><time>2026-04-18T10:52:28.964Z</time></trkpt><trkpt lat="44.2979019" lon="10.7560229"><ele>514.5</ele><time>2026-04-18T10:52:29.964Z</time></trkpt><trkpt lat="44.2978226" lon="10.7559851"><ele>513.3333333333334</ele><time>2026-04-18T10:52:30.965Z</time></trkpt><trkpt lat="44.2977612" lon="10.7558959"><ele>512.1666666666667</ele><time>2026-04-18T10:52:31.964Z</time></trkpt><trkpt lat="44.2977023" lon="10.7557765"><ele>511.0</ele><time>2026-04-18T10:52:32.965Z</time></trkpt><trkpt lat="44.2976419" lon="10.7556369"><ele>511.0</ele><time>2026-04-18T10:52:33.964Z</time></trkpt><trkpt lat="44.297578" lon="10.7554748"><ele>511.0</ele><time>2026-04-18T10:52:34.965Z</time></trkpt><trkpt lat="44.2975173" lon="10.7553155"><ele>511.0</ele><time>2026-04-18T10:52:35.965Z</time></trkpt><trkpt lat="44.2974581" lon="10.755162"><ele>511.0</ele><time>2026-04-18T10:52:36.964Z</time></trkpt><trkpt lat="44.2973957" lon="10.7550368"><ele>510.83333333333337</ele><time>2026-04-18T10:52:37.965Z</time></trkpt><trkpt lat="44.2973302" lon="10.7549415"><ele>510.6666666666667</ele><time>2026-04-18T10:52:38.965Z</time></trkpt><trkpt lat="44.2972511" lon="10.7548902"><ele>510.5</ele><time>2026-04-18T10:52:39.964Z</time></trkpt><trkpt lat="44.2971684" lon="10.7548989"><ele>510.33333333333337</ele><time>2026-04-18T10:52:40.965Z</time></trkpt><trkpt lat="44.297097" lon="10.7549569"><ele>510.1666666666667</ele><time>2026-04-18T10:52:41.965Z</time></trkpt><trkpt lat="44.2970345" lon="10.7550565"><ele>510.0</ele><time>2026-04-18T10:52:42.965Z</time></trkpt><trkpt lat="44.2969714" lon="10.7551935"><ele>507.0</ele><time>2026-04-18T10:52:43.965Z</time></trkpt><trkpt lat="44.2968933" lon="10.7553452"><ele>504.0</ele><time>2026-04-18T10:52:44.964Z</time></trkpt><trkpt lat="44.2968042" lon="10.7555031"><ele>501.0</ele><time>2026-04-18T10:52:45.965Z</time></trkpt><trkpt lat="44.2967157" lon="10.755654"><ele>498.0</ele><time>2026-04-18T10:52:46.965Z</time></trkpt><trkpt lat="44.2966345" lon="10.7558"><ele>498.0</ele><time>2026-04-18T10:52:47.964Z</time></trkpt><trkpt lat="44.2965688" lon="10.7559497"><ele>498.0</ele><time>2026-04-18T10:52:48.964Z</time></trkpt><trkpt lat="44.2965221" lon="10.7561037"><ele>498.0</ele><time>2026-04-18T10:52:49.964Z</time></trkpt><trkpt lat="44.2964889" lon="10.7562546"><ele>498.0</ele><time>2026-04-18T10:52:50.964Z</time></trkpt><trkpt lat="44.29646" lon="10.7563905"><ele>498.2</ele><time>2026-04-18T10:52:51.965Z</time></trkpt><trkpt lat="44.2964232" lon="10.7565014"><ele>498.4</ele><time>2026-04-18T10:52:52.965Z</time></trkpt><trkpt lat="44.2963901" lon="10.756582"><ele>498.59999999999997</ele><time>2026-04-18T10:52:53.965Z</time></trkpt><trkpt lat="44.2963348" lon="10.7567007"><ele>498.79999999999995</ele><time>2026-04-18T10:52:55.964Z</time></trkpt><trkpt lat="44.2962729" lon="10.7567303"><ele>499.0</ele><time>2026-04-18T10:52:57.964Z</time></trkpt><trkpt lat="44.2961625" lon="10.7566316"><ele>495.25</ele><time>2026-04-18T10:52:59.964Z</time></trkpt><trkpt lat="44.2960607" lon="10.7565071"><ele>491.5</ele><time>2026-04-18T10:53:00.964Z</time></trkpt><trkpt lat="44.2959532" lon="10.7563825"><ele>487.75</ele><time>2026-04-18T10:53:01.964Z</time></trkpt><trkpt lat="44.2958631" lon="10.7562569"><ele>484.0</ele><time>2026-04-18T10:53:02.964Z</time></trkpt><trkpt lat="44.2958028" lon="10.7561135"><ele>484.25</ele><time>2026-04-18T10:53:03.965Z</time></trkpt><trkpt lat="44.295781" lon="10.7559588"><ele>484.5</ele><time>2026-04-18T10:53:04.965Z</time></trkpt><trkpt lat="44.2958048" lon="10.7557946"><ele>484.75</ele><time>2026-04-18T10:53:05.964Z</time></trkpt><trkpt lat="44.2958671" lon="10.7556311"><ele>485.0</ele><time>2026-04-18T10:53:06.964Z</time></trkpt><trkpt lat="44.2959572" lon="10.7554759"><ele>485.0</ele><time>2026-04-18T10:53:07.965Z</time></trkpt><trkpt lat="44.2960729" lon="10.7553312"><ele>485.0</ele><time>2026-04-18T10:53:08.965Z</time></trkpt><trkpt lat="44.2961915" lon="10.7552129"><ele>485.0</ele><time>2026-04-18T10:53:09.964Z</time></trkpt><trkpt lat="44.2962948" lon="10.7550987"><ele>485.0</ele><time>2026-04-18T10:53:10.964Z</time></trkpt><trkpt lat="44.2963711" lon="10.7549757"><ele>482.0</ele><time>2026-04-18T10:53:11.965Z</time></trkpt><trkpt lat="44.2964056" lon="10.7548272"><ele>479.0</ele><time>2026-04-18T10:53:12.965Z</time></trkpt><trkpt lat="44.2963992" lon="10.7546656"><ele>476.0</ele><time>2026-04-18T10:53:13.964Z</time></trkpt><trkpt lat="44.2963701" lon="10.7544969"><ele>473.0</ele><time>2026-04-18T10:53:14.964Z</time></trkpt><trkpt lat="44.296329" lon="10.7543254"><ele>472.25</ele><time>2026-04-18T10:53:15.964Z</time></trkpt><trkpt lat="44.2962873" lon="10.754147"><ele>471.5</ele><time>2026-04-18T10:53:16.964Z</time></trkpt><trkpt lat="44.2962413" lon="10.7539689"><ele>470.75</ele><time>2026-04-18T10:53:17.965Z</time></trkpt><trkpt lat="44.2961925" lon="10.7537837"><ele>470.0</ele><time>2026-04-18T10:53:18.964Z</time></trkpt><trkpt lat="44.2961485" lon="10.7536083"><ele>471.25</ele><time>2026-04-18T10:53:19.964Z</time></trkpt><trkpt lat="44.296107" lon="10.7534353"><ele>472.5</ele><time>2026-04-18T10:53:20.965Z</time></trkpt><trkpt lat="44.2960638" lon="10.7532599"><ele>473.75</ele><time>2026-04-18T10:53:21.965Z</time></trkpt><trkpt lat="44.2960164" lon="10.7530865"><ele>475.0</ele><time>2026-04-18T10:53:22.964Z</time></trkpt><trkpt lat="44.2959636" lon="10.75291"><ele>475.0</ele><time>2026-04-18T10:53:23.964Z</time></trkpt><trkpt lat="44.2958876" lon="10.7527556"><ele>475.0</ele><time>2026-04-18T10:53:24.964Z</time></trkpt><trkpt lat="44.295787" lon="10.752633"><ele>475.0</ele><time>2026-04-18T10:53:25.965Z</time></trkpt><trkpt lat="44.2956669" lon="10.7525456"><ele>475.0</ele><time>2026-04-18T10:53:26.964Z</time></trkpt><trkpt lat="44.295536" lon="10.7524855"><ele>472.0</ele><time>2026-04-18T10:53:27.965Z</time></trkpt><trkpt lat="44.295412" lon="10.7524193"><ele>469.0</ele><time>2026-04-18T10:53:28.964Z</time></trkpt><trkpt lat="44.2952971" lon="10.7523302"><ele>466.0</ele><time>2026-04-18T10:53:29.964Z</time></trkpt><trkpt lat="44.2951917" lon="10.7522186"><ele>463.0</ele><time>2026-04-18T10:53:30.965Z</time></trkpt><trkpt lat="44.2951067" lon="10.7520766"><ele>463.0</ele><time>2026-04-18T10:53:31.964Z</time></trkpt><trkpt lat="44.2950294" lon="10.7519083"><ele>463.0</ele><time>2026-04-18T10:53:32.964Z</time></trkpt><trkpt lat="44.2949528" lon="10.751728"><ele>463.0</ele><time>2026-04-18T10:53:33.965Z</time></trkpt><trkpt lat="44.2948783" lon="10.7515369"><ele>463.0</ele><time>2026-04-18T10:53:34.964Z</time></trkpt><trkpt lat="44.2948072" lon="10.7513406"><ele>462.25</ele><time>2026-04-18T10:53:35.964Z</time></trkpt><trkpt lat="44.2947353" lon="10.7511542"><ele>461.5</ele><time>2026-04-18T10:53:36.965Z</time></trkpt><trkpt lat="44.2946741" lon="10.7509867"><ele>460.75</ele><time>2026-04-18T10:53:37.965Z</time></trkpt><trkpt lat="44.2946191" lon="10.7508364"><ele>460.0</ele><time>2026-04-18T10:53:38.964Z</time></trkpt><trkpt lat="44.2945647" lon="10.7507104"><ele>460.0</ele><time>2026-04-18T10:53:39.965Z</time></trkpt><trkpt lat="44.2945002" lon="10.750617"><ele>460.0</ele><time>2026-04-18T10:53:40.965Z</time></trkpt><trkpt lat="44.2944198" lon="10.7505814"><ele>460.0</ele><time>2026-04-18T10:53:41.964Z</time></trkpt><trkpt lat="44.2943411" lon="10.7506174"><ele>460.0</ele><time>2026-04-18T10:53:42.964Z</time></trkpt><trkpt lat="44.2942824" lon="10.7507134"><ele>460.0</ele><time>2026-04-18T10:53:43.965Z</time></trkpt><trkpt lat="44.2942558" lon="10.7508538"><ele>460.0</ele><time>2026-04-18T10:53:44.965Z</time></trkpt><trkpt lat="44.2942628" lon="10.7510104"><ele>460.0</ele><time>2026-04-18T10:53:45.964Z</time></trkpt><trkpt lat="44.2942898" lon="10.7511562"><ele>460.0</ele><time>2026-04-18T10:53:46.964Z</time></trkpt><trkpt lat="44.2942941" lon="10.7513036"><ele>460.0</ele><time>2026-04-18T10:53:47.964Z</time></trkpt><trkpt lat="44.2942607" lon="10.7514409"><ele>460.0</ele><time>2026-04-18T10:53:48.964Z</time></trkpt><trkpt lat="44.294182" lon="10.7515515"><ele>459.5</ele><time>2026-04-18T10:53:49.965Z</time></trkpt><trkpt lat="44.2940827" lon="10.7516491"><ele>459.0</ele><time>2026-04-18T10:53:50.964Z</time></trkpt><trkpt lat="44.2939812" lon="10.751743"><ele>458.5</ele><time>2026-04-18T10:53:51.965Z</time></trkpt><trkpt lat="44.2938787" lon="10.7518413"><ele>458.0</ele><time>2026-04-18T10:53:52.965Z</time></trkpt><trkpt lat="44.2937722" lon="10.7519362"><ele>461.0</ele><time>2026-04-18T10:53:53.964Z</time></trkpt><trkpt lat="44.2936634" lon="10.7520263"><ele>464.0</ele><time>2026-04-18T10:53:54.965Z</time></trkpt><trkpt lat="44.2935538" lon="10.7521074"><ele>467.0</ele><time>2026-04-18T10:53:55.965Z</time></trkpt><trkpt lat="44.2934377" lon="10.7521627"><ele>470.0</ele><time>2026-04-18T10:53:56.964Z</time></trkpt><trkpt lat="44.2933216" lon="10.7522023"><ele>470.0</ele><time>2026-04-18T10:53:57.964Z</time></trkpt><trkpt lat="44.2931946" lon="10.7521372"><ele>470.0</ele><time>2026-04-18T10:53:58.965Z</time></trkpt><trkpt lat="44.2930697" lon="10.7520707"><ele>470.0</ele><time>2026-04-18T10:53:59.964Z</time></trkpt><trkpt lat="44.2929386" lon="10.7519938"><ele>470.0</ele><time>2026-04-18T10:54:00.964Z</time></trkpt><trkpt lat="44.2927994" lon="10.7519151"><ele>472.5</ele><time>2026-04-18T10:54:01.964Z</time></trkpt><trkpt lat="44.2926631" lon="10.7518346"><ele>475.0</ele><time>2026-04-18T10:54:02.965Z</time></trkpt><trkpt lat="44.2925265" lon="10.7517459"><ele>477.5</ele><time>2026-04-18T10:54:03.965Z</time></trkpt><trkpt lat="44.2924064" lon="10.7516258"><ele>480.0</ele><time>2026-04-18T10:54:04.964Z</time></trkpt><trkpt lat="44.2923095" lon="10.7514713"><ele>484.66666666666663</ele><time>2026-04-18T10:54:05.965Z</time></trkpt><trkpt lat="44.2922277" lon="10.7512979"><ele>489.3333333333333</ele><time>2026-04-18T10:54:06.965Z</time></trkpt><trkpt lat="44.2921346" lon="10.7511324"><ele>494.0</ele><time>2026-04-18T10:54:07.964Z</time></trkpt><trkpt lat="44.2920349" lon="10.7509697"><ele>494.0</ele><time>2026-04-18T10:54:08.964Z</time></trkpt><trkpt lat="44.2919345" lon="10.7508094"><ele>494.0</ele><time>2026-04-18T10:54:09.965Z</time></trkpt><trkpt lat="44.291835" lon="10.7506484"><ele>494.0</ele><time>2026-04-18T10:54:10.964Z</time></trkpt><trkpt lat="44.2917457" lon="10.7504813"><ele>494.0</ele><time>2026-04-18T10:54:11.965Z</time></trkpt><trkpt lat="44.2916817" lon="10.7503015"><ele>494.0</ele><time>2026-04-18T10:54:12.964Z</time></trkpt><trkpt lat="44.2916299" lon="10.750109"><ele>494.0</ele><time>2026-04-18T10:54:13.964Z</time></trkpt><trkpt lat="44.2915758" lon="10.7499117"><ele>494.0</ele><time>2026-04-18T10:54:14.964Z</time></trkpt><trkpt lat="44.2915225" lon="10.7497106"><ele>493.25</ele><time>2026-04-18T10:54:15.964Z</time></trkpt><trkpt lat="44.2914961" lon="10.749504"><ele>492.5</ele><time>2026-04-18T10:54:16.964Z</time></trkpt><trkpt lat="44.2914864" lon="10.7493065"><ele>491.75</ele><time>2026-04-18T10:54:17.964Z</time></trkpt><trkpt lat="44.2914768" lon="10.7491122"><ele>491.0</ele><time>2026-04-18T10:54:18.965Z</time></trkpt><trkpt lat="44.2914371" lon="10.7489305"><ele>496.5</ele><time>2026-04-18T10:54:19.964Z</time></trkpt><trkpt lat="44.2913714" lon="10.7487558"><ele>502.0</ele><time>2026-04-18T10:54:20.964Z</time></trkpt><trkpt lat="44.291286" lon="10.7486004"><ele>507.5</ele><time>2026-04-18T10:54:21.964Z</time></trkpt><trkpt lat="44.2912045" lon="10.7484444"><ele>513.0</ele><time>2026-04-18T10:54:22.964Z</time></trkpt><trkpt lat="44.291161" lon="10.7482747"><ele>513.0</ele><time>2026-04-18T10:54:23.965Z</time></trkpt><trkpt lat="44.2911551" lon="10.7480878"><ele>513.0</ele><time>2026-04-18T10:54:24.965Z</time></trkpt><trkpt lat="44.2911743" lon="10.7478997"><ele>513.0</ele><time>2026-04-18T10:54:25.965Z</time></trkpt><trkpt lat="44.2911817" lon="10.7477099"><ele>513.0</ele><time>2026-04-18T10:54:26.964Z</time></trkpt><trkpt lat="44.2911531" lon="10.7475158"><ele>513.0</ele><time>2026-04-18T10:54:27.964Z</time></trkpt><trkpt lat="44.2910781" lon="10.7473326"><ele>513.0</ele><time>2026-04-18T10:54:28.964Z</time></trkpt><trkpt lat="44.2909679" lon="10.7471607"><ele>513.0</ele><time>2026-04-18T10:54:29.964Z</time></trkpt><trkpt lat="44.2908531" lon="10.7469897"><ele>513.0</ele><time>2026-04-18T10:54:30.965Z</time></trkpt><trkpt lat="44.2907335" lon="10.746819"><ele>513.0</ele><time>2026-04-18T10:54:31.964Z</time></trkpt><trkpt lat="44.2906167" lon="10.7466433"><ele>513.0</ele><time>2026-04-18T10:54:32.964Z</time></trkpt><trkpt lat="44.2905081" lon="10.7464872"><ele>514.5</ele><time>2026-04-18T10:54:33.964Z</time></trkpt><trkpt lat="44.2904069" lon="10.7463739"><ele>516.0</ele><time>2026-04-18T10:54:34.964Z</time></trkpt><trkpt lat="44.290294" lon="10.7463205"><ele>517.5</ele><time>2026-04-18T10:54:35.964Z</time></trkpt><trkpt lat="44.2901753" lon="10.7463316"><ele>519.0</ele><time>2026-04-18T10:54:36.965Z</time></trkpt><trkpt lat="44.2900668" lon="10.7464106"><ele>519.0</ele><time>2026-04-18T10:54:37.964Z</time></trkpt><trkpt lat="44.28997" lon="10.746538"><ele>519.0</ele><time>2026-04-18T10:54:38.964Z</time></trkpt><trkpt lat="44.2898738" lon="10.7466797"><ele>519.0</ele><time>2026-04-18T10:54:39.965Z</time></trkpt><trkpt lat="44.2897737" lon="10.7468258"><ele>519.0</ele><time>2026-04-18T10:54:40.964Z</time></trkpt><trkpt lat="44.2896669" lon="10.7469729"><ele>522.25</ele><time>2026-04-18T10:54:41.964Z</time></trkpt><trkpt lat="44.2895566" lon="10.7471037"><ele>525.5</ele><time>2026-04-18T10:54:42.964Z</time></trkpt><trkpt lat="44.2894261" lon="10.7471941"><ele>528.75</ele><time>2026-04-18T10:54:43.965Z</time></trkpt><trkpt lat="44.2892782" lon="10.7472361"><ele>532.0</ele><time>2026-04-18T10:54:44.964Z</time></trkpt><trkpt lat="44.2891203" lon="10.7472304"><ele>532.0</ele><time>2026-04-18T10:54:45.964Z</time></trkpt><trkpt lat="44.2889554" lon="10.7472118"><ele>532.0</ele><time>2026-04-18T10:54:46.965Z</time></trkpt><trkpt lat="44.2887884" lon="10.7471913"><ele>532.0</ele><time>2026-04-18T10:54:47.965Z</time></trkpt><trkpt lat="44.2886205" lon="10.7471692"><ele>534.0</ele><time>2026-04-18T10:54:48.964Z</time></trkpt><trkpt lat="44.2884603" lon="10.7471498"><ele>536.0</ele><time>2026-04-18T10:54:49.964Z</time></trkpt><trkpt lat="44.2883158" lon="10.7471169"><ele>538.0</ele><time>2026-04-18T10:54:50.965Z</time></trkpt><trkpt lat="44.2881875" lon="10.7470468"><ele>540.0</ele><time>2026-04-18T10:54:51.965Z</time></trkpt><trkpt lat="44.2880775" lon="10.7469297"><ele>541.0</ele><time>2026-04-18T10:54:52.965Z</time></trkpt><trkpt lat="44.2879821" lon="10.7467856"><ele>542.0</ele><time>2026-04-18T10:54:53.964Z</time></trkpt><trkpt lat="44.2878836" lon="10.7466331"><ele>543.0</ele><time>2026-04-18T10:54:54.964Z</time></trkpt><trkpt lat="44.2877828" lon="10.7465033"><ele>544.0</ele><time>2026-04-18T10:54:55.965Z</time></trkpt><trkpt lat="44.2876792" lon="10.7464009"><ele>544.0</ele><time>2026-04-18T10:54:56.964Z</time></trkpt><trkpt lat="44.2875748" lon="10.7463429"><ele>544.0</ele><time>2026-04-18T10:54:57.965Z</time></trkpt><trkpt lat="44.2874782" lon="10.7463472"><ele>544.0</ele><time>2026-04-18T10:54:58.965Z</time></trkpt><trkpt lat="44.2874" lon="10.7463978"><ele>544.0</ele><time>2026-04-18T10:54:59.964Z</time></trkpt><trkpt lat="44.2873467" lon="10.7464772"><ele>544.0</ele><time>2026-04-18T10:55:00.964Z</time></trkpt><trkpt lat="44.2873198" lon="10.7465771"><ele>544.0</ele><time>2026-04-18T10:55:01.964Z</time></trkpt><trkpt lat="44.2873226" lon="10.7466675"><ele>544.0</ele><time>2026-04-18T10:55:02.964Z</time></trkpt><trkpt lat="44.2872838" lon="10.7467647"><ele>544.0</ele><time>2026-04-18T10:55:04.965Z</time></trkpt><trkpt lat="44.2872391" lon="10.746693"><ele>544.0</ele><time>2026-04-18T10:55:06.965Z</time></trkpt><trkpt lat="44.2872156" lon="10.7465095"><ele>544.0</ele><time>2026-04-18T10:55:08.964Z</time></trkpt><trkpt lat="44.2871752" lon="10.746401"><ele>544.0</ele><time>2026-04-18T10:55:09.965Z</time></trkpt><trkpt lat="44.2871127" lon="10.7463072"><ele>546.4</ele><time>2026-04-18T10:55:10.965Z</time></trkpt><trkpt lat="44.2870367" lon="10.7462225"><ele>548.8</ele><time>2026-04-18T10:55:11.964Z</time></trkpt><trkpt lat="44.2869551" lon="10.7461542"><ele>551.2</ele><time>2026-04-18T10:55:12.965Z</time></trkpt><trkpt lat="44.2868633" lon="10.746109"><ele>553.6</ele><time>2026-04-18T10:55:13.965Z</time></trkpt><trkpt lat="44.2867684" lon="10.7460783"><ele>556.0</ele><time>2026-04-18T10:55:14.964Z</time></trkpt><trkpt lat="44.286677" lon="10.7460665"><ele>556.0</ele><time>2026-04-18T10:55:15.965Z</time></trkpt><trkpt lat="44.2865851" lon="10.7460542"><ele>556.0</ele><time>2026-04-18T10:55:16.964Z</time></trkpt><trkpt lat="44.286486" lon="10.7460355"><ele>556.0</ele><time>2026-04-18T10:55:17.965Z</time></trkpt><trkpt lat="44.2863878" lon="10.7460122"><ele>556.0</ele><time>2026-04-18T10:55:18.965Z</time></trkpt><trkpt lat="44.2862909" lon="10.7459652"><ele>556.0</ele><time>2026-04-18T10:55:19.965Z</time></trkpt><trkpt lat="44.2861991" lon="10.7459181"><ele>556.8333333333334</ele><time>2026-04-18T10:55:20.965Z</time></trkpt><trkpt lat="44.2861118" lon="10.7458697"><ele>557.6666666666667</ele><time>2026-04-18T10:55:21.965Z</time></trkpt><trkpt lat="44.2860476" lon="10.7458239"><ele>558.5</ele><time>2026-04-18T10:55:22.964Z</time></trkpt><trkpt lat="44.285973" lon="10.7458244"><ele>559.3333333333334</ele><time>2026-04-18T10:55:23.965Z</time></trkpt><trkpt lat="44.285902" lon="10.7458285"><ele>560.1666666666666</ele><time>2026-04-18T10:55:24.964Z</time></trkpt><trkpt lat="44.2858204" lon="10.745863"><ele>561.0</ele><time>2026-04-18T10:55:25.964Z</time></trkpt><trkpt lat="44.2857366" lon="10.7459018"><ele>561.0</ele><time>2026-04-18T10:55:26.964Z</time></trkpt><trkpt lat="44.28566" lon="10.7459546"><ele>561.0</ele><time>2026-04-18T10:55:27.964Z</time></trkpt><trkpt lat="44.2855873" lon="10.7460174"><ele>561.0</ele><time>2026-04-18T10:55:28.964Z</time></trkpt><trkpt lat="44.2855293" lon="10.7460944"><ele>561.0</ele><time>2026-04-18T10:55:29.965Z</time></trkpt><trkpt lat="44.2854806" lon="10.746156"><ele>561.0</ele><time>2026-04-18T10:55:30.965Z</time></trkpt><trkpt lat="44.2854009" lon="10.7461838"><ele>561.0</ele><time>2026-04-18T10:55:32.965Z</time></trkpt><trkpt lat="44.2853266" lon="10.7461284"><ele>563.3333333333334</ele><time>2026-04-18T10:55:49.964Z</time></trkpt><trkpt lat="44.2852922" lon="10.7460428"><ele>565.6666666666666</ele><time>2026-04-18T10:55:50.964Z</time></trkpt><trkpt lat="44.285242" lon="10.7458903"><ele>568.0</ele><time>2026-04-18T10:55:52.965Z</time></trkpt><trkpt lat="44.2852062" lon="10.7458061"><ele>570.3333333333333</ele><time>2026-04-18T10:55:53.964Z</time></trkpt><trkpt lat="44.2851605" lon="10.7457118"><ele>572.6666666666666</ele><time>2026-04-18T10:55:54.964Z</time></trkpt><trkpt lat="44.2851086" lon="10.7456293"><ele>575.0</ele><time>2026-04-18T10:55:55.964Z</time></trkpt><trkpt lat="44.2850426" lon="10.7456033"><ele>575.0</ele><time>2026-04-18T10:55:56.964Z</time></trkpt><trkpt lat="44.284933" lon="10.7456942"><ele>575.0</ele><time>2026-04-18T10:55:58.965Z</time></trkpt><trkpt lat="44.2848695" lon="10.7457602"><ele>575.0</ele><time>2026-04-18T10:55:59.965Z</time></trkpt><trkpt lat="44.2848066" lon="10.7458047"><ele>575.0</ele><time>2026-04-18T10:56:00.964Z</time></trkpt><trkpt lat="44.284737" lon="10.7457905"><ele>575.0</ele><time>2026-04-18T10:56:01.965Z</time></trkpt><trkpt lat="44.2846649" lon="10.7457086"><ele>575.0</ele><time>2026-04-18T10:56:02.965Z</time></trkpt><trkpt lat="44.2845835" lon="10.7456407"><ele>577.8333333333333</ele><time>2026-04-18T10:56:03.965Z</time></trkpt><trkpt lat="44.2844925" lon="10.7455989"><ele>580.6666666666666</ele><time>2026-04-18T10:56:04.964Z</time></trkpt><trkpt lat="44.2844026" lon="10.7455907"><ele>583.5</ele><time>2026-04-18T10:56:05.965Z</time></trkpt><trkpt lat="44.2843374" lon="10.7456335"><ele>586.3333333333334</ele><time>2026-04-18T10:56:06.964Z</time></trkpt><trkpt lat="44.2842962" lon="10.7457193"><ele>589.1666666666667</ele><time>2026-04-18T10:56:07.965Z</time></trkpt><trkpt lat="44.2842515" lon="10.7458157"><ele>592.0</ele><time>2026-04-18T10:56:08.964Z</time></trkpt><trkpt lat="44.2841796" lon="10.7459182"><ele>592.0</ele><time>2026-04-18T10:56:09.965Z</time></trkpt><trkpt lat="44.2841016" lon="10.746022"><ele>592.0</ele><time>2026-04-18T10:56:10.965Z</time></trkpt><trkpt lat="44.2840232" lon="10.7461236"><ele>592.0</ele><time>2026-04-18T10:56:11.964Z</time></trkpt><trkpt lat="44.2839573" lon="10.7462325"><ele>592.0</ele><time>2026-04-18T10:56:12.964Z</time></trkpt><trkpt lat="44.2838891" lon="10.7463235"><ele>592.0</ele><time>2026-04-18T10:56:13.965Z</time></trkpt><trkpt lat="44.2838127" lon="10.7463758"><ele>595.4</ele><time>2026-04-18T10:56:14.965Z</time></trkpt><trkpt lat="44.2837306" lon="10.7463799"><ele>598.8000000000001</ele><time>2026-04-18T10:56:15.965Z</time></trkpt><trkpt lat="44.2836427" lon="10.7463521"><ele>602.2</ele><time>2026-04-18T10:56:16.964Z</time></trkpt><trkpt lat="44.2835552" lon="10.7462979"><ele>605.6</ele><time>2026-04-18T10:56:17.965Z</time></trkpt><trkpt lat="44.2834761" lon="10.7462224"><ele>609.0</ele><time>2026-04-18T10:56:18.965Z</time></trkpt><trkpt lat="44.2833835" lon="10.7461609"><ele>609.0</ele><time>2026-04-18T10:56:19.965Z</time></trkpt><trkpt lat="44.2832783" lon="10.7461184"><ele>609.0</ele><time>2026-04-18T10:56:20.964Z</time></trkpt><trkpt lat="44.2831704" lon="10.7461023"><ele>609.0</ele><time>2026-04-18T10:56:21.964Z</time></trkpt><trkpt lat="44.2830636" lon="10.7461263"><ele>609.0</ele><time>2026-04-18T10:56:22.965Z</time></trkpt><trkpt lat="44.2829589" lon="10.7461833"><ele>609.0</ele><time>2026-04-18T10:56:23.965Z</time></trkpt><trkpt lat="44.2828588" lon="10.7462291"><ele>609.0</ele><time>2026-04-18T10:56:24.965Z</time></trkpt><trkpt lat="44.2827661" lon="10.7462707"><ele>609.0</ele><time>2026-04-18T10:56:25.965Z</time></trkpt><trkpt lat="44.2826901" lon="10.7462811"><ele>609.0</ele><time>2026-04-18T10:56:26.964Z</time></trkpt><trkpt lat="44.2826117" lon="10.7462354"><ele>609.0</ele><time>2026-04-18T10:56:27.965Z</time></trkpt><trkpt lat="44.2825355" lon="10.7461668"><ele>609.0</ele><time>2026-04-18T10:56:28.964Z</time></trkpt><trkpt lat="44.2824726" lon="10.7460702"><ele>609.0</ele><time>2026-04-18T10:56:29.964Z</time></trkpt><trkpt lat="44.2824122" lon="10.7459565"><ele>609.0</ele><time>2026-04-18T10:56:30.964Z</time></trkpt><trkpt lat="44.2823439" lon="10.7458672"><ele>609.0</ele><time>2026-04-18T10:56:31.964Z</time></trkpt><trkpt lat="44.2822606" lon="10.7458175"><ele>609.0</ele><time>2026-04-18T10:56:32.964Z</time></trkpt><trkpt lat="44.2821648" lon="10.7458054"><ele>609.0</ele><time>2026-04-18T10:56:33.964Z</time></trkpt><trkpt lat="44.282061" lon="10.7458185"><ele>609.0</ele><time>2026-04-18T10:56:34.964Z</time></trkpt><trkpt lat="44.2819461" lon="10.7458362"><ele>611.0</ele><time>2026-04-18T10:56:35.965Z</time></trkpt><trkpt lat="44.2818274" lon="10.7458345"><ele>613.0</ele><time>2026-04-18T10:56:36.965Z</time></trkpt><trkpt lat="44.2817149" lon="10.7458021"><ele>615.0</ele><time>2026-04-18T10:56:37.964Z</time></trkpt><trkpt lat="44.2816147" lon="10.7457285"><ele>617.0</ele><time>2026-04-18T10:56:38.964Z</time></trkpt><trkpt lat="44.2815182" lon="10.7456269"><ele>617.75</ele><time>2026-04-18T10:56:39.965Z</time></trkpt><trkpt lat="44.2814168" lon="10.7455245"><ele>618.5</ele><time>2026-04-18T10:56:40.964Z</time></trkpt><trkpt lat="44.2813113" lon="10.745423"><ele>619.25</ele><time>2026-04-18T10:56:41.964Z</time></trkpt><trkpt lat="44.2812075" lon="10.7453108"><ele>620.0</ele><time>2026-04-18T10:56:42.964Z</time></trkpt><trkpt lat="44.2811063" lon="10.7452069"><ele>620.0</ele><time>2026-04-18T10:56:43.965Z</time></trkpt><trkpt lat="44.2810252" lon="10.7451491"><ele>620.0</ele><time>2026-04-18T10:56:44.964Z</time></trkpt><trkpt lat="44.2809521" lon="10.7451022"><ele>620.0</ele><time>2026-04-18T10:56:45.965Z</time></trkpt><trkpt lat="44.2808849" lon="10.7450445"><ele>620.0</ele><time>2026-04-18T10:56:46.964Z</time></trkpt><trkpt lat="44.2808144" lon="10.7449479"><ele>620.0</ele><time>2026-04-18T10:56:47.965Z</time></trkpt><trkpt lat="44.2807431" lon="10.7448534"><ele>620.0</ele><time>2026-04-18T10:56:48.964Z</time></trkpt><trkpt lat="44.2806688" lon="10.744765"><ele>620.8333333333333</ele><time>2026-04-18T10:56:49.964Z</time></trkpt><trkpt lat="44.2805942" lon="10.7446761"><ele>621.6666666666666</ele><time>2026-04-18T10:56:50.964Z</time></trkpt><trkpt lat="44.2805511" lon="10.744584"><ele>622.5</ele><time>2026-04-18T10:56:51.965Z</time></trkpt><trkpt lat="44.2805278" lon="10.7444789"><ele>623.3333333333334</ele><time>2026-04-18T10:56:52.964Z</time></trkpt><trkpt lat="44.2805303" lon="10.7443647"><ele>624.1666666666667</ele><time>2026-04-18T10:56:53.965Z</time></trkpt><trkpt lat="44.2805407" lon="10.744233"><ele>625.0</ele><time>2026-04-18T10:56:54.965Z</time></trkpt><trkpt lat="44.2805384" lon="10.7440959"><ele>625.0</ele><time>2026-04-18T10:56:55.964Z</time></trkpt><trkpt lat="44.2805113" lon="10.7439696"><ele>625.0</ele><time>2026-04-18T10:56:56.964Z</time></trkpt><trkpt lat="44.2804712" lon="10.7438504"><ele>625.0</ele><time>2026-04-18T10:56:57.964Z</time></trkpt><trkpt lat="44.2804226" lon="10.7437195"><ele>625.0</ele><time>2026-04-18T10:56:58.964Z</time></trkpt><trkpt lat="44.2803726" lon="10.7435828"><ele>625.0</ele><time>2026-04-18T10:56:59.964Z</time></trkpt><trkpt lat="44.2803275" lon="10.743448"><ele>624.8</ele><time>2026-04-18T10:57:00.965Z</time></trkpt><trkpt lat="44.2802884" lon="10.7433215"><ele>624.6</ele><time>2026-04-18T10:57:01.964Z</time></trkpt><trkpt lat="44.280257" lon="10.7432077"><ele>624.4</ele><time>2026-04-18T10:57:02.964Z</time></trkpt><trkpt lat="44.2802244" lon="10.7431209"><ele>624.2</ele><time>2026-04-18T10:57:03.964Z</time></trkpt><trkpt lat="44.2801353" lon="10.7430846"><ele>624.0</ele><time>2026-04-18T10:57:05.964Z</time></trkpt><trkpt lat="44.2800224" lon="10.7431592"><ele>624.0</ele><time>2026-04-18T10:57:07.965Z</time></trkpt><trkpt lat="44.2799391" lon="10.7432369"><ele>624.0</ele><time>2026-04-18T10:57:08.965Z</time></trkpt><trkpt lat="44.2798554" lon="10.7433106"><ele>624.0</ele><time>2026-04-18T10:57:09.964Z</time></trkpt><trkpt lat="44.279769" lon="10.7433936"><ele>624.0</ele><time>2026-04-18T10:57:10.965Z</time></trkpt><trkpt lat="44.2796789" lon="10.7434825"><ele>624.0</ele><time>2026-04-18T10:57:11.965Z</time></trkpt><trkpt lat="44.279587" lon="10.7435761"><ele>627.6</ele><time>2026-04-18T10:57:12.964Z</time></trkpt><trkpt lat="44.2794996" lon="10.7436701"><ele>631.2</ele><time>2026-04-18T10:57:13.965Z</time></trkpt><trkpt lat="44.2794085" lon="10.7437682"><ele>634.8000000000001</ele><time>2026-04-18T10:57:14.964Z</time></trkpt><trkpt lat="44.2793305" lon="10.7438726"><ele>638.4</ele><time>2026-04-18T10:57:15.964Z</time></trkpt><trkpt lat="44.2792771" lon="10.7439655"><ele>642.0</ele><time>2026-04-18T10:57:16.965Z</time></trkpt><trkpt lat="44.2792104" lon="10.7440416"><ele>642.0</ele><time>2026-04-18T10:57:17.965Z</time></trkpt><trkpt lat="44.2791352" lon="10.7440573"><ele>642.0</ele><time>2026-04-18T10:57:18.964Z</time></trkpt><trkpt lat="44.2790519" lon="10.7440454"><ele>642.0</ele><time>2026-04-18T10:57:19.965Z</time></trkpt><trkpt lat="44.2789782" lon="10.7440668"><ele>642.0</ele><time>2026-04-18T10:57:20.964Z</time></trkpt><trkpt lat="44.2789167" lon="10.7441265"><ele>642.0</ele><time>2026-04-18T10:57:21.964Z</time></trkpt><trkpt lat="44.2788601" lon="10.7442194"><ele>642.0</ele><time>2026-04-18T10:57:22.964Z</time></trkpt><trkpt lat="44.2787916" lon="10.7443116"><ele>645.6</ele><time>2026-04-18T10:57:23.964Z</time></trkpt><trkpt lat="44.2787163" lon="10.7444088"><ele>649.2</ele><time>2026-04-18T10:57:24.964Z</time></trkpt><trkpt lat="44.2786515" lon="10.744507"><ele>652.8</ele><time>2026-04-18T10:57:25.964Z</time></trkpt><trkpt lat="44.2785931" lon="10.7445998"><ele>656.4</ele><time>2026-04-18T10:57:26.964Z</time></trkpt><trkpt lat="44.2785199" lon="10.7446699"><ele>660.0</ele><time>2026-04-18T10:57:27.965Z</time></trkpt><trkpt lat="44.2784392" lon="10.7447334"><ele>660.0</ele><time>2026-04-18T10:57:28.964Z</time></trkpt><trkpt lat="44.2783471" lon="10.7447816"><ele>660.0</ele><time>2026-04-18T10:57:29.965Z</time></trkpt><trkpt lat="44.2782511" lon="10.7448104"><ele>660.0</ele><time>2026-04-18T10:57:30.964Z</time></trkpt><trkpt lat="44.2781538" lon="10.7448449"><ele>660.0</ele><time>2026-04-18T10:57:31.964Z</time></trkpt><trkpt lat="44.2780697" lon="10.7449038"><ele>660.0</ele><time>2026-04-18T10:57:32.964Z</time></trkpt><trkpt lat="44.2779873" lon="10.7449824"><ele>662.6</ele><time>2026-04-18T10:57:33.964Z</time></trkpt><trkpt lat="44.2779082" lon="10.7450696"><ele>665.2</ele><time>2026-04-18T10:57:34.965Z</time></trkpt><trkpt lat="44.2778265" lon="10.7451545"><ele>667.8</ele><time>2026-04-18T10:57:35.964Z</time></trkpt><trkpt lat="44.2777307" lon="10.7452296"><ele>670.4</ele><time>2026-04-18T10:57:36.965Z</time></trkpt><trkpt lat="44.2776336" lon="10.7453024"><ele>673.0</ele><time>2026-04-18T10:57:37.964Z</time></trkpt><trkpt lat="44.2775462" lon="10.745391"><ele>674.2</ele><time>2026-04-18T10:57:38.965Z</time></trkpt><trkpt lat="44.2774599" lon="10.7454725"><ele>675.4</ele><time>2026-04-18T10:57:39.965Z</time></trkpt><trkpt lat="44.2773666" lon="10.7455272"><ele>676.6</ele><time>2026-04-18T10:57:40.964Z</time></trkpt><trkpt lat="44.2772654" lon="10.7455651"><ele>677.8000000000001</ele><time>2026-04-18T10:57:41.965Z</time></trkpt><trkpt lat="44.2771679" lon="10.7456132"><ele>679.0</ele><time>2026-04-18T10:57:42.964Z</time></trkpt><trkpt lat="44.277057" lon="10.7456824"><ele>681.0</ele><time>2026-04-18T10:57:43.964Z</time></trkpt><trkpt lat="44.2769461" lon="10.7457454"><ele>683.0</ele><time>2026-04-18T10:57:44.965Z</time></trkpt><trkpt lat="44.2768445" lon="10.7458077"><ele>685.0</ele><time>2026-04-18T10:57:45.964Z</time></trkpt><trkpt lat="44.2767666" lon="10.7458665"><ele>687.0</ele><time>2026-04-18T10:57:46.965Z</time></trkpt><trkpt lat="44.2767105" lon="10.7459079"><ele>689.0</ele><time>2026-04-18T10:57:47.965Z</time></trkpt><trkpt lat="44.2766365" lon="10.745953"><ele>689.0</ele><time>2026-04-18T10:57:49.964Z</time></trkpt><trkpt lat="44.2765737" lon="10.7458976"><ele>689.0</ele><time>2026-04-18T10:57:51.964Z</time></trkpt><trkpt lat="44.2764939" lon="10.7457349"><ele>689.0</ele><time>2026-04-18T10:57:53.964Z</time></trkpt><trkpt lat="44.276453" lon="10.7456237"><ele>689.0</ele><time>2026-04-18T10:57:54.964Z</time></trkpt><trkpt lat="44.2764168" lon="10.7454973"><ele>689.0</ele><time>2026-04-18T10:57:55.965Z</time></trkpt><trkpt lat="44.2764019" lon="10.7453438"><ele>690.0</ele><time>2026-04-18T10:57:56.964Z</time></trkpt><trkpt lat="44.2763742" lon="10.7451884"><ele>691.0</ele><time>2026-04-18T10:57:57.964Z</time></trkpt><trkpt lat="44.276342" lon="10.7450273"><ele>692.0</ele><time>2026-04-18T10:57:58.965Z</time></trkpt><trkpt lat="44.2763026" lon="10.7448579"><ele>693.0</ele><time>2026-04-18T10:57:59.965Z</time></trkpt><trkpt lat="44.2762579" lon="10.7446878"><ele>693.0</ele><time>2026-04-18T10:58:00.964Z</time></trkpt><trkpt lat="44.2762149" lon="10.7445226"><ele>693.0</ele><time>2026-04-18T10:58:01.965Z</time></trkpt><trkpt lat="44.2761793" lon="10.7443658"><ele>693.0</ele><time>2026-04-18T10:58:02.965Z</time></trkpt><trkpt lat="44.2761431" lon="10.7442049"><ele>693.0</ele><time>2026-04-18T10:58:03.964Z</time></trkpt><trkpt lat="44.2761069" lon="10.7440499"><ele>692.5999999999999</ele><time>2026-04-18T10:58:04.964Z</time></trkpt><trkpt lat="44.2760774" lon="10.7439004"><ele>692.1999999999999</ele><time>2026-04-18T10:58:05.965Z</time></trkpt><trkpt lat="44.2760501" lon="10.7437636"><ele>691.8</ele><time>2026-04-18T10:58:06.965Z</time></trkpt><trkpt lat="44.2760267" lon="10.7436248"><ele>691.4</ele><time>2026-04-18T10:58:07.964Z</time></trkpt><trkpt lat="44.2760083" lon="10.7434956"><ele>691.0</ele><time>2026-04-18T10:58:08.964Z</time></trkpt><trkpt lat="44.2759885" lon="10.7433858"><ele>691.0</ele><time>2026-04-18T10:58:09.964Z</time></trkpt><trkpt lat="44.2759576" lon="10.7432821"><ele>691.0</ele><time>2026-04-18T10:58:10.965Z</time></trkpt><trkpt lat="44.2759249" lon="10.7431785"><ele>691.0</ele><time>2026-04-18T10:58:11.965Z</time></trkpt><trkpt lat="44.2758656" lon="10.743073"><ele>691.0</ele><time>2026-04-18T10:58:12.965Z</time></trkpt><trkpt lat="44.2758176" lon="10.7429659"><ele>691.0</ele><time>2026-04-18T10:58:13.964Z</time></trkpt><trkpt lat="44.2757662" lon="10.7428568"><ele>691.0</ele><time>2026-04-18T10:58:14.964Z</time></trkpt><trkpt lat="44.2757184" lon="10.7427448"><ele>691.5999999999999</ele><time>2026-04-18T10:58:15.964Z</time></trkpt><trkpt lat="44.275675" lon="10.742622"><ele>692.2</ele><time>2026-04-18T10:58:16.965Z</time></trkpt><trkpt lat="44.2756277" lon="10.742491"><ele>692.8</ele><time>2026-04-18T10:58:17.964Z</time></trkpt><trkpt lat="44.2755796" lon="10.7423659"><ele>693.4000000000001</ele><time>2026-04-18T10:58:18.964Z</time></trkpt><trkpt lat="44.2755301" lon="10.74226"><ele>694.0</ele><time>2026-04-18T10:58:19.964Z</time></trkpt><trkpt lat="44.2754615" lon="10.7421689"><ele>694.0</ele><time>2026-04-18T10:58:20.965Z</time></trkpt><trkpt lat="44.2753729" lon="10.7420974"><ele>694.0</ele><time>2026-04-18T10:58:21.964Z</time></trkpt><trkpt lat="44.2752906" lon="10.7420258"><ele>694.0</ele><time>2026-04-18T10:58:22.964Z</time></trkpt><trkpt lat="44.2752206" lon="10.7419227"><ele>694.0</ele><time>2026-04-18T10:58:23.964Z</time></trkpt><trkpt lat="44.2751546" lon="10.7417987"><ele>694.0</ele><time>2026-04-18T10:58:24.964Z</time></trkpt><trkpt lat="44.275082" lon="10.741666"><ele>694.2</ele><time>2026-04-18T10:58:25.965Z</time></trkpt><trkpt lat="44.2749928" lon="10.741549"><ele>694.4000000000001</ele><time>2026-04-18T10:58:26.964Z</time></trkpt><trkpt lat="44.2749005" lon="10.741439"><ele>694.6</ele><time>2026-04-18T10:58:27.965Z</time></trkpt><trkpt lat="44.2748121" lon="10.7413459"><ele>694.8</ele><time>2026-04-18T10:58:28.965Z</time></trkpt><trkpt lat="44.2747379" lon="10.7412796"><ele>695.0</ele><time>2026-04-18T10:58:29.964Z</time></trkpt><trkpt lat="44.2746638" lon="10.7412173"><ele>695.0</ele><time>2026-04-18T10:58:30.965Z</time></trkpt><trkpt lat="44.2745789" lon="10.7411665"><ele>695.0</ele><time>2026-04-18T10:58:31.965Z</time></trkpt><trkpt lat="44.2744809" lon="10.7411137"><ele>695.0</ele><time>2026-04-18T10:58:32.964Z</time></trkpt><trkpt lat="44.2743782" lon="10.7410584"><ele>695.0</ele><time>2026-04-18T10:58:33.965Z</time></trkpt><trkpt lat="44.2742744" lon="10.7409901"><ele>695.0</ele><time>2026-04-18T10:58:34.964Z</time></trkpt><trkpt lat="44.2741733" lon="10.740907"><ele>693.8</ele><time>2026-04-18T10:58:35.964Z</time></trkpt><trkpt lat="44.2740784" lon="10.7408182"><ele>692.6</ele><time>2026-04-18T10:58:36.965Z</time></trkpt><trkpt lat="44.2739794" lon="10.7407281"><ele>691.4000000000001</ele><time>2026-04-18T10:58:37.964Z</time></trkpt><trkpt lat="44.2739045" lon="10.7406445"><ele>690.2</ele><time>2026-04-18T10:58:38.965Z</time></trkpt><trkpt lat="44.2738272" lon="10.7405574"><ele>689.0</ele><time>2026-04-18T10:58:39.964Z</time></trkpt><trkpt lat="44.2737574" lon="10.7404728"><ele>689.0</ele><time>2026-04-18T10:58:40.964Z</time></trkpt><trkpt lat="44.2736959" lon="10.7404085"><ele>689.0</ele><time>2026-04-18T10:58:41.965Z</time></trkpt><trkpt lat="44.2736324" lon="10.7403504"><ele>689.0</ele><time>2026-04-18T10:58:42.965Z</time></trkpt><trkpt lat="44.2735573" lon="10.7403207"><ele>689.0</ele><time>2026-04-18T10:58:43.965Z</time></trkpt><trkpt lat="44.2734763" lon="10.7403146"><ele>689.0</ele><time>2026-04-18T10:58:44.965Z</time></trkpt><trkpt lat="44.2733886" lon="10.7403318"><ele>689.0</ele><time>2026-04-18T10:58:45.965Z</time></trkpt><trkpt lat="44.2732978" lon="10.7403346"><ele>689.0</ele><time>2026-04-18T10:58:46.964Z</time></trkpt><trkpt lat="44.2732105" lon="10.7403334"><ele>689.0</ele><time>2026-04-18T10:58:47.965Z</time></trkpt><trkpt lat="44.2731274" lon="10.7402904"><ele>689.0</ele><time>2026-04-18T10:58:48.964Z</time></trkpt><trkpt lat="44.2730546" lon="10.7402283"><ele>689.0</ele><time>2026-04-18T10:58:49.965Z</time></trkpt><trkpt lat="44.2729862" lon="10.7401447"><ele>689.0</ele><time>2026-04-18T10:58:50.965Z</time></trkpt><trkpt lat="44.2729225" lon="10.7400592"><ele>689.0</ele><time>2026-04-18T10:58:51.964Z</time></trkpt><trkpt lat="44.2728654" lon="10.7399506"><ele>689.0</ele><time>2026-04-18T10:58:52.964Z</time></trkpt><trkpt lat="44.2728" lon="10.7398701"><ele>689.0</ele><time>2026-04-18T10:58:53.964Z</time></trkpt><trkpt lat="44.2727202" lon="10.7398077"><ele>689.0</ele><time>2026-04-18T10:58:54.965Z</time></trkpt><trkpt lat="44.272651" lon="10.7397276"><ele>689.0</ele><time>2026-04-18T10:58:55.964Z</time></trkpt><trkpt lat="44.2726123" lon="10.7396367"><ele>689.0</ele><time>2026-04-18T10:58:56.964Z</time></trkpt><trkpt lat="44.2726045" lon="10.7395401"><ele>689.0</ele><time>2026-04-18T10:58:57.964Z</time></trkpt><trkpt lat="44.2726163" lon="10.7394326"><ele>687.3333333333333</ele><time>2026-04-18T10:58:58.965Z</time></trkpt><trkpt lat="44.2726216" lon="10.7393227"><ele>685.6666666666666</ele><time>2026-04-18T10:58:59.964Z</time></trkpt><trkpt lat="44.2726022" lon="10.7392101"><ele>684.0</ele><time>2026-04-18T10:59:00.965Z</time></trkpt><trkpt lat="44.2725844" lon="10.7391107"><ele>682.3333333333334</ele><time>2026-04-18T10:59:01.964Z</time></trkpt><trkpt lat="44.2725198" lon="10.7390447"><ele>680.6666666666667</ele><time>2026-04-18T10:59:02.965Z</time></trkpt><trkpt lat="44.2724244" lon="10.7389455"><ele>679.0</ele><time>2026-04-18T10:59:04.964Z</time></trkpt><trkpt lat="44.2723317" lon="10.7388985"><ele>679.1666666666667</ele><time>2026-04-18T10:59:06.965Z</time></trkpt><trkpt lat="44.2722193" lon="10.7389002"><ele>679.3333333333334</ele><time>2026-04-18T10:59:08.964Z</time></trkpt><trkpt lat="44.2721549" lon="10.7389332"><ele>679.5</ele><time>2026-04-18T10:59:09.964Z</time></trkpt><trkpt lat="44.2720935" lon="10.7389658"><ele>679.6666666666666</ele><time>2026-04-18T10:59:10.965Z</time></trkpt><trkpt lat="44.2720187" lon="10.739017"><ele>679.8333333333333</ele><time>2026-04-18T10:59:11.964Z</time></trkpt><trkpt lat="44.271946" lon="10.7390231"><ele>680.0</ele><time>2026-04-18T10:59:12.965Z</time></trkpt><trkpt lat="44.2718768" lon="10.7390082"><ele>680.0</ele><time>2026-04-18T10:59:13.964Z</time></trkpt><trkpt lat="44.2718181" lon="10.7389487"><ele>680.0</ele><time>2026-04-18T10:59:14.964Z</time></trkpt><trkpt lat="44.2717551" lon="10.7388675"><ele>680.0</ele><time>2026-04-18T10:59:15.964Z</time></trkpt><trkpt lat="44.2716814" lon="10.7387713"><ele>680.0</ele><time>2026-04-18T10:59:16.965Z</time></trkpt><trkpt lat="44.2715979" lon="10.7386745"><ele>680.0</ele><time>2026-04-18T10:59:17.964Z</time></trkpt><trkpt lat="44.2715097" lon="10.7385945"><ele>681.6</ele><time>2026-04-18T10:59:18.964Z</time></trkpt><trkpt lat="44.2714274" lon="10.7384943"><ele>683.2</ele><time>2026-04-18T10:59:19.964Z</time></trkpt><trkpt lat="44.2713662" lon="10.7383702"><ele>684.8</ele><time>2026-04-18T10:59:20.964Z</time></trkpt><trkpt lat="44.2713064" lon="10.7382555"><ele>686.4</ele><time>2026-04-18T10:59:21.964Z</time></trkpt><trkpt lat="44.2712499" lon="10.7381422"><ele>688.0</ele><time>2026-04-18T10:59:22.964Z</time></trkpt><trkpt lat="44.2712053" lon="10.7380346"><ele>688.0</ele><time>2026-04-18T10:59:23.964Z</time></trkpt><trkpt lat="44.2711613" lon="10.7378926"><ele>688.0</ele><time>2026-04-18T10:59:24.964Z</time></trkpt><trkpt lat="44.2711195" lon="10.7377421"><ele>688.0</ele><time>2026-04-18T10:59:25.965Z</time></trkpt><trkpt lat="44.2710766" lon="10.7375859"><ele>688.0</ele><time>2026-04-18T10:59:26.964Z</time></trkpt><trkpt lat="44.2710279" lon="10.7374165"><ele>686.4</ele><time>2026-04-18T10:59:27.964Z</time></trkpt><trkpt lat="44.271006" lon="10.7372688"><ele>684.8</ele><time>2026-04-18T10:59:28.964Z</time></trkpt><trkpt lat="44.2710006" lon="10.7371255"><ele>683.2</ele><time>2026-04-18T10:59:29.965Z</time></trkpt><trkpt lat="44.2709956" lon="10.7370043"><ele>681.6</ele><time>2026-04-18T10:59:30.965Z</time></trkpt><trkpt lat="44.2709917" lon="10.7368948"><ele>680.0</ele><time>2026-04-18T10:59:31.964Z</time></trkpt><trkpt lat="44.2709759" lon="10.736792"><ele>679.6666666666666</ele><time>2026-04-18T10:59:32.965Z</time></trkpt><trkpt lat="44.2709453" lon="10.7367013"><ele>679.3333333333333</ele><time>2026-04-18T10:59:33.964Z</time></trkpt><trkpt lat="44.2708928" lon="10.7366286"><ele>679.0</ele><time>2026-04-18T10:59:34.964Z</time></trkpt><trkpt lat="44.2708286" lon="10.7365577"><ele>678.6666666666666</ele><time>2026-04-18T10:59:35.965Z</time></trkpt><trkpt lat="44.270732" lon="10.7364968"><ele>678.3333333333334</ele><time>2026-04-18T10:59:36.965Z</time></trkpt><trkpt lat="44.2706459" lon="10.7364335"><ele>678.0</ele><time>2026-04-18T10:59:37.964Z</time></trkpt><trkpt lat="44.2705514" lon="10.7363711"><ele>678.0</ele><time>2026-04-18T10:59:38.965Z</time></trkpt><trkpt lat="44.2704686" lon="10.7363143"><ele>678.0</ele><time>2026-04-18T10:59:39.964Z</time></trkpt><trkpt lat="44.2703847" lon="10.7362618"><ele>678.0</ele><time>2026-04-18T10:59:40.964Z</time></trkpt><trkpt lat="44.2702991" lon="10.7362046"><ele>678.0</ele><time>2026-04-18T10:59:41.965Z</time></trkpt><trkpt lat="44.2702056" lon="10.736147"><ele>678.0</ele><time>2026-04-18T10:59:42.964Z</time></trkpt><trkpt lat="44.2701166" lon="10.7360916"><ele>675.0</ele><time>2026-04-18T10:59:43.964Z</time></trkpt><trkpt lat="44.2700322" lon="10.7360331"><ele>672.0</ele><time>2026-04-18T10:59:44.964Z</time></trkpt><trkpt lat="44.2699456" lon="10.7360146"><ele>669.0</ele><time>2026-04-18T10:59:45.964Z</time></trkpt><trkpt lat="44.2698515" lon="10.7360051"><ele>666.0</ele><time>2026-04-18T10:59:46.965Z</time></trkpt><trkpt lat="44.2697456" lon="10.7360053"><ele>663.0</ele><time>2026-04-18T10:59:47.964Z</time></trkpt><trkpt lat="44.2696313" lon="10.7360155"><ele>663.0</ele><time>2026-04-18T10:59:48.965Z</time></trkpt><trkpt lat="44.2695141" lon="10.736035"><ele>663.0</ele><time>2026-04-18T10:59:49.965Z</time></trkpt><trkpt lat="44.2693916" lon="10.7360364"><ele>663.0</ele><time>2026-04-18T10:59:50.964Z</time></trkpt><trkpt lat="44.2692756" lon="10.7360356"><ele>663.0</ele><time>2026-04-18T10:59:51.964Z</time></trkpt><trkpt lat="44.2691769" lon="10.7360388"><ele>663.0</ele><time>2026-04-18T10:59:52.964Z</time></trkpt><trkpt lat="44.269091" lon="10.7360546"><ele>663.0</ele><time>2026-04-18T10:59:53.964Z</time></trkpt><trkpt lat="44.2690159" lon="10.736057"><ele>663.0</ele><time>2026-04-18T10:59:54.965Z</time></trkpt><trkpt lat="44.2689555" lon="10.7360059"><ele>663.0</ele><time>2026-04-18T10:59:55.964Z</time></trkpt><trkpt lat="44.2688787" lon="10.7359399"><ele>663.0</ele><time>2026-04-18T10:59:56.964Z</time></trkpt><trkpt lat="44.2688012" lon="10.7358444"><ele>663.0</ele><time>2026-04-18T10:59:57.964Z</time></trkpt><trkpt lat="44.2687253" lon="10.7357597"><ele>663.8</ele><time>2026-04-18T10:59:58.964Z</time></trkpt><trkpt lat="44.2686317" lon="10.7356945"><ele>664.5999999999999</ele><time>2026-04-18T10:59:59.964Z</time></trkpt><trkpt lat="44.2685321" lon="10.7356059"><ele>665.4000000000001</ele><time>2026-04-18T11:00:00.964Z</time></trkpt><trkpt lat="44.2684328" lon="10.7355263"><ele>666.2</ele><time>2026-04-18T11:00:01.965Z</time></trkpt><trkpt lat="44.2683288" lon="10.7354745"><ele>667.0</ele><time>2026-04-18T11:00:02.965Z</time></trkpt><trkpt lat="44.2682293" lon="10.7354118"><ele>667.0</ele><time>2026-04-18T11:00:03.965Z</time></trkpt><trkpt lat="44.2681276" lon="10.7353676"><ele>667.0</ele><time>2026-04-18T11:00:04.964Z</time></trkpt><trkpt lat="44.2680314" lon="10.7353265"><ele>667.0</ele><time>2026-04-18T11:00:05.964Z</time></trkpt><trkpt lat="44.2679332" lon="10.7353201"><ele>667.0</ele><time>2026-04-18T11:00:06.964Z</time></trkpt><trkpt lat="44.2678488" lon="10.7352993"><ele>667.0</ele><time>2026-04-18T11:00:07.965Z</time></trkpt><trkpt lat="44.2677705" lon="10.7352573"><ele>666.4000000000001</ele><time>2026-04-18T11:00:08.965Z</time></trkpt><trkpt lat="44.267699" lon="10.7352008"><ele>665.8000000000001</ele><time>2026-04-18T11:00:09.965Z</time></trkpt><trkpt lat="44.2676501" lon="10.7350919"><ele>665.2</ele><time>2026-04-18T11:00:10.965Z</time></trkpt><trkpt lat="44.267587" lon="10.7349779"><ele>664.6</ele><time>2026-04-18T11:00:11.964Z</time></trkpt><trkpt lat="44.2675305" lon="10.7348664"><ele>664.0</ele><time>2026-04-18T11:00:12.965Z</time></trkpt><trkpt lat="44.2674756" lon="10.7347586"><ele>664.0</ele><time>2026-04-18T11:00:13.964Z</time></trkpt><trkpt lat="44.2674041" lon="10.7346494"><ele>664.0</ele><time>2026-04-18T11:00:14.964Z</time></trkpt><trkpt lat="44.2673325" lon="10.7345355"><ele>664.0</ele><time>2026-04-18T11:00:15.965Z</time></trkpt><trkpt lat="44.2672742" lon="10.734411"><ele>664.0</ele><time>2026-04-18T11:00:16.965Z</time></trkpt><trkpt lat="44.2672383" lon="10.7342832"><ele>664.0</ele><time>2026-04-18T11:00:17.964Z</time></trkpt><trkpt lat="44.2672096" lon="10.7341321"><ele>666.25</ele><time>2026-04-18T11:00:18.965Z</time></trkpt><trkpt lat="44.2671802" lon="10.7339796"><ele>668.5</ele><time>2026-04-18T11:00:19.964Z</time></trkpt><trkpt lat="44.2671733" lon="10.7338067"><ele>670.75</ele><time>2026-04-18T11:00:20.964Z</time></trkpt><trkpt lat="44.2671732" lon="10.7336344"><ele>673.0</ele><time>2026-04-18T11:00:21.965Z</time></trkpt><trkpt lat="44.2671825" lon="10.7334653"><ele>673.0</ele><time>2026-04-18T11:00:22.964Z</time></trkpt><trkpt lat="44.2671969" lon="10.7333027"><ele>673.0</ele><time>2026-04-18T11:00:23.964Z</time></trkpt><trkpt lat="44.2672223" lon="10.7331789"><ele>673.0</ele><time>2026-04-18T11:00:24.964Z</time></trkpt><trkpt lat="44.2672458" lon="10.7330666"><ele>673.0</ele><time>2026-04-18T11:00:25.965Z</time></trkpt><trkpt lat="44.2672806" lon="10.7329644"><ele>673.0</ele><time>2026-04-18T11:00:26.964Z</time></trkpt><trkpt lat="44.2673094" lon="10.7328701"><ele>673.0</ele><time>2026-04-18T11:00:27.965Z</time></trkpt><trkpt lat="44.2673201" lon="10.7327814"><ele>670.8</ele><time>2026-04-18T11:00:28.964Z</time></trkpt><trkpt lat="44.2673249" lon="10.732684"><ele>668.5999999999999</ele><time>2026-04-18T11:00:29.965Z</time></trkpt><trkpt lat="44.2673041" lon="10.7325718"><ele>666.4000000000001</ele><time>2026-04-18T11:00:30.964Z</time></trkpt><trkpt lat="44.2672788" lon="10.7324418"><ele>664.2</ele><time>2026-04-18T11:00:31.965Z</time></trkpt><trkpt lat="44.2672477" lon="10.7323155"><ele>662.0</ele><time>2026-04-18T11:00:32.965Z</time></trkpt><trkpt lat="44.2672067" lon="10.732181"><ele>662.0</ele><time>2026-04-18T11:00:33.964Z</time></trkpt><trkpt lat="44.2671488" lon="10.732045"><ele>662.0</ele><time>2026-04-18T11:00:34.965Z</time></trkpt><trkpt lat="44.2670771" lon="10.731914"><ele>662.0</ele><time>2026-04-18T11:00:35.964Z</time></trkpt><trkpt lat="44.2669991" lon="10.7318056"><ele>662.0</ele><time>2026-04-18T11:00:36.965Z</time></trkpt><trkpt lat="44.2669202" lon="10.731722"><ele>662.0</ele><time>2026-04-18T11:00:37.964Z</time></trkpt><trkpt lat="44.2668369" lon="10.7316413"><ele>659.6</ele><time>2026-04-18T11:00:38.965Z</time></trkpt><trkpt lat="44.266748" lon="10.7315699"><ele>657.2</ele><time>2026-04-18T11:00:39.964Z</time></trkpt><trkpt lat="44.2666471" lon="10.7315117"><ele>654.8</ele><time>2026-04-18T11:00:40.965Z</time></trkpt><trkpt lat="44.2665446" lon="10.7314628"><ele>652.4</ele><time>2026-04-18T11:00:41.964Z</time></trkpt><trkpt lat="44.266449" lon="10.7314166"><ele>650.0</ele><time>2026-04-18T11:00:42.965Z</time></trkpt><trkpt lat="44.2663487" lon="10.7313775"><ele>650.0</ele><time>2026-04-18T11:00:43.965Z</time></trkpt><trkpt lat="44.2662385" lon="10.7313652"><ele>650.0</ele><time>2026-04-18T11:00:44.964Z</time></trkpt><trkpt lat="44.2661179" lon="10.7313526"><ele>650.0</ele><time>2026-04-18T11:00:45.964Z</time></trkpt><trkpt lat="44.2659982" lon="10.7313336"><ele>650.0</ele><time>2026-04-18T11:00:46.964Z</time></trkpt><trkpt lat="44.2658888" lon="10.7313077"><ele>650.0</ele><time>2026-04-18T11:00:47.964Z</time></trkpt><trkpt lat="44.2657789" lon="10.7312736"><ele>650.0</ele><time>2026-04-18T11:00:48.965Z</time></trkpt><trkpt lat="44.2656853" lon="10.7312311"><ele>650.0</ele><time>2026-04-18T11:00:49.964Z</time></trkpt><trkpt lat="44.2655823" lon="10.7312124"><ele>650.0</ele><time>2026-04-18T11:00:50.964Z</time></trkpt><trkpt lat="44.2654824" lon="10.731203"><ele>650.0</ele><time>2026-04-18T11:00:51.965Z</time></trkpt><trkpt lat="44.2653843" lon="10.7311788"><ele>650.3333333333333</ele><time>2026-04-18T11:00:52.964Z</time></trkpt><trkpt lat="44.2652955" lon="10.7311214"><ele>650.6666666666666</ele><time>2026-04-18T11:00:53.964Z</time></trkpt><trkpt lat="44.2652108" lon="10.7310473"><ele>651.0</ele><time>2026-04-18T11:00:54.965Z</time></trkpt><trkpt lat="44.2651331" lon="10.7309867"><ele>651.3333333333334</ele><time>2026-04-18T11:00:55.965Z</time></trkpt><trkpt lat="44.265065" lon="10.7309244"><ele>651.6666666666667</ele><time>2026-04-18T11:00:56.965Z</time></trkpt><trkpt lat="44.2650094" lon="10.7308512"><ele>652.0</ele><time>2026-04-18T11:00:57.965Z</time></trkpt><trkpt lat="44.2649712" lon="10.730762"><ele>651.8333333333334</ele><time>2026-04-18T11:00:58.964Z</time></trkpt><trkpt lat="44.2649374" lon="10.7306638"><ele>651.6666666666667</ele><time>2026-04-18T11:00:59.964Z</time></trkpt><trkpt lat="44.2648916" lon="10.7305635"><ele>651.5</ele><time>2026-04-18T11:01:00.964Z</time></trkpt><trkpt lat="44.2648352" lon="10.7304673"><ele>651.3333333333334</ele><time>2026-04-18T11:01:01.964Z</time></trkpt><trkpt lat="44.2647731" lon="10.7303794"><ele>651.1666666666666</ele><time>2026-04-18T11:01:02.964Z</time></trkpt><trkpt lat="44.2647106" lon="10.7303036"><ele>651.0</ele><time>2026-04-18T11:01:03.965Z</time></trkpt><trkpt lat="44.2646517" lon="10.7302286"><ele>649.1999999999999</ele><time>2026-04-18T11:01:04.964Z</time></trkpt><trkpt lat="44.2645953" lon="10.7301525"><ele>647.4</ele><time>2026-04-18T11:01:05.964Z</time></trkpt><trkpt lat="44.26454" lon="10.7300605"><ele>645.6</ele><time>2026-04-18T11:01:06.964Z</time></trkpt><trkpt lat="44.264478" lon="10.729961"><ele>643.8</ele><time>2026-04-18T11:01:07.964Z</time></trkpt><trkpt lat="44.2644133" lon="10.7298544"><ele>642.0</ele><time>2026-04-18T11:01:08.965Z</time></trkpt><trkpt lat="44.2643571" lon="10.7297518"><ele>642.0</ele><time>2026-04-18T11:01:09.964Z</time></trkpt><trkpt lat="44.2643084" lon="10.7296481"><ele>642.0</ele><time>2026-04-18T11:01:10.964Z</time></trkpt><trkpt lat="44.2642554" lon="10.7295509"><ele>642.0</ele><time>2026-04-18T11:01:11.964Z</time></trkpt><trkpt lat="44.2642016" lon="10.7294496"><ele>642.0</ele><time>2026-04-18T11:01:12.964Z</time></trkpt><trkpt lat="44.2641452" lon="10.7293472"><ele>642.0</ele><time>2026-04-18T11:01:13.965Z</time></trkpt><trkpt lat="44.2640877" lon="10.7292521"><ele>642.0</ele><time>2026-04-18T11:01:14.965Z</time></trkpt><trkpt lat="44.264027" lon="10.7291584"><ele>641.4</ele><time>2026-04-18T11:01:15.964Z</time></trkpt><trkpt lat="44.2639674" lon="10.7290631"><ele>640.8000000000001</ele><time>2026-04-18T11:01:16.964Z</time></trkpt><trkpt lat="44.2639024" lon="10.7289613"><ele>640.2</ele><time>2026-04-18T11:01:17.965Z</time></trkpt><trkpt lat="44.2638385" lon="10.7288543"><ele>639.6</ele><time>2026-04-18T11:01:18.964Z</time></trkpt><trkpt lat="44.2637712" lon="10.7287499"><ele>639.0</ele><time>2026-04-18T11:01:19.964Z</time></trkpt><trkpt lat="44.2637002" lon="10.7286552"><ele>636.4</ele><time>2026-04-18T11:01:20.964Z</time></trkpt><trkpt lat="44.2636406" lon="10.7285588"><ele>633.8</ele><time>2026-04-18T11:01:21.965Z</time></trkpt><trkpt lat="44.2635838" lon="10.7284558"><ele>631.2</ele><time>2026-04-18T11:01:22.965Z</time></trkpt><trkpt lat="44.2635284" lon="10.7283584"><ele>628.6</ele><time>2026-04-18T11:01:23.963Z</time></trkpt><trkpt lat="44.2634677" lon="10.7282536"><ele>626.0</ele><time>2026-04-18T11:01:24.965Z</time></trkpt><trkpt lat="44.2634073" lon="10.728156"><ele>626.0</ele><time>2026-04-18T11:01:25.964Z</time></trkpt><trkpt lat="44.2633495" lon="10.7280597"><ele>626.0</ele><time>2026-04-18T11:01:26.964Z</time></trkpt><trkpt lat="44.2633023" lon="10.7279526"><ele>626.0</ele><time>2026-04-18T11:01:27.965Z</time></trkpt><trkpt lat="44.2632606" lon="10.7278432"><ele>626.0</ele><time>2026-04-18T11:01:28.964Z</time></trkpt><trkpt lat="44.263238" lon="10.7277077"><ele>626.0</ele><time>2026-04-18T11:01:29.965Z</time></trkpt><trkpt lat="44.2632104" lon="10.7275914"><ele>624.5</ele><time>2026-04-18T11:01:30.965Z</time></trkpt><trkpt lat="44.263176" lon="10.727501"><ele>623.0</ele><time>2026-04-18T11:01:31.965Z</time></trkpt><trkpt lat="44.263179" lon="10.7273246"><ele>621.5</ele><time>2026-04-18T11:01:33.964Z</time></trkpt><trkpt lat="44.2632168" lon="10.7272504"><ele>620.0</ele><time>2026-04-18T11:01:34.964Z</time></trkpt><trkpt lat="44.2632722" lon="10.7272034"><ele>618.5</ele><time>2026-04-18T11:01:35.964Z</time></trkpt><trkpt lat="44.2633515" lon="10.7271807"><ele>617.0</ele><time>2026-04-18T11:01:36.965Z</time></trkpt><trkpt lat="44.2634271" lon="10.7271432"><ele>617.0</ele><time>2026-04-18T11:01:37.965Z</time></trkpt><trkpt lat="44.2634945" lon="10.7270829"><ele>617.0</ele><time>2026-04-18T11:01:38.965Z</time></trkpt><trkpt lat="44.2635636" lon="10.7270149"><ele>617.0</ele><time>2026-04-18T11:01:39.965Z</time></trkpt><trkpt lat="44.2636226" lon="10.7269273"><ele>617.0</ele><time>2026-04-18T11:01:40.964Z</time></trkpt><trkpt lat="44.2636939" lon="10.7268588"><ele>617.0</ele><time>2026-04-18T11:01:41.965Z</time></trkpt><trkpt lat="44.2637546" lon="10.7267958"><ele>617.0</ele><time>2026-04-18T11:01:42.964Z</time></trkpt><trkpt lat="44.2637964" lon="10.7267241"><ele>616.6666666666666</ele><time>2026-04-18T11:01:43.964Z</time></trkpt><trkpt lat="44.2638222" lon="10.7266398"><ele>616.3333333333333</ele><time>2026-04-18T11:01:44.965Z</time></trkpt><trkpt lat="44.2638455" lon="10.7265361"><ele>616.0</ele><time>2026-04-18T11:01:45.964Z</time></trkpt><trkpt lat="44.2638715" lon="10.7264155"><ele>615.6666666666666</ele><time>2026-04-18T11:01:46.965Z</time></trkpt><trkpt lat="44.2638906" lon="10.7263017"><ele>615.3333333333334</ele><time>2026-04-18T11:01:47.965Z</time></trkpt><trkpt lat="44.2638994" lon="10.7261867"><ele>615.0</ele><time>2026-04-18T11:01:48.965Z</time></trkpt><trkpt lat="44.2638912" lon="10.7260672"><ele>614.3333333333334</ele><time>2026-04-18T11:01:49.964Z</time></trkpt><trkpt lat="44.2638653" lon="10.7259466"><ele>613.6666666666666</ele><time>2026-04-18T11:01:50.965Z</time></trkpt><trkpt lat="44.2638361" lon="10.7258375"><ele>613.0</ele><time>2026-04-18T11:01:51.964Z</time></trkpt><trkpt lat="44.2638049" lon="10.725735"><ele>612.3333333333333</ele><time>2026-04-18T11:01:52.965Z</time></trkpt><trkpt lat="44.2637752" lon="10.7256271"><ele>611.6666666666666</ele><time>2026-04-18T11:01:53.965Z</time></trkpt><trkpt lat="44.2637517" lon="10.7255299"><ele>611.0</ele><time>2026-04-18T11:01:54.964Z</time></trkpt><trkpt lat="44.2637439" lon="10.7254348"><ele>611.0</ele><time>2026-04-18T11:01:55.964Z</time></trkpt><trkpt lat="44.2637452" lon="10.7252928"><ele>611.0</ele><time>2026-04-18T11:01:57.965Z</time></trkpt><trkpt lat="44.2637195" lon="10.7251497"><ele>611.0</ele><time>2026-04-18T11:01:59.964Z</time></trkpt><trkpt lat="44.263679" lon="10.7250004"><ele>611.0</ele><time>2026-04-18T11:02:01.965Z</time></trkpt><trkpt lat="44.2636665" lon="10.7249119"><ele>611.0</ele><time>2026-04-18T11:02:02.965Z</time></trkpt><trkpt lat="44.26364" lon="10.7247465"><ele>610.0000000000001</ele><time>2026-04-18T11:02:04.965Z</time></trkpt><trkpt lat="44.2636253" lon="10.7246553"><ele>609.0</ele><time>2026-04-18T11:02:05.964Z</time></trkpt><trkpt lat="44.2636176" lon="10.7245582"><ele>608.0</ele><time>2026-04-18T11:02:06.964Z</time></trkpt><trkpt lat="44.263591" lon="10.7244639"><ele>607.0</ele><time>2026-04-18T11:02:07.964Z</time></trkpt><trkpt lat="44.2635495" lon="10.7243745"><ele>606.0</ele><time>2026-04-18T11:02:08.964Z</time></trkpt><trkpt lat="44.2635138" lon="10.7242897"><ele>605.0000000000001</ele><time>2026-04-18T11:02:09.965Z</time></trkpt><trkpt lat="44.2634822" lon="10.7241877"><ele>604.0</ele><time>2026-04-18T11:02:10.964Z</time></trkpt><trkpt lat="44.2634614" lon="10.724061"><ele>601.4</ele><time>2026-04-18T11:02:11.965Z</time></trkpt><trkpt lat="44.2634392" lon="10.7239379"><ele>598.8</ele><time>2026-04-18T11:02:12.964Z</time></trkpt><trkpt lat="44.2634145" lon="10.7238172"><ele>596.2</ele><time>2026-04-18T11:02:13.964Z</time></trkpt><trkpt lat="44.263385" lon="10.7237097"><ele>593.6</ele><time>2026-04-18T11:02:14.964Z</time></trkpt><trkpt lat="44.2633144" lon="10.7236099"><ele>591.0</ele><time>2026-04-18T11:02:15.965Z</time></trkpt><trkpt lat="44.2632529" lon="10.723498"><ele>588.0</ele><time>2026-04-18T11:02:16.964Z</time></trkpt><trkpt lat="44.2631886" lon="10.7233938"><ele>585.0</ele><time>2026-04-18T11:02:17.964Z</time></trkpt><trkpt lat="44.2631218" lon="10.7233028"><ele>582.0</ele><time>2026-04-18T11:02:18.964Z</time></trkpt><trkpt lat="44.2630564" lon="10.7232161"><ele>579.0</ele><time>2026-04-18T11:02:19.964Z</time></trkpt><trkpt lat="44.2629903" lon="10.7231296"><ele>576.0</ele><time>2026-04-18T11:02:20.965Z</time></trkpt><trkpt lat="44.2629159" lon="10.7230652"><ele>576.0</ele><time>2026-04-18T11:02:21.965Z</time></trkpt><trkpt lat="44.2628402" lon="10.7230206"><ele>576.0</ele><time>2026-04-18T11:02:22.964Z</time></trkpt><trkpt lat="44.2627701" lon="10.7229829"><ele>576.0</ele><time>2026-04-18T11:02:23.964Z</time></trkpt><trkpt lat="44.2626855" lon="10.7229991"><ele>576.0</ele><time>2026-04-18T11:02:24.965Z</time></trkpt><trkpt lat="44.2625738" lon="10.7230171"><ele>576.0</ele><time>2026-04-18T11:02:26.965Z</time></trkpt><trkpt lat="44.2625449" lon="10.7229207"><ele>576.0</ele><time>2026-04-18T11:02:28.965Z</time></trkpt><trkpt lat="44.2626098" lon="10.7228374"><ele>576.0</ele><time>2026-04-18T11:02:30.965Z</time></trkpt><trkpt lat="44.2627337" lon="10.7227967"><ele>576.0</ele><time>2026-04-18T11:02:32.964Z</time></trkpt><trkpt lat="44.2628176" lon="10.7227621"><ele>576.0</ele><time>2026-04-18T11:02:33.964Z</time></trkpt><trkpt lat="44.2629174" lon="10.7227331"><ele>576.0</ele><time>2026-04-18T11:02:34.964Z</time></trkpt><trkpt lat="44.2630107" lon="10.7226856"><ele>576.0</ele><time>2026-04-18T11:02:35.965Z</time></trkpt><trkpt lat="44.2631" lon="10.7226266"><ele>572.0</ele><time>2026-04-18T11:02:36.964Z</time></trkpt><trkpt lat="44.2631693" lon="10.7225851"><ele>568.0</ele><time>2026-04-18T11:02:37.964Z</time></trkpt><trkpt lat="44.2632368" lon="10.7225522"><ele>564.0</ele><time>2026-04-18T11:02:38.965Z</time></trkpt><trkpt lat="44.2633351" lon="10.7225128"><ele>560.0</ele><time>2026-04-18T11:02:40.964Z</time></trkpt><trkpt lat="44.2633362" lon="10.7224126"><ele>556.0</ele><time>2026-04-18T11:02:42.964Z</time></trkpt><trkpt lat="44.2632795" lon="10.7223549"><ele>552.0</ele><time>2026-04-18T11:02:44.964Z</time></trkpt><trkpt lat="44.263154" lon="10.7223708"><ele>553.0</ele><time>2026-04-18T11:02:46.965Z</time></trkpt><trkpt lat="44.2630701" lon="10.722383"><ele>554.0</ele><time>2026-04-18T11:02:47.965Z</time></trkpt><trkpt lat="44.2630059" lon="10.722375"><ele>555.0</ele><time>2026-04-18T11:02:48.965Z</time></trkpt><trkpt lat="44.2629473" lon="10.7223356"><ele>556.0</ele><time>2026-04-18T11:02:49.964Z</time></trkpt><trkpt lat="44.2629095" lon="10.7222575"><ele>557.0</ele><time>2026-04-18T11:02:50.965Z</time></trkpt><trkpt lat="44.2628753" lon="10.7221655"><ele>558.0</ele><time>2026-04-18T11:02:51.965Z</time></trkpt><trkpt lat="44.2628814" lon="10.7220228"><ele>558.3333333333334</ele><time>2026-04-18T11:02:52.964Z</time></trkpt><trkpt lat="44.2629003" lon="10.7218891"><ele>558.6666666666666</ele><time>2026-04-18T11:02:53.964Z</time></trkpt><trkpt lat="44.2629391" lon="10.7217453"><ele>559.0</ele><time>2026-04-18T11:02:54.964Z</time></trkpt><trkpt lat="44.2629599" lon="10.7216295"><ele>559.3333333333333</ele><time>2026-04-18T11:02:55.964Z</time></trkpt><trkpt lat="44.2629648" lon="10.7215338"><ele>559.6666666666666</ele><time>2026-04-18T11:02:56.964Z</time></trkpt><trkpt lat="44.2629445" lon="10.7214347"><ele>560.0</ele><time>2026-04-18T11:02:57.964Z</time></trkpt><trkpt lat="44.2629057" lon="10.7213441"><ele>560.0</ele><time>2026-04-18T11:02:58.965Z</time></trkpt><trkpt lat="44.262854" lon="10.7212434"><ele>560.0</ele><time>2026-04-18T11:02:59.964Z</time></trkpt><trkpt lat="44.2628147" lon="10.7211264"><ele>560.0</ele><time>2026-04-18T11:03:00.965Z</time></trkpt><trkpt lat="44.2628054" lon="10.7209954"><ele>560.0</ele><time>2026-04-18T11:03:01.965Z</time></trkpt><trkpt lat="44.262796" lon="10.7208586"><ele>560.0</ele><time>2026-04-18T11:03:02.964Z</time></trkpt><trkpt lat="44.2628162" lon="10.7207367"><ele>560.1666666666666</ele><time>2026-04-18T11:03:03.965Z</time></trkpt><trkpt lat="44.2628278" lon="10.7206219"><ele>560.3333333333333</ele><time>2026-04-18T11:03:04.965Z</time></trkpt><trkpt lat="44.2628321" lon="10.7205103"><ele>560.5</ele><time>2026-04-18T11:03:05.964Z</time></trkpt><trkpt lat="44.2628303" lon="10.7204166"><ele>560.6666666666666</ele><time>2026-04-18T11:03:06.964Z</time></trkpt><trkpt lat="44.2628113" lon="10.7202519"><ele>560.8333333333334</ele><time>2026-04-18T11:03:08.965Z</time></trkpt><trkpt lat="44.2627705" lon="10.7201631"><ele>561.0</ele><time>2026-04-18T11:03:09.964Z</time></trkpt><trkpt lat="44.2627372" lon="10.7200685"><ele>561.0</ele><time>2026-04-18T11:03:10.964Z</time></trkpt><trkpt lat="44.2627002" lon="10.7199657"><ele>561.0</ele><time>2026-04-18T11:03:11.965Z</time></trkpt><trkpt lat="44.2626665" lon="10.7198514"><ele>561.0</ele><time>2026-04-18T11:03:12.965Z</time></trkpt><trkpt lat="44.2626406" lon="10.719748"><ele>561.0</ele><time>2026-04-18T11:03:13.965Z</time></trkpt><trkpt lat="44.2626062" lon="10.7196424"><ele>561.0</ele><time>2026-04-18T11:03:14.965Z</time></trkpt><trkpt lat="44.2625522" lon="10.7195633"><ele>561.0</ele><time>2026-04-18T11:03:15.965Z</time></trkpt><trkpt lat="44.2624903" lon="10.7194835"><ele>561.0</ele><time>2026-04-18T11:03:16.965Z</time></trkpt><trkpt lat="44.2624339" lon="10.7194038"><ele>561.0</ele><time>2026-04-18T11:03:17.965Z</time></trkpt><trkpt lat="44.2623648" lon="10.7192972"><ele>561.0</ele><time>2026-04-18T11:03:18.964Z</time></trkpt><trkpt lat="44.2623033" lon="10.7191848"><ele>561.0</ele><time>2026-04-18T11:03:19.965Z</time></trkpt><trkpt lat="44.2622429" lon="10.7190676"><ele>561.0</ele><time>2026-04-18T11:03:20.965Z</time></trkpt><trkpt lat="44.2621822" lon="10.7189498"><ele>561.6</ele><time>2026-04-18T11:03:21.964Z</time></trkpt><trkpt lat="44.2621278" lon="10.7188248"><ele>562.2</ele><time>2026-04-18T11:03:22.965Z</time></trkpt><trkpt lat="44.262074" lon="10.7186947"><ele>562.8</ele><time>2026-04-18T11:03:23.964Z</time></trkpt><trkpt lat="44.2620244" lon="10.7185588"><ele>563.4</ele><time>2026-04-18T11:03:24.964Z</time></trkpt><trkpt lat="44.2619713" lon="10.7184115"><ele>564.0</ele><time>2026-04-18T11:03:25.965Z</time></trkpt><trkpt lat="44.2619213" lon="10.7182606"><ele>564.0</ele><time>2026-04-18T11:03:26.964Z</time></trkpt><trkpt lat="44.261879" lon="10.7181203"><ele>564.0</ele><time>2026-04-18T11:03:27.964Z</time></trkpt><trkpt lat="44.2618351" lon="10.7179921"><ele>564.0</ele><time>2026-04-18T11:03:28.964Z</time></trkpt><trkpt lat="44.2617996" lon="10.7178802"><ele>564.0</ele><time>2026-04-18T11:03:29.965Z</time></trkpt><trkpt lat="44.2617687" lon="10.7177759"><ele>564.0</ele><time>2026-04-18T11:03:30.965Z</time></trkpt><trkpt lat="44.2617228" lon="10.7176878"><ele>563.1666666666666</ele><time>2026-04-18T11:03:31.964Z</time></trkpt><trkpt lat="44.2616659" lon="10.7176111"><ele>562.3333333333334</ele><time>2026-04-18T11:03:32.964Z</time></trkpt><trkpt lat="44.2616017" lon="10.7175481"><ele>561.5</ele><time>2026-04-18T11:03:33.964Z</time></trkpt><trkpt lat="44.2615352" lon="10.7174719"><ele>560.6666666666667</ele><time>2026-04-18T11:03:34.964Z</time></trkpt><trkpt lat="44.2614939" lon="10.717374"><ele>559.8333333333334</ele><time>2026-04-18T11:03:35.964Z</time></trkpt><trkpt lat="44.2614486" lon="10.7172748"><ele>559.0</ele><time>2026-04-18T11:03:36.965Z</time></trkpt><trkpt lat="44.2614342" lon="10.7171431"><ele>558.3333333333334</ele><time>2026-04-18T11:03:37.964Z</time></trkpt><trkpt lat="44.2614244" lon="10.7170154"><ele>557.6666666666667</ele><time>2026-04-18T11:03:38.964Z</time></trkpt><trkpt lat="44.2614259" lon="10.7168956"><ele>557.0</ele><time>2026-04-18T11:03:39.964Z</time></trkpt><trkpt lat="44.2614249" lon="10.7167746"><ele>556.3333333333334</ele><time>2026-04-18T11:03:40.965Z</time></trkpt><trkpt lat="44.2614377" lon="10.7166621"><ele>555.6666666666666</ele><time>2026-04-18T11:03:41.964Z</time></trkpt><trkpt lat="44.2614605" lon="10.7165554"><ele>555.0</ele><time>2026-04-18T11:03:42.965Z</time></trkpt><trkpt lat="44.261486" lon="10.7164374"><ele>555.0</ele><time>2026-04-18T11:03:43.965Z</time></trkpt><trkpt lat="44.2615013" lon="10.7163241"><ele>555.0</ele><time>2026-04-18T11:03:44.964Z</time></trkpt><trkpt lat="44.2615009" lon="10.7162161"><ele>555.0</ele><time>2026-04-18T11:03:45.964Z</time></trkpt><trkpt lat="44.2614938" lon="10.7161093"><ele>555.0</ele><time>2026-04-18T11:03:46.964Z</time></trkpt><trkpt lat="44.2614434" lon="10.7160165"><ele>555.0</ele><time>2026-04-18T11:03:47.965Z</time></trkpt><trkpt lat="44.2613973" lon="10.7159291"><ele>555.0</ele><time>2026-04-18T11:03:48.964Z</time></trkpt><trkpt lat="44.2613398" lon="10.7158563"><ele>556.5</ele><time>2026-04-18T11:03:49.965Z</time></trkpt><trkpt lat="44.2612769" lon="10.7157973"><ele>558.0</ele><time>2026-04-18T11:03:50.964Z</time></trkpt><trkpt lat="44.2612017" lon="10.7157691"><ele>559.5</ele><time>2026-04-18T11:03:51.965Z</time></trkpt><trkpt lat="44.2611232" lon="10.7157659"><ele>561.0</ele><time>2026-04-18T11:03:52.964Z</time></trkpt><trkpt lat="44.2610461" lon="10.7157495"><ele>562.5</ele><time>2026-04-18T11:03:53.965Z</time></trkpt><trkpt lat="44.2609518" lon="10.7157242"><ele>564.0</ele><time>2026-04-18T11:03:54.965Z</time></trkpt><trkpt lat="44.2608572" lon="10.715707"><ele>564.0</ele><time>2026-04-18T11:03:55.964Z</time></trkpt><trkpt lat="44.2607619" lon="10.7157012"><ele>564.0</ele><time>2026-04-18T11:03:56.965Z</time></trkpt><trkpt lat="44.26067" lon="10.7157088"><ele>564.0</ele><time>2026-04-18T11:03:57.964Z</time></trkpt><trkpt lat="44.2605852" lon="10.7157157"><ele>564.0</ele><time>2026-04-18T11:03:58.964Z</time></trkpt><trkpt lat="44.2605097" lon="10.7157071"><ele>564.0</ele><time>2026-04-18T11:03:59.964Z</time></trkpt><trkpt lat="44.2604483" lon="10.7156349"><ele>564.0</ele><time>2026-04-18T11:04:00.965Z</time></trkpt><trkpt lat="44.2603831" lon="10.7155592"><ele>565.2</ele><time>2026-04-18T11:04:01.964Z</time></trkpt><trkpt lat="44.2603074" lon="10.7154941"><ele>566.4</ele><time>2026-04-18T11:04:02.965Z</time></trkpt><trkpt lat="44.2602236" lon="10.7154618"><ele>567.6</ele><time>2026-04-18T11:04:03.965Z</time></trkpt><trkpt lat="44.2601284" lon="10.7154473"><ele>568.8</ele><time>2026-04-18T11:04:04.964Z</time></trkpt><trkpt lat="44.2600251" lon="10.7154302"><ele>570.0</ele><time>2026-04-18T11:04:05.964Z</time></trkpt><trkpt lat="44.2599127" lon="10.7154127"><ele>570.0</ele><time>2026-04-18T11:04:06.965Z</time></trkpt><trkpt lat="44.259808" lon="10.7153993"><ele>570.0</ele><time>2026-04-18T11:04:07.964Z</time></trkpt><trkpt lat="44.2597212" lon="10.7153724"><ele>570.0</ele><time>2026-04-18T11:04:08.964Z</time></trkpt><trkpt lat="44.2596412" lon="10.7153512"><ele>570.0</ele><time>2026-04-18T11:04:09.964Z</time></trkpt><trkpt lat="44.2595705" lon="10.7153321"><ele>570.0</ele><time>2026-04-18T11:04:10.964Z</time></trkpt><trkpt lat="44.2594688" lon="10.7152608"><ele>571.0</ele><time>2026-04-18T11:04:12.964Z</time></trkpt><trkpt lat="44.2594243" lon="10.715183"><ele>572.0</ele><time>2026-04-18T11:04:13.964Z</time></trkpt><trkpt lat="44.2593855" lon="10.7150609"><ele>573.0</ele><time>2026-04-18T11:04:14.964Z</time></trkpt><trkpt lat="44.2593428" lon="10.7149119"><ele>574.0</ele><time>2026-04-18T11:04:15.965Z</time></trkpt><trkpt lat="44.2593025" lon="10.7147405"><ele>575.0</ele><time>2026-04-18T11:04:16.964Z</time></trkpt><trkpt lat="44.2592545" lon="10.7145621"><ele>573.25</ele><time>2026-04-18T11:04:17.964Z</time></trkpt><trkpt lat="44.2591993" lon="10.7144036"><ele>571.5</ele><time>2026-04-18T11:04:18.964Z</time></trkpt><trkpt lat="44.2591305" lon="10.7142625"><ele>569.75</ele><time>2026-04-18T11:04:19.964Z</time></trkpt><trkpt lat="44.2590502" lon="10.7141215"><ele>568.0</ele><time>2026-04-18T11:04:20.965Z</time></trkpt><trkpt lat="44.2589611" lon="10.7139877"><ele>571.0</ele><time>2026-04-18T11:04:21.965Z</time></trkpt><trkpt lat="44.2588755" lon="10.713842"><ele>574.0</ele><time>2026-04-18T11:04:22.964Z</time></trkpt><trkpt lat="44.2588077" lon="10.7136849"><ele>577.0</ele><time>2026-04-18T11:04:23.964Z</time></trkpt><trkpt lat="44.2587438" lon="10.7135301"><ele>580.0</ele><time>2026-04-18T11:04:24.965Z</time></trkpt><trkpt lat="44.2586802" lon="10.7133922"><ele>580.0</ele><time>2026-04-18T11:04:25.964Z</time></trkpt><trkpt lat="44.2586082" lon="10.7132721"><ele>580.0</ele><time>2026-04-18T11:04:26.965Z</time></trkpt><trkpt lat="44.2585317" lon="10.7131614"><ele>580.0</ele><time>2026-04-18T11:04:27.965Z</time></trkpt><trkpt lat="44.2584126" lon="10.7130882"><ele>580.0</ele><time>2026-04-18T11:04:28.964Z</time></trkpt><trkpt lat="44.2583023" lon="10.7130291"><ele>580.0</ele><time>2026-04-18T11:04:29.964Z</time></trkpt><trkpt lat="44.2581931" lon="10.7129944"><ele>580.0</ele><time>2026-04-18T11:04:30.964Z</time></trkpt><trkpt lat="44.2580997" lon="10.7129463"><ele>580.0</ele><time>2026-04-18T11:04:31.964Z</time></trkpt><trkpt lat="44.2580286" lon="10.7128616"><ele>580.0</ele><time>2026-04-18T11:04:32.964Z</time></trkpt><trkpt lat="44.2579882" lon="10.7127421"><ele>580.0</ele><time>2026-04-18T11:04:33.964Z</time></trkpt><trkpt lat="44.2579753" lon="10.712594"><ele>582.5</ele><time>2026-04-18T11:04:34.965Z</time></trkpt><trkpt lat="44.2579626" lon="10.712428"><ele>585.0</ele><time>2026-04-18T11:04:35.965Z</time></trkpt><trkpt lat="44.2579427" lon="10.7122704"><ele>587.5</ele><time>2026-04-18T11:04:36.964Z</time></trkpt><trkpt lat="44.2579032" lon="10.7121185"><ele>590.0</ele><time>2026-04-18T11:04:37.965Z</time></trkpt><trkpt lat="44.2578419" lon="10.7119788"><ele>587.4</ele><time>2026-04-18T11:04:38.965Z</time></trkpt><trkpt lat="44.2577644" lon="10.7118581"><ele>584.8</ele><time>2026-04-18T11:04:39.965Z</time></trkpt><trkpt lat="44.2576874" lon="10.7117436"><ele>582.2</ele><time>2026-04-18T11:04:40.965Z</time></trkpt><trkpt lat="44.2576328" lon="10.7116222"><ele>579.6</ele><time>2026-04-18T11:04:41.964Z</time></trkpt><trkpt lat="44.25761" lon="10.7114912"><ele>577.0</ele><time>2026-04-18T11:04:42.965Z</time></trkpt><trkpt lat="44.2576157" lon="10.7113602"><ele>577.0</ele><time>2026-04-18T11:04:43.965Z</time></trkpt><trkpt lat="44.2576407" lon="10.7112518"><ele>577.0</ele><time>2026-04-18T11:04:44.964Z</time></trkpt><trkpt lat="44.2576748" lon="10.7111751"><ele>577.0</ele><time>2026-04-18T11:04:45.965Z</time></trkpt><trkpt lat="44.2577284" lon="10.7111172"><ele>577.0</ele><time>2026-04-18T11:04:47.964Z</time></trkpt><trkpt lat="44.2577506" lon="10.7110262"><ele>577.0</ele><time>2026-04-18T11:05:47.964Z</time></trkpt><trkpt lat="44.2577288" lon="10.7109189"><ele>577.0</ele><time>2026-04-18T11:05:48.965Z</time></trkpt><trkpt lat="44.2576905" lon="10.7108191"><ele>577.0</ele><time>2026-04-18T11:05:49.965Z</time></trkpt><trkpt lat="44.2576387" lon="10.7107138"><ele>574.8000000000001</ele><time>2026-04-18T11:05:50.965Z</time></trkpt><trkpt lat="44.2575826" lon="10.7105939"><ele>572.6</ele><time>2026-04-18T11:05:51.965Z</time></trkpt><trkpt lat="44.2575227" lon="10.7104651"><ele>570.4000000000001</ele><time>2026-04-18T11:05:52.965Z</time></trkpt><trkpt lat="44.2574601" lon="10.7103313"><ele>568.2</ele><time>2026-04-18T11:05:53.965Z</time></trkpt><trkpt lat="44.2574002" lon="10.7101981"><ele>566.0</ele><time>2026-04-18T11:05:54.965Z</time></trkpt><trkpt lat="44.2573372" lon="10.7100653"><ele>570.0</ele><time>2026-04-18T11:05:55.965Z</time></trkpt><trkpt lat="44.2572742" lon="10.7099404"><ele>574.0</ele><time>2026-04-18T11:05:56.964Z</time></trkpt><trkpt lat="44.2572092" lon="10.7098143"><ele>578.0</ele><time>2026-04-18T11:05:57.964Z</time></trkpt><trkpt lat="44.2571458" lon="10.7096837"><ele>582.0</ele><time>2026-04-18T11:05:58.964Z</time></trkpt><trkpt lat="44.2570802" lon="10.709553"><ele>586.0</ele><time>2026-04-18T11:05:59.965Z</time></trkpt><trkpt lat="44.2570095" lon="10.7094155"><ele>592.25</ele><time>2026-04-18T11:06:00.965Z</time></trkpt><trkpt lat="44.2569398" lon="10.7092778"><ele>598.5</ele><time>2026-04-18T11:06:01.964Z</time></trkpt><trkpt lat="44.2568697" lon="10.709144"><ele>604.75</ele><time>2026-04-18T11:06:02.964Z</time></trkpt><trkpt lat="44.2567988" lon="10.7090113"><ele>611.0</ele><time>2026-04-18T11:06:03.964Z</time></trkpt><trkpt lat="44.2529724" lon="10.6933079"><ele>626.6666666666666</ele><time>2026-04-18T11:07:28.965Z</time></trkpt><trkpt lat="44.2529976" lon="10.6930988"><ele>642.3333333333334</ele><time>2026-04-18T11:07:29.965Z</time></trkpt><trkpt lat="44.2530092" lon="10.6928864"><ele>658.0</ele><time>2026-04-18T11:07:30.964Z</time></trkpt><trkpt lat="44.2530171" lon="10.69267"><ele>658.0</ele><time>2026-04-18T11:07:31.964Z</time></trkpt><trkpt lat="44.2530146" lon="10.6924583"><ele>658.0</ele><time>2026-04-18T11:07:32.964Z</time></trkpt><trkpt lat="44.2530021" lon="10.6922436"><ele>658.0</ele><time>2026-04-18T11:07:33.964Z</time></trkpt><trkpt lat="44.2529766" lon="10.6920279"><ele>655.0</ele><time>2026-04-18T11:07:34.964Z</time></trkpt><trkpt lat="44.2529407" lon="10.69181"><ele>652.0</ele><time>2026-04-18T11:07:35.964Z</time></trkpt><trkpt lat="44.2528912" lon="10.691595"><ele>649.0</ele><time>2026-04-18T11:07:36.964Z</time></trkpt><trkpt lat="44.2528265" lon="10.6913821"><ele>649.0</ele><time>2026-04-18T11:07:37.965Z</time></trkpt><trkpt lat="44.2527494" lon="10.6911752"><ele>649.0</ele><time>2026-04-18T11:07:38.965Z</time></trkpt><trkpt lat="44.2526652" lon="10.6909785"><ele>649.0</ele><time>2026-04-18T11:07:39.964Z</time></trkpt><trkpt lat="44.2525681" lon="10.6907888"><ele>653.3333333333334</ele><time>2026-04-18T11:07:40.965Z</time></trkpt><trkpt lat="44.2524595" lon="10.6906111"><ele>657.6666666666666</ele><time>2026-04-18T11:07:41.964Z</time></trkpt><trkpt lat="44.2523451" lon="10.6904413"><ele>662.0</ele><time>2026-04-18T11:07:42.964Z</time></trkpt><trkpt lat="44.2522234" lon="10.6902821"><ele>657.0</ele><time>2026-04-18T11:07:43.965Z</time></trkpt><trkpt lat="44.252098" lon="10.6901233"><ele>652.0</ele><time>2026-04-18T11:07:44.965Z</time></trkpt><trkpt lat="44.2519739" lon="10.6899569"><ele>647.0</ele><time>2026-04-18T11:07:45.964Z</time></trkpt><trkpt lat="44.2518467" lon="10.689798"><ele>647.0</ele><time>2026-04-18T11:07:46.965Z</time></trkpt><trkpt lat="44.2517174" lon="10.6896381"><ele>647.0</ele><time>2026-04-18T11:07:47.964Z</time></trkpt><trkpt lat="44.251593" lon="10.6894681"><ele>647.0</ele><time>2026-04-18T11:07:48.964Z</time></trkpt><trkpt lat="44.2514729" lon="10.6893015"><ele>653.3333333333333</ele><time>2026-04-18T11:07:49.964Z</time></trkpt><trkpt lat="44.251358" lon="10.6891314"><ele>659.6666666666666</ele><time>2026-04-18T11:07:50.965Z</time></trkpt><trkpt lat="44.2512535" lon="10.6889461"><ele>666.0</ele><time>2026-04-18T11:07:51.965Z</time></trkpt><trkpt lat="44.2511665" lon="10.6887471"><ele>662.3333333333334</ele><time>2026-04-18T11:07:52.965Z</time></trkpt><trkpt lat="44.2510837" lon="10.6885387"><ele>658.6666666666667</ele><time>2026-04-18T11:07:53.964Z</time></trkpt><trkpt lat="44.251011" lon="10.6883276"><ele>655.0</ele><time>2026-04-18T11:07:54.965Z</time></trkpt><trkpt lat="44.2509487" lon="10.6881076"><ele>655.0</ele><time>2026-04-18T11:07:55.965Z</time></trkpt><trkpt lat="44.2509012" lon="10.6878795"><ele>655.0</ele><time>2026-04-18T11:07:56.965Z</time></trkpt><trkpt lat="44.2508538" lon="10.6876523"><ele>655.0</ele><time>2026-04-18T11:07:57.964Z</time></trkpt><trkpt lat="44.2508072" lon="10.6874295"><ele>651.0</ele><time>2026-04-18T11:07:58.965Z</time></trkpt><trkpt lat="44.2507569" lon="10.6872206"><ele>647.0</ele><time>2026-04-18T11:07:59.964Z</time></trkpt><trkpt lat="44.2506966" lon="10.687024"><ele>643.0</ele><time>2026-04-18T11:08:00.965Z</time></trkpt><trkpt lat="44.2506274" lon="10.6868196"><ele>647.3333333333334</ele><time>2026-04-18T11:08:01.964Z</time></trkpt><trkpt lat="44.2505401" lon="10.6866203"><ele>651.6666666666666</ele><time>2026-04-18T11:08:02.965Z</time></trkpt><trkpt lat="44.2503996" lon="10.6864485"><ele>656.0</ele><time>2026-04-18T11:08:03.964Z</time></trkpt><trkpt lat="44.2502642" lon="10.6862677"><ele>656.0</ele><time>2026-04-18T11:08:04.965Z</time></trkpt><trkpt lat="44.2501249" lon="10.6861199"><ele>656.0</ele><time>2026-04-18T11:08:05.964Z</time></trkpt><trkpt lat="44.2499842" lon="10.6859825"><ele>656.0</ele><time>2026-04-18T11:08:06.965Z</time></trkpt><trkpt lat="44.2498443" lon="10.685842"><ele>663.0</ele><time>2026-04-18T11:08:07.964Z</time></trkpt><trkpt lat="44.2497068" lon="10.6856997"><ele>670.0</ele><time>2026-04-18T11:08:08.964Z</time></trkpt><trkpt lat="44.2495792" lon="10.6855454"><ele>677.0</ele><time>2026-04-18T11:08:09.965Z</time></trkpt><trkpt lat="44.2494661" lon="10.6853673"><ele>666.6666666666666</ele><time>2026-04-18T11:08:10.964Z</time></trkpt><trkpt lat="44.2493641" lon="10.6851766"><ele>656.3333333333334</ele><time>2026-04-18T11:08:11.965Z</time></trkpt><trkpt lat="44.249269" lon="10.6849802"><ele>646.0</ele><time>2026-04-18T11:08:12.964Z</time></trkpt><trkpt lat="44.2491757" lon="10.684784"><ele>646.0</ele><time>2026-04-18T11:08:13.964Z</time></trkpt><trkpt lat="44.2490797" lon="10.6845908"><ele>646.0</ele><time>2026-04-18T11:08:14.964Z</time></trkpt><trkpt lat="44.2489734" lon="10.6844086"><ele>646.0</ele><time>2026-04-18T11:08:15.964Z</time></trkpt><trkpt lat="44.2488569" lon="10.6842341"><ele>648.3333333333334</ele><time>2026-04-18T11:08:16.964Z</time></trkpt><trkpt lat="44.2487291" lon="10.684072"><ele>650.6666666666666</ele><time>2026-04-18T11:08:17.964Z</time></trkpt><trkpt lat="44.248594" lon="10.6839276"><ele>653.0</ele><time>2026-04-18T11:08:18.965Z</time></trkpt><trkpt lat="44.2484517" lon="10.6837942"><ele>653.0</ele><time>2026-04-18T11:08:19.965Z</time></trkpt><trkpt lat="44.2483084" lon="10.6836661"><ele>653.0</ele><time>2026-04-18T11:08:20.964Z</time></trkpt><trkpt lat="44.2481664" lon="10.6835366"><ele>653.0</ele><time>2026-04-18T11:08:21.964Z</time></trkpt><trkpt lat="44.2480231" lon="10.6834077"><ele>649.6666666666666</ele><time>2026-04-18T11:08:22.965Z</time></trkpt><trkpt lat="44.2478758" lon="10.6832823"><ele>646.3333333333334</ele><time>2026-04-18T11:08:23.964Z</time></trkpt><trkpt lat="44.2477299" lon="10.6831584"><ele>643.0</ele><time>2026-04-18T11:08:24.965Z</time></trkpt><trkpt lat="44.2475863" lon="10.6830343"><ele>643.0</ele><time>2026-04-18T11:08:25.965Z</time></trkpt><trkpt lat="44.2474423" lon="10.6829062"><ele>643.0</ele><time>2026-04-18T11:08:26.964Z</time></trkpt><trkpt lat="44.2473" lon="10.6827803"><ele>643.0</ele><time>2026-04-18T11:08:27.965Z</time></trkpt><trkpt lat="44.2471569" lon="10.6826501"><ele>642.3333333333334</ele><time>2026-04-18T11:08:28.965Z</time></trkpt><trkpt lat="44.2470137" lon="10.6825196"><ele>641.6666666666666</ele><time>2026-04-18T11:08:29.964Z</time></trkpt><trkpt lat="44.2468713" lon="10.6823978"><ele>641.0</ele><time>2026-04-18T11:08:30.965Z</time></trkpt><trkpt lat="44.246728" lon="10.6822729"><ele>641.0</ele><time>2026-04-18T11:08:31.965Z</time></trkpt><trkpt lat="44.2465826" lon="10.6821455"><ele>641.0</ele><time>2026-04-18T11:08:32.964Z</time></trkpt><trkpt lat="44.2464412" lon="10.6820113"><ele>641.0</ele><time>2026-04-18T11:08:33.964Z</time></trkpt><trkpt lat="44.2463032" lon="10.6818697"><ele>644.3333333333333</ele><time>2026-04-18T11:08:34.965Z</time></trkpt><trkpt lat="44.2461683" lon="10.6817255"><ele>647.6666666666666</ele><time>2026-04-18T11:08:35.965Z</time></trkpt><trkpt lat="44.2460384" lon="10.6815712"><ele>651.0</ele><time>2026-04-18T11:08:36.965Z</time></trkpt><trkpt lat="44.2459134" lon="10.6814111"><ele>651.0</ele><time>2026-04-18T11:08:37.965Z</time></trkpt><trkpt lat="44.2457904" lon="10.6812546"><ele>651.0</ele><time>2026-04-18T11:08:38.965Z</time></trkpt><trkpt lat="44.245682" lon="10.6810977"><ele>651.0</ele><time>2026-04-18T11:08:39.964Z</time></trkpt><trkpt lat="44.2456022" lon="10.6809393"><ele>661.0</ele><time>2026-04-18T11:08:40.964Z</time></trkpt><trkpt lat="44.2455538" lon="10.6807799"><ele>671.0</ele><time>2026-04-18T11:08:41.965Z</time></trkpt><trkpt lat="44.2455334" lon="10.6806163"><ele>681.0</ele><time>2026-04-18T11:08:42.965Z</time></trkpt><trkpt lat="44.2455312" lon="10.680445"><ele>691.0</ele><time>2026-04-18T11:08:43.964Z</time></trkpt><trkpt lat="44.2455417" lon="10.6802556"><ele>691.0</ele><time>2026-04-18T11:08:44.964Z</time></trkpt><trkpt lat="44.2455595" lon="10.6800563"><ele>691.0</ele><time>2026-04-18T11:08:45.965Z</time></trkpt><trkpt lat="44.2455715" lon="10.6798576"><ele>691.0</ele><time>2026-04-18T11:08:46.964Z</time></trkpt><trkpt lat="44.2455778" lon="10.6796708"><ele>691.0</ele><time>2026-04-18T11:08:47.964Z</time></trkpt><trkpt lat="44.2456256" lon="10.6795032"><ele>679.75</ele><time>2026-04-18T11:08:48.964Z</time></trkpt><trkpt lat="44.2456981" lon="10.6793464"><ele>668.5</ele><time>2026-04-18T11:08:49.965Z</time></trkpt><trkpt lat="44.2457791" lon="10.6791847"><ele>657.25</ele><time>2026-04-18T11:08:50.964Z</time></trkpt><trkpt lat="44.2458822" lon="10.679028"><ele>646.0</ele><time>2026-04-18T11:08:51.965Z</time></trkpt><trkpt lat="44.2459917" lon="10.6788701"><ele>646.0</ele><time>2026-04-18T11:08:52.964Z</time></trkpt><trkpt lat="44.2461084" lon="10.6787158"><ele>646.0</ele><time>2026-04-18T11:08:53.964Z</time></trkpt><trkpt lat="44.2462307" lon="10.6785787"><ele>646.0</ele><time>2026-04-18T11:08:54.965Z</time></trkpt><trkpt lat="44.246357" lon="10.6784697"><ele>642.75</ele><time>2026-04-18T11:08:55.965Z</time></trkpt><trkpt lat="44.2464817" lon="10.6783705"><ele>639.5</ele><time>2026-04-18T11:08:56.964Z</time></trkpt><trkpt lat="44.2466058" lon="10.6782895"><ele>636.25</ele><time>2026-04-18T11:08:57.964Z</time></trkpt><trkpt lat="44.2467189" lon="10.6782189"><ele>633.0</ele><time>2026-04-18T11:08:58.964Z</time></trkpt><trkpt lat="44.2468243" lon="10.67814"><ele>633.0</ele><time>2026-04-18T11:08:59.964Z</time></trkpt><trkpt lat="44.2469022" lon="10.678027"><ele>633.0</ele><time>2026-04-18T11:09:00.964Z</time></trkpt><trkpt lat="44.2469379" lon="10.6778827"><ele>633.0</ele><time>2026-04-18T11:09:01.964Z</time></trkpt><trkpt lat="44.2469291" lon="10.677731"><ele>633.0</ele><time>2026-04-18T11:09:02.964Z</time></trkpt><trkpt lat="44.2468821" lon="10.6775712"><ele>635.25</ele><time>2026-04-18T11:09:03.965Z</time></trkpt><trkpt lat="44.2468089" lon="10.677407"><ele>637.5</ele><time>2026-04-18T11:09:04.964Z</time></trkpt><trkpt lat="44.2467241" lon="10.6772375"><ele>639.75</ele><time>2026-04-18T11:09:05.965Z</time></trkpt><trkpt lat="44.2466249" lon="10.6770752"><ele>642.0</ele><time>2026-04-18T11:09:06.964Z</time></trkpt><trkpt lat="44.2465239" lon="10.6769132"><ele>659.3333333333334</ele><time>2026-04-18T11:09:07.965Z</time></trkpt><trkpt lat="44.2464441" lon="10.67674"><ele>676.6666666666667</ele><time>2026-04-18T11:09:08.964Z</time></trkpt><trkpt lat="44.2463925" lon="10.6765322"><ele>694.0</ele><time>2026-04-18T11:09:09.964Z</time></trkpt><trkpt lat="44.2463513" lon="10.6763127"><ele>684.0</ele><time>2026-04-18T11:09:10.964Z</time></trkpt><trkpt lat="44.2463027" lon="10.6760849"><ele>674.0</ele><time>2026-04-18T11:09:11.964Z</time></trkpt><trkpt lat="44.246249" lon="10.6758643"><ele>664.0</ele><time>2026-04-18T11:09:12.965Z</time></trkpt><trkpt lat="44.246184" lon="10.6756515"><ele>664.0</ele><time>2026-04-18T11:09:13.964Z</time></trkpt><trkpt lat="44.2461027" lon="10.6754564"><ele>664.0</ele><time>2026-04-18T11:09:14.965Z</time></trkpt><trkpt lat="44.2460114" lon="10.675274"><ele>664.0</ele><time>2026-04-18T11:09:15.964Z</time></trkpt><trkpt lat="44.2459064" lon="10.6751071"><ele>662.0</ele><time>2026-04-18T11:09:16.964Z</time></trkpt><trkpt lat="44.2457936" lon="10.6749673"><ele>660.0</ele><time>2026-04-18T11:09:17.965Z</time></trkpt><trkpt lat="44.2456768" lon="10.6748573"><ele>658.0</ele><time>2026-04-18T11:09:18.964Z</time></trkpt><trkpt lat="44.2455721" lon="10.6747558"><ele>656.0</ele><time>2026-04-18T11:09:19.965Z</time></trkpt><trkpt lat="44.2454894" lon="10.6746462"><ele>656.0</ele><time>2026-04-18T11:09:20.964Z</time></trkpt><trkpt lat="44.2454438" lon="10.6745145"><ele>656.0</ele><time>2026-04-18T11:09:21.965Z</time></trkpt><trkpt lat="44.2454385" lon="10.6743726"><ele>656.0</ele><time>2026-04-18T11:09:22.965Z</time></trkpt><trkpt lat="44.24544" lon="10.6742162"><ele>656.0</ele><time>2026-04-18T11:09:23.964Z</time></trkpt><trkpt lat="44.245462" lon="10.6740637"><ele>656.0</ele><time>2026-04-18T11:09:24.964Z</time></trkpt><trkpt lat="44.2455315" lon="10.6739376"><ele>653.5</ele><time>2026-04-18T11:09:25.964Z</time></trkpt><trkpt lat="44.24562" lon="10.6738223"><ele>651.0</ele><time>2026-04-18T11:09:26.964Z</time></trkpt><trkpt lat="44.2457094" lon="10.6737018"><ele>648.5</ele><time>2026-04-18T11:09:27.965Z</time></trkpt><trkpt lat="44.2457901" lon="10.6735908"><ele>646.0</ele><time>2026-04-18T11:09:28.964Z</time></trkpt><trkpt lat="44.2458478" lon="10.6734489"><ele>644.0</ele><time>2026-04-18T11:09:29.965Z</time></trkpt><trkpt lat="44.2458771" lon="10.6732781"><ele>642.0</ele><time>2026-04-18T11:09:30.965Z</time></trkpt><trkpt lat="44.245906" lon="10.673091"><ele>640.0</ele><time>2026-04-18T11:09:31.964Z</time></trkpt><trkpt lat="44.2459336" lon="10.6728957"><ele>638.0</ele><time>2026-04-18T11:09:32.965Z</time></trkpt><trkpt lat="44.2459558" lon="10.6726812"><ele>644.3333333333333</ele><time>2026-04-18T11:09:33.964Z</time></trkpt><trkpt lat="44.2459824" lon="10.6724527"><ele>650.6666666666666</ele><time>2026-04-18T11:09:34.964Z</time></trkpt><trkpt lat="44.2460228" lon="10.6722371"><ele>657.0</ele><time>2026-04-18T11:09:35.964Z</time></trkpt><trkpt lat="44.2460585" lon="10.6720447"><ele>659.25</ele><time>2026-04-18T11:09:36.964Z</time></trkpt><trkpt lat="44.2460835" lon="10.6718513"><ele>661.5</ele><time>2026-04-18T11:09:37.965Z</time></trkpt><trkpt lat="44.2461007" lon="10.6716574"><ele>663.75</ele><time>2026-04-18T11:09:38.964Z</time></trkpt><trkpt lat="44.2461167" lon="10.6714608"><ele>666.0</ele><time>2026-04-18T11:09:39.964Z</time></trkpt><trkpt lat="44.2460865" lon="10.6712756"><ele>666.0</ele><time>2026-04-18T11:09:40.965Z</time></trkpt><trkpt lat="44.2460713" lon="10.6711092"><ele>666.0</ele><time>2026-04-18T11:09:41.964Z</time></trkpt><trkpt lat="44.2460747" lon="10.6709544"><ele>666.0</ele><time>2026-04-18T11:09:42.964Z</time></trkpt><trkpt lat="44.2461183" lon="10.6707997"><ele>666.0</ele><time>2026-04-18T11:09:43.965Z</time></trkpt><trkpt lat="44.246191" lon="10.6706509"><ele>666.75</ele><time>2026-04-18T11:09:44.964Z</time></trkpt><trkpt lat="44.2462863" lon="10.6705061"><ele>667.5</ele><time>2026-04-18T11:09:45.964Z</time></trkpt><trkpt lat="44.2463731" lon="10.6703722"><ele>668.25</ele><time>2026-04-18T11:09:46.964Z</time></trkpt><trkpt lat="44.2464417" lon="10.670234"><ele>669.0</ele><time>2026-04-18T11:09:47.965Z</time></trkpt><trkpt lat="44.246483" lon="10.6700626"><ele>669.0</ele><time>2026-04-18T11:09:48.964Z</time></trkpt><trkpt lat="44.2464919" lon="10.6698819"><ele>669.0</ele><time>2026-04-18T11:09:49.964Z</time></trkpt><trkpt lat="44.2464716" lon="10.6696982"><ele>669.0</ele><time>2026-04-18T11:09:50.965Z</time></trkpt><trkpt lat="44.2464289" lon="10.6695107"><ele>669.0</ele><time>2026-04-18T11:09:51.965Z</time></trkpt><trkpt lat="44.2463615" lon="10.6693196"><ele>664.75</ele><time>2026-04-18T11:09:52.965Z</time></trkpt><trkpt lat="44.246294" lon="10.6691426"><ele>660.5</ele><time>2026-04-18T11:09:53.965Z</time></trkpt><trkpt lat="44.2462248" lon="10.668988"><ele>656.25</ele><time>2026-04-18T11:09:54.965Z</time></trkpt><trkpt lat="44.2461517" lon="10.6688726"><ele>652.0</ele><time>2026-04-18T11:09:55.964Z</time></trkpt><trkpt lat="44.2460617" lon="10.6688093"><ele>652.0</ele><time>2026-04-18T11:09:56.964Z</time></trkpt><trkpt lat="44.2459476" lon="10.6687944"><ele>652.0</ele><time>2026-04-18T11:09:57.964Z</time></trkpt><trkpt lat="44.2458237" lon="10.6688337"><ele>652.0</ele><time>2026-04-18T11:09:58.964Z</time></trkpt><trkpt lat="44.2456915" lon="10.6688974"><ele>652.0</ele><time>2026-04-18T11:09:59.965Z</time></trkpt><trkpt lat="44.2455424" lon="10.6689652"><ele>653.3333333333334</ele><time>2026-04-18T11:10:00.964Z</time></trkpt><trkpt lat="44.2453851" lon="10.6690172"><ele>654.6666666666666</ele><time>2026-04-18T11:10:01.965Z</time></trkpt><trkpt lat="44.2452196" lon="10.669054"><ele>656.0</ele><time>2026-04-18T11:10:02.964Z</time></trkpt><trkpt lat="44.2450575" lon="10.6690838"><ele>656.0</ele><time>2026-04-18T11:10:03.965Z</time></trkpt><trkpt lat="44.2449093" lon="10.6691079"><ele>656.0</ele><time>2026-04-18T11:10:04.965Z</time></trkpt><trkpt lat="44.2447627" lon="10.669105"><ele>656.0</ele><time>2026-04-18T11:10:05.964Z</time></trkpt><trkpt lat="44.2446199" lon="10.6690703"><ele>656.0</ele><time>2026-04-18T11:10:06.965Z</time></trkpt><trkpt lat="44.2444776" lon="10.6690112"><ele>656.25</ele><time>2026-04-18T11:10:07.965Z</time></trkpt><trkpt lat="44.2443467" lon="10.6689208"><ele>656.5</ele><time>2026-04-18T11:10:08.965Z</time></trkpt><trkpt lat="44.2442361" lon="10.6687893"><ele>656.75</ele><time>2026-04-18T11:10:09.964Z</time></trkpt><trkpt lat="44.2441407" lon="10.6686294"><ele>657.0</ele><time>2026-04-18T11:10:10.964Z</time></trkpt><trkpt lat="44.2440648" lon="10.6684392"><ele>657.0</ele><time>2026-04-18T11:10:11.964Z</time></trkpt><trkpt lat="44.2439955" lon="10.6682354"><ele>657.0</ele><time>2026-04-18T11:10:12.965Z</time></trkpt><trkpt lat="44.243938" lon="10.6680251"><ele>657.0</ele><time>2026-04-18T11:10:13.964Z</time></trkpt><trkpt lat="44.2438822" lon="10.667806"><ele>669.0</ele><time>2026-04-18T11:10:14.964Z</time></trkpt><trkpt lat="44.2438286" lon="10.6675828"><ele>681.0</ele><time>2026-04-18T11:10:15.965Z</time></trkpt><trkpt lat="44.2437714" lon="10.6673696"><ele>693.0</ele><time>2026-04-18T11:10:16.965Z</time></trkpt><trkpt lat="44.2437156" lon="10.6671876"><ele>693.0</ele><time>2026-04-18T11:10:17.964Z</time></trkpt><trkpt lat="44.2436727" lon="10.6670256"><ele>693.0</ele><time>2026-04-18T11:10:18.965Z</time></trkpt><trkpt lat="44.2436746" lon="10.6668721"><ele>693.0</ele><time>2026-04-18T11:10:19.965Z</time></trkpt><trkpt lat="44.2437052" lon="10.6667158"><ele>693.0</ele><time>2026-04-18T11:10:20.965Z</time></trkpt><trkpt lat="44.243709" lon="10.6665322"><ele>693.6666666666666</ele><time>2026-04-18T11:10:21.964Z</time></trkpt><trkpt lat="44.243689" lon="10.6663334"><ele>694.3333333333333</ele><time>2026-04-18T11:10:22.964Z</time></trkpt><trkpt lat="44.2436483" lon="10.6661277"><ele>695.0</ele><time>2026-04-18T11:10:23.964Z</time></trkpt><trkpt lat="44.2435982" lon="10.6659134"><ele>692.0</ele><time>2026-04-18T11:10:24.964Z</time></trkpt><trkpt lat="44.2435323" lon="10.6656969"><ele>689.0</ele><time>2026-04-18T11:10:25.965Z</time></trkpt><trkpt lat="44.243465" lon="10.6654807"><ele>686.0</ele><time>2026-04-18T11:10:26.964Z</time></trkpt><trkpt lat="44.2433999" lon="10.6652665"><ele>682.3333333333333</ele><time>2026-04-18T11:10:27.965Z</time></trkpt><trkpt lat="44.2433486" lon="10.6650494"><ele>678.6666666666666</ele><time>2026-04-18T11:10:28.965Z</time></trkpt><trkpt lat="44.2433202" lon="10.6648238"><ele>675.0</ele><time>2026-04-18T11:10:29.964Z</time></trkpt><trkpt lat="44.2433128" lon="10.6646009"><ele>672.6666666666666</ele><time>2026-04-18T11:10:30.965Z</time></trkpt><trkpt lat="44.2433261" lon="10.664374"><ele>670.3333333333333</ele><time>2026-04-18T11:10:31.965Z</time></trkpt><trkpt lat="44.2433519" lon="10.664149"><ele>668.0</ele><time>2026-04-18T11:10:32.965Z</time></trkpt><trkpt lat="44.2433867" lon="10.6639262"><ele>668.0</ele><time>2026-04-18T11:10:33.965Z</time></trkpt><trkpt lat="44.2434258" lon="10.6636967"><ele>668.0</ele><time>2026-04-18T11:10:34.965Z</time></trkpt><trkpt lat="44.2434632" lon="10.6634646"><ele>668.0</ele><time>2026-04-18T11:10:35.964Z</time></trkpt><trkpt lat="44.2434986" lon="10.66323"><ele>670.3333333333333</ele><time>2026-04-18T11:10:36.965Z</time></trkpt><trkpt lat="44.2435291" lon="10.6630028"><ele>672.6666666666666</ele><time>2026-04-18T11:10:37.964Z</time></trkpt><trkpt lat="44.2435495" lon="10.6627701"><ele>675.0</ele><time>2026-04-18T11:10:38.964Z</time></trkpt><trkpt lat="44.2435427" lon="10.6625354"><ele>677.0</ele><time>2026-04-18T11:10:39.965Z</time></trkpt><trkpt lat="44.2435274" lon="10.66229"><ele>679.0</ele><time>2026-04-18T11:10:40.964Z</time></trkpt><trkpt lat="44.2435313" lon="10.6620178"><ele>681.0</ele><time>2026-04-18T11:10:41.965Z</time></trkpt><trkpt lat="44.2435314" lon="10.6617515"><ele>682.6666666666666</ele><time>2026-04-18T11:10:42.965Z</time></trkpt><trkpt lat="44.2435257" lon="10.6615143"><ele>684.3333333333333</ele><time>2026-04-18T11:10:43.965Z</time></trkpt><trkpt lat="44.2435253" lon="10.6612941"><ele>686.0</ele><time>2026-04-18T11:10:44.964Z</time></trkpt><trkpt lat="44.2435572" lon="10.6610773"><ele>690.3333333333333</ele><time>2026-04-18T11:10:45.965Z</time></trkpt><trkpt lat="44.2436183" lon="10.6608606"><ele>694.6666666666666</ele><time>2026-04-18T11:10:46.965Z</time></trkpt><trkpt lat="44.2436912" lon="10.6606425"><ele>699.0</ele><time>2026-04-18T11:10:47.965Z</time></trkpt><trkpt lat="44.2437679" lon="10.6604298"><ele>703.3333333333334</ele><time>2026-04-18T11:10:48.964Z</time></trkpt><trkpt lat="44.24384" lon="10.660216"><ele>707.6666666666667</ele><time>2026-04-18T11:10:49.965Z</time></trkpt><trkpt lat="44.243904" lon="10.6599994"><ele>712.0</ele><time>2026-04-18T11:10:50.964Z</time></trkpt><trkpt lat="44.2439467" lon="10.6597768"><ele>712.0</ele><time>2026-04-18T11:10:51.965Z</time></trkpt><trkpt lat="44.2439524" lon="10.6595467"><ele>712.0</ele><time>2026-04-18T11:10:52.965Z</time></trkpt><trkpt lat="44.2439714" lon="10.6593196"><ele>712.0</ele><time>2026-04-18T11:10:53.964Z</time></trkpt><trkpt lat="44.2439821" lon="10.6590942"><ele>712.0</ele><time>2026-04-18T11:10:54.964Z</time></trkpt><trkpt lat="44.2439798" lon="10.6588644"><ele>712.0</ele><time>2026-04-18T11:10:55.964Z</time></trkpt><trkpt lat="44.2439597" lon="10.6586303"><ele>712.0</ele><time>2026-04-18T11:10:56.965Z</time></trkpt><trkpt lat="44.2439302" lon="10.6583996"><ele>712.0</ele><time>2026-04-18T11:10:57.964Z</time></trkpt><trkpt lat="44.243897" lon="10.6581743"><ele>712.0</ele><time>2026-04-18T11:10:58.965Z</time></trkpt><trkpt lat="44.2438616" lon="10.6579622"><ele>712.0</ele><time>2026-04-18T11:10:59.964Z</time></trkpt><trkpt lat="44.2438164" lon="10.6577678"><ele>703.6666666666667</ele><time>2026-04-18T11:11:00.964Z</time></trkpt><trkpt lat="44.2437437" lon="10.6575856"><ele>695.3333333333334</ele><time>2026-04-18T11:11:01.965Z</time></trkpt><trkpt lat="44.243648" lon="10.6574199"><ele>687.0</ele><time>2026-04-18T11:11:02.964Z</time></trkpt><trkpt lat="44.2435453" lon="10.6572606"><ele>687.0</ele><time>2026-04-18T11:11:03.964Z</time></trkpt><trkpt lat="44.2434357" lon="10.6571207"><ele>687.0</ele><time>2026-04-18T11:11:04.964Z</time></trkpt><trkpt lat="44.2433043" lon="10.6570174"><ele>687.0</ele><time>2026-04-18T11:11:05.964Z</time></trkpt><trkpt lat="44.2431538" lon="10.6569576"><ele>683.0</ele><time>2026-04-18T11:11:06.965Z</time></trkpt><trkpt lat="44.2430079" lon="10.6568997"><ele>679.0</ele><time>2026-04-18T11:11:07.965Z</time></trkpt><trkpt lat="44.242837" lon="10.6568657"><ele>675.0</ele><time>2026-04-18T11:11:08.964Z</time></trkpt><trkpt lat="44.2426692" lon="10.656829"><ele>675.0</ele><time>2026-04-18T11:11:09.965Z</time></trkpt><trkpt lat="44.2424988" lon="10.6567891"><ele>675.0</ele><time>2026-04-18T11:11:10.965Z</time></trkpt><trkpt lat="44.2423242" lon="10.6567465"><ele>675.0</ele><time>2026-04-18T11:11:11.965Z</time></trkpt><trkpt lat="44.2421548" lon="10.656691"><ele>681.6666666666666</ele><time>2026-04-18T11:11:12.964Z</time></trkpt><trkpt lat="44.2419901" lon="10.6566189"><ele>688.3333333333333</ele><time>2026-04-18T11:11:13.964Z</time></trkpt><trkpt lat="44.2418274" lon="10.6565321"><ele>695.0</ele><time>2026-04-18T11:11:14.964Z</time></trkpt><trkpt lat="44.2416688" lon="10.6564267"><ele>695.0</ele><time>2026-04-18T11:11:15.965Z</time></trkpt><trkpt lat="44.2415111" lon="10.6563119"><ele>695.0</ele><time>2026-04-18T11:11:16.965Z</time></trkpt><trkpt lat="44.241352" lon="10.6561978"><ele>695.0</ele><time>2026-04-18T11:11:17.965Z</time></trkpt><trkpt lat="44.2411919" lon="10.6560917"><ele>692.6666666666666</ele><time>2026-04-18T11:11:18.965Z</time></trkpt><trkpt lat="44.2410212" lon="10.6559973"><ele>690.3333333333334</ele><time>2026-04-18T11:11:19.964Z</time></trkpt><trkpt lat="44.240848" lon="10.6559199"><ele>688.0</ele><time>2026-04-18T11:11:20.964Z</time></trkpt><trkpt lat="44.2406691" lon="10.6558453"><ele>690.6666666666667</ele><time>2026-04-18T11:11:21.964Z</time></trkpt><trkpt lat="44.2405043" lon="10.6557794"><ele>693.3333333333334</ele><time>2026-04-18T11:11:22.964Z</time></trkpt><trkpt lat="44.2403478" lon="10.6557129"><ele>696.0</ele><time>2026-04-18T11:11:23.964Z</time></trkpt><trkpt lat="44.2402004" lon="10.655653"><ele>696.0</ele><time>2026-04-18T11:11:24.964Z</time></trkpt><trkpt lat="44.2400552" lon="10.6555944"><ele>696.0</ele><time>2026-04-18T11:11:25.964Z</time></trkpt><trkpt lat="44.2399037" lon="10.6555378"><ele>696.0</ele><time>2026-04-18T11:11:26.965Z</time></trkpt><trkpt lat="44.2397493" lon="10.6554941"><ele>697.3333333333334</ele><time>2026-04-18T11:11:27.964Z</time></trkpt><trkpt lat="44.2395863" lon="10.6554656"><ele>698.6666666666667</ele><time>2026-04-18T11:11:28.964Z</time></trkpt><trkpt lat="44.2394237" lon="10.6554621"><ele>700.0</ele><time>2026-04-18T11:11:29.965Z</time></trkpt><trkpt lat="44.2392549" lon="10.6554709"><ele>700.0</ele><time>2026-04-18T11:11:30.965Z</time></trkpt><trkpt lat="44.2390923" lon="10.6554873"><ele>700.0</ele><time>2026-04-18T11:11:31.965Z</time></trkpt><trkpt lat="44.2389331" lon="10.6555029"><ele>700.0</ele><time>2026-04-18T11:11:32.965Z</time></trkpt><trkpt lat="44.238773" lon="10.655516"><ele>700.6666666666667</ele><time>2026-04-18T11:11:33.964Z</time></trkpt><trkpt lat="44.2386146" lon="10.6555132"><ele>701.3333333333334</ele><time>2026-04-18T11:11:34.965Z</time></trkpt><trkpt lat="44.238456" lon="10.6554796"><ele>702.0</ele><time>2026-04-18T11:11:35.964Z</time></trkpt><trkpt lat="44.238306" lon="10.6554205"><ele>702.0</ele><time>2026-04-18T11:11:36.965Z</time></trkpt><trkpt lat="44.2381594" lon="10.6553508"><ele>702.0</ele><time>2026-04-18T11:11:37.964Z</time></trkpt><trkpt lat="44.2380504" lon="10.6551837"><ele>702.0</ele><time>2026-04-18T11:11:38.965Z</time></trkpt><trkpt lat="44.2379611" lon="10.6550056"><ele>707.3333333333334</ele><time>2026-04-18T11:11:39.964Z</time></trkpt><trkpt lat="44.2379081" lon="10.6547935"><ele>712.6666666666667</ele><time>2026-04-18T11:11:40.964Z</time></trkpt><trkpt lat="44.2378888" lon="10.6545712"><ele>718.0</ele><time>2026-04-18T11:11:41.964Z</time></trkpt><trkpt lat="44.2378845" lon="10.6543543"><ele>718.0</ele><time>2026-04-18T11:11:42.964Z</time></trkpt><trkpt lat="44.2378712" lon="10.6541392"><ele>718.0</ele><time>2026-04-18T11:11:43.964Z</time></trkpt><trkpt lat="44.2378347" lon="10.6539329"><ele>718.0</ele><time>2026-04-18T11:11:44.964Z</time></trkpt><trkpt lat="44.2377633" lon="10.6537485"><ele>707.0</ele><time>2026-04-18T11:11:45.965Z</time></trkpt><trkpt lat="44.23766" lon="10.6535929"><ele>696.0</ele><time>2026-04-18T11:11:46.965Z</time></trkpt><trkpt lat="44.2375339" lon="10.6534744"><ele>685.0</ele><time>2026-04-18T11:11:47.965Z</time></trkpt><trkpt lat="44.2373866" lon="10.6534057"><ele>686.3333333333334</ele><time>2026-04-18T11:11:48.965Z</time></trkpt><trkpt lat="44.2372345" lon="10.6533769"><ele>687.6666666666666</ele><time>2026-04-18T11:11:49.964Z</time></trkpt><trkpt lat="44.2370762" lon="10.6533792"><ele>689.0</ele><time>2026-04-18T11:11:50.965Z</time></trkpt><trkpt lat="44.2369156" lon="10.6533967"><ele>689.0</ele><time>2026-04-18T11:11:51.965Z</time></trkpt><trkpt lat="44.2367581" lon="10.6534348"><ele>689.0</ele><time>2026-04-18T11:11:52.965Z</time></trkpt><trkpt lat="44.2366024" lon="10.6534946"><ele>689.0</ele><time>2026-04-18T11:11:53.964Z</time></trkpt><trkpt lat="44.2364469" lon="10.6535658"><ele>697.3333333333333</ele><time>2026-04-18T11:11:54.965Z</time></trkpt><trkpt lat="44.2362926" lon="10.6536431"><ele>705.6666666666666</ele><time>2026-04-18T11:11:55.964Z</time></trkpt><trkpt lat="44.2361335" lon="10.6537087"><ele>714.0</ele><time>2026-04-18T11:11:56.964Z</time></trkpt><trkpt lat="44.2359694" lon="10.6537569"><ele>714.0</ele><time>2026-04-18T11:11:57.964Z</time></trkpt><trkpt lat="44.2358037" lon="10.6537993"><ele>714.0</ele><time>2026-04-18T11:11:58.964Z</time></trkpt><trkpt lat="44.2356386" lon="10.6538313"><ele>714.0</ele><time>2026-04-18T11:11:59.965Z</time></trkpt><trkpt lat="44.2354756" lon="10.6538649"><ele>712.0</ele><time>2026-04-18T11:12:00.965Z</time></trkpt><trkpt lat="44.235315" lon="10.653913"><ele>710.0</ele><time>2026-04-18T11:12:01.965Z</time></trkpt><trkpt lat="44.2351557" lon="10.6539818"><ele>708.0</ele><time>2026-04-18T11:12:02.964Z</time></trkpt><trkpt lat="44.2350062" lon="10.6540804"><ele>708.0</ele><time>2026-04-18T11:12:03.964Z</time></trkpt><trkpt lat="44.2348656" lon="10.6541924"><ele>708.0</ele><time>2026-04-18T11:12:04.965Z</time></trkpt><trkpt lat="44.2347282" lon="10.6543086"><ele>708.0</ele><time>2026-04-18T11:12:05.964Z</time></trkpt><trkpt lat="44.2345914" lon="10.6544321"><ele>712.0</ele><time>2026-04-18T11:12:06.964Z</time></trkpt><trkpt lat="44.2344595" lon="10.6545639"><ele>716.0</ele><time>2026-04-18T11:12:07.965Z</time></trkpt><trkpt lat="44.2343305" lon="10.654699"><ele>720.0</ele><time>2026-04-18T11:12:08.965Z</time></trkpt><trkpt lat="44.2342019" lon="10.6548321"><ele>720.0</ele><time>2026-04-18T11:12:09.965Z</time></trkpt><trkpt lat="44.2340748" lon="10.65496"><ele>720.0</ele><time>2026-04-18T11:12:10.964Z</time></trkpt><trkpt lat="44.2339425" lon="10.6550728"><ele>720.0</ele><time>2026-04-18T11:12:11.965Z</time></trkpt><trkpt lat="44.2338049" lon="10.6551625"><ele>719.5</ele><time>2026-04-18T11:12:12.965Z</time></trkpt><trkpt lat="44.2336646" lon="10.6552253"><ele>719.0</ele><time>2026-04-18T11:12:13.964Z</time></trkpt><trkpt lat="44.2335435" lon="10.6552627"><ele>718.5</ele><time>2026-04-18T11:12:14.965Z</time></trkpt><trkpt lat="44.2334444" lon="10.6552772"><ele>718.0</ele><time>2026-04-18T11:12:15.965Z</time></trkpt><trkpt lat="44.2333572" lon="10.6552735"><ele>718.0</ele><time>2026-04-18T11:12:16.964Z</time></trkpt><trkpt lat="44.2332866" lon="10.6552448"><ele>718.0</ele><time>2026-04-18T11:12:17.965Z</time></trkpt><trkpt lat="44.2332094" lon="10.6551604"><ele>718.0</ele><time>2026-04-18T11:12:19.965Z</time></trkpt><trkpt lat="44.2331283" lon="10.6550475"><ele>718.0</ele><time>2026-04-18T11:12:21.965Z</time></trkpt><trkpt lat="44.2330936" lon="10.6549551"><ele>718.0</ele><time>2026-04-18T11:12:22.964Z</time></trkpt><trkpt lat="44.2330675" lon="10.654834"><ele>718.8</ele><time>2026-04-18T11:12:23.964Z</time></trkpt><trkpt lat="44.2330497" lon="10.6546941"><ele>719.5999999999999</ele><time>2026-04-18T11:12:24.964Z</time></trkpt><trkpt lat="44.2330333" lon="10.6545397"><ele>720.4000000000001</ele><time>2026-04-18T11:12:25.965Z</time></trkpt><trkpt lat="44.233016" lon="10.6543769"><ele>721.2</ele><time>2026-04-18T11:12:26.964Z</time></trkpt><trkpt lat="44.2329979" lon="10.6542239"><ele>722.0</ele><time>2026-04-18T11:12:27.964Z</time></trkpt><trkpt lat="44.2329816" lon="10.6540908"><ele>720.3333333333333</ele><time>2026-04-18T11:12:28.965Z</time></trkpt><trkpt lat="44.2329708" lon="10.6539726"><ele>718.6666666666666</ele><time>2026-04-18T11:12:29.964Z</time></trkpt><trkpt lat="44.2329516" lon="10.653856"><ele>717.0</ele><time>2026-04-18T11:12:30.964Z</time></trkpt><trkpt lat="44.2329206" lon="10.6537387"><ele>715.3333333333334</ele><time>2026-04-18T11:12:31.964Z</time></trkpt><trkpt lat="44.2328784" lon="10.6536202"><ele>713.6666666666667</ele><time>2026-04-18T11:12:32.965Z</time></trkpt><trkpt lat="44.2328307" lon="10.6535118"><ele>712.0</ele><time>2026-04-18T11:12:33.964Z</time></trkpt><trkpt lat="44.232776" lon="10.6534259"><ele>712.0</ele><time>2026-04-18T11:12:34.964Z</time></trkpt><trkpt lat="44.2327101" lon="10.6533767"><ele>712.0</ele><time>2026-04-18T11:12:35.965Z</time></trkpt><trkpt lat="44.2326479" lon="10.6533529"><ele>712.0</ele><time>2026-04-18T11:12:36.965Z</time></trkpt><trkpt lat="44.2325717" lon="10.6534098"><ele>712.0</ele><time>2026-04-18T11:12:37.965Z</time></trkpt><trkpt lat="44.2325141" lon="10.6534825"><ele>712.0</ele><time>2026-04-18T11:12:38.964Z</time></trkpt><trkpt lat="44.2324632" lon="10.6536022"><ele>712.0</ele><time>2026-04-18T11:12:39.964Z</time></trkpt><trkpt lat="44.2324049" lon="10.6537551"><ele>712.0</ele><time>2026-04-18T11:12:40.964Z</time></trkpt><trkpt lat="44.2323426" lon="10.6539049"><ele>712.0</ele><time>2026-04-18T11:12:41.964Z</time></trkpt><trkpt lat="44.2322694" lon="10.6540467"><ele>712.0</ele><time>2026-04-18T11:12:42.964Z</time></trkpt><trkpt lat="44.2321882" lon="10.6541739"><ele>712.0</ele><time>2026-04-18T11:12:43.965Z</time></trkpt><trkpt lat="44.2320918" lon="10.6542689"><ele>712.0</ele><time>2026-04-18T11:12:44.964Z</time></trkpt><trkpt lat="44.2320017" lon="10.6543502"><ele>712.0</ele><time>2026-04-18T11:12:45.964Z</time></trkpt><trkpt lat="44.2319152" lon="10.6544141"><ele>712.0</ele><time>2026-04-18T11:12:46.964Z</time></trkpt><trkpt lat="44.2318315" lon="10.6544665"><ele>712.0</ele><time>2026-04-18T11:12:47.965Z</time></trkpt><trkpt lat="44.2317531" lon="10.6545173"><ele>712.0</ele><time>2026-04-18T11:12:48.964Z</time></trkpt><trkpt lat="44.2316755" lon="10.6545514"><ele>712.0</ele><time>2026-04-18T11:12:49.965Z</time></trkpt><trkpt lat="44.231604" lon="10.6545368"><ele>712.0</ele><time>2026-04-18T11:12:50.965Z</time></trkpt><trkpt lat="44.2315359" lon="10.6545126"><ele>712.0</ele><time>2026-04-18T11:12:51.964Z</time></trkpt><trkpt lat="44.2314954" lon="10.6543849"><ele>712.0</ele><time>2026-04-18T11:12:52.965Z</time></trkpt><trkpt lat="44.2314504" lon="10.654268"><ele>712.0</ele><time>2026-04-18T11:12:53.965Z</time></trkpt><trkpt lat="44.2314138" lon="10.6541301"><ele>712.0</ele><time>2026-04-18T11:12:54.965Z</time></trkpt><trkpt lat="44.2313726" lon="10.6539912"><ele>712.6</ele><time>2026-04-18T11:12:55.964Z</time></trkpt><trkpt lat="44.2313413" lon="10.653856"><ele>713.2</ele><time>2026-04-18T11:12:56.965Z</time></trkpt><trkpt lat="44.231316" lon="10.6537254"><ele>713.8</ele><time>2026-04-18T11:12:57.965Z</time></trkpt><trkpt lat="44.2313266" lon="10.6536002"><ele>714.4</ele><time>2026-04-18T11:12:58.965Z</time></trkpt><trkpt lat="44.2313732" lon="10.6534817"><ele>715.0</ele><time>2026-04-18T11:12:59.964Z</time></trkpt><trkpt lat="44.2314333" lon="10.6533603"><ele>713.2</ele><time>2026-04-18T11:13:00.965Z</time></trkpt><trkpt lat="44.231499" lon="10.653237"><ele>711.4</ele><time>2026-04-18T11:13:01.965Z</time></trkpt><trkpt lat="44.2315684" lon="10.6531076"><ele>709.5999999999999</ele><time>2026-04-18T11:13:02.965Z</time></trkpt><trkpt lat="44.2316365" lon="10.6529816"><ele>707.8</ele><time>2026-04-18T11:13:03.964Z</time></trkpt><trkpt lat="44.2316968" lon="10.652857"><ele>706.0</ele><time>2026-04-18T11:13:04.964Z</time></trkpt><trkpt lat="44.2317508" lon="10.6527432"><ele>706.0</ele><time>2026-04-18T11:13:05.964Z</time></trkpt><trkpt lat="44.2317922" lon="10.652631"><ele>706.0</ele><time>2026-04-18T11:13:06.964Z</time></trkpt><trkpt lat="44.2318172" lon="10.6525118"><ele>706.0</ele><time>2026-04-18T11:13:07.964Z</time></trkpt><trkpt lat="44.231826" lon="10.6523909"><ele>706.0</ele><time>2026-04-18T11:13:08.964Z</time></trkpt><trkpt lat="44.2318038" lon="10.6522776"><ele>706.0</ele><time>2026-04-18T11:13:09.964Z</time></trkpt><trkpt lat="44.2317863" lon="10.6521675"><ele>706.0</ele><time>2026-04-18T11:13:10.964Z</time></trkpt><trkpt lat="44.2317735" lon="10.6520589"><ele>705.6666666666667</ele><time>2026-04-18T11:13:11.964Z</time></trkpt><trkpt lat="44.2317623" lon="10.6519539"><ele>705.3333333333334</ele><time>2026-04-18T11:13:12.964Z</time></trkpt><trkpt lat="44.2317488" lon="10.6518441"><ele>705.0</ele><time>2026-04-18T11:13:13.965Z</time></trkpt><trkpt lat="44.2317403" lon="10.6517389"><ele>704.6666666666666</ele><time>2026-04-18T11:13:14.965Z</time></trkpt><trkpt lat="44.2317366" lon="10.6516348"><ele>704.3333333333333</ele><time>2026-04-18T11:13:15.965Z</time></trkpt><trkpt lat="44.2317412" lon="10.6515212"><ele>704.0</ele><time>2026-04-18T11:13:16.965Z</time></trkpt><trkpt lat="44.2317439" lon="10.6514058"><ele>704.0</ele><time>2026-04-18T11:13:17.964Z</time></trkpt><trkpt lat="44.231743" lon="10.651287"><ele>704.0</ele><time>2026-04-18T11:13:18.964Z</time></trkpt><trkpt lat="44.2317679" lon="10.6511689"><ele>704.0</ele><time>2026-04-18T11:13:19.965Z</time></trkpt><trkpt lat="44.2318044" lon="10.6510502"><ele>704.0</ele><time>2026-04-18T11:13:20.965Z</time></trkpt><trkpt lat="44.2318483" lon="10.6509427"><ele>704.0</ele><time>2026-04-18T11:13:21.964Z</time></trkpt><trkpt lat="44.2318917" lon="10.6508437"><ele>704.0</ele><time>2026-04-18T11:13:22.964Z</time></trkpt><trkpt lat="44.2319302" lon="10.6507485"><ele>703.6666666666666</ele><time>2026-04-18T11:13:23.965Z</time></trkpt><trkpt lat="44.2319699" lon="10.6506573"><ele>703.3333333333333</ele><time>2026-04-18T11:13:24.965Z</time></trkpt><trkpt lat="44.2320281" lon="10.6505192"><ele>703.0</ele><time>2026-04-18T11:13:26.964Z</time></trkpt><trkpt lat="44.2320685" lon="10.650408"><ele>702.6666666666666</ele><time>2026-04-18T11:13:28.964Z</time></trkpt><trkpt lat="44.2321016" lon="10.6502864"><ele>702.3333333333334</ele><time>2026-04-18T11:13:30.965Z</time></trkpt><trkpt lat="44.2321268" lon="10.6501886"><ele>702.0</ele><time>2026-04-18T11:13:33.965Z</time></trkpt><trkpt lat="44.2321041" lon="10.6500987"><ele>702.0</ele><time>2026-04-18T11:13:47.965Z</time></trkpt><trkpt lat="44.2320821" lon="10.6502502"><ele>702.0</ele><time>2026-04-18T11:13:50.964Z</time></trkpt><trkpt lat="44.2320503" lon="10.650354"><ele>702.0</ele><time>2026-04-18T11:13:51.964Z</time></trkpt><trkpt lat="44.2320109" lon="10.6504735"><ele>702.0</ele><time>2026-04-18T11:13:52.965Z</time></trkpt><trkpt lat="44.2319502" lon="10.6506139"><ele>702.0</ele><time>2026-04-18T11:13:53.964Z</time></trkpt><trkpt lat="44.2318876" lon="10.6507485"><ele>702.0</ele><time>2026-04-18T11:13:54.964Z</time></trkpt><trkpt lat="44.2318296" lon="10.6508793"><ele>702.0</ele><time>2026-04-18T11:13:55.964Z</time></trkpt><trkpt lat="44.2317891" lon="10.6509881"><ele>702.0</ele><time>2026-04-18T11:13:56.964Z</time></trkpt><trkpt lat="44.2317598" lon="10.6510751"><ele>702.0</ele><time>2026-04-18T11:13:57.965Z</time></trkpt><trkpt lat="44.2317344" lon="10.6511601"><ele>702.0</ele><time>2026-04-18T11:13:58.965Z</time></trkpt><trkpt lat="44.2317196" lon="10.6513173"><ele>702.0</ele><time>2026-04-18T11:14:00.964Z</time></trkpt><trkpt lat="44.2317222" lon="10.651478"><ele>702.3333333333334</ele><time>2026-04-18T11:14:02.964Z</time></trkpt><trkpt lat="44.231727" lon="10.6515771"><ele>702.6666666666666</ele><time>2026-04-18T11:14:03.965Z</time></trkpt><trkpt lat="44.2317358" lon="10.6516839"><ele>703.0</ele><time>2026-04-18T11:14:04.965Z</time></trkpt><trkpt lat="44.2317444" lon="10.6517957"><ele>703.3333333333333</ele><time>2026-04-18T11:14:05.965Z</time></trkpt><trkpt lat="44.231752" lon="10.6518883"><ele>703.6666666666666</ele><time>2026-04-18T11:14:06.965Z</time></trkpt><trkpt lat="44.2317531" lon="10.6520436"><ele>704.0</ele><time>2026-04-18T11:14:08.964Z</time></trkpt><trkpt lat="44.2317756" lon="10.6522189"><ele>704.3333333333333</ele><time>2026-04-18T11:14:10.965Z</time></trkpt><trkpt lat="44.2318029" lon="10.6523172"><ele>704.6666666666666</ele><time>2026-04-18T11:14:11.965Z</time></trkpt><trkpt lat="44.2318065" lon="10.6524349"><ele>705.0</ele><time>2026-04-18T11:14:12.964Z</time></trkpt><trkpt lat="44.2318012" lon="10.6525572"><ele>705.3333333333334</ele><time>2026-04-18T11:14:13.964Z</time></trkpt><trkpt lat="44.231767" lon="10.6526776"><ele>705.6666666666667</ele><time>2026-04-18T11:14:14.964Z</time></trkpt><trkpt lat="44.2317122" lon="10.652792"><ele>706.0</ele><time>2026-04-18T11:14:15.965Z</time></trkpt><trkpt lat="44.2316484" lon="10.6529072"><ele>704.4</ele><time>2026-04-18T11:14:16.964Z</time></trkpt><trkpt lat="44.2315788" lon="10.6530317"><ele>702.8</ele><time>2026-04-18T11:14:17.964Z</time></trkpt><trkpt lat="44.2315045" lon="10.6531564"><ele>701.1999999999999</ele><time>2026-04-18T11:14:18.965Z</time></trkpt><trkpt lat="44.2314376" lon="10.6532754"><ele>699.5999999999999</ele><time>2026-04-18T11:14:19.964Z</time></trkpt><trkpt lat="44.2313794" lon="10.6533841"><ele>698.0</ele><time>2026-04-18T11:14:20.964Z</time></trkpt><trkpt lat="44.231324" lon="10.6534852"><ele>701.4</ele><time>2026-04-18T11:14:21.964Z</time></trkpt><trkpt lat="44.2312917" lon="10.6535965"><ele>704.8</ele><time>2026-04-18T11:14:22.965Z</time></trkpt><trkpt lat="44.2312967" lon="10.6537243"><ele>708.2</ele><time>2026-04-18T11:14:23.964Z</time></trkpt><trkpt lat="44.2313297" lon="10.65386"><ele>711.6</ele><time>2026-04-18T11:14:24.965Z</time></trkpt><trkpt lat="44.2313653" lon="10.6540052"><ele>715.0</ele><time>2026-04-18T11:14:25.964Z</time></trkpt><trkpt lat="44.2314058" lon="10.6541624"><ele>715.0</ele><time>2026-04-18T11:14:26.964Z</time></trkpt><trkpt lat="44.2314476" lon="10.654313"><ele>715.0</ele><time>2026-04-18T11:14:27.964Z</time></trkpt><trkpt lat="44.2314979" lon="10.6544422"><ele>715.0</ele><time>2026-04-18T11:14:28.964Z</time></trkpt><trkpt lat="44.2315664" lon="10.6545309"><ele>715.0</ele><time>2026-04-18T11:14:29.964Z</time></trkpt><trkpt lat="44.231643" lon="10.6545695"><ele>715.0</ele><time>2026-04-18T11:14:30.965Z</time></trkpt><trkpt lat="44.2317227" lon="10.6545622"><ele>714.4</ele><time>2026-04-18T11:14:31.964Z</time></trkpt><trkpt lat="44.2318086" lon="10.6545212"><ele>713.8</ele><time>2026-04-18T11:14:32.965Z</time></trkpt><trkpt lat="44.2319028" lon="10.6544546"><ele>713.2</ele><time>2026-04-18T11:14:33.964Z</time></trkpt><trkpt lat="44.2320078" lon="10.6543799"><ele>712.6</ele><time>2026-04-18T11:14:34.965Z</time></trkpt><trkpt lat="44.2321148" lon="10.6542971"><ele>712.0</ele><time>2026-04-18T11:14:35.964Z</time></trkpt><trkpt lat="44.2322118" lon="10.654191"><ele>712.0</ele><time>2026-04-18T11:14:36.965Z</time></trkpt><trkpt lat="44.2322929" lon="10.6540636"><ele>712.0</ele><time>2026-04-18T11:14:37.964Z</time></trkpt><trkpt lat="44.2323567" lon="10.653917"><ele>712.0</ele><time>2026-04-18T11:14:38.965Z</time></trkpt><trkpt lat="44.2324128" lon="10.6537787"><ele>712.0</ele><time>2026-04-18T11:14:39.965Z</time></trkpt><trkpt lat="44.2324596" lon="10.6536526"><ele>710.3333333333334</ele><time>2026-04-18T11:14:40.964Z</time></trkpt><trkpt lat="44.2325053" lon="10.6535516"><ele>708.6666666666667</ele><time>2026-04-18T11:14:41.964Z</time></trkpt><trkpt lat="44.2325493" lon="10.6534571"><ele>707.0</ele><time>2026-04-18T11:14:42.964Z</time></trkpt><trkpt lat="44.2326197" lon="10.6534172"><ele>705.3333333333334</ele><time>2026-04-18T11:14:43.964Z</time></trkpt><trkpt lat="44.2326928" lon="10.653419"><ele>703.6666666666666</ele><time>2026-04-18T11:14:44.965Z</time></trkpt><trkpt lat="44.2327637" lon="10.6534761"><ele>702.0</ele><time>2026-04-18T11:14:45.965Z</time></trkpt><trkpt lat="44.232822" lon="10.6535654"><ele>704.0</ele><time>2026-04-18T11:14:46.964Z</time></trkpt><trkpt lat="44.2328678" lon="10.6536844"><ele>706.0</ele><time>2026-04-18T11:14:47.964Z</time></trkpt><trkpt lat="44.2329114" lon="10.6538194"><ele>708.0</ele><time>2026-04-18T11:14:48.965Z</time></trkpt><trkpt lat="44.2329389" lon="10.6539736"><ele>710.0</ele><time>2026-04-18T11:14:49.965Z</time></trkpt><trkpt lat="44.2329587" lon="10.6541362"><ele>712.0</ele><time>2026-04-18T11:14:50.965Z</time></trkpt><trkpt lat="44.2329776" lon="10.6543016"><ele>714.0</ele><time>2026-04-18T11:14:51.965Z</time></trkpt><trkpt lat="44.2329952" lon="10.654471"><ele>716.0</ele><time>2026-04-18T11:14:52.965Z</time></trkpt><trkpt lat="44.2330124" lon="10.6546349"><ele>718.0</ele><time>2026-04-18T11:14:53.965Z</time></trkpt><trkpt lat="44.2330306" lon="10.6547843"><ele>720.0</ele><time>2026-04-18T11:14:54.964Z</time></trkpt><trkpt lat="44.2330501" lon="10.6549131"><ele>722.0</ele><time>2026-04-18T11:14:55.965Z</time></trkpt><trkpt lat="44.2330667" lon="10.6550225"><ele>722.0</ele><time>2026-04-18T11:14:56.965Z</time></trkpt><trkpt lat="44.2330707" lon="10.6551142"><ele>722.0</ele><time>2026-04-18T11:14:57.965Z</time></trkpt><trkpt lat="44.2330593" lon="10.6552506"><ele>722.0</ele><time>2026-04-18T11:14:59.965Z</time></trkpt><trkpt lat="44.2330145" lon="10.6553284"><ele>722.0</ele><time>2026-04-18T11:15:04.964Z</time></trkpt><trkpt lat="44.2328929" lon="10.655405"><ele>722.0</ele><time>2026-04-18T11:15:06.964Z</time></trkpt><trkpt lat="44.2327957" lon="10.6554366"><ele>723.25</ele><time>2026-04-18T11:15:07.964Z</time></trkpt><trkpt lat="44.2326876" lon="10.6554965"><ele>724.5</ele><time>2026-04-18T11:15:08.964Z</time></trkpt><trkpt lat="44.2325886" lon="10.6555938"><ele>725.75</ele><time>2026-04-18T11:15:09.965Z</time></trkpt><trkpt lat="44.2325084" lon="10.655721"><ele>727.0</ele><time>2026-04-18T11:15:10.965Z</time></trkpt><trkpt lat="44.2324407" lon="10.6558642"><ele>727.0</ele><time>2026-04-18T11:15:11.964Z</time></trkpt><trkpt lat="44.2323673" lon="10.6559859"><ele>727.0</ele><time>2026-04-18T11:15:12.965Z</time></trkpt><trkpt lat="44.2322815" lon="10.6560865"><ele>727.0</ele><time>2026-04-18T11:15:13.964Z</time></trkpt><trkpt lat="44.2321893" lon="10.6561642"><ele>727.0</ele><time>2026-04-18T11:15:14.964Z</time></trkpt><trkpt lat="44.2320657" lon="10.65616"><ele>726.2</ele><time>2026-04-18T11:15:15.965Z</time></trkpt><trkpt lat="44.2319542" lon="10.6561452"><ele>725.4000000000001</ele><time>2026-04-18T11:15:16.965Z</time></trkpt><trkpt lat="44.2318548" lon="10.6560863"><ele>724.5999999999999</ele><time>2026-04-18T11:15:17.964Z</time></trkpt><trkpt lat="44.2317653" lon="10.6560083"><ele>723.8</ele><time>2026-04-18T11:15:18.964Z</time></trkpt><trkpt lat="44.2316831" lon="10.6559325"><ele>723.0</ele><time>2026-04-18T11:15:19.964Z</time></trkpt><trkpt lat="44.2315976" lon="10.6558623"><ele>723.0</ele><time>2026-04-18T11:15:20.964Z</time></trkpt><trkpt lat="44.231506" lon="10.6557948"><ele>723.0</ele><time>2026-04-18T11:15:21.964Z</time></trkpt><trkpt lat="44.2314101" lon="10.6557209"><ele>723.0</ele><time>2026-04-18T11:15:22.965Z</time></trkpt><trkpt lat="44.2313025" lon="10.6556472"><ele>723.0</ele><time>2026-04-18T11:15:23.964Z</time></trkpt><trkpt lat="44.2311875" lon="10.6555745"><ele>722.0</ele><time>2026-04-18T11:15:24.964Z</time></trkpt><trkpt lat="44.2310668" lon="10.655506"><ele>721.0</ele><time>2026-04-18T11:15:25.964Z</time></trkpt><trkpt lat="44.2309459" lon="10.6554392"><ele>720.0</ele><time>2026-04-18T11:15:26.965Z</time></trkpt><trkpt lat="44.2308297" lon="10.6553604"><ele>719.0</ele><time>2026-04-18T11:15:27.964Z</time></trkpt><trkpt lat="44.2307374" lon="10.6552483"><ele>719.0</ele><time>2026-04-18T11:15:28.964Z</time></trkpt><trkpt lat="44.2306685" lon="10.6551234"><ele>719.0</ele><time>2026-04-18T11:15:29.964Z</time></trkpt><trkpt lat="44.2306145" lon="10.6549877"><ele>719.0</ele><time>2026-04-18T11:15:30.964Z</time></trkpt><trkpt lat="44.2305763" lon="10.6548667"><ele>719.0</ele><time>2026-04-18T11:15:31.964Z</time></trkpt><trkpt lat="44.2305379" lon="10.6547624"><ele>719.0</ele><time>2026-04-18T11:15:32.964Z</time></trkpt><trkpt lat="44.2305022" lon="10.6546635"><ele>722.4000000000001</ele><time>2026-04-18T11:15:33.965Z</time></trkpt><trkpt lat="44.2304651" lon="10.6545521"><ele>725.8</ele><time>2026-04-18T11:15:34.964Z</time></trkpt><trkpt lat="44.2304263" lon="10.654429"><ele>729.2</ele><time>2026-04-18T11:15:35.964Z</time></trkpt><trkpt lat="44.2303858" lon="10.6542947"><ele>732.5999999999999</ele><time>2026-04-18T11:15:36.964Z</time></trkpt><trkpt lat="44.2303542" lon="10.6541551"><ele>736.0</ele><time>2026-04-18T11:15:37.965Z</time></trkpt><trkpt lat="44.2303597" lon="10.6540195"><ele>736.0</ele><time>2026-04-18T11:15:38.964Z</time></trkpt><trkpt lat="44.2303992" lon="10.6538916"><ele>736.0</ele><time>2026-04-18T11:15:39.964Z</time></trkpt><trkpt lat="44.2304631" lon="10.6537669"><ele>736.0</ele><time>2026-04-18T11:15:40.964Z</time></trkpt><trkpt lat="44.2305429" lon="10.6536359"><ele>736.0</ele><time>2026-04-18T11:15:41.964Z</time></trkpt><trkpt lat="44.2306268" lon="10.6535083"><ele>733.1999999999999</ele><time>2026-04-18T11:15:42.964Z</time></trkpt><trkpt lat="44.2307227" lon="10.6534028"><ele>730.4</ele><time>2026-04-18T11:15:43.965Z</time></trkpt><trkpt lat="44.2308251" lon="10.6533533"><ele>727.6</ele><time>2026-04-18T11:15:44.964Z</time></trkpt><trkpt lat="44.2309032" lon="10.6532696"><ele>724.8</ele><time>2026-04-18T11:15:45.965Z</time></trkpt><trkpt lat="44.2309598" lon="10.6531728"><ele>722.0</ele><time>2026-04-18T11:15:46.965Z</time></trkpt><trkpt lat="44.2309806" lon="10.6530503"><ele>722.0</ele><time>2026-04-18T11:15:47.964Z</time></trkpt><trkpt lat="44.2309785" lon="10.6529198"><ele>722.0</ele><time>2026-04-18T11:15:48.964Z</time></trkpt><trkpt lat="44.2309624" lon="10.6527762"><ele>722.0</ele><time>2026-04-18T11:15:49.965Z</time></trkpt><trkpt lat="44.2309415" lon="10.6526239"><ele>722.0</ele><time>2026-04-18T11:15:50.965Z</time></trkpt><trkpt lat="44.2309203" lon="10.6524671"><ele>722.0</ele><time>2026-04-18T11:15:51.965Z</time></trkpt><trkpt lat="44.2308957" lon="10.6523056"><ele>721.75</ele><time>2026-04-18T11:15:52.965Z</time></trkpt><trkpt lat="44.2308732" lon="10.6521453"><ele>721.5</ele><time>2026-04-18T11:15:53.964Z</time></trkpt><trkpt lat="44.2308527" lon="10.6519813"><ele>721.25</ele><time>2026-04-18T11:15:54.964Z</time></trkpt><trkpt lat="44.2308307" lon="10.6518254"><ele>721.0</ele><time>2026-04-18T11:15:55.965Z</time></trkpt><trkpt lat="44.2308097" lon="10.6516651"><ele>721.0</ele><time>2026-04-18T11:15:56.965Z</time></trkpt><trkpt lat="44.2307862" lon="10.6515119"><ele>721.0</ele><time>2026-04-18T11:15:57.964Z</time></trkpt><trkpt lat="44.2307663" lon="10.6513534"><ele>721.0</ele><time>2026-04-18T11:15:58.964Z</time></trkpt><trkpt lat="44.2307428" lon="10.651188"><ele>721.0</ele><time>2026-04-18T11:15:59.964Z</time></trkpt><trkpt lat="44.2307313" lon="10.6510264"><ele>720.5999999999999</ele><time>2026-04-18T11:16:00.964Z</time></trkpt><trkpt lat="44.2307293" lon="10.6508663"><ele>720.2</ele><time>2026-04-18T11:16:01.964Z</time></trkpt><trkpt lat="44.230741" lon="10.6507203"><ele>719.8</ele><time>2026-04-18T11:16:02.965Z</time></trkpt><trkpt lat="44.2307618" lon="10.6505767"><ele>719.4000000000001</ele><time>2026-04-18T11:16:03.965Z</time></trkpt><trkpt lat="44.2307853" lon="10.6504635"><ele>719.0</ele><time>2026-04-18T11:16:04.964Z</time></trkpt><trkpt lat="44.2308125" lon="10.6503596"><ele>719.6</ele><time>2026-04-18T11:16:05.965Z</time></trkpt><trkpt lat="44.2308365" lon="10.650274"><ele>720.2</ele><time>2026-04-18T11:16:06.964Z</time></trkpt><trkpt lat="44.2308609" lon="10.6501707"><ele>720.8000000000001</ele><time>2026-04-18T11:16:08.964Z</time></trkpt><trkpt lat="44.2308623" lon="10.6499913"><ele>721.4000000000001</ele><time>2026-04-18T11:19:41.964Z</time></trkpt><trkpt lat="44.2308552" lon="10.6498143"><ele>722.0</ele><time>2026-04-18T11:19:43.964Z</time></trkpt><trkpt lat="44.2308424" lon="10.6497063"><ele>722.0</ele><time>2026-04-18T11:19:44.964Z</time></trkpt><trkpt lat="44.230813" lon="10.649589"><ele>722.0</ele><time>2026-04-18T11:19:45.965Z</time></trkpt><trkpt lat="44.2307665" lon="10.6494624"><ele>722.0</ele><time>2026-04-18T11:19:46.965Z</time></trkpt><trkpt lat="44.2307067" lon="10.6493291"><ele>722.0</ele><time>2026-04-18T11:19:47.964Z</time></trkpt><trkpt lat="44.2306151" lon="10.6491913"><ele>722.0</ele><time>2026-04-18T11:19:48.964Z</time></trkpt><trkpt lat="44.2305085" lon="10.6490866"><ele>724.6666666666666</ele><time>2026-04-18T11:19:49.965Z</time></trkpt><trkpt lat="44.2303726" lon="10.649023"><ele>727.3333333333334</ele><time>2026-04-18T11:19:50.964Z</time></trkpt><trkpt lat="44.2302167" lon="10.6490013"><ele>730.0</ele><time>2026-04-18T11:19:51.965Z</time></trkpt><trkpt lat="44.2300513" lon="10.6489978"><ele>730.0</ele><time>2026-04-18T11:19:52.965Z</time></trkpt><trkpt lat="44.2298916" lon="10.6489496"><ele>730.0</ele><time>2026-04-18T11:19:53.964Z</time></trkpt><trkpt lat="44.2297407" lon="10.6488812"><ele>730.0</ele><time>2026-04-18T11:19:54.965Z</time></trkpt><trkpt lat="44.2295801" lon="10.6488404"><ele>734.0</ele><time>2026-04-18T11:19:55.964Z</time></trkpt><trkpt lat="44.2294186" lon="10.6488305"><ele>738.0</ele><time>2026-04-18T11:19:56.964Z</time></trkpt><trkpt lat="44.2292635" lon="10.6488188"><ele>742.0</ele><time>2026-04-18T11:19:57.964Z</time></trkpt><trkpt lat="44.22913" lon="10.6487577"><ele>742.0</ele><time>2026-04-18T11:19:58.964Z</time></trkpt><trkpt lat="44.2290012" lon="10.6486684"><ele>742.0</ele><time>2026-04-18T11:19:59.964Z</time></trkpt><trkpt lat="44.2288921" lon="10.6485489"><ele>742.0</ele><time>2026-04-18T11:20:00.965Z</time></trkpt><trkpt lat="44.2287991" lon="10.6483948"><ele>742.0</ele><time>2026-04-18T11:20:01.964Z</time></trkpt><trkpt lat="44.2287396" lon="10.6482067"><ele>741.75</ele><time>2026-04-18T11:20:02.964Z</time></trkpt><trkpt lat="44.2287046" lon="10.6480073"><ele>741.5</ele><time>2026-04-18T11:20:03.964Z</time></trkpt><trkpt lat="44.2286861" lon="10.6478295"><ele>741.25</ele><time>2026-04-18T11:20:04.964Z</time></trkpt><trkpt lat="44.2286579" lon="10.647657"><ele>741.0</ele><time>2026-04-18T11:20:05.964Z</time></trkpt><trkpt lat="44.2285953" lon="10.6474962"><ele>741.0</ele><time>2026-04-18T11:20:06.964Z</time></trkpt><trkpt lat="44.2285009" lon="10.6473429"><ele>741.0</ele><time>2026-04-18T11:20:07.964Z</time></trkpt><trkpt lat="44.2284139" lon="10.6471749"><ele>741.0</ele><time>2026-04-18T11:20:08.964Z</time></trkpt><trkpt lat="44.228341" lon="10.6469929"><ele>741.0</ele><time>2026-04-18T11:20:09.964Z</time></trkpt><trkpt lat="44.2282726" lon="10.6468365"><ele>737.0</ele><time>2026-04-18T11:20:10.965Z</time></trkpt><trkpt lat="44.2281755" lon="10.6467146"><ele>733.0</ele><time>2026-04-18T11:20:11.965Z</time></trkpt><trkpt lat="44.2280493" lon="10.6466247"><ele>729.0</ele><time>2026-04-18T11:20:12.965Z</time></trkpt><trkpt lat="44.2279239" lon="10.6465488"><ele>725.0</ele><time>2026-04-18T11:20:13.964Z</time></trkpt><trkpt lat="44.2278226" lon="10.6464607"><ele>732.75</ele><time>2026-04-18T11:20:14.965Z</time></trkpt><trkpt lat="44.2277497" lon="10.646343"><ele>740.5</ele><time>2026-04-18T11:20:15.964Z</time></trkpt><trkpt lat="44.2277095" lon="10.6461938"><ele>748.25</ele><time>2026-04-18T11:20:16.964Z</time></trkpt><trkpt lat="44.227721" lon="10.6460342"><ele>756.0</ele><time>2026-04-18T11:20:17.964Z</time></trkpt><trkpt lat="44.2277768" lon="10.6458967"><ele>756.0</ele><time>2026-04-18T11:20:18.964Z</time></trkpt><trkpt lat="44.2278599" lon="10.6457825"><ele>756.0</ele><time>2026-04-18T11:20:19.964Z</time></trkpt><trkpt lat="44.2279337" lon="10.6456652"><ele>756.0</ele><time>2026-04-18T11:20:20.964Z</time></trkpt><trkpt lat="44.2279458" lon="10.6455135"><ele>756.0</ele><time>2026-04-18T11:20:21.964Z</time></trkpt><trkpt lat="44.2279308" lon="10.6453491"><ele>755.0</ele><time>2026-04-18T11:20:22.964Z</time></trkpt><trkpt lat="44.2278912" lon="10.6451729"><ele>754.0</ele><time>2026-04-18T11:20:23.964Z</time></trkpt><trkpt lat="44.227844" lon="10.6449743"><ele>753.0</ele><time>2026-04-18T11:20:24.964Z</time></trkpt><trkpt lat="44.2277851" lon="10.6447754"><ele>752.0</ele><time>2026-04-18T11:20:25.964Z</time></trkpt><trkpt lat="44.2277182" lon="10.6445703"><ele>749.3333333333333</ele><time>2026-04-18T11:20:26.965Z</time></trkpt><trkpt lat="44.2276441" lon="10.6443693"><ele>746.6666666666666</ele><time>2026-04-18T11:20:27.964Z</time></trkpt><trkpt lat="44.2275426" lon="10.6442054"><ele>744.0</ele><time>2026-04-18T11:20:28.964Z</time></trkpt><trkpt lat="44.2274676" lon="10.6440416"><ele>744.0</ele><time>2026-04-18T11:20:29.965Z</time></trkpt><trkpt lat="44.2274015" lon="10.6438895"><ele>744.0</ele><time>2026-04-18T11:20:30.964Z</time></trkpt><trkpt lat="44.2273767" lon="10.6437237"><ele>744.0</ele><time>2026-04-18T11:20:31.965Z</time></trkpt><trkpt lat="44.2273527" lon="10.6435572"><ele>744.0</ele><time>2026-04-18T11:20:32.964Z</time></trkpt><trkpt lat="44.2274287" lon="10.6433905"><ele>742.75</ele><time>2026-04-18T11:20:33.964Z</time></trkpt><trkpt lat="44.2274312" lon="10.6431993"><ele>741.5</ele><time>2026-04-18T11:20:34.964Z</time></trkpt><trkpt lat="44.2274275" lon="10.6430013"><ele>740.25</ele><time>2026-04-18T11:20:35.964Z</time></trkpt><trkpt lat="44.2274205" lon="10.6427927"><ele>739.0</ele><time>2026-04-18T11:20:36.965Z</time></trkpt><trkpt lat="44.2274204" lon="10.642596"><ele>737.25</ele><time>2026-04-18T11:20:37.964Z</time></trkpt><trkpt lat="44.2274108" lon="10.6424161"><ele>735.5</ele><time>2026-04-18T11:20:38.964Z</time></trkpt><trkpt lat="44.2273869" lon="10.6422372"><ele>733.75</ele><time>2026-04-18T11:20:39.965Z</time></trkpt><trkpt lat="44.2273297" lon="10.6420876"><ele>732.0</ele><time>2026-04-18T11:20:40.964Z</time></trkpt><trkpt lat="44.2271841" lon="10.6420164"><ele>737.5</ele><time>2026-04-18T11:20:41.964Z</time></trkpt><trkpt lat="44.2270597" lon="10.6419515"><ele>743.0</ele><time>2026-04-18T11:20:42.965Z</time></trkpt><trkpt lat="44.2269297" lon="10.6419069"><ele>748.5</ele><time>2026-04-18T11:20:43.965Z</time></trkpt><trkpt lat="44.2268035" lon="10.6418483"><ele>754.0</ele><time>2026-04-18T11:20:44.965Z</time></trkpt><trkpt lat="44.2267085" lon="10.6417466"><ele>754.0</ele><time>2026-04-18T11:20:45.964Z</time></trkpt><trkpt lat="44.2266532" lon="10.6415921"><ele>754.0</ele><time>2026-04-18T11:20:46.965Z</time></trkpt><trkpt lat="44.22661" lon="10.6414179"><ele>754.0</ele><time>2026-04-18T11:20:47.964Z</time></trkpt><trkpt lat="44.2265614" lon="10.6412203"><ele>754.0</ele><time>2026-04-18T11:20:48.964Z</time></trkpt><trkpt lat="44.2264982" lon="10.6410201"><ele>764.0</ele><time>2026-04-18T11:20:49.965Z</time></trkpt><trkpt lat="44.2264403" lon="10.6408092"><ele>774.0</ele><time>2026-04-18T11:20:50.965Z</time></trkpt><trkpt lat="44.2263778" lon="10.6406073"><ele>784.0</ele><time>2026-04-18T11:20:51.964Z</time></trkpt><trkpt lat="44.2263019" lon="10.6404103"><ele>779.25</ele><time>2026-04-18T11:20:52.964Z</time></trkpt><trkpt lat="44.2262172" lon="10.6402343"><ele>774.5</ele><time>2026-04-18T11:20:53.964Z</time></trkpt><trkpt lat="44.2261244" lon="10.6400924"><ele>769.75</ele><time>2026-04-18T11:20:54.964Z</time></trkpt><trkpt lat="44.2260476" lon="10.639958"><ele>765.0</ele><time>2026-04-18T11:20:55.965Z</time></trkpt><trkpt lat="44.2260103" lon="10.6398024"><ele>765.0</ele><time>2026-04-18T11:20:56.964Z</time></trkpt><trkpt lat="44.2260085" lon="10.6396434"><ele>765.0</ele><time>2026-04-18T11:20:57.964Z</time></trkpt><trkpt lat="44.2259875" lon="10.6394725"><ele>765.0</ele><time>2026-04-18T11:20:58.964Z</time></trkpt><trkpt lat="44.2259302" lon="10.6393136"><ele>765.0</ele><time>2026-04-18T11:20:59.964Z</time></trkpt><trkpt lat="44.2258423" lon="10.6391668"><ele>759.3333333333334</ele><time>2026-04-18T11:21:00.964Z</time></trkpt><trkpt lat="44.225733" lon="10.6390259"><ele>753.6666666666667</ele><time>2026-04-18T11:21:01.964Z</time></trkpt><trkpt lat="44.2256214" lon="10.6388793"><ele>748.0</ele><time>2026-04-18T11:21:02.964Z</time></trkpt><trkpt lat="44.2255136" lon="10.6387196"><ele>750.3333333333334</ele><time>2026-04-18T11:21:03.965Z</time></trkpt><trkpt lat="44.2253939" lon="10.6385686"><ele>752.6666666666666</ele><time>2026-04-18T11:21:04.964Z</time></trkpt><trkpt lat="44.225258" lon="10.6384355"><ele>755.0</ele><time>2026-04-18T11:21:05.964Z</time></trkpt><trkpt lat="44.2251142" lon="10.638314"><ele>755.0</ele><time>2026-04-18T11:21:06.965Z</time></trkpt><trkpt lat="44.2249804" lon="10.6381781"><ele>755.0</ele><time>2026-04-18T11:21:07.964Z</time></trkpt><trkpt lat="44.2248726" lon="10.6380208"><ele>755.0</ele><time>2026-04-18T11:21:08.964Z</time></trkpt><trkpt lat="44.2247862" lon="10.6378608"><ele>752.25</ele><time>2026-04-18T11:21:09.964Z</time></trkpt><trkpt lat="44.2246868" lon="10.6377258"><ele>749.5</ele><time>2026-04-18T11:21:10.964Z</time></trkpt><trkpt lat="44.224568" lon="10.637616"><ele>746.75</ele><time>2026-04-18T11:21:11.964Z</time></trkpt><trkpt lat="44.2244297" lon="10.6375331"><ele>744.0</ele><time>2026-04-18T11:21:12.964Z</time></trkpt><trkpt lat="44.2242797" lon="10.6374821"><ele>744.0</ele><time>2026-04-18T11:21:13.964Z</time></trkpt><trkpt lat="44.2241147" lon="10.6374581"><ele>744.0</ele><time>2026-04-18T11:21:14.965Z</time></trkpt><trkpt lat="44.2239446" lon="10.6374491"><ele>744.0</ele><time>2026-04-18T11:21:15.965Z</time></trkpt><trkpt lat="44.2237704" lon="10.6374445"><ele>747.6666666666666</ele><time>2026-04-18T11:21:16.964Z</time></trkpt><trkpt lat="44.223592" lon="10.6374262"><ele>751.3333333333333</ele><time>2026-04-18T11:21:17.964Z</time></trkpt><trkpt lat="44.2234164" lon="10.6374007"><ele>755.0</ele><time>2026-04-18T11:21:18.965Z</time></trkpt><trkpt lat="44.2232439" lon="10.6373718"><ele>761.6666666666666</ele><time>2026-04-18T11:21:19.964Z</time></trkpt><trkpt lat="44.2230756" lon="10.6373417"><ele>768.3333333333333</ele><time>2026-04-18T11:21:20.964Z</time></trkpt><trkpt lat="44.2229062" lon="10.6372968"><ele>775.0</ele><time>2026-04-18T11:21:21.965Z</time></trkpt><trkpt lat="44.2227467" lon="10.6372564"><ele>775.0</ele><time>2026-04-18T11:21:22.964Z</time></trkpt><trkpt lat="44.2225958" lon="10.6371728"><ele>775.0</ele><time>2026-04-18T11:21:23.964Z</time></trkpt><trkpt lat="44.2224656" lon="10.6370516"><ele>775.0</ele><time>2026-04-18T11:21:24.964Z</time></trkpt><trkpt lat="44.2223377" lon="10.6369188"><ele>770.6666666666666</ele><time>2026-04-18T11:21:25.964Z</time></trkpt><trkpt lat="44.2222133" lon="10.6367982"><ele>766.3333333333333</ele><time>2026-04-18T11:21:26.965Z</time></trkpt><trkpt lat="44.2220803" lon="10.6366897"><ele>762.0</ele><time>2026-04-18T11:21:27.965Z</time></trkpt><trkpt lat="44.2219364" lon="10.6366068"><ele>762.0</ele><time>2026-04-18T11:21:28.964Z</time></trkpt><trkpt lat="44.2217859" lon="10.6365379"><ele>762.0</ele><time>2026-04-18T11:21:29.965Z</time></trkpt><trkpt lat="44.2216294" lon="10.6364613"><ele>762.0</ele><time>2026-04-18T11:21:30.964Z</time></trkpt><trkpt lat="44.2214706" lon="10.63637"><ele>762.0</ele><time>2026-04-18T11:21:31.964Z</time></trkpt><trkpt lat="44.2213249" lon="10.6362465"><ele>762.0</ele><time>2026-04-18T11:21:32.965Z</time></trkpt><trkpt lat="44.2211869" lon="10.6360999"><ele>762.0</ele><time>2026-04-18T11:21:33.965Z</time></trkpt><trkpt lat="44.2210454" lon="10.6359651"><ele>762.0</ele><time>2026-04-18T11:21:34.965Z</time></trkpt><trkpt lat="44.2209185" lon="10.6358498"><ele>762.0</ele><time>2026-04-18T11:21:35.964Z</time></trkpt><trkpt lat="44.2207917" lon="10.6357426"><ele>762.0</ele><time>2026-04-18T11:21:36.965Z</time></trkpt><trkpt lat="44.2207218" lon="10.6356078"><ele>762.0</ele><time>2026-04-18T11:21:37.964Z</time></trkpt><trkpt lat="44.2206669" lon="10.6354293"><ele>761.75</ele><time>2026-04-18T11:21:38.965Z</time></trkpt><trkpt lat="44.2206135" lon="10.6352386"><ele>761.5</ele><time>2026-04-18T11:21:39.964Z</time></trkpt><trkpt lat="44.2205589" lon="10.6350531"><ele>761.25</ele><time>2026-04-18T11:21:40.965Z</time></trkpt><trkpt lat="44.2204908" lon="10.6348852"><ele>761.0</ele><time>2026-04-18T11:21:41.964Z</time></trkpt><trkpt lat="44.2203986" lon="10.6347429"><ele>761.0</ele><time>2026-04-18T11:21:42.965Z</time></trkpt><trkpt lat="44.2202739" lon="10.6346338"><ele>761.0</ele><time>2026-04-18T11:21:43.965Z</time></trkpt><trkpt lat="44.220134" lon="10.6345753"><ele>761.0</ele><time>2026-04-18T11:21:44.964Z</time></trkpt><trkpt lat="44.2199809" lon="10.6345744"><ele>761.0</ele><time>2026-04-18T11:21:45.964Z</time></trkpt><trkpt lat="44.2198341" lon="10.6345765"><ele>763.75</ele><time>2026-04-18T11:21:46.964Z</time></trkpt><trkpt lat="44.2196911" lon="10.6345871"><ele>766.5</ele><time>2026-04-18T11:21:47.965Z</time></trkpt><trkpt lat="44.2195489" lon="10.6345299"><ele>769.25</ele><time>2026-04-18T11:21:48.964Z</time></trkpt><trkpt lat="44.2194138" lon="10.6344402"><ele>772.0</ele><time>2026-04-18T11:21:49.965Z</time></trkpt><trkpt lat="44.2192652" lon="10.6343681"><ele>764.0</ele><time>2026-04-18T11:21:50.965Z</time></trkpt><trkpt lat="44.219104" lon="10.6343283"><ele>756.0</ele><time>2026-04-18T11:21:51.964Z</time></trkpt><trkpt lat="44.2189372" lon="10.6343138"><ele>748.0</ele><time>2026-04-18T11:21:52.965Z</time></trkpt><trkpt lat="44.2187802" lon="10.6343128"><ele>748.0</ele><time>2026-04-18T11:21:53.965Z</time></trkpt><trkpt lat="44.2186275" lon="10.634313"><ele>748.0</ele><time>2026-04-18T11:21:54.964Z</time></trkpt><trkpt lat="44.2184778" lon="10.6342759"><ele>748.0</ele><time>2026-04-18T11:21:55.965Z</time></trkpt><trkpt lat="44.218327" lon="10.6342153"><ele>748.0</ele><time>2026-04-18T11:21:56.964Z</time></trkpt><trkpt lat="44.218183" lon="10.6341317"><ele>748.0</ele><time>2026-04-18T11:21:57.964Z</time></trkpt><trkpt lat="44.218058" lon="10.6339946"><ele>748.0</ele><time>2026-04-18T11:21:58.964Z</time></trkpt><trkpt lat="44.2179494" lon="10.6338119"><ele>750.6666666666667</ele><time>2026-04-18T11:21:59.965Z</time></trkpt><trkpt lat="44.217835" lon="10.6336399"><ele>753.3333333333334</ele><time>2026-04-18T11:22:00.964Z</time></trkpt><trkpt lat="44.2177242" lon="10.6334683"><ele>756.0</ele><time>2026-04-18T11:22:01.964Z</time></trkpt><trkpt lat="44.2176234" lon="10.633309"><ele>756.0</ele><time>2026-04-18T11:22:02.964Z</time></trkpt><trkpt lat="44.2175219" lon="10.6331772"><ele>756.0</ele><time>2026-04-18T11:22:03.965Z</time></trkpt><trkpt lat="44.2174168" lon="10.6330852"><ele>756.0</ele><time>2026-04-18T11:22:04.965Z</time></trkpt><trkpt lat="44.2172906" lon="10.6330309"><ele>756.0</ele><time>2026-04-18T11:22:05.964Z</time></trkpt><trkpt lat="44.2172049" lon="10.632908"><ele>761.75</ele><time>2026-04-18T11:22:06.964Z</time></trkpt><trkpt lat="44.2171527" lon="10.6327376"><ele>767.5</ele><time>2026-04-18T11:22:07.964Z</time></trkpt><trkpt lat="44.2171189" lon="10.6325455"><ele>773.25</ele><time>2026-04-18T11:22:08.964Z</time></trkpt><trkpt lat="44.2170777" lon="10.6323526"><ele>779.0</ele><time>2026-04-18T11:22:09.965Z</time></trkpt><trkpt lat="44.2170305" lon="10.6321586"><ele>779.0</ele><time>2026-04-18T11:22:10.965Z</time></trkpt><trkpt lat="44.2169349" lon="10.6320007"><ele>779.0</ele><time>2026-04-18T11:22:11.964Z</time></trkpt><trkpt lat="44.2168547" lon="10.6318431"><ele>779.0</ele><time>2026-04-18T11:22:12.964Z</time></trkpt><trkpt lat="44.2167417" lon="10.6317238"><ele>779.0</ele><time>2026-04-18T11:22:13.965Z</time></trkpt><trkpt lat="44.216629" lon="10.6316065"><ele>776.0</ele><time>2026-04-18T11:22:14.964Z</time></trkpt><trkpt lat="44.2164817" lon="10.6315069"><ele>773.0</ele><time>2026-04-18T11:22:15.964Z</time></trkpt><trkpt lat="44.2163498" lon="10.6313913"><ele>770.0</ele><time>2026-04-18T11:22:16.965Z</time></trkpt><trkpt lat="44.2162137" lon="10.6312647"><ele>762.25</ele><time>2026-04-18T11:22:17.964Z</time></trkpt><trkpt lat="44.2160935" lon="10.6311295"><ele>754.5</ele><time>2026-04-18T11:22:18.965Z</time></trkpt><trkpt lat="44.2159867" lon="10.631007"><ele>746.75</ele><time>2026-04-18T11:22:19.964Z</time></trkpt><trkpt lat="44.2158792" lon="10.6309184"><ele>739.0</ele><time>2026-04-18T11:22:20.965Z</time></trkpt><trkpt lat="44.2157653" lon="10.6308602"><ele>738.4000000000001</ele><time>2026-04-18T11:22:21.964Z</time></trkpt><trkpt lat="44.2156517" lon="10.6308239"><ele>737.8</ele><time>2026-04-18T11:22:22.964Z</time></trkpt><trkpt lat="44.2155485" lon="10.6307987"><ele>737.2</ele><time>2026-04-18T11:22:23.964Z</time></trkpt><trkpt lat="44.2154565" lon="10.6307767"><ele>736.5999999999999</ele><time>2026-04-18T11:22:24.964Z</time></trkpt><trkpt lat="44.2153857" lon="10.6307543"><ele>736.0</ele><time>2026-04-18T11:22:25.964Z</time></trkpt><trkpt lat="44.2153167" lon="10.6307109"><ele>736.0</ele><time>2026-04-18T11:22:26.964Z</time></trkpt><trkpt lat="44.2152825" lon="10.6306177"><ele>736.0</ele><time>2026-04-18T11:22:27.964Z</time></trkpt><trkpt lat="44.2152855" lon="10.6304981"><ele>736.0</ele><time>2026-04-18T11:22:28.964Z</time></trkpt><trkpt lat="44.2152907" lon="10.6303622"><ele>736.0</ele><time>2026-04-18T11:22:29.964Z</time></trkpt><trkpt lat="44.2152959" lon="10.6302082"><ele>736.0</ele><time>2026-04-18T11:22:30.965Z</time></trkpt><trkpt lat="44.2153041" lon="10.6300541"><ele>734.5999999999999</ele><time>2026-04-18T11:22:31.965Z</time></trkpt><trkpt lat="44.2153105" lon="10.6299109"><ele>733.2</ele><time>2026-04-18T11:22:32.964Z</time></trkpt><trkpt lat="44.2153023" lon="10.6297765"><ele>731.8</ele><time>2026-04-18T11:22:33.965Z</time></trkpt><trkpt lat="44.2152548" lon="10.6296504"><ele>730.4000000000001</ele><time>2026-04-18T11:22:34.964Z</time></trkpt><trkpt lat="44.215185" lon="10.6295312"><ele>729.0</ele><time>2026-04-18T11:22:35.965Z</time></trkpt><trkpt lat="44.2150959" lon="10.6294213"><ele>733.75</ele><time>2026-04-18T11:22:36.964Z</time></trkpt><trkpt lat="44.2149913" lon="10.6293326"><ele>738.5</ele><time>2026-04-18T11:22:37.964Z</time></trkpt><trkpt lat="44.2148715" lon="10.6292804"><ele>743.25</ele><time>2026-04-18T11:22:38.964Z</time></trkpt><trkpt lat="44.2147431" lon="10.629266"><ele>748.0</ele><time>2026-04-18T11:22:39.964Z</time></trkpt><trkpt lat="44.2146104" lon="10.6292723"><ele>748.0</ele><time>2026-04-18T11:22:40.965Z</time></trkpt><trkpt lat="44.2144757" lon="10.6292996"><ele>748.0</ele><time>2026-04-18T11:22:41.964Z</time></trkpt><trkpt lat="44.2143391" lon="10.629334"><ele>748.0</ele><time>2026-04-18T11:22:42.965Z</time></trkpt><trkpt lat="44.2142029" lon="10.6293743"><ele>748.0</ele><time>2026-04-18T11:22:43.965Z</time></trkpt><trkpt lat="44.2140653" lon="10.6294171"><ele>749.25</ele><time>2026-04-18T11:22:44.964Z</time></trkpt><trkpt lat="44.213926" lon="10.6294557"><ele>750.5</ele><time>2026-04-18T11:22:45.964Z</time></trkpt><trkpt lat="44.213791" lon="10.6295015"><ele>751.75</ele><time>2026-04-18T11:22:46.964Z</time></trkpt><trkpt lat="44.2136602" lon="10.629552"><ele>753.0</ele><time>2026-04-18T11:22:47.964Z</time></trkpt><trkpt lat="44.2135334" lon="10.6296028"><ele>750.5</ele><time>2026-04-18T11:22:48.964Z</time></trkpt><trkpt lat="44.213407" lon="10.6296452"><ele>748.0</ele><time>2026-04-18T11:22:49.964Z</time></trkpt><trkpt lat="44.2132869" lon="10.6296443"><ele>745.5</ele><time>2026-04-18T11:22:50.965Z</time></trkpt><trkpt lat="44.2131741" lon="10.629593"><ele>743.0</ele><time>2026-04-18T11:22:51.964Z</time></trkpt><trkpt lat="44.2130758" lon="10.6294915"><ele>742.75</ele><time>2026-04-18T11:22:52.964Z</time></trkpt><trkpt lat="44.213" lon="10.6293539"><ele>742.5</ele><time>2026-04-18T11:22:53.965Z</time></trkpt><trkpt lat="44.2129333" lon="10.6291956"><ele>742.25</ele><time>2026-04-18T11:22:54.964Z</time></trkpt><trkpt lat="44.2128677" lon="10.6290165"><ele>742.0</ele><time>2026-04-18T11:22:55.964Z</time></trkpt><trkpt lat="44.2127993" lon="10.6288337"><ele>742.0</ele><time>2026-04-18T11:22:56.964Z</time></trkpt><trkpt lat="44.2127343" lon="10.6286451"><ele>742.0</ele><time>2026-04-18T11:22:57.964Z</time></trkpt><trkpt lat="44.2126638" lon="10.6284521"><ele>742.0</ele><time>2026-04-18T11:22:58.965Z</time></trkpt><trkpt lat="44.2125919" lon="10.6282522"><ele>744.0</ele><time>2026-04-18T11:22:59.964Z</time></trkpt><trkpt lat="44.2125197" lon="10.6280605"><ele>746.0</ele><time>2026-04-18T11:23:00.964Z</time></trkpt><trkpt lat="44.2124488" lon="10.6278724"><ele>748.0</ele><time>2026-04-18T11:23:01.964Z</time></trkpt><trkpt lat="44.2123874" lon="10.6276995"><ele>750.0</ele><time>2026-04-18T11:23:02.965Z</time></trkpt><trkpt lat="44.2123249" lon="10.6275346"><ele>750.25</ele><time>2026-04-18T11:23:03.964Z</time></trkpt><trkpt lat="44.2122619" lon="10.6273708"><ele>750.5</ele><time>2026-04-18T11:23:04.965Z</time></trkpt><trkpt lat="44.2122086" lon="10.627214"><ele>750.75</ele><time>2026-04-18T11:23:05.964Z</time></trkpt><trkpt lat="44.2121729" lon="10.6270502"><ele>751.0</ele><time>2026-04-18T11:23:06.965Z</time></trkpt><trkpt lat="44.212158" lon="10.6268835"><ele>748.25</ele><time>2026-04-18T11:23:07.965Z</time></trkpt><trkpt lat="44.2121576" lon="10.6267121"><ele>745.5</ele><time>2026-04-18T11:23:08.964Z</time></trkpt><trkpt lat="44.2121691" lon="10.6265313"><ele>742.75</ele><time>2026-04-18T11:23:09.964Z</time></trkpt><trkpt lat="44.2121837" lon="10.6263538"><ele>740.0</ele><time>2026-04-18T11:23:10.965Z</time></trkpt><trkpt lat="44.2122092" lon="10.6261718"><ele>738.25</ele><time>2026-04-18T11:23:11.964Z</time></trkpt><trkpt lat="44.2122379" lon="10.6259901"><ele>736.5</ele><time>2026-04-18T11:23:12.964Z</time></trkpt><trkpt lat="44.2122675" lon="10.6257993"><ele>734.75</ele><time>2026-04-18T11:23:13.964Z</time></trkpt><trkpt lat="44.2122884" lon="10.6256048"><ele>733.0</ele><time>2026-04-18T11:23:14.965Z</time></trkpt><trkpt lat="44.2122953" lon="10.6254006"><ele>732.75</ele><time>2026-04-18T11:23:15.964Z</time></trkpt><trkpt lat="44.2122929" lon="10.6251967"><ele>732.5</ele><time>2026-04-18T11:23:16.965Z</time></trkpt><trkpt lat="44.2122763" lon="10.6250054"><ele>732.25</ele><time>2026-04-18T11:23:17.965Z</time></trkpt><trkpt lat="44.2122548" lon="10.6248279"><ele>732.0</ele><time>2026-04-18T11:23:18.964Z</time></trkpt><trkpt lat="44.2122244" lon="10.6246616"><ele>732.0</ele><time>2026-04-18T11:23:19.965Z</time></trkpt><trkpt lat="44.2121827" lon="10.624506"><ele>732.0</ele><time>2026-04-18T11:23:20.964Z</time></trkpt><trkpt lat="44.2121333" lon="10.6243531"><ele>732.0</ele><time>2026-04-18T11:23:21.964Z</time></trkpt><trkpt lat="44.2120976" lon="10.6241935"><ele>732.0</ele><time>2026-04-18T11:23:22.965Z</time></trkpt><trkpt lat="44.2120553" lon="10.6240356"><ele>734.0</ele><time>2026-04-18T11:23:23.965Z</time></trkpt><trkpt lat="44.2119956" lon="10.6238848"><ele>736.0</ele><time>2026-04-18T11:23:24.964Z</time></trkpt><trkpt lat="44.2119153" lon="10.6237439"><ele>738.0</ele><time>2026-04-18T11:23:25.965Z</time></trkpt><trkpt lat="44.2118181" lon="10.6236173"><ele>740.0</ele><time>2026-04-18T11:23:26.964Z</time></trkpt><trkpt lat="44.2117047" lon="10.623507"><ele>738.75</ele><time>2026-04-18T11:23:27.964Z</time></trkpt><trkpt lat="44.2115879" lon="10.6234054"><ele>737.5</ele><time>2026-04-18T11:23:28.964Z</time></trkpt><trkpt lat="44.2114701" lon="10.6233104"><ele>736.25</ele><time>2026-04-18T11:23:29.964Z</time></trkpt><trkpt lat="44.2113551" lon="10.623208"><ele>735.0</ele><time>2026-04-18T11:23:30.964Z</time></trkpt><trkpt lat="44.2112469" lon="10.6230958"><ele>735.0</ele><time>2026-04-18T11:23:31.965Z</time></trkpt><trkpt lat="44.2111481" lon="10.6229636"><ele>735.0</ele><time>2026-04-18T11:23:32.965Z</time></trkpt><trkpt lat="44.2110565" lon="10.6228319"><ele>735.0</ele><time>2026-04-18T11:23:33.964Z</time></trkpt><trkpt lat="44.2109972" lon="10.622657"><ele>735.0</ele><time>2026-04-18T11:23:34.965Z</time></trkpt><trkpt lat="44.2109138" lon="10.6224993"><ele>737.75</ele><time>2026-04-18T11:23:35.965Z</time></trkpt><trkpt lat="44.2108296" lon="10.6223428"><ele>740.5</ele><time>2026-04-18T11:23:36.964Z</time></trkpt><trkpt lat="44.2107444" lon="10.6221878"><ele>743.25</ele><time>2026-04-18T11:23:37.964Z</time></trkpt><trkpt lat="44.2106624" lon="10.6220351"><ele>746.0</ele><time>2026-04-18T11:23:38.965Z</time></trkpt><trkpt lat="44.2105762" lon="10.6218912"><ele>746.0</ele><time>2026-04-18T11:23:39.964Z</time></trkpt><trkpt lat="44.2104888" lon="10.6217572"><ele>746.0</ele><time>2026-04-18T11:23:40.965Z</time></trkpt><trkpt lat="44.2103966" lon="10.621636"><ele>746.0</ele><time>2026-04-18T11:23:41.964Z</time></trkpt><trkpt lat="44.2102977" lon="10.6215279"><ele>746.0</ele><time>2026-04-18T11:23:42.965Z</time></trkpt><trkpt lat="44.210197" lon="10.621412"><ele>746.0</ele><time>2026-04-18T11:23:43.964Z</time></trkpt><trkpt lat="44.2100911" lon="10.6212973"><ele>746.0</ele><time>2026-04-18T11:23:44.964Z</time></trkpt><trkpt lat="44.209985" lon="10.6211785"><ele>746.0</ele><time>2026-04-18T11:23:45.965Z</time></trkpt><trkpt lat="44.2098746" lon="10.6210582"><ele>746.0</ele><time>2026-04-18T11:23:46.964Z</time></trkpt><trkpt lat="44.2097639" lon="10.6209345"><ele>746.0</ele><time>2026-04-18T11:23:47.964Z</time></trkpt><trkpt lat="44.2096521" lon="10.6208141"><ele>746.0</ele><time>2026-04-18T11:23:48.965Z</time></trkpt><trkpt lat="44.2095386" lon="10.6206892"><ele>746.0</ele><time>2026-04-18T11:23:49.965Z</time></trkpt><trkpt lat="44.2094251" lon="10.6205654"><ele>746.0</ele><time>2026-04-18T11:23:50.965Z</time></trkpt><trkpt lat="44.2093124" lon="10.6204431"><ele>746.0</ele><time>2026-04-18T11:23:51.964Z</time></trkpt><trkpt lat="44.2091996" lon="10.6203214"><ele>746.0</ele><time>2026-04-18T11:23:52.965Z</time></trkpt><trkpt lat="44.2090838" lon="10.6201967"><ele>746.0</ele><time>2026-04-18T11:23:53.964Z</time></trkpt><trkpt lat="44.2089694" lon="10.6200759"><ele>746.0</ele><time>2026-04-18T11:23:54.964Z</time></trkpt><trkpt lat="44.2088525" lon="10.6199576"><ele>748.25</ele><time>2026-04-18T11:23:55.965Z</time></trkpt><trkpt lat="44.2087386" lon="10.619837"><ele>750.5</ele><time>2026-04-18T11:23:56.965Z</time></trkpt><trkpt lat="44.2086284" lon="10.6197121"><ele>752.75</ele><time>2026-04-18T11:23:57.965Z</time></trkpt><trkpt lat="44.2085151" lon="10.6195919"><ele>755.0</ele><time>2026-04-18T11:23:58.965Z</time></trkpt><trkpt lat="44.2084008" lon="10.6194752"><ele>755.5</ele><time>2026-04-18T11:23:59.964Z</time></trkpt><trkpt lat="44.2082931" lon="10.6193616"><ele>756.0</ele><time>2026-04-18T11:24:00.965Z</time></trkpt><trkpt lat="44.2081848" lon="10.6192486"><ele>756.5</ele><time>2026-04-18T11:24:01.965Z</time></trkpt><trkpt lat="44.208085" lon="10.6191264"><ele>757.0</ele><time>2026-04-18T11:24:02.964Z</time></trkpt><trkpt lat="44.2080022" lon="10.6189973"><ele>757.0</ele><time>2026-04-18T11:24:03.965Z</time></trkpt><trkpt lat="44.2079457" lon="10.6188512"><ele>757.0</ele><time>2026-04-18T11:24:04.964Z</time></trkpt><trkpt lat="44.2078974" lon="10.618708"><ele>757.0</ele><time>2026-04-18T11:24:05.965Z</time></trkpt><trkpt lat="44.2078197" lon="10.6186018"><ele>757.0</ele><time>2026-04-18T11:24:06.964Z</time></trkpt><trkpt lat="44.2077531" lon="10.6184841"><ele>757.0</ele><time>2026-04-18T11:24:07.965Z</time></trkpt><trkpt lat="44.2076399" lon="10.6184236"><ele>759.75</ele><time>2026-04-18T11:24:08.964Z</time></trkpt><trkpt lat="44.2075294" lon="10.6183877"><ele>762.5</ele><time>2026-04-18T11:24:09.964Z</time></trkpt><trkpt lat="44.2074108" lon="10.618344"><ele>765.25</ele><time>2026-04-18T11:24:10.964Z</time></trkpt><trkpt lat="44.2072933" lon="10.6182778"><ele>768.0</ele><time>2026-04-18T11:24:11.965Z</time></trkpt><trkpt lat="44.2071872" lon="10.6182091"><ele>768.0</ele><time>2026-04-18T11:24:12.964Z</time></trkpt><trkpt lat="44.207086" lon="10.6181276"><ele>768.0</ele><time>2026-04-18T11:24:13.964Z</time></trkpt><trkpt lat="44.2069901" lon="10.6180471"><ele>768.0</ele><time>2026-04-18T11:24:14.965Z</time></trkpt><trkpt lat="44.2069037" lon="10.617971"><ele>768.0</ele><time>2026-04-18T11:24:15.965Z</time></trkpt><trkpt lat="44.2068248" lon="10.617884"><ele>768.0</ele><time>2026-04-18T11:24:16.964Z</time></trkpt><trkpt lat="44.2067427" lon="10.6178042"><ele>769.5999999999999</ele><time>2026-04-18T11:24:17.965Z</time></trkpt><trkpt lat="44.2066648" lon="10.61772"><ele>771.1999999999999</ele><time>2026-04-18T11:24:18.965Z</time></trkpt><trkpt lat="44.2065885" lon="10.6176441"><ele>772.8</ele><time>2026-04-18T11:24:19.964Z</time></trkpt><trkpt lat="44.2065102" lon="10.6175634"><ele>774.4</ele><time>2026-04-18T11:24:20.965Z</time></trkpt><trkpt lat="44.2064328" lon="10.6174847"><ele>776.0</ele><time>2026-04-18T11:24:21.965Z</time></trkpt><trkpt lat="44.2063638" lon="10.6174176"><ele>776.0000000000001</ele><time>2026-04-18T11:24:22.964Z</time></trkpt><trkpt lat="44.2062978" lon="10.6173516"><ele>776.0</ele><time>2026-04-18T11:24:23.965Z</time></trkpt><trkpt lat="44.206234" lon="10.617285"><ele>776.0</ele><time>2026-04-18T11:24:24.965Z</time></trkpt><trkpt lat="44.2061779" lon="10.6172148"><ele>776.0</ele><time>2026-04-18T11:24:25.964Z</time></trkpt><trkpt lat="44.2061254" lon="10.6171357"><ele>776.0000000000001</ele><time>2026-04-18T11:24:26.964Z</time></trkpt><trkpt lat="44.2060789" lon="10.6170712"><ele>776.0</ele><time>2026-04-18T11:24:27.964Z</time></trkpt><trkpt lat="44.2060053" lon="10.6169728"><ele>777.0</ele><time>2026-04-18T11:24:29.964Z</time></trkpt><trkpt lat="44.2059035" lon="10.6169159"><ele>778.0</ele><time>2026-04-18T11:24:39.964Z</time></trkpt><trkpt lat="44.2057945" lon="10.6169087"><ele>779.0</ele><time>2026-04-18T11:24:41.965Z</time></trkpt><trkpt lat="44.2057307" lon="10.6168941"><ele>780.0</ele><time>2026-04-18T11:24:42.964Z</time></trkpt><trkpt lat="44.2056192" lon="10.6168581"><ele>781.0</ele><time>2026-04-18T11:24:44.965Z</time></trkpt><trkpt lat="44.2055355" lon="10.6168172"><ele>781.0</ele><time>2026-04-18T11:24:46.964Z</time></trkpt><trkpt lat="44.2054761" lon="10.6167776"><ele>781.0</ele><time>2026-04-18T11:24:48.965Z</time></trkpt><trkpt lat="44.2054101" lon="10.6167593"><ele>781.0</ele><time>2026-04-18T11:24:51.965Z</time></trkpt><trkpt lat="44.2053037" lon="10.6167561"><ele>781.0</ele><time>2026-04-18T11:26:29.964Z</time></trkpt><trkpt lat="44.2051902" lon="10.6167081"><ele>781.0</ele><time>2026-04-18T11:26:31.965Z</time></trkpt><trkpt lat="44.2050768" lon="10.6166666"><ele>781.0</ele><time>2026-04-18T11:26:33.965Z</time></trkpt><trkpt lat="44.2049797" lon="10.6166396"><ele>781.0</ele><time>2026-04-18T11:26:35.964Z</time></trkpt><trkpt lat="44.2048755" lon="10.6166063"><ele>781.0</ele><time>2026-04-18T11:26:37.964Z</time></trkpt><trkpt lat="44.204768" lon="10.6165752"><ele>781.0</ele><time>2026-04-18T11:26:39.964Z</time></trkpt><trkpt lat="44.2046549" lon="10.6165474"><ele>781.0</ele><time>2026-04-18T11:26:41.964Z</time></trkpt><trkpt lat="44.2045922" lon="10.6165336"><ele>781.3333333333333</ele><time>2026-04-18T11:26:42.964Z</time></trkpt><trkpt lat="44.2045285" lon="10.6165298"><ele>781.6666666666666</ele><time>2026-04-18T11:26:43.965Z</time></trkpt><trkpt lat="44.2044628" lon="10.6165329"><ele>782.0</ele><time>2026-04-18T11:26:44.965Z</time></trkpt><trkpt lat="44.2043946" lon="10.6165437"><ele>782.3333333333333</ele><time>2026-04-18T11:26:45.964Z</time></trkpt><trkpt lat="44.2042917" lon="10.6166021"><ele>782.6666666666666</ele><time>2026-04-18T11:26:47.965Z</time></trkpt><trkpt lat="44.2041814" lon="10.6166766"><ele>783.0</ele><time>2026-04-18T11:26:49.964Z</time></trkpt><trkpt lat="44.2041199" lon="10.6167199"><ele>783.0</ele><time>2026-04-18T11:26:50.964Z</time></trkpt><trkpt lat="44.2040629" lon="10.6167776"><ele>783.0</ele><time>2026-04-18T11:26:51.965Z</time></trkpt><trkpt lat="44.2040134" lon="10.6168333"><ele>783.0</ele><time>2026-04-18T11:26:52.965Z</time></trkpt><trkpt lat="44.203958" lon="10.6168804"><ele>783.0</ele><time>2026-04-18T11:26:53.965Z</time></trkpt><trkpt lat="44.2039043" lon="10.6169303"><ele>783.0</ele><time>2026-04-18T11:26:54.964Z</time></trkpt><trkpt lat="44.2038382" lon="10.6169667"><ele>783.0</ele><time>2026-04-18T11:26:55.964Z</time></trkpt><trkpt lat="44.2037639" lon="10.6170031"><ele>783.0</ele><time>2026-04-18T11:26:56.965Z</time></trkpt><trkpt lat="44.2036863" lon="10.6170475"><ele>781.2</ele><time>2026-04-18T11:26:57.964Z</time></trkpt><trkpt lat="44.2035977" lon="10.6171001"><ele>779.4</ele><time>2026-04-18T11:26:58.964Z</time></trkpt><trkpt lat="44.203509" lon="10.617155"><ele>777.6</ele><time>2026-04-18T11:26:59.964Z</time></trkpt><trkpt lat="44.2034165" lon="10.6171982"><ele>775.8000000000001</ele><time>2026-04-18T11:27:00.965Z</time></trkpt><trkpt lat="44.2033276" lon="10.6171976"><ele>774.0</ele><time>2026-04-18T11:27:01.965Z</time></trkpt><trkpt lat="44.2032517" lon="10.6171494"><ele>774.0</ele><time>2026-04-18T11:27:02.965Z</time></trkpt><trkpt lat="44.2031923" lon="10.6170576"><ele>774.0</ele><time>2026-04-18T11:27:03.964Z</time></trkpt><trkpt lat="44.2031436" lon="10.6169401"><ele>774.0</ele><time>2026-04-18T11:27:04.964Z</time></trkpt><trkpt lat="44.2031059" lon="10.6168037"><ele>774.0</ele><time>2026-04-18T11:27:05.965Z</time></trkpt><trkpt lat="44.2030726" lon="10.6166602"><ele>774.0</ele><time>2026-04-18T11:27:06.964Z</time></trkpt><trkpt lat="44.2030559" lon="10.6164967"><ele>772.75</ele><time>2026-04-18T11:27:07.964Z</time></trkpt><trkpt lat="44.2030335" lon="10.6163273"><ele>771.5</ele><time>2026-04-18T11:27:08.964Z</time></trkpt><trkpt lat="44.2029908" lon="10.6161599"><ele>770.25</ele><time>2026-04-18T11:27:09.964Z</time></trkpt><trkpt lat="44.2029289" lon="10.6159988"><ele>769.0</ele><time>2026-04-18T11:27:10.964Z</time></trkpt><trkpt lat="44.2028485" lon="10.6158489"><ele>769.0</ele><time>2026-04-18T11:27:11.965Z</time></trkpt><trkpt lat="44.202776" lon="10.6156899"><ele>769.0</ele><time>2026-04-18T11:27:12.964Z</time></trkpt><trkpt lat="44.2027237" lon="10.6155204"><ele>769.0</ele><time>2026-04-18T11:27:13.965Z</time></trkpt><trkpt lat="44.2026687" lon="10.6153624"><ele>769.0</ele><time>2026-04-18T11:27:14.964Z</time></trkpt><trkpt lat="44.2026086" lon="10.6152232"><ele>768.0</ele><time>2026-04-18T11:27:15.964Z</time></trkpt><trkpt lat="44.2025399" lon="10.6151156"><ele>767.0</ele><time>2026-04-18T11:27:16.965Z</time></trkpt><trkpt lat="44.2024577" lon="10.6150275"><ele>766.0</ele><time>2026-04-18T11:27:17.964Z</time></trkpt><trkpt lat="44.2023571" lon="10.6149722"><ele>765.0</ele><time>2026-04-18T11:27:18.964Z</time></trkpt><trkpt lat="44.2022499" lon="10.6149622"><ele>764.0</ele><time>2026-04-18T11:27:19.964Z</time></trkpt><trkpt lat="44.2021414" lon="10.6149799"><ele>764.0</ele><time>2026-04-18T11:27:20.964Z</time></trkpt><trkpt lat="44.2020426" lon="10.6150004"><ele>764.0</ele><time>2026-04-18T11:27:21.964Z</time></trkpt><trkpt lat="44.2019391" lon="10.6150219"><ele>764.0</ele><time>2026-04-18T11:27:22.964Z</time></trkpt><trkpt lat="44.2018355" lon="10.6150463"><ele>764.0</ele><time>2026-04-18T11:27:23.964Z</time></trkpt><trkpt lat="44.201732" lon="10.6150698"><ele>764.0</ele><time>2026-04-18T11:27:24.964Z</time></trkpt><trkpt lat="44.2016256" lon="10.615097"><ele>764.0</ele><time>2026-04-18T11:27:25.965Z</time></trkpt><trkpt lat="44.2015186" lon="10.6151259"><ele>764.0</ele><time>2026-04-18T11:27:26.965Z</time></trkpt><trkpt lat="44.2014177" lon="10.6151507"><ele>764.0</ele><time>2026-04-18T11:27:27.964Z</time></trkpt><trkpt lat="44.201323" lon="10.6151734"><ele>764.0</ele><time>2026-04-18T11:27:28.964Z</time></trkpt><trkpt lat="44.2012354" lon="10.6151816"><ele>764.0</ele><time>2026-04-18T11:27:29.964Z</time></trkpt><trkpt lat="44.2011529" lon="10.6151633"><ele>767.6</ele><time>2026-04-18T11:27:30.965Z</time></trkpt><trkpt lat="44.2010709" lon="10.6151195"><ele>771.2</ele><time>2026-04-18T11:27:31.964Z</time></trkpt><trkpt lat="44.2010249" lon="10.6150085"><ele>774.8000000000001</ele><time>2026-04-18T11:27:32.964Z</time></trkpt><trkpt lat="44.200976" lon="10.6148917"><ele>778.4000000000001</ele><time>2026-04-18T11:27:33.964Z</time></trkpt><trkpt lat="44.2009364" lon="10.6147553"><ele>782.0</ele><time>2026-04-18T11:27:34.964Z</time></trkpt><trkpt lat="44.2008955" lon="10.6146107"><ele>781.5</ele><time>2026-04-18T11:27:35.964Z</time></trkpt><trkpt lat="44.2008559" lon="10.614461"><ele>781.0</ele><time>2026-04-18T11:27:36.965Z</time></trkpt><trkpt lat="44.2008141" lon="10.6143011"><ele>780.5</ele><time>2026-04-18T11:27:37.965Z</time></trkpt><trkpt lat="44.200774" lon="10.614132"><ele>780.0</ele><time>2026-04-18T11:27:38.965Z</time></trkpt><trkpt lat="44.200742" lon="10.6139606"><ele>780.0</ele><time>2026-04-18T11:27:39.965Z</time></trkpt><trkpt lat="44.200728" lon="10.6137864"><ele>780.0</ele><time>2026-04-18T11:27:40.964Z</time></trkpt><trkpt lat="44.2007367" lon="10.6136201"><ele>780.0</ele><time>2026-04-18T11:27:41.964Z</time></trkpt><trkpt lat="44.2007635" lon="10.6134599"><ele>780.0</ele><time>2026-04-18T11:27:42.964Z</time></trkpt><trkpt lat="44.2007901" lon="10.6133126"><ele>779.6</ele><time>2026-04-18T11:27:43.965Z</time></trkpt><trkpt lat="44.2008091" lon="10.6131611"><ele>779.2</ele><time>2026-04-18T11:27:44.965Z</time></trkpt><trkpt lat="44.2007593" lon="10.613029"><ele>778.8</ele><time>2026-04-18T11:27:45.964Z</time></trkpt><trkpt lat="44.2006996" lon="10.6129155"><ele>778.4</ele><time>2026-04-18T11:27:46.965Z</time></trkpt><trkpt lat="44.2006383" lon="10.6128094"><ele>778.0</ele><time>2026-04-18T11:27:47.965Z</time></trkpt><trkpt lat="44.2005448" lon="10.61271"><ele>782.75</ele><time>2026-04-18T11:27:48.965Z</time></trkpt><trkpt lat="44.2004761" lon="10.6125831"><ele>787.5</ele><time>2026-04-18T11:27:49.964Z</time></trkpt><trkpt lat="44.2004257" lon="10.6124331"><ele>792.25</ele><time>2026-04-18T11:27:50.964Z</time></trkpt><trkpt lat="44.2003741" lon="10.6122814"><ele>797.0</ele><time>2026-04-18T11:27:51.965Z</time></trkpt><trkpt lat="44.2003341" lon="10.6121253"><ele>796.0</ele><time>2026-04-18T11:27:52.964Z</time></trkpt><trkpt lat="44.2003833" lon="10.6119275"><ele>795.0</ele><time>2026-04-18T11:27:53.964Z</time></trkpt><trkpt lat="44.2003857" lon="10.6117559"><ele>794.0</ele><time>2026-04-18T11:27:54.965Z</time></trkpt><trkpt lat="44.2003584" lon="10.6116018"><ele>793.0</ele><time>2026-04-18T11:27:55.964Z</time></trkpt><trkpt lat="44.2003029" lon="10.611452"><ele>793.0</ele><time>2026-04-18T11:27:56.965Z</time></trkpt><trkpt lat="44.2002371" lon="10.6113003"><ele>793.0</ele><time>2026-04-18T11:27:57.964Z</time></trkpt><trkpt lat="44.2001684" lon="10.6111429"><ele>793.0</ele><time>2026-04-18T11:27:58.965Z</time></trkpt><trkpt lat="44.2000909" lon="10.610981"><ele>793.0</ele><time>2026-04-18T11:27:59.964Z</time></trkpt><trkpt lat="44.2000081" lon="10.6108121"><ele>792.25</ele><time>2026-04-18T11:28:00.964Z</time></trkpt><trkpt lat="44.1999243" lon="10.6106403"><ele>791.5</ele><time>2026-04-18T11:28:01.965Z</time></trkpt><trkpt lat="44.1998358" lon="10.6104926"><ele>790.75</ele><time>2026-04-18T11:28:02.965Z</time></trkpt><trkpt lat="44.1997361" lon="10.6103754"><ele>790.0</ele><time>2026-04-18T11:28:03.964Z</time></trkpt><trkpt lat="44.1996085" lon="10.6103099"><ele>791.75</ele><time>2026-04-18T11:28:04.965Z</time></trkpt><trkpt lat="44.1994805" lon="10.6102563"><ele>793.5</ele><time>2026-04-18T11:28:05.965Z</time></trkpt><trkpt lat="44.1993417" lon="10.6102106"><ele>795.25</ele><time>2026-04-18T11:28:06.964Z</time></trkpt><trkpt lat="44.1991985" lon="10.6101757"><ele>797.0</ele><time>2026-04-18T11:28:07.964Z</time></trkpt><trkpt lat="44.1990595" lon="10.6101629"><ele>799.75</ele><time>2026-04-18T11:28:08.964Z</time></trkpt><trkpt lat="44.1989084" lon="10.6101693"><ele>802.5</ele><time>2026-04-18T11:28:09.965Z</time></trkpt><trkpt lat="44.1987629" lon="10.6101672"><ele>805.25</ele><time>2026-04-18T11:28:10.964Z</time></trkpt><trkpt lat="44.198624" lon="10.6101609"><ele>808.0</ele><time>2026-04-18T11:28:11.964Z</time></trkpt><trkpt lat="44.198497" lon="10.6101114"><ele>808.0</ele><time>2026-04-18T11:28:12.965Z</time></trkpt><trkpt lat="44.1983839" lon="10.6100259"><ele>808.0</ele><time>2026-04-18T11:28:13.965Z</time></trkpt><trkpt lat="44.1982732" lon="10.6099246"><ele>808.0</ele><time>2026-04-18T11:28:14.965Z</time></trkpt><trkpt lat="44.1981586" lon="10.6098237"><ele>808.0</ele><time>2026-04-18T11:28:15.964Z</time></trkpt><trkpt lat="44.1980437" lon="10.6097191"><ele>809.5</ele><time>2026-04-18T11:28:16.965Z</time></trkpt><trkpt lat="44.1979262" lon="10.6096154"><ele>811.0</ele><time>2026-04-18T11:28:17.965Z</time></trkpt><trkpt lat="44.1978123" lon="10.6095185"><ele>812.5</ele><time>2026-04-18T11:28:18.964Z</time></trkpt><trkpt lat="44.1977006" lon="10.6094228"><ele>814.0</ele><time>2026-04-18T11:28:19.964Z</time></trkpt><trkpt lat="44.1975892" lon="10.6093226"><ele>814.0</ele><time>2026-04-18T11:28:20.965Z</time></trkpt><trkpt lat="44.1974791" lon="10.6092165"><ele>814.0</ele><time>2026-04-18T11:28:21.964Z</time></trkpt><trkpt lat="44.197367" lon="10.6090973"><ele>814.0</ele><time>2026-04-18T11:28:22.965Z</time></trkpt><trkpt lat="44.1972608" lon="10.6089743"><ele>814.0</ele><time>2026-04-18T11:28:23.964Z</time></trkpt><trkpt lat="44.1971594" lon="10.6088455"><ele>816.5</ele><time>2026-04-18T11:28:24.965Z</time></trkpt><trkpt lat="44.1970563" lon="10.608714"><ele>819.0</ele><time>2026-04-18T11:28:25.965Z</time></trkpt><trkpt lat="44.196955" lon="10.608576"><ele>821.5</ele><time>2026-04-18T11:28:26.964Z</time></trkpt><trkpt lat="44.1968489" lon="10.6084389"><ele>824.0</ele><time>2026-04-18T11:28:27.964Z</time></trkpt><trkpt lat="44.1967356" lon="10.6082974"><ele>824.0</ele><time>2026-04-18T11:28:28.964Z</time></trkpt><trkpt lat="44.1966266" lon="10.6081431"><ele>824.0</ele><time>2026-04-18T11:28:29.964Z</time></trkpt><trkpt lat="44.1965179" lon="10.607985"><ele>824.0</ele><time>2026-04-18T11:28:30.964Z</time></trkpt><trkpt lat="44.1964371" lon="10.6077885"><ele>833.0</ele><time>2026-04-18T11:28:31.964Z</time></trkpt><trkpt lat="44.1963442" lon="10.6075976"><ele>842.0</ele><time>2026-04-18T11:28:32.964Z</time></trkpt><trkpt lat="44.1962467" lon="10.6074082"><ele>851.0</ele><time>2026-04-18T11:28:33.964Z</time></trkpt><trkpt lat="44.1961397" lon="10.6072157"><ele>851.0</ele><time>2026-04-18T11:28:34.965Z</time></trkpt><trkpt lat="44.1960303" lon="10.6070357"><ele>851.0</ele><time>2026-04-18T11:28:35.965Z</time></trkpt><trkpt lat="44.195927" lon="10.6068667"><ele>851.0</ele><time>2026-04-18T11:28:36.965Z</time></trkpt><trkpt lat="44.1958263" lon="10.6067213"><ele>849.75</ele><time>2026-04-18T11:28:37.964Z</time></trkpt><trkpt lat="44.1957197" lon="10.6066193"><ele>848.5</ele><time>2026-04-18T11:28:38.964Z</time></trkpt><trkpt lat="44.1955938" lon="10.6065569"><ele>847.25</ele><time>2026-04-18T11:28:39.965Z</time></trkpt><trkpt lat="44.1954579" lon="10.6065381"><ele>846.0</ele><time>2026-04-18T11:28:40.964Z</time></trkpt><trkpt lat="44.1953146" lon="10.6065417"><ele>846.0</ele><time>2026-04-18T11:28:41.964Z</time></trkpt><trkpt lat="44.1951572" lon="10.606547"><ele>846.0</ele><time>2026-04-18T11:28:42.964Z</time></trkpt><trkpt lat="44.195023" lon="10.6065418"><ele>846.0</ele><time>2026-04-18T11:28:43.965Z</time></trkpt><trkpt lat="44.194896" lon="10.6065395"><ele>846.0</ele><time>2026-04-18T11:28:44.964Z</time></trkpt><trkpt lat="44.1947717" lon="10.6065085"><ele>851.5</ele><time>2026-04-18T11:28:45.964Z</time></trkpt><trkpt lat="44.194671" lon="10.6064319"><ele>857.0</ele><time>2026-04-18T11:28:46.964Z</time></trkpt><trkpt lat="44.1945721" lon="10.6063269"><ele>862.5</ele><time>2026-04-18T11:28:47.965Z</time></trkpt><trkpt lat="44.1945773" lon="10.6061394"><ele>868.0</ele><time>2026-04-18T11:28:48.965Z</time></trkpt><trkpt lat="44.1945569" lon="10.605978"><ele>868.0</ele><time>2026-04-18T11:28:49.965Z</time></trkpt><trkpt lat="44.1946361" lon="10.6057947"><ele>868.0</ele><time>2026-04-18T11:28:50.964Z</time></trkpt><trkpt lat="44.1946709" lon="10.605626"><ele>868.0</ele><time>2026-04-18T11:28:51.965Z</time></trkpt><trkpt lat="44.1946889" lon="10.6054526"><ele>868.0</ele><time>2026-04-18T11:28:52.965Z</time></trkpt><trkpt lat="44.1946851" lon="10.605278"><ele>870.0</ele><time>2026-04-18T11:28:53.965Z</time></trkpt><trkpt lat="44.1946582" lon="10.6051108"><ele>872.0</ele><time>2026-04-18T11:28:54.964Z</time></trkpt><trkpt lat="44.1946375" lon="10.6049444"><ele>874.0</ele><time>2026-04-18T11:28:55.965Z</time></trkpt><trkpt lat="44.194637" lon="10.6047801"><ele>876.0</ele><time>2026-04-18T11:28:56.965Z</time></trkpt><trkpt lat="44.1946475" lon="10.6046214"><ele>876.5999999999999</ele><time>2026-04-18T11:28:57.964Z</time></trkpt><trkpt lat="44.194668" lon="10.604468"><ele>877.1999999999999</ele><time>2026-04-18T11:28:58.965Z</time></trkpt><trkpt lat="44.1946861" lon="10.6043194"><ele>877.8000000000001</ele><time>2026-04-18T11:28:59.964Z</time></trkpt><trkpt lat="44.194697" lon="10.6041721"><ele>878.4000000000001</ele><time>2026-04-18T11:29:00.964Z</time></trkpt><trkpt lat="44.1946881" lon="10.6040296"><ele>879.0</ele><time>2026-04-18T11:29:01.965Z</time></trkpt><trkpt lat="44.1946185" lon="10.6039104"><ele>879.0</ele><time>2026-04-18T11:29:02.964Z</time></trkpt><trkpt lat="44.1945429" lon="10.6038266"><ele>879.0000000000001</ele><time>2026-04-18T11:29:03.964Z</time></trkpt><trkpt lat="44.194462" lon="10.6037521"><ele>879.0000000000001</ele><time>2026-04-18T11:29:04.964Z</time></trkpt><trkpt lat="44.1943959" lon="10.6036633"><ele>879.0</ele><time>2026-04-18T11:29:05.965Z</time></trkpt><trkpt lat="44.1943655" lon="10.6035506"><ele>879.0</ele><time>2026-04-18T11:29:06.964Z</time></trkpt><trkpt lat="44.1943772" lon="10.6034393"><ele>878.6666666666666</ele><time>2026-04-18T11:29:07.964Z</time></trkpt><trkpt lat="44.1944247" lon="10.6033449"><ele>878.3333333333333</ele><time>2026-04-18T11:29:08.965Z</time></trkpt><trkpt lat="44.1944865" lon="10.6032619"><ele>878.0</ele><time>2026-04-18T11:29:09.964Z</time></trkpt><trkpt lat="44.1945505" lon="10.6031938"><ele>877.6666666666666</ele><time>2026-04-18T11:29:10.965Z</time></trkpt><trkpt lat="44.1946056" lon="10.6031122"><ele>877.3333333333333</ele><time>2026-04-18T11:29:11.964Z</time></trkpt><trkpt lat="44.1946508" lon="10.6030211"><ele>877.0</ele><time>2026-04-18T11:29:12.965Z</time></trkpt><trkpt lat="44.1946343" lon="10.6029001"><ele>879.4000000000001</ele><time>2026-04-18T11:29:13.965Z</time></trkpt><trkpt lat="44.1946182" lon="10.6027874"><ele>881.8000000000001</ele><time>2026-04-18T11:29:14.964Z</time></trkpt><trkpt lat="44.1945852" lon="10.6026692"><ele>884.2</ele><time>2026-04-18T11:29:15.965Z</time></trkpt><trkpt lat="44.1945512" lon="10.6025442"><ele>886.6</ele><time>2026-04-18T11:29:16.964Z</time></trkpt><trkpt lat="44.1945393" lon="10.6024176"><ele>889.0</ele><time>2026-04-18T11:29:17.964Z</time></trkpt><trkpt lat="44.1945534" lon="10.6022935"><ele>889.0</ele><time>2026-04-18T11:29:18.964Z</time></trkpt><trkpt lat="44.1945862" lon="10.6021792"><ele>889.0000000000001</ele><time>2026-04-18T11:29:19.964Z</time></trkpt><trkpt lat="44.1946311" lon="10.6020671"><ele>889.0000000000001</ele><time>2026-04-18T11:29:20.965Z</time></trkpt><trkpt lat="44.1946827" lon="10.60195"><ele>889.0</ele><time>2026-04-18T11:29:21.965Z</time></trkpt><trkpt lat="44.194728" lon="10.6018246"><ele>889.0</ele><time>2026-04-18T11:29:22.965Z</time></trkpt><trkpt lat="44.1947669" lon="10.6016936"><ele>888.6</ele><time>2026-04-18T11:29:23.965Z</time></trkpt><trkpt lat="44.1947706" lon="10.6015401"><ele>888.2</ele><time>2026-04-18T11:29:24.965Z</time></trkpt><trkpt lat="44.1947846" lon="10.6013949"><ele>887.8000000000001</ele><time>2026-04-18T11:29:25.964Z</time></trkpt><trkpt lat="44.1948191" lon="10.601265"><ele>887.4000000000001</ele><time>2026-04-18T11:29:26.964Z</time></trkpt><trkpt lat="44.1948875" lon="10.6011736"><ele>887.0</ele><time>2026-04-18T11:29:27.964Z</time></trkpt><trkpt lat="44.1949745" lon="10.6011308"><ele>887.0</ele><time>2026-04-18T11:29:28.964Z</time></trkpt><trkpt lat="44.1950707" lon="10.6011108"><ele>887.0</ele><time>2026-04-18T11:29:29.964Z</time></trkpt><trkpt lat="44.1951763" lon="10.6010905"><ele>887.0</ele><time>2026-04-18T11:29:30.964Z</time></trkpt><trkpt lat="44.1952805" lon="10.6010415"><ele>887.0</ele><time>2026-04-18T11:29:31.964Z</time></trkpt><trkpt lat="44.1953663" lon="10.6009672"><ele>887.0</ele><time>2026-04-18T11:29:32.964Z</time></trkpt><trkpt lat="44.1954539" lon="10.6008912"><ele>887.0</ele><time>2026-04-18T11:29:33.965Z</time></trkpt><trkpt lat="44.1955163" lon="10.6007697"><ele>887.0</ele><time>2026-04-18T11:29:34.965Z</time></trkpt><trkpt lat="44.1955736" lon="10.6006588"><ele>887.0</ele><time>2026-04-18T11:29:35.965Z</time></trkpt><trkpt lat="44.1955684" lon="10.6005084"><ele>887.0</ele><time>2026-04-18T11:29:36.964Z</time></trkpt><trkpt lat="44.1955639" lon="10.6003659"><ele>887.0</ele><time>2026-04-18T11:29:37.965Z</time></trkpt><trkpt lat="44.1955335" lon="10.600226"><ele>889.75</ele><time>2026-04-18T11:29:38.964Z</time></trkpt><trkpt lat="44.1954921" lon="10.6000811"><ele>892.5</ele><time>2026-04-18T11:29:39.965Z</time></trkpt><trkpt lat="44.1954485" lon="10.5999376"><ele>895.25</ele><time>2026-04-18T11:29:40.964Z</time></trkpt><trkpt lat="44.1954013" lon="10.5997882"><ele>898.0</ele><time>2026-04-18T11:29:41.965Z</time></trkpt><trkpt lat="44.195348" lon="10.5996421"><ele>898.0</ele><time>2026-04-18T11:29:42.965Z</time></trkpt><trkpt lat="44.1952683" lon="10.5995051"><ele>898.0</ele><time>2026-04-18T11:29:43.965Z</time></trkpt><trkpt lat="44.1951834" lon="10.5993682"><ele>898.0</ele><time>2026-04-18T11:29:44.964Z</time></trkpt><trkpt lat="44.1950873" lon="10.5992445"><ele>898.0</ele><time>2026-04-18T11:29:45.965Z</time></trkpt><trkpt lat="44.1949902" lon="10.5991218"><ele>896.0</ele><time>2026-04-18T11:29:46.964Z</time></trkpt><trkpt lat="44.1948972" lon="10.5990037"><ele>894.0</ele><time>2026-04-18T11:29:47.964Z</time></trkpt><trkpt lat="44.1948025" lon="10.598893"><ele>892.0</ele><time>2026-04-18T11:29:48.965Z</time></trkpt><trkpt lat="44.1947099" lon="10.5987792"><ele>890.0</ele><time>2026-04-18T11:29:49.964Z</time></trkpt><trkpt lat="44.1946126" lon="10.5986626"><ele>897.0</ele><time>2026-04-18T11:29:50.964Z</time></trkpt><trkpt lat="44.1945216" lon="10.5985444"><ele>904.0</ele><time>2026-04-18T11:29:51.964Z</time></trkpt><trkpt lat="44.1944341" lon="10.5984143"><ele>911.0</ele><time>2026-04-18T11:29:52.964Z</time></trkpt><trkpt lat="44.1943637" lon="10.5982685"><ele>918.0</ele><time>2026-04-18T11:29:53.964Z</time></trkpt><trkpt lat="44.1943064" lon="10.5981085"><ele>918.0</ele><time>2026-04-18T11:29:54.964Z</time></trkpt><trkpt lat="44.194259" lon="10.5979439"><ele>918.0</ele><time>2026-04-18T11:29:55.964Z</time></trkpt><trkpt lat="44.1942252" lon="10.5977733"><ele>918.0</ele><time>2026-04-18T11:29:56.964Z</time></trkpt><trkpt lat="44.1942089" lon="10.5975943"><ele>918.0</ele><time>2026-04-18T11:29:57.964Z</time></trkpt><trkpt lat="44.1942147" lon="10.5974111"><ele>916.5</ele><time>2026-04-18T11:29:58.964Z</time></trkpt><trkpt lat="44.1942456" lon="10.5972281"><ele>915.0</ele><time>2026-04-18T11:29:59.964Z</time></trkpt><trkpt lat="44.1942947" lon="10.597051"><ele>913.5</ele><time>2026-04-18T11:30:00.965Z</time></trkpt><trkpt lat="44.1943459" lon="10.5968783"><ele>912.0</ele><time>2026-04-18T11:30:01.965Z</time></trkpt><trkpt lat="44.1943767" lon="10.5966918"><ele>912.0</ele><time>2026-04-18T11:30:02.964Z</time></trkpt><trkpt lat="44.1943814" lon="10.5965027"><ele>912.0</ele><time>2026-04-18T11:30:03.965Z</time></trkpt><trkpt lat="44.1943764" lon="10.5963079"><ele>912.0</ele><time>2026-04-18T11:30:04.964Z</time></trkpt><trkpt lat="44.1943702" lon="10.5961064"><ele>912.0</ele><time>2026-04-18T11:30:05.964Z</time></trkpt><trkpt lat="44.1943648" lon="10.5959029"><ele>912.6666666666667</ele><time>2026-04-18T11:30:06.964Z</time></trkpt><trkpt lat="44.1943616" lon="10.5956885"><ele>913.3333333333334</ele><time>2026-04-18T11:30:07.965Z</time></trkpt><trkpt lat="44.1943604" lon="10.5954755"><ele>914.0</ele><time>2026-04-18T11:30:08.964Z</time></trkpt><trkpt lat="44.1943616" lon="10.5952647"><ele>914.5</ele><time>2026-04-18T11:30:09.964Z</time></trkpt><trkpt lat="44.194364" lon="10.5950548"><ele>915.0</ele><time>2026-04-18T11:30:10.964Z</time></trkpt><trkpt lat="44.1943629" lon="10.5948639"><ele>915.5</ele><time>2026-04-18T11:30:11.965Z</time></trkpt><trkpt lat="44.1943433" lon="10.5946808"><ele>916.0</ele><time>2026-04-18T11:30:12.965Z</time></trkpt><trkpt lat="44.1942963" lon="10.5945024"><ele>913.75</ele><time>2026-04-18T11:30:13.964Z</time></trkpt><trkpt lat="44.1942235" lon="10.5943387"><ele>911.5</ele><time>2026-04-18T11:30:14.965Z</time></trkpt><trkpt lat="44.1941356" lon="10.5941893"><ele>909.25</ele><time>2026-04-18T11:30:15.965Z</time></trkpt><trkpt lat="44.1940328" lon="10.5940524"><ele>907.0</ele><time>2026-04-18T11:30:16.965Z</time></trkpt><trkpt lat="44.1939183" lon="10.5939258"><ele>914.0</ele><time>2026-04-18T11:30:17.964Z</time></trkpt><trkpt lat="44.1938013" lon="10.593805"><ele>921.0</ele><time>2026-04-18T11:30:18.964Z</time></trkpt><trkpt lat="44.193706" lon="10.5936761"><ele>928.0</ele><time>2026-04-18T11:30:19.964Z</time></trkpt><trkpt lat="44.1936424" lon="10.5935316"><ele>935.0</ele><time>2026-04-18T11:30:20.965Z</time></trkpt><trkpt lat="44.1936192" lon="10.5933629"><ele>935.0</ele><time>2026-04-18T11:30:21.964Z</time></trkpt><trkpt lat="44.19362" lon="10.5931833"><ele>935.0</ele><time>2026-04-18T11:30:22.964Z</time></trkpt><trkpt lat="44.1936254" lon="10.5929932"><ele>935.0</ele><time>2026-04-18T11:30:23.965Z</time></trkpt><trkpt lat="44.1936205" lon="10.5927953"><ele>935.0</ele><time>2026-04-18T11:30:24.965Z</time></trkpt><trkpt lat="44.1936158" lon="10.5925943"><ele>934.25</ele><time>2026-04-18T11:30:25.965Z</time></trkpt><trkpt lat="44.1935682" lon="10.5923877"><ele>933.5</ele><time>2026-04-18T11:30:26.964Z</time></trkpt><trkpt lat="44.1935317" lon="10.5921819"><ele>932.75</ele><time>2026-04-18T11:30:27.965Z</time></trkpt><trkpt lat="44.1935155" lon="10.5919933"><ele>932.0</ele><time>2026-04-18T11:30:28.965Z</time></trkpt><trkpt lat="44.193513" lon="10.5918143"><ele>931.0</ele><time>2026-04-18T11:30:29.965Z</time></trkpt><trkpt lat="44.1935186" lon="10.5916388"><ele>930.0</ele><time>2026-04-18T11:30:30.965Z</time></trkpt><trkpt lat="44.1935094" lon="10.5914952"><ele>929.0</ele><time>2026-04-18T11:30:31.965Z</time></trkpt><trkpt lat="44.1934855" lon="10.5913471"><ele>928.0</ele><time>2026-04-18T11:30:32.964Z</time></trkpt><trkpt lat="44.1934351" lon="10.5912081"><ele>931.5</ele><time>2026-04-18T11:30:33.964Z</time></trkpt><trkpt lat="44.193383" lon="10.5910718"><ele>935.0</ele><time>2026-04-18T11:30:34.964Z</time></trkpt><trkpt lat="44.1932786" lon="10.5909815"><ele>938.5</ele><time>2026-04-18T11:30:35.964Z</time></trkpt><trkpt lat="44.1931779" lon="10.5909076"><ele>942.0</ele><time>2026-04-18T11:30:36.965Z</time></trkpt><trkpt lat="44.1930637" lon="10.5908585"><ele>942.0</ele><time>2026-04-18T11:30:37.965Z</time></trkpt><trkpt lat="44.1929464" lon="10.5908135"><ele>942.0</ele><time>2026-04-18T11:30:38.964Z</time></trkpt><trkpt lat="44.1928346" lon="10.5907635"><ele>942.0</ele><time>2026-04-18T11:30:39.964Z</time></trkpt><trkpt lat="44.1927342" lon="10.5907162"><ele>942.0</ele><time>2026-04-18T11:30:40.964Z</time></trkpt><trkpt lat="44.1926427" lon="10.5906345"><ele>942.0</ele><time>2026-04-18T11:30:41.965Z</time></trkpt><trkpt lat="44.1925495" lon="10.5905546"><ele>942.0</ele><time>2026-04-18T11:30:42.964Z</time></trkpt><trkpt lat="44.1924478" lon="10.5904923"><ele>942.0</ele><time>2026-04-18T11:30:43.965Z</time></trkpt><trkpt lat="44.1923385" lon="10.590435"><ele>942.0</ele><time>2026-04-18T11:30:44.965Z</time></trkpt><trkpt lat="44.1922324" lon="10.5903819"><ele>945.6</ele><time>2026-04-18T11:30:45.965Z</time></trkpt><trkpt lat="44.1921461" lon="10.5903341"><ele>949.2</ele><time>2026-04-18T11:30:46.965Z</time></trkpt><trkpt lat="44.192057" lon="10.5902776"><ele>952.8</ele><time>2026-04-18T11:30:47.964Z</time></trkpt><trkpt lat="44.1920212" lon="10.5901675"><ele>956.4</ele><time>2026-04-18T11:30:48.964Z</time></trkpt><trkpt lat="44.1919802" lon="10.5900323"><ele>960.0</ele><time>2026-04-18T11:30:49.965Z</time></trkpt><trkpt lat="44.1919537" lon="10.5898945"><ele>960.0</ele><time>2026-04-18T11:30:50.964Z</time></trkpt><trkpt lat="44.1919659" lon="10.5897339"><ele>960.0</ele><time>2026-04-18T11:30:51.964Z</time></trkpt><trkpt lat="44.1919443" lon="10.5895768"><ele>960.0</ele><time>2026-04-18T11:30:52.964Z</time></trkpt><trkpt lat="44.1919162" lon="10.5894228"><ele>960.0</ele><time>2026-04-18T11:30:53.964Z</time></trkpt><trkpt lat="44.1918914" lon="10.5892802"><ele>958.6</ele><time>2026-04-18T11:30:54.964Z</time></trkpt><trkpt lat="44.191873" lon="10.5891393"><ele>957.2</ele><time>2026-04-18T11:30:55.964Z</time></trkpt><trkpt lat="44.1918646" lon="10.5890001"><ele>955.8</ele><time>2026-04-18T11:30:56.965Z</time></trkpt><trkpt lat="44.1918686" lon="10.5888622"><ele>954.4</ele><time>2026-04-18T11:30:57.964Z</time></trkpt><trkpt lat="44.1918561" lon="10.5887233"><ele>953.0</ele><time>2026-04-18T11:30:58.965Z</time></trkpt><trkpt lat="44.1918166" lon="10.5885902"><ele>949.25</ele><time>2026-04-18T11:30:59.965Z</time></trkpt><trkpt lat="44.1917633" lon="10.5884723"><ele>945.5</ele><time>2026-04-18T11:31:00.965Z</time></trkpt><trkpt lat="44.1916746" lon="10.5883711"><ele>941.75</ele><time>2026-04-18T11:31:01.965Z</time></trkpt><trkpt lat="44.1915743" lon="10.5882732"><ele>938.0</ele><time>2026-04-18T11:31:02.965Z</time></trkpt><trkpt lat="44.1914737" lon="10.5881687"><ele>947.25</ele><time>2026-04-18T11:31:03.964Z</time></trkpt><trkpt lat="44.1913663" lon="10.5880633"><ele>956.5</ele><time>2026-04-18T11:31:04.964Z</time></trkpt><trkpt lat="44.191269" lon="10.5879665"><ele>965.75</ele><time>2026-04-18T11:31:05.964Z</time></trkpt><trkpt lat="44.1911845" lon="10.5878831"><ele>975.0</ele><time>2026-04-18T11:31:06.965Z</time></trkpt><trkpt lat="44.1911207" lon="10.5877846"><ele>975.0</ele><time>2026-04-18T11:31:07.964Z</time></trkpt><trkpt lat="44.191097" lon="10.5876776"><ele>975.0</ele><time>2026-04-18T11:31:08.965Z</time></trkpt><trkpt lat="44.1911054" lon="10.5875599"><ele>975.0</ele><time>2026-04-18T11:31:09.964Z</time></trkpt><trkpt lat="44.1911372" lon="10.5874417"><ele>975.0</ele><time>2026-04-18T11:31:10.964Z</time></trkpt><trkpt lat="44.1911974" lon="10.5873316"><ele>975.0</ele><time>2026-04-18T11:31:11.964Z</time></trkpt><trkpt lat="44.1912895" lon="10.5872465"><ele>975.0</ele><time>2026-04-18T11:31:12.965Z</time></trkpt><trkpt lat="44.1913929" lon="10.5871672"><ele>975.0</ele><time>2026-04-18T11:31:13.964Z</time></trkpt><trkpt lat="44.1914963" lon="10.5870837"><ele>975.0</ele><time>2026-04-18T11:31:14.965Z</time></trkpt><trkpt lat="44.1915993" lon="10.5869749"><ele>975.0</ele><time>2026-04-18T11:31:15.965Z</time></trkpt><trkpt lat="44.1916855" lon="10.5868625"><ele>970.0</ele><time>2026-04-18T11:31:16.964Z</time></trkpt><trkpt lat="44.1917487" lon="10.5867296"><ele>965.0</ele><time>2026-04-18T11:31:17.964Z</time></trkpt><trkpt lat="44.1917885" lon="10.5865861"><ele>960.0</ele><time>2026-04-18T11:31:18.965Z</time></trkpt><trkpt lat="44.1918024" lon="10.5864235"><ele>955.0</ele><time>2026-04-18T11:31:19.964Z</time></trkpt><trkpt lat="44.1917975" lon="10.586255"><ele>956.5</ele><time>2026-04-18T11:31:20.965Z</time></trkpt><trkpt lat="44.1917817" lon="10.5860913"><ele>958.0</ele><time>2026-04-18T11:31:21.965Z</time></trkpt><trkpt lat="44.1917556" lon="10.5859123"><ele>959.5</ele><time>2026-04-18T11:31:22.965Z</time></trkpt><trkpt lat="44.1917301" lon="10.585739"><ele>961.0</ele><time>2026-04-18T11:31:23.964Z</time></trkpt><trkpt lat="44.1917043" lon="10.5855704"><ele>961.0</ele><time>2026-04-18T11:31:24.965Z</time></trkpt><trkpt lat="44.1916763" lon="10.5853995"><ele>961.0</ele><time>2026-04-18T11:31:25.964Z</time></trkpt><trkpt lat="44.1916329" lon="10.5852328"><ele>961.0</ele><time>2026-04-18T11:31:26.964Z</time></trkpt><trkpt lat="44.1915742" lon="10.5850731"><ele>961.0</ele><time>2026-04-18T11:31:27.965Z</time></trkpt><trkpt lat="44.1915003" lon="10.5849246"><ele>963.25</ele><time>2026-04-18T11:31:28.965Z</time></trkpt><trkpt lat="44.1914223" lon="10.5847814"><ele>965.5</ele><time>2026-04-18T11:31:29.965Z</time></trkpt><trkpt lat="44.1913462" lon="10.5846295"><ele>967.75</ele><time>2026-04-18T11:31:30.964Z</time></trkpt><trkpt lat="44.1912669" lon="10.5844863"><ele>970.0</ele><time>2026-04-18T11:31:31.964Z</time></trkpt><trkpt lat="44.1911828" lon="10.5843409"><ele>970.0</ele><time>2026-04-18T11:31:32.965Z</time></trkpt><trkpt lat="44.1910931" lon="10.5842118"><ele>970.0</ele><time>2026-04-18T11:31:33.964Z</time></trkpt><trkpt lat="44.190994" lon="10.5841033"><ele>970.0</ele><time>2026-04-18T11:31:34.965Z</time></trkpt><trkpt lat="44.190886" lon="10.5840218"><ele>970.0</ele><time>2026-04-18T11:31:35.964Z</time></trkpt><trkpt lat="44.1907673" lon="10.583978"><ele>975.75</ele><time>2026-04-18T11:31:36.964Z</time></trkpt><trkpt lat="44.1906394" lon="10.5839491"><ele>981.5</ele><time>2026-04-18T11:31:37.965Z</time></trkpt><trkpt lat="44.1905206" lon="10.5839242"><ele>987.25</ele><time>2026-04-18T11:31:38.964Z</time></trkpt><trkpt lat="44.1904103" lon="10.5838972"><ele>993.0</ele><time>2026-04-18T11:31:39.965Z</time></trkpt><trkpt lat="44.1903105" lon="10.5838648"><ele>993.0</ele><time>2026-04-18T11:31:40.964Z</time></trkpt><trkpt lat="44.1902203" lon="10.5838208"><ele>993.0</ele><time>2026-04-18T11:31:41.964Z</time></trkpt><trkpt lat="44.1901377" lon="10.5837549"><ele>993.0</ele><time>2026-04-18T11:31:42.965Z</time></trkpt><trkpt lat="44.1900817" lon="10.5836562"><ele>993.0</ele><time>2026-04-18T11:31:43.965Z</time></trkpt><trkpt lat="44.190037" lon="10.5835457"><ele>993.0</ele><time>2026-04-18T11:31:44.964Z</time></trkpt><trkpt lat="44.1900012" lon="10.5834506"><ele>993.0</ele><time>2026-04-18T11:31:45.964Z</time></trkpt><trkpt lat="44.1899615" lon="10.5832881"><ele>993.4</ele><time>2026-04-18T11:31:47.964Z</time></trkpt><trkpt lat="44.1899026" lon="10.5831383"><ele>993.8</ele><time>2026-04-18T11:31:49.965Z</time></trkpt><trkpt lat="44.1898551" lon="10.5830799"><ele>994.2</ele><time>2026-04-18T11:31:50.965Z</time></trkpt><trkpt lat="44.189791" lon="10.5830378"><ele>994.6</ele><time>2026-04-18T11:31:51.964Z</time></trkpt><trkpt lat="44.1897068" lon="10.5830141"><ele>995.0</ele><time>2026-04-18T11:31:52.965Z</time></trkpt><trkpt lat="44.1895983" lon="10.5830006"><ele>995.0</ele><time>2026-04-18T11:31:53.964Z</time></trkpt><trkpt lat="44.1895022" lon="10.5829874"><ele>995.0</ele><time>2026-04-18T11:31:54.965Z</time></trkpt><trkpt lat="44.1894031" lon="10.5829699"><ele>995.0</ele><time>2026-04-18T11:31:55.964Z</time></trkpt><trkpt lat="44.1893091" lon="10.5829254"><ele>995.0</ele><time>2026-04-18T11:31:56.965Z</time></trkpt><trkpt lat="44.1892208" lon="10.5828606"><ele>995.0</ele><time>2026-04-18T11:31:57.965Z</time></trkpt><trkpt lat="44.1891292" lon="10.582793"><ele>996.0</ele><time>2026-04-18T11:31:58.964Z</time></trkpt><trkpt lat="44.1890365" lon="10.5827144"><ele>997.0</ele><time>2026-04-18T11:31:59.964Z</time></trkpt><trkpt lat="44.1889386" lon="10.5826219"><ele>998.0</ele><time>2026-04-18T11:32:00.964Z</time></trkpt><trkpt lat="44.1888383" lon="10.5825357"><ele>999.0</ele><time>2026-04-18T11:32:01.964Z</time></trkpt><trkpt lat="44.1887346" lon="10.5824472"><ele>999.0</ele><time>2026-04-18T11:32:02.964Z</time></trkpt><trkpt lat="44.1886373" lon="10.5823665"><ele>999.0</ele><time>2026-04-18T11:32:03.964Z</time></trkpt><trkpt lat="44.1885387" lon="10.582272"><ele>999.0</ele><time>2026-04-18T11:32:04.964Z</time></trkpt><trkpt lat="44.1884369" lon="10.5821735"><ele>999.0</ele><time>2026-04-18T11:32:05.964Z</time></trkpt><trkpt lat="44.188334" lon="10.5820647"><ele>1000.0</ele><time>2026-04-18T11:32:06.964Z</time></trkpt><trkpt lat="44.1882265" lon="10.5819415"><ele>1001.0</ele><time>2026-04-18T11:32:07.965Z</time></trkpt><trkpt lat="44.1881323" lon="10.5818087"><ele>1002.0</ele><time>2026-04-18T11:32:08.964Z</time></trkpt><trkpt lat="44.1880504" lon="10.5816554"><ele>1003.0</ele><time>2026-04-18T11:32:09.964Z</time></trkpt><trkpt lat="44.187957" lon="10.5815373"><ele>1003.0</ele><time>2026-04-18T11:32:10.964Z</time></trkpt><trkpt lat="44.1878532" lon="10.5814337"><ele>1003.0</ele><time>2026-04-18T11:32:11.965Z</time></trkpt><trkpt lat="44.1877447" lon="10.5813651"><ele>1003.0</ele><time>2026-04-18T11:32:12.964Z</time></trkpt><trkpt lat="44.1876044" lon="10.5813793"><ele>1003.0</ele><time>2026-04-18T11:32:13.965Z</time></trkpt><trkpt lat="44.1874791" lon="10.5813516"><ele>1003.0</ele><time>2026-04-18T11:32:14.965Z</time></trkpt><trkpt lat="44.1873646" lon="10.5813154"><ele>1003.0</ele><time>2026-04-18T11:32:15.965Z</time></trkpt><trkpt lat="44.1872597" lon="10.5812537"><ele>1003.0</ele><time>2026-04-18T11:32:16.965Z</time></trkpt><trkpt lat="44.1871751" lon="10.5811396"><ele>1003.0</ele><time>2026-04-18T11:32:17.964Z</time></trkpt><trkpt lat="44.1871257" lon="10.5810057"><ele>1004.5</ele><time>2026-04-18T11:32:18.965Z</time></trkpt><trkpt lat="44.1871213" lon="10.5808429"><ele>1006.0</ele><time>2026-04-18T11:32:19.964Z</time></trkpt><trkpt lat="44.1871367" lon="10.5806659"><ele>1007.5</ele><time>2026-04-18T11:32:20.964Z</time></trkpt><trkpt lat="44.187161" lon="10.5804804"><ele>1009.0</ele><time>2026-04-18T11:32:21.965Z</time></trkpt><trkpt lat="44.187185" lon="10.5802981"><ele>1009.0</ele><time>2026-04-18T11:32:22.964Z</time></trkpt><trkpt lat="44.1871894" lon="10.5801099"><ele>1009.0</ele><time>2026-04-18T11:32:23.965Z</time></trkpt><trkpt lat="44.1871788" lon="10.5799197"><ele>1009.0</ele><time>2026-04-18T11:32:24.964Z</time></trkpt><trkpt lat="44.1871521" lon="10.5797342"><ele>1009.0</ele><time>2026-04-18T11:32:25.964Z</time></trkpt><trkpt lat="44.1871301" lon="10.5795476"><ele>1008.0</ele><time>2026-04-18T11:32:26.965Z</time></trkpt><trkpt lat="44.18712" lon="10.5793548"><ele>1007.0</ele><time>2026-04-18T11:32:27.964Z</time></trkpt><trkpt lat="44.1871239" lon="10.5791641"><ele>1006.0</ele><time>2026-04-18T11:32:28.964Z</time></trkpt><trkpt lat="44.1871209" lon="10.5789717"><ele>1005.0</ele><time>2026-04-18T11:32:29.964Z</time></trkpt><trkpt lat="44.1871028" lon="10.5787804"><ele>1004.5</ele><time>2026-04-18T11:32:30.964Z</time></trkpt><trkpt lat="44.187084" lon="10.5785957"><ele>1004.0</ele><time>2026-04-18T11:32:31.965Z</time></trkpt><trkpt lat="44.1870575" lon="10.578408"><ele>1003.5</ele><time>2026-04-18T11:32:32.965Z</time></trkpt><trkpt lat="44.1870424" lon="10.5782334"><ele>1003.0</ele><time>2026-04-18T11:32:33.965Z</time></trkpt><trkpt lat="44.187047" lon="10.5780649"><ele>1003.0</ele><time>2026-04-18T11:32:34.965Z</time></trkpt><trkpt lat="44.1870799" lon="10.5779031"><ele>1003.0</ele><time>2026-04-18T11:32:35.965Z</time></trkpt><trkpt lat="44.1871392" lon="10.5777514"><ele>1003.0</ele><time>2026-04-18T11:32:36.965Z</time></trkpt><trkpt lat="44.1872168" lon="10.5776067"><ele>1003.0</ele><time>2026-04-18T11:32:37.965Z</time></trkpt><trkpt lat="44.1873071" lon="10.5774707"><ele>1002.0</ele><time>2026-04-18T11:32:38.964Z</time></trkpt><trkpt lat="44.1874096" lon="10.5773451"><ele>1001.0</ele><time>2026-04-18T11:32:39.964Z</time></trkpt><trkpt lat="44.1875219" lon="10.577245"><ele>1000.0</ele><time>2026-04-18T11:32:40.964Z</time></trkpt><trkpt lat="44.1876475" lon="10.5771869"><ele>999.0</ele><time>2026-04-18T11:32:41.964Z</time></trkpt><trkpt lat="44.18778" lon="10.5771506"><ele>999.0</ele><time>2026-04-18T11:32:42.965Z</time></trkpt><trkpt lat="44.1879129" lon="10.5771183"><ele>999.0</ele><time>2026-04-18T11:32:43.964Z</time></trkpt><trkpt lat="44.1880477" lon="10.5770813"><ele>999.0</ele><time>2026-04-18T11:32:44.965Z</time></trkpt><trkpt lat="44.1881676" lon="10.5770394"><ele>999.0</ele><time>2026-04-18T11:32:45.964Z</time></trkpt><trkpt lat="44.1882738" lon="10.5769666"><ele>998.75</ele><time>2026-04-18T11:32:46.965Z</time></trkpt><trkpt lat="44.1883678" lon="10.5768702"><ele>998.5</ele><time>2026-04-18T11:32:47.964Z</time></trkpt><trkpt lat="44.188444" lon="10.576742"><ele>998.25</ele><time>2026-04-18T11:32:48.965Z</time></trkpt><trkpt lat="44.1884963" lon="10.5765894"><ele>998.0</ele><time>2026-04-18T11:32:49.964Z</time></trkpt><trkpt lat="44.1885103" lon="10.5764299"><ele>998.0</ele><time>2026-04-18T11:32:50.965Z</time></trkpt><trkpt lat="44.1884838" lon="10.5762768"><ele>998.0</ele><time>2026-04-18T11:32:51.965Z</time></trkpt><trkpt lat="44.1884181" lon="10.576125"><ele>998.0</ele><time>2026-04-18T11:32:52.964Z</time></trkpt><trkpt lat="44.1883441" lon="10.5759778"><ele>998.0</ele><time>2026-04-18T11:32:53.965Z</time></trkpt><trkpt lat="44.1882561" lon="10.5758331"><ele>997.5</ele><time>2026-04-18T11:32:54.964Z</time></trkpt><trkpt lat="44.1882122" lon="10.5756494"><ele>997.0</ele><time>2026-04-18T11:32:55.964Z</time></trkpt><trkpt lat="44.1881602" lon="10.5754795"><ele>996.5</ele><time>2026-04-18T11:32:56.964Z</time></trkpt><trkpt lat="44.1881729" lon="10.5752879"><ele>996.0</ele><time>2026-04-18T11:32:57.965Z</time></trkpt><trkpt lat="44.1881811" lon="10.5751032"><ele>995.25</ele><time>2026-04-18T11:32:58.965Z</time></trkpt><trkpt lat="44.1882003" lon="10.5749167"><ele>994.5</ele><time>2026-04-18T11:32:59.964Z</time></trkpt><trkpt lat="44.1882095" lon="10.5747293"><ele>993.75</ele><time>2026-04-18T11:33:00.964Z</time></trkpt><trkpt lat="44.188208" lon="10.5745356"><ele>993.0</ele><time>2026-04-18T11:33:01.965Z</time></trkpt><trkpt lat="44.1881946" lon="10.5743409"><ele>993.0</ele><time>2026-04-18T11:33:02.964Z</time></trkpt><trkpt lat="44.1881778" lon="10.5741506"><ele>993.0</ele><time>2026-04-18T11:33:03.964Z</time></trkpt><trkpt lat="44.1881552" lon="10.5739594"><ele>993.0</ele><time>2026-04-18T11:33:04.964Z</time></trkpt><trkpt lat="44.1881267" lon="10.5737686"><ele>993.0</ele><time>2026-04-18T11:33:05.964Z</time></trkpt><trkpt lat="44.1880989" lon="10.5735769"><ele>992.75</ele><time>2026-04-18T11:33:06.964Z</time></trkpt><trkpt lat="44.1880871" lon="10.573399"><ele>992.5</ele><time>2026-04-18T11:33:07.964Z</time></trkpt><trkpt lat="44.1881112" lon="10.5732289"><ele>992.25</ele><time>2026-04-18T11:33:08.965Z</time></trkpt><trkpt lat="44.188165" lon="10.5730793"><ele>992.0</ele><time>2026-04-18T11:33:09.965Z</time></trkpt><trkpt lat="44.1882346" lon="10.572933"><ele>992.5</ele><time>2026-04-18T11:33:10.964Z</time></trkpt><trkpt lat="44.1882872" lon="10.5727775"><ele>993.0</ele><time>2026-04-18T11:33:11.964Z</time></trkpt><trkpt lat="44.1883108" lon="10.5726056"><ele>993.5</ele><time>2026-04-18T11:33:12.965Z</time></trkpt><trkpt lat="44.188298" lon="10.5724289"><ele>994.0</ele><time>2026-04-18T11:33:13.964Z</time></trkpt><trkpt lat="44.1882606" lon="10.5722645"><ele>994.0</ele><time>2026-04-18T11:33:14.964Z</time></trkpt><trkpt lat="44.1882352" lon="10.5721085"><ele>994.0</ele><time>2026-04-18T11:33:15.965Z</time></trkpt><trkpt lat="44.1882471" lon="10.5719563"><ele>994.0</ele><time>2026-04-18T11:33:16.964Z</time></trkpt><trkpt lat="44.1882934" lon="10.5718058"><ele>994.0</ele><time>2026-04-18T11:33:17.965Z</time></trkpt><trkpt lat="44.1883693" lon="10.5716749"><ele>995.0</ele><time>2026-04-18T11:33:18.964Z</time></trkpt><trkpt lat="44.1884644" lon="10.5715637"><ele>996.0</ele><time>2026-04-18T11:33:19.965Z</time></trkpt><trkpt lat="44.1885548" lon="10.5714315"><ele>997.0</ele><time>2026-04-18T11:33:20.964Z</time></trkpt><trkpt lat="44.1886233" lon="10.5712725"><ele>998.0</ele><time>2026-04-18T11:33:21.964Z</time></trkpt><trkpt lat="44.1886771" lon="10.5711021"><ele>1003.0</ele><time>2026-04-18T11:33:22.964Z</time></trkpt><trkpt lat="44.1887294" lon="10.5709187"><ele>1008.0</ele><time>2026-04-18T11:33:23.964Z</time></trkpt><trkpt lat="44.1887883" lon="10.5707368"><ele>1013.0</ele><time>2026-04-18T11:33:24.964Z</time></trkpt><trkpt lat="44.1888493" lon="10.5705758"><ele>1018.0</ele><time>2026-04-18T11:33:25.965Z</time></trkpt><trkpt lat="44.1889162" lon="10.5704221"><ele>1020.0</ele><time>2026-04-18T11:33:26.965Z</time></trkpt><trkpt lat="44.1889768" lon="10.570286"><ele>1022.0</ele><time>2026-04-18T11:33:27.965Z</time></trkpt><trkpt lat="44.1890163" lon="10.5701487"><ele>1024.0</ele><time>2026-04-18T11:33:28.965Z</time></trkpt><trkpt lat="44.1890283" lon="10.5700069"><ele>1026.0</ele><time>2026-04-18T11:33:29.965Z</time></trkpt><trkpt lat="44.1890162" lon="10.569857"><ele>1028.0</ele><time>2026-04-18T11:33:30.964Z</time></trkpt><trkpt lat="44.1889856" lon="10.5697124"><ele>1028.0</ele><time>2026-04-18T11:33:31.965Z</time></trkpt><trkpt lat="44.1889514" lon="10.5695516"><ele>1028.0</ele><time>2026-04-18T11:33:32.965Z</time></trkpt><trkpt lat="44.1889177" lon="10.5693887"><ele>1028.0</ele><time>2026-04-18T11:33:33.964Z</time></trkpt><trkpt lat="44.1888688" lon="10.5692181"><ele>1028.0</ele><time>2026-04-18T11:33:34.965Z</time></trkpt><trkpt lat="44.1888199" lon="10.5690347"><ele>1026.25</ele><time>2026-04-18T11:33:35.965Z</time></trkpt><trkpt lat="44.1887605" lon="10.5688708"><ele>1024.5</ele><time>2026-04-18T11:33:36.964Z</time></trkpt><trkpt lat="44.1887097" lon="10.5686965"><ele>1022.75</ele><time>2026-04-18T11:33:37.965Z</time></trkpt><trkpt lat="44.188658" lon="10.5685305"><ele>1021.0</ele><time>2026-04-18T11:33:38.964Z</time></trkpt><trkpt lat="44.1886165" lon="10.5683665"><ele>1017.25</ele><time>2026-04-18T11:33:39.965Z</time></trkpt><trkpt lat="44.1885645" lon="10.5682058"><ele>1013.5</ele><time>2026-04-18T11:33:40.964Z</time></trkpt><trkpt lat="44.1885129" lon="10.5680495"><ele>1009.75</ele><time>2026-04-18T11:33:41.964Z</time></trkpt><trkpt lat="44.1884423" lon="10.5678781"><ele>1006.0</ele><time>2026-04-18T11:33:42.964Z</time></trkpt><trkpt lat="44.1883614" lon="10.5677263"><ele>1009.0</ele><time>2026-04-18T11:33:43.965Z</time></trkpt><trkpt lat="44.1882698" lon="10.5675845"><ele>1012.0</ele><time>2026-04-18T11:33:44.965Z</time></trkpt><trkpt lat="44.188182" lon="10.5674538"><ele>1015.0</ele><time>2026-04-18T11:33:45.964Z</time></trkpt><trkpt lat="44.188087" lon="10.5673339"><ele>1018.0</ele><time>2026-04-18T11:33:46.965Z</time></trkpt><trkpt lat="44.1879851" lon="10.5672338"><ele>1018.0</ele><time>2026-04-18T11:33:47.964Z</time></trkpt><trkpt lat="44.1878833" lon="10.5671369"><ele>1018.0</ele><time>2026-04-18T11:33:48.965Z</time></trkpt><trkpt lat="44.1877796" lon="10.5670392"><ele>1018.0</ele><time>2026-04-18T11:33:49.965Z</time></trkpt><trkpt lat="44.1876844" lon="10.566946"><ele>1018.0</ele><time>2026-04-18T11:33:50.964Z</time></trkpt><trkpt lat="44.1875965" lon="10.5668217"><ele>1012.25</ele><time>2026-04-18T11:33:51.964Z</time></trkpt><trkpt lat="44.1875456" lon="10.5666586"><ele>1006.5</ele><time>2026-04-18T11:33:52.964Z</time></trkpt><trkpt lat="44.1875013" lon="10.5665047"><ele>1000.75</ele><time>2026-04-18T11:33:53.965Z</time></trkpt><trkpt lat="44.1874671" lon="10.5663404"><ele>995.0</ele><time>2026-04-18T11:33:54.965Z</time></trkpt><trkpt lat="44.1874214" lon="10.566184"><ele>994.75</ele><time>2026-04-18T11:33:55.965Z</time></trkpt><trkpt lat="44.1873501" lon="10.5660517"><ele>994.5</ele><time>2026-04-18T11:33:56.964Z</time></trkpt><trkpt lat="44.1872628" lon="10.5659334"><ele>994.25</ele><time>2026-04-18T11:33:57.964Z</time></trkpt><trkpt lat="44.1871457" lon="10.5658765"><ele>994.0</ele><time>2026-04-18T11:33:58.964Z</time></trkpt><trkpt lat="44.187027" lon="10.5658385"><ele>994.0</ele><time>2026-04-18T11:33:59.964Z</time></trkpt><trkpt lat="44.1868989" lon="10.565794"><ele>994.0</ele><time>2026-04-18T11:34:00.964Z</time></trkpt><trkpt lat="44.1867825" lon="10.5657394"><ele>994.0</ele><time>2026-04-18T11:34:01.964Z</time></trkpt><trkpt lat="44.186665" lon="10.5656893"><ele>994.0</ele><time>2026-04-18T11:34:02.964Z</time></trkpt><trkpt lat="44.1865419" lon="10.5656338"><ele>993.6666666666666</ele><time>2026-04-18T11:34:04.965Z</time></trkpt><trkpt lat="44.1864663" lon="10.5655224"><ele>993.3333333333333</ele><time>2026-04-18T11:34:06.964Z</time></trkpt><trkpt lat="44.1864641" lon="10.5653822"><ele>993.0</ele><time>2026-04-18T11:34:08.964Z</time></trkpt><trkpt lat="44.1864716" lon="10.5652895"><ele>992.6666666666667</ele><time>2026-04-18T11:34:09.964Z</time></trkpt><trkpt lat="44.1864818" lon="10.5651882"><ele>992.3333333333334</ele><time>2026-04-18T11:34:10.965Z</time></trkpt><trkpt lat="44.1864922" lon="10.5650719"><ele>992.0</ele><time>2026-04-18T11:34:11.964Z</time></trkpt><trkpt lat="44.1865093" lon="10.5649576"><ele>989.6666666666667</ele><time>2026-04-18T11:34:12.964Z</time></trkpt><trkpt lat="44.1865525" lon="10.5648561"><ele>987.3333333333334</ele><time>2026-04-18T11:34:13.964Z</time></trkpt><trkpt lat="44.1866121" lon="10.5647778"><ele>985.0</ele><time>2026-04-18T11:34:14.964Z</time></trkpt><trkpt lat="44.1866789" lon="10.5647248"><ele>982.6666666666667</ele><time>2026-04-18T11:34:15.965Z</time></trkpt><trkpt lat="44.1867584" lon="10.5646915"><ele>980.3333333333334</ele><time>2026-04-18T11:34:16.964Z</time></trkpt><trkpt lat="44.1868432" lon="10.5646618"><ele>978.0</ele><time>2026-04-18T11:34:17.964Z</time></trkpt><trkpt lat="44.1869387" lon="10.5646311"><ele>978.0</ele><time>2026-04-18T11:34:18.965Z</time></trkpt><trkpt lat="44.1870328" lon="10.5645951"><ele>978.0</ele><time>2026-04-18T11:34:19.964Z</time></trkpt><trkpt lat="44.1871339" lon="10.5645552"><ele>978.0</ele><time>2026-04-18T11:34:20.965Z</time></trkpt><trkpt lat="44.1872389" lon="10.5645158"><ele>978.0</ele><time>2026-04-18T11:34:21.965Z</time></trkpt><trkpt lat="44.1873546" lon="10.5644746"><ele>978.0</ele><time>2026-04-18T11:34:22.964Z</time></trkpt><trkpt lat="44.1874733" lon="10.5644438"><ele>982.25</ele><time>2026-04-18T11:34:23.964Z</time></trkpt><trkpt lat="44.1875942" lon="10.564415"><ele>986.5</ele><time>2026-04-18T11:34:24.965Z</time></trkpt><trkpt lat="44.1877124" lon="10.5644196"><ele>990.75</ele><time>2026-04-18T11:34:25.965Z</time></trkpt><trkpt lat="44.1878218" lon="10.5644279"><ele>995.0</ele><time>2026-04-18T11:34:26.964Z</time></trkpt><trkpt lat="44.1879213" lon="10.5644396"><ele>995.0000000000001</ele><time>2026-04-18T11:34:27.965Z</time></trkpt><trkpt lat="44.1880063" lon="10.5644376"><ele>995.0</ele><time>2026-04-18T11:34:28.965Z</time></trkpt><trkpt lat="44.1880744" lon="10.5643869"><ele>995.0</ele><time>2026-04-18T11:34:29.965Z</time></trkpt><trkpt lat="44.1881318" lon="10.5643073"><ele>995.0</ele><time>2026-04-18T11:34:30.964Z</time></trkpt><trkpt lat="44.1881677" lon="10.5641928"><ele>995.0000000000001</ele><time>2026-04-18T11:34:31.965Z</time></trkpt><trkpt lat="44.1881865" lon="10.5640496"><ele>995.0</ele><time>2026-04-18T11:34:32.964Z</time></trkpt><trkpt lat="44.1882038" lon="10.563897"><ele>995.0</ele><time>2026-04-18T11:34:33.965Z</time></trkpt><trkpt lat="44.1882181" lon="10.5637222"><ele>995.0</ele><time>2026-04-18T11:34:34.965Z</time></trkpt><trkpt lat="44.1882321" lon="10.5635357"><ele>995.0</ele><time>2026-04-18T11:34:35.964Z</time></trkpt><trkpt lat="44.1882447" lon="10.5633413"><ele>995.0</ele><time>2026-04-18T11:34:36.965Z</time></trkpt><trkpt lat="44.1882611" lon="10.563169"><ele>995.0</ele><time>2026-04-18T11:34:37.964Z</time></trkpt><trkpt lat="44.1882752" lon="10.5629989"><ele>995.0</ele><time>2026-04-18T11:34:38.964Z</time></trkpt><trkpt lat="44.1882834" lon="10.5628375"><ele>995.0</ele><time>2026-04-18T11:34:39.964Z</time></trkpt><trkpt lat="44.1882919" lon="10.5626711"><ele>995.0</ele><time>2026-04-18T11:34:40.965Z</time></trkpt><trkpt lat="44.188304" lon="10.5625034"><ele>995.6</ele><time>2026-04-18T11:34:41.964Z</time></trkpt><trkpt lat="44.1883146" lon="10.5623526"><ele>996.2</ele><time>2026-04-18T11:34:42.965Z</time></trkpt><trkpt lat="44.1883135" lon="10.5621963"><ele>996.8</ele><time>2026-04-18T11:34:43.964Z</time></trkpt><trkpt lat="44.1883148" lon="10.56205"><ele>997.4</ele><time>2026-04-18T11:34:44.964Z</time></trkpt><trkpt lat="44.1883109" lon="10.561903"><ele>998.0</ele><time>2026-04-18T11:34:45.965Z</time></trkpt><trkpt lat="44.1883195" lon="10.5617762"><ele>999.8333333333334</ele><time>2026-04-18T11:34:46.965Z</time></trkpt><trkpt lat="44.1883607" lon="10.5616647"><ele>1001.6666666666667</ele><time>2026-04-18T11:34:47.965Z</time></trkpt><trkpt lat="44.1884174" lon="10.561573"><ele>1003.5</ele><time>2026-04-18T11:34:48.964Z</time></trkpt><trkpt lat="44.1884889" lon="10.5615189"><ele>1005.3333333333333</ele><time>2026-04-18T11:34:49.965Z</time></trkpt><trkpt lat="44.1885719" lon="10.5615183"><ele>1007.1666666666666</ele><time>2026-04-18T11:34:50.964Z</time></trkpt><trkpt lat="44.1886591" lon="10.5615385"><ele>1009.0</ele><time>2026-04-18T11:34:51.965Z</time></trkpt><trkpt lat="44.1887502" lon="10.5615731"><ele>1009.0</ele><time>2026-04-18T11:34:52.964Z</time></trkpt><trkpt lat="44.1888514" lon="10.5615848"><ele>1009.0000000000001</ele><time>2026-04-18T11:34:53.965Z</time></trkpt><trkpt lat="44.1889614" lon="10.5615769"><ele>1009.0000000000001</ele><time>2026-04-18T11:34:54.964Z</time></trkpt><trkpt lat="44.1890728" lon="10.5615527"><ele>1009.0</ele><time>2026-04-18T11:34:55.965Z</time></trkpt><trkpt lat="44.1891819" lon="10.5615153"><ele>1009.0</ele><time>2026-04-18T11:34:56.965Z</time></trkpt><trkpt lat="44.1892824" lon="10.5614345"><ele>1009.0</ele><time>2026-04-18T11:34:57.964Z</time></trkpt><trkpt lat="44.1893708" lon="10.5613352"><ele>1009.0</ele><time>2026-04-18T11:34:58.965Z</time></trkpt><trkpt lat="44.1894561" lon="10.5612215"><ele>1009.0</ele><time>2026-04-18T11:34:59.964Z</time></trkpt><trkpt lat="44.1895377" lon="10.5611015"><ele>1009.0</ele><time>2026-04-18T11:35:00.964Z</time></trkpt><trkpt lat="44.1896158" lon="10.5609727"><ele>1009.4000000000001</ele><time>2026-04-18T11:35:01.964Z</time></trkpt><trkpt lat="44.1896858" lon="10.5608449"><ele>1009.8000000000001</ele><time>2026-04-18T11:35:02.964Z</time></trkpt><trkpt lat="44.1897397" lon="10.5607359"><ele>1010.1999999999999</ele><time>2026-04-18T11:35:03.964Z</time></trkpt><trkpt lat="44.1897955" lon="10.5606334"><ele>1010.5999999999999</ele><time>2026-04-18T11:35:04.965Z</time></trkpt><trkpt lat="44.1898451" lon="10.5605248"><ele>1011.0</ele><time>2026-04-18T11:35:05.964Z</time></trkpt><trkpt lat="44.1898703" lon="10.5603952"><ele>1013.0</ele><time>2026-04-18T11:35:06.964Z</time></trkpt><trkpt lat="44.1898578" lon="10.5602657"><ele>1014.9999999999999</ele><time>2026-04-18T11:35:07.964Z</time></trkpt><trkpt lat="44.1898445" lon="10.560141"><ele>1016.9999999999999</ele><time>2026-04-18T11:35:08.964Z</time></trkpt><trkpt lat="44.1898258" lon="10.5600022"><ele>1019.0</ele><time>2026-04-18T11:35:09.965Z</time></trkpt><trkpt lat="44.1898307" lon="10.5598589"><ele>1021.0</ele><time>2026-04-18T11:35:10.965Z</time></trkpt><trkpt lat="44.189847" lon="10.5597218"><ele>1021.0</ele><time>2026-04-18T11:35:11.964Z</time></trkpt><trkpt lat="44.1898682" lon="10.559591"><ele>1020.9999999999999</ele><time>2026-04-18T11:35:12.965Z</time></trkpt><trkpt lat="44.1898742" lon="10.5594665"><ele>1020.9999999999999</ele><time>2026-04-18T11:35:13.964Z</time></trkpt><trkpt lat="44.1898524" lon="10.55935"><ele>1021.0</ele><time>2026-04-18T11:35:14.964Z</time></trkpt><trkpt lat="44.1898092" lon="10.5592383"><ele>1021.0</ele><time>2026-04-18T11:35:15.964Z</time></trkpt><trkpt lat="44.1897598" lon="10.5591219"><ele>1024.0</ele><time>2026-04-18T11:35:16.964Z</time></trkpt><trkpt lat="44.1897467" lon="10.5589883"><ele>1027.0</ele><time>2026-04-18T11:35:17.965Z</time></trkpt><trkpt lat="44.1897646" lon="10.5588445"><ele>1030.0</ele><time>2026-04-18T11:35:18.964Z</time></trkpt><trkpt lat="44.189787" lon="10.5587029"><ele>1033.0</ele><time>2026-04-18T11:35:19.964Z</time></trkpt><trkpt lat="44.1898273" lon="10.5585464"><ele>1036.0</ele><time>2026-04-18T11:35:20.965Z</time></trkpt><trkpt lat="44.1898987" lon="10.5584193"><ele>1036.0</ele><time>2026-04-18T11:35:21.965Z</time></trkpt><trkpt lat="44.1899545" lon="10.5582807"><ele>1036.0</ele><time>2026-04-18T11:35:22.964Z</time></trkpt><trkpt lat="44.1900068" lon="10.5581478"><ele>1036.0</ele><time>2026-04-18T11:35:23.965Z</time></trkpt><trkpt lat="44.1900388" lon="10.557998"><ele>1036.0</ele><time>2026-04-18T11:35:24.964Z</time></trkpt><trkpt lat="44.1900728" lon="10.5578614"><ele>1036.0</ele><time>2026-04-18T11:35:25.965Z</time></trkpt><trkpt lat="44.1900695" lon="10.5577081"><ele>1038.5</ele><time>2026-04-18T11:35:26.964Z</time></trkpt><trkpt lat="44.1900677" lon="10.5575484"><ele>1041.0</ele><time>2026-04-18T11:35:27.965Z</time></trkpt><trkpt lat="44.190059" lon="10.5573911"><ele>1043.5</ele><time>2026-04-18T11:35:28.964Z</time></trkpt><trkpt lat="44.1900527" lon="10.5572345"><ele>1046.0</ele><time>2026-04-18T11:35:29.964Z</time></trkpt><trkpt lat="44.1900621" lon="10.5570809"><ele>1047.8333333333335</ele><time>2026-04-18T11:35:30.965Z</time></trkpt><trkpt lat="44.1900633" lon="10.5569378"><ele>1049.6666666666667</ele><time>2026-04-18T11:35:31.965Z</time></trkpt><trkpt lat="44.1900349" lon="10.5568091"><ele>1051.5</ele><time>2026-04-18T11:35:32.965Z</time></trkpt><trkpt lat="44.1900124" lon="10.5566882"><ele>1053.3333333333333</ele><time>2026-04-18T11:35:33.964Z</time></trkpt><trkpt lat="44.1900271" lon="10.5565789"><ele>1055.1666666666665</ele><time>2026-04-18T11:35:34.964Z</time></trkpt><trkpt lat="44.1900665" lon="10.5564862"><ele>1057.0</ele><time>2026-04-18T11:35:35.964Z</time></trkpt><trkpt lat="44.19011" lon="10.5564051"><ele>1057.0</ele><time>2026-04-18T11:35:36.965Z</time></trkpt><trkpt lat="44.190192" lon="10.5563679"><ele>1057.0</ele><time>2026-04-18T11:35:37.965Z</time></trkpt><trkpt lat="44.1902707" lon="10.556368"><ele>1057.0</ele><time>2026-04-18T11:35:38.964Z</time></trkpt><trkpt lat="44.1903536" lon="10.5563704"><ele>1057.0</ele><time>2026-04-18T11:35:39.964Z</time></trkpt><trkpt lat="44.1904269" lon="10.5563808"><ele>1057.0</ele><time>2026-04-18T11:35:40.965Z</time></trkpt><trkpt lat="44.1904938" lon="10.5563874"><ele>1057.0</ele><time>2026-04-18T11:35:41.965Z</time></trkpt><trkpt lat="44.1905614" lon="10.5563837"><ele>1057.0</ele><time>2026-04-18T11:35:42.964Z</time></trkpt><trkpt lat="44.1906325" lon="10.5563594"><ele>1057.0</ele><time>2026-04-18T11:35:43.965Z</time></trkpt><trkpt lat="44.1906984" lon="10.556329"><ele>1057.0</ele><time>2026-04-18T11:35:44.964Z</time></trkpt><trkpt lat="44.1907619" lon="10.5562986"><ele>1057.0</ele><time>2026-04-18T11:35:45.965Z</time></trkpt><trkpt lat="44.1908268" lon="10.5562466"><ele>1057.0</ele><time>2026-04-18T11:35:46.964Z</time></trkpt><trkpt lat="44.1908781" lon="10.5561896"><ele>1057.0</ele><time>2026-04-18T11:35:47.964Z</time></trkpt><trkpt lat="44.1909015" lon="10.5560556"><ele>1057.0</ele><time>2026-04-18T11:35:49.964Z</time></trkpt><trkpt lat="44.1908919" lon="10.5559196"><ele>1052.0</ele><time>2026-04-18T11:35:51.964Z</time></trkpt><trkpt lat="44.1908629" lon="10.5557793"><ele>1052.0</ele><time>2026-04-18T11:35:53.964Z</time></trkpt><trkpt lat="44.1908366" lon="10.5556685"><ele>1052.0</ele><time>2026-04-18T11:35:55.964Z</time></trkpt><trkpt lat="44.1908089" lon="10.5555554"><ele>1052.0</ele><time>2026-04-18T11:35:58.965Z</time></trkpt><trkpt lat="44.1908012" lon="10.555462"><ele>1052.0</ele><time>2026-04-18T11:36:01.964Z</time></trkpt></trkseg><trkseg><trkpt lat="44.1907445" lon="10.5555143"><ele>1052.0</ele><time>2026-04-18T12:31:01.94Z</time></trkpt><trkpt lat="44.1906898" lon="10.555455"><ele>1052.0</ele><time>2026-04-18T12:31:03.94Z</time></trkpt><trkpt lat="44.1906095" lon="10.5553512"><ele>1052.0</ele><time>2026-04-18T12:31:05.94Z</time></trkpt><trkpt lat="44.190565" lon="10.5552851"><ele>1052.0</ele><time>2026-04-18T12:31:06.941Z</time></trkpt><trkpt lat="44.1905136" lon="10.5552151"><ele>1052.0</ele><time>2026-04-18T12:31:07.941Z</time></trkpt><trkpt lat="44.190465" lon="10.5551392"><ele>1052.0</ele><time>2026-04-18T12:31:08.94Z</time></trkpt><trkpt lat="44.1904259" lon="10.5550596"><ele>1053.0</ele><time>2026-04-18T12:31:09.941Z</time></trkpt><trkpt lat="44.1903923" lon="10.5549815"><ele>1054.0</ele><time>2026-04-18T12:31:10.94Z</time></trkpt><trkpt lat="44.1903434" lon="10.5548415"><ele>1055.0</ele><time>2026-04-18T12:31:12.94Z</time></trkpt><trkpt lat="44.1903054" lon="10.5547082"><ele>1056.0</ele><time>2026-04-18T12:31:14.94Z</time></trkpt><trkpt lat="44.1902661" lon="10.5545722"><ele>1057.0</ele><time>2026-04-18T12:31:16.94Z</time></trkpt><trkpt lat="44.1902255" lon="10.5544268"><ele>1057.3333333333333</ele><time>2026-04-18T12:31:18.94Z</time></trkpt><trkpt lat="44.1902088" lon="10.5542511"><ele>1057.6666666666665</ele><time>2026-04-18T12:31:20.94Z</time></trkpt><trkpt lat="44.190214" lon="10.5541604"><ele>1058.0</ele><time>2026-04-18T12:31:21.94Z</time></trkpt><trkpt lat="44.1902319" lon="10.5540695"><ele>1058.3333333333333</ele><time>2026-04-18T12:31:22.94Z</time></trkpt><trkpt lat="44.1902667" lon="10.5539709"><ele>1058.6666666666667</ele><time>2026-04-18T12:31:23.94Z</time></trkpt><trkpt lat="44.1903194" lon="10.5538794"><ele>1059.0</ele><time>2026-04-18T12:31:24.941Z</time></trkpt><trkpt lat="44.190383" lon="10.5537889"><ele>1059.0</ele><time>2026-04-18T12:31:25.94Z</time></trkpt><trkpt lat="44.1904366" lon="10.5537074"><ele>1059.0</ele><time>2026-04-18T12:31:26.94Z</time></trkpt><trkpt lat="44.1904914" lon="10.5536276"><ele>1059.0</ele><time>2026-04-18T12:31:27.941Z</time></trkpt><trkpt lat="44.190557" lon="10.5535274"><ele>1059.0</ele><time>2026-04-18T12:31:28.94Z</time></trkpt><trkpt lat="44.1906822" lon="10.5534246"><ele>1059.0</ele><time>2026-04-18T12:31:29.94Z</time></trkpt><trkpt lat="44.1907986" lon="10.5533479"><ele>1059.0</ele><time>2026-04-18T12:31:30.941Z</time></trkpt><trkpt lat="44.1909211" lon="10.5532745"><ele>1059.0</ele><time>2026-04-18T12:31:31.94Z</time></trkpt><trkpt lat="44.1910604" lon="10.5532183"><ele>1059.0</ele><time>2026-04-18T12:31:32.941Z</time></trkpt><trkpt lat="44.1911923" lon="10.5531627"><ele>1059.0</ele><time>2026-04-18T12:31:33.941Z</time></trkpt><trkpt lat="44.1913224" lon="10.553114"><ele>1059.0</ele><time>2026-04-18T12:31:34.94Z</time></trkpt><trkpt lat="44.191454" lon="10.5530777"><ele>1059.0</ele><time>2026-04-18T12:31:35.94Z</time></trkpt><trkpt lat="44.1915742" lon="10.5530341"><ele>1059.0</ele><time>2026-04-18T12:31:36.941Z</time></trkpt><trkpt lat="44.1916814" lon="10.5529801"><ele>1059.0</ele><time>2026-04-18T12:31:37.941Z</time></trkpt><trkpt lat="44.1917774" lon="10.5529107"><ele>1061.4</ele><time>2026-04-18T12:31:38.94Z</time></trkpt><trkpt lat="44.1918526" lon="10.5528109"><ele>1063.8000000000002</ele><time>2026-04-18T12:31:39.941Z</time></trkpt><trkpt lat="44.1919189" lon="10.5526914"><ele>1066.1999999999998</ele><time>2026-04-18T12:31:40.94Z</time></trkpt><trkpt lat="44.191969" lon="10.5525605"><ele>1068.6</ele><time>2026-04-18T12:31:41.941Z</time></trkpt><trkpt lat="44.1920213" lon="10.5524318"><ele>1071.0</ele><time>2026-04-18T12:31:42.941Z</time></trkpt><trkpt lat="44.1920696" lon="10.5523105"><ele>1071.0</ele><time>2026-04-18T12:31:43.94Z</time></trkpt><trkpt lat="44.1921084" lon="10.552198"><ele>1071.0</ele><time>2026-04-18T12:31:44.941Z</time></trkpt><trkpt lat="44.192131" lon="10.5520808"><ele>1071.0</ele><time>2026-04-18T12:31:45.941Z</time></trkpt><trkpt lat="44.1921462" lon="10.5519601"><ele>1071.0</ele><time>2026-04-18T12:31:46.941Z</time></trkpt><trkpt lat="44.1921002" lon="10.5518365"><ele>1071.0</ele><time>2026-04-18T12:31:47.94Z</time></trkpt><trkpt lat="44.1920668" lon="10.5517143"><ele>1072.2</ele><time>2026-04-18T12:31:48.941Z</time></trkpt><trkpt lat="44.1920253" lon="10.5515855"><ele>1073.3999999999999</ele><time>2026-04-18T12:31:49.94Z</time></trkpt><trkpt lat="44.1919688" lon="10.5514674"><ele>1074.6</ele><time>2026-04-18T12:31:50.94Z</time></trkpt><trkpt lat="44.1918894" lon="10.5513846"><ele>1075.8</ele><time>2026-04-18T12:31:51.941Z</time></trkpt><trkpt lat="44.1918002" lon="10.551339"><ele>1077.0</ele><time>2026-04-18T12:31:52.94Z</time></trkpt><trkpt lat="44.191685" lon="10.5513753"><ele>1077.0</ele><time>2026-04-18T12:31:53.94Z</time></trkpt><trkpt lat="44.1915732" lon="10.5514167"><ele>1077.0</ele><time>2026-04-18T12:31:54.941Z</time></trkpt><trkpt lat="44.1914594" lon="10.5514564"><ele>1077.0</ele><time>2026-04-18T12:31:55.94Z</time></trkpt><trkpt lat="44.1913662" lon="10.5514913"><ele>1077.0</ele><time>2026-04-18T12:31:56.941Z</time></trkpt><trkpt lat="44.1912728" lon="10.5515267"><ele>1077.0</ele><time>2026-04-18T12:31:57.94Z</time></trkpt><trkpt lat="44.1911918" lon="10.5515151"><ele>1077.8333333333333</ele><time>2026-04-18T12:31:58.94Z</time></trkpt><trkpt lat="44.1911326" lon="10.5514614"><ele>1078.6666666666667</ele><time>2026-04-18T12:31:59.94Z</time></trkpt><trkpt lat="44.1911548" lon="10.5512917"><ele>1079.5</ele><time>2026-04-18T12:32:01.94Z</time></trkpt><trkpt lat="44.1912001" lon="10.5511984"><ele>1080.3333333333335</ele><time>2026-04-18T12:32:02.941Z</time></trkpt><trkpt lat="44.1912515" lon="10.5511142"><ele>1081.1666666666667</ele><time>2026-04-18T12:32:03.941Z</time></trkpt><trkpt lat="44.1913006" lon="10.5510333"><ele>1082.0</ele><time>2026-04-18T12:32:04.94Z</time></trkpt><trkpt lat="44.1913593" lon="10.5509389"><ele>1082.8</ele><time>2026-04-18T12:32:05.94Z</time></trkpt><trkpt lat="44.191424" lon="10.5508394"><ele>1083.6</ele><time>2026-04-18T12:32:06.941Z</time></trkpt><trkpt lat="44.1914838" lon="10.5507291"><ele>1084.3999999999999</ele><time>2026-04-18T12:32:07.94Z</time></trkpt><trkpt lat="44.19153" lon="10.5505985"><ele>1085.2</ele><time>2026-04-18T12:32:08.94Z</time></trkpt><trkpt lat="44.1915615" lon="10.5504515"><ele>1086.0</ele><time>2026-04-18T12:32:09.94Z</time></trkpt><trkpt lat="44.1915807" lon="10.5503017"><ele>1087.0</ele><time>2026-04-18T12:32:10.94Z</time></trkpt><trkpt lat="44.191581" lon="10.5501413"><ele>1088.0</ele><time>2026-04-18T12:32:11.94Z</time></trkpt><trkpt lat="44.1915742" lon="10.5499804"><ele>1089.0</ele><time>2026-04-18T12:32:12.94Z</time></trkpt><trkpt lat="44.1915728" lon="10.5498265"><ele>1090.0</ele><time>2026-04-18T12:32:13.94Z</time></trkpt><trkpt lat="44.1915911" lon="10.5496812"><ele>1091.0</ele><time>2026-04-18T12:32:14.94Z</time></trkpt><trkpt lat="44.1916433" lon="10.5495553"><ele>1092.75</ele><time>2026-04-18T12:32:15.94Z</time></trkpt><trkpt lat="44.191706" lon="10.5494189"><ele>1094.5</ele><time>2026-04-18T12:32:16.94Z</time></trkpt><trkpt lat="44.19178" lon="10.5492769"><ele>1096.25</ele><time>2026-04-18T12:32:17.941Z</time></trkpt><trkpt lat="44.1918456" lon="10.5491239"><ele>1098.0</ele><time>2026-04-18T12:32:18.94Z</time></trkpt><trkpt lat="44.1919185" lon="10.5489617"><ele>1098.0</ele><time>2026-04-18T12:32:19.94Z</time></trkpt><trkpt lat="44.1919906" lon="10.5487998"><ele>1098.0</ele><time>2026-04-18T12:32:20.941Z</time></trkpt><trkpt lat="44.1920685" lon="10.5486441"><ele>1098.0</ele><time>2026-04-18T12:32:21.94Z</time></trkpt><trkpt lat="44.1921619" lon="10.5485219"><ele>1098.0</ele><time>2026-04-18T12:32:22.94Z</time></trkpt><trkpt lat="44.1922926" lon="10.5485014"><ele>1098.5</ele><time>2026-04-18T12:32:23.941Z</time></trkpt><trkpt lat="44.1924249" lon="10.5485227"><ele>1099.0</ele><time>2026-04-18T12:32:24.94Z</time></trkpt><trkpt lat="44.1925546" lon="10.5485442"><ele>1099.5</ele><time>2026-04-18T12:32:25.94Z</time></trkpt><trkpt lat="44.192683" lon="10.548558"><ele>1100.0</ele><time>2026-04-18T12:32:26.941Z</time></trkpt><trkpt lat="44.1928089" lon="10.548559"><ele>1100.0</ele><time>2026-04-18T12:32:27.94Z</time></trkpt><trkpt lat="44.1929237" lon="10.5485398"><ele>1100.0</ele><time>2026-04-18T12:32:28.94Z</time></trkpt><trkpt lat="44.1930069" lon="10.5484967"><ele>1100.0</ele><time>2026-04-18T12:32:29.941Z</time></trkpt><trkpt lat="44.1930541" lon="10.5484072"><ele>1100.0</ele><time>2026-04-18T12:32:30.94Z</time></trkpt><trkpt lat="44.1930696" lon="10.5482959"><ele>1100.0</ele><time>2026-04-18T12:32:31.94Z</time></trkpt><trkpt lat="44.1930522" lon="10.5481684"><ele>1100.0</ele><time>2026-04-18T12:32:32.941Z</time></trkpt><trkpt lat="44.1930632" lon="10.5480425"><ele>1100.0</ele><time>2026-04-18T12:32:33.941Z</time></trkpt><trkpt lat="44.1931376" lon="10.5479128"><ele>1100.0</ele><time>2026-04-18T12:32:34.94Z</time></trkpt><trkpt lat="44.1932077" lon="10.547777"><ele>1100.0</ele><time>2026-04-18T12:32:35.941Z</time></trkpt><trkpt lat="44.1932914" lon="10.5476246"><ele>1101.25</ele><time>2026-04-18T12:32:36.941Z</time></trkpt><trkpt lat="44.193375" lon="10.5474721"><ele>1102.5</ele><time>2026-04-18T12:32:37.94Z</time></trkpt><trkpt lat="44.1934638" lon="10.5473144"><ele>1103.75</ele><time>2026-04-18T12:32:38.941Z</time></trkpt><trkpt lat="44.1935436" lon="10.547166"><ele>1105.0</ele><time>2026-04-18T12:32:39.94Z</time></trkpt><trkpt lat="44.1936008" lon="10.5470186"><ele>1107.25</ele><time>2026-04-18T12:32:40.941Z</time></trkpt><trkpt lat="44.1936356" lon="10.5468596"><ele>1109.5</ele><time>2026-04-18T12:32:41.94Z</time></trkpt><trkpt lat="44.1936489" lon="10.5466844"><ele>1111.75</ele><time>2026-04-18T12:32:42.94Z</time></trkpt><trkpt lat="44.1936665" lon="10.5465073"><ele>1114.0</ele><time>2026-04-18T12:32:43.94Z</time></trkpt><trkpt lat="44.1937113" lon="10.5463403"><ele>1114.5</ele><time>2026-04-18T12:32:44.94Z</time></trkpt><trkpt lat="44.1937926" lon="10.5462001"><ele>1115.0</ele><time>2026-04-18T12:32:45.94Z</time></trkpt><trkpt lat="44.1938967" lon="10.5460935"><ele>1115.5</ele><time>2026-04-18T12:32:46.94Z</time></trkpt><trkpt lat="44.1940102" lon="10.5459893"><ele>1116.0</ele><time>2026-04-18T12:32:47.94Z</time></trkpt><trkpt lat="44.194131" lon="10.5458883"><ele>1116.0</ele><time>2026-04-18T12:32:48.941Z</time></trkpt><trkpt lat="44.1942573" lon="10.5457856"><ele>1116.0</ele><time>2026-04-18T12:32:49.941Z</time></trkpt><trkpt lat="44.1943788" lon="10.545689"><ele>1116.0</ele><time>2026-04-18T12:32:50.94Z</time></trkpt><trkpt lat="44.1944889" lon="10.5455886"><ele>1116.0</ele><time>2026-04-18T12:32:51.94Z</time></trkpt><trkpt lat="44.19459" lon="10.5454975"><ele>1116.0</ele><time>2026-04-18T12:32:52.94Z</time></trkpt><trkpt lat="44.1946689" lon="10.5453858"><ele>1116.0</ele><time>2026-04-18T12:32:53.941Z</time></trkpt><trkpt lat="44.19471" lon="10.5452378"><ele>1116.0</ele><time>2026-04-18T12:32:54.941Z</time></trkpt><trkpt lat="44.1947072" lon="10.5450847"><ele>1116.0</ele><time>2026-04-18T12:32:55.94Z</time></trkpt><trkpt lat="44.1946757" lon="10.5449171"><ele>1117.25</ele><time>2026-04-18T12:32:56.941Z</time></trkpt><trkpt lat="44.1946333" lon="10.5447498"><ele>1118.5</ele><time>2026-04-18T12:32:57.941Z</time></trkpt><trkpt lat="44.1945939" lon="10.5445839"><ele>1119.75</ele><time>2026-04-18T12:32:58.94Z</time></trkpt><trkpt lat="44.1945664" lon="10.5444262"><ele>1121.0</ele><time>2026-04-18T12:32:59.94Z</time></trkpt><trkpt lat="44.1945674" lon="10.5442809"><ele>1122.3999999999999</ele><time>2026-04-18T12:33:00.94Z</time></trkpt><trkpt lat="44.1946131" lon="10.5441688"><ele>1123.8</ele><time>2026-04-18T12:33:01.941Z</time></trkpt><trkpt lat="44.1946968" lon="10.544106"><ele>1125.1999999999998</ele><time>2026-04-18T12:33:02.94Z</time></trkpt><trkpt lat="44.1948078" lon="10.5440622"><ele>1126.6</ele><time>2026-04-18T12:33:03.94Z</time></trkpt><trkpt lat="44.1949353" lon="10.5440281"><ele>1128.0</ele><time>2026-04-18T12:33:04.94Z</time></trkpt><trkpt lat="44.1950637" lon="10.5439914"><ele>1128.0</ele><time>2026-04-18T12:33:05.94Z</time></trkpt><trkpt lat="44.1951848" lon="10.5439395"><ele>1128.0</ele><time>2026-04-18T12:33:06.941Z</time></trkpt><trkpt lat="44.1952911" lon="10.5438498"><ele>1128.0</ele><time>2026-04-18T12:33:07.94Z</time></trkpt><trkpt lat="44.1953819" lon="10.5437316"><ele>1128.0</ele><time>2026-04-18T12:33:08.94Z</time></trkpt><trkpt lat="44.1954711" lon="10.5435986"><ele>1129.25</ele><time>2026-04-18T12:33:09.94Z</time></trkpt><trkpt lat="44.1955391" lon="10.5434375"><ele>1130.5</ele><time>2026-04-18T12:33:10.941Z</time></trkpt><trkpt lat="44.1956093" lon="10.5432768"><ele>1131.75</ele><time>2026-04-18T12:33:11.94Z</time></trkpt><trkpt lat="44.1956808" lon="10.5431093"><ele>1133.0</ele><time>2026-04-18T12:33:12.941Z</time></trkpt><trkpt lat="44.1957471" lon="10.5429374"><ele>1133.75</ele><time>2026-04-18T12:33:13.94Z</time></trkpt><trkpt lat="44.1957878" lon="10.5427512"><ele>1134.5</ele><time>2026-04-18T12:33:14.941Z</time></trkpt><trkpt lat="44.1958103" lon="10.5425609"><ele>1135.25</ele><time>2026-04-18T12:33:15.94Z</time></trkpt><trkpt lat="44.1958277" lon="10.5423662"><ele>1136.0</ele><time>2026-04-18T12:33:16.94Z</time></trkpt><trkpt lat="44.1958357" lon="10.5421706"><ele>1137.75</ele><time>2026-04-18T12:33:17.94Z</time></trkpt><trkpt lat="44.195843" lon="10.5419719"><ele>1139.5</ele><time>2026-04-18T12:33:18.94Z</time></trkpt><trkpt lat="44.1958396" lon="10.5417711"><ele>1141.25</ele><time>2026-04-18T12:33:19.941Z</time></trkpt><trkpt lat="44.1958289" lon="10.5415688"><ele>1143.0</ele><time>2026-04-18T12:33:20.94Z</time></trkpt><trkpt lat="44.1958031" lon="10.5413686"><ele>1144.5</ele><time>2026-04-18T12:33:21.941Z</time></trkpt><trkpt lat="44.1957698" lon="10.5411707"><ele>1146.0</ele><time>2026-04-18T12:33:22.94Z</time></trkpt><trkpt lat="44.1957199" lon="10.5409814"><ele>1147.5</ele><time>2026-04-18T12:33:23.94Z</time></trkpt><trkpt lat="44.1956551" lon="10.5408027"><ele>1149.0</ele><time>2026-04-18T12:33:24.94Z</time></trkpt><trkpt lat="44.1955713" lon="10.5406299"><ele>1150.25</ele><time>2026-04-18T12:33:25.941Z</time></trkpt><trkpt lat="44.1955062" lon="10.5404428"><ele>1151.5</ele><time>2026-04-18T12:33:26.941Z</time></trkpt><trkpt lat="44.1954545" lon="10.5402447"><ele>1152.75</ele><time>2026-04-18T12:33:27.941Z</time></trkpt><trkpt lat="44.1954123" lon="10.5400751"><ele>1154.0</ele><time>2026-04-18T12:33:28.94Z</time></trkpt><trkpt lat="44.1953999" lon="10.5399287"><ele>1154.1666666666667</ele><time>2026-04-18T12:33:29.94Z</time></trkpt><trkpt lat="44.1954159" lon="10.5398148"><ele>1154.3333333333335</ele><time>2026-04-18T12:33:30.941Z</time></trkpt><trkpt lat="44.195462" lon="10.539753"><ele>1154.5</ele><time>2026-04-18T12:33:31.94Z</time></trkpt><trkpt lat="44.1955322" lon="10.5397287"><ele>1154.6666666666667</ele><time>2026-04-18T12:33:32.941Z</time></trkpt><trkpt lat="44.1956224" lon="10.5397382"><ele>1154.8333333333333</ele><time>2026-04-18T12:33:33.94Z</time></trkpt><trkpt lat="44.1957333" lon="10.5397423"><ele>1155.0</ele><time>2026-04-18T12:33:34.941Z</time></trkpt><trkpt lat="44.1958405" lon="10.539687"><ele>1155.0</ele><time>2026-04-18T12:33:35.941Z</time></trkpt><trkpt lat="44.1959462" lon="10.5395893"><ele>1155.0</ele><time>2026-04-18T12:33:36.941Z</time></trkpt><trkpt lat="44.1960476" lon="10.5394692"><ele>1155.0</ele><time>2026-04-18T12:33:37.94Z</time></trkpt><trkpt lat="44.196159" lon="10.5393537"><ele>1155.0</ele><time>2026-04-18T12:33:38.941Z</time></trkpt><trkpt lat="44.1962877" lon="10.539263"><ele>1157.5</ele><time>2026-04-18T12:33:39.94Z</time></trkpt><trkpt lat="44.1964139" lon="10.5391881"><ele>1160.0</ele><time>2026-04-18T12:33:40.94Z</time></trkpt><trkpt lat="44.1965208" lon="10.5391154"><ele>1162.5</ele><time>2026-04-18T12:33:41.94Z</time></trkpt><trkpt lat="44.1966085" lon="10.5390088"><ele>1165.0</ele><time>2026-04-18T12:33:42.941Z</time></trkpt><trkpt lat="44.1966601" lon="10.5388563"><ele>1166.0</ele><time>2026-04-18T12:33:43.94Z</time></trkpt><trkpt lat="44.1966829" lon="10.5386811"><ele>1167.0</ele><time>2026-04-18T12:33:44.941Z</time></trkpt><trkpt lat="44.1966963" lon="10.5384845"><ele>1168.0</ele><time>2026-04-18T12:33:45.941Z</time></trkpt><trkpt lat="44.1966966" lon="10.5382778"><ele>1169.0</ele><time>2026-04-18T12:33:46.94Z</time></trkpt><trkpt lat="44.1966804" lon="10.5380653"><ele>1171.0</ele><time>2026-04-18T12:33:47.941Z</time></trkpt><trkpt lat="44.1966517" lon="10.5378543"><ele>1173.0</ele><time>2026-04-18T12:33:48.941Z</time></trkpt><trkpt lat="44.1966149" lon="10.5376458"><ele>1175.0</ele><time>2026-04-18T12:33:49.941Z</time></trkpt><trkpt lat="44.1965781" lon="10.537446"><ele>1175.0</ele><time>2026-04-18T12:33:50.941Z</time></trkpt><trkpt lat="44.1965627" lon="10.5372897"><ele>1175.0</ele><time>2026-04-18T12:33:51.94Z</time></trkpt><trkpt lat="44.1965728" lon="10.5371286"><ele>1175.0</ele><time>2026-04-18T12:33:52.94Z</time></trkpt><trkpt lat="44.1966243" lon="10.5369759"><ele>1175.0</ele><time>2026-04-18T12:33:53.941Z</time></trkpt><trkpt lat="44.1966725" lon="10.5368084"><ele>1177.25</ele><time>2026-04-18T12:33:54.94Z</time></trkpt><trkpt lat="44.19673" lon="10.5366318"><ele>1179.5</ele><time>2026-04-18T12:33:55.94Z</time></trkpt><trkpt lat="44.1967949" lon="10.5364556"><ele>1181.75</ele><time>2026-04-18T12:33:56.941Z</time></trkpt><trkpt lat="44.1968566" lon="10.5362905"><ele>1184.0</ele><time>2026-04-18T12:33:57.941Z</time></trkpt><trkpt lat="44.1969067" lon="10.5361376"><ele>1186.25</ele><time>2026-04-18T12:33:58.94Z</time></trkpt><trkpt lat="44.1969205" lon="10.53598"><ele>1188.5</ele><time>2026-04-18T12:33:59.94Z</time></trkpt><trkpt lat="44.1969391" lon="10.5358039"><ele>1190.75</ele><time>2026-04-18T12:34:00.94Z</time></trkpt><trkpt lat="44.1969531" lon="10.5356228"><ele>1193.0</ele><time>2026-04-18T12:34:01.941Z</time></trkpt><trkpt lat="44.1969561" lon="10.5354261"><ele>1194.25</ele><time>2026-04-18T12:34:02.94Z</time></trkpt><trkpt lat="44.1969401" lon="10.5352263"><ele>1195.5</ele><time>2026-04-18T12:34:03.941Z</time></trkpt><trkpt lat="44.1969214" lon="10.5350221"><ele>1196.75</ele><time>2026-04-18T12:34:04.941Z</time></trkpt><trkpt lat="44.1968969" lon="10.5348103"><ele>1198.0</ele><time>2026-04-18T12:34:05.941Z</time></trkpt><trkpt lat="44.196879" lon="10.5345933"><ele>1198.3333333333333</ele><time>2026-04-18T12:34:06.94Z</time></trkpt><trkpt lat="44.1968764" lon="10.53438"><ele>1198.6666666666667</ele><time>2026-04-18T12:34:07.94Z</time></trkpt><trkpt lat="44.1968952" lon="10.5341671"><ele>1199.0</ele><time>2026-04-18T12:34:08.94Z</time></trkpt><trkpt lat="44.1969089" lon="10.533963"><ele>1199.0</ele><time>2026-04-18T12:34:09.94Z</time></trkpt><trkpt lat="44.1968911" lon="10.5337655"><ele>1199.0</ele><time>2026-04-18T12:34:10.94Z</time></trkpt><trkpt lat="44.1968404" lon="10.5335821"><ele>1199.0</ele><time>2026-04-18T12:34:11.94Z</time></trkpt><trkpt lat="44.1967694" lon="10.5334122"><ele>1199.0</ele><time>2026-04-18T12:34:12.94Z</time></trkpt><trkpt lat="44.1966904" lon="10.5332643"><ele>1200.5</ele><time>2026-04-18T12:34:13.941Z</time></trkpt><trkpt lat="44.1965727" lon="10.5331537"><ele>1202.0</ele><time>2026-04-18T12:34:14.941Z</time></trkpt><trkpt lat="44.1964892" lon="10.5330213"><ele>1203.5</ele><time>2026-04-18T12:34:15.941Z</time></trkpt><trkpt lat="44.1964277" lon="10.5328737"><ele>1205.0</ele><time>2026-04-18T12:34:16.94Z</time></trkpt><trkpt lat="44.1963976" lon="10.5327018"><ele>1208.75</ele><time>2026-04-18T12:34:17.94Z</time></trkpt><trkpt lat="44.1963906" lon="10.5325181"><ele>1212.5</ele><time>2026-04-18T12:34:18.94Z</time></trkpt><trkpt lat="44.1963937" lon="10.5323335"><ele>1216.25</ele><time>2026-04-18T12:34:19.941Z</time></trkpt><trkpt lat="44.1963939" lon="10.5321619"><ele>1220.0</ele><time>2026-04-18T12:34:20.941Z</time></trkpt><trkpt lat="44.1963725" lon="10.53201"><ele>1220.0</ele><time>2026-04-18T12:34:21.94Z</time></trkpt><trkpt lat="44.1963292" lon="10.531895"><ele>1220.0</ele><time>2026-04-18T12:34:22.941Z</time></trkpt><trkpt lat="44.1962842" lon="10.5318082"><ele>1220.0</ele><time>2026-04-18T12:34:23.94Z</time></trkpt><trkpt lat="44.1962996" lon="10.5316245"><ele>1220.0</ele><time>2026-04-18T12:34:25.94Z</time></trkpt><trkpt lat="44.1963579" lon="10.5315485"><ele>1220.0</ele><time>2026-04-18T12:34:26.94Z</time></trkpt><trkpt lat="44.1964205" lon="10.5315107"><ele>1219.75</ele><time>2026-04-18T12:34:27.941Z</time></trkpt><trkpt lat="44.1965286" lon="10.5315882"><ele>1219.5</ele><time>2026-04-18T12:34:28.94Z</time></trkpt><trkpt lat="44.1966235" lon="10.5316686"><ele>1219.25</ele><time>2026-04-18T12:34:29.941Z</time></trkpt><trkpt lat="44.1967245" lon="10.531751"><ele>1219.0</ele><time>2026-04-18T12:34:30.94Z</time></trkpt><trkpt lat="44.1968338" lon="10.5318077"><ele>1219.0</ele><time>2026-04-18T12:34:31.94Z</time></trkpt><trkpt lat="44.1969699" lon="10.5317862"><ele>1219.0</ele><time>2026-04-18T12:34:32.941Z</time></trkpt><trkpt lat="44.1970753" lon="10.5317628"><ele>1219.0</ele><time>2026-04-18T12:34:33.941Z</time></trkpt><trkpt lat="44.1971335" lon="10.5316776"><ele>1219.0</ele><time>2026-04-18T12:34:34.941Z</time></trkpt><trkpt lat="44.1971686" lon="10.5315733"><ele>1219.0</ele><time>2026-04-18T12:34:35.94Z</time></trkpt><trkpt lat="44.1971631" lon="10.5314372"><ele>1219.0</ele><time>2026-04-18T12:34:36.941Z</time></trkpt><trkpt lat="44.197143" lon="10.531284"><ele>1219.0</ele><time>2026-04-18T12:34:37.94Z</time></trkpt><trkpt lat="44.1971518" lon="10.5311276"><ele>1219.0</ele><time>2026-04-18T12:34:38.94Z</time></trkpt><trkpt lat="44.1972008" lon="10.5309667"><ele>1219.0</ele><time>2026-04-18T12:34:39.941Z</time></trkpt><trkpt lat="44.1972685" lon="10.5308157"><ele>1219.75</ele><time>2026-04-18T12:34:40.941Z</time></trkpt><trkpt lat="44.1973407" lon="10.5306862"><ele>1220.5</ele><time>2026-04-18T12:34:41.94Z</time></trkpt><trkpt lat="44.1974301" lon="10.5305837"><ele>1221.25</ele><time>2026-04-18T12:34:42.941Z</time></trkpt><trkpt lat="44.1975234" lon="10.5304985"><ele>1222.0</ele><time>2026-04-18T12:34:43.94Z</time></trkpt><trkpt lat="44.1976151" lon="10.5304124"><ele>1224.2</ele><time>2026-04-18T12:34:44.94Z</time></trkpt><trkpt lat="44.1977035" lon="10.5303274"><ele>1226.4</ele><time>2026-04-18T12:34:45.941Z</time></trkpt><trkpt lat="44.197791" lon="10.5302506"><ele>1228.6</ele><time>2026-04-18T12:34:46.941Z</time></trkpt><trkpt lat="44.1978835" lon="10.5301925"><ele>1230.8</ele><time>2026-04-18T12:34:47.941Z</time></trkpt><trkpt lat="44.1979793" lon="10.530164"><ele>1233.0</ele><time>2026-04-18T12:34:48.94Z</time></trkpt><trkpt lat="44.1980689" lon="10.5301568"><ele>1233.0</ele><time>2026-04-18T12:34:49.941Z</time></trkpt><trkpt lat="44.1981611" lon="10.5301401"><ele>1233.0</ele><time>2026-04-18T12:34:50.94Z</time></trkpt><trkpt lat="44.1982374" lon="10.5300781"><ele>1233.0</ele><time>2026-04-18T12:34:51.941Z</time></trkpt><trkpt lat="44.1983042" lon="10.5299987"><ele>1233.0</ele><time>2026-04-18T12:34:52.941Z</time></trkpt><trkpt lat="44.198359" lon="10.5299058"><ele>1233.0</ele><time>2026-04-18T12:34:53.941Z</time></trkpt><trkpt lat="44.1983676" lon="10.529759"><ele>1233.1666666666667</ele><time>2026-04-18T12:34:54.94Z</time></trkpt><trkpt lat="44.1983716" lon="10.5296404"><ele>1233.3333333333333</ele><time>2026-04-18T12:34:55.94Z</time></trkpt><trkpt lat="44.198388" lon="10.5295357"><ele>1233.5</ele><time>2026-04-18T12:34:56.941Z</time></trkpt><trkpt lat="44.1984312" lon="10.5294523"><ele>1233.6666666666665</ele><time>2026-04-18T12:34:57.94Z</time></trkpt><trkpt lat="44.1984899" lon="10.5294027"><ele>1233.8333333333333</ele><time>2026-04-18T12:34:58.941Z</time></trkpt><trkpt lat="44.1985515" lon="10.5293703"><ele>1234.0</ele><time>2026-04-18T12:34:59.94Z</time></trkpt><trkpt lat="44.1986448" lon="10.5293227"><ele>1234.0</ele><time>2026-04-18T12:35:01.941Z</time></trkpt><trkpt lat="44.1987324" lon="10.5293302"><ele>1234.0</ele><time>2026-04-18T12:35:03.94Z</time></trkpt><trkpt lat="44.1988203" lon="10.5294515"><ele>1234.0</ele><time>2026-04-18T12:35:05.94Z</time></trkpt><trkpt lat="44.1988682" lon="10.5295563"><ele>1234.0</ele><time>2026-04-18T12:35:06.94Z</time></trkpt><trkpt lat="44.1989206" lon="10.5296557"><ele>1234.0</ele><time>2026-04-18T12:35:07.94Z</time></trkpt><trkpt lat="44.1989768" lon="10.5297733"><ele>1235.4</ele><time>2026-04-18T12:35:08.94Z</time></trkpt><trkpt lat="44.1990299" lon="10.5298844"><ele>1236.8000000000002</ele><time>2026-04-18T12:35:09.94Z</time></trkpt><trkpt lat="44.1990846" lon="10.529984"><ele>1238.1999999999998</ele><time>2026-04-18T12:35:10.941Z</time></trkpt><trkpt lat="44.1991486" lon="10.5300789"><ele>1239.6</ele><time>2026-04-18T12:35:11.941Z</time></trkpt><trkpt lat="44.1992214" lon="10.5301611"><ele>1241.0</ele><time>2026-04-18T12:35:12.94Z</time></trkpt><trkpt lat="44.1993073" lon="10.5302365"><ele>1241.0</ele><time>2026-04-18T12:35:13.94Z</time></trkpt><trkpt lat="44.1994075" lon="10.5302902"><ele>1241.0</ele><time>2026-04-18T12:35:14.94Z</time></trkpt><trkpt lat="44.1995127" lon="10.5303262"><ele>1241.0</ele><time>2026-04-18T12:35:15.941Z</time></trkpt><trkpt lat="44.1996207" lon="10.5303718"><ele>1241.0</ele><time>2026-04-18T12:35:16.94Z</time></trkpt><trkpt lat="44.1997137" lon="10.5304351"><ele>1241.0</ele><time>2026-04-18T12:35:17.94Z</time></trkpt><trkpt lat="44.199806" lon="10.5305039"><ele>1239.6</ele><time>2026-04-18T12:35:18.941Z</time></trkpt><trkpt lat="44.1998694" lon="10.5305856"><ele>1238.1999999999998</ele><time>2026-04-18T12:35:19.94Z</time></trkpt><trkpt lat="44.1999467" lon="10.5306444"><ele>1236.8000000000002</ele><time>2026-04-18T12:35:20.941Z</time></trkpt><trkpt lat="44.2000357" lon="10.5306938"><ele>1235.4</ele><time>2026-04-18T12:35:21.94Z</time></trkpt><trkpt lat="44.2001295" lon="10.5307288"><ele>1234.0</ele><time>2026-04-18T12:35:22.941Z</time></trkpt><trkpt lat="44.2002336" lon="10.5307502"><ele>1234.0</ele><time>2026-04-18T12:35:23.941Z</time></trkpt><trkpt lat="44.2003386" lon="10.5307824"><ele>1234.0</ele><time>2026-04-18T12:35:24.941Z</time></trkpt><trkpt lat="44.2004452" lon="10.5308278"><ele>1234.0</ele><time>2026-04-18T12:35:25.94Z</time></trkpt><trkpt lat="44.2005717" lon="10.5308861"><ele>1234.0</ele><time>2026-04-18T12:35:26.94Z</time></trkpt><trkpt lat="44.2007012" lon="10.5309407"><ele>1233.5</ele><time>2026-04-18T12:35:27.94Z</time></trkpt><trkpt lat="44.2008354" lon="10.5309962"><ele>1233.0</ele><time>2026-04-18T12:35:28.94Z</time></trkpt><trkpt lat="44.2009715" lon="10.5310579"><ele>1232.5</ele><time>2026-04-18T12:35:29.941Z</time></trkpt><trkpt lat="44.2011022" lon="10.5311184"><ele>1232.0</ele><time>2026-04-18T12:35:30.941Z</time></trkpt><trkpt lat="44.2012282" lon="10.531182"><ele>1230.5</ele><time>2026-04-18T12:35:31.941Z</time></trkpt><trkpt lat="44.2013439" lon="10.5312628"><ele>1229.0</ele><time>2026-04-18T12:35:32.94Z</time></trkpt><trkpt lat="44.2014391" lon="10.5313628"><ele>1227.5</ele><time>2026-04-18T12:35:33.941Z</time></trkpt><trkpt lat="44.2015232" lon="10.5314871"><ele>1226.0</ele><time>2026-04-18T12:35:34.941Z</time></trkpt><trkpt lat="44.2016061" lon="10.5316303"><ele>1226.0</ele><time>2026-04-18T12:35:35.941Z</time></trkpt><trkpt lat="44.2016854" lon="10.5317805"><ele>1226.0</ele><time>2026-04-18T12:35:36.941Z</time></trkpt><trkpt lat="44.2017729" lon="10.5319407"><ele>1226.0</ele><time>2026-04-18T12:35:37.94Z</time></trkpt><trkpt lat="44.2018595" lon="10.5321053"><ele>1226.0</ele><time>2026-04-18T12:35:38.941Z</time></trkpt><trkpt lat="44.2019524" lon="10.5322733"><ele>1223.6666666666667</ele><time>2026-04-18T12:35:39.941Z</time></trkpt><trkpt lat="44.2020467" lon="10.5324447"><ele>1221.3333333333333</ele><time>2026-04-18T12:35:40.94Z</time></trkpt><trkpt lat="44.2021392" lon="10.5326212"><ele>1219.0</ele><time>2026-04-18T12:35:41.94Z</time></trkpt><trkpt lat="44.2022343" lon="10.532796"><ele>1220.3333333333333</ele><time>2026-04-18T12:35:42.941Z</time></trkpt><trkpt lat="44.2023267" lon="10.5329718"><ele>1221.6666666666667</ele><time>2026-04-18T12:35:43.941Z</time></trkpt><trkpt lat="44.2024176" lon="10.5331443"><ele>1223.0</ele><time>2026-04-18T12:35:44.94Z</time></trkpt><trkpt lat="44.2025085" lon="10.5333088"><ele>1223.0</ele><time>2026-04-18T12:35:45.941Z</time></trkpt><trkpt lat="44.2026002" lon="10.5334726"><ele>1223.0</ele><time>2026-04-18T12:35:46.941Z</time></trkpt><trkpt lat="44.2026877" lon="10.5336385"><ele>1223.0</ele><time>2026-04-18T12:35:47.941Z</time></trkpt><trkpt lat="44.2027715" lon="10.5338029"><ele>1223.0</ele><time>2026-04-18T12:35:48.941Z</time></trkpt><trkpt lat="44.2028517" lon="10.5339661"><ele>1223.0</ele><time>2026-04-18T12:35:49.941Z</time></trkpt><trkpt lat="44.2029277" lon="10.5341272"><ele>1223.0</ele><time>2026-04-18T12:35:50.941Z</time></trkpt><trkpt lat="44.2029957" lon="10.5342819"><ele>1223.0</ele><time>2026-04-18T12:35:51.94Z</time></trkpt><trkpt lat="44.2030617" lon="10.5344283"><ele>1223.0</ele><time>2026-04-18T12:35:52.94Z</time></trkpt><trkpt lat="44.203124" lon="10.5345659"><ele>1222.6</ele><time>2026-04-18T12:35:53.94Z</time></trkpt><trkpt lat="44.2031865" lon="10.5346986"><ele>1222.1999999999998</ele><time>2026-04-18T12:35:54.94Z</time></trkpt><trkpt lat="44.2032547" lon="10.5348301"><ele>1221.8</ele><time>2026-04-18T12:35:55.941Z</time></trkpt><trkpt lat="44.2033186" lon="10.5349563"><ele>1221.3999999999999</ele><time>2026-04-18T12:35:56.94Z</time></trkpt><trkpt lat="44.2033813" lon="10.5350781"><ele>1221.0</ele><time>2026-04-18T12:35:57.94Z</time></trkpt><trkpt lat="44.2034435" lon="10.5351993"><ele>1221.0</ele><time>2026-04-18T12:35:58.94Z</time></trkpt><trkpt lat="44.203501" lon="10.5353236"><ele>1221.0</ele><time>2026-04-18T12:35:59.941Z</time></trkpt><trkpt lat="44.203559" lon="10.5354425"><ele>1221.0</ele><time>2026-04-18T12:36:00.94Z</time></trkpt><trkpt lat="44.2036211" lon="10.5355531"><ele>1221.0</ele><time>2026-04-18T12:36:01.941Z</time></trkpt><trkpt lat="44.2036855" lon="10.5356437"><ele>1221.0</ele><time>2026-04-18T12:36:02.941Z</time></trkpt><trkpt lat="44.2037479" lon="10.5357231"><ele>1220.1666666666667</ele><time>2026-04-18T12:36:03.941Z</time></trkpt><trkpt lat="44.203807" lon="10.5357973"><ele>1219.3333333333333</ele><time>2026-04-18T12:36:04.94Z</time></trkpt><trkpt lat="44.2038635" lon="10.5358673"><ele>1218.5</ele><time>2026-04-18T12:36:05.94Z</time></trkpt><trkpt lat="44.203906" lon="10.5359338"><ele>1217.6666666666665</ele><time>2026-04-18T12:36:06.941Z</time></trkpt><trkpt lat="44.2039706" lon="10.5360788"><ele>1216.8333333333333</ele><time>2026-04-18T12:36:08.941Z</time></trkpt><trkpt lat="44.2039922" lon="10.5361653"><ele>1216.0</ele><time>2026-04-18T12:36:09.94Z</time></trkpt><trkpt lat="44.2039977" lon="10.5362606"><ele>1218.3333333333333</ele><time>2026-04-18T12:36:10.941Z</time></trkpt><trkpt lat="44.2040011" lon="10.5363615"><ele>1220.6666666666665</ele><time>2026-04-18T12:36:11.94Z</time></trkpt><trkpt lat="44.2040045" lon="10.5364752"><ele>1223.0</ele><time>2026-04-18T12:36:12.94Z</time></trkpt><trkpt lat="44.2040279" lon="10.536581"><ele>1225.3333333333333</ele><time>2026-04-18T12:36:13.94Z</time></trkpt><trkpt lat="44.2040714" lon="10.5366779"><ele>1227.6666666666667</ele><time>2026-04-18T12:36:14.94Z</time></trkpt><trkpt lat="44.2041162" lon="10.5367769"><ele>1230.0</ele><time>2026-04-18T12:36:15.941Z</time></trkpt><trkpt lat="44.2041509" lon="10.5368855"><ele>1230.0</ele><time>2026-04-18T12:36:16.941Z</time></trkpt><trkpt lat="44.2041845" lon="10.5369957"><ele>1230.0</ele><time>2026-04-18T12:36:17.941Z</time></trkpt><trkpt lat="44.2042246" lon="10.5370935"><ele>1230.0</ele><time>2026-04-18T12:36:18.94Z</time></trkpt><trkpt lat="44.204271" lon="10.5371926"><ele>1230.0</ele><time>2026-04-18T12:36:19.94Z</time></trkpt><trkpt lat="44.2043055" lon="10.5373"><ele>1230.0</ele><time>2026-04-18T12:36:20.94Z</time></trkpt><trkpt lat="44.2043236" lon="10.5374051"><ele>1230.0</ele><time>2026-04-18T12:36:21.94Z</time></trkpt><trkpt lat="44.2043422" lon="10.5375089"><ele>1230.2</ele><time>2026-04-18T12:36:22.941Z</time></trkpt><trkpt lat="44.2043661" lon="10.5376151"><ele>1230.4</ele><time>2026-04-18T12:36:23.941Z</time></trkpt><trkpt lat="44.2043955" lon="10.5377165"><ele>1230.6</ele><time>2026-04-18T12:36:24.941Z</time></trkpt><trkpt lat="44.2044195" lon="10.5378715"><ele>1230.8</ele><time>2026-04-18T12:36:26.941Z</time></trkpt><trkpt lat="44.2044523" lon="10.5380178"><ele>1231.0</ele><time>2026-04-18T12:36:28.941Z</time></trkpt><trkpt lat="44.2045067" lon="10.5381447"><ele>1231.0</ele><time>2026-04-18T12:36:30.94Z</time></trkpt><trkpt lat="44.2044804" lon="10.538233"><ele>1231.0</ele><time>2026-04-18T12:36:31.94Z</time></trkpt><trkpt lat="44.2044627" lon="10.5384082"><ele>1231.0</ele><time>2026-04-18T12:36:33.941Z</time></trkpt><trkpt lat="44.2044437" lon="10.5385095"><ele>1231.0</ele><time>2026-04-18T12:36:34.94Z</time></trkpt><trkpt lat="44.2044275" lon="10.5385997"><ele>1231.0</ele><time>2026-04-18T12:36:35.94Z</time></trkpt><trkpt lat="44.2044605" lon="10.5387305"><ele>1231.0</ele><time>2026-04-18T12:36:37.94Z</time></trkpt><trkpt lat="44.204559" lon="10.5387777"><ele>1230.6</ele><time>2026-04-18T12:36:39.94Z</time></trkpt><trkpt lat="44.2046667" lon="10.538832"><ele>1230.1999999999998</ele><time>2026-04-18T12:36:41.94Z</time></trkpt><trkpt lat="44.2047333" lon="10.5388684"><ele>1229.8000000000002</ele><time>2026-04-18T12:36:42.94Z</time></trkpt><trkpt lat="44.2048409" lon="10.5389286"><ele>1229.4</ele><time>2026-04-18T12:36:44.941Z</time></trkpt><trkpt lat="44.2049469" lon="10.5389437"><ele>1229.0</ele><time>2026-04-18T12:36:46.941Z</time></trkpt><trkpt lat="44.2050441" lon="10.5388801"><ele>1234.0</ele><time>2026-04-18T12:36:48.941Z</time></trkpt><trkpt lat="44.2050988" lon="10.538745"><ele>1239.0</ele><time>2026-04-18T12:36:50.941Z</time></trkpt><trkpt lat="44.2051688" lon="10.5386475"><ele>1244.0</ele><time>2026-04-18T12:36:52.94Z</time></trkpt><trkpt lat="44.2052683" lon="10.5385827"><ele>1249.0</ele><time>2026-04-18T12:36:54.94Z</time></trkpt><trkpt lat="44.2053703" lon="10.5386197"><ele>1254.0</ele><time>2026-04-18T12:36:56.94Z</time></trkpt><trkpt lat="44.2054106" lon="10.5386927"><ele>1254.0</ele><time>2026-04-18T12:36:57.941Z</time></trkpt><trkpt lat="44.2054877" lon="10.5388237"><ele>1254.0</ele><time>2026-04-18T12:36:59.941Z</time></trkpt><trkpt lat="44.2055363" lon="10.5389159"><ele>1254.0</ele><time>2026-04-18T12:37:00.94Z</time></trkpt><trkpt lat="44.205598" lon="10.5389785"><ele>1254.0</ele><time>2026-04-18T12:37:01.94Z</time></trkpt><trkpt lat="44.2056812" lon="10.5390241"><ele>1254.0</ele><time>2026-04-18T12:37:02.94Z</time></trkpt><trkpt lat="44.2057647" lon="10.539056"><ele>1256.6000000000001</ele><time>2026-04-18T12:37:03.94Z</time></trkpt><trkpt lat="44.2058491" lon="10.5390901"><ele>1259.2</ele><time>2026-04-18T12:37:04.94Z</time></trkpt><trkpt lat="44.2059068" lon="10.5391285"><ele>1261.8000000000002</ele><time>2026-04-18T12:37:05.941Z</time></trkpt><trkpt lat="44.2059666" lon="10.5391741"><ele>1264.4</ele><time>2026-04-18T12:37:06.94Z</time></trkpt><trkpt lat="44.2060547" lon="10.5392945"><ele>1267.0</ele><time>2026-04-18T12:37:08.94Z</time></trkpt><trkpt lat="44.2061584" lon="10.5393817"><ele>1267.0</ele><time>2026-04-18T12:37:10.941Z</time></trkpt><trkpt lat="44.2062686" lon="10.539439"><ele>1267.0</ele><time>2026-04-18T12:37:12.94Z</time></trkpt><trkpt lat="44.2063382" lon="10.5394422"><ele>1267.0</ele><time>2026-04-18T12:37:13.94Z</time></trkpt><trkpt lat="44.2064202" lon="10.5394478"><ele>1267.0</ele><time>2026-04-18T12:37:14.94Z</time></trkpt><trkpt lat="44.206494" lon="10.5394584"><ele>1267.0</ele><time>2026-04-18T12:37:15.941Z</time></trkpt><trkpt lat="44.2066172" lon="10.5395115"><ele>1268.8</ele><time>2026-04-18T12:37:17.94Z</time></trkpt><trkpt lat="44.2066993" lon="10.5396311"><ele>1270.6</ele><time>2026-04-18T12:37:19.941Z</time></trkpt><trkpt lat="44.206756" lon="10.5396919"><ele>1272.3999999999999</ele><time>2026-04-18T12:37:20.941Z</time></trkpt><trkpt lat="44.206806" lon="10.5397714"><ele>1274.2</ele><time>2026-04-18T12:37:21.941Z</time></trkpt><trkpt lat="44.2068492" lon="10.539921"><ele>1276.0</ele><time>2026-04-18T12:37:23.94Z</time></trkpt><trkpt lat="44.2068685" lon="10.5400871"><ele>1276.0</ele><time>2026-04-18T12:37:25.94Z</time></trkpt><trkpt lat="44.2068633" lon="10.5401937"><ele>1276.0</ele><time>2026-04-18T12:37:26.941Z</time></trkpt><trkpt lat="44.206839" lon="10.5402887"><ele>1276.0</ele><time>2026-04-18T12:37:27.94Z</time></trkpt><trkpt lat="44.2068017" lon="10.540375"><ele>1276.0</ele><time>2026-04-18T12:37:28.94Z</time></trkpt><trkpt lat="44.2067605" lon="10.5404533"><ele>1276.0</ele><time>2026-04-18T12:37:29.94Z</time></trkpt><trkpt lat="44.2066776" lon="10.5406166"><ele>1276.0</ele><time>2026-04-18T12:37:31.94Z</time></trkpt><trkpt lat="44.2066266" lon="10.5407052"><ele>1277.1666666666665</ele><time>2026-04-18T12:37:32.94Z</time></trkpt><trkpt lat="44.2065685" lon="10.5408033"><ele>1278.3333333333333</ele><time>2026-04-18T12:37:33.94Z</time></trkpt><trkpt lat="44.2064981" lon="10.5408863"><ele>1279.5</ele><time>2026-04-18T12:37:34.94Z</time></trkpt><trkpt lat="44.2064493" lon="10.5409624"><ele>1280.6666666666667</ele><time>2026-04-18T12:37:35.941Z</time></trkpt><trkpt lat="44.2064084" lon="10.541042"><ele>1281.8333333333335</ele><time>2026-04-18T12:37:36.94Z</time></trkpt><trkpt lat="44.2063857" lon="10.5411289"><ele>1283.0</ele><time>2026-04-18T12:37:37.94Z</time></trkpt><trkpt lat="44.20637" lon="10.5412147"><ele>1283.0</ele><time>2026-04-18T12:37:38.941Z</time></trkpt><trkpt lat="44.2063996" lon="10.5413694"><ele>1283.0</ele><time>2026-04-18T12:37:40.94Z</time></trkpt><trkpt lat="44.2064691" lon="10.5415072"><ele>1283.0</ele><time>2026-04-18T12:37:42.94Z</time></trkpt><trkpt lat="44.206516" lon="10.5416123"><ele>1283.0</ele><time>2026-04-18T12:37:44.941Z</time></trkpt><trkpt lat="44.206555" lon="10.5417517"><ele>1283.0</ele><time>2026-04-18T12:37:46.941Z</time></trkpt><trkpt lat="44.206593" lon="10.5419194"><ele>1282.6000000000001</ele><time>2026-04-18T12:37:48.94Z</time></trkpt><trkpt lat="44.2066393" lon="10.5420648"><ele>1282.2</ele><time>2026-04-18T12:37:50.94Z</time></trkpt><trkpt lat="44.2066868" lon="10.5422366"><ele>1281.8</ele><time>2026-04-18T12:37:52.94Z</time></trkpt><trkpt lat="44.2067083" lon="10.5423432"><ele>1281.4</ele><time>2026-04-18T12:37:53.94Z</time></trkpt><trkpt lat="44.2067299" lon="10.5424741"><ele>1281.0</ele><time>2026-04-18T12:37:54.94Z</time></trkpt><trkpt lat="44.2067383" lon="10.5426025"><ele>1281.0</ele><time>2026-04-18T12:37:55.94Z</time></trkpt><trkpt lat="44.2067441" lon="10.5427359"><ele>1281.0</ele><time>2026-04-18T12:37:56.941Z</time></trkpt><trkpt lat="44.2067377" lon="10.5428352"><ele>1281.0</ele><time>2026-04-18T12:37:57.941Z</time></trkpt><trkpt lat="44.2067357" lon="10.542926"><ele>1281.0</ele><time>2026-04-18T12:37:58.941Z</time></trkpt><trkpt lat="44.2067189" lon="10.5430223"><ele>1281.0</ele><time>2026-04-18T12:38:00.94Z</time></trkpt><trkpt lat="44.206685" lon="10.5431553"><ele>1281.0</ele><time>2026-04-18T12:38:02.94Z</time></trkpt><trkpt lat="44.2066457" lon="10.5432361"><ele>1281.4</ele><time>2026-04-18T12:38:03.94Z</time></trkpt><trkpt lat="44.2066066" lon="10.5433193"><ele>1281.8</ele><time>2026-04-18T12:38:04.94Z</time></trkpt><trkpt lat="44.2065178" lon="10.5433912"><ele>1282.2</ele><time>2026-04-18T12:38:05.94Z</time></trkpt><trkpt lat="44.2064501" lon="10.5434625"><ele>1282.6000000000001</ele><time>2026-04-18T12:38:06.94Z</time></trkpt><trkpt lat="44.2063707" lon="10.5435388"><ele>1283.0</ele><time>2026-04-18T12:38:07.94Z</time></trkpt><trkpt lat="44.2062749" lon="10.5436222"><ele>1282.0</ele><time>2026-04-18T12:38:08.941Z</time></trkpt><trkpt lat="44.2061806" lon="10.5437056"><ele>1281.0</ele><time>2026-04-18T12:38:09.94Z</time></trkpt><trkpt lat="44.206091" lon="10.543755"><ele>1280.0</ele><time>2026-04-18T12:38:10.94Z</time></trkpt><trkpt lat="44.2060041" lon="10.5438173"><ele>1279.0</ele><time>2026-04-18T12:38:11.94Z</time></trkpt><trkpt lat="44.2059311" lon="10.5438944"><ele>1278.0</ele><time>2026-04-18T12:38:12.941Z</time></trkpt><trkpt lat="44.2058682" lon="10.5439573"><ele>1278.0</ele><time>2026-04-18T12:38:13.94Z</time></trkpt><trkpt lat="44.2058025" lon="10.5440203"><ele>1278.0</ele><time>2026-04-18T12:38:14.94Z</time></trkpt><trkpt lat="44.2057458" lon="10.5440717"><ele>1278.0</ele><time>2026-04-18T12:38:15.94Z</time></trkpt><trkpt lat="44.2056677" lon="10.5441449"><ele>1278.0</ele><time>2026-04-18T12:38:17.94Z</time></trkpt><trkpt lat="44.2056329" lon="10.5442587"><ele>1278.0</ele><time>2026-04-18T12:38:19.94Z</time></trkpt><trkpt lat="44.2056269" lon="10.5443859"><ele>1278.0</ele><time>2026-04-18T12:38:21.94Z</time></trkpt><trkpt lat="44.2056443" lon="10.5445516"><ele>1277.1666666666667</ele><time>2026-04-18T12:38:23.94Z</time></trkpt><trkpt lat="44.2056934" lon="10.5447218"><ele>1276.3333333333333</ele><time>2026-04-18T12:38:25.94Z</time></trkpt><trkpt lat="44.2057153" lon="10.5448127"><ele>1275.5</ele><time>2026-04-18T12:38:26.941Z</time></trkpt><trkpt lat="44.2057249" lon="10.5449083"><ele>1274.6666666666665</ele><time>2026-04-18T12:38:27.94Z</time></trkpt><trkpt lat="44.2057368" lon="10.5450007"><ele>1273.8333333333333</ele><time>2026-04-18T12:38:28.94Z</time></trkpt><trkpt lat="44.2057349" lon="10.5451024"><ele>1273.0</ele><time>2026-04-18T12:38:29.94Z</time></trkpt><trkpt lat="44.205711" lon="10.5452031"><ele>1273.0</ele><time>2026-04-18T12:38:30.941Z</time></trkpt><trkpt lat="44.2056876" lon="10.5452977"><ele>1273.0</ele><time>2026-04-18T12:38:31.94Z</time></trkpt><trkpt lat="44.2056719" lon="10.5454634"><ele>1273.0</ele><time>2026-04-18T12:38:33.94Z</time></trkpt><trkpt lat="44.205618" lon="10.5455904"><ele>1273.0</ele><time>2026-04-18T12:38:35.94Z</time></trkpt><trkpt lat="44.2055376" lon="10.545727"><ele>1273.0</ele><time>2026-04-18T12:38:37.941Z</time></trkpt><trkpt lat="44.2054747" lon="10.5457971"><ele>1271.1666666666665</ele><time>2026-04-18T12:38:38.94Z</time></trkpt><trkpt lat="44.2054208" lon="10.5458732"><ele>1269.3333333333333</ele><time>2026-04-18T12:38:39.94Z</time></trkpt><trkpt lat="44.2053589" lon="10.5459639"><ele>1267.5</ele><time>2026-04-18T12:38:40.94Z</time></trkpt><trkpt lat="44.2052982" lon="10.546052"><ele>1265.6666666666667</ele><time>2026-04-18T12:38:41.94Z</time></trkpt><trkpt lat="44.2052429" lon="10.546142"><ele>1263.8333333333335</ele><time>2026-04-18T12:38:42.941Z</time></trkpt><trkpt lat="44.2051901" lon="10.5462324"><ele>1262.0</ele><time>2026-04-18T12:38:43.941Z</time></trkpt><trkpt lat="44.205157" lon="10.5463338"><ele>1262.0</ele><time>2026-04-18T12:38:44.94Z</time></trkpt><trkpt lat="44.2051417" lon="10.5464338"><ele>1262.0</ele><time>2026-04-18T12:38:45.94Z</time></trkpt><trkpt lat="44.2051199" lon="10.5465431"><ele>1262.0</ele><time>2026-04-18T12:38:46.94Z</time></trkpt><trkpt lat="44.2051136" lon="10.5466402"><ele>1262.0</ele><time>2026-04-18T12:38:47.94Z</time></trkpt><trkpt lat="44.2051533" lon="10.5468002"><ele>1262.0</ele><time>2026-04-18T12:38:49.94Z</time></trkpt><trkpt lat="44.2051779" lon="10.5468827"><ele>1262.0</ele><time>2026-04-18T12:38:50.941Z</time></trkpt><trkpt lat="44.2052138" lon="10.5469628"><ele>1261.4285714285716</ele><time>2026-04-18T12:38:51.94Z</time></trkpt><trkpt lat="44.2052308" lon="10.5470479"><ele>1260.8571428571427</ele><time>2026-04-18T12:38:52.941Z</time></trkpt><trkpt lat="44.2052405" lon="10.5471367"><ele>1260.2857142857142</ele><time>2026-04-18T12:38:53.94Z</time></trkpt><trkpt lat="44.205264" lon="10.5472287"><ele>1259.7142857142858</ele><time>2026-04-18T12:38:54.94Z</time></trkpt><trkpt lat="44.2052983" lon="10.5473052"><ele>1259.1428571428573</ele><time>2026-04-18T12:38:55.941Z</time></trkpt><trkpt lat="44.205343" lon="10.5473737"><ele>1258.5714285714284</ele><time>2026-04-18T12:38:56.941Z</time></trkpt><trkpt lat="44.205403" lon="10.5474537"><ele>1258.0</ele><time>2026-04-18T12:38:57.94Z</time></trkpt><trkpt lat="44.2054629" lon="10.5475346"><ele>1258.0</ele><time>2026-04-18T12:38:58.941Z</time></trkpt><trkpt lat="44.2055219" lon="10.5476286"><ele>1258.0</ele><time>2026-04-18T12:38:59.94Z</time></trkpt><trkpt lat="44.2055791" lon="10.5477282"><ele>1258.0</ele><time>2026-04-18T12:39:00.941Z</time></trkpt><trkpt lat="44.2056288" lon="10.5478307"><ele>1258.0</ele><time>2026-04-18T12:39:01.94Z</time></trkpt><trkpt lat="44.2056589" lon="10.5479187"><ele>1258.0</ele><time>2026-04-18T12:39:02.94Z</time></trkpt><trkpt lat="44.2057213" lon="10.5480564"><ele>1261.0</ele><time>2026-04-18T12:39:04.941Z</time></trkpt><trkpt lat="44.2058116" lon="10.5481813"><ele>1264.0</ele><time>2026-04-18T12:39:06.941Z</time></trkpt><trkpt lat="44.2058733" lon="10.5482417"><ele>1267.0</ele><time>2026-04-18T12:39:07.941Z</time></trkpt><trkpt lat="44.2059271" lon="10.5482911"><ele>1270.0</ele><time>2026-04-18T12:39:08.94Z</time></trkpt><trkpt lat="44.2059795" lon="10.5483545"><ele>1273.0</ele><time>2026-04-18T12:39:09.94Z</time></trkpt><trkpt lat="44.2060464" lon="10.5484013"><ele>1276.0</ele><time>2026-04-18T12:39:10.94Z</time></trkpt><trkpt lat="44.2061163" lon="10.5484556"><ele>1276.0</ele><time>2026-04-18T12:39:11.941Z</time></trkpt><trkpt lat="44.206195" lon="10.5485195"><ele>1276.0</ele><time>2026-04-18T12:39:12.94Z</time></trkpt><trkpt lat="44.2062684" lon="10.5486005"><ele>1276.0</ele><time>2026-04-18T12:39:13.941Z</time></trkpt><trkpt lat="44.2063532" lon="10.548674"><ele>1276.0</ele><time>2026-04-18T12:39:14.94Z</time></trkpt><trkpt lat="44.2064408" lon="10.548753"><ele>1276.0</ele><time>2026-04-18T12:39:15.94Z</time></trkpt><trkpt lat="44.2065149" lon="10.5488314"><ele>1278.6666666666665</ele><time>2026-04-18T12:39:16.94Z</time></trkpt><trkpt lat="44.2065896" lon="10.5488977"><ele>1281.3333333333333</ele><time>2026-04-18T12:39:17.941Z</time></trkpt><trkpt lat="44.2066581" lon="10.5489714"><ele>1284.0</ele><time>2026-04-18T12:39:18.941Z</time></trkpt><trkpt lat="44.206705" lon="10.5490397"><ele>1286.6666666666667</ele><time>2026-04-18T12:39:19.94Z</time></trkpt><trkpt lat="44.2067422" lon="10.549113"><ele>1289.3333333333335</ele><time>2026-04-18T12:39:20.94Z</time></trkpt><trkpt lat="44.2067734" lon="10.5492674"><ele>1292.0</ele><time>2026-04-18T12:39:22.94Z</time></trkpt><trkpt lat="44.2068024" lon="10.5494197"><ele>1291.3333333333335</ele><time>2026-04-18T12:39:24.94Z</time></trkpt><trkpt lat="44.2068384" lon="10.5495856"><ele>1290.6666666666667</ele><time>2026-04-18T12:39:26.94Z</time></trkpt><trkpt lat="44.2068884" lon="10.5496673"><ele>1290.0</ele><time>2026-04-18T12:39:27.94Z</time></trkpt><trkpt lat="44.2069311" lon="10.5497567"><ele>1289.3333333333333</ele><time>2026-04-18T12:39:28.94Z</time></trkpt><trkpt lat="44.2069584" lon="10.5498458"><ele>1288.6666666666665</ele><time>2026-04-18T12:39:29.94Z</time></trkpt><trkpt lat="44.2069847" lon="10.5499498"><ele>1288.0</ele><time>2026-04-18T12:39:30.94Z</time></trkpt><trkpt lat="44.2070044" lon="10.550057"><ele>1288.0</ele><time>2026-04-18T12:39:31.94Z</time></trkpt><trkpt lat="44.207017" lon="10.5501619"><ele>1288.0</ele><time>2026-04-18T12:39:32.94Z</time></trkpt><trkpt lat="44.2070249" lon="10.5502779"><ele>1288.0</ele><time>2026-04-18T12:39:33.941Z</time></trkpt><trkpt lat="44.2070169" lon="10.550375"><ele>1288.0</ele><time>2026-04-18T12:39:34.94Z</time></trkpt><trkpt lat="44.2070408" lon="10.5505283"><ele>1288.0</ele><time>2026-04-18T12:39:36.941Z</time></trkpt><trkpt lat="44.2070993" lon="10.5506183"><ele>1288.0</ele><time>2026-04-18T12:39:38.94Z</time></trkpt><trkpt lat="44.2071594" lon="10.5506888"><ele>1288.0</ele><time>2026-04-18T12:39:40.94Z</time></trkpt><trkpt lat="44.2072569" lon="10.5506751"><ele>1288.0</ele><time>2026-04-18T12:39:47.94Z</time></trkpt><trkpt lat="44.2073809" lon="10.5506667"><ele>1288.0</ele><time>2026-04-18T12:39:49.941Z</time></trkpt><trkpt lat="44.2074461" lon="10.5506659"><ele>1288.0</ele><time>2026-04-18T12:39:50.94Z</time></trkpt><trkpt lat="44.2075208" lon="10.5506711"><ele>1288.0</ele><time>2026-04-18T12:39:51.94Z</time></trkpt><trkpt lat="44.2075947" lon="10.5506828"><ele>1288.0</ele><time>2026-04-18T12:39:52.94Z</time></trkpt><trkpt lat="44.2076905" lon="10.5507208"><ele>1290.5714285714287</ele><time>2026-04-18T12:39:53.94Z</time></trkpt><trkpt lat="44.2077699" lon="10.5507517"><ele>1293.142857142857</ele><time>2026-04-18T12:39:54.94Z</time></trkpt><trkpt lat="44.2078281" lon="10.5508025"><ele>1295.7142857142858</ele><time>2026-04-18T12:39:55.94Z</time></trkpt><trkpt lat="44.2078912" lon="10.5508616"><ele>1298.2857142857142</ele><time>2026-04-18T12:39:56.941Z</time></trkpt><trkpt lat="44.2079279" lon="10.5509356"><ele>1300.857142857143</ele><time>2026-04-18T12:39:57.94Z</time></trkpt><trkpt lat="44.2079418" lon="10.551025"><ele>1303.4285714285716</ele><time>2026-04-18T12:39:58.94Z</time></trkpt><trkpt lat="44.2079542" lon="10.5511128"><ele>1306.0</ele><time>2026-04-18T12:39:59.94Z</time></trkpt><trkpt lat="44.207961" lon="10.5512139"><ele>1307.3333333333333</ele><time>2026-04-18T12:40:00.94Z</time></trkpt><trkpt lat="44.2079562" lon="10.5513306"><ele>1308.6666666666665</ele><time>2026-04-18T12:40:01.94Z</time></trkpt><trkpt lat="44.2079529" lon="10.5514457"><ele>1310.0</ele><time>2026-04-18T12:40:02.94Z</time></trkpt><trkpt lat="44.2079438" lon="10.5515537"><ele>1311.3333333333333</ele><time>2026-04-18T12:40:03.94Z</time></trkpt><trkpt lat="44.2079351" lon="10.5516731"><ele>1312.6666666666667</ele><time>2026-04-18T12:40:04.941Z</time></trkpt><trkpt lat="44.2079133" lon="10.551777"><ele>1314.0</ele><time>2026-04-18T12:40:05.94Z</time></trkpt><trkpt lat="44.207877" lon="10.5518842"><ele>1314.0</ele><time>2026-04-18T12:40:06.94Z</time></trkpt><trkpt lat="44.2078369" lon="10.5519849"><ele>1314.0</ele><time>2026-04-18T12:40:07.941Z</time></trkpt><trkpt lat="44.2077754" lon="10.5520905"><ele>1314.0</ele><time>2026-04-18T12:40:08.94Z</time></trkpt><trkpt lat="44.2077054" lon="10.5521979"><ele>1314.0</ele><time>2026-04-18T12:40:09.941Z</time></trkpt><trkpt lat="44.207639" lon="10.5523005"><ele>1314.0</ele><time>2026-04-18T12:40:10.94Z</time></trkpt><trkpt lat="44.20757" lon="10.5523793"><ele>1315.8333333333333</ele><time>2026-04-18T12:40:11.94Z</time></trkpt><trkpt lat="44.2075092" lon="10.5524523"><ele>1317.6666666666667</ele><time>2026-04-18T12:40:12.941Z</time></trkpt><trkpt lat="44.2074619" lon="10.5525243"><ele>1319.5</ele><time>2026-04-18T12:40:13.94Z</time></trkpt><trkpt lat="44.207439" lon="10.5526232"><ele>1321.3333333333335</ele><time>2026-04-18T12:40:14.94Z</time></trkpt><trkpt lat="44.2073998" lon="10.5527124"><ele>1323.1666666666667</ele><time>2026-04-18T12:40:15.941Z</time></trkpt><trkpt lat="44.20738" lon="10.5528372"><ele>1325.0</ele><time>2026-04-18T12:40:16.94Z</time></trkpt><trkpt lat="44.207364" lon="10.5529924"><ele>1326.5</ele><time>2026-04-18T12:40:17.94Z</time></trkpt><trkpt lat="44.2073307" lon="10.5531024"><ele>1328.0</ele><time>2026-04-18T12:40:18.941Z</time></trkpt><trkpt lat="44.2072696" lon="10.5532069"><ele>1329.5</ele><time>2026-04-18T12:40:19.941Z</time></trkpt><trkpt lat="44.2072301" lon="10.5533086"><ele>1331.0</ele><time>2026-04-18T12:40:20.941Z</time></trkpt><trkpt lat="44.2071822" lon="10.553397"><ele>1332.5</ele><time>2026-04-18T12:40:21.941Z</time></trkpt><trkpt lat="44.2071397" lon="10.5535249"><ele>1334.0</ele><time>2026-04-18T12:40:22.94Z</time></trkpt><trkpt lat="44.2070933" lon="10.5536464"><ele>1328.4</ele><time>2026-04-18T12:40:23.94Z</time></trkpt><trkpt lat="44.2070636" lon="10.5537608"><ele>1322.8000000000002</ele><time>2026-04-18T12:40:24.941Z</time></trkpt><trkpt lat="44.2070439" lon="10.5538748"><ele>1317.1999999999998</ele><time>2026-04-18T12:40:25.94Z</time></trkpt><trkpt lat="44.2070279" lon="10.5540041"><ele>1311.6</ele><time>2026-04-18T12:40:26.94Z</time></trkpt><trkpt lat="44.207021" lon="10.5541379"><ele>1306.0</ele><time>2026-04-18T12:40:27.94Z</time></trkpt><trkpt lat="44.2069895" lon="10.5542531"><ele>1306.0</ele><time>2026-04-18T12:40:28.941Z</time></trkpt><trkpt lat="44.2069568" lon="10.5543597"><ele>1306.0</ele><time>2026-04-18T12:40:29.94Z</time></trkpt><trkpt lat="44.2069204" lon="10.5544377"><ele>1306.0</ele><time>2026-04-18T12:40:30.94Z</time></trkpt><trkpt lat="44.206877" lon="10.5545148"><ele>1306.0</ele><time>2026-04-18T12:40:31.94Z</time></trkpt><trkpt lat="44.2068003" lon="10.5545478"><ele>1306.0</ele><time>2026-04-18T12:40:32.94Z</time></trkpt><trkpt lat="44.2067382" lon="10.5546121"><ele>1306.0</ele><time>2026-04-18T12:40:33.94Z</time></trkpt><trkpt lat="44.2066714" lon="10.554672"><ele>1307.6666666666665</ele><time>2026-04-18T12:40:34.941Z</time></trkpt><trkpt lat="44.2066318" lon="10.5547419"><ele>1309.3333333333333</ele><time>2026-04-18T12:40:35.94Z</time></trkpt><trkpt lat="44.2066039" lon="10.5548548"><ele>1311.0</ele><time>2026-04-18T12:40:36.94Z</time></trkpt><trkpt lat="44.2065651" lon="10.554968"><ele>1312.6666666666667</ele><time>2026-04-18T12:40:37.94Z</time></trkpt><trkpt lat="44.2065222" lon="10.5550938"><ele>1314.3333333333335</ele><time>2026-04-18T12:40:38.94Z</time></trkpt><trkpt lat="44.2064695" lon="10.5552184"><ele>1316.0</ele><time>2026-04-18T12:40:39.94Z</time></trkpt><trkpt lat="44.2064106" lon="10.5553477"><ele>1312.8</ele><time>2026-04-18T12:40:40.94Z</time></trkpt><trkpt lat="44.2063436" lon="10.5554766"><ele>1309.6</ele><time>2026-04-18T12:40:41.94Z</time></trkpt><trkpt lat="44.2062841" lon="10.5556026"><ele>1306.4</ele><time>2026-04-18T12:40:42.94Z</time></trkpt><trkpt lat="44.2062245" lon="10.5557284"><ele>1303.2</ele><time>2026-04-18T12:40:43.941Z</time></trkpt><trkpt lat="44.2061899" lon="10.5558633"><ele>1300.0</ele><time>2026-04-18T12:40:44.94Z</time></trkpt><trkpt lat="44.2061456" lon="10.5559806"><ele>1300.0</ele><time>2026-04-18T12:40:45.94Z</time></trkpt><trkpt lat="44.2061159" lon="10.5560697"><ele>1300.0</ele><time>2026-04-18T12:40:46.94Z</time></trkpt><trkpt lat="44.2060929" lon="10.5561665"><ele>1300.0</ele><time>2026-04-18T12:40:47.941Z</time></trkpt><trkpt lat="44.206078" lon="10.556279"><ele>1300.0</ele><time>2026-04-18T12:40:49.94Z</time></trkpt><trkpt lat="44.2061113" lon="10.5563756"><ele>1300.0</ele><time>2026-04-18T12:41:13.94Z</time></trkpt><trkpt lat="44.2062222" lon="10.5564194"><ele>1300.0</ele><time>2026-04-18T12:41:15.94Z</time></trkpt><trkpt lat="44.2062876" lon="10.5564356"><ele>1301.0</ele><time>2026-04-18T12:41:16.941Z</time></trkpt><trkpt lat="44.206376" lon="10.5564431"><ele>1302.0</ele><time>2026-04-18T12:41:17.94Z</time></trkpt><trkpt lat="44.2064651" lon="10.5564335"><ele>1303.0</ele><time>2026-04-18T12:41:18.94Z</time></trkpt><trkpt lat="44.2065512" lon="10.5564271"><ele>1304.0</ele><time>2026-04-18T12:41:19.941Z</time></trkpt><trkpt lat="44.20665" lon="10.5564259"><ele>1305.0</ele><time>2026-04-18T12:41:20.941Z</time></trkpt><trkpt lat="44.2067492" lon="10.5564258"><ele>1305.2</ele><time>2026-04-18T12:41:21.941Z</time></trkpt><trkpt lat="44.206852" lon="10.5564278"><ele>1305.4</ele><time>2026-04-18T12:41:22.94Z</time></trkpt><trkpt lat="44.2069475" lon="10.556422"><ele>1305.6</ele><time>2026-04-18T12:41:23.941Z</time></trkpt><trkpt lat="44.2070459" lon="10.5564067"><ele>1305.8</ele><time>2026-04-18T12:41:24.94Z</time></trkpt><trkpt lat="44.2071376" lon="10.5563914"><ele>1306.0</ele><time>2026-04-18T12:41:25.94Z</time></trkpt><trkpt lat="44.2072257" lon="10.5563789"><ele>1307.0</ele><time>2026-04-18T12:41:26.94Z</time></trkpt><trkpt lat="44.2073281" lon="10.556354"><ele>1308.0</ele><time>2026-04-18T12:41:27.941Z</time></trkpt><trkpt lat="44.2074328" lon="10.5563324"><ele>1309.0</ele><time>2026-04-18T12:41:28.941Z</time></trkpt><trkpt lat="44.2075454" lon="10.5563103"><ele>1310.0</ele><time>2026-04-18T12:41:29.941Z</time></trkpt><trkpt lat="44.2076605" lon="10.556287"><ele>1311.0</ele><time>2026-04-18T12:41:30.94Z</time></trkpt><trkpt lat="44.2077804" lon="10.5562557"><ele>1311.0</ele><time>2026-04-18T12:41:31.941Z</time></trkpt><trkpt lat="44.2078997" lon="10.556231"><ele>1311.0</ele><time>2026-04-18T12:41:32.941Z</time></trkpt><trkpt lat="44.208018" lon="10.5562177"><ele>1311.0</ele><time>2026-04-18T12:41:33.941Z</time></trkpt><trkpt lat="44.2081413" lon="10.5562055"><ele>1311.0</ele><time>2026-04-18T12:41:34.94Z</time></trkpt><trkpt lat="44.2082505" lon="10.5561871"><ele>1313.0</ele><time>2026-04-18T12:41:35.94Z</time></trkpt><trkpt lat="44.2083568" lon="10.5561659"><ele>1315.0</ele><time>2026-04-18T12:41:36.94Z</time></trkpt><trkpt lat="44.2084416" lon="10.5561441"><ele>1317.0</ele><time>2026-04-18T12:41:37.941Z</time></trkpt><trkpt lat="44.2085275" lon="10.5561134"><ele>1319.0</ele><time>2026-04-18T12:41:38.941Z</time></trkpt><trkpt lat="44.2086138" lon="10.5560905"><ele>1321.0</ele><time>2026-04-18T12:41:39.94Z</time></trkpt><trkpt lat="44.2087002" lon="10.5561012"><ele>1321.0</ele><time>2026-04-18T12:41:40.94Z</time></trkpt><trkpt lat="44.208787" lon="10.5561242"><ele>1321.0</ele><time>2026-04-18T12:41:41.94Z</time></trkpt><trkpt lat="44.2088788" lon="10.5561619"><ele>1321.0</ele><time>2026-04-18T12:41:42.94Z</time></trkpt><trkpt lat="44.208971" lon="10.5562253"><ele>1321.0</ele><time>2026-04-18T12:41:43.941Z</time></trkpt><trkpt lat="44.2090593" lon="10.5562969"><ele>1321.0</ele><time>2026-04-18T12:41:44.94Z</time></trkpt><trkpt lat="44.2091656" lon="10.5563743"><ele>1318.25</ele><time>2026-04-18T12:41:45.941Z</time></trkpt><trkpt lat="44.2092799" lon="10.5564281"><ele>1315.5</ele><time>2026-04-18T12:41:46.94Z</time></trkpt><trkpt lat="44.2093981" lon="10.5564862"><ele>1312.75</ele><time>2026-04-18T12:41:47.941Z</time></trkpt><trkpt lat="44.2095104" lon="10.5565394"><ele>1310.0</ele><time>2026-04-18T12:41:48.941Z</time></trkpt><trkpt lat="44.2096214" lon="10.556583"><ele>1310.0</ele><time>2026-04-18T12:41:49.941Z</time></trkpt><trkpt lat="44.2097203" lon="10.5566171"><ele>1310.0</ele><time>2026-04-18T12:41:50.941Z</time></trkpt><trkpt lat="44.2098192" lon="10.5566666"><ele>1310.0</ele><time>2026-04-18T12:41:51.941Z</time></trkpt><trkpt lat="44.2099104" lon="10.5567225"><ele>1310.0</ele><time>2026-04-18T12:41:52.94Z</time></trkpt><trkpt lat="44.2099907" lon="10.5567356"><ele>1310.0</ele><time>2026-04-18T12:41:53.94Z</time></trkpt><trkpt lat="44.2100701" lon="10.5567391"><ele>1311.0</ele><time>2026-04-18T12:41:54.94Z</time></trkpt><trkpt lat="44.210148" lon="10.5567169"><ele>1312.0</ele><time>2026-04-18T12:41:55.941Z</time></trkpt><trkpt lat="44.2102378" lon="10.5566358"><ele>1313.0</ele><time>2026-04-18T12:41:56.941Z</time></trkpt><trkpt lat="44.2103449" lon="10.5565768"><ele>1314.0</ele><time>2026-04-18T12:41:57.94Z</time></trkpt><trkpt lat="44.2104495" lon="10.5565154"><ele>1315.0</ele><time>2026-04-18T12:41:58.941Z</time></trkpt><trkpt lat="44.2105518" lon="10.5564613"><ele>1315.6</ele><time>2026-04-18T12:41:59.94Z</time></trkpt><trkpt lat="44.2106582" lon="10.556415"><ele>1316.2</ele><time>2026-04-18T12:42:00.941Z</time></trkpt><trkpt lat="44.2107526" lon="10.5563779"><ele>1316.8000000000002</ele><time>2026-04-18T12:42:01.94Z</time></trkpt><trkpt lat="44.210842" lon="10.5563374"><ele>1317.4</ele><time>2026-04-18T12:42:02.941Z</time></trkpt><trkpt lat="44.2109341" lon="10.556301"><ele>1318.0</ele><time>2026-04-18T12:42:03.94Z</time></trkpt><trkpt lat="44.2110282" lon="10.55627"><ele>1318.0</ele><time>2026-04-18T12:42:04.94Z</time></trkpt><trkpt lat="44.2111248" lon="10.5562534"><ele>1318.0</ele><time>2026-04-18T12:42:05.94Z</time></trkpt><trkpt lat="44.2112241" lon="10.5562559"><ele>1318.0</ele><time>2026-04-18T12:42:06.941Z</time></trkpt><trkpt lat="44.2113222" lon="10.5562582"><ele>1318.0</ele><time>2026-04-18T12:42:07.94Z</time></trkpt><trkpt lat="44.2114118" lon="10.5562832"><ele>1318.0</ele><time>2026-04-18T12:42:08.94Z</time></trkpt><trkpt lat="44.2115073" lon="10.5563035"><ele>1320.0</ele><time>2026-04-18T12:42:09.94Z</time></trkpt><trkpt lat="44.2115768" lon="10.5563538"><ele>1322.0</ele><time>2026-04-18T12:42:10.941Z</time></trkpt><trkpt lat="44.2116514" lon="10.5564098"><ele>1324.0</ele><time>2026-04-18T12:42:11.941Z</time></trkpt><trkpt lat="44.211722" lon="10.5564959"><ele>1326.0</ele><time>2026-04-18T12:42:12.94Z</time></trkpt><trkpt lat="44.2117841" lon="10.5565927"><ele>1328.0</ele><time>2026-04-18T12:42:13.941Z</time></trkpt><trkpt lat="44.2118469" lon="10.556706"><ele>1328.0</ele><time>2026-04-18T12:42:14.94Z</time></trkpt><trkpt lat="44.2119025" lon="10.5568238"><ele>1328.0</ele><time>2026-04-18T12:42:15.941Z</time></trkpt><trkpt lat="44.2119606" lon="10.5569256"><ele>1328.0</ele><time>2026-04-18T12:42:16.94Z</time></trkpt><trkpt lat="44.2120092" lon="10.557026"><ele>1328.0</ele><time>2026-04-18T12:42:17.94Z</time></trkpt><trkpt lat="44.2120577" lon="10.5571248"><ele>1328.0</ele><time>2026-04-18T12:42:18.94Z</time></trkpt><trkpt lat="44.2121058" lon="10.5572369"><ele>1327.8000000000002</ele><time>2026-04-18T12:42:19.94Z</time></trkpt><trkpt lat="44.2121484" lon="10.5573578"><ele>1327.6</ele><time>2026-04-18T12:42:20.94Z</time></trkpt><trkpt lat="44.212185" lon="10.5574776"><ele>1327.4</ele><time>2026-04-18T12:42:21.941Z</time></trkpt><trkpt lat="44.2122318" lon="10.5576097"><ele>1327.1999999999998</ele><time>2026-04-18T12:42:22.941Z</time></trkpt><trkpt lat="44.2122718" lon="10.5577625"><ele>1327.0</ele><time>2026-04-18T12:42:23.94Z</time></trkpt><trkpt lat="44.2123034" lon="10.5579109"><ele>1328.0</ele><time>2026-04-18T12:42:24.94Z</time></trkpt><trkpt lat="44.2123501" lon="10.5580772"><ele>1329.0</ele><time>2026-04-18T12:42:25.941Z</time></trkpt><trkpt lat="44.2124213" lon="10.5582525"><ele>1330.0</ele><time>2026-04-18T12:42:26.94Z</time></trkpt><trkpt lat="44.2124733" lon="10.5584068"><ele>1331.0</ele><time>2026-04-18T12:42:27.94Z</time></trkpt><trkpt lat="44.2125123" lon="10.558528"><ele>1331.0</ele><time>2026-04-18T12:42:28.941Z</time></trkpt><trkpt lat="44.2125511" lon="10.5586317"><ele>1331.0</ele><time>2026-04-18T12:42:29.941Z</time></trkpt><trkpt lat="44.2125907" lon="10.5587031"><ele>1331.0</ele><time>2026-04-18T12:42:30.941Z</time></trkpt><trkpt lat="44.2126227" lon="10.5587806"><ele>1331.0</ele><time>2026-04-18T12:42:31.94Z</time></trkpt><trkpt lat="44.2126548" lon="10.5588673"><ele>1331.0</ele><time>2026-04-18T12:42:32.94Z</time></trkpt><trkpt lat="44.2126776" lon="10.5589525"><ele>1331.0</ele><time>2026-04-18T12:42:33.94Z</time></trkpt><trkpt lat="44.2126884" lon="10.5590484"><ele>1331.0</ele><time>2026-04-18T12:42:34.94Z</time></trkpt><trkpt lat="44.2126878" lon="10.559158"><ele>1329.0</ele><time>2026-04-18T12:42:35.94Z</time></trkpt><trkpt lat="44.2126851" lon="10.5592628"><ele>1327.0</ele><time>2026-04-18T12:42:36.94Z</time></trkpt><trkpt lat="44.2126778" lon="10.5593562"><ele>1325.0</ele><time>2026-04-18T12:42:37.94Z</time></trkpt><trkpt lat="44.212718" lon="10.5595012"><ele>1323.0</ele><time>2026-04-18T12:42:39.941Z</time></trkpt><trkpt lat="44.2128062" lon="10.559574"><ele>1321.0</ele><time>2026-04-18T12:42:41.941Z</time></trkpt><trkpt lat="44.2129261" lon="10.5595777"><ele>1321.0</ele><time>2026-04-18T12:42:43.94Z</time></trkpt><trkpt lat="44.2129915" lon="10.5595369"><ele>1321.0</ele><time>2026-04-18T12:42:44.94Z</time></trkpt><trkpt lat="44.2130933" lon="10.5594412"><ele>1321.0</ele><time>2026-04-18T12:42:46.94Z</time></trkpt><trkpt lat="44.2131985" lon="10.5594417"><ele>1321.0</ele><time>2026-04-18T12:42:48.94Z</time></trkpt><trkpt lat="44.2133053" lon="10.5595372"><ele>1321.0</ele><time>2026-04-18T12:42:50.941Z</time></trkpt><trkpt lat="44.2133886" lon="10.5596021"><ele>1320.4</ele><time>2026-04-18T12:42:51.94Z</time></trkpt><trkpt lat="44.2134622" lon="10.5596776"><ele>1319.8</ele><time>2026-04-18T12:42:52.94Z</time></trkpt><trkpt lat="44.2135334" lon="10.5597637"><ele>1319.2</ele><time>2026-04-18T12:42:53.94Z</time></trkpt><trkpt lat="44.2135912" lon="10.559867"><ele>1318.6000000000001</ele><time>2026-04-18T12:42:54.941Z</time></trkpt><trkpt lat="44.2136497" lon="10.5599372"><ele>1318.0</ele><time>2026-04-18T12:42:55.94Z</time></trkpt><trkpt lat="44.2137445" lon="10.5600129"><ele>1318.0</ele><time>2026-04-18T12:42:57.941Z</time></trkpt><trkpt lat="44.2138687" lon="10.5600333"><ele>1318.0</ele><time>2026-04-18T12:42:59.94Z</time></trkpt><trkpt lat="44.2139346" lon="10.5600309"><ele>1318.0</ele><time>2026-04-18T12:43:00.94Z</time></trkpt><trkpt lat="44.2140068" lon="10.5600417"><ele>1318.0</ele><time>2026-04-18T12:43:01.94Z</time></trkpt><trkpt lat="44.2140727" lon="10.5600643"><ele>1318.0</ele><time>2026-04-18T12:43:02.94Z</time></trkpt><trkpt lat="44.2141417" lon="10.5600926"><ele>1318.0</ele><time>2026-04-18T12:43:03.941Z</time></trkpt><trkpt lat="44.2142369" lon="10.5601392"><ele>1320.0</ele><time>2026-04-18T12:43:04.94Z</time></trkpt><trkpt lat="44.2143124" lon="10.5601824"><ele>1322.0</ele><time>2026-04-18T12:43:05.94Z</time></trkpt><trkpt lat="44.2143802" lon="10.5602371"><ele>1324.0</ele><time>2026-04-18T12:43:06.941Z</time></trkpt><trkpt lat="44.2144427" lon="10.5602824"><ele>1326.0</ele><time>2026-04-18T12:43:07.94Z</time></trkpt><trkpt lat="44.2145314" lon="10.5603287"><ele>1328.0</ele><time>2026-04-18T12:43:08.941Z</time></trkpt><trkpt lat="44.2146122" lon="10.5603411"><ele>1330.0</ele><time>2026-04-18T12:43:09.94Z</time></trkpt><trkpt lat="44.2146937" lon="10.5603549"><ele>1330.8333333333333</ele><time>2026-04-18T12:43:10.94Z</time></trkpt><trkpt lat="44.214769" lon="10.5603916"><ele>1331.6666666666665</ele><time>2026-04-18T12:43:11.94Z</time></trkpt><trkpt lat="44.2148477" lon="10.5604346"><ele>1332.5</ele><time>2026-04-18T12:43:12.94Z</time></trkpt><trkpt lat="44.2149125" lon="10.5604954"><ele>1333.3333333333333</ele><time>2026-04-18T12:43:13.941Z</time></trkpt><trkpt lat="44.2149911" lon="10.5605682"><ele>1334.1666666666667</ele><time>2026-04-18T12:43:14.94Z</time></trkpt><trkpt lat="44.2150748" lon="10.5606385"><ele>1335.0</ele><time>2026-04-18T12:43:15.941Z</time></trkpt><trkpt lat="44.2151511" lon="10.5606893"><ele>1335.0</ele><time>2026-04-18T12:43:16.94Z</time></trkpt><trkpt lat="44.2152258" lon="10.560721"><ele>1335.0</ele><time>2026-04-18T12:43:17.941Z</time></trkpt><trkpt lat="44.2153222" lon="10.5607478"><ele>1335.0</ele><time>2026-04-18T12:43:18.94Z</time></trkpt><trkpt lat="44.2153924" lon="10.5607946"><ele>1335.0</ele><time>2026-04-18T12:43:19.941Z</time></trkpt><trkpt lat="44.2154463" lon="10.5608491"><ele>1335.0</ele><time>2026-04-18T12:43:20.941Z</time></trkpt><trkpt lat="44.2154659" lon="10.5609497"><ele>1335.0</ele><time>2026-04-18T12:43:21.941Z</time></trkpt><trkpt lat="44.2154895" lon="10.5610666"><ele>1335.0</ele><time>2026-04-18T12:43:22.94Z</time></trkpt><trkpt lat="44.2155097" lon="10.5611966"><ele>1335.0</ele><time>2026-04-18T12:43:23.94Z</time></trkpt><trkpt lat="44.2155176" lon="10.5613375"><ele>1335.0</ele><time>2026-04-18T12:43:24.94Z</time></trkpt><trkpt lat="44.2155266" lon="10.5614754"><ele>1335.0</ele><time>2026-04-18T12:43:25.941Z</time></trkpt><trkpt lat="44.2155457" lon="10.5616044"><ele>1335.0</ele><time>2026-04-18T12:43:26.941Z</time></trkpt><trkpt lat="44.2155725" lon="10.5617418"><ele>1334.2</ele><time>2026-04-18T12:43:27.941Z</time></trkpt><trkpt lat="44.2156036" lon="10.561882"><ele>1333.4</ele><time>2026-04-18T12:43:28.94Z</time></trkpt><trkpt lat="44.2156424" lon="10.5620158"><ele>1332.6</ele><time>2026-04-18T12:43:29.94Z</time></trkpt><trkpt lat="44.2156927" lon="10.5621537"><ele>1331.8</ele><time>2026-04-18T12:43:30.94Z</time></trkpt><trkpt lat="44.2157482" lon="10.5623082"><ele>1331.0</ele><time>2026-04-18T12:43:31.94Z</time></trkpt><trkpt lat="44.2157988" lon="10.5624662"><ele>1333.6</ele><time>2026-04-18T12:43:32.94Z</time></trkpt><trkpt lat="44.2158508" lon="10.5626144"><ele>1336.1999999999998</ele><time>2026-04-18T12:43:33.941Z</time></trkpt><trkpt lat="44.2159014" lon="10.5627473"><ele>1338.8000000000002</ele><time>2026-04-18T12:43:34.94Z</time></trkpt><trkpt lat="44.2159537" lon="10.5628613"><ele>1341.4</ele><time>2026-04-18T12:43:35.941Z</time></trkpt><trkpt lat="44.2160305" lon="10.5629737"><ele>1344.0</ele><time>2026-04-18T12:43:36.94Z</time></trkpt><trkpt lat="44.2161147" lon="10.5630881"><ele>1344.0</ele><time>2026-04-18T12:43:37.94Z</time></trkpt><trkpt lat="44.2161978" lon="10.5632131"><ele>1344.0</ele><time>2026-04-18T12:43:38.94Z</time></trkpt><trkpt lat="44.2162699" lon="10.5633284"><ele>1344.0</ele><time>2026-04-18T12:43:39.94Z</time></trkpt><trkpt lat="44.2163389" lon="10.5634501"><ele>1344.0</ele><time>2026-04-18T12:43:40.94Z</time></trkpt><trkpt lat="44.2163765" lon="10.5635613"><ele>1344.0</ele><time>2026-04-18T12:43:41.94Z</time></trkpt><trkpt lat="44.2163888" lon="10.5636792"><ele>1344.6666666666667</ele><time>2026-04-18T12:43:42.941Z</time></trkpt><trkpt lat="44.2164013" lon="10.5638008"><ele>1345.3333333333333</ele><time>2026-04-18T12:43:43.941Z</time></trkpt><trkpt lat="44.2164157" lon="10.5638878"><ele>1346.0</ele><time>2026-04-18T12:43:44.941Z</time></trkpt><trkpt lat="44.216434" lon="10.5639804"><ele>1346.6666666666665</ele><time>2026-04-18T12:43:45.94Z</time></trkpt><trkpt lat="44.2165055" lon="10.5640379"><ele>1347.3333333333333</ele><time>2026-04-18T12:43:46.94Z</time></trkpt><trkpt lat="44.2165671" lon="10.5641248"><ele>1348.0</ele><time>2026-04-18T12:43:47.94Z</time></trkpt><trkpt lat="44.2166155" lon="10.5642266"><ele>1348.0</ele><time>2026-04-18T12:43:48.941Z</time></trkpt><trkpt lat="44.216648" lon="10.5643394"><ele>1348.0</ele><time>2026-04-18T12:43:49.941Z</time></trkpt><trkpt lat="44.2166695" lon="10.5644574"><ele>1348.0</ele><time>2026-04-18T12:43:50.941Z</time></trkpt><trkpt lat="44.216678" lon="10.5645728"><ele>1348.0</ele><time>2026-04-18T12:43:51.941Z</time></trkpt><trkpt lat="44.2166765" lon="10.5646914"><ele>1348.0</ele><time>2026-04-18T12:43:52.94Z</time></trkpt><trkpt lat="44.2166916" lon="10.5648501"><ele>1346.8000000000002</ele><time>2026-04-18T12:43:54.94Z</time></trkpt><trkpt lat="44.2167858" lon="10.5649497"><ele>1345.6</ele><time>2026-04-18T12:43:56.94Z</time></trkpt><trkpt lat="44.2168613" lon="10.5649761"><ele>1344.4</ele><time>2026-04-18T12:43:57.94Z</time></trkpt><trkpt lat="44.2169537" lon="10.5649974"><ele>1343.1999999999998</ele><time>2026-04-18T12:43:58.94Z</time></trkpt><trkpt lat="44.2170541" lon="10.5650232"><ele>1342.0</ele><time>2026-04-18T12:43:59.94Z</time></trkpt><trkpt lat="44.2171499" lon="10.5650432"><ele>1342.0</ele><time>2026-04-18T12:44:00.94Z</time></trkpt><trkpt lat="44.2172469" lon="10.5650719"><ele>1342.0</ele><time>2026-04-18T12:44:01.941Z</time></trkpt><trkpt lat="44.2173448" lon="10.565094"><ele>1342.0</ele><time>2026-04-18T12:44:02.94Z</time></trkpt><trkpt lat="44.2174306" lon="10.5651243"><ele>1342.0</ele><time>2026-04-18T12:44:03.94Z</time></trkpt><trkpt lat="44.2175315" lon="10.5651489"><ele>1342.0</ele><time>2026-04-18T12:44:04.94Z</time></trkpt><trkpt lat="44.2176148" lon="10.5651702"><ele>1341.6</ele><time>2026-04-18T12:44:05.94Z</time></trkpt><trkpt lat="44.2177022" lon="10.5651999"><ele>1341.1999999999998</ele><time>2026-04-18T12:44:06.941Z</time></trkpt><trkpt lat="44.2177956" lon="10.5652483"><ele>1340.8</ele><time>2026-04-18T12:44:07.94Z</time></trkpt><trkpt lat="44.2178814" lon="10.5653062"><ele>1340.4</ele><time>2026-04-18T12:44:08.941Z</time></trkpt><trkpt lat="44.2179757" lon="10.565381"><ele>1340.0</ele><time>2026-04-18T12:44:09.941Z</time></trkpt><trkpt lat="44.2180576" lon="10.5654448"><ele>1338.5</ele><time>2026-04-18T12:44:10.94Z</time></trkpt><trkpt lat="44.2181268" lon="10.5654987"><ele>1337.0</ele><time>2026-04-18T12:44:11.94Z</time></trkpt><trkpt lat="44.2182013" lon="10.56555"><ele>1335.5</ele><time>2026-04-18T12:44:12.94Z</time></trkpt><trkpt lat="44.2182764" lon="10.5655954"><ele>1334.0</ele><time>2026-04-18T12:44:13.941Z</time></trkpt><trkpt lat="44.2183537" lon="10.5656233"><ele>1332.5</ele><time>2026-04-18T12:44:14.94Z</time></trkpt><trkpt lat="44.2184282" lon="10.5656421"><ele>1331.0</ele><time>2026-04-18T12:44:15.94Z</time></trkpt><trkpt lat="44.2185054" lon="10.5656395"><ele>1330.8</ele><time>2026-04-18T12:44:16.94Z</time></trkpt><trkpt lat="44.2185849" lon="10.5656141"><ele>1330.6</ele><time>2026-04-18T12:44:17.94Z</time></trkpt><trkpt lat="44.2186751" lon="10.5655809"><ele>1330.4</ele><time>2026-04-18T12:44:18.94Z</time></trkpt><trkpt lat="44.2187721" lon="10.5655476"><ele>1330.2</ele><time>2026-04-18T12:44:19.94Z</time></trkpt><trkpt lat="44.2188767" lon="10.5655173"><ele>1330.0</ele><time>2026-04-18T12:44:20.941Z</time></trkpt><trkpt lat="44.218982" lon="10.565492"><ele>1329.1666666666665</ele><time>2026-04-18T12:44:21.94Z</time></trkpt><trkpt lat="44.2190785" lon="10.5654597"><ele>1328.3333333333333</ele><time>2026-04-18T12:44:22.941Z</time></trkpt><trkpt lat="44.2191704" lon="10.5654252"><ele>1327.5</ele><time>2026-04-18T12:44:23.941Z</time></trkpt><trkpt lat="44.2192378" lon="10.5654288"><ele>1326.6666666666667</ele><time>2026-04-18T12:44:24.94Z</time></trkpt><trkpt lat="44.2193065" lon="10.5654455"><ele>1325.8333333333335</ele><time>2026-04-18T12:44:25.94Z</time></trkpt><trkpt lat="44.2193735" lon="10.565473"><ele>1325.0</ele><time>2026-04-18T12:44:26.94Z</time></trkpt><trkpt lat="44.2194449" lon="10.5655664"><ele>1325.0</ele><time>2026-04-18T12:44:27.94Z</time></trkpt><trkpt lat="44.2195096" lon="10.5656534"><ele>1325.0</ele><time>2026-04-18T12:44:28.94Z</time></trkpt><trkpt lat="44.2195743" lon="10.5657274"><ele>1325.0</ele><time>2026-04-18T12:44:29.94Z</time></trkpt><trkpt lat="44.2196466" lon="10.5657976"><ele>1325.0</ele><time>2026-04-18T12:44:30.94Z</time></trkpt><trkpt lat="44.2197164" lon="10.565857"><ele>1325.0</ele><time>2026-04-18T12:44:31.941Z</time></trkpt><trkpt lat="44.2197964" lon="10.5659272"><ele>1325.0</ele><time>2026-04-18T12:44:32.941Z</time></trkpt><trkpt lat="44.2198704" lon="10.5659983"><ele>1325.2</ele><time>2026-04-18T12:44:33.94Z</time></trkpt><trkpt lat="44.2199361" lon="10.5660814"><ele>1325.4</ele><time>2026-04-18T12:44:34.94Z</time></trkpt><trkpt lat="44.2200072" lon="10.5661682"><ele>1325.6</ele><time>2026-04-18T12:44:35.94Z</time></trkpt><trkpt lat="44.2200862" lon="10.5662624"><ele>1325.8</ele><time>2026-04-18T12:44:36.94Z</time></trkpt><trkpt lat="44.2201666" lon="10.5663654"><ele>1326.0</ele><time>2026-04-18T12:44:37.94Z</time></trkpt><trkpt lat="44.2202437" lon="10.5664633"><ele>1324.4</ele><time>2026-04-18T12:44:38.941Z</time></trkpt><trkpt lat="44.2203165" lon="10.5665671"><ele>1322.8</ele><time>2026-04-18T12:44:39.94Z</time></trkpt><trkpt lat="44.2203779" lon="10.5666811"><ele>1321.2</ele><time>2026-04-18T12:44:40.941Z</time></trkpt><trkpt lat="44.2204426" lon="10.5667937"><ele>1319.6000000000001</ele><time>2026-04-18T12:44:41.941Z</time></trkpt><trkpt lat="44.2205038" lon="10.5669005"><ele>1318.0</ele><time>2026-04-18T12:44:42.941Z</time></trkpt><trkpt lat="44.2205894" lon="10.5670003"><ele>1317.6000000000001</ele><time>2026-04-18T12:44:43.94Z</time></trkpt><trkpt lat="44.2206715" lon="10.5671037"><ele>1317.2</ele><time>2026-04-18T12:44:44.94Z</time></trkpt><trkpt lat="44.2207554" lon="10.5672073"><ele>1316.8</ele><time>2026-04-18T12:44:45.941Z</time></trkpt><trkpt lat="44.22084" lon="10.5673026"><ele>1316.4</ele><time>2026-04-18T12:44:46.94Z</time></trkpt><trkpt lat="44.2209243" lon="10.5673976"><ele>1316.0</ele><time>2026-04-18T12:44:47.941Z</time></trkpt><trkpt lat="44.2210053" lon="10.567498"><ele>1316.0</ele><time>2026-04-18T12:44:48.941Z</time></trkpt><trkpt lat="44.2210773" lon="10.5675786"><ele>1316.0</ele><time>2026-04-18T12:44:49.94Z</time></trkpt><trkpt lat="44.2211379" lon="10.5676468"><ele>1316.0</ele><time>2026-04-18T12:44:50.941Z</time></trkpt><trkpt lat="44.2211952" lon="10.5677047"><ele>1316.0</ele><time>2026-04-18T12:44:51.941Z</time></trkpt><trkpt lat="44.2212471" lon="10.5677695"><ele>1316.0</ele><time>2026-04-18T12:44:52.941Z</time></trkpt><trkpt lat="44.2213066" lon="10.5678377"><ele>1316.0</ele><time>2026-04-18T12:44:53.941Z</time></trkpt><trkpt lat="44.2213546" lon="10.5679084"><ele>1315.8333333333335</ele><time>2026-04-18T12:44:54.94Z</time></trkpt><trkpt lat="44.2214134" lon="10.5679748"><ele>1315.6666666666667</ele><time>2026-04-18T12:44:55.94Z</time></trkpt><trkpt lat="44.2214788" lon="10.5680376"><ele>1315.5</ele><time>2026-04-18T12:44:56.941Z</time></trkpt><trkpt lat="44.2215361" lon="10.5681009"><ele>1315.3333333333333</ele><time>2026-04-18T12:44:57.94Z</time></trkpt><trkpt lat="44.2215912" lon="10.5681627"><ele>1315.1666666666665</ele><time>2026-04-18T12:44:58.941Z</time></trkpt><trkpt lat="44.2216338" lon="10.5682326"><ele>1315.0</ele><time>2026-04-18T12:44:59.94Z</time></trkpt><trkpt lat="44.2216783" lon="10.5683666"><ele>1315.0</ele><time>2026-04-18T12:45:01.94Z</time></trkpt><trkpt lat="44.2216615" lon="10.5685235"><ele>1315.0</ele><time>2026-04-18T12:45:03.94Z</time></trkpt><trkpt lat="44.2215969" lon="10.568638"><ele>1315.0</ele><time>2026-04-18T12:45:05.94Z</time></trkpt><trkpt lat="44.2215388" lon="10.5687088"><ele>1315.0</ele><time>2026-04-18T12:45:06.94Z</time></trkpt><trkpt lat="44.2214922" lon="10.5687829"><ele>1315.0</ele><time>2026-04-18T12:45:07.94Z</time></trkpt><trkpt lat="44.2214427" lon="10.5688706"><ele>1315.0</ele><time>2026-04-18T12:45:08.941Z</time></trkpt><trkpt lat="44.2214011" lon="10.5689457"><ele>1312.3333333333333</ele><time>2026-04-18T12:45:09.941Z</time></trkpt><trkpt lat="44.2213472" lon="10.5690215"><ele>1309.6666666666665</ele><time>2026-04-18T12:45:10.941Z</time></trkpt><trkpt lat="44.2212984" lon="10.5690868"><ele>1307.0</ele><time>2026-04-18T12:45:11.94Z</time></trkpt><trkpt lat="44.221253" lon="10.5691487"><ele>1304.3333333333333</ele><time>2026-04-18T12:45:12.94Z</time></trkpt><trkpt lat="44.2211899" lon="10.5692702"><ele>1301.6666666666667</ele><time>2026-04-18T12:45:14.94Z</time></trkpt><trkpt lat="44.2211068" lon="10.5693952"><ele>1299.0</ele><time>2026-04-18T12:45:16.94Z</time></trkpt><trkpt lat="44.2210735" lon="10.5695626"><ele>1297.6666666666667</ele><time>2026-04-18T12:45:18.94Z</time></trkpt><trkpt lat="44.2210878" lon="10.5696592"><ele>1296.3333333333333</ele><time>2026-04-18T12:45:19.94Z</time></trkpt><trkpt lat="44.221125" lon="10.569763"><ele>1295.0</ele><time>2026-04-18T12:45:20.941Z</time></trkpt><trkpt lat="44.2211735" lon="10.5698742"><ele>1293.6666666666665</ele><time>2026-04-18T12:45:21.94Z</time></trkpt><trkpt lat="44.2212292" lon="10.5699855"><ele>1292.3333333333333</ele><time>2026-04-18T12:45:22.94Z</time></trkpt><trkpt lat="44.2212577" lon="10.5700794"><ele>1291.0</ele><time>2026-04-18T12:45:23.94Z</time></trkpt><trkpt lat="44.2213083" lon="10.5701582"><ele>1291.0</ele><time>2026-04-18T12:45:24.941Z</time></trkpt><trkpt lat="44.2213527" lon="10.5702267"><ele>1291.0</ele><time>2026-04-18T12:45:25.94Z</time></trkpt><trkpt lat="44.2214005" lon="10.570298"><ele>1291.0</ele><time>2026-04-18T12:45:26.941Z</time></trkpt><trkpt lat="44.2214239" lon="10.5703872"><ele>1291.0</ele><time>2026-04-18T12:45:27.941Z</time></trkpt><trkpt lat="44.221438" lon="10.5704916"><ele>1291.0</ele><time>2026-04-18T12:45:28.941Z</time></trkpt><trkpt lat="44.2214427" lon="10.5706203"><ele>1291.0</ele><time>2026-04-18T12:45:29.94Z</time></trkpt><trkpt lat="44.2214408" lon="10.5707558"><ele>1290.1999999999998</ele><time>2026-04-18T12:45:30.941Z</time></trkpt><trkpt lat="44.2214412" lon="10.5708957"><ele>1289.3999999999999</ele><time>2026-04-18T12:45:31.94Z</time></trkpt><trkpt lat="44.221441" lon="10.5710365"><ele>1288.6</ele><time>2026-04-18T12:45:32.941Z</time></trkpt><trkpt lat="44.2214324" lon="10.5711629"><ele>1287.8</ele><time>2026-04-18T12:45:33.941Z</time></trkpt><trkpt lat="44.2214158" lon="10.5712857"><ele>1287.0</ele><time>2026-04-18T12:45:34.94Z</time></trkpt><trkpt lat="44.2214064" lon="10.5714521"><ele>1286.6666666666667</ele><time>2026-04-18T12:45:36.941Z</time></trkpt><trkpt lat="44.2214488" lon="10.5715742"><ele>1286.3333333333333</ele><time>2026-04-18T12:45:38.94Z</time></trkpt><trkpt lat="44.2215205" lon="10.5715843"><ele>1286.0</ele><time>2026-04-18T12:45:39.941Z</time></trkpt><trkpt lat="44.2215941" lon="10.5716074"><ele>1285.6666666666665</ele><time>2026-04-18T12:45:40.94Z</time></trkpt><trkpt lat="44.221683" lon="10.5716061"><ele>1285.3333333333333</ele><time>2026-04-18T12:45:41.94Z</time></trkpt><trkpt lat="44.2217675" lon="10.571589"><ele>1285.0</ele><time>2026-04-18T12:45:42.94Z</time></trkpt><trkpt lat="44.2218531" lon="10.5715591"><ele>1285.0000000000002</ele><time>2026-04-18T12:45:43.94Z</time></trkpt><trkpt lat="44.2219124" lon="10.5715181"><ele>1285.0</ele><time>2026-04-18T12:45:44.94Z</time></trkpt><trkpt lat="44.2219723" lon="10.5714754"><ele>1285.0</ele><time>2026-04-18T12:45:45.941Z</time></trkpt><trkpt lat="44.222028" lon="10.5714337"><ele>1285.0</ele><time>2026-04-18T12:45:46.941Z</time></trkpt><trkpt lat="44.2220916" lon="10.5714016"><ele>1285.0</ele><time>2026-04-18T12:45:47.941Z</time></trkpt><trkpt lat="44.2221943" lon="10.5713974"><ele>1285.0000000000002</ele><time>2026-04-18T12:45:49.94Z</time></trkpt><trkpt lat="44.2222274" lon="10.571476"><ele>1285.0</ele><time>2026-04-18T12:45:51.94Z</time></trkpt><trkpt lat="44.2222009" lon="10.5715799"><ele>1285.0</ele><time>2026-04-18T12:45:53.94Z</time></trkpt><trkpt lat="44.2221206" lon="10.5716999"><ele>1285.0</ele><time>2026-04-18T12:45:55.94Z</time></trkpt><trkpt lat="44.2220421" lon="10.5718481"><ele>1285.0</ele><time>2026-04-18T12:45:57.94Z</time></trkpt><trkpt lat="44.2220089" lon="10.5719305"><ele>1285.0</ele><time>2026-04-18T12:45:58.94Z</time></trkpt><trkpt lat="44.2219909" lon="10.5720178"><ele>1285.0</ele><time>2026-04-18T12:45:59.94Z</time></trkpt><trkpt lat="44.2219979" lon="10.5721105"><ele>1285.0</ele><time>2026-04-18T12:46:00.94Z</time></trkpt><trkpt lat="44.2220127" lon="10.5722018"><ele>1284.2</ele><time>2026-04-18T12:46:01.94Z</time></trkpt><trkpt lat="44.2220582" lon="10.5723119"><ele>1283.4</ele><time>2026-04-18T12:46:02.94Z</time></trkpt><trkpt lat="44.2221045" lon="10.5724114"><ele>1282.6</ele><time>2026-04-18T12:46:03.941Z</time></trkpt><trkpt lat="44.2221587" lon="10.5725096"><ele>1281.8</ele><time>2026-04-18T12:46:04.94Z</time></trkpt><trkpt lat="44.2222371" lon="10.5726425"><ele>1281.0</ele><time>2026-04-18T12:46:05.941Z</time></trkpt><trkpt lat="44.2223055" lon="10.5727396"><ele>1282.6666666666667</ele><time>2026-04-18T12:46:06.94Z</time></trkpt><trkpt lat="44.2223649" lon="10.5728236"><ele>1284.3333333333333</ele><time>2026-04-18T12:46:07.941Z</time></trkpt><trkpt lat="44.2224143" lon="10.5728898"><ele>1286.0</ele><time>2026-04-18T12:46:08.941Z</time></trkpt><trkpt lat="44.2224242" lon="10.5730538"><ele>1287.6666666666665</ele><time>2026-04-18T12:46:10.941Z</time></trkpt><trkpt lat="44.2224201" lon="10.5731575"><ele>1289.3333333333333</ele><time>2026-04-18T12:46:11.941Z</time></trkpt><trkpt lat="44.2224239" lon="10.5732899"><ele>1291.0</ele><time>2026-04-18T12:46:12.941Z</time></trkpt><trkpt lat="44.2224373" lon="10.5734108"><ele>1291.0</ele><time>2026-04-18T12:46:13.941Z</time></trkpt><trkpt lat="44.2224515" lon="10.5735224"><ele>1291.0</ele><time>2026-04-18T12:46:14.94Z</time></trkpt><trkpt lat="44.2224572" lon="10.5736172"><ele>1291.0</ele><time>2026-04-18T12:46:15.94Z</time></trkpt><trkpt lat="44.2224726" lon="10.5737128"><ele>1291.0</ele><time>2026-04-18T12:46:16.94Z</time></trkpt><trkpt lat="44.2225053" lon="10.5738696"><ele>1291.0</ele><time>2026-04-18T12:46:18.94Z</time></trkpt><trkpt lat="44.2225468" lon="10.5740024"><ele>1291.0</ele><time>2026-04-18T12:46:20.941Z</time></trkpt><trkpt lat="44.2225713" lon="10.5741727"><ele>1290.4</ele><time>2026-04-18T12:46:22.941Z</time></trkpt><trkpt lat="44.2226314" lon="10.5743723"><ele>1289.8</ele><time>2026-04-18T12:46:24.94Z</time></trkpt><trkpt lat="44.2226395" lon="10.5744721"><ele>1289.2</ele><time>2026-04-18T12:46:25.941Z</time></trkpt><trkpt lat="44.2226675" lon="10.5745792"><ele>1288.6000000000001</ele><time>2026-04-18T12:46:26.94Z</time></trkpt><trkpt lat="44.2226676" lon="10.5746874"><ele>1288.0</ele><time>2026-04-18T12:46:27.94Z</time></trkpt><trkpt lat="44.2226929" lon="10.5748153"><ele>1287.4</ele><time>2026-04-18T12:46:29.941Z</time></trkpt><trkpt lat="44.2227155" lon="10.5749542"><ele>1286.8000000000002</ele><time>2026-04-18T12:46:31.94Z</time></trkpt><trkpt lat="44.2227479" lon="10.5751119"><ele>1286.2</ele><time>2026-04-18T12:46:33.94Z</time></trkpt><trkpt lat="44.2227782" lon="10.57521"><ele>1285.6</ele><time>2026-04-18T12:46:34.94Z</time></trkpt><trkpt lat="44.2228116" lon="10.5753288"><ele>1285.0</ele><time>2026-04-18T12:46:35.94Z</time></trkpt><trkpt lat="44.2228314" lon="10.5754664"><ele>1283.2</ele><time>2026-04-18T12:46:36.941Z</time></trkpt><trkpt lat="44.2228696" lon="10.5755955"><ele>1281.4</ele><time>2026-04-18T12:46:37.94Z</time></trkpt><trkpt lat="44.2228883" lon="10.575764"><ele>1279.6</ele><time>2026-04-18T12:46:38.94Z</time></trkpt><trkpt lat="44.2229104" lon="10.5758784"><ele>1277.8</ele><time>2026-04-18T12:46:39.94Z</time></trkpt><trkpt lat="44.2229081" lon="10.5759867"><ele>1276.0</ele><time>2026-04-18T12:46:40.941Z</time></trkpt><trkpt lat="44.2228971" lon="10.5760806"><ele>1276.0</ele><time>2026-04-18T12:46:41.94Z</time></trkpt><trkpt lat="44.2228549" lon="10.5761476"><ele>1276.0</ele><time>2026-04-18T12:46:42.94Z</time></trkpt><trkpt lat="44.2227992" lon="10.5762151"><ele>1276.0</ele><time>2026-04-18T12:46:43.941Z</time></trkpt><trkpt lat="44.2227307" lon="10.5763081"><ele>1276.0</ele><time>2026-04-18T12:46:44.941Z</time></trkpt><trkpt lat="44.222652" lon="10.5764224"><ele>1276.0</ele><time>2026-04-18T12:46:45.94Z</time></trkpt><trkpt lat="44.2225737" lon="10.5765308"><ele>1276.3999999999999</ele><time>2026-04-18T12:46:46.94Z</time></trkpt><trkpt lat="44.2225177" lon="10.5766402"><ele>1276.8</ele><time>2026-04-18T12:46:47.94Z</time></trkpt><trkpt lat="44.2224751" lon="10.5767479"><ele>1277.1999999999998</ele><time>2026-04-18T12:46:48.94Z</time></trkpt><trkpt lat="44.2224311" lon="10.576854"><ele>1277.6</ele><time>2026-04-18T12:46:49.94Z</time></trkpt><trkpt lat="44.2223965" lon="10.5769775"><ele>1278.0</ele><time>2026-04-18T12:46:50.94Z</time></trkpt><trkpt lat="44.22237" lon="10.5771045"><ele>1279.2</ele><time>2026-04-18T12:46:51.94Z</time></trkpt><trkpt lat="44.2223466" lon="10.5772357"><ele>1280.4</ele><time>2026-04-18T12:46:52.94Z</time></trkpt><trkpt lat="44.2223337" lon="10.5773888"><ele>1281.6000000000001</ele><time>2026-04-18T12:46:53.94Z</time></trkpt><trkpt lat="44.2223249" lon="10.5775379"><ele>1282.8</ele><time>2026-04-18T12:46:54.94Z</time></trkpt><trkpt lat="44.2223142" lon="10.5776585"><ele>1284.0</ele><time>2026-04-18T12:46:55.941Z</time></trkpt><trkpt lat="44.2222942" lon="10.5777712"><ele>1283.6</ele><time>2026-04-18T12:46:56.94Z</time></trkpt><trkpt lat="44.2222885" lon="10.5778923"><ele>1283.2</ele><time>2026-04-18T12:46:57.94Z</time></trkpt><trkpt lat="44.2222893" lon="10.5780255"><ele>1282.8</ele><time>2026-04-18T12:46:58.941Z</time></trkpt><trkpt lat="44.2222967" lon="10.5781558"><ele>1282.3999999999999</ele><time>2026-04-18T12:46:59.941Z</time></trkpt><trkpt lat="44.2223469" lon="10.5782945"><ele>1282.0</ele><time>2026-04-18T12:47:00.941Z</time></trkpt><trkpt lat="44.2223932" lon="10.5784144"><ele>1282.0</ele><time>2026-04-18T12:47:01.94Z</time></trkpt><trkpt lat="44.2224568" lon="10.5785205"><ele>1282.0</ele><time>2026-04-18T12:47:02.94Z</time></trkpt><trkpt lat="44.2225346" lon="10.5786082"><ele>1282.0</ele><time>2026-04-18T12:47:03.94Z</time></trkpt><trkpt lat="44.2226311" lon="10.5786873"><ele>1282.0</ele><time>2026-04-18T12:47:04.941Z</time></trkpt><trkpt lat="44.2227219" lon="10.5787643"><ele>1282.0</ele><time>2026-04-18T12:47:05.94Z</time></trkpt><trkpt lat="44.2228054" lon="10.5788383"><ele>1282.3333333333333</ele><time>2026-04-18T12:47:06.94Z</time></trkpt><trkpt lat="44.2228736" lon="10.5789029"><ele>1282.6666666666665</ele><time>2026-04-18T12:47:07.94Z</time></trkpt><trkpt lat="44.2229468" lon="10.5789464"><ele>1283.0</ele><time>2026-04-18T12:47:08.941Z</time></trkpt><trkpt lat="44.2230223" lon="10.5789823"><ele>1283.3333333333333</ele><time>2026-04-18T12:47:09.941Z</time></trkpt><trkpt lat="44.2230799" lon="10.5790244"><ele>1283.6666666666667</ele><time>2026-04-18T12:47:10.941Z</time></trkpt><trkpt lat="44.2231477" lon="10.5790921"><ele>1284.0</ele><time>2026-04-18T12:47:11.94Z</time></trkpt><trkpt lat="44.2232306" lon="10.5791521"><ele>1284.0</ele><time>2026-04-18T12:47:12.941Z</time></trkpt><trkpt lat="44.2233199" lon="10.5792217"><ele>1284.0</ele><time>2026-04-18T12:47:13.941Z</time></trkpt><trkpt lat="44.2233917" lon="10.5793023"><ele>1284.0</ele><time>2026-04-18T12:47:14.94Z</time></trkpt><trkpt lat="44.2234604" lon="10.5793843"><ele>1284.0</ele><time>2026-04-18T12:47:15.941Z</time></trkpt><trkpt lat="44.223538" lon="10.579394"><ele>1284.0</ele><time>2026-04-18T12:47:16.94Z</time></trkpt><trkpt lat="44.2236073" lon="10.5794252"><ele>1284.0</ele><time>2026-04-18T12:47:17.941Z</time></trkpt><trkpt lat="44.2236743" lon="10.5794358"><ele>1284.0</ele><time>2026-04-18T12:47:18.941Z</time></trkpt><trkpt lat="44.2237757" lon="10.5794626"><ele>1284.0</ele><time>2026-04-18T12:47:20.941Z</time></trkpt><trkpt lat="44.2238696" lon="10.579531"><ele>1284.0</ele><time>2026-04-18T12:47:22.94Z</time></trkpt><trkpt lat="44.2239073" lon="10.5796027"><ele>1284.0</ele><time>2026-04-18T12:47:23.94Z</time></trkpt><trkpt lat="44.2239273" lon="10.5797025"><ele>1284.0</ele><time>2026-04-18T12:47:24.94Z</time></trkpt><trkpt lat="44.2239227" lon="10.5798012"><ele>1284.0</ele><time>2026-04-18T12:47:25.94Z</time></trkpt><trkpt lat="44.2239242" lon="10.5799049"><ele>1281.3333333333333</ele><time>2026-04-18T12:47:26.94Z</time></trkpt><trkpt lat="44.2239131" lon="10.5800017"><ele>1278.6666666666667</ele><time>2026-04-18T12:47:27.94Z</time></trkpt><trkpt lat="44.2239153" lon="10.5800928"><ele>1276.0</ele><time>2026-04-18T12:47:28.941Z</time></trkpt><trkpt lat="44.2239127" lon="10.5802052"><ele>1273.3333333333335</ele><time>2026-04-18T12:47:29.94Z</time></trkpt><trkpt lat="44.2239206" lon="10.5803011"><ele>1270.6666666666667</ele><time>2026-04-18T12:47:30.94Z</time></trkpt><trkpt lat="44.2239626" lon="10.5804213"><ele>1268.0</ele><time>2026-04-18T12:47:31.94Z</time></trkpt><trkpt lat="44.2239796" lon="10.5805389"><ele>1270.0</ele><time>2026-04-18T12:47:32.941Z</time></trkpt><trkpt lat="44.2239829" lon="10.5806364"><ele>1272.0</ele><time>2026-04-18T12:47:33.94Z</time></trkpt><trkpt lat="44.2239799" lon="10.5807274"><ele>1274.0</ele><time>2026-04-18T12:47:34.94Z</time></trkpt><trkpt lat="44.2239962" lon="10.5808837"><ele>1276.0</ele><time>2026-04-18T12:47:36.941Z</time></trkpt><trkpt lat="44.2240061" lon="10.5809735"><ele>1278.0</ele><time>2026-04-18T12:47:37.94Z</time></trkpt><trkpt lat="44.2240067" lon="10.5810851"><ele>1280.0</ele><time>2026-04-18T12:47:38.94Z</time></trkpt><trkpt lat="44.2240142" lon="10.5812149"><ele>1280.2857142857142</ele><time>2026-04-18T12:47:39.94Z</time></trkpt><trkpt lat="44.2240136" lon="10.5813455"><ele>1280.5714285714287</ele><time>2026-04-18T12:47:40.941Z</time></trkpt><trkpt lat="44.2240042" lon="10.5814522"><ele>1280.857142857143</ele><time>2026-04-18T12:47:41.941Z</time></trkpt><trkpt lat="44.2239863" lon="10.5815399"><ele>1281.142857142857</ele><time>2026-04-18T12:47:42.94Z</time></trkpt><trkpt lat="44.2239543" lon="10.5816186"><ele>1281.4285714285713</ele><time>2026-04-18T12:47:43.94Z</time></trkpt><trkpt lat="44.2239141" lon="10.5816974"><ele>1281.7142857142858</ele><time>2026-04-18T12:47:44.94Z</time></trkpt><trkpt lat="44.223886" lon="10.5817868"><ele>1282.0</ele><time>2026-04-18T12:47:45.941Z</time></trkpt><trkpt lat="44.2238746" lon="10.5818795"><ele>1281.8</ele><time>2026-04-18T12:47:46.94Z</time></trkpt><trkpt lat="44.2239167" lon="10.5820702"><ele>1281.6</ele><time>2026-04-18T12:47:48.94Z</time></trkpt><trkpt lat="44.2239572" lon="10.5821531"><ele>1281.3999999999999</ele><time>2026-04-18T12:47:49.94Z</time></trkpt><trkpt lat="44.224017" lon="10.5822524"><ele>1281.1999999999998</ele><time>2026-04-18T12:47:50.94Z</time></trkpt><trkpt lat="44.2240801" lon="10.5823474"><ele>1281.0</ele><time>2026-04-18T12:47:51.94Z</time></trkpt><trkpt lat="44.2241478" lon="10.5824347"><ele>1281.0</ele><time>2026-04-18T12:47:52.941Z</time></trkpt><trkpt lat="44.2242069" lon="10.5825224"><ele>1281.0</ele><time>2026-04-18T12:47:53.94Z</time></trkpt><trkpt lat="44.2242614" lon="10.5826287"><ele>1281.0</ele><time>2026-04-18T12:47:54.941Z</time></trkpt><trkpt lat="44.2243004" lon="10.5827419"><ele>1281.0</ele><time>2026-04-18T12:47:55.94Z</time></trkpt><trkpt lat="44.2243469" lon="10.5828476"><ele>1281.0</ele><time>2026-04-18T12:47:56.94Z</time></trkpt><trkpt lat="44.2243856" lon="10.5829249"><ele>1281.0</ele><time>2026-04-18T12:47:57.941Z</time></trkpt><trkpt lat="44.2244289" lon="10.5830393"><ele>1278.8</ele><time>2026-04-18T12:47:59.94Z</time></trkpt><trkpt lat="44.2244603" lon="10.5831532"><ele>1276.6</ele><time>2026-04-18T12:48:01.94Z</time></trkpt><trkpt lat="44.2244419" lon="10.5833015"><ele>1274.4</ele><time>2026-04-18T12:48:03.941Z</time></trkpt><trkpt lat="44.2244606" lon="10.5834909"><ele>1272.2</ele><time>2026-04-18T12:48:05.94Z</time></trkpt><trkpt lat="44.2244674" lon="10.5836034"><ele>1270.0</ele><time>2026-04-18T12:48:06.94Z</time></trkpt><trkpt lat="44.2244795" lon="10.5837202"><ele>1268.3333333333333</ele><time>2026-04-18T12:48:07.94Z</time></trkpt><trkpt lat="44.2244874" lon="10.5838228"><ele>1266.6666666666665</ele><time>2026-04-18T12:48:08.941Z</time></trkpt><trkpt lat="44.2244732" lon="10.583931"><ele>1265.0</ele><time>2026-04-18T12:48:09.94Z</time></trkpt><trkpt lat="44.2244677" lon="10.5840205"><ele>1263.3333333333333</ele><time>2026-04-18T12:48:10.94Z</time></trkpt><trkpt lat="44.2245162" lon="10.5841948"><ele>1261.6666666666667</ele><time>2026-04-18T12:48:12.941Z</time></trkpt><trkpt lat="44.2245613" lon="10.5842793"><ele>1260.0</ele><time>2026-04-18T12:48:13.941Z</time></trkpt><trkpt lat="44.2246126" lon="10.584368"><ele>1260.0</ele><time>2026-04-18T12:48:14.941Z</time></trkpt><trkpt lat="44.2246707" lon="10.5844632"><ele>1260.0</ele><time>2026-04-18T12:48:15.941Z</time></trkpt><trkpt lat="44.224733" lon="10.5845666"><ele>1260.0</ele><time>2026-04-18T12:48:16.941Z</time></trkpt><trkpt lat="44.2247941" lon="10.5846491"><ele>1260.0</ele><time>2026-04-18T12:48:17.941Z</time></trkpt><trkpt lat="44.224838" lon="10.5847259"><ele>1260.0</ele><time>2026-04-18T12:48:18.941Z</time></trkpt><trkpt lat="44.2248858" lon="10.5848005"><ele>1260.0</ele><time>2026-04-18T12:48:19.94Z</time></trkpt><trkpt lat="44.2250064" lon="10.5848715"><ele>1261.1666666666667</ele><time>2026-04-18T12:48:21.94Z</time></trkpt><trkpt lat="44.2250866" lon="10.5849916"><ele>1262.3333333333333</ele><time>2026-04-18T12:48:23.941Z</time></trkpt><trkpt lat="44.2250996" lon="10.5850843"><ele>1263.5</ele><time>2026-04-18T12:48:24.94Z</time></trkpt><trkpt lat="44.2251048" lon="10.5851872"><ele>1264.6666666666665</ele><time>2026-04-18T12:48:25.94Z</time></trkpt><trkpt lat="44.2251087" lon="10.5852825"><ele>1265.8333333333333</ele><time>2026-04-18T12:48:26.94Z</time></trkpt><trkpt lat="44.2250906" lon="10.5853812"><ele>1267.0</ele><time>2026-04-18T12:48:27.94Z</time></trkpt><trkpt lat="44.2250023" lon="10.5854555"><ele>1267.0</ele><time>2026-04-18T12:48:28.941Z</time></trkpt><trkpt lat="44.2249582" lon="10.5855479"><ele>1267.0</ele><time>2026-04-18T12:48:29.94Z</time></trkpt><trkpt lat="44.2249037" lon="10.5856535"><ele>1267.0</ele><time>2026-04-18T12:48:30.94Z</time></trkpt><trkpt lat="44.224878" lon="10.5857527"><ele>1267.0</ele><time>2026-04-18T12:48:31.941Z</time></trkpt><trkpt lat="44.2248479" lon="10.5858453"><ele>1267.0</ele><time>2026-04-18T12:48:32.94Z</time></trkpt><trkpt lat="44.2248316" lon="10.5859314"><ele>1267.0</ele><time>2026-04-18T12:48:33.94Z</time></trkpt><trkpt lat="44.2248211" lon="10.5860731"><ele>1266.3333333333333</ele><time>2026-04-18T12:48:35.941Z</time></trkpt><trkpt lat="44.2248766" lon="10.5862182"><ele>1265.6666666666665</ele><time>2026-04-18T12:48:37.941Z</time></trkpt><trkpt lat="44.2249177" lon="10.5862853"><ele>1265.0</ele><time>2026-04-18T12:48:38.94Z</time></trkpt><trkpt lat="44.2249871" lon="10.5863463"><ele>1264.3333333333333</ele><time>2026-04-18T12:48:39.94Z</time></trkpt><trkpt lat="44.2250418" lon="10.5864071"><ele>1263.6666666666667</ele><time>2026-04-18T12:48:40.94Z</time></trkpt><trkpt lat="44.2250908" lon="10.5864738"><ele>1263.0</ele><time>2026-04-18T12:48:41.941Z</time></trkpt><trkpt lat="44.2251167" lon="10.5865645"><ele>1263.0</ele><time>2026-04-18T12:48:42.94Z</time></trkpt><trkpt lat="44.2251495" lon="10.5866449"><ele>1263.0</ele><time>2026-04-18T12:48:43.94Z</time></trkpt><trkpt lat="44.2251497" lon="10.5867824"><ele>1263.0</ele><time>2026-04-18T12:48:45.94Z</time></trkpt><trkpt lat="44.2250791" lon="10.5869211"><ele>1263.0</ele><time>2026-04-18T12:48:47.941Z</time></trkpt><trkpt lat="44.2250321" lon="10.5870366"><ele>1263.0</ele><time>2026-04-18T12:48:48.94Z</time></trkpt><trkpt lat="44.2249571" lon="10.5871378"><ele>1263.1666666666667</ele><time>2026-04-18T12:48:49.94Z</time></trkpt><trkpt lat="44.2249038" lon="10.5872434"><ele>1263.3333333333333</ele><time>2026-04-18T12:48:50.94Z</time></trkpt><trkpt lat="44.2248446" lon="10.5873205"><ele>1263.5</ele><time>2026-04-18T12:48:51.941Z</time></trkpt><trkpt lat="44.22478" lon="10.5874023"><ele>1263.6666666666665</ele><time>2026-04-18T12:48:52.94Z</time></trkpt><trkpt lat="44.224765" lon="10.5875048"><ele>1263.8333333333333</ele><time>2026-04-18T12:48:53.94Z</time></trkpt><trkpt lat="44.2247559" lon="10.5876213"><ele>1264.0</ele><time>2026-04-18T12:48:54.941Z</time></trkpt><trkpt lat="44.2247485" lon="10.5877466"><ele>1256.6000000000001</ele><time>2026-04-18T12:48:55.941Z</time></trkpt><trkpt lat="44.2247217" lon="10.5878847"><ele>1249.2</ele><time>2026-04-18T12:48:56.94Z</time></trkpt><trkpt lat="44.2247072" lon="10.588052"><ele>1241.8000000000002</ele><time>2026-04-18T12:48:57.94Z</time></trkpt><trkpt lat="44.2247062" lon="10.5881876"><ele>1234.4</ele><time>2026-04-18T12:48:58.941Z</time></trkpt><trkpt lat="44.2247002" lon="10.5883662"><ele>1227.0</ele><time>2026-04-18T12:48:59.94Z</time></trkpt><trkpt lat="44.224692" lon="10.5885371"><ele>1227.2</ele><time>2026-04-18T12:49:00.941Z</time></trkpt><trkpt lat="44.224683" lon="10.5887032"><ele>1227.4</ele><time>2026-04-18T12:49:01.94Z</time></trkpt><trkpt lat="44.2246857" lon="10.5888597"><ele>1227.6</ele><time>2026-04-18T12:49:02.94Z</time></trkpt><trkpt lat="44.2246789" lon="10.5890004"><ele>1227.8</ele><time>2026-04-18T12:49:03.94Z</time></trkpt><trkpt lat="44.2246792" lon="10.5891368"><ele>1228.0</ele><time>2026-04-18T12:49:04.941Z</time></trkpt><trkpt lat="44.2246805" lon="10.5892882"><ele>1228.0</ele><time>2026-04-18T12:49:05.941Z</time></trkpt><trkpt lat="44.2247487" lon="10.5894361"><ele>1228.0</ele><time>2026-04-18T12:49:06.94Z</time></trkpt><trkpt lat="44.2247695" lon="10.5895752"><ele>1228.0</ele><time>2026-04-18T12:49:07.941Z</time></trkpt><trkpt lat="44.224798" lon="10.5897013"><ele>1228.0</ele><time>2026-04-18T12:49:08.94Z</time></trkpt><trkpt lat="44.2248231" lon="10.5898047"><ele>1228.0</ele><time>2026-04-18T12:49:09.94Z</time></trkpt><trkpt lat="44.2248625" lon="10.5899078"><ele>1231.6666666666665</ele><time>2026-04-18T12:49:10.94Z</time></trkpt><trkpt lat="44.2249109" lon="10.5899879"><ele>1235.3333333333333</ele><time>2026-04-18T12:49:11.94Z</time></trkpt><trkpt lat="44.2249328" lon="10.5900759"><ele>1239.0</ele><time>2026-04-18T12:49:12.94Z</time></trkpt><trkpt lat="44.2249816" lon="10.5901807"><ele>1242.6666666666667</ele><time>2026-04-18T12:49:13.94Z</time></trkpt><trkpt lat="44.2250375" lon="10.590295"><ele>1246.3333333333335</ele><time>2026-04-18T12:49:14.941Z</time></trkpt><trkpt lat="44.2251071" lon="10.5903887"><ele>1250.0</ele><time>2026-04-18T12:49:15.94Z</time></trkpt><trkpt lat="44.2251719" lon="10.5904921"><ele>1250.0</ele><time>2026-04-18T12:49:16.94Z</time></trkpt><trkpt lat="44.225229" lon="10.590594"><ele>1250.0</ele><time>2026-04-18T12:49:17.94Z</time></trkpt><trkpt lat="44.2253266" lon="10.5907157"><ele>1250.0</ele><time>2026-04-18T12:49:18.94Z</time></trkpt><trkpt lat="44.225412" lon="10.5908271"><ele>1250.0</ele><time>2026-04-18T12:49:19.94Z</time></trkpt><trkpt lat="44.2254919" lon="10.5909422"><ele>1250.0</ele><time>2026-04-18T12:49:20.941Z</time></trkpt><trkpt lat="44.2255756" lon="10.5910489"><ele>1250.0</ele><time>2026-04-18T12:49:21.94Z</time></trkpt><trkpt lat="44.2256577" lon="10.5911607"><ele>1250.0</ele><time>2026-04-18T12:49:22.941Z</time></trkpt><trkpt lat="44.2257423" lon="10.5912649"><ele>1250.0</ele><time>2026-04-18T12:49:23.94Z</time></trkpt><trkpt lat="44.2258277" lon="10.5913679"><ele>1251.0</ele><time>2026-04-18T12:49:24.94Z</time></trkpt><trkpt lat="44.225915" lon="10.5914496"><ele>1252.0</ele><time>2026-04-18T12:49:25.94Z</time></trkpt><trkpt lat="44.2260011" lon="10.5915383"><ele>1253.0</ele><time>2026-04-18T12:49:26.94Z</time></trkpt><trkpt lat="44.226075" lon="10.5916232"><ele>1254.0</ele><time>2026-04-18T12:49:27.94Z</time></trkpt><trkpt lat="44.2261574" lon="10.5917127"><ele>1255.0</ele><time>2026-04-18T12:49:28.94Z</time></trkpt><trkpt lat="44.2262314" lon="10.5918062"><ele>1255.0</ele><time>2026-04-18T12:49:29.94Z</time></trkpt><trkpt lat="44.226315" lon="10.5919027"><ele>1255.0</ele><time>2026-04-18T12:49:30.94Z</time></trkpt><trkpt lat="44.2263898" lon="10.5919979"><ele>1255.0</ele><time>2026-04-18T12:49:31.941Z</time></trkpt><trkpt lat="44.2264758" lon="10.5921037"><ele>1255.0</ele><time>2026-04-18T12:49:32.94Z</time></trkpt><trkpt lat="44.2265433" lon="10.5921987"><ele>1255.0</ele><time>2026-04-18T12:49:33.941Z</time></trkpt><trkpt lat="44.2266091" lon="10.5922775"><ele>1254.1666666666665</ele><time>2026-04-18T12:49:34.94Z</time></trkpt><trkpt lat="44.2266709" lon="10.5923558"><ele>1253.3333333333333</ele><time>2026-04-18T12:49:35.941Z</time></trkpt><trkpt lat="44.2267305" lon="10.592413"><ele>1252.5</ele><time>2026-04-18T12:49:36.94Z</time></trkpt><trkpt lat="44.2267891" lon="10.5924503"><ele>1251.6666666666667</ele><time>2026-04-18T12:49:37.941Z</time></trkpt><trkpt lat="44.2268664" lon="10.5924644"><ele>1250.8333333333335</ele><time>2026-04-18T12:49:38.94Z</time></trkpt><trkpt lat="44.2269323" lon="10.5924942"><ele>1250.0</ele><time>2026-04-18T12:49:39.94Z</time></trkpt><trkpt lat="44.2270097" lon="10.5926172"><ele>1250.0</ele><time>2026-04-18T12:49:41.941Z</time></trkpt><trkpt lat="44.2270168" lon="10.5927152"><ele>1250.0</ele><time>2026-04-18T12:49:42.94Z</time></trkpt><trkpt lat="44.2270255" lon="10.592827"><ele>1250.0</ele><time>2026-04-18T12:49:43.94Z</time></trkpt><trkpt lat="44.2270499" lon="10.5929216"><ele>1250.0</ele><time>2026-04-18T12:49:44.94Z</time></trkpt><trkpt lat="44.2270873" lon="10.5929987"><ele>1250.0</ele><time>2026-04-18T12:49:45.94Z</time></trkpt><trkpt lat="44.2271751" lon="10.5931054"><ele>1250.0</ele><time>2026-04-18T12:49:47.941Z</time></trkpt><trkpt lat="44.2272553" lon="10.5931284"><ele>1249.1666666666667</ele><time>2026-04-18T12:49:48.94Z</time></trkpt><trkpt lat="44.2273274" lon="10.5931661"><ele>1248.3333333333335</ele><time>2026-04-18T12:49:49.94Z</time></trkpt><trkpt lat="44.2273938" lon="10.5931521"><ele>1247.5</ele><time>2026-04-18T12:49:50.94Z</time></trkpt><trkpt lat="44.2274607" lon="10.5931473"><ele>1246.6666666666667</ele><time>2026-04-18T12:49:51.941Z</time></trkpt><trkpt lat="44.2275471" lon="10.5931248"><ele>1245.8333333333333</ele><time>2026-04-18T12:49:52.94Z</time></trkpt><trkpt lat="44.2276265" lon="10.5931015"><ele>1245.0</ele><time>2026-04-18T12:49:53.94Z</time></trkpt><trkpt lat="44.2277108" lon="10.5930663"><ele>1245.0</ele><time>2026-04-18T12:49:54.94Z</time></trkpt><trkpt lat="44.2277887" lon="10.5930256"><ele>1245.0</ele><time>2026-04-18T12:49:55.94Z</time></trkpt><trkpt lat="44.2278485" lon="10.5929675"><ele>1245.0</ele><time>2026-04-18T12:49:56.941Z</time></trkpt><trkpt lat="44.2279018" lon="10.5929024"><ele>1245.0</ele><time>2026-04-18T12:49:57.94Z</time></trkpt><trkpt lat="44.2279622" lon="10.592836"><ele>1245.0</ele><time>2026-04-18T12:49:58.941Z</time></trkpt><trkpt lat="44.2280171" lon="10.5927775"><ele>1245.0</ele><time>2026-04-18T12:49:59.941Z</time></trkpt><trkpt lat="44.2280845" lon="10.592711"><ele>1246.8333333333333</ele><time>2026-04-18T12:50:00.94Z</time></trkpt><trkpt lat="44.2281521" lon="10.592647"><ele>1248.6666666666667</ele><time>2026-04-18T12:50:01.94Z</time></trkpt><trkpt lat="44.2282328" lon="10.5925818"><ele>1250.5</ele><time>2026-04-18T12:50:02.941Z</time></trkpt><trkpt lat="44.228306" lon="10.5925243"><ele>1252.3333333333335</ele><time>2026-04-18T12:50:03.94Z</time></trkpt><trkpt lat="44.2283764" lon="10.5924489"><ele>1254.1666666666667</ele><time>2026-04-18T12:50:04.94Z</time></trkpt><trkpt lat="44.2284485" lon="10.5923857"><ele>1256.0</ele><time>2026-04-18T12:50:05.94Z</time></trkpt><trkpt lat="44.2285244" lon="10.5923153"><ele>1256.0</ele><time>2026-04-18T12:50:06.941Z</time></trkpt><trkpt lat="44.2285939" lon="10.5922538"><ele>1256.0</ele><time>2026-04-18T12:50:07.94Z</time></trkpt><trkpt lat="44.2286893" lon="10.5921889"><ele>1256.0</ele><time>2026-04-18T12:50:09.94Z</time></trkpt><trkpt lat="44.2287552" lon="10.5922397"><ele>1256.0</ele><time>2026-04-18T12:50:11.94Z</time></trkpt><trkpt lat="44.2287878" lon="10.5923784"><ele>1256.0</ele><time>2026-04-18T12:50:13.94Z</time></trkpt><trkpt lat="44.2287896" lon="10.5924752"><ele>1256.0</ele><time>2026-04-18T12:50:14.94Z</time></trkpt><trkpt lat="44.2287893" lon="10.5925677"><ele>1255.9999999999998</ele><time>2026-04-18T12:50:15.941Z</time></trkpt><trkpt lat="44.2287961" lon="10.5926656"><ele>1256.0</ele><time>2026-04-18T12:50:16.941Z</time></trkpt><trkpt lat="44.2288066" lon="10.5927556"><ele>1256.0</ele><time>2026-04-18T12:50:17.941Z</time></trkpt><trkpt lat="44.2288164" lon="10.592853"><ele>1256.0</ele><time>2026-04-18T12:50:18.941Z</time></trkpt><trkpt lat="44.2288415" lon="10.5929474"><ele>1256.0</ele><time>2026-04-18T12:50:19.94Z</time></trkpt><trkpt lat="44.2288655" lon="10.5930398"><ele>1255.9999999999998</ele><time>2026-04-18T12:50:20.941Z</time></trkpt><trkpt lat="44.2288887" lon="10.5931322"><ele>1256.0</ele><time>2026-04-18T12:50:21.941Z</time></trkpt><trkpt lat="44.2289138" lon="10.5932198"><ele>1256.5714285714284</ele><time>2026-04-18T12:50:22.941Z</time></trkpt><trkpt lat="44.2289404" lon="10.5933115"><ele>1257.142857142857</ele><time>2026-04-18T12:50:23.94Z</time></trkpt><trkpt lat="44.2289771" lon="10.5933932"><ele>1257.7142857142858</ele><time>2026-04-18T12:50:24.94Z</time></trkpt><trkpt lat="44.2290236" lon="10.5934796"><ele>1258.2857142857142</ele><time>2026-04-18T12:50:25.94Z</time></trkpt><trkpt lat="44.229062" lon="10.5935565"><ele>1258.857142857143</ele><time>2026-04-18T12:50:26.94Z</time></trkpt><trkpt lat="44.2291033" lon="10.5936291"><ele>1259.4285714285713</ele><time>2026-04-18T12:50:27.941Z</time></trkpt><trkpt lat="44.2291461" lon="10.5937066"><ele>1260.0</ele><time>2026-04-18T12:50:28.94Z</time></trkpt><trkpt lat="44.2291815" lon="10.5937856"><ele>1260.0</ele><time>2026-04-18T12:50:29.94Z</time></trkpt><trkpt lat="44.2292176" lon="10.5938649"><ele>1260.0</ele><time>2026-04-18T12:50:30.94Z</time></trkpt><trkpt lat="44.2292555" lon="10.5939468"><ele>1260.0</ele><time>2026-04-18T12:50:31.94Z</time></trkpt><trkpt lat="44.2292967" lon="10.5940298"><ele>1260.0</ele><time>2026-04-18T12:50:32.94Z</time></trkpt><trkpt lat="44.2293388" lon="10.5941194"><ele>1260.0</ele><time>2026-04-18T12:50:33.94Z</time></trkpt><trkpt lat="44.2293794" lon="10.5941971"><ele>1260.0</ele><time>2026-04-18T12:50:34.941Z</time></trkpt><trkpt lat="44.2294218" lon="10.5942829"><ele>1260.0</ele><time>2026-04-18T12:50:35.941Z</time></trkpt><trkpt lat="44.2294663" lon="10.5943597"><ele>1260.0</ele><time>2026-04-18T12:50:36.94Z</time></trkpt><trkpt lat="44.2295086" lon="10.5944273"><ele>1260.0</ele><time>2026-04-18T12:50:37.94Z</time></trkpt><trkpt lat="44.2295998" lon="10.5945735"><ele>1260.0</ele><time>2026-04-18T12:50:39.941Z</time></trkpt><trkpt lat="44.2296515" lon="10.5946328"><ele>1260.0</ele><time>2026-04-18T12:50:40.94Z</time></trkpt><trkpt lat="44.2297147" lon="10.5947111"><ele>1260.0</ele><time>2026-04-18T12:50:41.941Z</time></trkpt><trkpt lat="44.2297743" lon="10.5947683"><ele>1260.0</ele><time>2026-04-18T12:50:42.94Z</time></trkpt><trkpt lat="44.2298361" lon="10.5948406"><ele>1262.8333333333333</ele><time>2026-04-18T12:50:43.94Z</time></trkpt><trkpt lat="44.229896" lon="10.5949247"><ele>1265.6666666666667</ele><time>2026-04-18T12:50:44.94Z</time></trkpt><trkpt lat="44.2299605" lon="10.595003"><ele>1268.5</ele><time>2026-04-18T12:50:45.94Z</time></trkpt><trkpt lat="44.2300244" lon="10.5950681"><ele>1271.3333333333335</ele><time>2026-04-18T12:50:46.941Z</time></trkpt><trkpt lat="44.2300941" lon="10.595131"><ele>1274.1666666666667</ele><time>2026-04-18T12:50:47.94Z</time></trkpt><trkpt lat="44.2301715" lon="10.5951828"><ele>1277.0</ele><time>2026-04-18T12:50:48.941Z</time></trkpt><trkpt lat="44.2302514" lon="10.5952532"><ele>1276.9999999999998</ele><time>2026-04-18T12:50:49.94Z</time></trkpt><trkpt lat="44.2303222" lon="10.5952757"><ele>1277.0</ele><time>2026-04-18T12:50:50.941Z</time></trkpt><trkpt lat="44.230393" lon="10.5952976"><ele>1277.0</ele><time>2026-04-18T12:50:51.941Z</time></trkpt><trkpt lat="44.2304531" lon="10.5953468"><ele>1277.0</ele><time>2026-04-18T12:50:52.941Z</time></trkpt><trkpt lat="44.2305259" lon="10.5953796"><ele>1277.0</ele><time>2026-04-18T12:50:53.941Z</time></trkpt><trkpt lat="44.2305941" lon="10.5953884"><ele>1276.9999999999998</ele><time>2026-04-18T12:50:54.94Z</time></trkpt><trkpt lat="44.2306695" lon="10.5953831"><ele>1277.0</ele><time>2026-04-18T12:50:55.94Z</time></trkpt><trkpt lat="44.230762" lon="10.5954"><ele>1276.2</ele><time>2026-04-18T12:50:56.941Z</time></trkpt><trkpt lat="44.2308292" lon="10.5954044"><ele>1275.4</ele><time>2026-04-18T12:50:57.941Z</time></trkpt><trkpt lat="44.2309303" lon="10.5954243"><ele>1274.6</ele><time>2026-04-18T12:50:58.941Z</time></trkpt><trkpt lat="44.2310163" lon="10.5954344"><ele>1273.8</ele><time>2026-04-18T12:50:59.94Z</time></trkpt><trkpt lat="44.2311158" lon="10.5954447"><ele>1273.0</ele><time>2026-04-18T12:51:00.94Z</time></trkpt><trkpt lat="44.2312166" lon="10.5954604"><ele>1273.0</ele><time>2026-04-18T12:51:01.94Z</time></trkpt><trkpt lat="44.2313066" lon="10.595466"><ele>1273.0</ele><time>2026-04-18T12:51:02.94Z</time></trkpt><trkpt lat="44.231382" lon="10.5954772"><ele>1273.0</ele><time>2026-04-18T12:51:03.94Z</time></trkpt><trkpt lat="44.2314702" lon="10.5954947"><ele>1273.0</ele><time>2026-04-18T12:51:04.94Z</time></trkpt><trkpt lat="44.2315515" lon="10.5955075"><ele>1273.0</ele><time>2026-04-18T12:51:05.94Z</time></trkpt><trkpt lat="44.2316415" lon="10.5955345"><ele>1273.0</ele><time>2026-04-18T12:51:06.94Z</time></trkpt><trkpt lat="44.2317199" lon="10.5955726"><ele>1273.5</ele><time>2026-04-18T12:51:07.94Z</time></trkpt><trkpt lat="44.2317897" lon="10.595607"><ele>1274.0</ele><time>2026-04-18T12:51:08.94Z</time></trkpt><trkpt lat="44.2318542" lon="10.5956444"><ele>1274.5</ele><time>2026-04-18T12:51:09.94Z</time></trkpt><trkpt lat="44.2319113" lon="10.5956935"><ele>1275.0</ele><time>2026-04-18T12:51:10.941Z</time></trkpt><trkpt lat="44.2319574" lon="10.5957567"><ele>1275.5</ele><time>2026-04-18T12:51:11.94Z</time></trkpt><trkpt lat="44.2320066" lon="10.5958526"><ele>1276.0</ele><time>2026-04-18T12:51:12.94Z</time></trkpt><trkpt lat="44.2320564" lon="10.5959622"><ele>1276.0</ele><time>2026-04-18T12:51:13.94Z</time></trkpt><trkpt lat="44.2321131" lon="10.5960498"><ele>1276.0</ele><time>2026-04-18T12:51:14.94Z</time></trkpt><trkpt lat="44.2321907" lon="10.5961379"><ele>1276.0</ele><time>2026-04-18T12:51:15.941Z</time></trkpt><trkpt lat="44.2322634" lon="10.5962188"><ele>1276.0</ele><time>2026-04-18T12:51:16.94Z</time></trkpt><trkpt lat="44.2323475" lon="10.5962896"><ele>1276.0</ele><time>2026-04-18T12:51:17.941Z</time></trkpt><trkpt lat="44.232421" lon="10.5963648"><ele>1275.2</ele><time>2026-04-18T12:51:18.941Z</time></trkpt><trkpt lat="44.2325189" lon="10.5964312"><ele>1274.3999999999999</ele><time>2026-04-18T12:51:19.941Z</time></trkpt><trkpt lat="44.2326057" lon="10.5964906"><ele>1273.6</ele><time>2026-04-18T12:51:20.941Z</time></trkpt><trkpt lat="44.2326852" lon="10.5965554"><ele>1272.8</ele><time>2026-04-18T12:51:21.94Z</time></trkpt><trkpt lat="44.2327496" lon="10.5966196"><ele>1272.0</ele><time>2026-04-18T12:51:22.94Z</time></trkpt><trkpt lat="44.2328051" lon="10.5967261"><ele>1272.0</ele><time>2026-04-18T12:51:23.94Z</time></trkpt><trkpt lat="44.2328579" lon="10.5968368"><ele>1272.0</ele><time>2026-04-18T12:51:24.941Z</time></trkpt><trkpt lat="44.232912" lon="10.5969467"><ele>1272.0</ele><time>2026-04-18T12:51:25.94Z</time></trkpt><trkpt lat="44.2329651" lon="10.5970407"><ele>1272.0</ele><time>2026-04-18T12:51:26.94Z</time></trkpt><trkpt lat="44.2330106" lon="10.5971241"><ele>1272.0</ele><time>2026-04-18T12:51:27.94Z</time></trkpt><trkpt lat="44.2330524" lon="10.5971953"><ele>1272.0</ele><time>2026-04-18T12:51:28.941Z</time></trkpt><trkpt lat="44.2331352" lon="10.597283"><ele>1271.1666666666667</ele><time>2026-04-18T12:51:30.94Z</time></trkpt><trkpt lat="44.2332448" lon="10.5972622"><ele>1270.3333333333333</ele><time>2026-04-18T12:51:32.94Z</time></trkpt><trkpt lat="44.233312" lon="10.5972601"><ele>1269.5</ele><time>2026-04-18T12:51:33.94Z</time></trkpt><trkpt lat="44.2333824" lon="10.5972667"><ele>1268.6666666666665</ele><time>2026-04-18T12:51:34.94Z</time></trkpt><trkpt lat="44.2334833" lon="10.5972963"><ele>1267.8333333333333</ele><time>2026-04-18T12:51:35.94Z</time></trkpt><trkpt lat="44.2335724" lon="10.5972979"><ele>1267.0</ele><time>2026-04-18T12:51:36.94Z</time></trkpt><trkpt lat="44.2336461" lon="10.5972995"><ele>1267.0</ele><time>2026-04-18T12:51:37.94Z</time></trkpt><trkpt lat="44.2337189" lon="10.5972995"><ele>1267.0</ele><time>2026-04-18T12:51:38.94Z</time></trkpt><trkpt lat="44.2338127" lon="10.5973603"><ele>1267.0</ele><time>2026-04-18T12:51:40.94Z</time></trkpt><trkpt lat="44.2338802" lon="10.5974839"><ele>1267.0</ele><time>2026-04-18T12:51:42.941Z</time></trkpt><trkpt lat="44.2338645" lon="10.5975698"><ele>1267.0</ele><time>2026-04-18T12:51:43.94Z</time></trkpt><trkpt lat="44.233855" lon="10.5976719"><ele>1267.0</ele><time>2026-04-18T12:51:44.94Z</time></trkpt><trkpt lat="44.2338452" lon="10.5977924"><ele>1268.0</ele><time>2026-04-18T12:51:45.94Z</time></trkpt><trkpt lat="44.2338484" lon="10.5979096"><ele>1269.0</ele><time>2026-04-18T12:51:46.94Z</time></trkpt><trkpt lat="44.2338579" lon="10.5980239"><ele>1270.0</ele><time>2026-04-18T12:51:47.94Z</time></trkpt><trkpt lat="44.2338793" lon="10.5981505"><ele>1271.0</ele><time>2026-04-18T12:51:48.94Z</time></trkpt><trkpt lat="44.2339132" lon="10.5982683"><ele>1272.0</ele><time>2026-04-18T12:51:49.941Z</time></trkpt><trkpt lat="44.2339478" lon="10.5983771"><ele>1273.0</ele><time>2026-04-18T12:51:50.94Z</time></trkpt><trkpt lat="44.2339893" lon="10.5984597"><ele>1273.0</ele><time>2026-04-18T12:51:51.941Z</time></trkpt><trkpt lat="44.2340382" lon="10.5985295"><ele>1273.0</ele><time>2026-04-18T12:51:52.941Z</time></trkpt><trkpt lat="44.2340983" lon="10.5986067"><ele>1273.0</ele><time>2026-04-18T12:51:53.94Z</time></trkpt><trkpt lat="44.2341738" lon="10.5986707"><ele>1273.0</ele><time>2026-04-18T12:51:54.94Z</time></trkpt><trkpt lat="44.2342603" lon="10.5987296"><ele>1273.0</ele><time>2026-04-18T12:51:55.941Z</time></trkpt><trkpt lat="44.2343602" lon="10.5987715"><ele>1273.0</ele><time>2026-04-18T12:51:56.94Z</time></trkpt><trkpt lat="44.2344544" lon="10.5988265"><ele>1272.4</ele><time>2026-04-18T12:51:57.94Z</time></trkpt><trkpt lat="44.2345593" lon="10.5988879"><ele>1271.8</ele><time>2026-04-18T12:51:58.94Z</time></trkpt><trkpt lat="44.2346578" lon="10.598953"><ele>1271.2</ele><time>2026-04-18T12:51:59.94Z</time></trkpt><trkpt lat="44.2347462" lon="10.599019"><ele>1270.6</ele><time>2026-04-18T12:52:00.94Z</time></trkpt><trkpt lat="44.2348192" lon="10.5990997"><ele>1270.0</ele><time>2026-04-18T12:52:01.94Z</time></trkpt><trkpt lat="44.2348795" lon="10.5991886"><ele>1270.0</ele><time>2026-04-18T12:52:02.94Z</time></trkpt><trkpt lat="44.2349167" lon="10.5992764"><ele>1270.0</ele><time>2026-04-18T12:52:03.941Z</time></trkpt><trkpt lat="44.2349322" lon="10.5993693"><ele>1270.0</ele><time>2026-04-18T12:52:04.94Z</time></trkpt><trkpt lat="44.234935" lon="10.5994801"><ele>1270.0</ele><time>2026-04-18T12:52:05.94Z</time></trkpt><trkpt lat="44.2349228" lon="10.599583"><ele>1270.0</ele><time>2026-04-18T12:52:06.94Z</time></trkpt><trkpt lat="44.2348744" lon="10.599665"><ele>1270.0</ele><time>2026-04-18T12:52:07.94Z</time></trkpt><trkpt lat="44.2348217" lon="10.5998108"><ele>1268.4</ele><time>2026-04-18T12:52:09.94Z</time></trkpt><trkpt lat="44.234814" lon="10.5999626"><ele>1266.8</ele><time>2026-04-18T12:52:11.94Z</time></trkpt><trkpt lat="44.2348709" lon="10.6000877"><ele>1265.2</ele><time>2026-04-18T12:52:13.94Z</time></trkpt><trkpt lat="44.234968" lon="10.6001762"><ele>1263.6</ele><time>2026-04-18T12:52:15.94Z</time></trkpt><trkpt lat="44.2350219" lon="10.6002449"><ele>1262.0</ele><time>2026-04-18T12:52:16.941Z</time></trkpt><trkpt lat="44.2350702" lon="10.6003235"><ele>1260.8333333333335</ele><time>2026-04-18T12:52:17.94Z</time></trkpt><trkpt lat="44.235124" lon="10.6003936"><ele>1259.6666666666667</ele><time>2026-04-18T12:52:18.941Z</time></trkpt><trkpt lat="44.2351867" lon="10.6004553"><ele>1258.5</ele><time>2026-04-18T12:52:19.941Z</time></trkpt><trkpt lat="44.2352626" lon="10.6004957"><ele>1257.3333333333333</ele><time>2026-04-18T12:52:20.94Z</time></trkpt><trkpt lat="44.2353343" lon="10.6005326"><ele>1256.1666666666665</ele><time>2026-04-18T12:52:21.94Z</time></trkpt><trkpt lat="44.2354086" lon="10.6005719"><ele>1255.0</ele><time>2026-04-18T12:52:22.94Z</time></trkpt><trkpt lat="44.2354521" lon="10.6006416"><ele>1255.0</ele><time>2026-04-18T12:52:23.94Z</time></trkpt><trkpt lat="44.2354982" lon="10.6007128"><ele>1255.0</ele><time>2026-04-18T12:52:24.94Z</time></trkpt><trkpt lat="44.2355381" lon="10.6007872"><ele>1255.0</ele><time>2026-04-18T12:52:25.94Z</time></trkpt><trkpt lat="44.2355785" lon="10.6008746"><ele>1255.0</ele><time>2026-04-18T12:52:26.94Z</time></trkpt><trkpt lat="44.2356176" lon="10.6009655"><ele>1255.0</ele><time>2026-04-18T12:52:27.941Z</time></trkpt><trkpt lat="44.2356592" lon="10.6010587"><ele>1255.0</ele><time>2026-04-18T12:52:28.94Z</time></trkpt><trkpt lat="44.2357055" lon="10.601136"><ele>1255.0</ele><time>2026-04-18T12:52:29.94Z</time></trkpt><trkpt lat="44.2357537" lon="10.6012009"><ele>1255.6</ele><time>2026-04-18T12:52:30.94Z</time></trkpt><trkpt lat="44.2357926" lon="10.6012779"><ele>1256.2</ele><time>2026-04-18T12:52:31.94Z</time></trkpt><trkpt lat="44.2357622" lon="10.6014276"><ele>1256.8</ele><time>2026-04-18T12:52:33.94Z</time></trkpt><trkpt lat="44.2356951" lon="10.6015895"><ele>1257.4</ele><time>2026-04-18T12:52:35.94Z</time></trkpt><trkpt lat="44.2356549" lon="10.6016801"><ele>1258.0</ele><time>2026-04-18T12:52:36.94Z</time></trkpt><trkpt lat="44.2356127" lon="10.601767"><ele>1258.0</ele><time>2026-04-18T12:52:37.94Z</time></trkpt><trkpt lat="44.2355595" lon="10.6018568"><ele>1258.0</ele><time>2026-04-18T12:52:38.94Z</time></trkpt><trkpt lat="44.2355069" lon="10.6019492"><ele>1258.0</ele><time>2026-04-18T12:52:39.94Z</time></trkpt><trkpt lat="44.2354617" lon="10.6020536"><ele>1258.0</ele><time>2026-04-18T12:52:40.941Z</time></trkpt><trkpt lat="44.2354213" lon="10.6021688"><ele>1258.0</ele><time>2026-04-18T12:52:41.94Z</time></trkpt><trkpt lat="44.2353845" lon="10.6022784"><ele>1258.0</ele><time>2026-04-18T12:52:42.941Z</time></trkpt><trkpt lat="44.2353515" lon="10.602389"><ele>1259.2</ele><time>2026-04-18T12:52:43.94Z</time></trkpt><trkpt lat="44.2353261" lon="10.6025057"><ele>1260.4</ele><time>2026-04-18T12:52:44.941Z</time></trkpt><trkpt lat="44.2353091" lon="10.6026304"><ele>1261.6000000000001</ele><time>2026-04-18T12:52:45.94Z</time></trkpt><trkpt lat="44.2352954" lon="10.6027608"><ele>1262.8</ele><time>2026-04-18T12:52:46.941Z</time></trkpt><trkpt lat="44.2352891" lon="10.6028942"><ele>1264.0</ele><time>2026-04-18T12:52:47.941Z</time></trkpt><trkpt lat="44.2352936" lon="10.6030219"><ele>1264.3333333333333</ele><time>2026-04-18T12:52:48.941Z</time></trkpt><trkpt lat="44.2353044" lon="10.603151"><ele>1264.6666666666665</ele><time>2026-04-18T12:52:49.94Z</time></trkpt><trkpt lat="44.2353094" lon="10.6032726"><ele>1265.0</ele><time>2026-04-18T12:52:50.941Z</time></trkpt><trkpt lat="44.235331" lon="10.6033762"><ele>1265.3333333333333</ele><time>2026-04-18T12:52:51.94Z</time></trkpt><trkpt lat="44.2353533" lon="10.6034753"><ele>1265.6666666666667</ele><time>2026-04-18T12:52:52.94Z</time></trkpt><trkpt lat="44.2353911" lon="10.6035618"><ele>1266.0</ele><time>2026-04-18T12:52:53.94Z</time></trkpt><trkpt lat="44.2354325" lon="10.603635"><ele>1266.8</ele><time>2026-04-18T12:52:54.941Z</time></trkpt><trkpt lat="44.2354723" lon="10.6037688"><ele>1267.6</ele><time>2026-04-18T12:52:56.94Z</time></trkpt><trkpt lat="44.2354572" lon="10.6038899"><ele>1268.4</ele><time>2026-04-18T12:52:58.94Z</time></trkpt><trkpt lat="44.235404" lon="10.6040506"><ele>1269.2</ele><time>2026-04-18T12:53:00.941Z</time></trkpt><trkpt lat="44.2353571" lon="10.6041348"><ele>1270.0</ele><time>2026-04-18T12:53:01.941Z</time></trkpt><trkpt lat="44.2353152" lon="10.604202"><ele>1269.9999999999998</ele><time>2026-04-18T12:53:02.94Z</time></trkpt><trkpt lat="44.2352609" lon="10.6042567"><ele>1270.0</ele><time>2026-04-18T12:53:03.94Z</time></trkpt><trkpt lat="44.2351916" lon="10.6043313"><ele>1270.0</ele><time>2026-04-18T12:53:04.94Z</time></trkpt><trkpt lat="44.2351503" lon="10.6044102"><ele>1270.0</ele><time>2026-04-18T12:53:05.94Z</time></trkpt><trkpt lat="44.2351171" lon="10.6044879"><ele>1270.0</ele><time>2026-04-18T12:53:06.94Z</time></trkpt><trkpt lat="44.2351087" lon="10.6045885"><ele>1269.9999999999998</ele><time>2026-04-18T12:53:07.94Z</time></trkpt><trkpt lat="44.235091" lon="10.6046751"><ele>1270.0</ele><time>2026-04-18T12:53:08.94Z</time></trkpt><trkpt lat="44.2350684" lon="10.604768"><ele>1270.3333333333333</ele><time>2026-04-18T12:53:09.941Z</time></trkpt><trkpt lat="44.2350549" lon="10.6048597"><ele>1270.6666666666665</ele><time>2026-04-18T12:53:10.94Z</time></trkpt><trkpt lat="44.2350456" lon="10.6050101"><ele>1271.0</ele><time>2026-04-18T12:53:12.941Z</time></trkpt><trkpt lat="44.235092" lon="10.6051637"><ele>1271.3333333333333</ele><time>2026-04-18T12:53:14.94Z</time></trkpt><trkpt lat="44.2351298" lon="10.6052419"><ele>1271.6666666666667</ele><time>2026-04-18T12:53:15.94Z</time></trkpt><trkpt lat="44.2351839" lon="10.6053358"><ele>1272.0</ele><time>2026-04-18T12:53:16.941Z</time></trkpt><trkpt lat="44.2352332" lon="10.6054373"><ele>1272.0</ele><time>2026-04-18T12:53:17.94Z</time></trkpt><trkpt lat="44.2353001" lon="10.6055436"><ele>1272.0</ele><time>2026-04-18T12:53:18.94Z</time></trkpt><trkpt lat="44.235374" lon="10.605647"><ele>1272.0</ele><time>2026-04-18T12:53:19.941Z</time></trkpt><trkpt lat="44.2354544" lon="10.6057483"><ele>1272.0</ele><time>2026-04-18T12:53:20.94Z</time></trkpt><trkpt lat="44.2355461" lon="10.6058521"><ele>1272.0</ele><time>2026-04-18T12:53:21.941Z</time></trkpt><trkpt lat="44.2356285" lon="10.6059555"><ele>1274.0</ele><time>2026-04-18T12:53:22.94Z</time></trkpt><trkpt lat="44.235691" lon="10.6060719"><ele>1276.0</ele><time>2026-04-18T12:53:23.94Z</time></trkpt><trkpt lat="44.2357362" lon="10.6062057"><ele>1278.0</ele><time>2026-04-18T12:53:24.941Z</time></trkpt><trkpt lat="44.2357646" lon="10.606361"><ele>1280.0</ele><time>2026-04-18T12:53:25.94Z</time></trkpt><trkpt lat="44.235787" lon="10.6065293"><ele>1282.0</ele><time>2026-04-18T12:53:26.941Z</time></trkpt><trkpt lat="44.2358162" lon="10.6066917"><ele>1282.0</ele><time>2026-04-18T12:53:27.94Z</time></trkpt><trkpt lat="44.2358612" lon="10.6068445"><ele>1282.0</ele><time>2026-04-18T12:53:28.941Z</time></trkpt><trkpt lat="44.2359168" lon="10.6069896"><ele>1282.0</ele><time>2026-04-18T12:53:29.94Z</time></trkpt><trkpt lat="44.2359693" lon="10.6071309"><ele>1282.0</ele><time>2026-04-18T12:53:30.94Z</time></trkpt><trkpt lat="44.2360124" lon="10.6072781"><ele>1282.6</ele><time>2026-04-18T12:53:31.94Z</time></trkpt><trkpt lat="44.2360258" lon="10.6074275"><ele>1283.1999999999998</ele><time>2026-04-18T12:53:32.941Z</time></trkpt><trkpt lat="44.2360197" lon="10.6075676"><ele>1283.8</ele><time>2026-04-18T12:53:33.94Z</time></trkpt><trkpt lat="44.236014" lon="10.6077114"><ele>1284.4</ele><time>2026-04-18T12:53:34.94Z</time></trkpt><trkpt lat="44.2359875" lon="10.6078561"><ele>1285.0</ele><time>2026-04-18T12:53:35.94Z</time></trkpt><trkpt lat="44.2359465" lon="10.607991"><ele>1283.0</ele><time>2026-04-18T12:53:36.94Z</time></trkpt><trkpt lat="44.2358911" lon="10.6081125"><ele>1281.0</ele><time>2026-04-18T12:53:37.94Z</time></trkpt><trkpt lat="44.2358237" lon="10.6082119"><ele>1279.0</ele><time>2026-04-18T12:53:38.94Z</time></trkpt><trkpt lat="44.2357452" lon="10.6083037"><ele>1277.0</ele><time>2026-04-18T12:53:39.94Z</time></trkpt><trkpt lat="44.2356554" lon="10.6083837"><ele>1275.0</ele><time>2026-04-18T12:53:40.941Z</time></trkpt><trkpt lat="44.2355674" lon="10.6084609"><ele>1275.0</ele><time>2026-04-18T12:53:41.941Z</time></trkpt><trkpt lat="44.2355015" lon="10.608544"><ele>1275.0</ele><time>2026-04-18T12:53:42.94Z</time></trkpt><trkpt lat="44.2354459" lon="10.6086579"><ele>1275.0</ele><time>2026-04-18T12:53:43.94Z</time></trkpt><trkpt lat="44.2353936" lon="10.608776"><ele>1275.0</ele><time>2026-04-18T12:53:44.94Z</time></trkpt><trkpt lat="44.2353521" lon="10.6089005"><ele>1275.0</ele><time>2026-04-18T12:53:45.94Z</time></trkpt><trkpt lat="44.2353588" lon="10.609049"><ele>1275.4</ele><time>2026-04-18T12:53:46.941Z</time></trkpt><trkpt lat="44.2353582" lon="10.6091953"><ele>1275.8</ele><time>2026-04-18T12:53:47.941Z</time></trkpt><trkpt lat="44.2353663" lon="10.6093383"><ele>1276.2</ele><time>2026-04-18T12:53:48.94Z</time></trkpt><trkpt lat="44.2353928" lon="10.6094623"><ele>1276.6</ele><time>2026-04-18T12:53:49.94Z</time></trkpt><trkpt lat="44.2354367" lon="10.6095834"><ele>1277.0</ele><time>2026-04-18T12:53:50.94Z</time></trkpt><trkpt lat="44.2354966" lon="10.6097079"><ele>1277.0</ele><time>2026-04-18T12:53:51.94Z</time></trkpt><trkpt lat="44.2355675" lon="10.6098358"><ele>1277.0</ele><time>2026-04-18T12:53:52.94Z</time></trkpt><trkpt lat="44.2356492" lon="10.6099651"><ele>1277.0</ele><time>2026-04-18T12:53:53.94Z</time></trkpt><trkpt lat="44.235725" lon="10.6101054"><ele>1277.0</ele><time>2026-04-18T12:53:54.941Z</time></trkpt><trkpt lat="44.2357876" lon="10.6102681"><ele>1284.0</ele><time>2026-04-18T12:53:55.941Z</time></trkpt><trkpt lat="44.2358369" lon="10.610447"><ele>1291.0</ele><time>2026-04-18T12:53:56.94Z</time></trkpt><trkpt lat="44.2358821" lon="10.610632"><ele>1298.0</ele><time>2026-04-18T12:53:57.941Z</time></trkpt><trkpt lat="44.2359283" lon="10.6108152"><ele>1305.0</ele><time>2026-04-18T12:53:58.941Z</time></trkpt><trkpt lat="44.235972" lon="10.6109751"><ele>1305.0</ele><time>2026-04-18T12:53:59.941Z</time></trkpt><trkpt lat="44.2360058" lon="10.6111235"><ele>1305.0</ele><time>2026-04-18T12:54:00.941Z</time></trkpt><trkpt lat="44.2360251" lon="10.6112602"><ele>1305.0</ele><time>2026-04-18T12:54:01.94Z</time></trkpt><trkpt lat="44.2360372" lon="10.6114015"><ele>1305.0</ele><time>2026-04-18T12:54:02.94Z</time></trkpt><trkpt lat="44.2360404" lon="10.6115428"><ele>1305.0</ele><time>2026-04-18T12:54:03.94Z</time></trkpt><trkpt lat="44.2360418" lon="10.611661"><ele>1303.7142857142856</ele><time>2026-04-18T12:54:04.941Z</time></trkpt><trkpt lat="44.2360418" lon="10.6117572"><ele>1302.4285714285713</ele><time>2026-04-18T12:54:05.941Z</time></trkpt><trkpt lat="44.2360473" lon="10.6118728"><ele>1301.142857142857</ele><time>2026-04-18T12:54:07.941Z</time></trkpt><trkpt lat="44.2360907" lon="10.6119567"><ele>1299.8571428571427</ele><time>2026-04-18T12:54:47.941Z</time></trkpt><trkpt lat="44.2361079" lon="10.6120468"><ele>1298.5714285714284</ele><time>2026-04-18T12:54:48.94Z</time></trkpt><trkpt lat="44.2361475" lon="10.6121283"><ele>1297.2857142857142</ele><time>2026-04-18T12:54:49.94Z</time></trkpt><trkpt lat="44.2361897" lon="10.6122081"><ele>1296.0</ele><time>2026-04-18T12:54:50.941Z</time></trkpt><trkpt lat="44.2362408" lon="10.6122851"><ele>1294.8333333333333</ele><time>2026-04-18T12:54:51.94Z</time></trkpt><trkpt lat="44.2363003" lon="10.6123553"><ele>1293.6666666666667</ele><time>2026-04-18T12:54:52.941Z</time></trkpt><trkpt lat="44.2363644" lon="10.6124128"><ele>1292.5</ele><time>2026-04-18T12:54:53.941Z</time></trkpt><trkpt lat="44.2364328" lon="10.6124423"><ele>1291.3333333333335</ele><time>2026-04-18T12:54:54.94Z</time></trkpt><trkpt lat="44.2365471" lon="10.6124569"><ele>1290.1666666666667</ele><time>2026-04-18T12:54:56.941Z</time></trkpt><trkpt lat="44.2366472" lon="10.6124717"><ele>1289.0</ele><time>2026-04-18T12:54:58.94Z</time></trkpt><trkpt lat="44.2367506" lon="10.6124907"><ele>1289.0</ele><time>2026-04-18T12:55:00.94Z</time></trkpt><trkpt lat="44.236839" lon="10.6125546"><ele>1289.0</ele><time>2026-04-18T12:55:02.94Z</time></trkpt><trkpt lat="44.2369275" lon="10.6126385"><ele>1289.0</ele><time>2026-04-18T12:55:04.94Z</time></trkpt><trkpt lat="44.2370192" lon="10.6127614"><ele>1289.0</ele><time>2026-04-18T12:55:06.94Z</time></trkpt><trkpt lat="44.2370745" lon="10.6128323"><ele>1289.0</ele><time>2026-04-18T12:55:07.941Z</time></trkpt><trkpt lat="44.2371394" lon="10.612899"><ele>1289.0</ele><time>2026-04-18T12:55:08.94Z</time></trkpt><trkpt lat="44.2372132" lon="10.6129575"><ele>1289.0</ele><time>2026-04-18T12:55:09.94Z</time></trkpt><trkpt lat="44.2372904" lon="10.6130077"><ele>1289.0</ele><time>2026-04-18T12:55:10.941Z</time></trkpt><trkpt lat="44.2373788" lon="10.6130501"><ele>1289.0</ele><time>2026-04-18T12:55:11.94Z</time></trkpt><trkpt lat="44.2374736" lon="10.6130907"><ele>1289.0</ele><time>2026-04-18T12:55:12.94Z</time></trkpt><trkpt lat="44.2375746" lon="10.6131243"><ele>1291.6</ele><time>2026-04-18T12:55:13.94Z</time></trkpt><trkpt lat="44.2376784" lon="10.6131519"><ele>1294.2</ele><time>2026-04-18T12:55:14.94Z</time></trkpt><trkpt lat="44.2377913" lon="10.6131829"><ele>1296.8</ele><time>2026-04-18T12:55:15.941Z</time></trkpt><trkpt lat="44.2378914" lon="10.613203"><ele>1299.3999999999999</ele><time>2026-04-18T12:55:16.94Z</time></trkpt><trkpt lat="44.2379907" lon="10.6132329"><ele>1302.0</ele><time>2026-04-18T12:55:17.94Z</time></trkpt><trkpt lat="44.2380869" lon="10.613268"><ele>1303.1999999999998</ele><time>2026-04-18T12:55:18.94Z</time></trkpt><trkpt lat="44.238183" lon="10.6133231"><ele>1304.4</ele><time>2026-04-18T12:55:19.94Z</time></trkpt><trkpt lat="44.2382845" lon="10.6133837"><ele>1305.6</ele><time>2026-04-18T12:55:20.941Z</time></trkpt><trkpt lat="44.2383904" lon="10.6134542"><ele>1306.8000000000002</ele><time>2026-04-18T12:55:21.941Z</time></trkpt><trkpt lat="44.2384935" lon="10.6135324"><ele>1308.0</ele><time>2026-04-18T12:55:22.94Z</time></trkpt><trkpt lat="44.2385895" lon="10.6136061"><ele>1305.8000000000002</ele><time>2026-04-18T12:55:23.941Z</time></trkpt><trkpt lat="44.2386971" lon="10.6136789"><ele>1303.6</ele><time>2026-04-18T12:55:24.94Z</time></trkpt><trkpt lat="44.2387969" lon="10.6137534"><ele>1301.4</ele><time>2026-04-18T12:55:25.94Z</time></trkpt><trkpt lat="44.2388954" lon="10.6138206"><ele>1299.1999999999998</ele><time>2026-04-18T12:55:26.94Z</time></trkpt><trkpt lat="44.2389871" lon="10.6138857"><ele>1297.0</ele><time>2026-04-18T12:55:27.94Z</time></trkpt><trkpt lat="44.2390769" lon="10.6139448"><ele>1296.3999999999999</ele><time>2026-04-18T12:55:28.941Z</time></trkpt><trkpt lat="44.2391666" lon="10.6139968"><ele>1295.8</ele><time>2026-04-18T12:55:29.94Z</time></trkpt><trkpt lat="44.2392655" lon="10.6140371"><ele>1295.2</ele><time>2026-04-18T12:55:30.94Z</time></trkpt><trkpt lat="44.2393489" lon="10.6140708"><ele>1294.6</ele><time>2026-04-18T12:55:31.941Z</time></trkpt><trkpt lat="44.2394421" lon="10.6140938"><ele>1294.0</ele><time>2026-04-18T12:55:32.94Z</time></trkpt><trkpt lat="44.2395431" lon="10.6141018"><ele>1294.0</ele><time>2026-04-18T12:55:33.941Z</time></trkpt><trkpt lat="44.2396445" lon="10.6141129"><ele>1294.0</ele><time>2026-04-18T12:55:34.941Z</time></trkpt><trkpt lat="44.2397435" lon="10.6141193"><ele>1294.0</ele><time>2026-04-18T12:55:35.941Z</time></trkpt><trkpt lat="44.2398434" lon="10.6141146"><ele>1294.0</ele><time>2026-04-18T12:55:36.941Z</time></trkpt><trkpt lat="44.2399452" lon="10.614093"><ele>1294.0</ele><time>2026-04-18T12:55:37.94Z</time></trkpt><trkpt lat="44.2400379" lon="10.614056"><ele>1293.3333333333333</ele><time>2026-04-18T12:55:38.941Z</time></trkpt><trkpt lat="44.2401305" lon="10.6140095"><ele>1292.6666666666665</ele><time>2026-04-18T12:55:39.94Z</time></trkpt><trkpt lat="44.2402074" lon="10.6139493"><ele>1292.0</ele><time>2026-04-18T12:55:40.94Z</time></trkpt><trkpt lat="44.2402803" lon="10.6139133"><ele>1291.3333333333333</ele><time>2026-04-18T12:55:41.94Z</time></trkpt><trkpt lat="44.2403569" lon="10.6138954"><ele>1290.6666666666667</ele><time>2026-04-18T12:55:42.94Z</time></trkpt><trkpt lat="44.2404484" lon="10.6139013"><ele>1290.0</ele><time>2026-04-18T12:55:43.941Z</time></trkpt><trkpt lat="44.2405396" lon="10.6139214"><ele>1288.8</ele><time>2026-04-18T12:55:44.941Z</time></trkpt><trkpt lat="44.2406441" lon="10.6139433"><ele>1287.6</ele><time>2026-04-18T12:55:45.94Z</time></trkpt><trkpt lat="44.2407516" lon="10.6139588"><ele>1286.4</ele><time>2026-04-18T12:55:46.94Z</time></trkpt><trkpt lat="44.2408564" lon="10.6140107"><ele>1285.2</ele><time>2026-04-18T12:55:47.94Z</time></trkpt><trkpt lat="44.2409709" lon="10.6140666"><ele>1284.0</ele><time>2026-04-18T12:55:48.94Z</time></trkpt><trkpt lat="44.2410711" lon="10.6141522"><ele>1284.0</ele><time>2026-04-18T12:55:49.94Z</time></trkpt><trkpt lat="44.2411698" lon="10.6142518"><ele>1284.0</ele><time>2026-04-18T12:55:50.94Z</time></trkpt><trkpt lat="44.2412792" lon="10.6143459"><ele>1284.0</ele><time>2026-04-18T12:55:51.94Z</time></trkpt><trkpt lat="44.2413869" lon="10.6144432"><ele>1284.0</ele><time>2026-04-18T12:55:52.94Z</time></trkpt><trkpt lat="44.2415093" lon="10.6145463"><ele>1283.25</ele><time>2026-04-18T12:55:53.94Z</time></trkpt><trkpt lat="44.241612" lon="10.6146389"><ele>1282.5</ele><time>2026-04-18T12:55:54.94Z</time></trkpt><trkpt lat="44.2417036" lon="10.6147458"><ele>1281.75</ele><time>2026-04-18T12:55:55.94Z</time></trkpt><trkpt lat="44.24179" lon="10.6148553"><ele>1281.0</ele><time>2026-04-18T12:55:56.94Z</time></trkpt><trkpt lat="44.2418484" lon="10.6149836"><ele>1281.0</ele><time>2026-04-18T12:55:57.94Z</time></trkpt><trkpt lat="44.2419179" lon="10.6151008"><ele>1281.0</ele><time>2026-04-18T12:55:58.941Z</time></trkpt><trkpt lat="44.2419876" lon="10.6152124"><ele>1281.0</ele><time>2026-04-18T12:55:59.94Z</time></trkpt><trkpt lat="44.2420569" lon="10.6153097"><ele>1281.0</ele><time>2026-04-18T12:56:00.941Z</time></trkpt><trkpt lat="44.2421486" lon="10.6154111"><ele>1281.0</ele><time>2026-04-18T12:56:01.941Z</time></trkpt><trkpt lat="44.2422464" lon="10.6155091"><ele>1282.75</ele><time>2026-04-18T12:56:02.94Z</time></trkpt><trkpt lat="44.2423503" lon="10.6155832"><ele>1284.5</ele><time>2026-04-18T12:56:03.94Z</time></trkpt><trkpt lat="44.2424602" lon="10.6156655"><ele>1286.25</ele><time>2026-04-18T12:56:04.94Z</time></trkpt><trkpt lat="44.2425788" lon="10.6157314"><ele>1288.0</ele><time>2026-04-18T12:56:05.941Z</time></trkpt><trkpt lat="44.2426993" lon="10.6158089"><ele>1288.0</ele><time>2026-04-18T12:56:06.941Z</time></trkpt><trkpt lat="44.2427948" lon="10.6158936"><ele>1288.0</ele><time>2026-04-18T12:56:07.94Z</time></trkpt><trkpt lat="44.2428832" lon="10.6160072"><ele>1288.0</ele><time>2026-04-18T12:56:08.94Z</time></trkpt><trkpt lat="44.24295" lon="10.6161403"><ele>1288.0</ele><time>2026-04-18T12:56:09.941Z</time></trkpt><trkpt lat="44.243015" lon="10.6162873"><ele>1288.2</ele><time>2026-04-18T12:56:10.94Z</time></trkpt><trkpt lat="44.2430767" lon="10.6164384"><ele>1288.4</ele><time>2026-04-18T12:56:11.94Z</time></trkpt><trkpt lat="44.243141" lon="10.6165752"><ele>1288.6000000000001</ele><time>2026-04-18T12:56:12.94Z</time></trkpt><trkpt lat="44.243206" lon="10.6166864"><ele>1288.8000000000002</ele><time>2026-04-18T12:56:13.94Z</time></trkpt><trkpt lat="44.2432885" lon="10.6167633"><ele>1289.0</ele><time>2026-04-18T12:56:14.941Z</time></trkpt><trkpt lat="44.2433768" lon="10.6168094"><ele>1289.2</ele><time>2026-04-18T12:56:15.941Z</time></trkpt><trkpt lat="44.2434606" lon="10.6168497"><ele>1289.4</ele><time>2026-04-18T12:56:16.94Z</time></trkpt><trkpt lat="44.2435481" lon="10.6168661"><ele>1289.6</ele><time>2026-04-18T12:56:17.94Z</time></trkpt><trkpt lat="44.2436383" lon="10.616856"><ele>1289.8</ele><time>2026-04-18T12:56:18.941Z</time></trkpt><trkpt lat="44.2437341" lon="10.6168505"><ele>1290.0</ele><time>2026-04-18T12:56:19.941Z</time></trkpt><trkpt lat="44.2438306" lon="10.6168403"><ele>1290.0</ele><time>2026-04-18T12:56:20.94Z</time></trkpt><trkpt lat="44.2439256" lon="10.6168244"><ele>1290.0</ele><time>2026-04-18T12:56:21.94Z</time></trkpt><trkpt lat="44.2440106" lon="10.6168269"><ele>1290.0</ele><time>2026-04-18T12:56:22.941Z</time></trkpt><trkpt lat="44.2440953" lon="10.6168383"><ele>1290.0</ele><time>2026-04-18T12:56:23.941Z</time></trkpt><trkpt lat="44.244164" lon="10.6169151"><ele>1290.0</ele><time>2026-04-18T12:56:24.94Z</time></trkpt><trkpt lat="44.2442315" lon="10.6169981"><ele>1290.0</ele><time>2026-04-18T12:56:25.941Z</time></trkpt><trkpt lat="44.244311" lon="10.6170935"><ele>1290.2</ele><time>2026-04-18T12:56:26.94Z</time></trkpt><trkpt lat="44.24439" lon="10.6171963"><ele>1290.4</ele><time>2026-04-18T12:56:27.94Z</time></trkpt><trkpt lat="44.2444627" lon="10.617319"><ele>1290.6</ele><time>2026-04-18T12:56:28.941Z</time></trkpt><trkpt lat="44.244525" lon="10.6174496"><ele>1290.8</ele><time>2026-04-18T12:56:29.941Z</time></trkpt><trkpt lat="44.2445838" lon="10.6175813"><ele>1291.0</ele><time>2026-04-18T12:56:30.94Z</time></trkpt><trkpt lat="44.2446278" lon="10.6176781"><ele>1291.0</ele><time>2026-04-18T12:56:31.941Z</time></trkpt><trkpt lat="44.244668" lon="10.61779"><ele>1291.0</ele><time>2026-04-18T12:56:32.941Z</time></trkpt><trkpt lat="44.2446955" lon="10.6179171"><ele>1291.0</ele><time>2026-04-18T12:56:33.94Z</time></trkpt><trkpt lat="44.2447314" lon="10.6180571"><ele>1291.0</ele><time>2026-04-18T12:56:34.94Z</time></trkpt><trkpt lat="44.2447628" lon="10.6181886"><ele>1291.0</ele><time>2026-04-18T12:56:35.941Z</time></trkpt><trkpt lat="44.2448" lon="10.6183118"><ele>1292.75</ele><time>2026-04-18T12:56:36.941Z</time></trkpt><trkpt lat="44.2448559" lon="10.6184198"><ele>1294.5</ele><time>2026-04-18T12:56:37.94Z</time></trkpt><trkpt lat="44.2449169" lon="10.6185301"><ele>1296.25</ele><time>2026-04-18T12:56:38.94Z</time></trkpt><trkpt lat="44.2450178" lon="10.6186522"><ele>1298.0</ele><time>2026-04-18T12:56:39.94Z</time></trkpt><trkpt lat="44.2451232" lon="10.61877"><ele>1298.0</ele><time>2026-04-18T12:56:40.94Z</time></trkpt><trkpt lat="44.2452318" lon="10.618878"><ele>1298.0</ele><time>2026-04-18T12:56:41.941Z</time></trkpt><trkpt lat="44.2453287" lon="10.6189812"><ele>1298.0</ele><time>2026-04-18T12:56:42.94Z</time></trkpt><trkpt lat="44.2454205" lon="10.6190581"><ele>1298.0</ele><time>2026-04-18T12:56:43.941Z</time></trkpt><trkpt lat="44.2455061" lon="10.6191"><ele>1298.0</ele><time>2026-04-18T12:56:44.94Z</time></trkpt><trkpt lat="44.2455994" lon="10.6191317"><ele>1298.0</ele><time>2026-04-18T12:56:45.94Z</time></trkpt><trkpt lat="44.2457346" lon="10.619123"><ele>1298.0</ele><time>2026-04-18T12:56:46.94Z</time></trkpt><trkpt lat="44.2458584" lon="10.6191105"><ele>1298.0</ele><time>2026-04-18T12:56:47.941Z</time></trkpt><trkpt lat="44.2459791" lon="10.6190917"><ele>1300.0</ele><time>2026-04-18T12:56:48.941Z</time></trkpt><trkpt lat="44.2460907" lon="10.6190499"><ele>1302.0</ele><time>2026-04-18T12:56:49.941Z</time></trkpt><trkpt lat="44.2461992" lon="10.6189949"><ele>1304.0</ele><time>2026-04-18T12:56:50.941Z</time></trkpt><trkpt lat="44.2463055" lon="10.6189094"><ele>1306.0</ele><time>2026-04-18T12:56:51.94Z</time></trkpt><trkpt lat="44.2464104" lon="10.6187734"><ele>1305.3333333333333</ele><time>2026-04-18T12:56:52.94Z</time></trkpt><trkpt lat="44.2465294" lon="10.6186586"><ele>1304.6666666666667</ele><time>2026-04-18T12:56:53.941Z</time></trkpt><trkpt lat="44.2466554" lon="10.6185361"><ele>1304.0</ele><time>2026-04-18T12:56:54.941Z</time></trkpt><trkpt lat="44.2467823" lon="10.6184152"><ele>1304.0</ele><time>2026-04-18T12:56:55.94Z</time></trkpt><trkpt lat="44.2469056" lon="10.6183056"><ele>1304.0</ele><time>2026-04-18T12:56:56.941Z</time></trkpt><trkpt lat="44.247025" lon="10.6182204"><ele>1304.0</ele><time>2026-04-18T12:56:57.941Z</time></trkpt><trkpt lat="44.247131" lon="10.6181406"><ele>1304.0</ele><time>2026-04-18T12:56:58.94Z</time></trkpt><trkpt lat="44.247219" lon="10.6180658"><ele>1304.0</ele><time>2026-04-18T12:56:59.94Z</time></trkpt><trkpt lat="44.2472848" lon="10.6179849"><ele>1304.0</ele><time>2026-04-18T12:57:00.94Z</time></trkpt><trkpt lat="44.2473523" lon="10.6179023"><ele>1304.0</ele><time>2026-04-18T12:57:01.94Z</time></trkpt><trkpt lat="44.2474044" lon="10.617804"><ele>1304.0</ele><time>2026-04-18T12:57:02.94Z</time></trkpt><trkpt lat="44.24746" lon="10.6177162"><ele>1304.0</ele><time>2026-04-18T12:57:03.94Z</time></trkpt><trkpt lat="44.2475149" lon="10.6176287"><ele>1304.0</ele><time>2026-04-18T12:57:04.94Z</time></trkpt><trkpt lat="44.2475752" lon="10.6175515"><ele>1304.0</ele><time>2026-04-18T12:57:05.94Z</time></trkpt><trkpt lat="44.2476445" lon="10.6174663"><ele>1304.0</ele><time>2026-04-18T12:57:06.94Z</time></trkpt><trkpt lat="44.2477221" lon="10.6173787"><ele>1304.0</ele><time>2026-04-18T12:57:07.94Z</time></trkpt><trkpt lat="44.2477962" lon="10.6172904"><ele>1304.0</ele><time>2026-04-18T12:57:08.94Z</time></trkpt><trkpt lat="44.2478793" lon="10.6172219"><ele>1304.0</ele><time>2026-04-18T12:57:09.941Z</time></trkpt><trkpt lat="44.2479763" lon="10.6171874"><ele>1304.0</ele><time>2026-04-18T12:57:10.94Z</time></trkpt><trkpt lat="44.2480854" lon="10.6171696"><ele>1304.0</ele><time>2026-04-18T12:57:11.941Z</time></trkpt><trkpt lat="44.248198" lon="10.6171611"><ele>1304.0</ele><time>2026-04-18T12:57:12.94Z</time></trkpt><trkpt lat="44.2483166" lon="10.6171631"><ele>1304.0</ele><time>2026-04-18T12:57:13.94Z</time></trkpt><trkpt lat="44.2484371" lon="10.6171801"><ele>1297.25</ele><time>2026-04-18T12:57:14.94Z</time></trkpt><trkpt lat="44.2485661" lon="10.6172022"><ele>1290.5</ele><time>2026-04-18T12:57:15.941Z</time></trkpt><trkpt lat="44.2486937" lon="10.6172046"><ele>1283.75</ele><time>2026-04-18T12:57:16.94Z</time></trkpt><trkpt lat="44.248815" lon="10.6172083"><ele>1277.0</ele><time>2026-04-18T12:57:17.941Z</time></trkpt><trkpt lat="44.2489311" lon="10.6172126"><ele>1276.0</ele><time>2026-04-18T12:57:18.94Z</time></trkpt><trkpt lat="44.2490488" lon="10.6172062"><ele>1275.0</ele><time>2026-04-18T12:57:19.941Z</time></trkpt><trkpt lat="44.249167" lon="10.6171804"><ele>1274.0</ele><time>2026-04-18T12:57:20.941Z</time></trkpt><trkpt lat="44.2492761" lon="10.6171428"><ele>1273.0</ele><time>2026-04-18T12:57:21.941Z</time></trkpt><trkpt lat="44.2493913" lon="10.6170884"><ele>1273.0</ele><time>2026-04-18T12:57:22.941Z</time></trkpt><trkpt lat="44.2495044" lon="10.6170261"><ele>1273.0</ele><time>2026-04-18T12:57:23.941Z</time></trkpt><trkpt lat="44.2496203" lon="10.6169693"><ele>1273.0</ele><time>2026-04-18T12:57:24.94Z</time></trkpt><trkpt lat="44.2497317" lon="10.6169109"><ele>1273.0</ele><time>2026-04-18T12:57:25.94Z</time></trkpt><trkpt lat="44.2498478" lon="10.6168483"><ele>1272.75</ele><time>2026-04-18T12:57:26.94Z</time></trkpt><trkpt lat="44.249977" lon="10.6167599"><ele>1272.5</ele><time>2026-04-18T12:57:27.94Z</time></trkpt><trkpt lat="44.2501138" lon="10.6166809"><ele>1272.25</ele><time>2026-04-18T12:57:28.941Z</time></trkpt><trkpt lat="44.2502414" lon="10.616618"><ele>1272.0</ele><time>2026-04-18T12:57:29.94Z</time></trkpt><trkpt lat="44.2503639" lon="10.6165614"><ele>1272.0</ele><time>2026-04-18T12:57:30.94Z</time></trkpt><trkpt lat="44.2504723" lon="10.6165065"><ele>1272.0</ele><time>2026-04-18T12:57:31.94Z</time></trkpt><trkpt lat="44.2505762" lon="10.6164748"><ele>1272.0</ele><time>2026-04-18T12:57:32.94Z</time></trkpt><trkpt lat="44.2506689" lon="10.6164745"><ele>1272.0</ele><time>2026-04-18T12:57:33.94Z</time></trkpt><trkpt lat="44.2507638" lon="10.6164837"><ele>1272.0</ele><time>2026-04-18T12:57:34.94Z</time></trkpt><trkpt lat="44.2508366" lon="10.616602"><ele>1270.4</ele><time>2026-04-18T12:57:35.94Z</time></trkpt><trkpt lat="44.2509288" lon="10.6166716"><ele>1268.8000000000002</ele><time>2026-04-18T12:57:36.941Z</time></trkpt><trkpt lat="44.2510103" lon="10.6167466"><ele>1267.2</ele><time>2026-04-18T12:57:37.94Z</time></trkpt><trkpt lat="44.251127" lon="10.616768"><ele>1265.6000000000001</ele><time>2026-04-18T12:57:38.94Z</time></trkpt><trkpt lat="44.251233" lon="10.6168064"><ele>1264.0</ele><time>2026-04-18T12:57:39.941Z</time></trkpt><trkpt lat="44.2513418" lon="10.6168104"><ele>1264.0</ele><time>2026-04-18T12:57:40.94Z</time></trkpt><trkpt lat="44.2514567" lon="10.6167972"><ele>1264.0</ele><time>2026-04-18T12:57:41.94Z</time></trkpt><trkpt lat="44.2515624" lon="10.6167565"><ele>1264.0</ele><time>2026-04-18T12:57:42.94Z</time></trkpt><trkpt lat="44.2516719" lon="10.6167167"><ele>1264.0</ele><time>2026-04-18T12:57:43.94Z</time></trkpt><trkpt lat="44.2517725" lon="10.6167257"><ele>1264.0</ele><time>2026-04-18T12:57:44.941Z</time></trkpt><trkpt lat="44.2518704" lon="10.6167714"><ele>1263.8</ele><time>2026-04-18T12:57:45.941Z</time></trkpt><trkpt lat="44.2519712" lon="10.6168186"><ele>1263.6000000000001</ele><time>2026-04-18T12:57:46.94Z</time></trkpt><trkpt lat="44.252074" lon="10.616851"><ele>1263.4</ele><time>2026-04-18T12:57:47.94Z</time></trkpt><trkpt lat="44.2521832" lon="10.6168679"><ele>1263.2</ele><time>2026-04-18T12:57:48.94Z</time></trkpt><trkpt lat="44.2523021" lon="10.6168194"><ele>1263.0</ele><time>2026-04-18T12:57:49.94Z</time></trkpt><trkpt lat="44.2524124" lon="10.6167587"><ele>1262.75</ele><time>2026-04-18T12:57:50.94Z</time></trkpt><trkpt lat="44.2525265" lon="10.6167124"><ele>1262.5</ele><time>2026-04-18T12:57:51.941Z</time></trkpt><trkpt lat="44.2526494" lon="10.61668"><ele>1262.25</ele><time>2026-04-18T12:57:52.941Z</time></trkpt><trkpt lat="44.2527562" lon="10.6166335"><ele>1262.0</ele><time>2026-04-18T12:57:53.941Z</time></trkpt><trkpt lat="44.2528632" lon="10.6165782"><ele>1262.0</ele><time>2026-04-18T12:57:54.94Z</time></trkpt><trkpt lat="44.2529655" lon="10.6165335"><ele>1262.0</ele><time>2026-04-18T12:57:55.94Z</time></trkpt><trkpt lat="44.2530573" lon="10.6165026"><ele>1262.0</ele><time>2026-04-18T12:57:56.94Z</time></trkpt><trkpt lat="44.2531496" lon="10.6164848"><ele>1262.0</ele><time>2026-04-18T12:57:57.939Z</time></trkpt><trkpt lat="44.2532482" lon="10.6164818"><ele>1262.0</ele><time>2026-04-18T12:57:58.941Z</time></trkpt><trkpt lat="44.2533442" lon="10.6164976"><ele>1262.8</ele><time>2026-04-18T12:57:59.94Z</time></trkpt><trkpt lat="44.2534461" lon="10.6165271"><ele>1263.6</ele><time>2026-04-18T12:58:00.941Z</time></trkpt><trkpt lat="44.2535524" lon="10.6165691"><ele>1264.3999999999999</ele><time>2026-04-18T12:58:01.941Z</time></trkpt><trkpt lat="44.2536591" lon="10.6166222"><ele>1265.2</ele><time>2026-04-18T12:58:02.94Z</time></trkpt><trkpt lat="44.2537727" lon="10.6166764"><ele>1266.0</ele><time>2026-04-18T12:58:03.941Z</time></trkpt><trkpt lat="44.2538833" lon="10.616723"><ele>1267.2</ele><time>2026-04-18T12:58:04.94Z</time></trkpt><trkpt lat="44.2539808" lon="10.6167593"><ele>1268.3999999999999</ele><time>2026-04-18T12:58:05.941Z</time></trkpt><trkpt lat="44.2540704" lon="10.6167723"><ele>1269.6</ele><time>2026-04-18T12:58:06.94Z</time></trkpt><trkpt lat="44.254163" lon="10.6167546"><ele>1270.8</ele><time>2026-04-18T12:58:07.941Z</time></trkpt><trkpt lat="44.2542534" lon="10.6167109"><ele>1272.0</ele><time>2026-04-18T12:58:08.941Z</time></trkpt><trkpt lat="44.2543683" lon="10.6166663"><ele>1272.0</ele><time>2026-04-18T12:58:09.94Z</time></trkpt><trkpt lat="44.2544939" lon="10.6166169"><ele>1272.0</ele><time>2026-04-18T12:58:10.941Z</time></trkpt><trkpt lat="44.2546479" lon="10.6165535"><ele>1272.0</ele><time>2026-04-18T12:58:11.94Z</time></trkpt><trkpt lat="44.254787" lon="10.6164948"><ele>1272.0</ele><time>2026-04-18T12:58:12.94Z</time></trkpt><trkpt lat="44.2549025" lon="10.616419"><ele>1270.5</ele><time>2026-04-18T12:58:13.94Z</time></trkpt><trkpt lat="44.2550234" lon="10.6163558"><ele>1269.0</ele><time>2026-04-18T12:58:14.94Z</time></trkpt><trkpt lat="44.2551465" lon="10.6163058"><ele>1267.5</ele><time>2026-04-18T12:58:15.94Z</time></trkpt><trkpt lat="44.2552475" lon="10.6162757"><ele>1266.0</ele><time>2026-04-18T12:58:16.94Z</time></trkpt><trkpt lat="44.2553779" lon="10.6162609"><ele>1266.0</ele><time>2026-04-18T12:58:17.941Z</time></trkpt><trkpt lat="44.2554987" lon="10.6162606"><ele>1266.0</ele><time>2026-04-18T12:58:18.941Z</time></trkpt><trkpt lat="44.2556375" lon="10.6162882"><ele>1266.0</ele><time>2026-04-18T12:58:19.94Z</time></trkpt><trkpt lat="44.2557775" lon="10.6163155"><ele>1266.0</ele><time>2026-04-18T12:58:20.94Z</time></trkpt><trkpt lat="44.2559371" lon="10.6163363"><ele>1264.75</ele><time>2026-04-18T12:58:21.94Z</time></trkpt><trkpt lat="44.2560856" lon="10.6163423"><ele>1263.5</ele><time>2026-04-18T12:58:22.94Z</time></trkpt><trkpt lat="44.2562338" lon="10.6163471"><ele>1262.25</ele><time>2026-04-18T12:58:23.941Z</time></trkpt><trkpt lat="44.256347" lon="10.6163599"><ele>1261.0</ele><time>2026-04-18T12:58:24.941Z</time></trkpt><trkpt lat="44.2564499" lon="10.6163927"><ele>1260.0</ele><time>2026-04-18T12:58:25.94Z</time></trkpt><trkpt lat="44.2565368" lon="10.6164544"><ele>1259.0</ele><time>2026-04-18T12:58:26.94Z</time></trkpt><trkpt lat="44.2566022" lon="10.616531"><ele>1258.0</ele><time>2026-04-18T12:58:27.94Z</time></trkpt><trkpt lat="44.2566457" lon="10.6166086"><ele>1257.0</ele><time>2026-04-18T12:58:28.941Z</time></trkpt><trkpt lat="44.2566846" lon="10.6167122"><ele>1256.0</ele><time>2026-04-18T12:58:29.94Z</time></trkpt><trkpt lat="44.2567101" lon="10.6168283"><ele>1255.0</ele><time>2026-04-18T12:58:30.94Z</time></trkpt><trkpt lat="44.2567381" lon="10.6169518"><ele>1255.4</ele><time>2026-04-18T12:58:31.94Z</time></trkpt><trkpt lat="44.2567607" lon="10.6170974"><ele>1255.8</ele><time>2026-04-18T12:58:32.941Z</time></trkpt><trkpt lat="44.2567813" lon="10.617232"><ele>1256.2</ele><time>2026-04-18T12:58:33.941Z</time></trkpt><trkpt lat="44.2568124" lon="10.6173457"><ele>1256.6</ele><time>2026-04-18T12:58:34.941Z</time></trkpt><trkpt lat="44.2568554" lon="10.6174561"><ele>1257.0</ele><time>2026-04-18T12:58:35.94Z</time></trkpt><trkpt lat="44.2569292" lon="10.6175212"><ele>1257.0</ele><time>2026-04-18T12:58:36.94Z</time></trkpt><trkpt lat="44.2569888" lon="10.6175791"><ele>1257.0</ele><time>2026-04-18T12:58:37.941Z</time></trkpt><trkpt lat="44.2570543" lon="10.6176254"><ele>1257.0</ele><time>2026-04-18T12:58:38.94Z</time></trkpt><trkpt lat="44.2571392" lon="10.617633"><ele>1257.0</ele><time>2026-04-18T12:58:39.941Z</time></trkpt><trkpt lat="44.2572178" lon="10.617643"><ele>1257.0</ele><time>2026-04-18T12:58:40.941Z</time></trkpt><trkpt lat="44.2573381" lon="10.6176868"><ele>1257.0</ele><time>2026-04-18T12:58:41.94Z</time></trkpt><trkpt lat="44.2574616" lon="10.6177397"><ele>1256.25</ele><time>2026-04-18T12:58:42.94Z</time></trkpt><trkpt lat="44.2575857" lon="10.6178078"><ele>1255.5</ele><time>2026-04-18T12:58:43.94Z</time></trkpt><trkpt lat="44.2577183" lon="10.6178752"><ele>1254.75</ele><time>2026-04-18T12:58:44.941Z</time></trkpt><trkpt lat="44.2578591" lon="10.6179301"><ele>1254.0</ele><time>2026-04-18T12:58:45.94Z</time></trkpt><trkpt lat="44.2580146" lon="10.6179763"><ele>1254.75</ele><time>2026-04-18T12:58:46.94Z</time></trkpt><trkpt lat="44.2581656" lon="10.6180196"><ele>1255.5</ele><time>2026-04-18T12:58:47.941Z</time></trkpt><trkpt lat="44.2583167" lon="10.6180558"><ele>1256.25</ele><time>2026-04-18T12:58:48.94Z</time></trkpt><trkpt lat="44.2584536" lon="10.6181064"><ele>1257.0</ele><time>2026-04-18T12:58:49.941Z</time></trkpt><trkpt lat="44.258582" lon="10.6181667"><ele>1257.0</ele><time>2026-04-18T12:58:50.941Z</time></trkpt><trkpt lat="44.258701" lon="10.6182415"><ele>1257.0</ele><time>2026-04-18T12:58:51.94Z</time></trkpt><trkpt lat="44.2588041" lon="10.6183384"><ele>1257.0</ele><time>2026-04-18T12:58:52.94Z</time></trkpt><trkpt lat="44.2588871" lon="10.6184593"><ele>1257.0</ele><time>2026-04-18T12:58:53.94Z</time></trkpt><trkpt lat="44.2589604" lon="10.618604"><ele>1259.0</ele><time>2026-04-18T12:58:54.941Z</time></trkpt><trkpt lat="44.2590289" lon="10.618761"><ele>1261.0</ele><time>2026-04-18T12:58:55.94Z</time></trkpt><trkpt lat="44.2591064" lon="10.6189282"><ele>1263.0</ele><time>2026-04-18T12:58:56.941Z</time></trkpt><trkpt lat="44.2591837" lon="10.6190733"><ele>1265.0</ele><time>2026-04-18T12:58:57.94Z</time></trkpt><trkpt lat="44.2592675" lon="10.6192108"><ele>1265.0</ele><time>2026-04-18T12:58:58.94Z</time></trkpt><trkpt lat="44.2593519" lon="10.6193339"><ele>1265.0</ele><time>2026-04-18T12:58:59.94Z</time></trkpt><trkpt lat="44.2594529" lon="10.6194226"><ele>1265.0</ele><time>2026-04-18T12:59:00.94Z</time></trkpt><trkpt lat="44.259576" lon="10.6194985"><ele>1265.0</ele><time>2026-04-18T12:59:01.941Z</time></trkpt><trkpt lat="44.2596892" lon="10.619575"><ele>1264.75</ele><time>2026-04-18T12:59:02.94Z</time></trkpt><trkpt lat="44.2598049" lon="10.6196637"><ele>1264.5</ele><time>2026-04-18T12:59:03.941Z</time></trkpt><trkpt lat="44.2599176" lon="10.6197488"><ele>1264.25</ele><time>2026-04-18T12:59:04.94Z</time></trkpt><trkpt lat="44.2600259" lon="10.6198266"><ele>1264.0</ele><time>2026-04-18T12:59:05.94Z</time></trkpt><trkpt lat="44.2601384" lon="10.6198988"><ele>1264.0</ele><time>2026-04-18T12:59:06.94Z</time></trkpt><trkpt lat="44.2602304" lon="10.6199621"><ele>1264.0</ele><time>2026-04-18T12:59:07.941Z</time></trkpt><trkpt lat="44.2603117" lon="10.6200091"><ele>1264.0</ele><time>2026-04-18T12:59:08.941Z</time></trkpt><trkpt lat="44.260384" lon="10.6200378"><ele>1264.0</ele><time>2026-04-18T12:59:09.941Z</time></trkpt><trkpt lat="44.2604849" lon="10.6200537"><ele>1264.0</ele><time>2026-04-18T12:59:11.94Z</time></trkpt><trkpt lat="44.2605586" lon="10.6200659"><ele>1264.0</ele><time>2026-04-18T12:59:15.94Z</time></trkpt><trkpt lat="44.2606334" lon="10.6200796"><ele>1263.857142857143</ele><time>2026-04-18T12:59:17.941Z</time></trkpt><trkpt lat="44.2606976" lon="10.620098"><ele>1263.7142857142858</ele><time>2026-04-18T12:59:18.94Z</time></trkpt><trkpt lat="44.2607708" lon="10.6201206"><ele>1263.5714285714284</ele><time>2026-04-18T12:59:19.941Z</time></trkpt><trkpt lat="44.2608487" lon="10.6201495"><ele>1263.4285714285716</ele><time>2026-04-18T12:59:20.941Z</time></trkpt><trkpt lat="44.2609192" lon="10.6201985"><ele>1263.2857142857142</ele><time>2026-04-18T12:59:21.94Z</time></trkpt><trkpt lat="44.2609781" lon="10.6202558"><ele>1263.142857142857</ele><time>2026-04-18T12:59:22.941Z</time></trkpt><trkpt lat="44.2610245" lon="10.620322"><ele>1263.0</ele><time>2026-04-18T12:59:23.94Z</time></trkpt><trkpt lat="44.2610715" lon="10.6203911"><ele>1262.8333333333333</ele><time>2026-04-18T12:59:24.94Z</time></trkpt><trkpt lat="44.2611144" lon="10.6204773"><ele>1262.6666666666667</ele><time>2026-04-18T12:59:25.94Z</time></trkpt><trkpt lat="44.261161" lon="10.620564"><ele>1262.5</ele><time>2026-04-18T12:59:26.94Z</time></trkpt><trkpt lat="44.2611846" lon="10.6206499"><ele>1262.3333333333335</ele><time>2026-04-18T12:59:27.94Z</time></trkpt><trkpt lat="44.2612293" lon="10.6207315"><ele>1262.1666666666667</ele><time>2026-04-18T12:59:28.94Z</time></trkpt><trkpt lat="44.2612841" lon="10.6208225"><ele>1262.0</ele><time>2026-04-18T12:59:29.941Z</time></trkpt><trkpt lat="44.2613357" lon="10.6209183"><ele>1262.0</ele><time>2026-04-18T12:59:30.94Z</time></trkpt><trkpt lat="44.261367" lon="10.6210216"><ele>1262.0</ele><time>2026-04-18T12:59:31.94Z</time></trkpt><trkpt lat="44.2613997" lon="10.6211381"><ele>1262.0</ele><time>2026-04-18T12:59:32.94Z</time></trkpt><trkpt lat="44.2614366" lon="10.621251"><ele>1262.0</ele><time>2026-04-18T12:59:33.94Z</time></trkpt><trkpt lat="44.2614798" lon="10.6213641"><ele>1262.0</ele><time>2026-04-18T12:59:34.94Z</time></trkpt><trkpt lat="44.2615079" lon="10.6214754"><ele>1262.0</ele><time>2026-04-18T12:59:35.941Z</time></trkpt><trkpt lat="44.2615335" lon="10.6215875"><ele>1264.3333333333335</ele><time>2026-04-18T12:59:36.94Z</time></trkpt><trkpt lat="44.2615636" lon="10.6216954"><ele>1266.6666666666667</ele><time>2026-04-18T12:59:37.941Z</time></trkpt><trkpt lat="44.2615934" lon="10.6217889"><ele>1269.0</ele><time>2026-04-18T12:59:38.94Z</time></trkpt><trkpt lat="44.2616325" lon="10.6218851"><ele>1271.3333333333333</ele><time>2026-04-18T12:59:39.941Z</time></trkpt><trkpt lat="44.261689" lon="10.6219927"><ele>1273.6666666666665</ele><time>2026-04-18T12:59:40.941Z</time></trkpt><trkpt lat="44.261743" lon="10.6220768"><ele>1276.0</ele><time>2026-04-18T12:59:41.94Z</time></trkpt><trkpt lat="44.2618063" lon="10.6221604"><ele>1276.0</ele><time>2026-04-18T12:59:42.94Z</time></trkpt><trkpt lat="44.2618528" lon="10.6222264"><ele>1276.0</ele><time>2026-04-18T12:59:43.94Z</time></trkpt><trkpt lat="44.2619113" lon="10.6222796"><ele>1276.0</ele><time>2026-04-18T12:59:44.94Z</time></trkpt><trkpt lat="44.262012" lon="10.6223112"><ele>1276.0</ele><time>2026-04-18T12:59:46.94Z</time></trkpt><trkpt lat="44.2621324" lon="10.6223061"><ele>1276.0</ele><time>2026-04-18T12:59:48.941Z</time></trkpt><trkpt lat="44.2622605" lon="10.622318"><ele>1279.0</ele><time>2026-04-18T12:59:50.94Z</time></trkpt><trkpt lat="44.2623667" lon="10.6222724"><ele>1282.0</ele><time>2026-04-18T12:59:52.94Z</time></trkpt><trkpt lat="44.2624286" lon="10.6222435"><ele>1285.0</ele><time>2026-04-18T12:59:54.941Z</time></trkpt><trkpt lat="44.2625088" lon="10.6222052"><ele>1288.0</ele><time>2026-04-18T12:59:56.94Z</time></trkpt><trkpt lat="44.2626261" lon="10.6221938"><ele>1291.0</ele><time>2026-04-18T12:59:58.94Z</time></trkpt><trkpt lat="44.2627098" lon="10.622186"><ele>1291.0</ele><time>2026-04-18T12:59:59.94Z</time></trkpt><trkpt lat="44.262774" lon="10.622195"><ele>1291.0</ele><time>2026-04-18T13:00:00.941Z</time></trkpt><trkpt lat="44.262842" lon="10.6223176"><ele>1291.0</ele><time>2026-04-18T13:00:02.94Z</time></trkpt><trkpt lat="44.2629023" lon="10.622461"><ele>1291.0</ele><time>2026-04-18T13:00:04.94Z</time></trkpt><trkpt lat="44.2629311" lon="10.6225557"><ele>1291.0</ele><time>2026-04-18T13:00:05.941Z</time></trkpt><trkpt lat="44.262957" lon="10.622653"><ele>1291.0</ele><time>2026-04-18T13:00:06.941Z</time></trkpt><trkpt lat="44.2629391" lon="10.6227612"><ele>1292.6666666666665</ele><time>2026-04-18T13:00:07.94Z</time></trkpt><trkpt lat="44.2629588" lon="10.6228565"><ele>1294.3333333333333</ele><time>2026-04-18T13:00:08.94Z</time></trkpt><trkpt lat="44.2629793" lon="10.6229406"><ele>1296.0</ele><time>2026-04-18T13:00:09.94Z</time></trkpt><trkpt lat="44.2630108" lon="10.6230222"><ele>1297.6666666666667</ele><time>2026-04-18T13:00:10.941Z</time></trkpt><trkpt lat="44.2630378" lon="10.6231031"><ele>1299.3333333333335</ele><time>2026-04-18T13:00:11.94Z</time></trkpt><trkpt lat="44.2630809" lon="10.6232447"><ele>1301.0</ele><time>2026-04-18T13:00:13.941Z</time></trkpt><trkpt lat="44.2630922" lon="10.6233583"><ele>1301.0</ele><time>2026-04-18T13:00:15.941Z</time></trkpt><trkpt lat="44.2630858" lon="10.6234737"><ele>1301.0</ele><time>2026-04-18T13:00:18.94Z</time></trkpt><trkpt lat="44.2630391" lon="10.6236094"><ele>1301.0</ele><time>2026-04-18T13:00:20.94Z</time></trkpt><trkpt lat="44.262976" lon="10.6237634"><ele>1301.0</ele><time>2026-04-18T13:00:22.94Z</time></trkpt><trkpt lat="44.2629202" lon="10.6239174"><ele>1301.0</ele><time>2026-04-18T13:00:24.94Z</time></trkpt><trkpt lat="44.2628908" lon="10.6239972"><ele>1302.8333333333335</ele><time>2026-04-18T13:00:25.94Z</time></trkpt><trkpt lat="44.2629073" lon="10.624173"><ele>1304.6666666666667</ele><time>2026-04-18T13:00:27.94Z</time></trkpt><trkpt lat="44.2628881" lon="10.6242667"><ele>1306.5</ele><time>2026-04-18T13:00:28.94Z</time></trkpt><trkpt lat="44.262866" lon="10.6243706"><ele>1308.3333333333333</ele><time>2026-04-18T13:00:29.941Z</time></trkpt><trkpt lat="44.2628679" lon="10.6244742"><ele>1310.1666666666665</ele><time>2026-04-18T13:00:30.94Z</time></trkpt><trkpt lat="44.2628659" lon="10.6245743"><ele>1312.0</ele><time>2026-04-18T13:00:31.94Z</time></trkpt><trkpt lat="44.2628677" lon="10.624704"><ele>1312.1666666666665</ele><time>2026-04-18T13:00:32.941Z</time></trkpt><trkpt lat="44.2628813" lon="10.624827"><ele>1312.3333333333333</ele><time>2026-04-18T13:00:33.94Z</time></trkpt><trkpt lat="44.2629087" lon="10.6249411"><ele>1312.5</ele><time>2026-04-18T13:00:34.941Z</time></trkpt><trkpt lat="44.262934" lon="10.6250382"><ele>1312.6666666666667</ele><time>2026-04-18T13:00:35.94Z</time></trkpt><trkpt lat="44.2629857" lon="10.6251376"><ele>1312.8333333333335</ele><time>2026-04-18T13:00:36.941Z</time></trkpt><trkpt lat="44.2630287" lon="10.6252301"><ele>1313.0</ele><time>2026-04-18T13:00:37.941Z</time></trkpt><trkpt lat="44.2630685" lon="10.625306"><ele>1313.1666666666667</ele><time>2026-04-18T13:00:38.941Z</time></trkpt><trkpt lat="44.2631094" lon="10.6253891"><ele>1313.3333333333335</ele><time>2026-04-18T13:00:39.94Z</time></trkpt><trkpt lat="44.2631382" lon="10.6254693"><ele>1313.5</ele><time>2026-04-18T13:00:40.941Z</time></trkpt><trkpt lat="44.2631665" lon="10.6255549"><ele>1313.6666666666667</ele><time>2026-04-18T13:00:41.941Z</time></trkpt><trkpt lat="44.2631743" lon="10.6256584"><ele>1313.8333333333333</ele><time>2026-04-18T13:00:42.94Z</time></trkpt><trkpt lat="44.2631731" lon="10.6258228"><ele>1314.0</ele><time>2026-04-18T13:00:44.94Z</time></trkpt><trkpt lat="44.2631525" lon="10.6259109"><ele>1314.0</ele><time>2026-04-18T13:00:45.94Z</time></trkpt><trkpt lat="44.2631184" lon="10.6260026"><ele>1314.0</ele><time>2026-04-18T13:00:46.941Z</time></trkpt><trkpt lat="44.2630694" lon="10.6260874"><ele>1314.0</ele><time>2026-04-18T13:00:47.94Z</time></trkpt><trkpt lat="44.2630157" lon="10.6261609"><ele>1314.0</ele><time>2026-04-18T13:00:48.941Z</time></trkpt><trkpt lat="44.2629752" lon="10.6262437"><ele>1314.0</ele><time>2026-04-18T13:00:49.94Z</time></trkpt><trkpt lat="44.262962" lon="10.6263447"><ele>1314.0</ele><time>2026-04-18T13:00:50.941Z</time></trkpt><trkpt lat="44.2629754" lon="10.6264333"><ele>1314.0</ele><time>2026-04-18T13:00:51.94Z</time></trkpt><trkpt lat="44.2630375" lon="10.6265728"><ele>1318.0</ele><time>2026-04-18T13:00:53.94Z</time></trkpt><trkpt lat="44.263144" lon="10.6265848"><ele>1322.0</ele><time>2026-04-18T13:00:55.94Z</time></trkpt><trkpt lat="44.2632062" lon="10.6266"><ele>1326.0</ele><time>2026-04-18T13:00:56.94Z</time></trkpt><trkpt lat="44.2632641" lon="10.6266494"><ele>1330.0</ele><time>2026-04-18T13:00:57.941Z</time></trkpt><trkpt lat="44.2633217" lon="10.6267221"><ele>1334.0</ele><time>2026-04-18T13:00:58.941Z</time></trkpt><trkpt lat="44.2633466" lon="10.6268105"><ele>1338.0</ele><time>2026-04-18T13:00:59.94Z</time></trkpt><trkpt lat="44.2633549" lon="10.6269154"><ele>1339.2</ele><time>2026-04-18T13:01:00.941Z</time></trkpt><trkpt lat="44.2633405" lon="10.6270324"><ele>1340.4</ele><time>2026-04-18T13:01:01.94Z</time></trkpt><trkpt lat="44.2633174" lon="10.6271562"><ele>1341.6000000000001</ele><time>2026-04-18T13:01:02.94Z</time></trkpt><trkpt lat="44.2632875" lon="10.6272776"><ele>1342.8000000000002</ele><time>2026-04-18T13:01:03.941Z</time></trkpt><trkpt lat="44.2632432" lon="10.6273938"><ele>1344.0</ele><time>2026-04-18T13:01:04.94Z</time></trkpt><trkpt lat="44.263215" lon="10.627525"><ele>1344.0</ele><time>2026-04-18T13:01:05.94Z</time></trkpt><trkpt lat="44.2631906" lon="10.6276625"><ele>1344.0</ele><time>2026-04-18T13:01:06.94Z</time></trkpt><trkpt lat="44.2631619" lon="10.6278005"><ele>1344.0</ele><time>2026-04-18T13:01:07.941Z</time></trkpt><trkpt lat="44.2631241" lon="10.6279163"><ele>1344.0</ele><time>2026-04-18T13:01:08.94Z</time></trkpt><trkpt lat="44.2630997" lon="10.6280269"><ele>1344.0</ele><time>2026-04-18T13:01:09.94Z</time></trkpt><trkpt lat="44.2630471" lon="10.6281518"><ele>1343.8333333333333</ele><time>2026-04-18T13:01:11.94Z</time></trkpt><trkpt lat="44.2630019" lon="10.6283065"><ele>1343.6666666666667</ele><time>2026-04-18T13:01:13.94Z</time></trkpt><trkpt lat="44.2629902" lon="10.6284049"><ele>1343.5</ele><time>2026-04-18T13:01:14.941Z</time></trkpt><trkpt lat="44.2629766" lon="10.6285003"><ele>1343.3333333333335</ele><time>2026-04-18T13:01:15.941Z</time></trkpt><trkpt lat="44.2629651" lon="10.6285991"><ele>1343.1666666666667</ele><time>2026-04-18T13:01:17.94Z</time></trkpt><trkpt lat="44.2629318" lon="10.6286927"><ele>1343.0</ele><time>2026-04-18T13:01:19.941Z</time></trkpt><trkpt lat="44.2628833" lon="10.6287994"><ele>1343.0</ele><time>2026-04-18T13:01:21.94Z</time></trkpt><trkpt lat="44.2628319" lon="10.6288849"><ele>1343.0</ele><time>2026-04-18T13:01:24.94Z</time></trkpt><trkpt lat="44.2627494" lon="10.6289966"><ele>1343.0</ele><time>2026-04-18T13:01:34.94Z</time></trkpt><trkpt lat="44.2627056" lon="10.6290657"><ele>1343.0</ele><time>2026-04-18T13:01:35.941Z</time></trkpt><trkpt lat="44.2626326" lon="10.6292053"><ele>1343.0</ele><time>2026-04-18T13:01:37.94Z</time></trkpt><trkpt lat="44.2625825" lon="10.629295"><ele>1343.0</ele><time>2026-04-18T13:01:39.941Z</time></trkpt><trkpt lat="44.2625169" lon="10.6293931"><ele>1343.0</ele><time>2026-04-18T13:01:48.941Z</time></trkpt><trkpt lat="44.2624666" lon="10.6294801"><ele>1343.0</ele><time>2026-04-18T13:01:50.941Z</time></trkpt><trkpt lat="44.2623806" lon="10.6295393"><ele>1343.0</ele><time>2026-04-18T13:01:52.94Z</time></trkpt><trkpt lat="44.2622761" lon="10.629623"><ele>1343.0</ele><time>2026-04-18T13:01:54.94Z</time></trkpt><trkpt lat="44.2621992" lon="10.6296781"><ele>1342.5</ele><time>2026-04-18T13:01:55.941Z</time></trkpt><trkpt lat="44.2621243" lon="10.6297101"><ele>1342.0</ele><time>2026-04-18T13:01:56.94Z</time></trkpt><trkpt lat="44.2620527" lon="10.6297394"><ele>1341.5</ele><time>2026-04-18T13:01:57.94Z</time></trkpt><trkpt lat="44.2619927" lon="10.6297691"><ele>1341.0</ele><time>2026-04-18T13:01:58.94Z</time></trkpt><trkpt lat="44.2618986" lon="10.629838"><ele>1340.5</ele><time>2026-04-18T13:02:00.941Z</time></trkpt><trkpt lat="44.2618479" lon="10.6299341"><ele>1340.0</ele><time>2026-04-18T13:02:02.941Z</time></trkpt><trkpt lat="44.2618673" lon="10.6300901"><ele>1340.0</ele><time>2026-04-18T13:02:04.94Z</time></trkpt><trkpt lat="44.2618946" lon="10.6302117"><ele>1340.0</ele><time>2026-04-18T13:02:05.941Z</time></trkpt><trkpt lat="44.2619308" lon="10.6303033"><ele>1340.0</ele><time>2026-04-18T13:02:06.941Z</time></trkpt><trkpt lat="44.2619821" lon="10.630379"><ele>1340.0</ele><time>2026-04-18T13:02:07.94Z</time></trkpt><trkpt lat="44.2620455" lon="10.630439"><ele>1340.0</ele><time>2026-04-18T13:02:08.941Z</time></trkpt><trkpt lat="44.2621106" lon="10.6305023"><ele>1340.0</ele><time>2026-04-18T13:02:09.941Z</time></trkpt><trkpt lat="44.2621897" lon="10.6305679"><ele>1338.5</ele><time>2026-04-18T13:02:10.94Z</time></trkpt><trkpt lat="44.2622704" lon="10.6306351"><ele>1337.0</ele><time>2026-04-18T13:02:11.94Z</time></trkpt><trkpt lat="44.2623553" lon="10.6306866"><ele>1335.5</ele><time>2026-04-18T13:02:12.94Z</time></trkpt><trkpt lat="44.2624373" lon="10.630739"><ele>1334.0</ele><time>2026-04-18T13:02:13.941Z</time></trkpt><trkpt lat="44.2625063" lon="10.6307879"><ele>1332.5</ele><time>2026-04-18T13:02:14.941Z</time></trkpt><trkpt lat="44.2625658" lon="10.6308452"><ele>1331.0</ele><time>2026-04-18T13:02:15.94Z</time></trkpt><trkpt lat="44.2626216" lon="10.6309071"><ele>1331.0</ele><time>2026-04-18T13:02:16.941Z</time></trkpt><trkpt lat="44.2626916" lon="10.6309705"><ele>1331.0</ele><time>2026-04-18T13:02:17.941Z</time></trkpt><trkpt lat="44.2627521" lon="10.6310553"><ele>1331.0</ele><time>2026-04-18T13:02:18.941Z</time></trkpt><trkpt lat="44.2628165" lon="10.6311409"><ele>1331.0</ele><time>2026-04-18T13:02:19.941Z</time></trkpt><trkpt lat="44.2628852" lon="10.6312349"><ele>1331.0</ele><time>2026-04-18T13:02:20.94Z</time></trkpt><trkpt lat="44.262952" lon="10.6313218"><ele>1331.0</ele><time>2026-04-18T13:02:21.941Z</time></trkpt><trkpt lat="44.2630163" lon="10.6314042"><ele>1329.1666666666667</ele><time>2026-04-18T13:02:22.941Z</time></trkpt><trkpt lat="44.2630822" lon="10.631481"><ele>1327.3333333333335</ele><time>2026-04-18T13:02:23.94Z</time></trkpt><trkpt lat="44.2631446" lon="10.6315486"><ele>1325.5</ele><time>2026-04-18T13:02:24.94Z</time></trkpt><trkpt lat="44.2631971" lon="10.6316114"><ele>1323.6666666666667</ele><time>2026-04-18T13:02:25.94Z</time></trkpt><trkpt lat="44.2632841" lon="10.6317318"><ele>1321.8333333333333</ele><time>2026-04-18T13:02:27.94Z</time></trkpt><trkpt lat="44.2633375" lon="10.6317917"><ele>1320.0</ele><time>2026-04-18T13:02:28.941Z</time></trkpt><trkpt lat="44.2633904" lon="10.6318821"><ele>1318.857142857143</ele><time>2026-04-18T13:02:29.94Z</time></trkpt><trkpt lat="44.2634204" lon="10.6319744"><ele>1317.7142857142858</ele><time>2026-04-18T13:02:30.941Z</time></trkpt><trkpt lat="44.2634505" lon="10.6320722"><ele>1316.5714285714284</ele><time>2026-04-18T13:02:31.941Z</time></trkpt><trkpt lat="44.2634866" lon="10.6321775"><ele>1315.4285714285716</ele><time>2026-04-18T13:02:32.941Z</time></trkpt><trkpt lat="44.2635178" lon="10.6322747"><ele>1314.2857142857142</ele><time>2026-04-18T13:02:33.941Z</time></trkpt><trkpt lat="44.2635509" lon="10.632362"><ele>1313.142857142857</ele><time>2026-04-18T13:02:34.94Z</time></trkpt><trkpt lat="44.263577" lon="10.6324504"><ele>1312.0</ele><time>2026-04-18T13:02:35.94Z</time></trkpt><trkpt lat="44.2635874" lon="10.6325506"><ele>1312.0</ele><time>2026-04-18T13:02:36.94Z</time></trkpt><trkpt lat="44.263589" lon="10.6326633"><ele>1312.0</ele><time>2026-04-18T13:02:37.94Z</time></trkpt><trkpt lat="44.2635974" lon="10.6327849"><ele>1312.0</ele><time>2026-04-18T13:02:38.941Z</time></trkpt><trkpt lat="44.2636004" lon="10.6328867"><ele>1312.0</ele><time>2026-04-18T13:02:39.941Z</time></trkpt><trkpt lat="44.2636357" lon="10.6330353"><ele>1312.0</ele><time>2026-04-18T13:02:41.94Z</time></trkpt><trkpt lat="44.2636525" lon="10.6331562"><ele>1312.0</ele><time>2026-04-18T13:02:43.94Z</time></trkpt><trkpt lat="44.263705" lon="10.6332565"><ele>1313.0</ele><time>2026-04-18T13:02:45.94Z</time></trkpt><trkpt lat="44.2638123" lon="10.633365"><ele>1314.0</ele><time>2026-04-18T13:02:47.941Z</time></trkpt><trkpt lat="44.2638826" lon="10.6334384"><ele>1315.0</ele><time>2026-04-18T13:02:48.94Z</time></trkpt><trkpt lat="44.2639487" lon="10.6335137"><ele>1316.0</ele><time>2026-04-18T13:02:49.94Z</time></trkpt><trkpt lat="44.2639997" lon="10.6335707"><ele>1317.0</ele><time>2026-04-18T13:02:50.94Z</time></trkpt><trkpt lat="44.264085" lon="10.6336752"><ele>1315.1666666666667</ele><time>2026-04-18T13:02:52.94Z</time></trkpt><trkpt lat="44.2641351" lon="10.6337313"><ele>1313.3333333333333</ele><time>2026-04-18T13:02:53.94Z</time></trkpt><trkpt lat="44.2641916" lon="10.6337757"><ele>1311.5</ele><time>2026-04-18T13:02:54.94Z</time></trkpt><trkpt lat="44.264253" lon="10.6338398"><ele>1309.6666666666665</ele><time>2026-04-18T13:02:55.941Z</time></trkpt><trkpt lat="44.2643216" lon="10.6339059"><ele>1307.8333333333333</ele><time>2026-04-18T13:02:56.94Z</time></trkpt><trkpt lat="44.264396" lon="10.633981"><ele>1306.0</ele><time>2026-04-18T13:02:57.94Z</time></trkpt><trkpt lat="44.2644649" lon="10.6340693"><ele>1306.0</ele><time>2026-04-18T13:02:58.941Z</time></trkpt><trkpt lat="44.2645247" lon="10.6341653"><ele>1306.0</ele><time>2026-04-18T13:02:59.941Z</time></trkpt><trkpt lat="44.264576" lon="10.6342695"><ele>1306.0</ele><time>2026-04-18T13:03:00.94Z</time></trkpt><trkpt lat="44.2646366" lon="10.6343707"><ele>1306.0</ele><time>2026-04-18T13:03:01.94Z</time></trkpt><trkpt lat="44.2646858" lon="10.6344726"><ele>1306.0</ele><time>2026-04-18T13:03:02.941Z</time></trkpt><trkpt lat="44.264737" lon="10.6345691"><ele>1308.0</ele><time>2026-04-18T13:03:03.94Z</time></trkpt><trkpt lat="44.2647909" lon="10.6346492"><ele>1310.0</ele><time>2026-04-18T13:03:04.941Z</time></trkpt><trkpt lat="44.2648471" lon="10.6347331"><ele>1312.0</ele><time>2026-04-18T13:03:05.94Z</time></trkpt><trkpt lat="44.264905" lon="10.6347984"><ele>1314.0</ele><time>2026-04-18T13:03:06.94Z</time></trkpt><trkpt lat="44.2649715" lon="10.6348567"><ele>1316.0</ele><time>2026-04-18T13:03:07.941Z</time></trkpt><trkpt lat="44.2650433" lon="10.6349129"><ele>1318.0</ele><time>2026-04-18T13:03:08.94Z</time></trkpt><trkpt lat="44.2651083" lon="10.6349619"><ele>1318.0</ele><time>2026-04-18T13:03:09.94Z</time></trkpt><trkpt lat="44.2651724" lon="10.6350174"><ele>1318.0</ele><time>2026-04-18T13:03:10.94Z</time></trkpt><trkpt lat="44.2652217" lon="10.635097"><ele>1318.0</ele><time>2026-04-18T13:03:11.94Z</time></trkpt><trkpt lat="44.2652651" lon="10.6352202"><ele>1318.0</ele><time>2026-04-18T13:03:12.941Z</time></trkpt><trkpt lat="44.265302" lon="10.6353231"><ele>1318.0</ele><time>2026-04-18T13:03:13.94Z</time></trkpt><trkpt lat="44.265335" lon="10.6354181"><ele>1318.0</ele><time>2026-04-18T13:03:14.94Z</time></trkpt><trkpt lat="44.265334" lon="10.6355297"><ele>1315.5</ele><time>2026-04-18T13:03:15.94Z</time></trkpt><trkpt lat="44.2653347" lon="10.635628"><ele>1313.0</ele><time>2026-04-18T13:03:16.94Z</time></trkpt><trkpt lat="44.2653347" lon="10.6357207"><ele>1310.5</ele><time>2026-04-18T13:03:17.94Z</time></trkpt><trkpt lat="44.26535" lon="10.6358187"><ele>1308.0</ele><time>2026-04-18T13:03:18.94Z</time></trkpt><trkpt lat="44.2653588" lon="10.6359234"><ele>1305.5</ele><time>2026-04-18T13:03:19.941Z</time></trkpt><trkpt lat="44.2653667" lon="10.6360552"><ele>1303.0</ele><time>2026-04-18T13:03:20.941Z</time></trkpt><trkpt lat="44.2653914" lon="10.6361869"><ele>1301.2</ele><time>2026-04-18T13:03:21.94Z</time></trkpt><trkpt lat="44.2654018" lon="10.6363395"><ele>1299.4</ele><time>2026-04-18T13:03:22.94Z</time></trkpt><trkpt lat="44.2654198" lon="10.6364824"><ele>1297.6000000000001</ele><time>2026-04-18T13:03:23.94Z</time></trkpt><trkpt lat="44.2654381" lon="10.6366206"><ele>1295.8000000000002</ele><time>2026-04-18T13:03:24.94Z</time></trkpt><trkpt lat="44.2654635" lon="10.6367557"><ele>1294.0</ele><time>2026-04-18T13:03:25.94Z</time></trkpt><trkpt lat="44.2654829" lon="10.6368877"><ele>1292.8000000000002</ele><time>2026-04-18T13:03:26.94Z</time></trkpt><trkpt lat="44.2654941" lon="10.6370062"><ele>1291.6000000000001</ele><time>2026-04-18T13:03:27.94Z</time></trkpt><trkpt lat="44.2655021" lon="10.6370977"><ele>1290.4</ele><time>2026-04-18T13:03:28.94Z</time></trkpt><trkpt lat="44.2655557" lon="10.6372417"><ele>1289.2</ele><time>2026-04-18T13:03:30.941Z</time></trkpt><trkpt lat="44.265658" lon="10.637359"><ele>1288.0</ele><time>2026-04-18T13:03:32.941Z</time></trkpt><trkpt lat="44.2657401" lon="10.6374263"><ele>1292.0</ele><time>2026-04-18T13:03:33.94Z</time></trkpt><trkpt lat="44.265816" lon="10.6374805"><ele>1296.0</ele><time>2026-04-18T13:03:34.94Z</time></trkpt><trkpt lat="44.2658985" lon="10.6375269"><ele>1300.0</ele><time>2026-04-18T13:03:35.94Z</time></trkpt><trkpt lat="44.2659818" lon="10.6375649"><ele>1304.0</ele><time>2026-04-18T13:03:36.941Z</time></trkpt><trkpt lat="44.2660665" lon="10.6375948"><ele>1308.0</ele><time>2026-04-18T13:03:37.94Z</time></trkpt><trkpt lat="44.2661469" lon="10.6376133"><ele>1312.0</ele><time>2026-04-18T13:03:38.94Z</time></trkpt><trkpt lat="44.2662089" lon="10.6376521"><ele>1311.9999999999998</ele><time>2026-04-18T13:03:39.941Z</time></trkpt><trkpt lat="44.2662777" lon="10.6377001"><ele>1312.0</ele><time>2026-04-18T13:03:40.94Z</time></trkpt><trkpt lat="44.2663234" lon="10.63779"><ele>1312.0</ele><time>2026-04-18T13:03:41.94Z</time></trkpt><trkpt lat="44.2663768" lon="10.6378654"><ele>1312.0</ele><time>2026-04-18T13:03:42.941Z</time></trkpt><trkpt lat="44.2664086" lon="10.6379515"><ele>1312.0</ele><time>2026-04-18T13:03:43.941Z</time></trkpt><trkpt lat="44.2664401" lon="10.638039"><ele>1311.9999999999998</ele><time>2026-04-18T13:03:44.94Z</time></trkpt><trkpt lat="44.2664522" lon="10.6381389"><ele>1312.0</ele><time>2026-04-18T13:03:45.94Z</time></trkpt><trkpt lat="44.266461" lon="10.6382372"><ele>1315.0</ele><time>2026-04-18T13:03:46.941Z</time></trkpt><trkpt lat="44.2664642" lon="10.6383381"><ele>1318.0</ele><time>2026-04-18T13:03:47.941Z</time></trkpt><trkpt lat="44.2664681" lon="10.6384381"><ele>1321.0</ele><time>2026-04-18T13:03:48.941Z</time></trkpt><trkpt lat="44.2664624" lon="10.6385344"><ele>1324.0</ele><time>2026-04-18T13:03:49.94Z</time></trkpt><trkpt lat="44.2664582" lon="10.6386292"><ele>1327.0</ele><time>2026-04-18T13:03:50.941Z</time></trkpt><trkpt lat="44.266473" lon="10.6387579"><ele>1330.0</ele><time>2026-04-18T13:03:52.941Z</time></trkpt><trkpt lat="44.2665329" lon="10.638902"><ele>1330.0</ele><time>2026-04-18T13:03:54.941Z</time></trkpt><trkpt lat="44.2665817" lon="10.6389762"><ele>1330.0</ele><time>2026-04-18T13:03:55.94Z</time></trkpt><trkpt lat="44.2666391" lon="10.639044"><ele>1330.0</ele><time>2026-04-18T13:03:56.94Z</time></trkpt><trkpt lat="44.2666863" lon="10.6391104"><ele>1330.0</ele><time>2026-04-18T13:03:57.94Z</time></trkpt><trkpt lat="44.2667155" lon="10.6392212"><ele>1330.0</ele><time>2026-04-18T13:03:59.941Z</time></trkpt><trkpt lat="44.2667116" lon="10.6393398"><ele>1330.0</ele><time>2026-04-18T13:04:02.94Z</time></trkpt><trkpt lat="44.2666647" lon="10.6394949"><ele>1329.6</ele><time>2026-04-18T13:04:04.94Z</time></trkpt><trkpt lat="44.2666239" lon="10.6396192"><ele>1329.2</ele><time>2026-04-18T13:04:05.941Z</time></trkpt><trkpt lat="44.2665981" lon="10.6397568"><ele>1328.8000000000002</ele><time>2026-04-18T13:04:06.941Z</time></trkpt><trkpt lat="44.2665679" lon="10.6398901"><ele>1328.4</ele><time>2026-04-18T13:04:07.941Z</time></trkpt><trkpt lat="44.2665242" lon="10.6400183"><ele>1328.0</ele><time>2026-04-18T13:04:08.94Z</time></trkpt><trkpt lat="44.2664842" lon="10.6401278"><ele>1328.0</ele><time>2026-04-18T13:04:09.941Z</time></trkpt><trkpt lat="44.266449" lon="10.6402141"><ele>1328.0</ele><time>2026-04-18T13:04:10.94Z</time></trkpt><trkpt lat="44.2664032" lon="10.6403375"><ele>1328.0</ele><time>2026-04-18T13:04:12.94Z</time></trkpt><trkpt lat="44.2663289" lon="10.6404635"><ele>1328.0</ele><time>2026-04-18T13:04:14.941Z</time></trkpt><trkpt lat="44.2662847" lon="10.6405561"><ele>1328.0</ele><time>2026-04-18T13:04:15.941Z</time></trkpt><trkpt lat="44.2662446" lon="10.6406588"><ele>1327.5</ele><time>2026-04-18T13:04:16.941Z</time></trkpt><trkpt lat="44.2662001" lon="10.6407672"><ele>1327.0</ele><time>2026-04-18T13:04:17.94Z</time></trkpt><trkpt lat="44.2661944" lon="10.6408779"><ele>1326.5</ele><time>2026-04-18T13:04:18.941Z</time></trkpt><trkpt lat="44.2661832" lon="10.6409806"><ele>1326.0</ele><time>2026-04-18T13:04:19.941Z</time></trkpt><trkpt lat="44.2662151" lon="10.6410978"><ele>1325.5</ele><time>2026-04-18T13:04:20.94Z</time></trkpt><trkpt lat="44.2662468" lon="10.6411935"><ele>1325.0</ele><time>2026-04-18T13:04:21.94Z</time></trkpt><trkpt lat="44.2662772" lon="10.6412803"><ele>1325.0</ele><time>2026-04-18T13:04:22.94Z</time></trkpt><trkpt lat="44.2663171" lon="10.6413774"><ele>1325.0</ele><time>2026-04-18T13:04:23.94Z</time></trkpt><trkpt lat="44.2663575" lon="10.6414626"><ele>1325.0</ele><time>2026-04-18T13:04:24.94Z</time></trkpt><trkpt lat="44.2663963" lon="10.6415588"><ele>1325.0</ele><time>2026-04-18T13:04:25.94Z</time></trkpt><trkpt lat="44.2664271" lon="10.6416605"><ele>1325.0</ele><time>2026-04-18T13:04:26.94Z</time></trkpt><trkpt lat="44.2664587" lon="10.6417763"><ele>1325.0</ele><time>2026-04-18T13:04:27.941Z</time></trkpt><trkpt lat="44.2664934" lon="10.6418605"><ele>1326.6666666666667</ele><time>2026-04-18T13:04:28.941Z</time></trkpt><trkpt lat="44.2665223" lon="10.6419469"><ele>1328.3333333333335</ele><time>2026-04-18T13:04:29.941Z</time></trkpt><trkpt lat="44.2665764" lon="10.6420512"><ele>1330.0</ele><time>2026-04-18T13:04:30.94Z</time></trkpt><trkpt lat="44.2666288" lon="10.6421657"><ele>1331.6666666666667</ele><time>2026-04-18T13:04:31.94Z</time></trkpt><trkpt lat="44.2666823" lon="10.6422731"><ele>1333.3333333333333</ele><time>2026-04-18T13:04:32.941Z</time></trkpt><trkpt lat="44.2667293" lon="10.6423864"><ele>1335.0</ele><time>2026-04-18T13:04:33.94Z</time></trkpt><trkpt lat="44.2667627" lon="10.6424725"><ele>1335.0</ele><time>2026-04-18T13:04:34.94Z</time></trkpt><trkpt lat="44.2668046" lon="10.6425634"><ele>1335.0</ele><time>2026-04-18T13:04:35.941Z</time></trkpt><trkpt lat="44.2668187" lon="10.6426658"><ele>1335.0</ele><time>2026-04-18T13:04:36.941Z</time></trkpt><trkpt lat="44.2668387" lon="10.6427826"><ele>1335.0</ele><time>2026-04-18T13:04:37.94Z</time></trkpt><trkpt lat="44.2668429" lon="10.642917"><ele>1335.0</ele><time>2026-04-18T13:04:38.941Z</time></trkpt><trkpt lat="44.2668348" lon="10.6430505"><ele>1335.0</ele><time>2026-04-18T13:04:39.941Z</time></trkpt><trkpt lat="44.2668224" lon="10.6431915"><ele>1335.0</ele><time>2026-04-18T13:04:40.94Z</time></trkpt><trkpt lat="44.2668025" lon="10.6433227"><ele>1335.0</ele><time>2026-04-18T13:04:41.941Z</time></trkpt><trkpt lat="44.2667847" lon="10.6434185"><ele>1335.0</ele><time>2026-04-18T13:04:42.94Z</time></trkpt><trkpt lat="44.2667699" lon="10.6435313"><ele>1335.0</ele><time>2026-04-18T13:04:43.94Z</time></trkpt><trkpt lat="44.2667477" lon="10.6436543"><ele>1335.0</ele><time>2026-04-18T13:04:44.941Z</time></trkpt><trkpt lat="44.2667273" lon="10.6437811"><ele>1335.0</ele><time>2026-04-18T13:04:45.94Z</time></trkpt><trkpt lat="44.2667081" lon="10.6439076"><ele>1335.5</ele><time>2026-04-18T13:04:46.94Z</time></trkpt><trkpt lat="44.2666852" lon="10.6440201"><ele>1336.0</ele><time>2026-04-18T13:04:47.941Z</time></trkpt><trkpt lat="44.2666726" lon="10.6441216"><ele>1336.5</ele><time>2026-04-18T13:04:48.94Z</time></trkpt><trkpt lat="44.2666873" lon="10.6442776"><ele>1337.0</ele><time>2026-04-18T13:04:50.941Z</time></trkpt><trkpt lat="44.2667329" lon="10.6443562"><ele>1337.5</ele><time>2026-04-18T13:04:51.941Z</time></trkpt><trkpt lat="44.2668075" lon="10.6444428"><ele>1338.0</ele><time>2026-04-18T13:04:52.941Z</time></trkpt><trkpt lat="44.2669027" lon="10.6445509"><ele>1334.75</ele><time>2026-04-18T13:04:53.94Z</time></trkpt><trkpt lat="44.2669988" lon="10.6446833"><ele>1331.5</ele><time>2026-04-18T13:04:54.941Z</time></trkpt><trkpt lat="44.2670818" lon="10.6448194"><ele>1328.25</ele><time>2026-04-18T13:04:55.941Z</time></trkpt><trkpt lat="44.2671669" lon="10.6449578"><ele>1325.0</ele><time>2026-04-18T13:04:56.94Z</time></trkpt><trkpt lat="44.2672231" lon="10.6450699"><ele>1325.4</ele><time>2026-04-18T13:04:57.941Z</time></trkpt><trkpt lat="44.2672926" lon="10.645168"><ele>1325.8</ele><time>2026-04-18T13:04:58.94Z</time></trkpt><trkpt lat="44.2673481" lon="10.6452218"><ele>1326.1999999999998</ele><time>2026-04-18T13:04:59.94Z</time></trkpt><trkpt lat="44.2674833" lon="10.6452504"><ele>1326.6</ele><time>2026-04-18T13:05:01.94Z</time></trkpt><trkpt lat="44.267564" lon="10.6452638"><ele>1327.0</ele><time>2026-04-18T13:05:02.94Z</time></trkpt><trkpt lat="44.2676296" lon="10.6453088"><ele>1327.0</ele><time>2026-04-18T13:05:03.94Z</time></trkpt><trkpt lat="44.2676984" lon="10.6453755"><ele>1327.0</ele><time>2026-04-18T13:05:04.94Z</time></trkpt><trkpt lat="44.2677623" lon="10.6454485"><ele>1327.0</ele><time>2026-04-18T13:05:05.941Z</time></trkpt><trkpt lat="44.267834" lon="10.6455328"><ele>1327.0</ele><time>2026-04-18T13:05:06.941Z</time></trkpt><trkpt lat="44.2679103" lon="10.6455773"><ele>1327.0</ele><time>2026-04-18T13:05:07.941Z</time></trkpt><trkpt lat="44.2679917" lon="10.645629"><ele>1327.0</ele><time>2026-04-18T13:05:08.941Z</time></trkpt><trkpt lat="44.2680735" lon="10.6456856"><ele>1330.8</ele><time>2026-04-18T13:05:09.94Z</time></trkpt><trkpt lat="44.2681478" lon="10.6457209"><ele>1334.6</ele><time>2026-04-18T13:05:10.94Z</time></trkpt><trkpt lat="44.2682108" lon="10.645777"><ele>1338.3999999999999</ele><time>2026-04-18T13:05:11.941Z</time></trkpt><trkpt lat="44.2682757" lon="10.6458507"><ele>1342.1999999999998</ele><time>2026-04-18T13:05:12.941Z</time></trkpt><trkpt lat="44.2683398" lon="10.6459911"><ele>1346.0</ele><time>2026-04-18T13:05:13.941Z</time></trkpt><trkpt lat="44.2683996" lon="10.6461139"><ele>1343.4</ele><time>2026-04-18T13:05:14.941Z</time></trkpt><trkpt lat="44.2684439" lon="10.6462513"><ele>1340.8</ele><time>2026-04-18T13:05:15.94Z</time></trkpt><trkpt lat="44.2684825" lon="10.6463667"><ele>1338.2</ele><time>2026-04-18T13:05:16.94Z</time></trkpt><trkpt lat="44.2685147" lon="10.6464702"><ele>1335.6000000000001</ele><time>2026-04-18T13:05:17.94Z</time></trkpt><trkpt lat="44.2685527" lon="10.646556"><ele>1333.0</ele><time>2026-04-18T13:05:18.94Z</time></trkpt><trkpt lat="44.2686033" lon="10.6466855"><ele>1333.0</ele><time>2026-04-18T13:05:20.94Z</time></trkpt><trkpt lat="44.2686435" lon="10.6468186"><ele>1333.0</ele><time>2026-04-18T13:05:22.941Z</time></trkpt><trkpt lat="44.2686448" lon="10.6469849"><ele>1333.0</ele><time>2026-04-18T13:05:24.941Z</time></trkpt><trkpt lat="44.2686338" lon="10.6470973"><ele>1333.0</ele><time>2026-04-18T13:05:25.94Z</time></trkpt><trkpt lat="44.2686211" lon="10.647223"><ele>1333.0</ele><time>2026-04-18T13:05:26.94Z</time></trkpt><trkpt lat="44.2686105" lon="10.6473529"><ele>1331.6000000000001</ele><time>2026-04-18T13:05:27.94Z</time></trkpt><trkpt lat="44.2686179" lon="10.6474668"><ele>1330.2</ele><time>2026-04-18T13:05:28.941Z</time></trkpt><trkpt lat="44.2686263" lon="10.6475586"><ele>1328.8</ele><time>2026-04-18T13:05:29.941Z</time></trkpt><trkpt lat="44.2686547" lon="10.647727"><ele>1327.4</ele><time>2026-04-18T13:05:31.94Z</time></trkpt><trkpt lat="44.2686561" lon="10.6478913"><ele>1326.0</ele><time>2026-04-18T13:05:33.94Z</time></trkpt><trkpt lat="44.2686266" lon="10.6480521"><ele>1325.4</ele><time>2026-04-18T13:05:35.94Z</time></trkpt><trkpt lat="44.2686063" lon="10.6481374"><ele>1324.8</ele><time>2026-04-18T13:05:36.94Z</time></trkpt><trkpt lat="44.2685857" lon="10.6482226"><ele>1324.2</ele><time>2026-04-18T13:05:37.941Z</time></trkpt><trkpt lat="44.2685545" lon="10.6483731"><ele>1323.6000000000001</ele><time>2026-04-18T13:05:39.941Z</time></trkpt><trkpt lat="44.2685791" lon="10.6485217"><ele>1323.0</ele><time>2026-04-18T13:05:41.94Z</time></trkpt><trkpt lat="44.2686579" lon="10.6486338"><ele>1321.2</ele><time>2026-04-18T13:05:43.941Z</time></trkpt><trkpt lat="44.2687187" lon="10.6487417"><ele>1319.4</ele><time>2026-04-18T13:05:45.94Z</time></trkpt><trkpt lat="44.2687811" lon="10.6488396"><ele>1317.6000000000001</ele><time>2026-04-18T13:05:47.94Z</time></trkpt><trkpt lat="44.2688518" lon="10.6489374"><ele>1315.8000000000002</ele><time>2026-04-18T13:05:48.941Z</time></trkpt><trkpt lat="44.2689186" lon="10.6490142"><ele>1314.0</ele><time>2026-04-18T13:05:49.94Z</time></trkpt><trkpt lat="44.2689803" lon="10.6490902"><ele>1316.1666666666667</ele><time>2026-04-18T13:05:50.941Z</time></trkpt><trkpt lat="44.269005" lon="10.6491837"><ele>1318.3333333333333</ele><time>2026-04-18T13:05:51.94Z</time></trkpt><trkpt lat="44.2690352" lon="10.6492817"><ele>1320.5</ele><time>2026-04-18T13:05:52.941Z</time></trkpt><trkpt lat="44.2690478" lon="10.649392"><ele>1322.6666666666665</ele><time>2026-04-18T13:05:53.941Z</time></trkpt><trkpt lat="44.2690553" lon="10.649516"><ele>1324.8333333333333</ele><time>2026-04-18T13:05:54.941Z</time></trkpt><trkpt lat="44.2690516" lon="10.6496502"><ele>1327.0</ele><time>2026-04-18T13:05:55.94Z</time></trkpt><trkpt lat="44.26905" lon="10.6497752"><ele>1327.0</ele><time>2026-04-18T13:05:56.94Z</time></trkpt><trkpt lat="44.2690644" lon="10.6499013"><ele>1327.0</ele><time>2026-04-18T13:05:57.94Z</time></trkpt><trkpt lat="44.2690806" lon="10.6500334"><ele>1327.0</ele><time>2026-04-18T13:05:58.94Z</time></trkpt><trkpt lat="44.2690928" lon="10.6501426"><ele>1327.0</ele><time>2026-04-18T13:05:59.941Z</time></trkpt><trkpt lat="44.2691128" lon="10.6502287"><ele>1327.0</ele><time>2026-04-18T13:06:00.941Z</time></trkpt><trkpt lat="44.2692094" lon="10.6503717"><ele>1326.3999999999999</ele><time>2026-04-18T13:06:02.94Z</time></trkpt><trkpt lat="44.2692726" lon="10.6504235"><ele>1325.8</ele><time>2026-04-18T13:06:03.941Z</time></trkpt><trkpt lat="44.2693205" lon="10.6504901"><ele>1325.2</ele><time>2026-04-18T13:06:04.94Z</time></trkpt><trkpt lat="44.2693502" lon="10.6506374"><ele>1324.6</ele><time>2026-04-18T13:06:06.941Z</time></trkpt><trkpt lat="44.2693187" lon="10.650819"><ele>1324.0</ele><time>2026-04-18T13:06:08.94Z</time></trkpt><trkpt lat="44.2693101" lon="10.6509232"><ele>1324.0</ele><time>2026-04-18T13:06:09.94Z</time></trkpt><trkpt lat="44.269306" lon="10.6510229"><ele>1324.0</ele><time>2026-04-18T13:06:10.94Z</time></trkpt><trkpt lat="44.2693142" lon="10.6511317"><ele>1324.0</ele><time>2026-04-18T13:06:11.94Z</time></trkpt><trkpt lat="44.2693323" lon="10.6512324"><ele>1324.0</ele><time>2026-04-18T13:06:12.94Z</time></trkpt><trkpt lat="44.269362" lon="10.6513309"><ele>1324.0</ele><time>2026-04-18T13:06:13.941Z</time></trkpt><trkpt lat="44.2693918" lon="10.6514291"><ele>1324.0</ele><time>2026-04-18T13:06:14.94Z</time></trkpt><trkpt lat="44.2694391" lon="10.6515295"><ele>1323.0</ele><time>2026-04-18T13:06:15.94Z</time></trkpt><trkpt lat="44.2694858" lon="10.651633"><ele>1322.0</ele><time>2026-04-18T13:06:16.941Z</time></trkpt><trkpt lat="44.2695224" lon="10.6517622"><ele>1321.0</ele><time>2026-04-18T13:06:17.94Z</time></trkpt><trkpt lat="44.2695611" lon="10.6518818"><ele>1320.0</ele><time>2026-04-18T13:06:18.94Z</time></trkpt><trkpt lat="44.26961" lon="10.6519963"><ele>1319.0</ele><time>2026-04-18T13:06:19.941Z</time></trkpt><trkpt lat="44.2696438" lon="10.6521308"><ele>1316.8333333333335</ele><time>2026-04-18T13:06:20.94Z</time></trkpt><trkpt lat="44.2696637" lon="10.6522455"><ele>1314.6666666666667</ele><time>2026-04-18T13:06:21.94Z</time></trkpt><trkpt lat="44.2696766" lon="10.6523631"><ele>1312.5</ele><time>2026-04-18T13:06:22.941Z</time></trkpt><trkpt lat="44.2696678" lon="10.652469"><ele>1310.3333333333333</ele><time>2026-04-18T13:06:23.94Z</time></trkpt><trkpt lat="44.2696434" lon="10.6525738"><ele>1308.1666666666665</ele><time>2026-04-18T13:06:24.94Z</time></trkpt><trkpt lat="44.269611" lon="10.6526751"><ele>1306.0</ele><time>2026-04-18T13:06:25.94Z</time></trkpt><trkpt lat="44.2695338" lon="10.6527736"><ele>1305.8</ele><time>2026-04-18T13:06:26.94Z</time></trkpt><trkpt lat="44.2694807" lon="10.6528875"><ele>1305.6</ele><time>2026-04-18T13:06:27.94Z</time></trkpt><trkpt lat="44.2694332" lon="10.6529906"><ele>1305.4</ele><time>2026-04-18T13:06:28.94Z</time></trkpt><trkpt lat="44.2694002" lon="10.6531022"><ele>1305.2</ele><time>2026-04-18T13:06:29.94Z</time></trkpt><trkpt lat="44.2693772" lon="10.6532268"><ele>1305.0</ele><time>2026-04-18T13:06:30.94Z</time></trkpt><trkpt lat="44.2693678" lon="10.6533538"><ele>1305.0</ele><time>2026-04-18T13:06:31.94Z</time></trkpt><trkpt lat="44.269374" lon="10.6534814"><ele>1305.0</ele><time>2026-04-18T13:06:32.94Z</time></trkpt><trkpt lat="44.2693846" lon="10.6536141"><ele>1305.0</ele><time>2026-04-18T13:06:33.94Z</time></trkpt><trkpt lat="44.2694008" lon="10.6537539"><ele>1305.0</ele><time>2026-04-18T13:06:34.94Z</time></trkpt><trkpt lat="44.2694092" lon="10.653894"><ele>1305.0</ele><time>2026-04-18T13:06:35.94Z</time></trkpt><trkpt lat="44.269403" lon="10.6540388"><ele>1305.6</ele><time>2026-04-18T13:06:36.94Z</time></trkpt><trkpt lat="44.269388" lon="10.6541833"><ele>1306.2</ele><time>2026-04-18T13:06:37.94Z</time></trkpt><trkpt lat="44.2693731" lon="10.6543293"><ele>1306.8000000000002</ele><time>2026-04-18T13:06:38.94Z</time></trkpt><trkpt lat="44.2693479" lon="10.6544714"><ele>1307.4</ele><time>2026-04-18T13:06:39.94Z</time></trkpt><trkpt lat="44.2693344" lon="10.6546062"><ele>1308.0</ele><time>2026-04-18T13:06:40.94Z</time></trkpt><trkpt lat="44.2693179" lon="10.6547489"><ele>1308.75</ele><time>2026-04-18T13:06:41.941Z</time></trkpt><trkpt lat="44.2692966" lon="10.6549163"><ele>1309.5</ele><time>2026-04-18T13:06:42.94Z</time></trkpt><trkpt lat="44.2692668" lon="10.6551099"><ele>1310.25</ele><time>2026-04-18T13:06:43.94Z</time></trkpt><trkpt lat="44.2692355" lon="10.6552893"><ele>1311.0</ele><time>2026-04-18T13:06:44.94Z</time></trkpt><trkpt lat="44.2691963" lon="10.6554649"><ele>1313.0</ele><time>2026-04-18T13:06:45.94Z</time></trkpt><trkpt lat="44.2691403" lon="10.655623"><ele>1315.0</ele><time>2026-04-18T13:06:46.941Z</time></trkpt><trkpt lat="44.269085" lon="10.6557772"><ele>1317.0</ele><time>2026-04-18T13:06:47.941Z</time></trkpt><trkpt lat="44.2689869" lon="10.655871"><ele>1319.0</ele><time>2026-04-18T13:06:48.941Z</time></trkpt><trkpt lat="44.2688993" lon="10.6559583"><ele>1317.3333333333335</ele><time>2026-04-18T13:06:49.94Z</time></trkpt><trkpt lat="44.2688024" lon="10.6560308"><ele>1315.6666666666667</ele><time>2026-04-18T13:06:50.941Z</time></trkpt><trkpt lat="44.2687144" lon="10.656087"><ele>1314.0</ele><time>2026-04-18T13:06:51.94Z</time></trkpt><trkpt lat="44.2686487" lon="10.6561476"><ele>1312.3333333333333</ele><time>2026-04-18T13:06:52.941Z</time></trkpt><trkpt lat="44.2685974" lon="10.656222"><ele>1310.6666666666665</ele><time>2026-04-18T13:06:53.94Z</time></trkpt><trkpt lat="44.268556" lon="10.6563061"><ele>1309.0</ele><time>2026-04-18T13:06:54.94Z</time></trkpt><trkpt lat="44.2685316" lon="10.656395"><ele>1309.0</ele><time>2026-04-18T13:06:55.94Z</time></trkpt><trkpt lat="44.2685242" lon="10.6565006"><ele>1309.0</ele><time>2026-04-18T13:06:56.941Z</time></trkpt><trkpt lat="44.2685157" lon="10.6566131"><ele>1309.0</ele><time>2026-04-18T13:06:57.94Z</time></trkpt><trkpt lat="44.2685163" lon="10.6567252"><ele>1309.0</ele><time>2026-04-18T13:06:58.94Z</time></trkpt><trkpt lat="44.2685188" lon="10.6568271"><ele>1309.0</ele><time>2026-04-18T13:06:59.941Z</time></trkpt><trkpt lat="44.2685171" lon="10.656925"><ele>1309.0</ele><time>2026-04-18T13:07:00.941Z</time></trkpt><trkpt lat="44.2685295" lon="10.6570755"><ele>1309.6</ele><time>2026-04-18T13:07:02.94Z</time></trkpt><trkpt lat="44.2685407" lon="10.6571771"><ele>1310.2</ele><time>2026-04-18T13:07:04.941Z</time></trkpt><trkpt lat="44.2685189" lon="10.657306"><ele>1310.8</ele><time>2026-04-18T13:07:06.941Z</time></trkpt><trkpt lat="44.2684837" lon="10.6574339"><ele>1311.3999999999999</ele><time>2026-04-18T13:07:08.94Z</time></trkpt><trkpt lat="44.2684215" lon="10.657581"><ele>1312.0</ele><time>2026-04-18T13:07:10.94Z</time></trkpt><trkpt lat="44.2683819" lon="10.6576611"><ele>1312.0</ele><time>2026-04-18T13:07:11.94Z</time></trkpt><trkpt lat="44.2683542" lon="10.657753"><ele>1312.0</ele><time>2026-04-18T13:07:12.94Z</time></trkpt><trkpt lat="44.2683194" lon="10.6578461"><ele>1312.0</ele><time>2026-04-18T13:07:13.94Z</time></trkpt><trkpt lat="44.2682989" lon="10.6579984"><ele>1312.0</ele><time>2026-04-18T13:07:15.941Z</time></trkpt><trkpt lat="44.2683092" lon="10.6581819"><ele>1312.0</ele><time>2026-04-18T13:07:17.941Z</time></trkpt><trkpt lat="44.2683233" lon="10.6582933"><ele>1312.6666666666665</ele><time>2026-04-18T13:07:18.94Z</time></trkpt><trkpt lat="44.2683352" lon="10.6584203"><ele>1313.3333333333333</ele><time>2026-04-18T13:07:19.94Z</time></trkpt><trkpt lat="44.2683544" lon="10.65854"><ele>1314.0</ele><time>2026-04-18T13:07:20.94Z</time></trkpt><trkpt lat="44.2683334" lon="10.6586548"><ele>1314.6666666666667</ele><time>2026-04-18T13:07:21.94Z</time></trkpt><trkpt lat="44.2683322" lon="10.6587603"><ele>1315.3333333333335</ele><time>2026-04-18T13:07:22.94Z</time></trkpt><trkpt lat="44.2683033" lon="10.6588659"><ele>1316.0</ele><time>2026-04-18T13:07:23.941Z</time></trkpt><trkpt lat="44.2683021" lon="10.6589647"><ele>1314.4</ele><time>2026-04-18T13:07:24.941Z</time></trkpt><trkpt lat="44.2682972" lon="10.6590757"><ele>1312.8</ele><time>2026-04-18T13:07:25.941Z</time></trkpt><trkpt lat="44.2682796" lon="10.6591687"><ele>1311.2</ele><time>2026-04-18T13:07:26.941Z</time></trkpt><trkpt lat="44.2682429" lon="10.659314"><ele>1309.6000000000001</ele><time>2026-04-18T13:07:28.94Z</time></trkpt><trkpt lat="44.2682735" lon="10.6594335"><ele>1308.0</ele><time>2026-04-18T13:07:30.94Z</time></trkpt><trkpt lat="44.2683756" lon="10.6595515"><ele>1306.3333333333333</ele><time>2026-04-18T13:07:32.941Z</time></trkpt><trkpt lat="44.2684382" lon="10.6596048"><ele>1304.6666666666667</ele><time>2026-04-18T13:07:33.94Z</time></trkpt><trkpt lat="44.2685377" lon="10.6596564"><ele>1303.0</ele><time>2026-04-18T13:07:35.94Z</time></trkpt><trkpt lat="44.2685986" lon="10.6597524"><ele>1301.3333333333335</ele><time>2026-04-18T13:07:37.94Z</time></trkpt><trkpt lat="44.2686168" lon="10.6598395"><ele>1299.6666666666667</ele><time>2026-04-18T13:07:38.94Z</time></trkpt><trkpt lat="44.2686126" lon="10.6599321"><ele>1298.0</ele><time>2026-04-18T13:07:39.94Z</time></trkpt><trkpt lat="44.268559" lon="10.6600974"><ele>1298.0</ele><time>2026-04-18T13:07:41.941Z</time></trkpt><trkpt lat="44.2685198" lon="10.6602034"><ele>1298.0</ele><time>2026-04-18T13:07:43.941Z</time></trkpt><trkpt lat="44.2685217" lon="10.6603193"><ele>1298.0</ele><time>2026-04-18T13:07:45.941Z</time></trkpt><trkpt lat="44.2682989" lon="10.6579984"><ele>1300.0</ele><time>2026-04-18T13:07:15.941Z</time></trkpt><trkpt lat="44.2683092" lon="10.6581819"><ele>1302.0</ele><time>2026-04-18T13:07:17.941Z</time></trkpt><trkpt lat="44.2683233" lon="10.6582933"><ele>1304.0</ele><time>2026-04-18T13:07:18.94Z</time></trkpt><trkpt lat="44.2683352" lon="10.6584203"><ele>1306.0</ele><time>2026-04-18T13:07:19.94Z</time></trkpt><trkpt lat="44.2683544" lon="10.65854"><ele>1308.0</ele><time>2026-04-18T13:07:20.94Z</time></trkpt><trkpt lat="44.2683334" lon="10.6586548"><ele>1308.0</ele><time>2026-04-18T13:07:21.94Z</time></trkpt><trkpt lat="44.2683322" lon="10.6587603"><ele>1308.0</ele><time>2026-04-18T13:07:22.94Z</time></trkpt><trkpt lat="44.2683033" lon="10.6588659"><ele>1308.0</ele><time>2026-04-18T13:07:23.941Z</time></trkpt><trkpt lat="44.2683021" lon="10.6589647"><ele>1308.0</ele><time>2026-04-18T13:07:24.941Z</time></trkpt><trkpt lat="44.2682972" lon="10.6590757"><ele>1308.0</ele><time>2026-04-18T13:07:25.941Z</time></trkpt><trkpt lat="44.2682796" lon="10.6591687"><ele>1308.0</ele><time>2026-04-18T13:07:26.941Z</time></trkpt><trkpt lat="44.2682429" lon="10.659314"><ele>1308.0</ele><time>2026-04-18T13:07:28.94Z</time></trkpt><trkpt lat="44.2682735" lon="10.6594335"><ele>1308.0</ele><time>2026-04-18T13:07:30.94Z</time></trkpt><trkpt lat="44.2683756" lon="10.6595515"><ele>1308.0</ele><time>2026-04-18T13:07:32.941Z</time></trkpt><trkpt lat="44.2684382" lon="10.6596048"><ele>1308.0</ele><time>2026-04-18T13:07:33.94Z</time></trkpt><trkpt lat="44.2685377" lon="10.6596564"><ele>1308.0</ele><time>2026-04-18T13:07:35.94Z</time></trkpt><trkpt lat="44.2685986" lon="10.6597524"><ele>1306.3333333333333</ele><time>2026-04-18T13:07:37.94Z</time></trkpt><trkpt lat="44.2686168" lon="10.6598395"><ele>1304.6666666666667</ele><time>2026-04-18T13:07:38.94Z</time></trkpt><trkpt lat="44.2686126" lon="10.6599321"><ele>1303.0</ele><time>2026-04-18T13:07:39.94Z</time></trkpt><trkpt lat="44.268559" lon="10.6600974"><ele>1301.3333333333335</ele><time>2026-04-18T13:07:41.941Z</time></trkpt><trkpt lat="44.2685198" lon="10.6602034"><ele>1299.6666666666667</ele><time>2026-04-18T13:07:43.941Z</time></trkpt><trkpt lat="44.2685217" lon="10.6603193"><ele>1298.0</ele><time>2026-04-18T13:07:45.941Z</time></trkpt><trkpt lat="44.268559" lon="10.6604674"><ele>1297.2</ele><time>2026-04-18T13:07:47.941Z</time></trkpt><trkpt lat="44.2685968" lon="10.6606138"><ele>1296.4</ele><time>2026-04-18T13:07:49.94Z</time></trkpt><trkpt lat="44.2686082" lon="10.6607362"><ele>1295.6000000000001</ele><time>2026-04-18T13:07:51.94Z</time></trkpt><trkpt lat="44.2686058" lon="10.6608318"><ele>1294.8000000000002</ele><time>2026-04-18T13:07:53.941Z</time></trkpt><trkpt lat="44.2686172" lon="10.6609502"><ele>1294.0</ele><time>2026-04-18T13:07:56.941Z</time></trkpt><trkpt lat="44.2686296" lon="10.661107"><ele>1293.4</ele><time>2026-04-18T13:07:58.94Z</time></trkpt><trkpt lat="44.2686461" lon="10.6612782"><ele>1292.8000000000002</ele><time>2026-04-18T13:08:00.941Z</time></trkpt><trkpt lat="44.2686654" lon="10.6613739"><ele>1292.1999999999998</ele><time>2026-04-18T13:08:01.94Z</time></trkpt><trkpt lat="44.2686747" lon="10.6615416"><ele>1291.6</ele><time>2026-04-18T13:08:03.941Z</time></trkpt><trkpt lat="44.2686944" lon="10.6617135"><ele>1291.0</ele><time>2026-04-18T13:08:05.94Z</time></trkpt><trkpt lat="44.2687076" lon="10.6618011"><ele>1291.0</ele><time>2026-04-18T13:08:06.94Z</time></trkpt><trkpt lat="44.2687187" lon="10.6618893"><ele>1291.0</ele><time>2026-04-18T13:08:07.94Z</time></trkpt><trkpt lat="44.2687446" lon="10.6619828"><ele>1291.0</ele><time>2026-04-18T13:08:08.94Z</time></trkpt><trkpt lat="44.2688104" lon="10.6621245"><ele>1291.0</ele><time>2026-04-18T13:08:10.94Z</time></trkpt><trkpt lat="44.2688546" lon="10.662246"><ele>1291.0</ele><time>2026-04-18T13:08:12.94Z</time></trkpt><trkpt lat="44.2688759" lon="10.6623839"><ele>1288.0</ele><time>2026-04-18T13:08:14.94Z</time></trkpt><trkpt lat="44.268866" lon="10.662514"><ele>1285.0</ele><time>2026-04-18T13:08:16.94Z</time></trkpt><trkpt lat="44.2688452" lon="10.6626005"><ele>1282.0</ele><time>2026-04-18T13:08:17.941Z</time></trkpt><trkpt lat="44.2687805" lon="10.6627186"><ele>1279.0</ele><time>2026-04-18T13:08:19.94Z</time></trkpt><trkpt lat="44.2687866" lon="10.6628459"><ele>1276.0</ele><time>2026-04-18T13:08:21.94Z</time></trkpt><trkpt lat="44.2688285" lon="10.6629609"><ele>1273.0</ele><time>2026-04-18T13:08:23.94Z</time></trkpt><trkpt lat="44.2688436" lon="10.6631297"><ele>1269.2</ele><time>2026-04-18T13:08:25.94Z</time></trkpt><trkpt lat="44.2688638" lon="10.6632677"><ele>1265.4</ele><time>2026-04-18T13:08:27.94Z</time></trkpt><trkpt lat="44.2689145" lon="10.6633459"><ele>1261.6000000000001</ele><time>2026-04-18T13:08:29.94Z</time></trkpt><trkpt lat="44.2690069" lon="10.6633435"><ele>1257.8</ele><time>2026-04-18T13:08:32.94Z</time></trkpt><trkpt lat="44.2691052" lon="10.6632377"><ele>1254.0</ele><time>2026-04-18T13:08:34.941Z</time></trkpt><trkpt lat="44.2691919" lon="10.6631598"><ele>1254.0</ele><time>2026-04-18T13:08:36.94Z</time></trkpt><trkpt lat="44.2692411" lon="10.6630593"><ele>1254.0</ele><time>2026-04-18T13:08:39.94Z</time></trkpt><trkpt lat="44.2692826" lon="10.6629883"><ele>1254.0</ele><time>2026-04-18T13:08:41.941Z</time></trkpt><trkpt lat="44.2693194" lon="10.6628926"><ele>1254.0</ele><time>2026-04-18T13:08:44.941Z</time></trkpt><trkpt lat="44.2693734" lon="10.6627815"><ele>1254.0</ele><time>2026-04-18T13:08:47.94Z</time></trkpt><trkpt lat="44.2694283" lon="10.6627324"><ele>1254.0</ele><time>2026-04-18T13:08:48.94Z</time></trkpt><trkpt lat="44.2694964" lon="10.6626474"><ele>1253.3333333333333</ele><time>2026-04-18T13:08:50.94Z</time></trkpt><trkpt lat="44.2695523" lon="10.662555"><ele>1252.6666666666667</ele><time>2026-04-18T13:08:52.941Z</time></trkpt><trkpt lat="44.2696144" lon="10.6624526"><ele>1252.0</ele><time>2026-04-18T13:08:54.94Z</time></trkpt><trkpt lat="44.2696969" lon="10.6624025"><ele>1251.3333333333335</ele><time>2026-04-18T13:08:56.94Z</time></trkpt><trkpt lat="44.2697747" lon="10.6624921"><ele>1250.6666666666667</ele><time>2026-04-18T13:08:58.94Z</time></trkpt><trkpt lat="44.2698184" lon="10.6625631"><ele>1250.0</ele><time>2026-04-18T13:08:59.941Z</time></trkpt><trkpt lat="44.2698741" lon="10.6626202"><ele>1250.0</ele><time>2026-04-18T13:09:00.94Z</time></trkpt><trkpt lat="44.2699651" lon="10.6627353"><ele>1250.0</ele><time>2026-04-18T13:09:02.94Z</time></trkpt><trkpt lat="44.270005" lon="10.6628053"><ele>1250.0</ele><time>2026-04-18T13:09:03.941Z</time></trkpt><trkpt lat="44.2700184" lon="10.6629065"><ele>1250.0</ele><time>2026-04-18T13:09:04.94Z</time></trkpt><trkpt lat="44.2700452" lon="10.6630019"><ele>1250.0</ele><time>2026-04-18T13:09:05.94Z</time></trkpt><trkpt lat="44.2700812" lon="10.6630946"><ele>1250.0</ele><time>2026-04-18T13:09:06.941Z</time></trkpt><trkpt lat="44.2701032" lon="10.6631797"><ele>1247.0</ele><time>2026-04-18T13:09:07.94Z</time></trkpt><trkpt lat="44.2701409" lon="10.6633309"><ele>1244.0</ele><time>2026-04-18T13:09:09.94Z</time></trkpt><trkpt lat="44.2702073" lon="10.6634617"><ele>1241.0</ele><time>2026-04-18T13:09:11.94Z</time></trkpt><trkpt lat="44.2702725" lon="10.6636235"><ele>1238.0</ele><time>2026-04-18T13:09:13.941Z</time></trkpt><trkpt lat="44.2703047" lon="10.6637255"><ele>1235.0</ele><time>2026-04-18T13:09:14.941Z</time></trkpt><trkpt lat="44.2703331" lon="10.6638295"><ele>1232.6666666666667</ele><time>2026-04-18T13:09:15.941Z</time></trkpt><trkpt lat="44.2703517" lon="10.663938"><ele>1230.3333333333335</ele><time>2026-04-18T13:09:16.941Z</time></trkpt><trkpt lat="44.2703816" lon="10.6640346"><ele>1228.0</ele><time>2026-04-18T13:09:17.941Z</time></trkpt><trkpt lat="44.270417" lon="10.6641073"><ele>1225.6666666666667</ele><time>2026-04-18T13:09:18.94Z</time></trkpt><trkpt lat="44.27044" lon="10.664247"><ele>1223.3333333333333</ele><time>2026-04-18T13:09:20.94Z</time></trkpt><trkpt lat="44.2704277" lon="10.6643338"><ele>1221.0</ele><time>2026-04-18T13:09:21.94Z</time></trkpt><trkpt lat="44.27043" lon="10.6644867"><ele>1221.0</ele><time>2026-04-18T13:09:23.941Z</time></trkpt><trkpt lat="44.2705158" lon="10.6645212"><ele>1221.0</ele><time>2026-04-18T13:09:26.941Z</time></trkpt><trkpt lat="44.2705581" lon="10.6644458"><ele>1221.0</ele><time>2026-04-18T13:09:27.941Z</time></trkpt><trkpt lat="44.2706157" lon="10.664316"><ele>1221.0</ele><time>2026-04-18T13:09:29.941Z</time></trkpt><trkpt lat="44.2706812" lon="10.6643011"><ele>1221.0</ele><time>2026-04-18T13:09:31.94Z</time></trkpt><trkpt lat="44.2707725" lon="10.6644103"><ele>1220.1666666666667</ele><time>2026-04-18T13:09:33.941Z</time></trkpt><trkpt lat="44.2708222" lon="10.6644872"><ele>1219.3333333333333</ele><time>2026-04-18T13:09:34.94Z</time></trkpt><trkpt lat="44.2708637" lon="10.6645658"><ele>1218.5</ele><time>2026-04-18T13:09:35.941Z</time></trkpt><trkpt lat="44.2709119" lon="10.6646622"><ele>1217.6666666666665</ele><time>2026-04-18T13:09:36.94Z</time></trkpt><trkpt lat="44.2709424" lon="10.6648054"><ele>1216.8333333333333</ele><time>2026-04-18T13:09:37.941Z</time></trkpt><trkpt lat="44.2709603" lon="10.6649429"><ele>1216.0</ele><time>2026-04-18T13:09:38.941Z</time></trkpt><trkpt lat="44.27099" lon="10.6650895"><ele>1216.0</ele><time>2026-04-18T13:09:39.94Z</time></trkpt><trkpt lat="44.2710242" lon="10.6652317"><ele>1216.0</ele><time>2026-04-18T13:09:40.941Z</time></trkpt><trkpt lat="44.2710409" lon="10.665362"><ele>1216.0</ele><time>2026-04-18T13:09:41.94Z</time></trkpt><trkpt lat="44.271053" lon="10.6654922"><ele>1216.0</ele><time>2026-04-18T13:09:42.94Z</time></trkpt><trkpt lat="44.2710699" lon="10.6656107"><ele>1216.0</ele><time>2026-04-18T13:09:43.941Z</time></trkpt><trkpt lat="44.2710878" lon="10.6657233"><ele>1214.0</ele><time>2026-04-18T13:09:44.941Z</time></trkpt><trkpt lat="44.2711179" lon="10.6658241"><ele>1212.0</ele><time>2026-04-18T13:09:45.941Z</time></trkpt><trkpt lat="44.2711318" lon="10.6659153"><ele>1210.0</ele><time>2026-04-18T13:09:46.94Z</time></trkpt><trkpt lat="44.2711413" lon="10.6660118"><ele>1208.0</ele><time>2026-04-18T13:09:47.94Z</time></trkpt><trkpt lat="44.2711554" lon="10.6661053"><ele>1206.0</ele><time>2026-04-18T13:09:48.94Z</time></trkpt><trkpt lat="44.271186" lon="10.6661917"><ele>1204.0</ele><time>2026-04-18T13:09:49.94Z</time></trkpt><trkpt lat="44.2712211" lon="10.6662712"><ele>1202.0</ele><time>2026-04-18T13:09:50.941Z</time></trkpt><trkpt lat="44.2712588" lon="10.666361"><ele>1199.0</ele><time>2026-04-18T13:09:51.941Z</time></trkpt><trkpt lat="44.2712939" lon="10.6664568"><ele>1196.0</ele><time>2026-04-18T13:09:52.941Z</time></trkpt><trkpt lat="44.2713272" lon="10.6665501"><ele>1193.0</ele><time>2026-04-18T13:09:53.941Z</time></trkpt><trkpt lat="44.2713445" lon="10.6666445"><ele>1190.0</ele><time>2026-04-18T13:09:54.941Z</time></trkpt><trkpt lat="44.271326" lon="10.6668017"><ele>1187.0</ele><time>2026-04-18T13:09:56.941Z</time></trkpt><trkpt lat="44.2712563" lon="10.6669581"><ele>1186.5</ele><time>2026-04-18T13:09:58.94Z</time></trkpt><trkpt lat="44.271219" lon="10.6671286"><ele>1186.0</ele><time>2026-04-18T13:10:00.941Z</time></trkpt><trkpt lat="44.2712614" lon="10.6672165"><ele>1185.5</ele><time>2026-04-18T13:10:01.94Z</time></trkpt><trkpt lat="44.2712988" lon="10.6673003"><ele>1185.0</ele><time>2026-04-18T13:10:02.94Z</time></trkpt><trkpt lat="44.2713445" lon="10.6673692"><ele>1184.5</ele><time>2026-04-18T13:10:03.941Z</time></trkpt><trkpt lat="44.2714204" lon="10.6674421"><ele>1184.0</ele><time>2026-04-18T13:10:04.94Z</time></trkpt><trkpt lat="44.2714989" lon="10.6675247"><ele>1184.0</ele><time>2026-04-18T13:10:05.94Z</time></trkpt><trkpt lat="44.2715551" lon="10.667614"><ele>1184.0</ele><time>2026-04-18T13:10:06.94Z</time></trkpt><trkpt lat="44.2716208" lon="10.6677125"><ele>1184.0</ele><time>2026-04-18T13:10:07.941Z</time></trkpt><trkpt lat="44.2716997" lon="10.6678202"><ele>1184.0</ele><time>2026-04-18T13:10:08.94Z</time></trkpt><trkpt lat="44.2717649" lon="10.6679302"><ele>1184.0</ele><time>2026-04-18T13:10:09.941Z</time></trkpt><trkpt lat="44.2718381" lon="10.6680462"><ele>1182.2</ele><time>2026-04-18T13:10:10.94Z</time></trkpt><trkpt lat="44.2719022" lon="10.6681812"><ele>1180.4</ele><time>2026-04-18T13:10:11.94Z</time></trkpt><trkpt lat="44.2719615" lon="10.6683182"><ele>1178.6</ele><time>2026-04-18T13:10:12.94Z</time></trkpt><trkpt lat="44.272013" lon="10.6684617"><ele>1176.8</ele><time>2026-04-18T13:10:13.94Z</time></trkpt><trkpt lat="44.2720543" lon="10.6685939"><ele>1175.0</ele><time>2026-04-18T13:10:14.941Z</time></trkpt><trkpt lat="44.2720924" lon="10.6687129"><ele>1173.8</ele><time>2026-04-18T13:10:15.941Z</time></trkpt><trkpt lat="44.2721267" lon="10.6688276"><ele>1172.6</ele><time>2026-04-18T13:10:16.94Z</time></trkpt><trkpt lat="44.2721659" lon="10.6689222"><ele>1171.4</ele><time>2026-04-18T13:10:17.94Z</time></trkpt><trkpt lat="44.2721987" lon="10.6690327"><ele>1170.2</ele><time>2026-04-18T13:10:19.94Z</time></trkpt><trkpt lat="44.2721857" lon="10.6691705"><ele>1169.0</ele><time>2026-04-18T13:10:22.941Z</time></trkpt><trkpt lat="44.2722311" lon="10.669302"><ele>1170.6000000000001</ele><time>2026-04-18T13:10:24.94Z</time></trkpt><trkpt lat="44.2723019" lon="10.6693763"><ele>1172.2</ele><time>2026-04-18T13:10:25.941Z</time></trkpt><trkpt lat="44.2723699" lon="10.6694602"><ele>1173.8000000000002</ele><time>2026-04-18T13:10:26.941Z</time></trkpt><trkpt lat="44.2724451" lon="10.6695451"><ele>1175.4</ele><time>2026-04-18T13:10:27.94Z</time></trkpt><trkpt lat="44.2725266" lon="10.6696394"><ele>1177.0</ele><time>2026-04-18T13:10:28.94Z</time></trkpt><trkpt lat="44.2726006" lon="10.6697559"><ele>1177.0</ele><time>2026-04-18T13:10:29.94Z</time></trkpt><trkpt lat="44.2726651" lon="10.66989"><ele>1177.0</ele><time>2026-04-18T13:10:30.941Z</time></trkpt><trkpt lat="44.272702" lon="10.6700482"><ele>1177.0</ele><time>2026-04-18T13:10:31.941Z</time></trkpt><trkpt lat="44.2727138" lon="10.6702179"><ele>1177.0</ele><time>2026-04-18T13:10:32.94Z</time></trkpt><trkpt lat="44.2727168" lon="10.6704019"><ele>1177.5</ele><time>2026-04-18T13:10:33.94Z</time></trkpt><trkpt lat="44.2727174" lon="10.6705918"><ele>1178.0</ele><time>2026-04-18T13:10:34.941Z</time></trkpt><trkpt lat="44.2727176" lon="10.670782"><ele>1178.5</ele><time>2026-04-18T13:10:35.94Z</time></trkpt><trkpt lat="44.272719" lon="10.670985"><ele>1179.0</ele><time>2026-04-18T13:10:36.94Z</time></trkpt><trkpt lat="44.2727241" lon="10.6711884"><ele>1179.5</ele><time>2026-04-18T13:10:37.941Z</time></trkpt><trkpt lat="44.2727285" lon="10.671389"><ele>1180.0</ele><time>2026-04-18T13:10:38.94Z</time></trkpt><trkpt lat="44.2727532" lon="10.671566"><ele>1180.5</ele><time>2026-04-18T13:10:39.941Z</time></trkpt><trkpt lat="44.2728078" lon="10.6716992"><ele>1181.0</ele><time>2026-04-18T13:10:40.94Z</time></trkpt><trkpt lat="44.2728758" lon="10.6717871"><ele>1181.0</ele><time>2026-04-18T13:10:41.941Z</time></trkpt><trkpt lat="44.2729602" lon="10.6718177"><ele>1181.0</ele><time>2026-04-18T13:10:42.94Z</time></trkpt><trkpt lat="44.2730331" lon="10.6717877"><ele>1181.0</ele><time>2026-04-18T13:10:43.94Z</time></trkpt><trkpt lat="44.2730752" lon="10.6716971"><ele>1181.0</ele><time>2026-04-18T13:10:44.94Z</time></trkpt><trkpt lat="44.273088" lon="10.6715713"><ele>1181.0</ele><time>2026-04-18T13:10:45.94Z</time></trkpt><trkpt lat="44.2730826" lon="10.6714198"><ele>1181.0</ele><time>2026-04-18T13:10:46.94Z</time></trkpt><trkpt lat="44.2730825" lon="10.671252"><ele>1180.5</ele><time>2026-04-18T13:10:47.941Z</time></trkpt><trkpt lat="44.2730888" lon="10.6710811"><ele>1180.0</ele><time>2026-04-18T13:10:48.941Z</time></trkpt><trkpt lat="44.2731571" lon="10.6709097"><ele>1179.5</ele><time>2026-04-18T13:10:49.941Z</time></trkpt><trkpt lat="44.2732122" lon="10.6707417"><ele>1179.0</ele><time>2026-04-18T13:10:50.94Z</time></trkpt><trkpt lat="44.2732535" lon="10.6705613"><ele>1187.25</ele><time>2026-04-18T13:10:51.94Z</time></trkpt><trkpt lat="44.2732756" lon="10.6703699"><ele>1195.5</ele><time>2026-04-18T13:10:52.941Z</time></trkpt><trkpt lat="44.273279" lon="10.6701729"><ele>1203.75</ele><time>2026-04-18T13:10:53.941Z</time></trkpt><trkpt lat="44.2732827" lon="10.669972"><ele>1212.0</ele><time>2026-04-18T13:10:54.94Z</time></trkpt><trkpt lat="44.2732768" lon="10.6697706"><ele>1212.0</ele><time>2026-04-18T13:10:55.94Z</time></trkpt><trkpt lat="44.27327" lon="10.6695647"><ele>1212.0</ele><time>2026-04-18T13:10:56.941Z</time></trkpt><trkpt lat="44.273257" lon="10.6693552"><ele>1212.0</ele><time>2026-04-18T13:10:57.94Z</time></trkpt><trkpt lat="44.27324" lon="10.6691467"><ele>1212.0</ele><time>2026-04-18T13:10:58.941Z</time></trkpt><trkpt lat="44.2731925" lon="10.668947"><ele>1213.75</ele><time>2026-04-18T13:10:59.94Z</time></trkpt><trkpt lat="44.2731216" lon="10.6687621"><ele>1215.5</ele><time>2026-04-18T13:11:00.941Z</time></trkpt><trkpt lat="44.2730368" lon="10.6685982"><ele>1217.25</ele><time>2026-04-18T13:11:01.941Z</time></trkpt><trkpt lat="44.2729677" lon="10.6684525"><ele>1219.0</ele><time>2026-04-18T13:11:02.94Z</time></trkpt><trkpt lat="44.272921" lon="10.668308"><ele>1221.0</ele><time>2026-04-18T13:11:03.941Z</time></trkpt><trkpt lat="44.2729223" lon="10.6681833"><ele>1223.0</ele><time>2026-04-18T13:11:04.94Z</time></trkpt><trkpt lat="44.2729604" lon="10.6680826"><ele>1225.0</ele><time>2026-04-18T13:11:05.94Z</time></trkpt><trkpt lat="44.2730367" lon="10.6680392"><ele>1227.0</ele><time>2026-04-18T13:11:06.94Z</time></trkpt><trkpt lat="44.2731229" lon="10.6680559"><ele>1229.0</ele><time>2026-04-18T13:11:07.941Z</time></trkpt><trkpt lat="44.2732136" lon="10.6681211"><ele>1231.0</ele><time>2026-04-18T13:11:08.94Z</time></trkpt><trkpt lat="44.2733155" lon="10.6682034"><ele>1231.0</ele><time>2026-04-18T13:11:09.94Z</time></trkpt><trkpt lat="44.2733912" lon="10.6683682"><ele>1231.0</ele><time>2026-04-18T13:11:10.94Z</time></trkpt><trkpt lat="44.2734445" lon="10.6685355"><ele>1231.0</ele><time>2026-04-18T13:11:11.94Z</time></trkpt><trkpt lat="44.2734818" lon="10.6687052"><ele>1231.0</ele><time>2026-04-18T13:11:12.94Z</time></trkpt><trkpt lat="44.2735231" lon="10.6688617"><ele>1228.0</ele><time>2026-04-18T13:11:13.94Z</time></trkpt><trkpt lat="44.2735885" lon="10.6690076"><ele>1225.0</ele><time>2026-04-18T13:11:14.94Z</time></trkpt><trkpt lat="44.2736561" lon="10.6691511"><ele>1222.0</ele><time>2026-04-18T13:11:15.94Z</time></trkpt><trkpt lat="44.2737654" lon="10.6692501"><ele>1219.0</ele><time>2026-04-18T13:11:16.94Z</time></trkpt><trkpt lat="44.2738598" lon="10.6693665"><ele>1224.75</ele><time>2026-04-18T13:11:17.94Z</time></trkpt><trkpt lat="44.2739545" lon="10.6695203"><ele>1230.5</ele><time>2026-04-18T13:11:18.941Z</time></trkpt><trkpt lat="44.2740244" lon="10.6696856"><ele>1236.25</ele><time>2026-04-18T13:11:19.94Z</time></trkpt><trkpt lat="44.2740876" lon="10.6698558"><ele>1242.0</ele><time>2026-04-18T13:11:20.941Z</time></trkpt><trkpt lat="44.2741569" lon="10.6700279"><ele>1242.0</ele><time>2026-04-18T13:11:21.94Z</time></trkpt><trkpt lat="44.2742269" lon="10.6701945"><ele>1242.0</ele><time>2026-04-18T13:11:22.94Z</time></trkpt><trkpt lat="44.2742941" lon="10.6703404"><ele>1242.0</ele><time>2026-04-18T13:11:23.941Z</time></trkpt><trkpt lat="44.2743707" lon="10.6704639"><ele>1242.0</ele><time>2026-04-18T13:11:24.94Z</time></trkpt><trkpt lat="44.2744484" lon="10.6705877"><ele>1241.8</ele><time>2026-04-18T13:11:25.94Z</time></trkpt><trkpt lat="44.2745197" lon="10.670686"><ele>1241.6</ele><time>2026-04-18T13:11:26.941Z</time></trkpt><trkpt lat="44.2745854" lon="10.67077"><ele>1241.3999999999999</ele><time>2026-04-18T13:11:27.94Z</time></trkpt><trkpt lat="44.2746503" lon="10.6708533"><ele>1241.2</ele><time>2026-04-18T13:11:28.94Z</time></trkpt><trkpt lat="44.274723" lon="10.6709395"><ele>1241.0</ele><time>2026-04-18T13:11:29.941Z</time></trkpt><trkpt lat="44.2747946" lon="10.6710309"><ele>1242.2</ele><time>2026-04-18T13:11:30.941Z</time></trkpt><trkpt lat="44.2748741" lon="10.6711099"><ele>1243.3999999999999</ele><time>2026-04-18T13:11:31.94Z</time></trkpt><trkpt lat="44.2749588" lon="10.6711851"><ele>1244.6</ele><time>2026-04-18T13:11:32.94Z</time></trkpt><trkpt lat="44.2750504" lon="10.6712579"><ele>1245.8</ele><time>2026-04-18T13:11:33.941Z</time></trkpt><trkpt lat="44.2751509" lon="10.6713148"><ele>1247.0</ele><time>2026-04-18T13:11:34.94Z</time></trkpt><trkpt lat="44.2752509" lon="10.671382"><ele>1247.0</ele><time>2026-04-18T13:11:35.94Z</time></trkpt><trkpt lat="44.2753611" lon="10.6714611"><ele>1247.0</ele><time>2026-04-18T13:11:36.941Z</time></trkpt><trkpt lat="44.2754507" lon="10.6715352"><ele>1247.0</ele><time>2026-04-18T13:11:37.94Z</time></trkpt><trkpt lat="44.2755348" lon="10.6716114"><ele>1247.0</ele><time>2026-04-18T13:11:38.94Z</time></trkpt><trkpt lat="44.2756171" lon="10.6716972"><ele>1247.0</ele><time>2026-04-18T13:11:39.941Z</time></trkpt><trkpt lat="44.2757055" lon="10.6717769"><ele>1248.6</ele><time>2026-04-18T13:11:40.94Z</time></trkpt><trkpt lat="44.2757923" lon="10.6718621"><ele>1250.2</ele><time>2026-04-18T13:11:41.94Z</time></trkpt><trkpt lat="44.2758838" lon="10.6719557"><ele>1251.8</ele><time>2026-04-18T13:11:42.94Z</time></trkpt><trkpt lat="44.2759738" lon="10.6720589"><ele>1253.4</ele><time>2026-04-18T13:11:43.94Z</time></trkpt><trkpt lat="44.2760447" lon="10.6721777"><ele>1255.0</ele><time>2026-04-18T13:11:44.94Z</time></trkpt><trkpt lat="44.2761004" lon="10.6723163"><ele>1255.0</ele><time>2026-04-18T13:11:45.941Z</time></trkpt><trkpt lat="44.276143" lon="10.6724664"><ele>1255.0</ele><time>2026-04-18T13:11:46.941Z</time></trkpt><trkpt lat="44.2761773" lon="10.6726286"><ele>1255.0</ele><time>2026-04-18T13:11:47.941Z</time></trkpt><trkpt lat="44.2761972" lon="10.6727948"><ele>1255.0</ele><time>2026-04-18T13:11:48.941Z</time></trkpt><trkpt lat="44.276223" lon="10.6729637"><ele>1254.25</ele><time>2026-04-18T13:11:49.941Z</time></trkpt><trkpt lat="44.2762519" lon="10.6731321"><ele>1253.5</ele><time>2026-04-18T13:11:50.94Z</time></trkpt><trkpt lat="44.2762901" lon="10.6732982"><ele>1252.75</ele><time>2026-04-18T13:11:51.94Z</time></trkpt><trkpt lat="44.2763305" lon="10.673448"><ele>1252.0</ele><time>2026-04-18T13:11:52.941Z</time></trkpt><trkpt lat="44.2763766" lon="10.6735876"><ele>1256.2</ele><time>2026-04-18T13:11:53.94Z</time></trkpt><trkpt lat="44.2764492" lon="10.6736695"><ele>1260.4</ele><time>2026-04-18T13:11:54.941Z</time></trkpt><trkpt lat="44.2765459" lon="10.6737131"><ele>1264.6</ele><time>2026-04-18T13:11:55.94Z</time></trkpt><trkpt lat="44.2766523" lon="10.6737147"><ele>1268.8</ele><time>2026-04-18T13:11:56.941Z</time></trkpt><trkpt lat="44.2767616" lon="10.6736858"><ele>1273.0</ele><time>2026-04-18T13:11:57.94Z</time></trkpt><trkpt lat="44.2768812" lon="10.6736532"><ele>1273.0</ele><time>2026-04-18T13:11:58.941Z</time></trkpt><trkpt lat="44.2770058" lon="10.6736347"><ele>1273.0</ele><time>2026-04-18T13:11:59.941Z</time></trkpt><trkpt lat="44.2771279" lon="10.6736233"><ele>1273.0</ele><time>2026-04-18T13:12:00.941Z</time></trkpt><trkpt lat="44.2772558" lon="10.673622"><ele>1273.0</ele><time>2026-04-18T13:12:01.94Z</time></trkpt><trkpt lat="44.2773849" lon="10.6736229"><ele>1271.0</ele><time>2026-04-18T13:12:02.941Z</time></trkpt><trkpt lat="44.277517" lon="10.6736334"><ele>1269.0</ele><time>2026-04-18T13:12:03.94Z</time></trkpt><trkpt lat="44.2776396" lon="10.6736357"><ele>1267.0</ele><time>2026-04-18T13:12:04.94Z</time></trkpt><trkpt lat="44.2777492" lon="10.6736288"><ele>1265.0</ele><time>2026-04-18T13:12:05.94Z</time></trkpt><trkpt lat="44.2778589" lon="10.6735939"><ele>1266.0</ele><time>2026-04-18T13:12:06.94Z</time></trkpt><trkpt lat="44.2779518" lon="10.6735058"><ele>1267.0</ele><time>2026-04-18T13:12:07.94Z</time></trkpt><trkpt lat="44.2780332" lon="10.6733908"><ele>1268.0</ele><time>2026-04-18T13:12:08.941Z</time></trkpt><trkpt lat="44.2781129" lon="10.6732675"><ele>1269.0</ele><time>2026-04-18T13:12:09.94Z</time></trkpt><trkpt lat="44.2781668" lon="10.6731205"><ele>1269.0</ele><time>2026-04-18T13:12:10.941Z</time></trkpt><trkpt lat="44.2782244" lon="10.6729723"><ele>1269.0</ele><time>2026-04-18T13:12:11.941Z</time></trkpt><trkpt lat="44.2782427" lon="10.6727942"><ele>1269.0</ele><time>2026-04-18T13:12:12.94Z</time></trkpt><trkpt lat="44.278206" lon="10.6726162"><ele>1269.0</ele><time>2026-04-18T13:12:13.941Z</time></trkpt><trkpt lat="44.2782162" lon="10.6724285"><ele>1269.75</ele><time>2026-04-18T13:12:14.941Z</time></trkpt><trkpt lat="44.2782529" lon="10.6722494"><ele>1270.5</ele><time>2026-04-18T13:12:15.941Z</time></trkpt><trkpt lat="44.2782883" lon="10.6720853"><ele>1271.25</ele><time>2026-04-18T13:12:16.94Z</time></trkpt><trkpt lat="44.2783185" lon="10.6719506"><ele>1272.0</ele><time>2026-04-18T13:12:17.94Z</time></trkpt><trkpt lat="44.2783643" lon="10.6718199"><ele>1273.0</ele><time>2026-04-18T13:12:18.941Z</time></trkpt><trkpt lat="44.2784063" lon="10.6716818"><ele>1274.0</ele><time>2026-04-18T13:12:19.94Z</time></trkpt><trkpt lat="44.2784401" lon="10.6715351"><ele>1275.0</ele><time>2026-04-18T13:12:20.94Z</time></trkpt><trkpt lat="44.2784625" lon="10.6713916"><ele>1276.0</ele><time>2026-04-18T13:12:21.94Z</time></trkpt><trkpt lat="44.2784677" lon="10.6712553"><ele>1277.0</ele><time>2026-04-18T13:12:22.941Z</time></trkpt><trkpt lat="44.2784928" lon="10.6711237"><ele>1277.8</ele><time>2026-04-18T13:12:23.941Z</time></trkpt><trkpt lat="44.2785584" lon="10.6710175"><ele>1278.6</ele><time>2026-04-18T13:12:24.941Z</time></trkpt><trkpt lat="44.2786326" lon="10.6709328"><ele>1279.3999999999999</ele><time>2026-04-18T13:12:25.94Z</time></trkpt><trkpt lat="44.2787185" lon="10.6708139"><ele>1280.2</ele><time>2026-04-18T13:12:26.941Z</time></trkpt><trkpt lat="44.2787822" lon="10.6706732"><ele>1281.0</ele><time>2026-04-18T13:12:27.94Z</time></trkpt><trkpt lat="44.2788475" lon="10.6705199"><ele>1281.0</ele><time>2026-04-18T13:12:28.941Z</time></trkpt><trkpt lat="44.2789125" lon="10.6703671"><ele>1281.0</ele><time>2026-04-18T13:12:29.94Z</time></trkpt><trkpt lat="44.2789858" lon="10.6702213"><ele>1281.0</ele><time>2026-04-18T13:12:30.941Z</time></trkpt><trkpt lat="44.2790648" lon="10.670078"><ele>1281.0</ele><time>2026-04-18T13:12:31.94Z</time></trkpt><trkpt lat="44.2791318" lon="10.6699224"><ele>1281.0</ele><time>2026-04-18T13:12:32.94Z</time></trkpt><trkpt lat="44.2791773" lon="10.6697571"><ele>1281.0</ele><time>2026-04-18T13:12:33.94Z</time></trkpt><trkpt lat="44.2791868" lon="10.6695609"><ele>1281.0</ele><time>2026-04-18T13:12:34.941Z</time></trkpt><trkpt lat="44.279225" lon="10.6693852"><ele>1281.0</ele><time>2026-04-18T13:12:35.94Z</time></trkpt><trkpt lat="44.2792668" lon="10.6691999"><ele>1282.5</ele><time>2026-04-18T13:12:36.94Z</time></trkpt><trkpt lat="44.2792747" lon="10.6690125"><ele>1284.0</ele><time>2026-04-18T13:12:37.941Z</time></trkpt><trkpt lat="44.2792888" lon="10.6688479"><ele>1285.5</ele><time>2026-04-18T13:12:38.94Z</time></trkpt><trkpt lat="44.2793186" lon="10.6686797"><ele>1287.0</ele><time>2026-04-18T13:12:39.941Z</time></trkpt><trkpt lat="44.2793843" lon="10.6685361"><ele>1289.5</ele><time>2026-04-18T13:12:40.94Z</time></trkpt><trkpt lat="44.2794534" lon="10.6683835"><ele>1292.0</ele><time>2026-04-18T13:12:41.94Z</time></trkpt><trkpt lat="44.279525" lon="10.6682239"><ele>1294.5</ele><time>2026-04-18T13:12:42.94Z</time></trkpt><trkpt lat="44.2795863" lon="10.6680636"><ele>1297.0</ele><time>2026-04-18T13:12:43.94Z</time></trkpt><trkpt lat="44.2796464" lon="10.6678983"><ele>1298.1999999999998</ele><time>2026-04-18T13:12:44.94Z</time></trkpt><trkpt lat="44.2797007" lon="10.6677399"><ele>1299.4</ele><time>2026-04-18T13:12:45.941Z</time></trkpt><trkpt lat="44.2797512" lon="10.6675939"><ele>1300.6</ele><time>2026-04-18T13:12:46.94Z</time></trkpt><trkpt lat="44.2798107" lon="10.6675055"><ele>1301.8000000000002</ele><time>2026-04-18T13:12:47.941Z</time></trkpt><trkpt lat="44.2798741" lon="10.6674202"><ele>1303.0</ele><time>2026-04-18T13:12:48.94Z</time></trkpt><trkpt lat="44.2799519" lon="10.667407"><ele>1303.0</ele><time>2026-04-18T13:12:49.941Z</time></trkpt><trkpt lat="44.2800488" lon="10.667458"><ele>1303.0</ele><time>2026-04-18T13:12:50.941Z</time></trkpt><trkpt lat="44.2801465" lon="10.6675028"><ele>1303.0</ele><time>2026-04-18T13:12:51.941Z</time></trkpt><trkpt lat="44.280286" lon="10.6675999"><ele>1303.0</ele><time>2026-04-18T13:12:52.94Z</time></trkpt><trkpt lat="44.2804066" lon="10.6676858"><ele>1303.0</ele><time>2026-04-18T13:12:53.94Z</time></trkpt><trkpt lat="44.2805204" lon="10.6677767"><ele>1303.0</ele><time>2026-04-18T13:12:54.941Z</time></trkpt><trkpt lat="44.2806441" lon="10.667848"><ele>1303.0</ele><time>2026-04-18T13:12:55.941Z</time></trkpt><trkpt lat="44.2807717" lon="10.6679001"><ele>1303.0</ele><time>2026-04-18T13:12:56.94Z</time></trkpt><trkpt lat="44.2808992" lon="10.6679389"><ele>1300.5</ele><time>2026-04-18T13:12:57.94Z</time></trkpt><trkpt lat="44.2810275" lon="10.6679663"><ele>1298.0</ele><time>2026-04-18T13:12:58.94Z</time></trkpt><trkpt lat="44.2811531" lon="10.6679804"><ele>1295.5</ele><time>2026-04-18T13:12:59.94Z</time></trkpt><trkpt lat="44.2812859" lon="10.6679176"><ele>1293.0</ele><time>2026-04-18T13:13:00.941Z</time></trkpt><trkpt lat="44.281415" lon="10.6678834"><ele>1293.0</ele><time>2026-04-18T13:13:01.94Z</time></trkpt><trkpt lat="44.2815417" lon="10.6678575"><ele>1293.0</ele><time>2026-04-18T13:13:02.94Z</time></trkpt><trkpt lat="44.2816629" lon="10.667882"><ele>1293.0</ele><time>2026-04-18T13:13:03.94Z</time></trkpt><trkpt lat="44.2817907" lon="10.6678749"><ele>1293.0</ele><time>2026-04-18T13:13:04.941Z</time></trkpt><trkpt lat="44.2818994" lon="10.6678093"><ele>1293.5</ele><time>2026-04-18T13:13:05.941Z</time></trkpt><trkpt lat="44.2820213" lon="10.66773"><ele>1294.0</ele><time>2026-04-18T13:13:06.94Z</time></trkpt><trkpt lat="44.2821263" lon="10.667618"><ele>1294.5</ele><time>2026-04-18T13:13:07.941Z</time></trkpt><trkpt lat="44.2822207" lon="10.6674712"><ele>1295.0</ele><time>2026-04-18T13:13:08.94Z</time></trkpt><trkpt lat="44.282306" lon="10.6673194"><ele>1295.0</ele><time>2026-04-18T13:13:09.941Z</time></trkpt><trkpt lat="44.2824011" lon="10.6671615"><ele>1295.0</ele><time>2026-04-18T13:13:10.94Z</time></trkpt><trkpt lat="44.2825065" lon="10.6670294"><ele>1295.0</ele><time>2026-04-18T13:13:11.94Z</time></trkpt><trkpt lat="44.2826005" lon="10.6669082"><ele>1295.0</ele><time>2026-04-18T13:13:12.941Z</time></trkpt><trkpt lat="44.2826672" lon="10.6667677"><ele>1298.5</ele><time>2026-04-18T13:13:13.941Z</time></trkpt><trkpt lat="44.2827098" lon="10.6666038"><ele>1302.0</ele><time>2026-04-18T13:13:14.94Z</time></trkpt><trkpt lat="44.2827376" lon="10.6664251"><ele>1305.5</ele><time>2026-04-18T13:13:15.941Z</time></trkpt><trkpt lat="44.2827755" lon="10.6662463"><ele>1309.0</ele><time>2026-04-18T13:13:16.94Z</time></trkpt><trkpt lat="44.2828491" lon="10.6660976"><ele>1311.25</ele><time>2026-04-18T13:13:17.941Z</time></trkpt><trkpt lat="44.2829033" lon="10.6659385"><ele>1313.5</ele><time>2026-04-18T13:13:18.941Z</time></trkpt><trkpt lat="44.2829373" lon="10.6657633"><ele>1315.75</ele><time>2026-04-18T13:13:19.94Z</time></trkpt><trkpt lat="44.2829523" lon="10.6655789"><ele>1318.0</ele><time>2026-04-18T13:13:20.94Z</time></trkpt><trkpt lat="44.2829569" lon="10.6653856"><ele>1318.75</ele><time>2026-04-18T13:13:21.941Z</time></trkpt><trkpt lat="44.2829544" lon="10.6651836"><ele>1319.5</ele><time>2026-04-18T13:13:22.94Z</time></trkpt><trkpt lat="44.2829598" lon="10.6649919"><ele>1320.25</ele><time>2026-04-18T13:13:23.941Z</time></trkpt><trkpt lat="44.282963" lon="10.6648178"><ele>1321.0</ele><time>2026-04-18T13:13:24.941Z</time></trkpt><trkpt lat="44.2829713" lon="10.6646506"><ele>1321.0</ele><time>2026-04-18T13:13:25.941Z</time></trkpt><trkpt lat="44.2829646" lon="10.6645442"><ele>1321.0</ele><time>2026-04-18T13:13:26.94Z</time></trkpt><trkpt lat="44.2829775" lon="10.6644254"><ele>1321.0</ele><time>2026-04-18T13:13:27.941Z</time></trkpt><trkpt lat="44.2830312" lon="10.6643523"><ele>1321.0</ele><time>2026-04-18T13:13:28.94Z</time></trkpt><trkpt lat="44.2830977" lon="10.6643321"><ele>1321.0</ele><time>2026-04-18T13:13:29.941Z</time></trkpt><trkpt lat="44.2832129" lon="10.6644498"><ele>1321.0</ele><time>2026-04-18T13:13:31.941Z</time></trkpt><trkpt lat="44.2832669" lon="10.6645543"><ele>1317.0</ele><time>2026-04-18T13:13:32.94Z</time></trkpt><trkpt lat="44.2833329" lon="10.6646796"><ele>1313.0</ele><time>2026-04-18T13:13:33.941Z</time></trkpt><trkpt lat="44.2833942" lon="10.6648087"><ele>1309.0</ele><time>2026-04-18T13:13:34.941Z</time></trkpt><trkpt lat="44.283459" lon="10.6649733"><ele>1305.0</ele><time>2026-04-18T13:13:35.941Z</time></trkpt><trkpt lat="44.2835368" lon="10.6651339"><ele>1302.5</ele><time>2026-04-18T13:13:36.941Z</time></trkpt><trkpt lat="44.2836264" lon="10.6652967"><ele>1300.0</ele><time>2026-04-18T13:13:37.94Z</time></trkpt><trkpt lat="44.2837218" lon="10.6654557"><ele>1297.5</ele><time>2026-04-18T13:13:38.94Z</time></trkpt><trkpt lat="44.2838115" lon="10.6656257"><ele>1295.0</ele><time>2026-04-18T13:13:39.94Z</time></trkpt><trkpt lat="44.2838878" lon="10.6658082"><ele>1295.5</ele><time>2026-04-18T13:13:40.94Z</time></trkpt><trkpt lat="44.2839704" lon="10.6659883"><ele>1296.0</ele><time>2026-04-18T13:13:41.94Z</time></trkpt><trkpt lat="44.2840516" lon="10.6661525"><ele>1296.5</ele><time>2026-04-18T13:13:42.94Z</time></trkpt><trkpt lat="44.2841351" lon="10.6662962"><ele>1297.0</ele><time>2026-04-18T13:13:43.94Z</time></trkpt><trkpt lat="44.2842215" lon="10.666419"><ele>1297.0</ele><time>2026-04-18T13:13:44.94Z</time></trkpt><trkpt lat="44.2843189" lon="10.6665067"><ele>1297.0</ele><time>2026-04-18T13:13:45.94Z</time></trkpt><trkpt lat="44.2844329" lon="10.6665634"><ele>1297.0</ele><time>2026-04-18T13:13:46.941Z</time></trkpt><trkpt lat="44.2845505" lon="10.666584"><ele>1297.0</ele><time>2026-04-18T13:13:47.94Z</time></trkpt><trkpt lat="44.284683" lon="10.6665594"><ele>1299.75</ele><time>2026-04-18T13:13:48.941Z</time></trkpt><trkpt lat="44.2848166" lon="10.6665477"><ele>1302.5</ele><time>2026-04-18T13:13:49.94Z</time></trkpt><trkpt lat="44.2849548" lon="10.6665406"><ele>1305.25</ele><time>2026-04-18T13:13:50.94Z</time></trkpt><trkpt lat="44.2850894" lon="10.6665426"><ele>1308.0</ele><time>2026-04-18T13:13:51.94Z</time></trkpt><trkpt lat="44.2852218" lon="10.6665513"><ele>1308.0</ele><time>2026-04-18T13:13:52.94Z</time></trkpt><trkpt lat="44.2853507" lon="10.6665561"><ele>1308.0</ele><time>2026-04-18T13:13:53.94Z</time></trkpt><trkpt lat="44.2854779" lon="10.6665662"><ele>1308.0</ele><time>2026-04-18T13:13:54.941Z</time></trkpt><trkpt lat="44.2855992" lon="10.6665783"><ele>1308.0</ele><time>2026-04-18T13:13:55.94Z</time></trkpt><trkpt lat="44.2857187" lon="10.6665878"><ele>1309.0</ele><time>2026-04-18T13:13:56.94Z</time></trkpt><trkpt lat="44.2858343" lon="10.6665938"><ele>1310.0</ele><time>2026-04-18T13:13:57.94Z</time></trkpt><trkpt lat="44.2859497" lon="10.6666072"><ele>1311.0</ele><time>2026-04-18T13:13:58.941Z</time></trkpt><trkpt lat="44.286049" lon="10.6666073"><ele>1312.0</ele><time>2026-04-18T13:13:59.941Z</time></trkpt><trkpt lat="44.28615" lon="10.6666059"><ele>1313.0</ele><time>2026-04-18T13:14:00.94Z</time></trkpt><trkpt lat="44.2862327" lon="10.6666063"><ele>1313.0</ele><time>2026-04-18T13:14:01.94Z</time></trkpt><trkpt lat="44.2863185" lon="10.6665991"><ele>1313.0</ele><time>2026-04-18T13:14:02.94Z</time></trkpt><trkpt lat="44.286396" lon="10.6665811"><ele>1313.0</ele><time>2026-04-18T13:14:03.94Z</time></trkpt><trkpt lat="44.2864769" lon="10.6665421"><ele>1313.0</ele><time>2026-04-18T13:14:04.94Z</time></trkpt><trkpt lat="44.2865559" lon="10.6664906"><ele>1313.0</ele><time>2026-04-18T13:14:05.941Z</time></trkpt><trkpt lat="44.2866255" lon="10.6664341"><ele>1313.0</ele><time>2026-04-18T13:14:06.94Z</time></trkpt><trkpt lat="44.2866902" lon="10.6663675"><ele>1311.2</ele><time>2026-04-18T13:14:07.94Z</time></trkpt><trkpt lat="44.2867427" lon="10.6662968"><ele>1309.4</ele><time>2026-04-18T13:14:08.94Z</time></trkpt><trkpt lat="44.286788" lon="10.6662279"><ele>1307.6000000000001</ele><time>2026-04-18T13:14:09.94Z</time></trkpt><trkpt lat="44.2868322" lon="10.6660701"><ele>1305.8000000000002</ele><time>2026-04-18T13:14:11.94Z</time></trkpt><trkpt lat="44.2868544" lon="10.6659105"><ele>1304.0</ele><time>2026-04-18T13:14:13.941Z</time></trkpt><trkpt lat="44.2868893" lon="10.665794"><ele>1303.0</ele><time>2026-04-18T13:14:15.941Z</time></trkpt><trkpt lat="44.2869638" lon="10.6657518"><ele>1303.0</ele><time>2026-04-18T13:14:18.941Z</time></trkpt><trkpt lat="44.2870253" lon="10.6657998"><ele>1303.0</ele><time>2026-04-18T13:14:22.94Z</time></trkpt></trkseg></trk></gpx>